<?xml version="1.0" encoding="UTF-8" standalone="no" ?>
<gpx xmlns="http://www.topografix.com/GPX/1/1" xmlns:xsi="http://www.w3.org/2001/XMLSchema-instance" xsi:schemaLocation="http://www.topografix.com/GPX/1/1 http://www.topografix.com/GPX/1/1/gpx.xsd" version="1.1" creator="VisuGPX - https://www.visugpx.com">
  <metadata>
    <name>2015-06-06 Sangles des Pins Brûlés et Fourneau</name>
    <desc><![CDATA[Beaucoup de chamois sur le sangle du Fourneau]]></desc>
  </metadata>
  <trk>
    <name><![CDATA[Tracé 018]]></name>
    <trkseg>
      <trkpt lat="45.41245" lon="5.8862">
        <ele>1093</ele>
        <time>2015-06-06T07:06:23Z</time>
      </trkpt>
      <trkpt lat="45.41248" lon="5.88615">
        <ele>1093</ele>
        <time>2015-06-06T07:06:28Z</time>
      </trkpt>
      <trkpt lat="45.41244" lon="5.88625">
        <ele>1099.109675948</ele>
        <time>2015-06-06T07:06:33Z</time>
      </trkpt>
      <trkpt lat="45.41243" lon="5.88627">
        <ele>1099.109675948</ele>
        <time>2015-06-06T07:06:38Z</time>
      </trkpt>
      <trkpt lat="45.41243" lon="5.88628">
        <ele>1099.109675948</ele>
        <time>2015-06-06T07:06:43Z</time>
      </trkpt>
      <trkpt lat="45.41242" lon="5.88628">
        <ele>1099.109675948</ele>
        <time>2015-06-06T07:06:48Z</time>
      </trkpt>
      <trkpt lat="45.41242" lon="5.88628">
        <ele>1099.109675948</ele>
        <time>2015-06-06T07:06:53Z</time>
      </trkpt>
      <trkpt lat="45.41243" lon="5.88642">
        <ele>1094.242567452</ele>
        <time>2015-06-06T07:06:58Z</time>
      </trkpt>
      <trkpt lat="45.41244" lon="5.88646">
        <ele>1094.242567452</ele>
        <time>2015-06-06T07:07:03Z</time>
      </trkpt>
      <trkpt lat="45.41244" lon="5.88648">
        <ele>1094.242567452</ele>
        <time>2015-06-06T07:07:08Z</time>
      </trkpt>
      <trkpt lat="45.41244" lon="5.88649">
        <ele>1094.242567452</ele>
        <time>2015-06-06T07:07:13Z</time>
      </trkpt>
      <trkpt lat="45.41244" lon="5.8865">
        <ele>1094.242567452</ele>
        <time>2015-06-06T07:07:18Z</time>
      </trkpt>
      <trkpt lat="45.41244" lon="5.8865">
        <ele>1094.242567452</ele>
        <time>2015-06-06T07:07:23Z</time>
      </trkpt>
      <trkpt lat="45.41244" lon="5.8865">
        <ele>1094.242567452</ele>
        <time>2015-06-06T07:07:28Z</time>
      </trkpt>
      <trkpt lat="45.41242" lon="5.88655">
        <ele>1092.837442784</ele>
        <time>2015-06-06T07:07:34Z</time>
      </trkpt>
      <trkpt lat="45.41239" lon="5.88665">
        <ele>1092.837442784</ele>
        <time>2015-06-06T07:07:40Z</time>
      </trkpt>
      <trkpt lat="45.41234" lon="5.88672">
        <ele>1093.589100432</ele>
        <time>2015-06-06T07:07:44Z</time>
      </trkpt>
      <trkpt lat="45.4123" lon="5.88681">
        <ele>1093.589100432</ele>
        <time>2015-06-06T07:07:50Z</time>
      </trkpt>
      <trkpt lat="45.41225" lon="5.88688">
        <ele>1094.443213991</ele>
        <time>2015-06-06T07:07:54Z</time>
      </trkpt>
      <trkpt lat="45.41222" lon="5.88695">
        <ele>1094.443213991</ele>
        <time>2015-06-06T07:08:00Z</time>
      </trkpt>
      <trkpt lat="45.41217" lon="5.887">
        <ele>1095.064816054</ele>
        <time>2015-06-06T07:08:04Z</time>
      </trkpt>
      <trkpt lat="45.41215" lon="5.88708">
        <ele>1095.064816054</ele>
        <time>2015-06-06T07:08:10Z</time>
      </trkpt>
      <trkpt lat="45.4121" lon="5.88713">
        <ele>1095.757235907</ele>
        <time>2015-06-06T07:08:14Z</time>
      </trkpt>
      <trkpt lat="45.412" lon="5.88714">
        <ele>1096.28187568</ele>
        <time>2015-06-06T07:08:20Z</time>
      </trkpt>
      <trkpt lat="45.41192" lon="5.88724">
        <ele>1096.399611297</ele>
        <time>2015-06-06T07:08:24Z</time>
      </trkpt>
      <trkpt lat="45.41192" lon="5.88732">
        <ele>1096.399611297</ele>
        <time>2015-06-06T07:08:29Z</time>
      </trkpt>
      <trkpt lat="45.4119" lon="5.88735">
        <ele>1096.399611297</ele>
        <time>2015-06-06T07:08:34Z</time>
      </trkpt>
      <trkpt lat="45.41191" lon="5.88742">
        <ele>1095.681567246</ele>
        <time>2015-06-06T07:08:40Z</time>
      </trkpt>
      <trkpt lat="45.41192" lon="5.88746">
        <ele>1095.681567246</ele>
        <time>2015-06-06T07:08:44Z</time>
      </trkpt>
      <trkpt lat="45.41192" lon="5.88754">
        <ele>1095.681567246</ele>
        <time>2015-06-06T07:08:50Z</time>
      </trkpt>
      <trkpt lat="45.41192" lon="5.8876">
        <ele>1095.157952492</ele>
        <time>2015-06-06T07:08:54Z</time>
      </trkpt>
      <trkpt lat="45.41189" lon="5.88764">
        <ele>1095.157952492</ele>
        <time>2015-06-06T07:08:59Z</time>
      </trkpt>
      <trkpt lat="45.41185" lon="5.88772">
        <ele>1094.831430659</ele>
        <time>2015-06-06T07:09:03Z</time>
      </trkpt>
      <trkpt lat="45.41184" lon="5.88778">
        <ele>1094.831430659</ele>
        <time>2015-06-06T07:09:09Z</time>
      </trkpt>
      <trkpt lat="45.41177" lon="5.88783">
        <ele>1094.570297143</ele>
        <time>2015-06-06T07:09:13Z</time>
      </trkpt>
      <trkpt lat="45.41177" lon="5.88786">
        <ele>1094.570297143</ele>
        <time>2015-06-06T07:09:19Z</time>
      </trkpt>
      <trkpt lat="45.41174" lon="5.88792">
        <ele>1094.570297143</ele>
        <time>2015-06-06T07:09:24Z</time>
      </trkpt>
      <trkpt lat="45.41171" lon="5.88794">
        <ele>1094.430589436</ele>
        <time>2015-06-06T07:09:29Z</time>
      </trkpt>
      <trkpt lat="45.41168" lon="5.88801">
        <ele>1094.430589436</ele>
        <time>2015-06-06T07:09:34Z</time>
      </trkpt>
      <trkpt lat="45.41162" lon="5.88808">
        <ele>1093.962669634</ele>
        <time>2015-06-06T07:09:39Z</time>
      </trkpt>
      <trkpt lat="45.41161" lon="5.88817">
        <ele>1093.962669634</ele>
        <time>2015-06-06T07:09:45Z</time>
      </trkpt>
      <trkpt lat="45.41157" lon="5.88819">
        <ele>1093.748524784</ele>
        <time>2015-06-06T07:09:49Z</time>
      </trkpt>
      <trkpt lat="45.41155" lon="5.8882">
        <ele>1093.748524784</ele>
        <time>2015-06-06T07:09:54Z</time>
      </trkpt>
      <trkpt lat="45.41151" lon="5.88824">
        <ele>1093.748524784</ele>
        <time>2015-06-06T07:10:00Z</time>
      </trkpt>
      <trkpt lat="45.41147" lon="5.88827">
        <ele>1094.460483474</ele>
        <time>2015-06-06T07:10:04Z</time>
      </trkpt>
      <trkpt lat="45.41145" lon="5.8883">
        <ele>1094.460483474</ele>
        <time>2015-06-06T07:10:09Z</time>
      </trkpt>
      <trkpt lat="45.41146" lon="5.88836">
        <ele>1094.460483474</ele>
        <time>2015-06-06T07:10:14Z</time>
      </trkpt>
      <trkpt lat="45.41142" lon="5.88841">
        <ele>1095.544359925</ele>
        <time>2015-06-06T07:10:19Z</time>
      </trkpt>
      <trkpt lat="45.41141" lon="5.88845">
        <ele>1095.544359925</ele>
        <time>2015-06-06T07:10:24Z</time>
      </trkpt>
      <trkpt lat="45.41138" lon="5.88845">
        <ele>1095.544359925</ele>
        <time>2015-06-06T07:10:29Z</time>
      </trkpt>
      <trkpt lat="45.41136" lon="5.88849">
        <ele>1096.978951101</ele>
        <time>2015-06-06T07:10:34Z</time>
      </trkpt>
      <trkpt lat="45.4113" lon="5.88848">
        <ele>1096.978951101</ele>
        <time>2015-06-06T07:10:40Z</time>
      </trkpt>
      <trkpt lat="45.41125" lon="5.8885">
        <ele>1097.953354891</ele>
        <time>2015-06-06T07:10:44Z</time>
      </trkpt>
      <trkpt lat="45.41119" lon="5.88852">
        <ele>1097.953354891</ele>
        <time>2015-06-06T07:10:50Z</time>
      </trkpt>
      <trkpt lat="45.41118" lon="5.88854">
        <ele>1097.953354891</ele>
        <time>2015-06-06T07:10:54Z</time>
      </trkpt>
      <trkpt lat="45.41118" lon="5.88857">
        <ele>1099.304745638</ele>
        <time>2015-06-06T07:11:00Z</time>
      </trkpt>
      <trkpt lat="45.41114" lon="5.88864">
        <ele>1099.304745638</ele>
        <time>2015-06-06T07:11:04Z</time>
      </trkpt>
      <trkpt lat="45.41111" lon="5.88865">
        <ele>1099.304745638</ele>
        <time>2015-06-06T07:11:10Z</time>
      </trkpt>
      <trkpt lat="45.41107" lon="5.88867">
        <ele>1101.149113749</ele>
        <time>2015-06-06T07:11:14Z</time>
      </trkpt>
      <trkpt lat="45.41104" lon="5.88874">
        <ele>1101.149113749</ele>
        <time>2015-06-06T07:11:20Z</time>
      </trkpt>
      <trkpt lat="45.411" lon="5.88876">
        <ele>1102.984060156</ele>
        <time>2015-06-06T07:11:24Z</time>
      </trkpt>
      <trkpt lat="45.41099" lon="5.88879">
        <ele>1102.984060156</ele>
        <time>2015-06-06T07:11:30Z</time>
      </trkpt>
      <trkpt lat="45.41095" lon="5.88883">
        <ele>1102.984060156</ele>
        <time>2015-06-06T07:11:34Z</time>
      </trkpt>
      <trkpt lat="45.41095" lon="5.88886">
        <ele>1102.984060156</ele>
        <time>2015-06-06T07:11:39Z</time>
      </trkpt>
      <trkpt lat="45.41093" lon="5.88892">
        <ele>1104.959811628</ele>
        <time>2015-06-06T07:11:44Z</time>
      </trkpt>
      <trkpt lat="45.41087" lon="5.88892">
        <ele>1104.959811628</ele>
        <time>2015-06-06T07:11:50Z</time>
      </trkpt>
      <trkpt lat="45.41083" lon="5.88897">
        <ele>1107.206675001</ele>
        <time>2015-06-06T07:11:54Z</time>
      </trkpt>
      <trkpt lat="45.41081" lon="5.889">
        <ele>1107.206675001</ele>
        <time>2015-06-06T07:12:00Z</time>
      </trkpt>
      <trkpt lat="45.41079" lon="5.889">
        <ele>1107.206675001</ele>
        <time>2015-06-06T07:12:04Z</time>
      </trkpt>
      <trkpt lat="45.41081" lon="5.88905">
        <ele>1107.206675001</ele>
        <time>2015-06-06T07:12:10Z</time>
      </trkpt>
      <trkpt lat="45.41076" lon="5.88902">
        <ele>1110.27054916</ele>
        <time>2015-06-06T07:12:14Z</time>
      </trkpt>
      <trkpt lat="45.41071" lon="5.88909">
        <ele>1110.27054916</ele>
        <time>2015-06-06T07:12:20Z</time>
      </trkpt>
      <trkpt lat="45.41069" lon="5.88911">
        <ele>1113.496537</ele>
        <time>2015-06-06T07:12:23Z</time>
      </trkpt>
      <trkpt lat="45.41068" lon="5.88919">
        <ele>1113.496537</ele>
        <time>2015-06-06T07:12:29Z</time>
      </trkpt>
      <trkpt lat="45.41065" lon="5.88924">
        <ele>1116.442584476</ele>
        <time>2015-06-06T07:12:34Z</time>
      </trkpt>
      <trkpt lat="45.41062" lon="5.88928">
        <ele>1116.442584476</ele>
        <time>2015-06-06T07:12:39Z</time>
      </trkpt>
      <trkpt lat="45.4106" lon="5.88936">
        <ele>1119.131225851</ele>
        <time>2015-06-06T07:12:44Z</time>
      </trkpt>
      <trkpt lat="45.41058" lon="5.88939">
        <ele>1119.131225851</ele>
        <time>2015-06-06T07:12:50Z</time>
      </trkpt>
      <trkpt lat="45.41057" lon="5.88944">
        <ele>1119.131225851</ele>
        <time>2015-06-06T07:12:54Z</time>
      </trkpt>
      <trkpt lat="45.41056" lon="5.88947">
        <ele>1119.131225851</ele>
        <time>2015-06-06T07:13:00Z</time>
      </trkpt>
      <trkpt lat="45.41054" lon="5.88951">
        <ele>1121.023605582</ele>
        <time>2015-06-06T07:13:04Z</time>
      </trkpt>
      <trkpt lat="45.41055" lon="5.88957">
        <ele>1121.023605582</ele>
        <time>2015-06-06T07:13:10Z</time>
      </trkpt>
      <trkpt lat="45.41049" lon="5.88965">
        <ele>1122.876188937</ele>
        <time>2015-06-06T07:13:14Z</time>
      </trkpt>
      <trkpt lat="45.41047" lon="5.88976">
        <ele>1122.876188937</ele>
        <time>2015-06-06T07:13:19Z</time>
      </trkpt>
      <trkpt lat="45.41049" lon="5.88984">
        <ele>1124.827160611</ele>
        <time>2015-06-06T07:13:24Z</time>
      </trkpt>
      <trkpt lat="45.41043" lon="5.88993">
        <ele>1126.172080533</ele>
        <time>2015-06-06T07:13:29Z</time>
      </trkpt>
      <trkpt lat="45.41045" lon="5.89">
        <ele>1126.172080533</ele>
        <time>2015-06-06T07:13:34Z</time>
      </trkpt>
      <trkpt lat="45.4104" lon="5.89006">
        <ele>1127.367457416</ele>
        <time>2015-06-06T07:13:40Z</time>
      </trkpt>
      <trkpt lat="45.41039" lon="5.89015">
        <ele>1127.367457416</ele>
        <time>2015-06-06T07:13:44Z</time>
      </trkpt>
      <trkpt lat="45.41039" lon="5.89021">
        <ele>1128.003189156</ele>
        <time>2015-06-06T07:13:50Z</time>
      </trkpt>
      <trkpt lat="45.41037" lon="5.89032">
        <ele>1128.003189156</ele>
        <time>2015-06-06T07:13:54Z</time>
      </trkpt>
      <trkpt lat="45.41039" lon="5.89041">
        <ele>1128.535119078</ele>
        <time>2015-06-06T07:14:00Z</time>
      </trkpt>
      <trkpt lat="45.41038" lon="5.89047">
        <ele>1128.535119078</ele>
        <time>2015-06-06T07:14:04Z</time>
      </trkpt>
      <trkpt lat="45.41036" lon="5.89059">
        <ele>1128.689881776</ele>
        <time>2015-06-06T07:14:09Z</time>
      </trkpt>
      <trkpt lat="45.41036" lon="5.89067">
        <ele>1128.689881776</ele>
        <time>2015-06-06T07:14:13Z</time>
      </trkpt>
      <trkpt lat="45.41038" lon="5.89076">
        <ele>1128.352093247</ele>
        <time>2015-06-06T07:14:18Z</time>
      </trkpt>
      <trkpt lat="45.41043" lon="5.89084">
        <ele>1128.352093247</ele>
        <time>2015-06-06T07:14:24Z</time>
      </trkpt>
      <trkpt lat="45.41039" lon="5.89094">
        <ele>1128.270839389</ele>
        <time>2015-06-06T07:14:30Z</time>
      </trkpt>
      <trkpt lat="45.41039" lon="5.89098">
        <ele>1128.270839389</ele>
        <time>2015-06-06T07:14:34Z</time>
      </trkpt>
      <trkpt lat="45.41044" lon="5.89107">
        <ele>1127.577345326</ele>
        <time>2015-06-06T07:14:39Z</time>
      </trkpt>
      <trkpt lat="45.41043" lon="5.89117">
        <ele>1127.577345326</ele>
        <time>2015-06-06T07:14:45Z</time>
      </trkpt>
      <trkpt lat="45.41043" lon="5.89129">
        <ele>1127.040931835</ele>
        <time>2015-06-06T07:14:49Z</time>
      </trkpt>
      <trkpt lat="45.41039" lon="5.89134">
        <ele>1127.040931835</ele>
        <time>2015-06-06T07:14:54Z</time>
      </trkpt>
      <trkpt lat="45.41039" lon="5.89135">
        <ele>1127.040931835</ele>
        <time>2015-06-06T07:15:00Z</time>
      </trkpt>
      <trkpt lat="45.4104" lon="5.89139">
        <ele>1126.809838155</ele>
        <time>2015-06-06T07:15:04Z</time>
      </trkpt>
      <trkpt lat="45.41032" lon="5.89145">
        <ele>1127.316891052</ele>
        <time>2015-06-06T07:15:10Z</time>
      </trkpt>
      <trkpt lat="45.4103" lon="5.89153">
        <ele>1127.316891052</ele>
        <time>2015-06-06T07:15:14Z</time>
      </trkpt>
      <trkpt lat="45.41025" lon="5.89158">
        <ele>1127.345652124</ele>
        <time>2015-06-06T07:15:20Z</time>
      </trkpt>
      <trkpt lat="45.41021" lon="5.89161">
        <ele>1127.345652124</ele>
        <time>2015-06-06T07:15:24Z</time>
      </trkpt>
      <trkpt lat="45.41015" lon="5.89167">
        <ele>1126.34164008</ele>
        <time>2015-06-06T07:15:30Z</time>
      </trkpt>
      <trkpt lat="45.41011" lon="5.89169">
        <ele>1126.34164008</ele>
        <time>2015-06-06T07:15:33Z</time>
      </trkpt>
      <trkpt lat="45.41005" lon="5.89174">
        <ele>1125.873784042</ele>
        <time>2015-06-06T07:15:40Z</time>
      </trkpt>
      <trkpt lat="45.40997" lon="5.89174">
        <ele>1125.873784042</ele>
        <time>2015-06-06T07:15:44Z</time>
      </trkpt>
      <trkpt lat="45.40993" lon="5.89182">
        <ele>1125.170492306</ele>
        <time>2015-06-06T07:15:50Z</time>
      </trkpt>
      <trkpt lat="45.40988" lon="5.89186">
        <ele>1125.170492306</ele>
        <time>2015-06-06T07:15:54Z</time>
      </trkpt>
      <trkpt lat="45.40988" lon="5.89195">
        <ele>1124.409285572</ele>
        <time>2015-06-06T07:16:00Z</time>
      </trkpt>
      <trkpt lat="45.40984" lon="5.892">
        <ele>1124.409285572</ele>
        <time>2015-06-06T07:16:04Z</time>
      </trkpt>
      <trkpt lat="45.40976" lon="5.89204">
        <ele>1124.20725288</ele>
        <time>2015-06-06T07:16:10Z</time>
      </trkpt>
      <trkpt lat="45.40969" lon="5.89209">
        <ele>1124.20725288</ele>
        <time>2015-06-06T07:16:14Z</time>
      </trkpt>
      <trkpt lat="45.40967" lon="5.89218">
        <ele>1124.231430257</ele>
        <time>2015-06-06T07:16:19Z</time>
      </trkpt>
      <trkpt lat="45.40962" lon="5.89223">
        <ele>1124.231430257</ele>
        <time>2015-06-06T07:16:24Z</time>
      </trkpt>
      <trkpt lat="45.40965" lon="5.89228">
        <ele>1124.773739876</ele>
        <time>2015-06-06T07:16:30Z</time>
      </trkpt>
      <trkpt lat="45.40958" lon="5.8924">
        <ele>1124.742751112</ele>
        <time>2015-06-06T07:16:34Z</time>
      </trkpt>
      <trkpt lat="45.40952" lon="5.89241">
        <ele>1124.742751112</ele>
        <time>2015-06-06T07:16:39Z</time>
      </trkpt>
      <trkpt lat="45.40944" lon="5.89245">
        <ele>1123.886110379</ele>
        <time>2015-06-06T07:16:44Z</time>
      </trkpt>
      <trkpt lat="45.40939" lon="5.89252">
        <ele>1123.886110379</ele>
        <time>2015-06-06T07:16:50Z</time>
      </trkpt>
      <trkpt lat="45.40933" lon="5.89259">
        <ele>1122.729171445</ele>
        <time>2015-06-06T07:16:54Z</time>
      </trkpt>
      <trkpt lat="45.40927" lon="5.89266">
        <ele>1122.729171445</ele>
        <time>2015-06-06T07:17:00Z</time>
      </trkpt>
      <trkpt lat="45.40919" lon="5.89266">
        <ele>1121.455633781</ele>
        <time>2015-06-06T07:17:04Z</time>
      </trkpt>
      <trkpt lat="45.40909" lon="5.89262">
        <ele>1119.933450959</ele>
        <time>2015-06-06T07:17:10Z</time>
      </trkpt>
      <trkpt lat="45.40905" lon="5.89272">
        <ele>1119.933450959</ele>
        <time>2015-06-06T07:17:14Z</time>
      </trkpt>
      <trkpt lat="45.409" lon="5.89274">
        <ele>1118.342366688</ele>
        <time>2015-06-06T07:17:19Z</time>
      </trkpt>
      <trkpt lat="45.40893" lon="5.89283">
        <ele>1116.997081421</ele>
        <time>2015-06-06T07:17:24Z</time>
      </trkpt>
      <trkpt lat="45.40891" lon="5.89288">
        <ele>1116.997081421</ele>
        <time>2015-06-06T07:17:29Z</time>
      </trkpt>
      <trkpt lat="45.40886" lon="5.89294">
        <ele>1116.184759983</ele>
        <time>2015-06-06T07:17:34Z</time>
      </trkpt>
      <trkpt lat="45.40884" lon="5.89297">
        <ele>1116.184759983</ele>
        <time>2015-06-06T07:17:40Z</time>
      </trkpt>
      <trkpt lat="45.40879" lon="5.89305">
        <ele>1114.822564436</ele>
        <time>2015-06-06T07:17:44Z</time>
      </trkpt>
      <trkpt lat="45.40875" lon="5.89307">
        <ele>1114.822564436</ele>
        <time>2015-06-06T07:17:50Z</time>
      </trkpt>
      <trkpt lat="45.40872" lon="5.89319">
        <ele>1113.409458588</ele>
        <time>2015-06-06T07:17:54Z</time>
      </trkpt>
      <trkpt lat="45.40869" lon="5.89328">
        <ele>1113.409458588</ele>
        <time>2015-06-06T07:17:59Z</time>
      </trkpt>
      <trkpt lat="45.40868" lon="5.8934">
        <ele>1111.51085604</ele>
        <time>2015-06-06T07:18:04Z</time>
      </trkpt>
      <trkpt lat="45.40866" lon="5.89348">
        <ele>1111.51085604</ele>
        <time>2015-06-06T07:18:10Z</time>
      </trkpt>
      <trkpt lat="45.40863" lon="5.89359">
        <ele>1109.470859303</ele>
        <time>2015-06-06T07:18:14Z</time>
      </trkpt>
      <trkpt lat="45.40858" lon="5.89372">
        <ele>1107.604712314</ele>
        <time>2015-06-06T07:18:20Z</time>
      </trkpt>
      <trkpt lat="45.40857" lon="5.89379">
        <ele>1107.604712314</ele>
        <time>2015-06-06T07:18:24Z</time>
      </trkpt>
      <trkpt lat="45.40859" lon="5.89383">
        <ele>1107.604712314</ele>
        <time>2015-06-06T07:18:29Z</time>
      </trkpt>
      <trkpt lat="45.40859" lon="5.89387">
        <ele>1105.168211814</ele>
        <time>2015-06-06T07:18:33Z</time>
      </trkpt>
      <trkpt lat="45.40858" lon="5.89401">
        <ele>1102.657440924</ele>
        <time>2015-06-06T07:18:39Z</time>
      </trkpt>
      <trkpt lat="45.40858" lon="5.89413">
        <ele>1102.657440924</ele>
        <time>2015-06-06T07:18:45Z</time>
      </trkpt>
      <trkpt lat="45.40858" lon="5.89418">
        <ele>1099.940008863</ele>
        <time>2015-06-06T07:18:49Z</time>
      </trkpt>
      <trkpt lat="45.40856" lon="5.89429">
        <ele>1099.940008863</ele>
        <time>2015-06-06T07:18:54Z</time>
      </trkpt>
      <trkpt lat="45.40858" lon="5.89441">
        <ele>1097.773520761</ele>
        <time>2015-06-06T07:19:00Z</time>
      </trkpt>
      <trkpt lat="45.4086" lon="5.89452">
        <ele>1097.773520761</ele>
        <time>2015-06-06T07:19:04Z</time>
      </trkpt>
      <trkpt lat="45.40857" lon="5.89461">
        <ele>1096.121043721</ele>
        <time>2015-06-06T07:19:10Z</time>
      </trkpt>
      <trkpt lat="45.40853" lon="5.89471">
        <ele>1096.121043721</ele>
        <time>2015-06-06T07:19:14Z</time>
      </trkpt>
      <trkpt lat="45.40854" lon="5.89477">
        <ele>1094.655527696</ele>
        <time>2015-06-06T07:19:19Z</time>
      </trkpt>
      <trkpt lat="45.4085" lon="5.89486">
        <ele>1094.655527696</ele>
        <time>2015-06-06T07:19:24Z</time>
      </trkpt>
      <trkpt lat="45.40846" lon="5.89494">
        <ele>1093.512734691</ele>
        <time>2015-06-06T07:19:30Z</time>
      </trkpt>
      <trkpt lat="45.40843" lon="5.89502">
        <ele>1093.512734691</ele>
        <time>2015-06-06T07:19:34Z</time>
      </trkpt>
      <trkpt lat="45.40838" lon="5.89504">
        <ele>1093.398336379</ele>
        <time>2015-06-06T07:19:40Z</time>
      </trkpt>
      <trkpt lat="45.40835" lon="5.89515">
        <ele>1093.398336379</ele>
        <time>2015-06-06T07:19:44Z</time>
      </trkpt>
      <trkpt lat="45.40831" lon="5.89518">
        <ele>1093.071585803</ele>
        <time>2015-06-06T07:19:50Z</time>
      </trkpt>
      <trkpt lat="45.40822" lon="5.89527">
        <ele>1093.275456094</ele>
        <time>2015-06-06T07:19:54Z</time>
      </trkpt>
      <trkpt lat="45.40815" lon="5.89528">
        <ele>1093.275456094</ele>
        <time>2015-06-06T07:20:00Z</time>
      </trkpt>
      <trkpt lat="45.40809" lon="5.89528">
        <ele>1094.548448727</ele>
        <time>2015-06-06T07:20:04Z</time>
      </trkpt>
      <trkpt lat="45.40805" lon="5.89534">
        <ele>1094.548448727</ele>
        <time>2015-06-06T07:20:10Z</time>
      </trkpt>
      <trkpt lat="45.40802" lon="5.89538">
        <ele>1096.226767104</ele>
        <time>2015-06-06T07:20:14Z</time>
      </trkpt>
      <trkpt lat="45.40795" lon="5.89538">
        <ele>1096.226767104</ele>
        <time>2015-06-06T07:20:20Z</time>
      </trkpt>
      <trkpt lat="45.40792" lon="5.89544">
        <ele>1098.564440097</ele>
        <time>2015-06-06T07:20:24Z</time>
      </trkpt>
      <trkpt lat="45.40787" lon="5.89548">
        <ele>1098.564440097</ele>
        <time>2015-06-06T07:20:30Z</time>
      </trkpt>
      <trkpt lat="45.40783" lon="5.89547">
        <ele>1098.564440097</ele>
        <time>2015-06-06T07:20:34Z</time>
      </trkpt>
      <trkpt lat="45.40775" lon="5.89544">
        <ele>1100.204673719</ele>
        <time>2015-06-06T07:20:39Z</time>
      </trkpt>
      <trkpt lat="45.40773" lon="5.89547">
        <ele>1100.204673719</ele>
        <time>2015-06-06T07:20:44Z</time>
      </trkpt>
      <trkpt lat="45.40764" lon="5.89554">
        <ele>1102.495103668</ele>
        <time>2015-06-06T07:20:50Z</time>
      </trkpt>
      <trkpt lat="45.40755" lon="5.89561">
        <ele>1104.947296142</ele>
        <time>2015-06-06T07:20:54Z</time>
      </trkpt>
      <trkpt lat="45.4075" lon="5.89567">
        <ele>1104.947296142</ele>
        <time>2015-06-06T07:20:59Z</time>
      </trkpt>
      <trkpt lat="45.40742" lon="5.89568">
        <ele>1107.686271331</ele>
        <time>2015-06-06T07:21:04Z</time>
      </trkpt>
      <trkpt lat="45.40731" lon="5.89565">
        <ele>1110.249808358</ele>
        <time>2015-06-06T07:21:09Z</time>
      </trkpt>
      <trkpt lat="45.40723" lon="5.89565">
        <ele>1110.249808358</ele>
        <time>2015-06-06T07:21:14Z</time>
      </trkpt>
      <trkpt lat="45.40713" lon="5.8956">
        <ele>1113.364314036</ele>
        <time>2015-06-06T07:21:20Z</time>
      </trkpt>
      <trkpt lat="45.4071" lon="5.89559">
        <ele>1113.364314036</ele>
        <time>2015-06-06T07:21:24Z</time>
      </trkpt>
      <trkpt lat="45.40704" lon="5.89562">
        <ele>1116.402897562</ele>
        <time>2015-06-06T07:21:29Z</time>
      </trkpt>
      <trkpt lat="45.40702" lon="5.89567">
        <ele>1116.402897562</ele>
        <time>2015-06-06T07:21:33Z</time>
      </trkpt>
      <trkpt lat="45.40692" lon="5.89566">
        <ele>1119.506218153</ele>
        <time>2015-06-06T07:21:39Z</time>
      </trkpt>
      <trkpt lat="45.40683" lon="5.89565">
        <ele>1122.948540752</ele>
        <time>2015-06-06T07:21:45Z</time>
      </trkpt>
      <trkpt lat="45.40682" lon="5.89564">
        <ele>1122.948540752</ele>
        <time>2015-06-06T07:21:50Z</time>
      </trkpt>
      <trkpt lat="45.40679" lon="5.89562">
        <ele>1122.948540752</ele>
        <time>2015-06-06T07:21:54Z</time>
      </trkpt>
      <trkpt lat="45.40671" lon="5.89556">
        <ele>1125.397105248</ele>
        <time>2015-06-06T07:22:00Z</time>
      </trkpt>
      <trkpt lat="45.40665" lon="5.89555">
        <ele>1125.397105248</ele>
        <time>2015-06-06T07:22:04Z</time>
      </trkpt>
      <trkpt lat="45.40655" lon="5.89546">
        <ele>1127.926791886</ele>
        <time>2015-06-06T07:22:10Z</time>
      </trkpt>
      <trkpt lat="45.40654" lon="5.89546">
        <ele>1127.926791886</ele>
        <time>2015-06-06T07:22:14Z</time>
      </trkpt>
      <trkpt lat="45.40648" lon="5.89544">
        <ele>1127.926791886</ele>
        <time>2015-06-06T07:22:19Z</time>
      </trkpt>
      <trkpt lat="45.4064" lon="5.89542">
        <ele>1129.226463179</ele>
        <time>2015-06-06T07:22:24Z</time>
      </trkpt>
      <trkpt lat="45.40633" lon="5.89544">
        <ele>1129.226463179</ele>
        <time>2015-06-06T07:22:29Z</time>
      </trkpt>
      <trkpt lat="45.40626" lon="5.89542">
        <ele>1130.391720287</ele>
        <time>2015-06-06T07:22:35Z</time>
      </trkpt>
      <trkpt lat="45.4062" lon="5.8954">
        <ele>1130.391720287</ele>
        <time>2015-06-06T07:22:39Z</time>
      </trkpt>
      <trkpt lat="45.40615" lon="5.89538">
        <ele>1131.42893292</ele>
        <time>2015-06-06T07:22:44Z</time>
      </trkpt>
      <trkpt lat="45.40613" lon="5.89535">
        <ele>1131.42893292</ele>
        <time>2015-06-06T07:22:49Z</time>
      </trkpt>
      <trkpt lat="45.40612" lon="5.89533">
        <ele>1131.42893292</ele>
        <time>2015-06-06T07:22:54Z</time>
      </trkpt>
      <trkpt lat="45.40608" lon="5.89531">
        <ele>1131.42893292</ele>
        <time>2015-06-06T07:23:00Z</time>
      </trkpt>
      <trkpt lat="45.40606" lon="5.89529">
        <ele>1132.632909438</ele>
        <time>2015-06-06T07:23:04Z</time>
      </trkpt>
      <trkpt lat="45.40606" lon="5.89526">
        <ele>1132.632909438</ele>
        <time>2015-06-06T07:23:09Z</time>
      </trkpt>
      <trkpt lat="45.40593" lon="5.89518">
        <ele>1134.132310545</ele>
        <time>2015-06-06T07:23:15Z</time>
      </trkpt>
      <trkpt lat="45.40586" lon="5.89515">
        <ele>1134.132310545</ele>
        <time>2015-06-06T07:23:19Z</time>
      </trkpt>
      <trkpt lat="45.4058" lon="5.89518">
        <ele>1136.045676189</ele>
        <time>2015-06-06T07:23:24Z</time>
      </trkpt>
      <trkpt lat="45.40575" lon="5.89524">
        <ele>1136.045676189</ele>
        <time>2015-06-06T07:23:29Z</time>
      </trkpt>
      <trkpt lat="45.40566" lon="5.89529">
        <ele>1137.183792676</ele>
        <time>2015-06-06T07:23:35Z</time>
      </trkpt>
      <trkpt lat="45.40558" lon="5.89531">
        <ele>1137.183792676</ele>
        <time>2015-06-06T07:23:39Z</time>
      </trkpt>
      <trkpt lat="45.40554" lon="5.89536">
        <ele>1138.033568675</ele>
        <time>2015-06-06T07:23:44Z</time>
      </trkpt>
      <trkpt lat="45.40553" lon="5.89538">
        <ele>1138.033568675</ele>
        <time>2015-06-06T07:23:49Z</time>
      </trkpt>
      <trkpt lat="45.40554" lon="5.89538">
        <ele>1138.033568675</ele>
        <time>2015-06-06T07:23:55Z</time>
      </trkpt>
      <trkpt lat="45.40552" lon="5.89537">
        <ele>1138.033568675</ele>
        <time>2015-06-06T07:23:59Z</time>
      </trkpt>
      <trkpt lat="45.40551" lon="5.89536">
        <ele>1138.033568675</ele>
        <time>2015-06-06T07:24:05Z</time>
      </trkpt>
      <trkpt lat="45.4055" lon="5.89536">
        <ele>1138.033568675</ele>
        <time>2015-06-06T07:24:09Z</time>
      </trkpt>
      <trkpt lat="45.40548" lon="5.89536">
        <ele>1138.033568675</ele>
        <time>2015-06-06T07:24:15Z</time>
      </trkpt>
      <trkpt lat="45.40537" lon="5.89542">
        <ele>1139.768342687</ele>
        <time>2015-06-06T07:24:19Z</time>
      </trkpt>
      <trkpt lat="45.40527" lon="5.89549">
        <ele>1141.597821658</ele>
        <time>2015-06-06T07:24:24Z</time>
      </trkpt>
      <trkpt lat="45.40521" lon="5.89563">
        <ele>1143.078104141</ele>
        <time>2015-06-06T07:24:29Z</time>
      </trkpt>
      <trkpt lat="45.40517" lon="5.89568">
        <ele>1143.078104141</ele>
        <time>2015-06-06T07:24:33Z</time>
      </trkpt>
      <trkpt lat="45.40512" lon="5.89572">
        <ele>1144.520259537</ele>
        <time>2015-06-06T07:24:40Z</time>
      </trkpt>
      <trkpt lat="45.40509" lon="5.89578">
        <ele>1144.520259537</ele>
        <time>2015-06-06T07:24:44Z</time>
      </trkpt>
      <trkpt lat="45.40499" lon="5.89578">
        <ele>1146.068501536</ele>
        <time>2015-06-06T07:24:49Z</time>
      </trkpt>
      <trkpt lat="45.40491" lon="5.89579">
        <ele>1146.068501536</ele>
        <time>2015-06-06T07:24:55Z</time>
      </trkpt>
      <trkpt lat="45.40484" lon="5.89583">
        <ele>1147.567794602</ele>
        <time>2015-06-06T07:24:59Z</time>
      </trkpt>
      <trkpt lat="45.40479" lon="5.89589">
        <ele>1147.567794602</ele>
        <time>2015-06-06T07:25:04Z</time>
      </trkpt>
      <trkpt lat="45.4047" lon="5.89589">
        <ele>1149.019023863</ele>
        <time>2015-06-06T07:25:09Z</time>
      </trkpt>
      <trkpt lat="45.40462" lon="5.89589">
        <ele>1149.019023863</ele>
        <time>2015-06-06T07:25:15Z</time>
      </trkpt>
      <trkpt lat="45.40459" lon="5.89592">
        <ele>1150.56751575</ele>
        <time>2015-06-06T07:25:19Z</time>
      </trkpt>
      <trkpt lat="45.40454" lon="5.89603">
        <ele>1150.56751575</ele>
        <time>2015-06-06T07:25:24Z</time>
      </trkpt>
      <trkpt lat="45.40446" lon="5.89615">
        <ele>1150.905460393</ele>
        <time>2015-06-06T07:25:29Z</time>
      </trkpt>
      <trkpt lat="45.40445" lon="5.89622">
        <ele>1150.905460393</ele>
        <time>2015-06-06T07:25:35Z</time>
      </trkpt>
      <trkpt lat="45.40441" lon="5.8963">
        <ele>1151.565145501</ele>
        <time>2015-06-06T07:25:39Z</time>
      </trkpt>
      <trkpt lat="45.4044" lon="5.89643">
        <ele>1151.657736319</ele>
        <time>2015-06-06T07:25:44Z</time>
      </trkpt>
      <trkpt lat="45.40438" lon="5.89646">
        <ele>1151.657736319</ele>
        <time>2015-06-06T07:25:49Z</time>
      </trkpt>
      <trkpt lat="45.40437" lon="5.89654">
        <ele>1151.657736319</ele>
        <time>2015-06-06T07:25:55Z</time>
      </trkpt>
      <trkpt lat="45.40436" lon="5.89667">
        <ele>1151.659465964</ele>
        <time>2015-06-06T07:25:59Z</time>
      </trkpt>
      <trkpt lat="45.40433" lon="5.89678">
        <ele>1151.659465964</ele>
        <time>2015-06-06T07:26:04Z</time>
      </trkpt>
      <trkpt lat="45.4043" lon="5.89684">
        <ele>1151.290812902</ele>
        <time>2015-06-06T07:26:09Z</time>
      </trkpt>
      <trkpt lat="45.40427" lon="5.89692">
        <ele>1151.290812902</ele>
        <time>2015-06-06T07:26:15Z</time>
      </trkpt>
      <trkpt lat="45.40425" lon="5.89698">
        <ele>1151.159139706</ele>
        <time>2015-06-06T07:26:19Z</time>
      </trkpt>
      <trkpt lat="45.40427" lon="5.89708">
        <ele>1151.159139706</ele>
        <time>2015-06-06T07:26:24Z</time>
      </trkpt>
      <trkpt lat="45.40423" lon="5.89715">
        <ele>1151.249704396</ele>
        <time>2015-06-06T07:26:29Z</time>
      </trkpt>
      <trkpt lat="45.40422" lon="5.89726">
        <ele>1151.249704396</ele>
        <time>2015-06-06T07:26:35Z</time>
      </trkpt>
      <trkpt lat="45.4042" lon="5.89739">
        <ele>1151.115735777</ele>
        <time>2015-06-06T07:26:39Z</time>
      </trkpt>
      <trkpt lat="45.40412" lon="5.89744">
        <ele>1151.115735777</ele>
        <time>2015-06-06T07:26:44Z</time>
      </trkpt>
      <trkpt lat="45.40408" lon="5.89748">
        <ele>1151.497432642</ele>
        <time>2015-06-06T07:26:49Z</time>
      </trkpt>
      <trkpt lat="45.40406" lon="5.8976">
        <ele>1151.497432642</ele>
        <time>2015-06-06T07:26:55Z</time>
      </trkpt>
      <trkpt lat="45.40403" lon="5.89769">
        <ele>1151.20488955</ele>
        <time>2015-06-06T07:26:59Z</time>
      </trkpt>
      <trkpt lat="45.40401" lon="5.89777">
        <ele>1151.20488955</ele>
        <time>2015-06-06T07:27:04Z</time>
      </trkpt>
      <trkpt lat="45.40402" lon="5.89787">
        <ele>1151.300146508</ele>
        <time>2015-06-06T07:27:09Z</time>
      </trkpt>
      <trkpt lat="45.40404" lon="5.89796">
        <ele>1151.300146508</ele>
        <time>2015-06-06T07:27:15Z</time>
      </trkpt>
      <trkpt lat="45.40401" lon="5.89802">
        <ele>1151.756883971</ele>
        <time>2015-06-06T07:27:19Z</time>
      </trkpt>
      <trkpt lat="45.40398" lon="5.89809">
        <ele>1151.756883971</ele>
        <time>2015-06-06T07:27:24Z</time>
      </trkpt>
      <trkpt lat="45.40397" lon="5.89815">
        <ele>1152.117273335</ele>
        <time>2015-06-06T07:27:29Z</time>
      </trkpt>
      <trkpt lat="45.40392" lon="5.8982">
        <ele>1152.117273335</ele>
        <time>2015-06-06T07:27:34Z</time>
      </trkpt>
      <trkpt lat="45.40393" lon="5.8983">
        <ele>1152.678172179</ele>
        <time>2015-06-06T07:27:40Z</time>
      </trkpt>
      <trkpt lat="45.40392" lon="5.89834">
        <ele>1152.678172179</ele>
        <time>2015-06-06T07:27:44Z</time>
      </trkpt>
      <trkpt lat="45.40395" lon="5.89841">
        <ele>1152.678172179</ele>
        <time>2015-06-06T07:27:49Z</time>
      </trkpt>
      <trkpt lat="45.40395" lon="5.89855">
        <ele>1152.272646471</ele>
        <time>2015-06-06T07:27:55Z</time>
      </trkpt>
      <trkpt lat="45.40396" lon="5.89864">
        <ele>1152.272646471</ele>
        <time>2015-06-06T07:27:59Z</time>
      </trkpt>
      <trkpt lat="45.40395" lon="5.89866">
        <ele>1152.272646471</ele>
        <time>2015-06-06T07:28:04Z</time>
      </trkpt>
      <trkpt lat="45.40394" lon="5.89867">
        <ele>1151.984322278</ele>
        <time>2015-06-06T07:28:09Z</time>
      </trkpt>
      <trkpt lat="45.40389" lon="5.89876">
        <ele>1151.984322278</ele>
        <time>2015-06-06T07:28:15Z</time>
      </trkpt>
      <trkpt lat="45.40386" lon="5.89886">
        <ele>1153.249140949</ele>
        <time>2015-06-06T07:28:19Z</time>
      </trkpt>
      <trkpt lat="45.40386" lon="5.89896">
        <ele>1153.249140949</ele>
        <time>2015-06-06T07:28:24Z</time>
      </trkpt>
      <trkpt lat="45.40383" lon="5.89905">
        <ele>1154.078160812</ele>
        <time>2015-06-06T07:28:29Z</time>
      </trkpt>
      <trkpt lat="45.40378" lon="5.89914">
        <ele>1154.078160812</ele>
        <time>2015-06-06T07:28:35Z</time>
      </trkpt>
      <trkpt lat="45.40376" lon="5.89921">
        <ele>1155.512385496</ele>
        <time>2015-06-06T07:28:39Z</time>
      </trkpt>
      <trkpt lat="45.40374" lon="5.89928">
        <ele>1155.512385496</ele>
        <time>2015-06-06T07:28:44Z</time>
      </trkpt>
      <trkpt lat="45.40369" lon="5.89929">
        <ele>1157.073352595</ele>
        <time>2015-06-06T07:28:49Z</time>
      </trkpt>
      <trkpt lat="45.40369" lon="5.89932">
        <ele>1157.073352595</ele>
        <time>2015-06-06T07:28:55Z</time>
      </trkpt>
      <trkpt lat="45.4037" lon="5.89938">
        <ele>1157.073352595</ele>
        <time>2015-06-06T07:28:59Z</time>
      </trkpt>
      <trkpt lat="45.40366" lon="5.89944">
        <ele>1158.605649595</ele>
        <time>2015-06-06T07:29:04Z</time>
      </trkpt>
      <trkpt lat="45.40369" lon="5.89951">
        <ele>1158.605649595</ele>
        <time>2015-06-06T07:29:09Z</time>
      </trkpt>
      <trkpt lat="45.40365" lon="5.89956">
        <ele>1160.253595645</ele>
        <time>2015-06-06T07:29:15Z</time>
      </trkpt>
      <trkpt lat="45.40368" lon="5.89962">
        <ele>1160.253595645</ele>
        <time>2015-06-06T07:29:19Z</time>
      </trkpt>
      <trkpt lat="45.40362" lon="5.89969">
        <ele>1162.006462684</ele>
        <time>2015-06-06T07:29:24Z</time>
      </trkpt>
      <trkpt lat="45.40357" lon="5.89974">
        <ele>1162.006462684</ele>
        <time>2015-06-06T07:29:29Z</time>
      </trkpt>
      <trkpt lat="45.40356" lon="5.89978">
        <ele>1162.006462684</ele>
        <time>2015-06-06T07:29:35Z</time>
      </trkpt>
      <trkpt lat="45.40356" lon="5.89982">
        <ele>1163.565795028</ele>
        <time>2015-06-06T07:29:39Z</time>
      </trkpt>
      <trkpt lat="45.40355" lon="5.89986">
        <ele>1163.565795028</ele>
        <time>2015-06-06T07:29:44Z</time>
      </trkpt>
      <trkpt lat="45.40352" lon="5.8999">
        <ele>1163.565795028</ele>
        <time>2015-06-06T07:29:49Z</time>
      </trkpt>
      <trkpt lat="45.40348" lon="5.89997">
        <ele>1165.952646825</ele>
        <time>2015-06-06T07:29:55Z</time>
      </trkpt>
      <trkpt lat="45.40352" lon="5.90001">
        <ele>1165.952646825</ele>
        <time>2015-06-06T07:29:59Z</time>
      </trkpt>
      <trkpt lat="45.40351" lon="5.90004">
        <ele>1165.952646825</ele>
        <time>2015-06-06T07:30:04Z</time>
      </trkpt>
      <trkpt lat="45.40356" lon="5.90006">
        <ele>1168.813733748</ele>
        <time>2015-06-06T07:30:09Z</time>
      </trkpt>
      <trkpt lat="45.40355" lon="5.90013">
        <ele>1168.813733748</ele>
        <time>2015-06-06T07:30:15Z</time>
      </trkpt>
      <trkpt lat="45.40354" lon="5.90021">
        <ele>1171.099869009</ele>
        <time>2015-06-06T07:30:19Z</time>
      </trkpt>
      <trkpt lat="45.40352" lon="5.90025">
        <ele>1171.099869009</ele>
        <time>2015-06-06T07:30:24Z</time>
      </trkpt>
      <trkpt lat="45.40351" lon="5.90029">
        <ele>1171.099869009</ele>
        <time>2015-06-06T07:30:29Z</time>
      </trkpt>
      <trkpt lat="45.40353" lon="5.90035">
        <ele>1173.425837864</ele>
        <time>2015-06-06T07:30:34Z</time>
      </trkpt>
      <trkpt lat="45.40355" lon="5.9004">
        <ele>1173.425837864</ele>
        <time>2015-06-06T07:30:40Z</time>
      </trkpt>
      <trkpt lat="45.40351" lon="5.90048">
        <ele>1175.784749864</ele>
        <time>2015-06-06T07:30:44Z</time>
      </trkpt>
      <trkpt lat="45.40347" lon="5.90054">
        <ele>1175.784749864</ele>
        <time>2015-06-06T07:30:49Z</time>
      </trkpt>
      <trkpt lat="45.40348" lon="5.90059">
        <ele>1177.737850205</ele>
        <time>2015-06-06T07:30:55Z</time>
      </trkpt>
      <trkpt lat="45.40344" lon="5.90057">
        <ele>1177.737850205</ele>
        <time>2015-06-06T07:30:59Z</time>
      </trkpt>
      <trkpt lat="45.40349" lon="5.90064">
        <ele>1179.456268378</ele>
        <time>2015-06-06T07:31:04Z</time>
      </trkpt>
      <trkpt lat="45.40346" lon="5.90067">
        <ele>1179.456268378</ele>
        <time>2015-06-06T07:31:09Z</time>
      </trkpt>
      <trkpt lat="45.40342" lon="5.90072">
        <ele>1179.456268378</ele>
        <time>2015-06-06T07:31:15Z</time>
      </trkpt>
      <trkpt lat="45.40343" lon="5.90074">
        <ele>1181.675743439</ele>
        <time>2015-06-06T07:31:19Z</time>
      </trkpt>
      <trkpt lat="45.40344" lon="5.90075">
        <ele>1181.675743439</ele>
        <time>2015-06-06T07:31:24Z</time>
      </trkpt>
      <trkpt lat="45.40344" lon="5.90075">
        <ele>1181.675743439</ele>
        <time>2015-06-06T07:31:29Z</time>
      </trkpt>
      <trkpt lat="45.40344" lon="5.90075">
        <ele>1181.675743439</ele>
        <time>2015-06-06T07:31:35Z</time>
      </trkpt>
      <trkpt lat="45.40344" lon="5.90075">
        <ele>1181.675743439</ele>
        <time>2015-06-06T07:31:39Z</time>
      </trkpt>
      <trkpt lat="45.40344" lon="5.90075">
        <ele>1181.675743439</ele>
        <time>2015-06-06T07:31:44Z</time>
      </trkpt>
      <trkpt lat="45.40338" lon="5.90083">
        <ele>1184.78841453</ele>
        <time>2015-06-06T07:31:49Z</time>
      </trkpt>
      <trkpt lat="45.4034" lon="5.90098">
        <ele>1187.425830228</ele>
        <time>2015-06-06T07:31:55Z</time>
      </trkpt>
      <trkpt lat="45.40337" lon="5.90109">
        <ele>1187.425830228</ele>
        <time>2015-06-06T07:31:59Z</time>
      </trkpt>
      <trkpt lat="45.40337" lon="5.90113">
        <ele>1189.618501129</ele>
        <time>2015-06-06T07:32:03Z</time>
      </trkpt>
      <trkpt lat="45.40337" lon="5.90115">
        <ele>1189.618501129</ele>
        <time>2015-06-06T07:32:08Z</time>
      </trkpt>
      <trkpt lat="45.40337" lon="5.90115">
        <ele>1189.618501129</ele>
        <time>2015-06-06T07:32:14Z</time>
      </trkpt>
      <trkpt lat="45.40337" lon="5.90115">
        <ele>1189.618501129</ele>
        <time>2015-06-06T07:32:19Z</time>
      </trkpt>
      <trkpt lat="45.40337" lon="5.90115">
        <ele>1189.618501129</ele>
        <time>2015-06-06T07:32:24Z</time>
      </trkpt>
      <trkpt lat="45.40337" lon="5.90115">
        <ele>1189.618501129</ele>
        <time>2015-06-06T07:32:29Z</time>
      </trkpt>
      <trkpt lat="45.40337" lon="5.90115">
        <ele>1189.618501129</ele>
        <time>2015-06-06T07:32:34Z</time>
      </trkpt>
      <trkpt lat="45.40337" lon="5.90115">
        <ele>1189.618501129</ele>
        <time>2015-06-06T07:32:39Z</time>
      </trkpt>
      <trkpt lat="45.40337" lon="5.90115">
        <ele>1189.618501129</ele>
        <time>2015-06-06T07:32:44Z</time>
      </trkpt>
      <trkpt lat="45.40336" lon="5.90126">
        <ele>1189.618501129</ele>
        <time>2015-06-06T07:32:49Z</time>
      </trkpt>
      <trkpt lat="45.40334" lon="5.90137">
        <ele>1193.701863621</ele>
        <time>2015-06-06T07:32:54Z</time>
      </trkpt>
      <trkpt lat="45.40332" lon="5.90146">
        <ele>1193.701863621</ele>
        <time>2015-06-06T07:32:59Z</time>
      </trkpt>
      <trkpt lat="45.40333" lon="5.90149">
        <ele>1197.655292745</ele>
        <time>2015-06-06T07:33:04Z</time>
      </trkpt>
      <trkpt lat="45.40331" lon="5.90154">
        <ele>1197.655292745</ele>
        <time>2015-06-06T07:33:09Z</time>
      </trkpt>
      <trkpt lat="45.4033" lon="5.90164">
        <ele>1201.192327724</ele>
        <time>2015-06-06T07:33:14Z</time>
      </trkpt>
      <trkpt lat="45.40326" lon="5.90168">
        <ele>1201.192327724</ele>
        <time>2015-06-06T07:33:19Z</time>
      </trkpt>
      <trkpt lat="45.40325" lon="5.90169">
        <ele>1201.192327724</ele>
        <time>2015-06-06T07:33:24Z</time>
      </trkpt>
      <trkpt lat="45.40325" lon="5.9017">
        <ele>1201.192327724</ele>
        <time>2015-06-06T07:33:28Z</time>
      </trkpt>
      <trkpt lat="45.40324" lon="5.90171">
        <ele>1201.192327724</ele>
        <time>2015-06-06T07:33:34Z</time>
      </trkpt>
      <trkpt lat="45.40324" lon="5.90172">
        <ele>1201.192327724</ele>
        <time>2015-06-06T07:33:39Z</time>
      </trkpt>
      <trkpt lat="45.40324" lon="5.90172">
        <ele>1201.192327724</ele>
        <time>2015-06-06T07:33:44Z</time>
      </trkpt>
      <trkpt lat="45.40324" lon="5.90172">
        <ele>1201.192327724</ele>
        <time>2015-06-06T07:33:49Z</time>
      </trkpt>
      <trkpt lat="45.40322" lon="5.90177">
        <ele>1205.922336923</ele>
        <time>2015-06-06T07:33:54Z</time>
      </trkpt>
      <trkpt lat="45.40322" lon="5.90192">
        <ele>1209.874510765</ele>
        <time>2015-06-06T07:33:59Z</time>
      </trkpt>
      <trkpt lat="45.40326" lon="5.90202">
        <ele>1209.874510765</ele>
        <time>2015-06-06T07:34:04Z</time>
      </trkpt>
      <trkpt lat="45.40327" lon="5.90211">
        <ele>1214.251560925</ele>
        <time>2015-06-06T07:34:09Z</time>
      </trkpt>
      <trkpt lat="45.40329" lon="5.90218">
        <ele>1214.251560925</ele>
        <time>2015-06-06T07:34:14Z</time>
      </trkpt>
      <trkpt lat="45.40326" lon="5.90221">
        <ele>1214.251560925</ele>
        <time>2015-06-06T07:34:19Z</time>
      </trkpt>
      <trkpt lat="45.40329" lon="5.90227">
        <ele>1219.158022302</ele>
        <time>2015-06-06T07:34:24Z</time>
      </trkpt>
      <trkpt lat="45.40328" lon="5.90232">
        <ele>1219.158022302</ele>
        <time>2015-06-06T07:34:29Z</time>
      </trkpt>
      <trkpt lat="45.40328" lon="5.90237">
        <ele>1219.158022302</ele>
        <time>2015-06-06T07:34:34Z</time>
      </trkpt>
      <trkpt lat="45.40326" lon="5.9024">
        <ele>1223.968873632</ele>
        <time>2015-06-06T07:34:39Z</time>
      </trkpt>
      <trkpt lat="45.40326" lon="5.90248">
        <ele>1223.968873632</ele>
        <time>2015-06-06T07:34:44Z</time>
      </trkpt>
      <trkpt lat="45.40327" lon="5.90252">
        <ele>1223.968873632</ele>
        <time>2015-06-06T07:34:49Z</time>
      </trkpt>
      <trkpt lat="45.40329" lon="5.90256">
        <ele>1229.114276593</ele>
        <time>2015-06-06T07:34:54Z</time>
      </trkpt>
      <trkpt lat="45.40329" lon="5.90254">
        <ele>1229.114276593</ele>
        <time>2015-06-06T07:34:59Z</time>
      </trkpt>
      <trkpt lat="45.40328" lon="5.90254">
        <ele>1229.114276593</ele>
        <time>2015-06-06T07:35:04Z</time>
      </trkpt>
      <trkpt lat="45.40329" lon="5.90256">
        <ele>1229.114276593</ele>
        <time>2015-06-06T07:35:09Z</time>
      </trkpt>
      <trkpt lat="45.40329" lon="5.90257">
        <ele>1229.114276593</ele>
        <time>2015-06-06T07:35:14Z</time>
      </trkpt>
      <trkpt lat="45.40329" lon="5.90257">
        <ele>1229.114276593</ele>
        <time>2015-06-06T07:35:19Z</time>
      </trkpt>
      <trkpt lat="45.40329" lon="5.90257">
        <ele>1229.114276593</ele>
        <time>2015-06-06T07:35:24Z</time>
      </trkpt>
      <trkpt lat="45.40333" lon="5.90268">
        <ele>1233.839144712</ele>
        <time>2015-06-06T07:35:29Z</time>
      </trkpt>
      <trkpt lat="45.40332" lon="5.90279">
        <ele>1233.839144712</ele>
        <time>2015-06-06T07:35:34Z</time>
      </trkpt>
      <trkpt lat="45.40332" lon="5.90284">
        <ele>1238.742295381</ele>
        <time>2015-06-06T07:35:39Z</time>
      </trkpt>
      <trkpt lat="45.4033" lon="5.90284">
        <ele>1238.742295381</ele>
        <time>2015-06-06T07:35:44Z</time>
      </trkpt>
      <trkpt lat="45.40329" lon="5.90285">
        <ele>1238.742295381</ele>
        <time>2015-06-06T07:35:49Z</time>
      </trkpt>
      <trkpt lat="45.4033" lon="5.90285">
        <ele>1238.742295381</ele>
        <time>2015-06-06T07:35:54Z</time>
      </trkpt>
      <trkpt lat="45.4033" lon="5.90285">
        <ele>1238.742295381</ele>
        <time>2015-06-06T07:35:59Z</time>
      </trkpt>
      <trkpt lat="45.4033" lon="5.90285">
        <ele>1238.742295381</ele>
        <time>2015-06-06T07:36:04Z</time>
      </trkpt>
      <trkpt lat="45.40337" lon="5.90281">
        <ele>1243.513598963</ele>
        <time>2015-06-06T07:36:09Z</time>
      </trkpt>
      <trkpt lat="45.40344" lon="5.90279">
        <ele>1243.513598963</ele>
        <time>2015-06-06T07:36:14Z</time>
      </trkpt>
      <trkpt lat="45.40348" lon="5.90282">
        <ele>1248.875120762</ele>
        <time>2015-06-06T07:36:19Z</time>
      </trkpt>
      <trkpt lat="45.40352" lon="5.90284">
        <ele>1248.875120762</ele>
        <time>2015-06-06T07:36:24Z</time>
      </trkpt>
      <trkpt lat="45.40352" lon="5.90294">
        <ele>1253.90921656</ele>
        <time>2015-06-06T07:36:28Z</time>
      </trkpt>
      <trkpt lat="45.40355" lon="5.90299">
        <ele>1253.90921656</ele>
        <time>2015-06-06T07:36:34Z</time>
      </trkpt>
      <trkpt lat="45.40355" lon="5.90305">
        <ele>1253.90921656</ele>
        <time>2015-06-06T07:36:39Z</time>
      </trkpt>
      <trkpt lat="45.40356" lon="5.90309">
        <ele>1259.352086464</ele>
        <time>2015-06-06T07:36:44Z</time>
      </trkpt>
      <trkpt lat="45.40356" lon="5.90315">
        <ele>1259.352086464</ele>
        <time>2015-06-06T07:36:49Z</time>
      </trkpt>
      <trkpt lat="45.40365" lon="5.90325">
        <ele>1264.732052303</ele>
        <time>2015-06-06T07:36:54Z</time>
      </trkpt>
      <trkpt lat="45.40365" lon="5.90334">
        <ele>1264.732052303</ele>
        <time>2015-06-06T07:36:59Z</time>
      </trkpt>
      <trkpt lat="45.40362" lon="5.90337">
        <ele>1269.612534618</ele>
        <time>2015-06-06T07:37:04Z</time>
      </trkpt>
      <trkpt lat="45.4036" lon="5.90336">
        <ele>1269.612534618</ele>
        <time>2015-06-06T07:37:09Z</time>
      </trkpt>
      <trkpt lat="45.40359" lon="5.90338">
        <ele>1269.612534618</ele>
        <time>2015-06-06T07:37:14Z</time>
      </trkpt>
      <trkpt lat="45.4036" lon="5.90339">
        <ele>1269.612534618</ele>
        <time>2015-06-06T07:37:19Z</time>
      </trkpt>
      <trkpt lat="45.4036" lon="5.90339">
        <ele>1269.612534618</ele>
        <time>2015-06-06T07:37:24Z</time>
      </trkpt>
      <trkpt lat="45.4036" lon="5.90339">
        <ele>1269.612534618</ele>
        <time>2015-06-06T07:37:29Z</time>
      </trkpt>
      <trkpt lat="45.4036" lon="5.90339">
        <ele>1269.612534618</ele>
        <time>2015-06-06T07:37:34Z</time>
      </trkpt>
      <trkpt lat="45.40361" lon="5.90339">
        <ele>1269.612534618</ele>
        <time>2015-06-06T07:37:39Z</time>
      </trkpt>
      <trkpt lat="45.40361" lon="5.90339">
        <ele>1269.612534618</ele>
        <time>2015-06-06T07:37:44Z</time>
      </trkpt>
      <trkpt lat="45.40359" lon="5.90342">
        <ele>1269.612534618</ele>
        <time>2015-06-06T07:37:49Z</time>
      </trkpt>
      <trkpt lat="45.40355" lon="5.90355">
        <ele>1274.455383625</ele>
        <time>2015-06-06T07:37:54Z</time>
      </trkpt>
      <trkpt lat="45.40355" lon="5.90371">
        <ele>1278.535994998</ele>
        <time>2015-06-06T07:37:59Z</time>
      </trkpt>
      <trkpt lat="45.40349" lon="5.90377">
        <ele>1278.535994998</ele>
        <time>2015-06-06T07:38:04Z</time>
      </trkpt>
      <trkpt lat="45.40349" lon="5.90384">
        <ele>1282.77065281</ele>
        <time>2015-06-06T07:38:09Z</time>
      </trkpt>
      <trkpt lat="45.40348" lon="5.90391">
        <ele>1282.77065281</ele>
        <time>2015-06-06T07:38:14Z</time>
      </trkpt>
      <trkpt lat="45.40347" lon="5.90394">
        <ele>1282.77065281</ele>
        <time>2015-06-06T07:38:19Z</time>
      </trkpt>
      <trkpt lat="45.40351" lon="5.90395">
        <ele>1287.719938959</ele>
        <time>2015-06-06T07:38:24Z</time>
      </trkpt>
      <trkpt lat="45.40353" lon="5.90396">
        <ele>1287.719938959</ele>
        <time>2015-06-06T07:38:28Z</time>
      </trkpt>
      <trkpt lat="45.40353" lon="5.90401">
        <ele>1287.719938959</ele>
        <time>2015-06-06T07:38:34Z</time>
      </trkpt>
      <trkpt lat="45.40347" lon="5.90406">
        <ele>1291.739823141</ele>
        <time>2015-06-06T07:38:39Z</time>
      </trkpt>
      <trkpt lat="45.40349" lon="5.90407">
        <ele>1291.739823141</ele>
        <time>2015-06-06T07:38:44Z</time>
      </trkpt>
      <trkpt lat="45.40349" lon="5.90407">
        <ele>1291.739823141</ele>
        <time>2015-06-06T07:38:49Z</time>
      </trkpt>
      <trkpt lat="45.40349" lon="5.90407">
        <ele>1291.739823141</ele>
        <time>2015-06-06T07:38:54Z</time>
      </trkpt>
      <trkpt lat="45.40349" lon="5.90407">
        <ele>1291.739823141</ele>
        <time>2015-06-06T07:38:59Z</time>
      </trkpt>
      <trkpt lat="45.40349" lon="5.90407">
        <ele>1291.739823141</ele>
        <time>2015-06-06T07:39:04Z</time>
      </trkpt>
      <trkpt lat="45.40349" lon="5.90407">
        <ele>1291.739823141</ele>
        <time>2015-06-06T07:39:09Z</time>
      </trkpt>
      <trkpt lat="45.40349" lon="5.90407">
        <ele>1291.739823141</ele>
        <time>2015-06-06T07:39:14Z</time>
      </trkpt>
      <trkpt lat="45.40352" lon="5.90414">
        <ele>1291.739823141</ele>
        <time>2015-06-06T07:39:19Z</time>
      </trkpt>
      <trkpt lat="45.40352" lon="5.90424">
        <ele>1294.895153698</ele>
        <time>2015-06-06T07:39:24Z</time>
      </trkpt>
      <trkpt lat="45.40353" lon="5.90427">
        <ele>1294.895153698</ele>
        <time>2015-06-06T07:39:28Z</time>
      </trkpt>
      <trkpt lat="45.40361" lon="5.90435">
        <ele>1298.257473166</ele>
        <time>2015-06-06T07:39:34Z</time>
      </trkpt>
      <trkpt lat="45.40362" lon="5.90441">
        <ele>1298.257473166</ele>
        <time>2015-06-06T07:39:39Z</time>
      </trkpt>
      <trkpt lat="45.40361" lon="5.90442">
        <ele>1298.257473166</ele>
        <time>2015-06-06T07:39:44Z</time>
      </trkpt>
      <trkpt lat="45.40362" lon="5.90443">
        <ele>1298.257473166</ele>
        <time>2015-06-06T07:39:49Z</time>
      </trkpt>
      <trkpt lat="45.40363" lon="5.90443">
        <ele>1298.257473166</ele>
        <time>2015-06-06T07:39:54Z</time>
      </trkpt>
      <trkpt lat="45.40363" lon="5.90443">
        <ele>1298.257473166</ele>
        <time>2015-06-06T07:39:59Z</time>
      </trkpt>
      <trkpt lat="45.40363" lon="5.90443">
        <ele>1298.257473166</ele>
        <time>2015-06-06T07:40:04Z</time>
      </trkpt>
      <trkpt lat="45.40363" lon="5.90443">
        <ele>1298.257473166</ele>
        <time>2015-06-06T07:40:09Z</time>
      </trkpt>
      <trkpt lat="45.40363" lon="5.90443">
        <ele>1298.257473166</ele>
        <time>2015-06-06T07:40:14Z</time>
      </trkpt>
      <trkpt lat="45.40363" lon="5.90443">
        <ele>1298.257473166</ele>
        <time>2015-06-06T07:40:19Z</time>
      </trkpt>
      <trkpt lat="45.40363" lon="5.90443">
        <ele>1298.257473166</ele>
        <time>2015-06-06T07:40:24Z</time>
      </trkpt>
      <trkpt lat="45.40363" lon="5.90443">
        <ele>1298.257473166</ele>
        <time>2015-06-06T07:40:29Z</time>
      </trkpt>
      <trkpt lat="45.40364" lon="5.90443">
        <ele>1298.257473166</ele>
        <time>2015-06-06T07:40:34Z</time>
      </trkpt>
      <trkpt lat="45.40365" lon="5.90444">
        <ele>1301.95458706</ele>
        <time>2015-06-06T07:40:39Z</time>
      </trkpt>
      <trkpt lat="45.40364" lon="5.90448">
        <ele>1301.95458706</ele>
        <time>2015-06-06T07:40:44Z</time>
      </trkpt>
      <trkpt lat="45.40361" lon="5.90455">
        <ele>1301.95458706</ele>
        <time>2015-06-06T07:40:49Z</time>
      </trkpt>
      <trkpt lat="45.40361" lon="5.90468">
        <ele>1305.671859834</ele>
        <time>2015-06-06T07:40:54Z</time>
      </trkpt>
      <trkpt lat="45.40361" lon="5.90476">
        <ele>1305.671859834</ele>
        <time>2015-06-06T07:40:59Z</time>
      </trkpt>
      <trkpt lat="45.40366" lon="5.90482">
        <ele>1309.83848374</ele>
        <time>2015-06-06T07:41:04Z</time>
      </trkpt>
      <trkpt lat="45.40363" lon="5.90481">
        <ele>1309.83848374</ele>
        <time>2015-06-06T07:41:09Z</time>
      </trkpt>
      <trkpt lat="45.40364" lon="5.90489">
        <ele>1309.83848374</ele>
        <time>2015-06-06T07:41:14Z</time>
      </trkpt>
      <trkpt lat="45.40365" lon="5.90491">
        <ele>1314.41872721</ele>
        <time>2015-06-06T07:41:19Z</time>
      </trkpt>
      <trkpt lat="45.40364" lon="5.9049">
        <ele>1314.41872721</ele>
        <time>2015-06-06T07:41:24Z</time>
      </trkpt>
      <trkpt lat="45.40364" lon="5.9049">
        <ele>1314.41872721</ele>
        <time>2015-06-06T07:41:29Z</time>
      </trkpt>
      <trkpt lat="45.40364" lon="5.9049">
        <ele>1314.41872721</ele>
        <time>2015-06-06T07:41:34Z</time>
      </trkpt>
      <trkpt lat="45.40364" lon="5.9049">
        <ele>1314.41872721</ele>
        <time>2015-06-06T07:41:39Z</time>
      </trkpt>
      <trkpt lat="45.40364" lon="5.9049">
        <ele>1314.41872721</ele>
        <time>2015-06-06T07:41:44Z</time>
      </trkpt>
      <trkpt lat="45.40364" lon="5.9049">
        <ele>1314.41872721</ele>
        <time>2015-06-06T07:41:49Z</time>
      </trkpt>
      <trkpt lat="45.40364" lon="5.9049">
        <ele>1314.41872721</ele>
        <time>2015-06-06T07:41:54Z</time>
      </trkpt>
      <trkpt lat="45.40364" lon="5.9049">
        <ele>1314.41872721</ele>
        <time>2015-06-06T07:41:59Z</time>
      </trkpt>
      <trkpt lat="45.40364" lon="5.9049">
        <ele>1314.41872721</ele>
        <time>2015-06-06T07:42:04Z</time>
      </trkpt>
      <trkpt lat="45.40363" lon="5.9049">
        <ele>1314.41872721</ele>
        <time>2015-06-06T07:42:09Z</time>
      </trkpt>
      <trkpt lat="45.40363" lon="5.9049">
        <ele>1314.41872721</ele>
        <time>2015-06-06T07:42:14Z</time>
      </trkpt>
      <trkpt lat="45.40363" lon="5.9049">
        <ele>1314.41872721</ele>
        <time>2015-06-06T07:42:19Z</time>
      </trkpt>
      <trkpt lat="45.40363" lon="5.9049">
        <ele>1314.41872721</ele>
        <time>2015-06-06T07:42:24Z</time>
      </trkpt>
      <trkpt lat="45.40363" lon="5.9049">
        <ele>1314.41872721</ele>
        <time>2015-06-06T07:42:28Z</time>
      </trkpt>
      <trkpt lat="45.40361" lon="5.90492">
        <ele>1314.41872721</ele>
        <time>2015-06-06T07:42:34Z</time>
      </trkpt>
      <trkpt lat="45.40358" lon="5.90504">
        <ele>1319.378518193</ele>
        <time>2015-06-06T07:42:39Z</time>
      </trkpt>
      <trkpt lat="45.40353" lon="5.90508">
        <ele>1319.378518193</ele>
        <time>2015-06-06T07:42:44Z</time>
      </trkpt>
      <trkpt lat="45.40353" lon="5.90513">
        <ele>1319.378518193</ele>
        <time>2015-06-06T07:42:49Z</time>
      </trkpt>
      <trkpt lat="45.4035" lon="5.90517">
        <ele>1325.117749261</ele>
        <time>2015-06-06T07:42:54Z</time>
      </trkpt>
      <trkpt lat="45.4035" lon="5.9052">
        <ele>1325.117749261</ele>
        <time>2015-06-06T07:42:59Z</time>
      </trkpt>
      <trkpt lat="45.40347" lon="5.9052">
        <ele>1325.117749261</ele>
        <time>2015-06-06T07:43:04Z</time>
      </trkpt>
      <trkpt lat="45.40347" lon="5.90521">
        <ele>1325.117749261</ele>
        <time>2015-06-06T07:43:09Z</time>
      </trkpt>
      <trkpt lat="45.40347" lon="5.90521">
        <ele>1325.117749261</ele>
        <time>2015-06-06T07:43:14Z</time>
      </trkpt>
      <trkpt lat="45.40347" lon="5.90521">
        <ele>1325.117749261</ele>
        <time>2015-06-06T07:43:19Z</time>
      </trkpt>
      <trkpt lat="45.40347" lon="5.90521">
        <ele>1325.117749261</ele>
        <time>2015-06-06T07:43:24Z</time>
      </trkpt>
      <trkpt lat="45.40347" lon="5.90521">
        <ele>1325.117749261</ele>
        <time>2015-06-06T07:43:29Z</time>
      </trkpt>
      <trkpt lat="45.40347" lon="5.90521">
        <ele>1325.117749261</ele>
        <time>2015-06-06T07:43:34Z</time>
      </trkpt>
      <trkpt lat="45.40347" lon="5.90521">
        <ele>1325.117749261</ele>
        <time>2015-06-06T07:43:39Z</time>
      </trkpt>
      <trkpt lat="45.40342" lon="5.90524">
        <ele>1331.572608064</ele>
        <time>2015-06-06T07:43:44Z</time>
      </trkpt>
      <trkpt lat="45.40341" lon="5.90525">
        <ele>1331.572608064</ele>
        <time>2015-06-06T07:43:49Z</time>
      </trkpt>
      <trkpt lat="45.40338" lon="5.90524">
        <ele>1331.572608064</ele>
        <time>2015-06-06T07:43:54Z</time>
      </trkpt>
      <trkpt lat="45.40336" lon="5.90524">
        <ele>1331.572608064</ele>
        <time>2015-06-06T07:43:59Z</time>
      </trkpt>
      <trkpt lat="45.40338" lon="5.90524">
        <ele>1331.572608064</ele>
        <time>2015-06-06T07:44:04Z</time>
      </trkpt>
      <trkpt lat="45.40338" lon="5.90524">
        <ele>1331.572608064</ele>
        <time>2015-06-06T07:44:09Z</time>
      </trkpt>
      <trkpt lat="45.40338" lon="5.90524">
        <ele>1331.572608064</ele>
        <time>2015-06-06T07:44:14Z</time>
      </trkpt>
      <trkpt lat="45.40338" lon="5.90524">
        <ele>1331.572608064</ele>
        <time>2015-06-06T07:44:19Z</time>
      </trkpt>
      <trkpt lat="45.40338" lon="5.90524">
        <ele>1331.572608064</ele>
        <time>2015-06-06T07:44:24Z</time>
      </trkpt>
      <trkpt lat="45.40338" lon="5.90524">
        <ele>1331.572608064</ele>
        <time>2015-06-06T07:44:29Z</time>
      </trkpt>
      <trkpt lat="45.40338" lon="5.90524">
        <ele>1331.572608064</ele>
        <time>2015-06-06T07:44:34Z</time>
      </trkpt>
      <trkpt lat="45.40338" lon="5.90524">
        <ele>1331.572608064</ele>
        <time>2015-06-06T07:44:39Z</time>
      </trkpt>
      <trkpt lat="45.40342" lon="5.90536">
        <ele>1339.114495597</ele>
        <time>2015-06-06T07:44:44Z</time>
      </trkpt>
      <trkpt lat="45.40347" lon="5.9055">
        <ele>1345.634794192</ele>
        <time>2015-06-06T07:44:49Z</time>
      </trkpt>
      <trkpt lat="45.40351" lon="5.90547">
        <ele>1345.634794192</ele>
        <time>2015-06-06T07:44:54Z</time>
      </trkpt>
      <trkpt lat="45.40351" lon="5.90548">
        <ele>1345.634794192</ele>
        <time>2015-06-06T07:44:59Z</time>
      </trkpt>
      <trkpt lat="45.40352" lon="5.90548">
        <ele>1345.634794192</ele>
        <time>2015-06-06T07:45:04Z</time>
      </trkpt>
      <trkpt lat="45.40352" lon="5.90555">
        <ele>1352.641542087</ele>
        <time>2015-06-06T07:45:09Z</time>
      </trkpt>
      <trkpt lat="45.40351" lon="5.90558">
        <ele>1352.641542087</ele>
        <time>2015-06-06T07:45:15Z</time>
      </trkpt>
      <trkpt lat="45.40349" lon="5.90562">
        <ele>1352.641542087</ele>
        <time>2015-06-06T07:45:19Z</time>
      </trkpt>
      <trkpt lat="45.40351" lon="5.90565">
        <ele>1352.641542087</ele>
        <time>2015-06-06T07:45:24Z</time>
      </trkpt>
      <trkpt lat="45.40353" lon="5.90567">
        <ele>1360.089749195</ele>
        <time>2015-06-06T07:45:29Z</time>
      </trkpt>
      <trkpt lat="45.40353" lon="5.90566">
        <ele>1360.089749195</ele>
        <time>2015-06-06T07:45:34Z</time>
      </trkpt>
      <trkpt lat="45.40353" lon="5.90567">
        <ele>1360.089749195</ele>
        <time>2015-06-06T07:45:38Z</time>
      </trkpt>
      <trkpt lat="45.40353" lon="5.90567">
        <ele>1360.089749195</ele>
        <time>2015-06-06T07:45:44Z</time>
      </trkpt>
      <trkpt lat="45.40353" lon="5.90567">
        <ele>1360.089749195</ele>
        <time>2015-06-06T07:45:49Z</time>
      </trkpt>
      <trkpt lat="45.40353" lon="5.90567">
        <ele>1360.089749195</ele>
        <time>2015-06-06T07:45:54Z</time>
      </trkpt>
      <trkpt lat="45.40353" lon="5.90567">
        <ele>1360.089749195</ele>
        <time>2015-06-06T07:45:59Z</time>
      </trkpt>
      <trkpt lat="45.40353" lon="5.90567">
        <ele>1360.089749195</ele>
        <time>2015-06-06T07:46:04Z</time>
      </trkpt>
      <trkpt lat="45.40356" lon="5.90571">
        <ele>1360.089749195</ele>
        <time>2015-06-06T07:46:09Z</time>
      </trkpt>
      <trkpt lat="45.40362" lon="5.90581">
        <ele>1366.495619664</ele>
        <time>2015-06-06T07:46:14Z</time>
      </trkpt>
      <trkpt lat="45.40365" lon="5.90583">
        <ele>1366.495619664</ele>
        <time>2015-06-06T07:46:19Z</time>
      </trkpt>
      <trkpt lat="45.40368" lon="5.90585">
        <ele>1366.495619664</ele>
        <time>2015-06-06T07:46:24Z</time>
      </trkpt>
      <trkpt lat="45.40372" lon="5.90586">
        <ele>1373.081531159</ele>
        <time>2015-06-06T07:46:29Z</time>
      </trkpt>
      <trkpt lat="45.40372" lon="5.90586">
        <ele>1373.081531159</ele>
        <time>2015-06-06T07:46:34Z</time>
      </trkpt>
      <trkpt lat="45.40377" lon="5.90589">
        <ele>1373.081531159</ele>
        <time>2015-06-06T07:46:39Z</time>
      </trkpt>
      <trkpt lat="45.40378" lon="5.90601">
        <ele>1379.82692479</ele>
        <time>2015-06-06T07:46:44Z</time>
      </trkpt>
      <trkpt lat="45.40381" lon="5.90605">
        <ele>1379.82692479</ele>
        <time>2015-06-06T07:46:49Z</time>
      </trkpt>
      <trkpt lat="45.40385" lon="5.90609">
        <ele>1379.82692479</ele>
        <time>2015-06-06T07:46:54Z</time>
      </trkpt>
      <trkpt lat="45.40391" lon="5.9061">
        <ele>1387.144897311</ele>
        <time>2015-06-06T07:46:59Z</time>
      </trkpt>
      <trkpt lat="45.40396" lon="5.90611">
        <ele>1387.144897311</ele>
        <time>2015-06-06T07:47:04Z</time>
      </trkpt>
      <trkpt lat="45.40397" lon="5.90616">
        <ele>1387.144897311</ele>
        <time>2015-06-06T07:47:09Z</time>
      </trkpt>
      <trkpt lat="45.40396" lon="5.90627">
        <ele>1394.119855034</ele>
        <time>2015-06-06T07:47:14Z</time>
      </trkpt>
      <trkpt lat="45.40393" lon="5.90622">
        <ele>1394.119855034</ele>
        <time>2015-06-06T07:47:19Z</time>
      </trkpt>
      <trkpt lat="45.40396" lon="5.90621">
        <ele>1394.119855034</ele>
        <time>2015-06-06T07:47:24Z</time>
      </trkpt>
      <trkpt lat="45.40397" lon="5.90623">
        <ele>1394.119855034</ele>
        <time>2015-06-06T07:47:29Z</time>
      </trkpt>
      <trkpt lat="45.40398" lon="5.90625">
        <ele>1400.913469844</ele>
        <time>2015-06-06T07:47:34Z</time>
      </trkpt>
      <trkpt lat="45.40398" lon="5.90625">
        <ele>1400.913469844</ele>
        <time>2015-06-06T07:47:39Z</time>
      </trkpt>
      <trkpt lat="45.40398" lon="5.90625">
        <ele>1400.913469844</ele>
        <time>2015-06-06T07:47:44Z</time>
      </trkpt>
      <trkpt lat="45.40398" lon="5.90625">
        <ele>1400.913469844</ele>
        <time>2015-06-06T07:47:49Z</time>
      </trkpt>
      <trkpt lat="45.40398" lon="5.90625">
        <ele>1400.913469844</ele>
        <time>2015-06-06T07:47:54Z</time>
      </trkpt>
      <trkpt lat="45.40403" lon="5.90639">
        <ele>1406.235199857</ele>
        <time>2015-06-06T07:47:59Z</time>
      </trkpt>
      <trkpt lat="45.40411" lon="5.90649">
        <ele>1410.767141933</ele>
        <time>2015-06-06T07:48:04Z</time>
      </trkpt>
      <trkpt lat="45.404" lon="5.90659">
        <ele>1414.999642242</ele>
        <time>2015-06-06T07:48:09Z</time>
      </trkpt>
      <trkpt lat="45.40407" lon="5.90664">
        <ele>1414.999642242</ele>
        <time>2015-06-06T07:48:14Z</time>
      </trkpt>
      <trkpt lat="45.40414" lon="5.90667">
        <ele>1420.252771531</ele>
        <time>2015-06-06T07:48:19Z</time>
      </trkpt>
      <trkpt lat="45.40412" lon="5.90669">
        <ele>1420.252771531</ele>
        <time>2015-06-06T07:48:24Z</time>
      </trkpt>
      <trkpt lat="45.40411" lon="5.9067">
        <ele>1420.252771531</ele>
        <time>2015-06-06T07:48:29Z</time>
      </trkpt>
      <trkpt lat="45.40415" lon="5.90675">
        <ele>1420.252771531</ele>
        <time>2015-06-06T07:48:33Z</time>
      </trkpt>
      <trkpt lat="45.40413" lon="5.90679">
        <ele>1424.72065028</ele>
        <time>2015-06-06T07:48:39Z</time>
      </trkpt>
      <trkpt lat="45.40407" lon="5.90683">
        <ele>1424.72065028</ele>
        <time>2015-06-06T07:48:44Z</time>
      </trkpt>
      <trkpt lat="45.40407" lon="5.90686">
        <ele>1424.72065028</ele>
        <time>2015-06-06T07:48:49Z</time>
      </trkpt>
      <trkpt lat="45.40407" lon="5.90688">
        <ele>1429.470577163</ele>
        <time>2015-06-06T07:48:54Z</time>
      </trkpt>
      <trkpt lat="45.40412" lon="5.90688">
        <ele>1429.470577163</ele>
        <time>2015-06-06T07:48:59Z</time>
      </trkpt>
      <trkpt lat="45.40412" lon="5.90694">
        <ele>1429.470577163</ele>
        <time>2015-06-06T07:49:04Z</time>
      </trkpt>
      <trkpt lat="45.40412" lon="5.90698">
        <ele>1434.337954173</ele>
        <time>2015-06-06T07:49:09Z</time>
      </trkpt>
      <trkpt lat="45.40413" lon="5.90702">
        <ele>1434.337954173</ele>
        <time>2015-06-06T07:49:14Z</time>
      </trkpt>
      <trkpt lat="45.40416" lon="5.90701">
        <ele>1434.337954173</ele>
        <time>2015-06-06T07:49:19Z</time>
      </trkpt>
      <trkpt lat="45.40417" lon="5.907">
        <ele>1434.337954173</ele>
        <time>2015-06-06T07:49:24Z</time>
      </trkpt>
      <trkpt lat="45.40418" lon="5.90701">
        <ele>1434.337954173</ele>
        <time>2015-06-06T07:49:29Z</time>
      </trkpt>
      <trkpt lat="45.40418" lon="5.90701">
        <ele>1434.337954173</ele>
        <time>2015-06-06T07:49:34Z</time>
      </trkpt>
      <trkpt lat="45.40418" lon="5.90701">
        <ele>1434.337954173</ele>
        <time>2015-06-06T07:49:39Z</time>
      </trkpt>
      <trkpt lat="45.40418" lon="5.90701">
        <ele>1434.337954173</ele>
        <time>2015-06-06T07:49:44Z</time>
      </trkpt>
      <trkpt lat="45.40418" lon="5.90701">
        <ele>1434.337954173</ele>
        <time>2015-06-06T07:49:49Z</time>
      </trkpt>
      <trkpt lat="45.4042" lon="5.90706">
        <ele>1438.449560491</ele>
        <time>2015-06-06T07:49:54Z</time>
      </trkpt>
      <trkpt lat="45.40423" lon="5.90722">
        <ele>1441.86326324</ele>
        <time>2015-06-06T07:49:59Z</time>
      </trkpt>
      <trkpt lat="45.40426" lon="5.90732">
        <ele>1441.86326324</ele>
        <time>2015-06-06T07:50:04Z</time>
      </trkpt>
      <trkpt lat="45.40425" lon="5.90739">
        <ele>1445.499439848</ele>
        <time>2015-06-06T07:50:09Z</time>
      </trkpt>
      <trkpt lat="45.40428" lon="5.90739">
        <ele>1445.499439848</ele>
        <time>2015-06-06T07:50:14Z</time>
      </trkpt>
      <trkpt lat="45.4043" lon="5.90743">
        <ele>1445.499439848</ele>
        <time>2015-06-06T07:50:19Z</time>
      </trkpt>
      <trkpt lat="45.40427" lon="5.90742">
        <ele>1449.778016669</ele>
        <time>2015-06-06T07:50:24Z</time>
      </trkpt>
      <trkpt lat="45.40431" lon="5.90749">
        <ele>1449.778016669</ele>
        <time>2015-06-06T07:50:29Z</time>
      </trkpt>
      <trkpt lat="45.40434" lon="5.90758">
        <ele>1453.212920986</ele>
        <time>2015-06-06T07:50:34Z</time>
      </trkpt>
      <trkpt lat="45.40439" lon="5.90763">
        <ele>1453.212920986</ele>
        <time>2015-06-06T07:50:39Z</time>
      </trkpt>
      <trkpt lat="45.40437" lon="5.90768">
        <ele>1456.59135957</ele>
        <time>2015-06-06T07:50:44Z</time>
      </trkpt>
      <trkpt lat="45.4044" lon="5.90773">
        <ele>1456.59135957</ele>
        <time>2015-06-06T07:50:49Z</time>
      </trkpt>
      <trkpt lat="45.4044" lon="5.90777">
        <ele>1456.59135957</ele>
        <time>2015-06-06T07:50:54Z</time>
      </trkpt>
      <trkpt lat="45.40443" lon="5.90777">
        <ele>1460.354707409</ele>
        <time>2015-06-06T07:50:59Z</time>
      </trkpt>
      <trkpt lat="45.40444" lon="5.90778">
        <ele>1460.354707409</ele>
        <time>2015-06-06T07:51:04Z</time>
      </trkpt>
      <trkpt lat="45.40453" lon="5.90785">
        <ele>1463.613877514</ele>
        <time>2015-06-06T07:51:09Z</time>
      </trkpt>
      <trkpt lat="45.40454" lon="5.9079">
        <ele>1463.613877514</ele>
        <time>2015-06-06T07:51:14Z</time>
      </trkpt>
      <trkpt lat="45.40455" lon="5.90798">
        <ele>1466.411200599</ele>
        <time>2015-06-06T07:51:19Z</time>
      </trkpt>
      <trkpt lat="45.40455" lon="5.90806">
        <ele>1466.411200599</ele>
        <time>2015-06-06T07:51:24Z</time>
      </trkpt>
      <trkpt lat="45.4046" lon="5.90811">
        <ele>1468.498975455</ele>
        <time>2015-06-06T07:51:29Z</time>
      </trkpt>
      <trkpt lat="45.40462" lon="5.90821">
        <ele>1468.498975455</ele>
        <time>2015-06-06T07:51:33Z</time>
      </trkpt>
      <trkpt lat="45.40467" lon="5.90834">
        <ele>1470.514339084</ele>
        <time>2015-06-06T07:51:38Z</time>
      </trkpt>
      <trkpt lat="45.40468" lon="5.90839">
        <ele>1470.514339084</ele>
        <time>2015-06-06T07:51:43Z</time>
      </trkpt>
      <trkpt lat="45.40475" lon="5.90845">
        <ele>1472.471344966</ele>
        <time>2015-06-06T07:51:49Z</time>
      </trkpt>
      <trkpt lat="45.4048" lon="5.90848">
        <ele>1472.471344966</ele>
        <time>2015-06-06T07:51:54Z</time>
      </trkpt>
      <trkpt lat="45.40483" lon="5.90853">
        <ele>1473.518448485</ele>
        <time>2015-06-06T07:51:59Z</time>
      </trkpt>
      <trkpt lat="45.40486" lon="5.90861">
        <ele>1473.518448485</ele>
        <time>2015-06-06T07:52:04Z</time>
      </trkpt>
      <trkpt lat="45.40491" lon="5.90868">
        <ele>1474.022014157</ele>
        <time>2015-06-06T07:52:09Z</time>
      </trkpt>
      <trkpt lat="45.40495" lon="5.90875">
        <ele>1474.022014157</ele>
        <time>2015-06-06T07:52:14Z</time>
      </trkpt>
      <trkpt lat="45.40498" lon="5.90884">
        <ele>1474.611127406</ele>
        <time>2015-06-06T07:52:19Z</time>
      </trkpt>
      <trkpt lat="45.40501" lon="5.90893">
        <ele>1474.611127406</ele>
        <time>2015-06-06T07:52:24Z</time>
      </trkpt>
      <trkpt lat="45.40505" lon="5.90903">
        <ele>1474.715390778</ele>
        <time>2015-06-06T07:52:29Z</time>
      </trkpt>
      <trkpt lat="45.40508" lon="5.9091">
        <ele>1474.715390778</ele>
        <time>2015-06-06T07:52:34Z</time>
      </trkpt>
      <trkpt lat="45.40512" lon="5.9092">
        <ele>1474.672166858</ele>
        <time>2015-06-06T07:52:39Z</time>
      </trkpt>
      <trkpt lat="45.40514" lon="5.90928">
        <ele>1474.672166858</ele>
        <time>2015-06-06T07:52:44Z</time>
      </trkpt>
      <trkpt lat="45.40517" lon="5.90934">
        <ele>1473.929585327</ele>
        <time>2015-06-06T07:52:48Z</time>
      </trkpt>
      <trkpt lat="45.40521" lon="5.9094">
        <ele>1473.929585327</ele>
        <time>2015-06-06T07:52:54Z</time>
      </trkpt>
      <trkpt lat="45.40526" lon="5.90944">
        <ele>1472.69860874</ele>
        <time>2015-06-06T07:52:59Z</time>
      </trkpt>
      <trkpt lat="45.40529" lon="5.90952">
        <ele>1472.69860874</ele>
        <time>2015-06-06T07:53:04Z</time>
      </trkpt>
      <trkpt lat="45.40534" lon="5.90957">
        <ele>1471.75226398</ele>
        <time>2015-06-06T07:53:09Z</time>
      </trkpt>
      <trkpt lat="45.40539" lon="5.90963">
        <ele>1471.75226398</ele>
        <time>2015-06-06T07:53:14Z</time>
      </trkpt>
      <trkpt lat="45.40542" lon="5.90973">
        <ele>1470.652822546</ele>
        <time>2015-06-06T07:53:19Z</time>
      </trkpt>
      <trkpt lat="45.40549" lon="5.90978">
        <ele>1470.652822546</ele>
        <time>2015-06-06T07:53:24Z</time>
      </trkpt>
      <trkpt lat="45.40552" lon="5.90983">
        <ele>1469.859501135</ele>
        <time>2015-06-06T07:53:29Z</time>
      </trkpt>
      <trkpt lat="45.40552" lon="5.90987">
        <ele>1469.859501135</ele>
        <time>2015-06-06T07:53:34Z</time>
      </trkpt>
      <trkpt lat="45.40553" lon="5.90989">
        <ele>1469.859501135</ele>
        <time>2015-06-06T07:53:39Z</time>
      </trkpt>
      <trkpt lat="45.40557" lon="5.9099">
        <ele>1469.859501135</ele>
        <time>2015-06-06T07:53:44Z</time>
      </trkpt>
      <trkpt lat="45.40562" lon="5.90996">
        <ele>1468.643703882</ele>
        <time>2015-06-06T07:53:49Z</time>
      </trkpt>
      <trkpt lat="45.40569" lon="5.91">
        <ele>1468.643703882</ele>
        <time>2015-06-06T07:53:54Z</time>
      </trkpt>
      <trkpt lat="45.40575" lon="5.91003">
        <ele>1467.628192411</ele>
        <time>2015-06-06T07:53:59Z</time>
      </trkpt>
      <trkpt lat="45.40578" lon="5.91007">
        <ele>1467.628192411</ele>
        <time>2015-06-06T07:54:04Z</time>
      </trkpt>
      <trkpt lat="45.40584" lon="5.91009">
        <ele>1467.24494004</ele>
        <time>2015-06-06T07:54:09Z</time>
      </trkpt>
      <trkpt lat="45.40589" lon="5.91014">
        <ele>1467.24494004</ele>
        <time>2015-06-06T07:54:14Z</time>
      </trkpt>
      <trkpt lat="45.40594" lon="5.91021">
        <ele>1466.595031714</ele>
        <time>2015-06-06T07:54:19Z</time>
      </trkpt>
      <trkpt lat="45.40599" lon="5.91028">
        <ele>1466.595031714</ele>
        <time>2015-06-06T07:54:24Z</time>
      </trkpt>
      <trkpt lat="45.40599" lon="5.91027">
        <ele>1466.595031714</ele>
        <time>2015-06-06T07:54:29Z</time>
      </trkpt>
      <trkpt lat="45.40602" lon="5.9103">
        <ele>1465.134162676</ele>
        <time>2015-06-06T07:54:33Z</time>
      </trkpt>
      <trkpt lat="45.40606" lon="5.91039">
        <ele>1465.134162676</ele>
        <time>2015-06-06T07:54:39Z</time>
      </trkpt>
      <trkpt lat="45.40608" lon="5.91046">
        <ele>1463.945106567</ele>
        <time>2015-06-06T07:54:44Z</time>
      </trkpt>
      <trkpt lat="45.40614" lon="5.91053">
        <ele>1463.945106567</ele>
        <time>2015-06-06T07:54:49Z</time>
      </trkpt>
      <trkpt lat="45.40613" lon="5.9106">
        <ele>1462.877032512</ele>
        <time>2015-06-06T07:54:54Z</time>
      </trkpt>
      <trkpt lat="45.40613" lon="5.9107">
        <ele>1462.877032512</ele>
        <time>2015-06-06T07:54:59Z</time>
      </trkpt>
      <trkpt lat="45.40618" lon="5.91075">
        <ele>1462.221763772</ele>
        <time>2015-06-06T07:55:04Z</time>
      </trkpt>
      <trkpt lat="45.40624" lon="5.91078">
        <ele>1462.221763772</ele>
        <time>2015-06-06T07:55:09Z</time>
      </trkpt>
      <trkpt lat="45.40626" lon="5.91083">
        <ele>1461.671658658</ele>
        <time>2015-06-06T07:55:14Z</time>
      </trkpt>
      <trkpt lat="45.4063" lon="5.91085">
        <ele>1461.671658658</ele>
        <time>2015-06-06T07:55:19Z</time>
      </trkpt>
      <trkpt lat="45.40631" lon="5.91084">
        <ele>1461.671658658</ele>
        <time>2015-06-06T07:55:24Z</time>
      </trkpt>
      <trkpt lat="45.40633" lon="5.91081">
        <ele>1461.671658658</ele>
        <time>2015-06-06T07:55:29Z</time>
      </trkpt>
      <trkpt lat="45.40631" lon="5.9108">
        <ele>1461.661509598</ele>
        <time>2015-06-06T07:55:34Z</time>
      </trkpt>
      <trkpt lat="45.4064" lon="5.91082">
        <ele>1461.439341438</ele>
        <time>2015-06-06T07:55:39Z</time>
      </trkpt>
      <trkpt lat="45.40642" lon="5.91079">
        <ele>1461.439341438</ele>
        <time>2015-06-06T07:55:44Z</time>
      </trkpt>
      <trkpt lat="45.40648" lon="5.91084">
        <ele>1461.029149879</ele>
        <time>2015-06-06T07:55:49Z</time>
      </trkpt>
      <trkpt lat="45.4065" lon="5.9109">
        <ele>1461.029149879</ele>
        <time>2015-06-06T07:55:54Z</time>
      </trkpt>
      <trkpt lat="45.40653" lon="5.91088">
        <ele>1461.029149879</ele>
        <time>2015-06-06T07:55:59Z</time>
      </trkpt>
      <trkpt lat="45.40656" lon="5.91092">
        <ele>1461.173838633</ele>
        <time>2015-06-06T07:56:04Z</time>
      </trkpt>
      <trkpt lat="45.4066" lon="5.91097">
        <ele>1461.173838633</ele>
        <time>2015-06-06T07:56:09Z</time>
      </trkpt>
      <trkpt lat="45.40663" lon="5.91103">
        <ele>1461.55099944</ele>
        <time>2015-06-06T07:56:14Z</time>
      </trkpt>
      <trkpt lat="45.40666" lon="5.91106">
        <ele>1461.55099944</ele>
        <time>2015-06-06T07:56:19Z</time>
      </trkpt>
      <trkpt lat="45.40664" lon="5.91116">
        <ele>1462.437307465</ele>
        <time>2015-06-06T07:56:24Z</time>
      </trkpt>
      <trkpt lat="45.40666" lon="5.9112">
        <ele>1462.437307465</ele>
        <time>2015-06-06T07:56:29Z</time>
      </trkpt>
      <trkpt lat="45.4067" lon="5.91123">
        <ele>1462.437307465</ele>
        <time>2015-06-06T07:56:34Z</time>
      </trkpt>
      <trkpt lat="45.4067" lon="5.91135">
        <ele>1463.799083913</ele>
        <time>2015-06-06T07:56:39Z</time>
      </trkpt>
      <trkpt lat="45.4067" lon="5.91141">
        <ele>1463.799083913</ele>
        <time>2015-06-06T07:56:44Z</time>
      </trkpt>
      <trkpt lat="45.4067" lon="5.91148">
        <ele>1463.799083913</ele>
        <time>2015-06-06T07:56:49Z</time>
      </trkpt>
      <trkpt lat="45.4067" lon="5.91154">
        <ele>1465.459317686</ele>
        <time>2015-06-06T07:56:54Z</time>
      </trkpt>
      <trkpt lat="45.4067" lon="5.91162">
        <ele>1465.459317686</ele>
        <time>2015-06-06T07:56:59Z</time>
      </trkpt>
      <trkpt lat="45.40673" lon="5.91169">
        <ele>1467.10871109</ele>
        <time>2015-06-06T07:57:04Z</time>
      </trkpt>
      <trkpt lat="45.4068" lon="5.91172">
        <ele>1467.10871109</ele>
        <time>2015-06-06T07:57:09Z</time>
      </trkpt>
      <trkpt lat="45.40684" lon="5.91178">
        <ele>1469.036843295</ele>
        <time>2015-06-06T07:57:14Z</time>
      </trkpt>
      <trkpt lat="45.40685" lon="5.91184">
        <ele>1469.036843295</ele>
        <time>2015-06-06T07:57:19Z</time>
      </trkpt>
      <trkpt lat="45.40687" lon="5.91189">
        <ele>1469.036843295</ele>
        <time>2015-06-06T07:57:24Z</time>
      </trkpt>
      <trkpt lat="45.40693" lon="5.91194">
        <ele>1470.646275736</ele>
        <time>2015-06-06T07:57:29Z</time>
      </trkpt>
      <trkpt lat="45.40694" lon="5.91199">
        <ele>1470.646275736</ele>
        <time>2015-06-06T07:57:33Z</time>
      </trkpt>
      <trkpt lat="45.40696" lon="5.91208">
        <ele>1472.104632755</ele>
        <time>2015-06-06T07:57:40Z</time>
      </trkpt>
      <trkpt lat="45.40698" lon="5.91211">
        <ele>1472.104632755</ele>
        <time>2015-06-06T07:57:44Z</time>
      </trkpt>
      <trkpt lat="45.40702" lon="5.91221">
        <ele>1473.567395308</ele>
        <time>2015-06-06T07:57:49Z</time>
      </trkpt>
      <trkpt lat="45.40705" lon="5.91225">
        <ele>1473.567395308</ele>
        <time>2015-06-06T07:57:54Z</time>
      </trkpt>
      <trkpt lat="45.4071" lon="5.91234">
        <ele>1475.034265154</ele>
        <time>2015-06-06T07:57:59Z</time>
      </trkpt>
      <trkpt lat="45.40715" lon="5.91237">
        <ele>1475.034265154</ele>
        <time>2015-06-06T07:58:04Z</time>
      </trkpt>
      <trkpt lat="45.40716" lon="5.91236">
        <ele>1475.034265154</ele>
        <time>2015-06-06T07:58:09Z</time>
      </trkpt>
      <trkpt lat="45.40716" lon="5.91236">
        <ele>1475.034265154</ele>
        <time>2015-06-06T07:58:14Z</time>
      </trkpt>
      <trkpt lat="45.40719" lon="5.91244">
        <ele>1477.081183966</ele>
        <time>2015-06-06T07:58:19Z</time>
      </trkpt>
      <trkpt lat="45.40722" lon="5.9125">
        <ele>1477.081183966</ele>
        <time>2015-06-06T07:58:24Z</time>
      </trkpt>
      <trkpt lat="45.40725" lon="5.91258">
        <ele>1479.519406348</ele>
        <time>2015-06-06T07:58:29Z</time>
      </trkpt>
      <trkpt lat="45.40729" lon="5.91264">
        <ele>1479.519406348</ele>
        <time>2015-06-06T07:58:34Z</time>
      </trkpt>
      <trkpt lat="45.40728" lon="5.91268">
        <ele>1479.519406348</ele>
        <time>2015-06-06T07:58:39Z</time>
      </trkpt>
      <trkpt lat="45.40727" lon="5.9127">
        <ele>1481.452222203</ele>
        <time>2015-06-06T07:58:44Z</time>
      </trkpt>
      <trkpt lat="45.40729" lon="5.9127">
        <ele>1481.452222203</ele>
        <time>2015-06-06T07:58:49Z</time>
      </trkpt>
      <trkpt lat="45.4073" lon="5.91271">
        <ele>1481.452222203</ele>
        <time>2015-06-06T07:58:54Z</time>
      </trkpt>
      <trkpt lat="45.40729" lon="5.91272">
        <ele>1481.452222203</ele>
        <time>2015-06-06T07:58:59Z</time>
      </trkpt>
      <trkpt lat="45.40731" lon="5.91282">
        <ele>1483.202943585</ele>
        <time>2015-06-06T07:59:04Z</time>
      </trkpt>
      <trkpt lat="45.40738" lon="5.9129">
        <ele>1483.202943585</ele>
        <time>2015-06-06T07:59:09Z</time>
      </trkpt>
      <trkpt lat="45.40743" lon="5.91298">
        <ele>1485.07150518</ele>
        <time>2015-06-06T07:59:14Z</time>
      </trkpt>
      <trkpt lat="45.40744" lon="5.9131">
        <ele>1485.07150518</ele>
        <time>2015-06-06T07:59:19Z</time>
      </trkpt>
      <trkpt lat="45.40746" lon="5.91321">
        <ele>1487.191246669</ele>
        <time>2015-06-06T07:59:24Z</time>
      </trkpt>
      <trkpt lat="45.40748" lon="5.91329">
        <ele>1487.191246669</ele>
        <time>2015-06-06T07:59:29Z</time>
      </trkpt>
      <trkpt lat="45.40754" lon="5.9133">
        <ele>1489.540793236</ele>
        <time>2015-06-06T07:59:34Z</time>
      </trkpt>
      <trkpt lat="45.40758" lon="5.91334">
        <ele>1489.540793236</ele>
        <time>2015-06-06T07:59:39Z</time>
      </trkpt>
      <trkpt lat="45.40761" lon="5.91334">
        <ele>1489.540793236</ele>
        <time>2015-06-06T07:59:44Z</time>
      </trkpt>
      <trkpt lat="45.4077" lon="5.91339">
        <ele>1492.099608751</ele>
        <time>2015-06-06T07:59:49Z</time>
      </trkpt>
      <trkpt lat="45.40772" lon="5.91342">
        <ele>1492.099608751</ele>
        <time>2015-06-06T07:59:54Z</time>
      </trkpt>
      <trkpt lat="45.40776" lon="5.91349">
        <ele>1494.415675058</ele>
        <time>2015-06-06T07:59:59Z</time>
      </trkpt>
      <trkpt lat="45.40777" lon="5.91356">
        <ele>1494.415675058</ele>
        <time>2015-06-06T08:00:04Z</time>
      </trkpt>
      <trkpt lat="45.4078" lon="5.9136">
        <ele>1497.3678082</ele>
        <time>2015-06-06T08:00:09Z</time>
      </trkpt>
      <trkpt lat="45.40783" lon="5.91364">
        <ele>1497.3678082</ele>
        <time>2015-06-06T08:00:14Z</time>
      </trkpt>
      <trkpt lat="45.40787" lon="5.9137">
        <ele>1499.89500194</ele>
        <time>2015-06-06T08:00:19Z</time>
      </trkpt>
      <trkpt lat="45.40789" lon="5.91372">
        <ele>1499.89500194</ele>
        <time>2015-06-06T08:00:24Z</time>
      </trkpt>
      <trkpt lat="45.40791" lon="5.91373">
        <ele>1499.89500194</ele>
        <time>2015-06-06T08:00:29Z</time>
      </trkpt>
      <trkpt lat="45.40792" lon="5.91373">
        <ele>1499.89500194</ele>
        <time>2015-06-06T08:00:33Z</time>
      </trkpt>
      <trkpt lat="45.40793" lon="5.91375">
        <ele>1499.89500194</ele>
        <time>2015-06-06T08:00:39Z</time>
      </trkpt>
      <trkpt lat="45.40793" lon="5.91375">
        <ele>1499.89500194</ele>
        <time>2015-06-06T08:00:44Z</time>
      </trkpt>
      <trkpt lat="45.40795" lon="5.91381">
        <ele>1502.456475598</ele>
        <time>2015-06-06T08:00:49Z</time>
      </trkpt>
      <trkpt lat="45.40799" lon="5.91388">
        <ele>1502.456475598</ele>
        <time>2015-06-06T08:00:54Z</time>
      </trkpt>
      <trkpt lat="45.40803" lon="5.91401">
        <ele>1504.901169583</ele>
        <time>2015-06-06T08:00:59Z</time>
      </trkpt>
      <trkpt lat="45.40807" lon="5.91406">
        <ele>1504.901169583</ele>
        <time>2015-06-06T08:01:04Z</time>
      </trkpt>
      <trkpt lat="45.40808" lon="5.91412">
        <ele>1507.233569361</ele>
        <time>2015-06-06T08:01:09Z</time>
      </trkpt>
      <trkpt lat="45.40812" lon="5.91418">
        <ele>1507.233569361</ele>
        <time>2015-06-06T08:01:14Z</time>
      </trkpt>
      <trkpt lat="45.40811" lon="5.91427">
        <ele>1509.602278345</ele>
        <time>2015-06-06T08:01:19Z</time>
      </trkpt>
      <trkpt lat="45.40817" lon="5.9143">
        <ele>1509.602278345</ele>
        <time>2015-06-06T08:01:24Z</time>
      </trkpt>
      <trkpt lat="45.4082" lon="5.91438">
        <ele>1512.433136564</ele>
        <time>2015-06-06T08:01:29Z</time>
      </trkpt>
      <trkpt lat="45.4082" lon="5.91439">
        <ele>1512.433136564</ele>
        <time>2015-06-06T08:01:34Z</time>
      </trkpt>
      <trkpt lat="45.40823" lon="5.91443">
        <ele>1512.433136564</ele>
        <time>2015-06-06T08:01:39Z</time>
      </trkpt>
      <trkpt lat="45.40824" lon="5.91443">
        <ele>1512.433136564</ele>
        <time>2015-06-06T08:01:44Z</time>
      </trkpt>
      <trkpt lat="45.40827" lon="5.9145">
        <ele>1514.966558773</ele>
        <time>2015-06-06T08:01:49Z</time>
      </trkpt>
      <trkpt lat="45.40833" lon="5.91453">
        <ele>1514.966558773</ele>
        <time>2015-06-06T08:01:54Z</time>
      </trkpt>
      <trkpt lat="45.40839" lon="5.91454">
        <ele>1517.79664596</ele>
        <time>2015-06-06T08:01:59Z</time>
      </trkpt>
      <trkpt lat="45.40838" lon="5.91455">
        <ele>1517.79664596</ele>
        <time>2015-06-06T08:02:04Z</time>
      </trkpt>
      <trkpt lat="45.40837" lon="5.91456">
        <ele>1517.79664596</ele>
        <time>2015-06-06T08:02:09Z</time>
      </trkpt>
      <trkpt lat="45.40839" lon="5.91459">
        <ele>1517.79664596</ele>
        <time>2015-06-06T08:02:14Z</time>
      </trkpt>
      <trkpt lat="45.40844" lon="5.91468">
        <ele>1519.743751606</ele>
        <time>2015-06-06T08:02:19Z</time>
      </trkpt>
      <trkpt lat="45.40847" lon="5.91475">
        <ele>1519.743751606</ele>
        <time>2015-06-06T08:02:24Z</time>
      </trkpt>
      <trkpt lat="45.40851" lon="5.9148">
        <ele>1521.446764066</ele>
        <time>2015-06-06T08:02:29Z</time>
      </trkpt>
      <trkpt lat="45.40857" lon="5.91484">
        <ele>1521.446764066</ele>
        <time>2015-06-06T08:02:34Z</time>
      </trkpt>
      <trkpt lat="45.40856" lon="5.91485">
        <ele>1521.446764066</ele>
        <time>2015-06-06T08:02:39Z</time>
      </trkpt>
      <trkpt lat="45.40855" lon="5.91486">
        <ele>1523.64250776</ele>
        <time>2015-06-06T08:02:44Z</time>
      </trkpt>
      <trkpt lat="45.40855" lon="5.91485">
        <ele>1523.64250776</ele>
        <time>2015-06-06T08:02:49Z</time>
      </trkpt>
      <trkpt lat="45.40851" lon="5.91491">
        <ele>1523.64250776</ele>
        <time>2015-06-06T08:02:54Z</time>
      </trkpt>
      <trkpt lat="45.40852" lon="5.91495">
        <ele>1525.42715015</ele>
        <time>2015-06-06T08:02:59Z</time>
      </trkpt>
      <trkpt lat="45.40854" lon="5.91499">
        <ele>1525.42715015</ele>
        <time>2015-06-06T08:03:04Z</time>
      </trkpt>
      <trkpt lat="45.40854" lon="5.91504">
        <ele>1525.42715015</ele>
        <time>2015-06-06T08:03:09Z</time>
      </trkpt>
      <trkpt lat="45.40856" lon="5.91505">
        <ele>1525.42715015</ele>
        <time>2015-06-06T08:03:14Z</time>
      </trkpt>
      <trkpt lat="45.40859" lon="5.91505">
        <ele>1527.982040178</ele>
        <time>2015-06-06T08:03:19Z</time>
      </trkpt>
      <trkpt lat="45.4086" lon="5.91506">
        <ele>1527.982040178</ele>
        <time>2015-06-06T08:03:24Z</time>
      </trkpt>
      <trkpt lat="45.40861" lon="5.91506">
        <ele>1527.982040178</ele>
        <time>2015-06-06T08:03:29Z</time>
      </trkpt>
      <trkpt lat="45.40865" lon="5.91509">
        <ele>1527.982040178</ele>
        <time>2015-06-06T08:03:33Z</time>
      </trkpt>
      <trkpt lat="45.40868" lon="5.91517">
        <ele>1530.526218972</ele>
        <time>2015-06-06T08:03:39Z</time>
      </trkpt>
      <trkpt lat="45.4087" lon="5.9152">
        <ele>1530.526218972</ele>
        <time>2015-06-06T08:03:44Z</time>
      </trkpt>
      <trkpt lat="45.40871" lon="5.91521">
        <ele>1530.526218972</ele>
        <time>2015-06-06T08:03:49Z</time>
      </trkpt>
      <trkpt lat="45.40874" lon="5.91521">
        <ele>1530.526218972</ele>
        <time>2015-06-06T08:03:54Z</time>
      </trkpt>
      <trkpt lat="45.40872" lon="5.91527">
        <ele>1534.065545014</ele>
        <time>2015-06-06T08:03:59Z</time>
      </trkpt>
      <trkpt lat="45.40871" lon="5.91535">
        <ele>1534.065545014</ele>
        <time>2015-06-06T08:04:04Z</time>
      </trkpt>
      <trkpt lat="45.4087" lon="5.91537">
        <ele>1534.065545014</ele>
        <time>2015-06-06T08:04:09Z</time>
      </trkpt>
      <trkpt lat="45.4087" lon="5.91541">
        <ele>1537.367618758</ele>
        <time>2015-06-06T08:04:14Z</time>
      </trkpt>
      <trkpt lat="45.40867" lon="5.91544">
        <ele>1537.367618758</ele>
        <time>2015-06-06T08:04:19Z</time>
      </trkpt>
      <trkpt lat="45.40869" lon="5.91546">
        <ele>1537.367618758</ele>
        <time>2015-06-06T08:04:24Z</time>
      </trkpt>
      <trkpt lat="45.4087" lon="5.91546">
        <ele>1537.367618758</ele>
        <time>2015-06-06T08:04:29Z</time>
      </trkpt>
      <trkpt lat="45.4087" lon="5.91546">
        <ele>1537.367618758</ele>
        <time>2015-06-06T08:04:34Z</time>
      </trkpt>
      <trkpt lat="45.40878" lon="5.91553">
        <ele>1540.300114436</ele>
        <time>2015-06-06T08:04:39Z</time>
      </trkpt>
      <trkpt lat="45.40882" lon="5.91562">
        <ele>1540.300114436</ele>
        <time>2015-06-06T08:04:44Z</time>
      </trkpt>
      <trkpt lat="45.40887" lon="5.91565">
        <ele>1543.606237829</ele>
        <time>2015-06-06T08:04:49Z</time>
      </trkpt>
      <trkpt lat="45.40888" lon="5.91571">
        <ele>1543.606237829</ele>
        <time>2015-06-06T08:04:54Z</time>
      </trkpt>
      <trkpt lat="45.40893" lon="5.91572">
        <ele>1546.820776983</ele>
        <time>2015-06-06T08:04:59Z</time>
      </trkpt>
      <trkpt lat="45.40897" lon="5.91574">
        <ele>1546.820776983</ele>
        <time>2015-06-06T08:05:04Z</time>
      </trkpt>
      <trkpt lat="45.409" lon="5.91578">
        <ele>1546.820776983</ele>
        <time>2015-06-06T08:05:09Z</time>
      </trkpt>
      <trkpt lat="45.40899" lon="5.91583">
        <ele>1549.801294804</ele>
        <time>2015-06-06T08:05:14Z</time>
      </trkpt>
      <trkpt lat="45.40904" lon="5.91587">
        <ele>1549.801294804</ele>
        <time>2015-06-06T08:05:19Z</time>
      </trkpt>
      <trkpt lat="45.40906" lon="5.91593">
        <ele>1552.416599929</ele>
        <time>2015-06-06T08:05:24Z</time>
      </trkpt>
      <trkpt lat="45.40907" lon="5.91597">
        <ele>1552.416599929</ele>
        <time>2015-06-06T08:05:29Z</time>
      </trkpt>
      <trkpt lat="45.40909" lon="5.91599">
        <ele>1552.416599929</ele>
        <time>2015-06-06T08:05:34Z</time>
      </trkpt>
      <trkpt lat="45.40911" lon="5.91602">
        <ele>1552.416599929</ele>
        <time>2015-06-06T08:05:39Z</time>
      </trkpt>
      <trkpt lat="45.40912" lon="5.91604">
        <ele>1555.555070842</ele>
        <time>2015-06-06T08:05:44Z</time>
      </trkpt>
      <trkpt lat="45.40913" lon="5.91605">
        <ele>1555.555070842</ele>
        <time>2015-06-06T08:05:49Z</time>
      </trkpt>
      <trkpt lat="45.40916" lon="5.9161">
        <ele>1555.555070842</ele>
        <time>2015-06-06T08:05:54Z</time>
      </trkpt>
      <trkpt lat="45.40919" lon="5.91616">
        <ele>1559.173825051</ele>
        <time>2015-06-06T08:05:59Z</time>
      </trkpt>
      <trkpt lat="45.40918" lon="5.91618">
        <ele>1559.173825051</ele>
        <time>2015-06-06T08:06:04Z</time>
      </trkpt>
      <trkpt lat="45.40921" lon="5.9162">
        <ele>1559.173825051</ele>
        <time>2015-06-06T08:06:09Z</time>
      </trkpt>
      <trkpt lat="45.40923" lon="5.91629">
        <ele>1561.9349178</ele>
        <time>2015-06-06T08:06:14Z</time>
      </trkpt>
      <trkpt lat="45.40929" lon="5.91636">
        <ele>1561.9349178</ele>
        <time>2015-06-06T08:06:19Z</time>
      </trkpt>
      <trkpt lat="45.40932" lon="5.91639">
        <ele>1565.483456961</ele>
        <time>2015-06-06T08:06:24Z</time>
      </trkpt>
      <trkpt lat="45.40935" lon="5.91643">
        <ele>1565.483456961</ele>
        <time>2015-06-06T08:06:29Z</time>
      </trkpt>
      <trkpt lat="45.40939" lon="5.91649">
        <ele>1568.747633408</ele>
        <time>2015-06-06T08:06:34Z</time>
      </trkpt>
      <trkpt lat="45.40943" lon="5.91658">
        <ele>1568.747633408</ele>
        <time>2015-06-06T08:06:39Z</time>
      </trkpt>
      <trkpt lat="45.40946" lon="5.91663">
        <ele>1572.176426379</ele>
        <time>2015-06-06T08:06:44Z</time>
      </trkpt>
      <trkpt lat="45.40948" lon="5.91669">
        <ele>1572.176426379</ele>
        <time>2015-06-06T08:06:49Z</time>
      </trkpt>
      <trkpt lat="45.40949" lon="5.91675">
        <ele>1575.032627951</ele>
        <time>2015-06-06T08:06:53Z</time>
      </trkpt>
      <trkpt lat="45.40953" lon="5.9168">
        <ele>1575.032627951</ele>
        <time>2015-06-06T08:06:58Z</time>
      </trkpt>
      <trkpt lat="45.40954" lon="5.91687">
        <ele>1577.787826986</ele>
        <time>2015-06-06T08:07:04Z</time>
      </trkpt>
      <trkpt lat="45.40956" lon="5.91692">
        <ele>1577.787826986</ele>
        <time>2015-06-06T08:07:09Z</time>
      </trkpt>
      <trkpt lat="45.40959" lon="5.91694">
        <ele>1577.787826986</ele>
        <time>2015-06-06T08:07:14Z</time>
      </trkpt>
      <trkpt lat="45.40963" lon="5.917">
        <ele>1580.591175825</ele>
        <time>2015-06-06T08:07:19Z</time>
      </trkpt>
      <trkpt lat="45.40965" lon="5.91706">
        <ele>1580.591175825</ele>
        <time>2015-06-06T08:07:24Z</time>
      </trkpt>
      <trkpt lat="45.40966" lon="5.91709">
        <ele>1580.591175825</ele>
        <time>2015-06-06T08:07:30Z</time>
      </trkpt>
      <trkpt lat="45.40968" lon="5.91712">
        <ele>1583.004432253</ele>
        <time>2015-06-06T08:07:34Z</time>
      </trkpt>
      <trkpt lat="45.4097" lon="5.91717">
        <ele>1583.004432253</ele>
        <time>2015-06-06T08:07:40Z</time>
      </trkpt>
      <trkpt lat="45.40974" lon="5.91724">
        <ele>1584.910999812</ele>
        <time>2015-06-06T08:07:44Z</time>
      </trkpt>
      <trkpt lat="45.40976" lon="5.91728">
        <ele>1584.910999812</ele>
        <time>2015-06-06T08:07:50Z</time>
      </trkpt>
      <trkpt lat="45.40978" lon="5.91734">
        <ele>1584.910999812</ele>
        <time>2015-06-06T08:07:54Z</time>
      </trkpt>
      <trkpt lat="45.4098" lon="5.91738">
        <ele>1586.924953424</ele>
        <time>2015-06-06T08:08:00Z</time>
      </trkpt>
      <trkpt lat="45.40981" lon="5.91743">
        <ele>1586.924953424</ele>
        <time>2015-06-06T08:08:04Z</time>
      </trkpt>
      <trkpt lat="45.40987" lon="5.91745">
        <ele>1589.182744615</ele>
        <time>2015-06-06T08:08:09Z</time>
      </trkpt>
      <trkpt lat="45.4099" lon="5.91749">
        <ele>1589.182744615</ele>
        <time>2015-06-06T08:08:14Z</time>
      </trkpt>
      <trkpt lat="45.40995" lon="5.91754">
        <ele>1591.666118548</ele>
        <time>2015-06-06T08:08:20Z</time>
      </trkpt>
      <trkpt lat="45.40996" lon="5.91759">
        <ele>1591.666118548</ele>
        <time>2015-06-06T08:08:24Z</time>
      </trkpt>
      <trkpt lat="45.40997" lon="5.91766">
        <ele>1591.666118548</ele>
        <time>2015-06-06T08:08:29Z</time>
      </trkpt>
      <trkpt lat="45.41002" lon="5.91768">
        <ele>1593.781187929</ele>
        <time>2015-06-06T08:08:34Z</time>
      </trkpt>
      <trkpt lat="45.41003" lon="5.91772">
        <ele>1593.781187929</ele>
        <time>2015-06-06T08:08:40Z</time>
      </trkpt>
      <trkpt lat="45.41008" lon="5.91776">
        <ele>1593.781187929</ele>
        <time>2015-06-06T08:08:44Z</time>
      </trkpt>
      <trkpt lat="45.41012" lon="5.9178">
        <ele>1595.987600124</ele>
        <time>2015-06-06T08:08:50Z</time>
      </trkpt>
      <trkpt lat="45.41017" lon="5.91787">
        <ele>1595.987600124</ele>
        <time>2015-06-06T08:08:54Z</time>
      </trkpt>
      <trkpt lat="45.41018" lon="5.91791">
        <ele>1597.990514384</ele>
        <time>2015-06-06T08:08:59Z</time>
      </trkpt>
      <trkpt lat="45.41021" lon="5.91794">
        <ele>1597.990514384</ele>
        <time>2015-06-06T08:09:04Z</time>
      </trkpt>
      <trkpt lat="45.41024" lon="5.91799">
        <ele>1597.990514384</ele>
        <time>2015-06-06T08:09:09Z</time>
      </trkpt>
      <trkpt lat="45.41026" lon="5.91809">
        <ele>1599.517400689</ele>
        <time>2015-06-06T08:09:14Z</time>
      </trkpt>
      <trkpt lat="45.41029" lon="5.91815">
        <ele>1599.517400689</ele>
        <time>2015-06-06T08:09:20Z</time>
      </trkpt>
      <trkpt lat="45.41029" lon="5.91822">
        <ele>1601.037711827</ele>
        <time>2015-06-06T08:09:24Z</time>
      </trkpt>
      <trkpt lat="45.41032" lon="5.91828">
        <ele>1601.037711827</ele>
        <time>2015-06-06T08:09:29Z</time>
      </trkpt>
      <trkpt lat="45.41038" lon="5.91833">
        <ele>1601.833604275</ele>
        <time>2015-06-06T08:09:34Z</time>
      </trkpt>
      <trkpt lat="45.41034" lon="5.91836">
        <ele>1601.833604275</ele>
        <time>2015-06-06T08:09:40Z</time>
      </trkpt>
      <trkpt lat="45.41041" lon="5.91839">
        <ele>1602.827269648</ele>
        <time>2015-06-06T08:09:44Z</time>
      </trkpt>
      <trkpt lat="45.41047" lon="5.91847">
        <ele>1602.827269648</ele>
        <time>2015-06-06T08:09:50Z</time>
      </trkpt>
      <trkpt lat="45.4105" lon="5.91853">
        <ele>1603.575634276</ele>
        <time>2015-06-06T08:09:53Z</time>
      </trkpt>
      <trkpt lat="45.41052" lon="5.91857">
        <ele>1603.575634276</ele>
        <time>2015-06-06T08:09:59Z</time>
      </trkpt>
      <trkpt lat="45.41058" lon="5.91864">
        <ele>1604.821769966</ele>
        <time>2015-06-06T08:10:05Z</time>
      </trkpt>
      <trkpt lat="45.41057" lon="5.91864">
        <ele>1604.821769966</ele>
        <time>2015-06-06T08:10:09Z</time>
      </trkpt>
      <trkpt lat="45.41058" lon="5.91864">
        <ele>1604.821769966</ele>
        <time>2015-06-06T08:10:14Z</time>
      </trkpt>
      <trkpt lat="45.41058" lon="5.91865">
        <ele>1604.821769966</ele>
        <time>2015-06-06T08:10:18Z</time>
      </trkpt>
      <trkpt lat="45.41062" lon="5.91873">
        <ele>1604.821769966</ele>
        <time>2015-06-06T08:10:24Z</time>
      </trkpt>
      <trkpt lat="45.41063" lon="5.91878">
        <ele>1606.532218514</ele>
        <time>2015-06-06T08:10:29Z</time>
      </trkpt>
      <trkpt lat="45.41065" lon="5.91882">
        <ele>1606.532218514</ele>
        <time>2015-06-06T08:10:34Z</time>
      </trkpt>
      <trkpt lat="45.41069" lon="5.91889">
        <ele>1607.954118591</ele>
        <time>2015-06-06T08:10:39Z</time>
      </trkpt>
      <trkpt lat="45.41071" lon="5.91894">
        <ele>1607.954118591</ele>
        <time>2015-06-06T08:10:44Z</time>
      </trkpt>
      <trkpt lat="45.41075" lon="5.91899">
        <ele>1608.967156082</ele>
        <time>2015-06-06T08:10:49Z</time>
      </trkpt>
      <trkpt lat="45.41077" lon="5.919">
        <ele>1608.967156082</ele>
        <time>2015-06-06T08:10:54Z</time>
      </trkpt>
      <trkpt lat="45.41082" lon="5.91905">
        <ele>1608.967156082</ele>
        <time>2015-06-06T08:10:59Z</time>
      </trkpt>
      <trkpt lat="45.41083" lon="5.91909">
        <ele>1609.893315832</ele>
        <time>2015-06-06T08:11:04Z</time>
      </trkpt>
      <trkpt lat="45.41091" lon="5.91917">
        <ele>1610.454700288</ele>
        <time>2015-06-06T08:11:09Z</time>
      </trkpt>
      <trkpt lat="45.41092" lon="5.9192">
        <ele>1610.454700288</ele>
        <time>2015-06-06T08:11:14Z</time>
      </trkpt>
      <trkpt lat="45.41093" lon="5.91926">
        <ele>1610.454700288</ele>
        <time>2015-06-06T08:11:19Z</time>
      </trkpt>
      <trkpt lat="45.41094" lon="5.91933">
        <ele>1610.683032476</ele>
        <time>2015-06-06T08:11:24Z</time>
      </trkpt>
      <trkpt lat="45.411" lon="5.91935">
        <ele>1610.683032476</ele>
        <time>2015-06-06T08:11:29Z</time>
      </trkpt>
      <trkpt lat="45.41095" lon="5.91941">
        <ele>1611.617367931</ele>
        <time>2015-06-06T08:11:34Z</time>
      </trkpt>
      <trkpt lat="45.41102" lon="5.91945">
        <ele>1611.617367931</ele>
        <time>2015-06-06T08:11:39Z</time>
      </trkpt>
      <trkpt lat="45.41109" lon="5.91949">
        <ele>1612.777282322</ele>
        <time>2015-06-06T08:11:44Z</time>
      </trkpt>
      <trkpt lat="45.41112" lon="5.91955">
        <ele>1612.777282322</ele>
        <time>2015-06-06T08:11:49Z</time>
      </trkpt>
      <trkpt lat="45.41112" lon="5.91959">
        <ele>1612.777282322</ele>
        <time>2015-06-06T08:11:54Z</time>
      </trkpt>
      <trkpt lat="45.41117" lon="5.91965">
        <ele>1614.005165288</ele>
        <time>2015-06-06T08:11:59Z</time>
      </trkpt>
      <trkpt lat="45.41119" lon="5.91968">
        <ele>1614.005165288</ele>
        <time>2015-06-06T08:12:04Z</time>
      </trkpt>
      <trkpt lat="45.41126" lon="5.91973">
        <ele>1615.010609293</ele>
        <time>2015-06-06T08:12:09Z</time>
      </trkpt>
      <trkpt lat="45.4113" lon="5.91982">
        <ele>1615.010609293</ele>
        <time>2015-06-06T08:12:14Z</time>
      </trkpt>
      <trkpt lat="45.4113" lon="5.91988">
        <ele>1615.81330853</ele>
        <time>2015-06-06T08:12:19Z</time>
      </trkpt>
      <trkpt lat="45.41129" lon="5.91992">
        <ele>1615.81330853</ele>
        <time>2015-06-06T08:12:24Z</time>
      </trkpt>
      <trkpt lat="45.41132" lon="5.91996">
        <ele>1615.81330853</ele>
        <time>2015-06-06T08:12:29Z</time>
      </trkpt>
      <trkpt lat="45.41135" lon="5.92002">
        <ele>1617.584888276</ele>
        <time>2015-06-06T08:12:34Z</time>
      </trkpt>
      <trkpt lat="45.4114" lon="5.92008">
        <ele>1617.584888276</ele>
        <time>2015-06-06T08:12:39Z</time>
      </trkpt>
      <trkpt lat="45.41146" lon="5.92014">
        <ele>1618.958216557</ele>
        <time>2015-06-06T08:12:44Z</time>
      </trkpt>
      <trkpt lat="45.41148" lon="5.9202">
        <ele>1618.958216557</ele>
        <time>2015-06-06T08:12:49Z</time>
      </trkpt>
      <trkpt lat="45.4115" lon="5.92023">
        <ele>1618.958216557</ele>
        <time>2015-06-06T08:12:54Z</time>
      </trkpt>
      <trkpt lat="45.41154" lon="5.92029">
        <ele>1620.396957863</ele>
        <time>2015-06-06T08:12:58Z</time>
      </trkpt>
      <trkpt lat="45.41155" lon="5.92033">
        <ele>1620.396957863</ele>
        <time>2015-06-06T08:13:05Z</time>
      </trkpt>
      <trkpt lat="45.4116" lon="5.92038">
        <ele>1620.396957863</ele>
        <time>2015-06-06T08:13:09Z</time>
      </trkpt>
      <trkpt lat="45.41164" lon="5.92046">
        <ele>1622.186338943</ele>
        <time>2015-06-06T08:13:14Z</time>
      </trkpt>
      <trkpt lat="45.41168" lon="5.92051">
        <ele>1622.186338943</ele>
        <time>2015-06-06T08:13:19Z</time>
      </trkpt>
      <trkpt lat="45.41171" lon="5.92055">
        <ele>1624.301348211</ele>
        <time>2015-06-06T08:13:25Z</time>
      </trkpt>
      <trkpt lat="45.41174" lon="5.92059">
        <ele>1624.301348211</ele>
        <time>2015-06-06T08:13:29Z</time>
      </trkpt>
      <trkpt lat="45.41179" lon="5.92064">
        <ele>1626.285488009</ele>
        <time>2015-06-06T08:13:34Z</time>
      </trkpt>
      <trkpt lat="45.41183" lon="5.92069">
        <ele>1626.285488009</ele>
        <time>2015-06-06T08:13:39Z</time>
      </trkpt>
      <trkpt lat="45.41185" lon="5.92073">
        <ele>1626.285488009</ele>
        <time>2015-06-06T08:13:44Z</time>
      </trkpt>
      <trkpt lat="45.41189" lon="5.92075">
        <ele>1628.868980395</ele>
        <time>2015-06-06T08:13:49Z</time>
      </trkpt>
      <trkpt lat="45.41189" lon="5.9208">
        <ele>1628.868980395</ele>
        <time>2015-06-06T08:13:54Z</time>
      </trkpt>
      <trkpt lat="45.41192" lon="5.92087">
        <ele>1631.861994389</ele>
        <time>2015-06-06T08:13:59Z</time>
      </trkpt>
      <trkpt lat="45.41195" lon="5.9209">
        <ele>1631.861994389</ele>
        <time>2015-06-06T08:14:04Z</time>
      </trkpt>
      <trkpt lat="45.41198" lon="5.92097">
        <ele>1634.799218978</ele>
        <time>2015-06-06T08:14:09Z</time>
      </trkpt>
      <trkpt lat="45.41202" lon="5.921">
        <ele>1634.799218978</ele>
        <time>2015-06-06T08:14:13Z</time>
      </trkpt>
      <trkpt lat="45.41206" lon="5.92105">
        <ele>1637.105525622</ele>
        <time>2015-06-06T08:14:19Z</time>
      </trkpt>
      <trkpt lat="45.4121" lon="5.92109">
        <ele>1637.105525622</ele>
        <time>2015-06-06T08:14:24Z</time>
      </trkpt>
      <trkpt lat="45.41211" lon="5.92116">
        <ele>1639.114435926</ele>
        <time>2015-06-06T08:14:29Z</time>
      </trkpt>
      <trkpt lat="45.41212" lon="5.92121">
        <ele>1639.114435926</ele>
        <time>2015-06-06T08:14:34Z</time>
      </trkpt>
      <trkpt lat="45.41213" lon="5.92124">
        <ele>1639.114435926</ele>
        <time>2015-06-06T08:14:39Z</time>
      </trkpt>
      <trkpt lat="45.41214" lon="5.92127">
        <ele>1639.114435926</ele>
        <time>2015-06-06T08:14:44Z</time>
      </trkpt>
      <trkpt lat="45.41216" lon="5.92133">
        <ele>1642.000445776</ele>
        <time>2015-06-06T08:14:49Z</time>
      </trkpt>
      <trkpt lat="45.4122" lon="5.92136">
        <ele>1642.000445776</ele>
        <time>2015-06-06T08:14:54Z</time>
      </trkpt>
      <trkpt lat="45.41225" lon="5.9214">
        <ele>1644.687625527</ele>
        <time>2015-06-06T08:14:59Z</time>
      </trkpt>
      <trkpt lat="45.41229" lon="5.92144">
        <ele>1644.687625527</ele>
        <time>2015-06-06T08:15:04Z</time>
      </trkpt>
      <trkpt lat="45.41231" lon="5.92149">
        <ele>1647.76485084</ele>
        <time>2015-06-06T08:15:09Z</time>
      </trkpt>
      <trkpt lat="45.41232" lon="5.92154">
        <ele>1647.76485084</ele>
        <time>2015-06-06T08:15:14Z</time>
      </trkpt>
      <trkpt lat="45.41234" lon="5.9216">
        <ele>1647.76485084</ele>
        <time>2015-06-06T08:15:19Z</time>
      </trkpt>
      <trkpt lat="45.41235" lon="5.9216">
        <ele>1651.200196422</ele>
        <time>2015-06-06T08:15:24Z</time>
      </trkpt>
      <trkpt lat="45.41236" lon="5.92161">
        <ele>1651.200196422</ele>
        <time>2015-06-06T08:15:29Z</time>
      </trkpt>
      <trkpt lat="45.4124" lon="5.92162">
        <ele>1651.200196422</ele>
        <time>2015-06-06T08:15:34Z</time>
      </trkpt>
      <trkpt lat="45.41243" lon="5.92167">
        <ele>1654.963084747</ele>
        <time>2015-06-06T08:15:39Z</time>
      </trkpt>
      <trkpt lat="45.41246" lon="5.92171">
        <ele>1654.963084747</ele>
        <time>2015-06-06T08:15:44Z</time>
      </trkpt>
      <trkpt lat="45.41249" lon="5.92176">
        <ele>1654.963084747</ele>
        <time>2015-06-06T08:15:49Z</time>
      </trkpt>
      <trkpt lat="45.41251" lon="5.9218">
        <ele>1658.591950745</ele>
        <time>2015-06-06T08:15:54Z</time>
      </trkpt>
      <trkpt lat="45.41254" lon="5.92185">
        <ele>1658.591950745</ele>
        <time>2015-06-06T08:15:59Z</time>
      </trkpt>
      <trkpt lat="45.41254" lon="5.9219">
        <ele>1658.591950745</ele>
        <time>2015-06-06T08:16:04Z</time>
      </trkpt>
      <trkpt lat="45.41257" lon="5.92194">
        <ele>1662.091875726</ele>
        <time>2015-06-06T08:16:09Z</time>
      </trkpt>
      <trkpt lat="45.41255" lon="5.922">
        <ele>1662.091875726</ele>
        <time>2015-06-06T08:16:14Z</time>
      </trkpt>
      <trkpt lat="45.41253" lon="5.92202">
        <ele>1662.091875726</ele>
        <time>2015-06-06T08:16:19Z</time>
      </trkpt>
      <trkpt lat="45.41252" lon="5.92204">
        <ele>1662.091875726</ele>
        <time>2015-06-06T08:16:24Z</time>
      </trkpt>
      <trkpt lat="45.41252" lon="5.92204">
        <ele>1665.612082952</ele>
        <time>2015-06-06T08:16:29Z</time>
      </trkpt>
      <trkpt lat="45.41252" lon="5.92204">
        <ele>1665.612082952</ele>
        <time>2015-06-06T08:16:33Z</time>
      </trkpt>
      <trkpt lat="45.41258" lon="5.92211">
        <ele>1665.612082952</ele>
        <time>2015-06-06T08:16:39Z</time>
      </trkpt>
      <trkpt lat="45.4126" lon="5.92216">
        <ele>1669.867275854</ele>
        <time>2015-06-06T08:16:44Z</time>
      </trkpt>
      <trkpt lat="45.41259" lon="5.92213">
        <ele>1669.867275854</ele>
        <time>2015-06-06T08:16:49Z</time>
      </trkpt>
      <trkpt lat="45.41258" lon="5.92214">
        <ele>1669.867275854</ele>
        <time>2015-06-06T08:16:54Z</time>
      </trkpt>
      <trkpt lat="45.41258" lon="5.92214">
        <ele>1669.867275854</ele>
        <time>2015-06-06T08:16:59Z</time>
      </trkpt>
      <trkpt lat="45.41258" lon="5.92214">
        <ele>1669.867275854</ele>
        <time>2015-06-06T08:17:04Z</time>
      </trkpt>
      <trkpt lat="45.41258" lon="5.92214">
        <ele>1669.867275854</ele>
        <time>2015-06-06T08:17:09Z</time>
      </trkpt>
      <trkpt lat="45.41258" lon="5.92214">
        <ele>1669.867275854</ele>
        <time>2015-06-06T08:17:14Z</time>
      </trkpt>
      <trkpt lat="45.41256" lon="5.92217">
        <ele>1669.867275854</ele>
        <time>2015-06-06T08:17:19Z</time>
      </trkpt>
      <trkpt lat="45.41257" lon="5.92222">
        <ele>1673.067768344</ele>
        <time>2015-06-06T08:17:24Z</time>
      </trkpt>
      <trkpt lat="45.41261" lon="5.92228">
        <ele>1673.067768344</ele>
        <time>2015-06-06T08:17:29Z</time>
      </trkpt>
      <trkpt lat="45.41264" lon="5.92233">
        <ele>1676.152375661</ele>
        <time>2015-06-06T08:17:34Z</time>
      </trkpt>
      <trkpt lat="45.41267" lon="5.92239">
        <ele>1676.152375661</ele>
        <time>2015-06-06T08:17:39Z</time>
      </trkpt>
      <trkpt lat="45.4127" lon="5.92245">
        <ele>1678.694350915</ele>
        <time>2015-06-06T08:17:44Z</time>
      </trkpt>
      <trkpt lat="45.41275" lon="5.92249">
        <ele>1678.694350915</ele>
        <time>2015-06-06T08:17:49Z</time>
      </trkpt>
      <trkpt lat="45.41276" lon="5.92253">
        <ele>1678.694350915</ele>
        <time>2015-06-06T08:17:54Z</time>
      </trkpt>
      <trkpt lat="45.41282" lon="5.92259">
        <ele>1681.020454636</ele>
        <time>2015-06-06T08:17:59Z</time>
      </trkpt>
      <trkpt lat="45.41283" lon="5.92259">
        <ele>1681.020454636</ele>
        <time>2015-06-06T08:18:04Z</time>
      </trkpt>
      <trkpt lat="45.41288" lon="5.92263">
        <ele>1681.020454636</ele>
        <time>2015-06-06T08:18:09Z</time>
      </trkpt>
      <trkpt lat="45.41294" lon="5.92266">
        <ele>1682.857683708</ele>
        <time>2015-06-06T08:18:14Z</time>
      </trkpt>
      <trkpt lat="45.41298" lon="5.9227">
        <ele>1682.857683708</ele>
        <time>2015-06-06T08:18:19Z</time>
      </trkpt>
      <trkpt lat="45.41304" lon="5.92275">
        <ele>1684.819203251</ele>
        <time>2015-06-06T08:18:24Z</time>
      </trkpt>
      <trkpt lat="45.41308" lon="5.9228">
        <ele>1684.819203251</ele>
        <time>2015-06-06T08:18:29Z</time>
      </trkpt>
      <trkpt lat="45.41314" lon="5.92283">
        <ele>1686.608188953</ele>
        <time>2015-06-06T08:18:34Z</time>
      </trkpt>
      <trkpt lat="45.41317" lon="5.92289">
        <ele>1686.608188953</ele>
        <time>2015-06-06T08:18:39Z</time>
      </trkpt>
      <trkpt lat="45.41318" lon="5.92296">
        <ele>1688.382500367</ele>
        <time>2015-06-06T08:18:44Z</time>
      </trkpt>
      <trkpt lat="45.41323" lon="5.92304">
        <ele>1688.382500367</ele>
        <time>2015-06-06T08:18:49Z</time>
      </trkpt>
      <trkpt lat="45.41324" lon="5.92308">
        <ele>1689.712050722</ele>
        <time>2015-06-06T08:18:54Z</time>
      </trkpt>
      <trkpt lat="45.41328" lon="5.92314">
        <ele>1689.712050722</ele>
        <time>2015-06-06T08:18:59Z</time>
      </trkpt>
      <trkpt lat="45.41332" lon="5.92319">
        <ele>1691.064306639</ele>
        <time>2015-06-06T08:19:03Z</time>
      </trkpt>
      <trkpt lat="45.41334" lon="5.92321">
        <ele>1691.064306639</ele>
        <time>2015-06-06T08:19:08Z</time>
      </trkpt>
      <trkpt lat="45.41336" lon="5.92325">
        <ele>1691.064306639</ele>
        <time>2015-06-06T08:19:14Z</time>
      </trkpt>
      <trkpt lat="45.41344" lon="5.92332">
        <ele>1692.7282561</ele>
        <time>2015-06-06T08:19:19Z</time>
      </trkpt>
      <trkpt lat="45.4135" lon="5.92333">
        <ele>1692.7282561</ele>
        <time>2015-06-06T08:19:24Z</time>
      </trkpt>
      <trkpt lat="45.41351" lon="5.92337">
        <ele>1694.394366565</ele>
        <time>2015-06-06T08:19:29Z</time>
      </trkpt>
      <trkpt lat="45.41352" lon="5.9234">
        <ele>1694.394366565</ele>
        <time>2015-06-06T08:19:34Z</time>
      </trkpt>
      <trkpt lat="45.41354" lon="5.92346">
        <ele>1694.394366565</ele>
        <time>2015-06-06T08:19:39Z</time>
      </trkpt>
      <trkpt lat="45.41357" lon="5.92351">
        <ele>1696.064079312</ele>
        <time>2015-06-06T08:19:44Z</time>
      </trkpt>
      <trkpt lat="45.41359" lon="5.92357">
        <ele>1696.064079312</ele>
        <time>2015-06-06T08:19:49Z</time>
      </trkpt>
      <trkpt lat="45.41363" lon="5.92361">
        <ele>1697.594620953</ele>
        <time>2015-06-06T08:19:53Z</time>
      </trkpt>
      <trkpt lat="45.41363" lon="5.92369">
        <ele>1697.594620953</ele>
        <time>2015-06-06T08:19:59Z</time>
      </trkpt>
      <trkpt lat="45.41371" lon="5.92373">
        <ele>1698.421768079</ele>
        <time>2015-06-06T08:20:04Z</time>
      </trkpt>
      <trkpt lat="45.41376" lon="5.92379">
        <ele>1698.421768079</ele>
        <time>2015-06-06T08:20:09Z</time>
      </trkpt>
      <trkpt lat="45.41377" lon="5.92384">
        <ele>1698.457047032</ele>
        <time>2015-06-06T08:20:14Z</time>
      </trkpt>
      <trkpt lat="45.41383" lon="5.92388">
        <ele>1698.457047032</ele>
        <time>2015-06-06T08:20:19Z</time>
      </trkpt>
      <trkpt lat="45.41386" lon="5.9239">
        <ele>1698.773578573</ele>
        <time>2015-06-06T08:20:24Z</time>
      </trkpt>
      <trkpt lat="45.41392" lon="5.92396">
        <ele>1698.773578573</ele>
        <time>2015-06-06T08:20:29Z</time>
      </trkpt>
      <trkpt lat="45.41395" lon="5.924">
        <ele>1699.500168784</ele>
        <time>2015-06-06T08:20:34Z</time>
      </trkpt>
      <trkpt lat="45.41396" lon="5.92408">
        <ele>1699.500168784</ele>
        <time>2015-06-06T08:20:39Z</time>
      </trkpt>
      <trkpt lat="45.414" lon="5.92415">
        <ele>1700.17852609</ele>
        <time>2015-06-06T08:20:44Z</time>
      </trkpt>
      <trkpt lat="45.41403" lon="5.92419">
        <ele>1700.17852609</ele>
        <time>2015-06-06T08:20:49Z</time>
      </trkpt>
      <trkpt lat="45.41405" lon="5.92423">
        <ele>1700.17852609</ele>
        <time>2015-06-06T08:20:54Z</time>
      </trkpt>
      <trkpt lat="45.41407" lon="5.92431">
        <ele>1701.392887109</ele>
        <time>2015-06-06T08:20:59Z</time>
      </trkpt>
      <trkpt lat="45.41411" lon="5.92434">
        <ele>1701.392887109</ele>
        <time>2015-06-06T08:21:04Z</time>
      </trkpt>
      <trkpt lat="45.41413" lon="5.92437">
        <ele>1701.392887109</ele>
        <time>2015-06-06T08:21:09Z</time>
      </trkpt>
      <trkpt lat="45.41416" lon="5.92438">
        <ele>1703.250675935</ele>
        <time>2015-06-06T08:21:14Z</time>
      </trkpt>
      <trkpt lat="45.41417" lon="5.92445">
        <ele>1703.250675935</ele>
        <time>2015-06-06T08:21:19Z</time>
      </trkpt>
      <trkpt lat="45.41419" lon="5.92448">
        <ele>1703.250675935</ele>
        <time>2015-06-06T08:21:24Z</time>
      </trkpt>
      <trkpt lat="45.41418" lon="5.92455">
        <ele>1705.129003369</ele>
        <time>2015-06-06T08:21:29Z</time>
      </trkpt>
      <trkpt lat="45.41416" lon="5.92459">
        <ele>1705.129003369</ele>
        <time>2015-06-06T08:21:34Z</time>
      </trkpt>
      <trkpt lat="45.41414" lon="5.92461">
        <ele>1705.129003369</ele>
        <time>2015-06-06T08:21:39Z</time>
      </trkpt>
      <trkpt lat="45.41412" lon="5.92466">
        <ele>1707.315285417</ele>
        <time>2015-06-06T08:21:44Z</time>
      </trkpt>
      <trkpt lat="45.4141" lon="5.92472">
        <ele>1707.315285417</ele>
        <time>2015-06-06T08:21:49Z</time>
      </trkpt>
      <trkpt lat="45.41411" lon="5.92474">
        <ele>1707.315285417</ele>
        <time>2015-06-06T08:21:54Z</time>
      </trkpt>
      <trkpt lat="45.41413" lon="5.92477">
        <ele>1709.642568813</ele>
        <time>2015-06-06T08:21:59Z</time>
      </trkpt>
      <trkpt lat="45.41418" lon="5.9248">
        <ele>1709.642568813</ele>
        <time>2015-06-06T08:22:04Z</time>
      </trkpt>
      <trkpt lat="45.41418" lon="5.92484">
        <ele>1709.642568813</ele>
        <time>2015-06-06T08:22:09Z</time>
      </trkpt>
      <trkpt lat="45.4142" lon="5.92489">
        <ele>1711.667492212</ele>
        <time>2015-06-06T08:22:13Z</time>
      </trkpt>
      <trkpt lat="45.41424" lon="5.92491">
        <ele>1711.667492212</ele>
        <time>2015-06-06T08:22:19Z</time>
      </trkpt>
      <trkpt lat="45.41428" lon="5.92497">
        <ele>1714.132951516</ele>
        <time>2015-06-06T08:22:24Z</time>
      </trkpt>
      <trkpt lat="45.41429" lon="5.92502">
        <ele>1714.132951516</ele>
        <time>2015-06-06T08:22:29Z</time>
      </trkpt>
      <trkpt lat="45.41431" lon="5.92504">
        <ele>1714.132951516</ele>
        <time>2015-06-06T08:22:34Z</time>
      </trkpt>
      <trkpt lat="45.41434" lon="5.92509">
        <ele>1717.14954658</ele>
        <time>2015-06-06T08:22:39Z</time>
      </trkpt>
      <trkpt lat="45.41437" lon="5.92513">
        <ele>1717.14954658</ele>
        <time>2015-06-06T08:22:44Z</time>
      </trkpt>
      <trkpt lat="45.41436" lon="5.92515">
        <ele>1717.14954658</ele>
        <time>2015-06-06T08:22:49Z</time>
      </trkpt>
      <trkpt lat="45.41437" lon="5.92516">
        <ele>1717.14954658</ele>
        <time>2015-06-06T08:22:53Z</time>
      </trkpt>
      <trkpt lat="45.41435" lon="5.92517">
        <ele>1717.14954658</ele>
        <time>2015-06-06T08:22:59Z</time>
      </trkpt>
      <trkpt lat="45.4144" lon="5.92519">
        <ele>1719.809392307</ele>
        <time>2015-06-06T08:23:03Z</time>
      </trkpt>
      <trkpt lat="45.41445" lon="5.92522">
        <ele>1719.809392307</ele>
        <time>2015-06-06T08:23:09Z</time>
      </trkpt>
      <trkpt lat="45.41447" lon="5.92526">
        <ele>1722.713380566</ele>
        <time>2015-06-06T08:23:14Z</time>
      </trkpt>
      <trkpt lat="45.41449" lon="5.92531">
        <ele>1722.713380566</ele>
        <time>2015-06-06T08:23:19Z</time>
      </trkpt>
      <trkpt lat="45.41452" lon="5.92538">
        <ele>1725.264667709</ele>
        <time>2015-06-06T08:23:24Z</time>
      </trkpt>
      <trkpt lat="45.41455" lon="5.92541">
        <ele>1725.264667709</ele>
        <time>2015-06-06T08:23:29Z</time>
      </trkpt>
      <trkpt lat="45.41457" lon="5.92546">
        <ele>1725.264667709</ele>
        <time>2015-06-06T08:23:34Z</time>
      </trkpt>
      <trkpt lat="45.41461" lon="5.92549">
        <ele>1727.92000909</ele>
        <time>2015-06-06T08:23:39Z</time>
      </trkpt>
      <trkpt lat="45.4146" lon="5.92553">
        <ele>1727.92000909</ele>
        <time>2015-06-06T08:23:44Z</time>
      </trkpt>
      <trkpt lat="45.41455" lon="5.92558">
        <ele>1730.381753249</ele>
        <time>2015-06-06T08:23:49Z</time>
      </trkpt>
      <trkpt lat="45.41455" lon="5.92559">
        <ele>1730.381753249</ele>
        <time>2015-06-06T08:23:53Z</time>
      </trkpt>
      <trkpt lat="45.41456" lon="5.92558">
        <ele>1730.381753249</ele>
        <time>2015-06-06T08:23:59Z</time>
      </trkpt>
      <trkpt lat="45.41456" lon="5.9256">
        <ele>1730.381753249</ele>
        <time>2015-06-06T08:24:04Z</time>
      </trkpt>
      <trkpt lat="45.41463" lon="5.92564">
        <ele>1732.662878448</ele>
        <time>2015-06-06T08:24:09Z</time>
      </trkpt>
      <trkpt lat="45.41468" lon="5.92569">
        <ele>1732.662878448</ele>
        <time>2015-06-06T08:24:14Z</time>
      </trkpt>
      <trkpt lat="45.41472" lon="5.92572">
        <ele>1734.775918752</ele>
        <time>2015-06-06T08:24:19Z</time>
      </trkpt>
      <trkpt lat="45.41476" lon="5.92578">
        <ele>1734.775918752</ele>
        <time>2015-06-06T08:24:24Z</time>
      </trkpt>
      <trkpt lat="45.4148" lon="5.92583">
        <ele>1736.732963608</ele>
        <time>2015-06-06T08:24:29Z</time>
      </trkpt>
      <trkpt lat="45.41481" lon="5.9259">
        <ele>1736.732963608</ele>
        <time>2015-06-06T08:24:34Z</time>
      </trkpt>
      <trkpt lat="45.41486" lon="5.92593">
        <ele>1738.545657097</ele>
        <time>2015-06-06T08:24:39Z</time>
      </trkpt>
      <trkpt lat="45.41489" lon="5.92595">
        <ele>1738.545657097</ele>
        <time>2015-06-06T08:24:44Z</time>
      </trkpt>
      <trkpt lat="45.41494" lon="5.92603">
        <ele>1740.225197116</ele>
        <time>2015-06-06T08:24:49Z</time>
      </trkpt>
      <trkpt lat="45.41493" lon="5.92609">
        <ele>1740.225197116</ele>
        <time>2015-06-06T08:24:54Z</time>
      </trkpt>
      <trkpt lat="45.41499" lon="5.92614">
        <ele>1741.494111858</ele>
        <time>2015-06-06T08:24:59Z</time>
      </trkpt>
      <trkpt lat="45.41501" lon="5.92617">
        <ele>1741.494111858</ele>
        <time>2015-06-06T08:25:03Z</time>
      </trkpt>
      <trkpt lat="45.41501" lon="5.92625">
        <ele>1741.494111858</ele>
        <time>2015-06-06T08:25:08Z</time>
      </trkpt>
      <trkpt lat="45.41505" lon="5.9263">
        <ele>1743.105241115</ele>
        <time>2015-06-06T08:25:13Z</time>
      </trkpt>
      <trkpt lat="45.41509" lon="5.92633">
        <ele>1743.105241115</ele>
        <time>2015-06-06T08:25:20Z</time>
      </trkpt>
      <trkpt lat="45.4151" lon="5.92634">
        <ele>1743.105241115</ele>
        <time>2015-06-06T08:25:24Z</time>
      </trkpt>
      <trkpt lat="45.41514" lon="5.92638">
        <ele>1745.322823957</ele>
        <time>2015-06-06T08:25:30Z</time>
      </trkpt>
      <trkpt lat="45.41515" lon="5.92644">
        <ele>1745.322823957</ele>
        <time>2015-06-06T08:25:34Z</time>
      </trkpt>
      <trkpt lat="45.41516" lon="5.92649">
        <ele>1745.322823957</ele>
        <time>2015-06-06T08:25:39Z</time>
      </trkpt>
      <trkpt lat="45.4152" lon="5.9265">
        <ele>1747.813537176</ele>
        <time>2015-06-06T08:25:45Z</time>
      </trkpt>
      <trkpt lat="45.41517" lon="5.92653">
        <ele>1747.813537176</ele>
        <time>2015-06-06T08:25:49Z</time>
      </trkpt>
      <trkpt lat="45.41512" lon="5.92651">
        <ele>1747.813537176</ele>
        <time>2015-06-06T08:25:54Z</time>
      </trkpt>
      <trkpt lat="45.41503" lon="5.92653">
        <ele>1750.267771966</ele>
        <time>2015-06-06T08:26:00Z</time>
      </trkpt>
      <trkpt lat="45.41499" lon="5.92651">
        <ele>1750.267771966</ele>
        <time>2015-06-06T08:26:04Z</time>
      </trkpt>
      <trkpt lat="45.41493" lon="5.92653">
        <ele>1752.398762399</ele>
        <time>2015-06-06T08:26:10Z</time>
      </trkpt>
      <trkpt lat="45.4149" lon="5.92647">
        <ele>1752.398762399</ele>
        <time>2015-06-06T08:26:14Z</time>
      </trkpt>
      <trkpt lat="45.41488" lon="5.92639">
        <ele>1754.662270621</ele>
        <time>2015-06-06T08:26:20Z</time>
      </trkpt>
      <trkpt lat="45.41481" lon="5.92636">
        <ele>1754.662270621</ele>
        <time>2015-06-06T08:26:24Z</time>
      </trkpt>
      <trkpt lat="45.41474" lon="5.92636">
        <ele>1756.759653195</ele>
        <time>2015-06-06T08:26:29Z</time>
      </trkpt>
      <trkpt lat="45.41471" lon="5.92637">
        <ele>1756.759653195</ele>
        <time>2015-06-06T08:26:34Z</time>
      </trkpt>
      <trkpt lat="45.41463" lon="5.92636">
        <ele>1758.270562123</ele>
        <time>2015-06-06T08:26:40Z</time>
      </trkpt>
      <trkpt lat="45.41458" lon="5.92637">
        <ele>1758.270562123</ele>
        <time>2015-06-06T08:26:44Z</time>
      </trkpt>
      <trkpt lat="45.41459" lon="5.92637">
        <ele>1758.270562123</ele>
        <time>2015-06-06T08:26:49Z</time>
      </trkpt>
      <trkpt lat="45.41458" lon="5.92637">
        <ele>1758.270562123</ele>
        <time>2015-06-06T08:26:54Z</time>
      </trkpt>
      <trkpt lat="45.41456" lon="5.92637">
        <ele>1760.104175665</ele>
        <time>2015-06-06T08:27:00Z</time>
      </trkpt>
      <trkpt lat="45.41456" lon="5.92637">
        <ele>1760.104175665</ele>
        <time>2015-06-06T08:27:04Z</time>
      </trkpt>
      <trkpt lat="45.41456" lon="5.92637">
        <ele>1760.104175665</ele>
        <time>2015-06-06T08:27:10Z</time>
      </trkpt>
      <trkpt lat="45.41456" lon="5.92637">
        <ele>1760.104175665</ele>
        <time>2015-06-06T08:27:14Z</time>
      </trkpt>
      <trkpt lat="45.41456" lon="5.92637">
        <ele>1760.104175665</ele>
        <time>2015-06-06T08:27:20Z</time>
      </trkpt>
      <trkpt lat="45.41456" lon="5.92637">
        <ele>1760.104175665</ele>
        <time>2015-06-06T08:27:24Z</time>
      </trkpt>
      <trkpt lat="45.41456" lon="5.92637">
        <ele>1760.104175665</ele>
        <time>2015-06-06T08:27:29Z</time>
      </trkpt>
      <trkpt lat="45.41456" lon="5.92637">
        <ele>1760.104175665</ele>
        <time>2015-06-06T08:27:34Z</time>
      </trkpt>
      <trkpt lat="45.41456" lon="5.92637">
        <ele>1760.104175665</ele>
        <time>2015-06-06T08:27:39Z</time>
      </trkpt>
      <trkpt lat="45.41456" lon="5.92637">
        <ele>1760.104175665</ele>
        <time>2015-06-06T08:27:44Z</time>
      </trkpt>
      <trkpt lat="45.41456" lon="5.92637">
        <ele>1760.104175665</ele>
        <time>2015-06-06T08:27:50Z</time>
      </trkpt>
      <trkpt lat="45.41449" lon="5.92635">
        <ele>1760.104175665</ele>
        <time>2015-06-06T08:27:54Z</time>
      </trkpt>
      <trkpt lat="45.41436" lon="5.92631">
        <ele>1761.084422005</ele>
        <time>2015-06-06T08:28:00Z</time>
      </trkpt>
      <trkpt lat="45.41425" lon="5.92626">
        <ele>1761.56512241</ele>
        <time>2015-06-06T08:28:04Z</time>
      </trkpt>
      <trkpt lat="45.41412" lon="5.92625">
        <ele>1761.73138277</ele>
        <time>2015-06-06T08:28:10Z</time>
      </trkpt>
      <trkpt lat="45.41407" lon="5.92622">
        <ele>1761.73138277</ele>
        <time>2015-06-06T08:28:13Z</time>
      </trkpt>
      <trkpt lat="45.4141" lon="5.92618">
        <ele>1762.043791739</ele>
        <time>2015-06-06T08:28:18Z</time>
      </trkpt>
      <trkpt lat="45.41406" lon="5.92621">
        <ele>1762.043791739</ele>
        <time>2015-06-06T08:28:24Z</time>
      </trkpt>
      <trkpt lat="45.41403" lon="5.92628">
        <ele>1763.649215994</ele>
        <time>2015-06-06T08:28:29Z</time>
      </trkpt>
      <trkpt lat="45.41402" lon="5.92628">
        <ele>1763.649215994</ele>
        <time>2015-06-06T08:28:34Z</time>
      </trkpt>
      <trkpt lat="45.41402" lon="5.92629">
        <ele>1763.649215994</ele>
        <time>2015-06-06T08:28:39Z</time>
      </trkpt>
      <trkpt lat="45.41401" lon="5.92627">
        <ele>1763.649215994</ele>
        <time>2015-06-06T08:28:44Z</time>
      </trkpt>
      <trkpt lat="45.414" lon="5.92627">
        <ele>1763.649215994</ele>
        <time>2015-06-06T08:28:48Z</time>
      </trkpt>
      <trkpt lat="45.414" lon="5.92627">
        <ele>1763.649215994</ele>
        <time>2015-06-06T08:28:53Z</time>
      </trkpt>
      <trkpt lat="45.414" lon="5.92626">
        <ele>1763.649215994</ele>
        <time>2015-06-06T08:28:59Z</time>
      </trkpt>
      <trkpt lat="45.414" lon="5.92625">
        <ele>1763.649215994</ele>
        <time>2015-06-06T08:29:04Z</time>
      </trkpt>
      <trkpt lat="45.414" lon="5.92625">
        <ele>1763.649215994</ele>
        <time>2015-06-06T08:29:09Z</time>
      </trkpt>
      <trkpt lat="45.414" lon="5.92625">
        <ele>1763.649215994</ele>
        <time>2015-06-06T08:29:14Z</time>
      </trkpt>
      <trkpt lat="45.414" lon="5.92625">
        <ele>1763.649215994</ele>
        <time>2015-06-06T08:29:19Z</time>
      </trkpt>
      <trkpt lat="45.41397" lon="5.92623">
        <ele>1763.649215994</ele>
        <time>2015-06-06T08:29:24Z</time>
      </trkpt>
      <trkpt lat="45.41396" lon="5.92617">
        <ele>1765.877272797</ele>
        <time>2015-06-06T08:29:29Z</time>
      </trkpt>
      <trkpt lat="45.41392" lon="5.9262">
        <ele>1765.877272797</ele>
        <time>2015-06-06T08:29:34Z</time>
      </trkpt>
      <trkpt lat="45.41385" lon="5.92623">
        <ele>1768.53737021</ele>
        <time>2015-06-06T08:29:39Z</time>
      </trkpt>
      <trkpt lat="45.41378" lon="5.92618">
        <ele>1768.53737021</ele>
        <time>2015-06-06T08:29:44Z</time>
      </trkpt>
      <trkpt lat="45.41374" lon="5.92618">
        <ele>1771.30755507</ele>
        <time>2015-06-06T08:29:49Z</time>
      </trkpt>
      <trkpt lat="45.41372" lon="5.9261">
        <ele>1771.30755507</ele>
        <time>2015-06-06T08:29:54Z</time>
      </trkpt>
      <trkpt lat="45.4137" lon="5.92608">
        <ele>1771.30755507</ele>
        <time>2015-06-06T08:30:00Z</time>
      </trkpt>
      <trkpt lat="45.41368" lon="5.92606">
        <ele>1773.74507234</ele>
        <time>2015-06-06T08:30:04Z</time>
      </trkpt>
      <trkpt lat="45.41364" lon="5.92606">
        <ele>1773.74507234</ele>
        <time>2015-06-06T08:30:09Z</time>
      </trkpt>
      <trkpt lat="45.41361" lon="5.92608">
        <ele>1773.74507234</ele>
        <time>2015-06-06T08:30:14Z</time>
      </trkpt>
      <trkpt lat="45.41358" lon="5.92603">
        <ele>1776.305267132</ele>
        <time>2015-06-06T08:30:19Z</time>
      </trkpt>
      <trkpt lat="45.41356" lon="5.92604">
        <ele>1776.305267132</ele>
        <time>2015-06-06T08:30:24Z</time>
      </trkpt>
      <trkpt lat="45.41351" lon="5.92605">
        <ele>1776.305267132</ele>
        <time>2015-06-06T08:30:29Z</time>
      </trkpt>
      <trkpt lat="45.41347" lon="5.92603">
        <ele>1778.112672155</ele>
        <time>2015-06-06T08:30:34Z</time>
      </trkpt>
      <trkpt lat="45.41341" lon="5.92602">
        <ele>1778.112672155</ele>
        <time>2015-06-06T08:30:39Z</time>
      </trkpt>
      <trkpt lat="45.41339" lon="5.926">
        <ele>1779.222895168</ele>
        <time>2015-06-06T08:30:44Z</time>
      </trkpt>
      <trkpt lat="45.41335" lon="5.92598">
        <ele>1779.222895168</ele>
        <time>2015-06-06T08:30:49Z</time>
      </trkpt>
      <trkpt lat="45.41329" lon="5.92595">
        <ele>1780.554067575</ele>
        <time>2015-06-06T08:30:54Z</time>
      </trkpt>
      <trkpt lat="45.41323" lon="5.9259">
        <ele>1780.554067575</ele>
        <time>2015-06-06T08:30:59Z</time>
      </trkpt>
      <trkpt lat="45.41318" lon="5.92583">
        <ele>1781.803350152</ele>
        <time>2015-06-06T08:31:04Z</time>
      </trkpt>
      <trkpt lat="45.41315" lon="5.92578">
        <ele>1781.803350152</ele>
        <time>2015-06-06T08:31:09Z</time>
      </trkpt>
      <trkpt lat="45.41312" lon="5.92575">
        <ele>1781.803350152</ele>
        <time>2015-06-06T08:31:14Z</time>
      </trkpt>
      <trkpt lat="45.41307" lon="5.92573">
        <ele>1782.834470807</ele>
        <time>2015-06-06T08:31:19Z</time>
      </trkpt>
      <trkpt lat="45.41301" lon="5.92571">
        <ele>1782.834470807</ele>
        <time>2015-06-06T08:31:24Z</time>
      </trkpt>
      <trkpt lat="45.41297" lon="5.92571">
        <ele>1784.098200159</ele>
        <time>2015-06-06T08:31:29Z</time>
      </trkpt>
      <trkpt lat="45.41295" lon="5.92571">
        <ele>1784.098200159</ele>
        <time>2015-06-06T08:31:34Z</time>
      </trkpt>
      <trkpt lat="45.41292" lon="5.92573">
        <ele>1784.098200159</ele>
        <time>2015-06-06T08:31:39Z</time>
      </trkpt>
      <trkpt lat="45.4129" lon="5.92575">
        <ele>1784.098200159</ele>
        <time>2015-06-06T08:31:44Z</time>
      </trkpt>
      <trkpt lat="45.4129" lon="5.92575">
        <ele>1784.098200159</ele>
        <time>2015-06-06T08:31:49Z</time>
      </trkpt>
      <trkpt lat="45.41288" lon="5.92576">
        <ele>1785.579181523</ele>
        <time>2015-06-06T08:31:54Z</time>
      </trkpt>
      <trkpt lat="45.41282" lon="5.92576">
        <ele>1785.579181523</ele>
        <time>2015-06-06T08:31:59Z</time>
      </trkpt>
      <trkpt lat="45.41281" lon="5.92574">
        <ele>1785.579181523</ele>
        <time>2015-06-06T08:32:04Z</time>
      </trkpt>
      <trkpt lat="45.41276" lon="5.9257">
        <ele>1786.686100686</ele>
        <time>2015-06-06T08:32:09Z</time>
      </trkpt>
      <trkpt lat="45.41274" lon="5.92569">
        <ele>1786.686100686</ele>
        <time>2015-06-06T08:32:14Z</time>
      </trkpt>
      <trkpt lat="45.41271" lon="5.92565">
        <ele>1786.686100686</ele>
        <time>2015-06-06T08:32:19Z</time>
      </trkpt>
      <trkpt lat="45.41269" lon="5.92565">
        <ele>1786.686100686</ele>
        <time>2015-06-06T08:32:24Z</time>
      </trkpt>
      <trkpt lat="45.41268" lon="5.92565">
        <ele>1787.880874112</ele>
        <time>2015-06-06T08:32:29Z</time>
      </trkpt>
      <trkpt lat="45.41267" lon="5.92564">
        <ele>1787.880874112</ele>
        <time>2015-06-06T08:32:34Z</time>
      </trkpt>
      <trkpt lat="45.41267" lon="5.92564">
        <ele>1787.880874112</ele>
        <time>2015-06-06T08:32:39Z</time>
      </trkpt>
      <trkpt lat="45.41267" lon="5.92564">
        <ele>1787.880874112</ele>
        <time>2015-06-06T08:32:44Z</time>
      </trkpt>
      <trkpt lat="45.41262" lon="5.92565">
        <ele>1787.880874112</ele>
        <time>2015-06-06T08:32:49Z</time>
      </trkpt>
      <trkpt lat="45.41255" lon="5.92565">
        <ele>1789.158869392</ele>
        <time>2015-06-06T08:32:54Z</time>
      </trkpt>
      <trkpt lat="45.41248" lon="5.92564">
        <ele>1789.158869392</ele>
        <time>2015-06-06T08:32:59Z</time>
      </trkpt>
      <trkpt lat="45.41244" lon="5.92563">
        <ele>1790.22729921</ele>
        <time>2015-06-06T08:33:04Z</time>
      </trkpt>
      <trkpt lat="45.41237" lon="5.92563">
        <ele>1790.22729921</ele>
        <time>2015-06-06T08:33:09Z</time>
      </trkpt>
      <trkpt lat="45.41233" lon="5.92566">
        <ele>1791.82420908</ele>
        <time>2015-06-06T08:33:14Z</time>
      </trkpt>
      <trkpt lat="45.41232" lon="5.9257">
        <ele>1791.82420908</ele>
        <time>2015-06-06T08:33:19Z</time>
      </trkpt>
      <trkpt lat="45.41228" lon="5.92572">
        <ele>1791.82420908</ele>
        <time>2015-06-06T08:33:24Z</time>
      </trkpt>
      <trkpt lat="45.41223" lon="5.92574">
        <ele>1793.479014162</ele>
        <time>2015-06-06T08:33:29Z</time>
      </trkpt>
      <trkpt lat="45.4122" lon="5.92575">
        <ele>1793.479014162</ele>
        <time>2015-06-06T08:33:34Z</time>
      </trkpt>
      <trkpt lat="45.41213" lon="5.92578">
        <ele>1795.620162015</ele>
        <time>2015-06-06T08:33:39Z</time>
      </trkpt>
      <trkpt lat="45.4121" lon="5.92579">
        <ele>1795.620162015</ele>
        <time>2015-06-06T08:33:44Z</time>
      </trkpt>
      <trkpt lat="45.41205" lon="5.92583">
        <ele>1798.355002595</ele>
        <time>2015-06-06T08:33:49Z</time>
      </trkpt>
      <trkpt lat="45.412" lon="5.92585">
        <ele>1798.355002595</ele>
        <time>2015-06-06T08:33:54Z</time>
      </trkpt>
      <trkpt lat="45.41196" lon="5.92589">
        <ele>1800.916635884</ele>
        <time>2015-06-06T08:33:59Z</time>
      </trkpt>
      <trkpt lat="45.41196" lon="5.9259">
        <ele>1800.916635884</ele>
        <time>2015-06-06T08:34:04Z</time>
      </trkpt>
      <trkpt lat="45.41196" lon="5.92589">
        <ele>1800.916635884</ele>
        <time>2015-06-06T08:34:08Z</time>
      </trkpt>
      <trkpt lat="45.41192" lon="5.9259">
        <ele>1800.916635884</ele>
        <time>2015-06-06T08:34:14Z</time>
      </trkpt>
      <trkpt lat="45.41187" lon="5.92593">
        <ele>1803.315515201</ele>
        <time>2015-06-06T08:34:18Z</time>
      </trkpt>
      <trkpt lat="45.41181" lon="5.92594">
        <ele>1803.315515201</ele>
        <time>2015-06-06T08:34:24Z</time>
      </trkpt>
      <trkpt lat="45.41175" lon="5.92598">
        <ele>1805.56176587</ele>
        <time>2015-06-06T08:34:29Z</time>
      </trkpt>
      <trkpt lat="45.41174" lon="5.926">
        <ele>1805.56176587</ele>
        <time>2015-06-06T08:34:34Z</time>
      </trkpt>
      <trkpt lat="45.41169" lon="5.92601">
        <ele>1805.56176587</ele>
        <time>2015-06-06T08:34:39Z</time>
      </trkpt>
      <trkpt lat="45.41164" lon="5.92603">
        <ele>1807.665187782</ele>
        <time>2015-06-06T08:34:44Z</time>
      </trkpt>
      <trkpt lat="45.41159" lon="5.92608">
        <ele>1807.665187782</ele>
        <time>2015-06-06T08:34:49Z</time>
      </trkpt>
      <trkpt lat="45.41156" lon="5.92611">
        <ele>1809.058811218</ele>
        <time>2015-06-06T08:34:54Z</time>
      </trkpt>
      <trkpt lat="45.41151" lon="5.92611">
        <ele>1809.058811218</ele>
        <time>2015-06-06T08:34:59Z</time>
      </trkpt>
      <trkpt lat="45.41147" lon="5.92612">
        <ele>1811.092749489</ele>
        <time>2015-06-06T08:35:04Z</time>
      </trkpt>
      <trkpt lat="45.41143" lon="5.92613">
        <ele>1811.092749489</ele>
        <time>2015-06-06T08:35:09Z</time>
      </trkpt>
      <trkpt lat="45.41139" lon="5.92614">
        <ele>1811.092749489</ele>
        <time>2015-06-06T08:35:14Z</time>
      </trkpt>
      <trkpt lat="45.41135" lon="5.92613">
        <ele>1813.28680659</ele>
        <time>2015-06-06T08:35:19Z</time>
      </trkpt>
      <trkpt lat="45.4113" lon="5.9261">
        <ele>1813.28680659</ele>
        <time>2015-06-06T08:35:24Z</time>
      </trkpt>
      <trkpt lat="45.41127" lon="5.9261">
        <ele>1814.907390256</ele>
        <time>2015-06-06T08:35:29Z</time>
      </trkpt>
      <trkpt lat="45.41123" lon="5.92608">
        <ele>1814.907390256</ele>
        <time>2015-06-06T08:35:34Z</time>
      </trkpt>
      <trkpt lat="45.41117" lon="5.92604">
        <ele>1816.717519232</ele>
        <time>2015-06-06T08:35:39Z</time>
      </trkpt>
      <trkpt lat="45.41115" lon="5.926">
        <ele>1816.717519232</ele>
        <time>2015-06-06T08:35:44Z</time>
      </trkpt>
      <trkpt lat="45.41109" lon="5.92598">
        <ele>1818.27074234</ele>
        <time>2015-06-06T08:35:49Z</time>
      </trkpt>
      <trkpt lat="45.41106" lon="5.92598">
        <ele>1818.27074234</ele>
        <time>2015-06-06T08:35:54Z</time>
      </trkpt>
      <trkpt lat="45.41099" lon="5.92596">
        <ele>1820.018794309</ele>
        <time>2015-06-06T08:35:59Z</time>
      </trkpt>
      <trkpt lat="45.41096" lon="5.92593">
        <ele>1820.018794309</ele>
        <time>2015-06-06T08:36:04Z</time>
      </trkpt>
      <trkpt lat="45.41094" lon="5.92592">
        <ele>1820.018794309</ele>
        <time>2015-06-06T08:36:09Z</time>
      </trkpt>
      <trkpt lat="45.41093" lon="5.92592">
        <ele>1820.018794309</ele>
        <time>2015-06-06T08:36:14Z</time>
      </trkpt>
      <trkpt lat="45.41092" lon="5.9259">
        <ele>1820.018794309</ele>
        <time>2015-06-06T08:36:19Z</time>
      </trkpt>
      <trkpt lat="45.41091" lon="5.92594">
        <ele>1821.94734757</ele>
        <time>2015-06-06T08:36:24Z</time>
      </trkpt>
      <trkpt lat="45.41091" lon="5.92595">
        <ele>1821.94734757</ele>
        <time>2015-06-06T08:36:29Z</time>
      </trkpt>
      <trkpt lat="45.41091" lon="5.92593">
        <ele>1821.94734757</ele>
        <time>2015-06-06T08:36:34Z</time>
      </trkpt>
      <trkpt lat="45.41094" lon="5.92584">
        <ele>1821.94734757</ele>
        <time>2015-06-06T08:36:39Z</time>
      </trkpt>
      <trkpt lat="45.41096" lon="5.9258">
        <ele>1823.898511635</ele>
        <time>2015-06-06T08:36:44Z</time>
      </trkpt>
      <trkpt lat="45.41097" lon="5.92573">
        <ele>1823.898511635</ele>
        <time>2015-06-06T08:36:49Z</time>
      </trkpt>
      <trkpt lat="45.41096" lon="5.92567">
        <ele>1825.870045057</ele>
        <time>2015-06-06T08:36:54Z</time>
      </trkpt>
      <trkpt lat="45.41094" lon="5.92556">
        <ele>1825.870045057</ele>
        <time>2015-06-06T08:36:59Z</time>
      </trkpt>
      <trkpt lat="45.41093" lon="5.92546">
        <ele>1827.715706563</ele>
        <time>2015-06-06T08:37:04Z</time>
      </trkpt>
      <trkpt lat="45.41096" lon="5.92541">
        <ele>1827.715706563</ele>
        <time>2015-06-06T08:37:09Z</time>
      </trkpt>
      <trkpt lat="45.41098" lon="5.92534">
        <ele>1829.300355303</ele>
        <time>2015-06-06T08:37:13Z</time>
      </trkpt>
      <trkpt lat="45.411" lon="5.92524">
        <ele>1829.300355303</ele>
        <time>2015-06-06T08:37:18Z</time>
      </trkpt>
      <trkpt lat="45.41107" lon="5.92517">
        <ele>1830.931848188</ele>
        <time>2015-06-06T08:37:25Z</time>
      </trkpt>
      <trkpt lat="45.41109" lon="5.9251">
        <ele>1830.931848188</ele>
        <time>2015-06-06T08:37:29Z</time>
      </trkpt>
      <trkpt lat="45.41108" lon="5.92507">
        <ele>1830.931848188</ele>
        <time>2015-06-06T08:37:34Z</time>
      </trkpt>
      <trkpt lat="45.41109" lon="5.92504">
        <ele>1832.462966173</ele>
        <time>2015-06-06T08:37:39Z</time>
      </trkpt>
      <trkpt lat="45.41111" lon="5.92497">
        <ele>1832.462966173</ele>
        <time>2015-06-06T08:37:44Z</time>
      </trkpt>
      <trkpt lat="45.4111" lon="5.92489">
        <ele>1833.469365695</ele>
        <time>2015-06-06T08:37:49Z</time>
      </trkpt>
      <trkpt lat="45.41109" lon="5.92481">
        <ele>1833.469365695</ele>
        <time>2015-06-06T08:37:54Z</time>
      </trkpt>
      <trkpt lat="45.4111" lon="5.92472">
        <ele>1834.856346648</ele>
        <time>2015-06-06T08:37:59Z</time>
      </trkpt>
      <trkpt lat="45.4111" lon="5.92471">
        <ele>1834.856346648</ele>
        <time>2015-06-06T08:38:04Z</time>
      </trkpt>
      <trkpt lat="45.41111" lon="5.92471">
        <ele>1834.856346648</ele>
        <time>2015-06-06T08:38:09Z</time>
      </trkpt>
      <trkpt lat="45.41112" lon="5.92471">
        <ele>1834.856346648</ele>
        <time>2015-06-06T08:38:14Z</time>
      </trkpt>
      <trkpt lat="45.41112" lon="5.92471">
        <ele>1834.856346648</ele>
        <time>2015-06-06T08:38:19Z</time>
      </trkpt>
      <trkpt lat="45.41112" lon="5.92471">
        <ele>1834.856346648</ele>
        <time>2015-06-06T08:38:24Z</time>
      </trkpt>
      <trkpt lat="45.41112" lon="5.92471">
        <ele>1834.856346648</ele>
        <time>2015-06-06T08:38:28Z</time>
      </trkpt>
      <trkpt lat="45.41112" lon="5.92471">
        <ele>1834.856346648</ele>
        <time>2015-06-06T08:38:33Z</time>
      </trkpt>
      <trkpt lat="45.41112" lon="5.92471">
        <ele>1834.856346648</ele>
        <time>2015-06-06T08:38:39Z</time>
      </trkpt>
      <trkpt lat="45.41112" lon="5.92471">
        <ele>1834.856346648</ele>
        <time>2015-06-06T08:38:44Z</time>
      </trkpt>
      <trkpt lat="45.41112" lon="5.92471">
        <ele>1834.856346648</ele>
        <time>2015-06-06T08:38:49Z</time>
      </trkpt>
      <trkpt lat="45.41112" lon="5.92471">
        <ele>1834.856346648</ele>
        <time>2015-06-06T08:38:54Z</time>
      </trkpt>
      <trkpt lat="45.41112" lon="5.92471">
        <ele>1834.856346648</ele>
        <time>2015-06-06T08:38:59Z</time>
      </trkpt>
      <trkpt lat="45.41112" lon="5.92471">
        <ele>1834.856346648</ele>
        <time>2015-06-06T08:39:04Z</time>
      </trkpt>
      <trkpt lat="45.41112" lon="5.92471">
        <ele>1834.856346648</ele>
        <time>2015-06-06T08:39:09Z</time>
      </trkpt>
      <trkpt lat="45.41112" lon="5.92471">
        <ele>1834.856346648</ele>
        <time>2015-06-06T08:39:14Z</time>
      </trkpt>
      <trkpt lat="45.41112" lon="5.92471">
        <ele>1834.856346648</ele>
        <time>2015-06-06T08:39:19Z</time>
      </trkpt>
      <trkpt lat="45.41112" lon="5.92471">
        <ele>1834.856346648</ele>
        <time>2015-06-06T08:39:24Z</time>
      </trkpt>
      <trkpt lat="45.41113" lon="5.92471">
        <ele>1834.856346648</ele>
        <time>2015-06-06T08:39:29Z</time>
      </trkpt>
      <trkpt lat="45.41113" lon="5.92471">
        <ele>1834.856346648</ele>
        <time>2015-06-06T08:39:34Z</time>
      </trkpt>
      <trkpt lat="45.41113" lon="5.92471">
        <ele>1834.856346648</ele>
        <time>2015-06-06T08:39:39Z</time>
      </trkpt>
      <trkpt lat="45.41113" lon="5.92471">
        <ele>1834.856346648</ele>
        <time>2015-06-06T08:39:44Z</time>
      </trkpt>
      <trkpt lat="45.41114" lon="5.92471">
        <ele>1834.856346648</ele>
        <time>2015-06-06T08:39:49Z</time>
      </trkpt>
      <trkpt lat="45.41114" lon="5.92471">
        <ele>1834.856346648</ele>
        <time>2015-06-06T08:39:54Z</time>
      </trkpt>
      <trkpt lat="45.41115" lon="5.9247">
        <ele>1834.856346648</ele>
        <time>2015-06-06T08:39:59Z</time>
      </trkpt>
      <trkpt lat="45.41115" lon="5.9247">
        <ele>1834.856346648</ele>
        <time>2015-06-06T08:40:04Z</time>
      </trkpt>
      <trkpt lat="45.41115" lon="5.9247">
        <ele>1835.299965118</ele>
        <time>2015-06-06T08:40:09Z</time>
      </trkpt>
      <trkpt lat="45.41115" lon="5.9247">
        <ele>1835.299965118</ele>
        <time>2015-06-06T08:40:14Z</time>
      </trkpt>
      <trkpt lat="45.41115" lon="5.9247">
        <ele>1835.299965118</ele>
        <time>2015-06-06T08:40:18Z</time>
      </trkpt>
      <trkpt lat="45.41115" lon="5.9247">
        <ele>1835.299965118</ele>
        <time>2015-06-06T08:40:24Z</time>
      </trkpt>
      <trkpt lat="45.41115" lon="5.9247">
        <ele>1835.299965118</ele>
        <time>2015-06-06T08:40:29Z</time>
      </trkpt>
      <trkpt lat="45.41115" lon="5.9247">
        <ele>1835.299965118</ele>
        <time>2015-06-06T08:40:33Z</time>
      </trkpt>
      <trkpt lat="45.41116" lon="5.9247">
        <ele>1835.299965118</ele>
        <time>2015-06-06T08:40:39Z</time>
      </trkpt>
      <trkpt lat="45.41116" lon="5.92469">
        <ele>1835.299965118</ele>
        <time>2015-06-06T08:40:44Z</time>
      </trkpt>
      <trkpt lat="45.41115" lon="5.92469">
        <ele>1835.299965118</ele>
        <time>2015-06-06T08:40:49Z</time>
      </trkpt>
      <trkpt lat="45.41119" lon="5.9247">
        <ele>1835.299965118</ele>
        <time>2015-06-06T08:40:54Z</time>
      </trkpt>
      <trkpt lat="45.41118" lon="5.92469">
        <ele>1835.299965118</ele>
        <time>2015-06-06T08:40:59Z</time>
      </trkpt>
      <trkpt lat="45.41119" lon="5.92467">
        <ele>1835.299965118</ele>
        <time>2015-06-06T08:41:04Z</time>
      </trkpt>
      <trkpt lat="45.41118" lon="5.92466">
        <ele>1835.30550102</ele>
        <time>2015-06-06T08:41:09Z</time>
      </trkpt>
      <trkpt lat="45.41117" lon="5.92467">
        <ele>1835.30550102</ele>
        <time>2015-06-06T08:41:14Z</time>
      </trkpt>
      <trkpt lat="45.41114" lon="5.92464">
        <ele>1835.30550102</ele>
        <time>2015-06-06T08:41:19Z</time>
      </trkpt>
      <trkpt lat="45.41108" lon="5.92453">
        <ele>1834.621767131</ele>
        <time>2015-06-06T08:41:24Z</time>
      </trkpt>
      <trkpt lat="45.41104" lon="5.92448">
        <ele>1834.621767131</ele>
        <time>2015-06-06T08:41:29Z</time>
      </trkpt>
      <trkpt lat="45.41097" lon="5.92448">
        <ele>1834.459039446</ele>
        <time>2015-06-06T08:41:34Z</time>
      </trkpt>
      <trkpt lat="45.41093" lon="5.92445">
        <ele>1834.459039446</ele>
        <time>2015-06-06T08:41:39Z</time>
      </trkpt>
      <trkpt lat="45.41086" lon="5.92437">
        <ele>1833.919621794</ele>
        <time>2015-06-06T08:41:44Z</time>
      </trkpt>
      <trkpt lat="45.41083" lon="5.92439">
        <ele>1833.919621794</ele>
        <time>2015-06-06T08:41:49Z</time>
      </trkpt>
      <trkpt lat="45.4108" lon="5.92432">
        <ele>1833.469757347</ele>
        <time>2015-06-06T08:41:54Z</time>
      </trkpt>
      <trkpt lat="45.41076" lon="5.92424">
        <ele>1833.469757347</ele>
        <time>2015-06-06T08:41:59Z</time>
      </trkpt>
      <trkpt lat="45.41076" lon="5.92418">
        <ele>1833.685225007</ele>
        <time>2015-06-06T08:42:04Z</time>
      </trkpt>
      <trkpt lat="45.41074" lon="5.92414">
        <ele>1833.685225007</ele>
        <time>2015-06-06T08:42:09Z</time>
      </trkpt>
      <trkpt lat="45.41072" lon="5.92404">
        <ele>1833.5123331</ele>
        <time>2015-06-06T08:42:14Z</time>
      </trkpt>
      <trkpt lat="45.41066" lon="5.92399">
        <ele>1833.5123331</ele>
        <time>2015-06-06T08:42:19Z</time>
      </trkpt>
      <trkpt lat="45.41062" lon="5.92399">
        <ele>1833.272789397</ele>
        <time>2015-06-06T08:42:24Z</time>
      </trkpt>
      <trkpt lat="45.41055" lon="5.92402">
        <ele>1833.272789397</ele>
        <time>2015-06-06T08:42:28Z</time>
      </trkpt>
      <trkpt lat="45.41051" lon="5.92408">
        <ele>1832.97653203</ele>
        <time>2015-06-06T08:42:34Z</time>
      </trkpt>
      <trkpt lat="45.41045" lon="5.92416">
        <ele>1832.97653203</ele>
        <time>2015-06-06T08:42:39Z</time>
      </trkpt>
      <trkpt lat="45.41039" lon="5.9242">
        <ele>1832.488707944</ele>
        <time>2015-06-06T08:42:44Z</time>
      </trkpt>
      <trkpt lat="45.41036" lon="5.92427">
        <ele>1832.488707944</ele>
        <time>2015-06-06T08:42:49Z</time>
      </trkpt>
      <trkpt lat="45.4103" lon="5.92428">
        <ele>1832.261236359</ele>
        <time>2015-06-06T08:42:54Z</time>
      </trkpt>
      <trkpt lat="45.41024" lon="5.92432">
        <ele>1832.261236359</ele>
        <time>2015-06-06T08:42:59Z</time>
      </trkpt>
      <trkpt lat="45.41021" lon="5.92436">
        <ele>1831.703207333</ele>
        <time>2015-06-06T08:43:04Z</time>
      </trkpt>
      <trkpt lat="45.41016" lon="5.9244">
        <ele>1831.703207333</ele>
        <time>2015-06-06T08:43:09Z</time>
      </trkpt>
      <trkpt lat="45.4101" lon="5.92442">
        <ele>1831.420806672</ele>
        <time>2015-06-06T08:43:14Z</time>
      </trkpt>
      <trkpt lat="45.41003" lon="5.92445">
        <ele>1831.420806672</ele>
        <time>2015-06-06T08:43:19Z</time>
      </trkpt>
      <trkpt lat="45.40998" lon="5.92442">
        <ele>1831.254227395</ele>
        <time>2015-06-06T08:43:24Z</time>
      </trkpt>
      <trkpt lat="45.40997" lon="5.92431">
        <ele>1831.254227395</ele>
        <time>2015-06-06T08:43:29Z</time>
      </trkpt>
      <trkpt lat="45.40996" lon="5.92432">
        <ele>1831.487273744</ele>
        <time>2015-06-06T08:43:34Z</time>
      </trkpt>
      <trkpt lat="45.40995" lon="5.92434">
        <ele>1831.487273744</ele>
        <time>2015-06-06T08:43:39Z</time>
      </trkpt>
      <trkpt lat="45.40995" lon="5.92435">
        <ele>1831.487273744</ele>
        <time>2015-06-06T08:43:44Z</time>
      </trkpt>
      <trkpt lat="45.40995" lon="5.92436">
        <ele>1831.487273744</ele>
        <time>2015-06-06T08:43:48Z</time>
      </trkpt>
      <trkpt lat="45.40995" lon="5.92436">
        <ele>1831.487273744</ele>
        <time>2015-06-06T08:43:54Z</time>
      </trkpt>
      <trkpt lat="45.41" lon="5.92433">
        <ele>1831.487273744</ele>
        <time>2015-06-06T08:43:58Z</time>
      </trkpt>
      <trkpt lat="45.41008" lon="5.92429">
        <ele>1831.805198109</ele>
        <time>2015-06-06T08:44:03Z</time>
      </trkpt>
      <trkpt lat="45.4101" lon="5.92421">
        <ele>1831.805198109</ele>
        <time>2015-06-06T08:44:09Z</time>
      </trkpt>
      <trkpt lat="45.41019" lon="5.92417">
        <ele>1831.915998283</ele>
        <time>2015-06-06T08:44:14Z</time>
      </trkpt>
      <trkpt lat="45.41021" lon="5.92413">
        <ele>1831.915998283</ele>
        <time>2015-06-06T08:44:20Z</time>
      </trkpt>
      <trkpt lat="45.41021" lon="5.92403">
        <ele>1831.117232269</ele>
        <time>2015-06-06T08:44:24Z</time>
      </trkpt>
      <trkpt lat="45.4102" lon="5.92394">
        <ele>1831.117232269</ele>
        <time>2015-06-06T08:44:30Z</time>
      </trkpt>
      <trkpt lat="45.4102" lon="5.92387">
        <ele>1830.489806803</ele>
        <time>2015-06-06T08:44:34Z</time>
      </trkpt>
      <trkpt lat="45.4102" lon="5.92378">
        <ele>1830.489806803</ele>
        <time>2015-06-06T08:44:39Z</time>
      </trkpt>
      <trkpt lat="45.41019" lon="5.92369">
        <ele>1830.025827754</ele>
        <time>2015-06-06T08:44:45Z</time>
      </trkpt>
      <trkpt lat="45.41018" lon="5.92363">
        <ele>1830.025827754</ele>
        <time>2015-06-06T08:44:49Z</time>
      </trkpt>
      <trkpt lat="45.4102" lon="5.92357">
        <ele>1830.005603794</ele>
        <time>2015-06-06T08:44:54Z</time>
      </trkpt>
      <trkpt lat="45.41019" lon="5.92349">
        <ele>1830.005603794</ele>
        <time>2015-06-06T08:44:59Z</time>
      </trkpt>
      <trkpt lat="45.41021" lon="5.92342">
        <ele>1829.53457534</ele>
        <time>2015-06-06T08:45:04Z</time>
      </trkpt>
      <trkpt lat="45.41019" lon="5.92335">
        <ele>1829.53457534</ele>
        <time>2015-06-06T08:45:09Z</time>
      </trkpt>
      <trkpt lat="45.41015" lon="5.92329">
        <ele>1829.08201865</ele>
        <time>2015-06-06T08:45:14Z</time>
      </trkpt>
      <trkpt lat="45.4101" lon="5.92325">
        <ele>1829.08201865</ele>
        <time>2015-06-06T08:45:19Z</time>
      </trkpt>
      <trkpt lat="45.41005" lon="5.9232">
        <ele>1828.361986284</ele>
        <time>2015-06-06T08:45:24Z</time>
      </trkpt>
      <trkpt lat="45.41001" lon="5.92315">
        <ele>1828.361986284</ele>
        <time>2015-06-06T08:45:30Z</time>
      </trkpt>
      <trkpt lat="45.40997" lon="5.92311">
        <ele>1827.686587806</ele>
        <time>2015-06-06T08:45:34Z</time>
      </trkpt>
      <trkpt lat="45.40995" lon="5.92305">
        <ele>1827.686587806</ele>
        <time>2015-06-06T08:45:39Z</time>
      </trkpt>
      <trkpt lat="45.40994" lon="5.92306">
        <ele>1827.686587806</ele>
        <time>2015-06-06T08:45:43Z</time>
      </trkpt>
      <trkpt lat="45.40993" lon="5.92307">
        <ele>1827.686587806</ele>
        <time>2015-06-06T08:45:48Z</time>
      </trkpt>
      <trkpt lat="45.40992" lon="5.92308">
        <ele>1827.686587806</ele>
        <time>2015-06-06T08:45:53Z</time>
      </trkpt>
      <trkpt lat="45.40992" lon="5.92308">
        <ele>1827.686587806</ele>
        <time>2015-06-06T08:45:58Z</time>
      </trkpt>
      <trkpt lat="45.40992" lon="5.92308">
        <ele>1827.686587806</ele>
        <time>2015-06-06T08:46:03Z</time>
      </trkpt>
      <trkpt lat="45.40991" lon="5.92307">
        <ele>1827.056513508</ele>
        <time>2015-06-06T08:46:09Z</time>
      </trkpt>
      <trkpt lat="45.40987" lon="5.92304">
        <ele>1827.056513508</ele>
        <time>2015-06-06T08:46:14Z</time>
      </trkpt>
      <trkpt lat="45.40982" lon="5.92299">
        <ele>1826.472130915</ele>
        <time>2015-06-06T08:46:19Z</time>
      </trkpt>
      <trkpt lat="45.40979" lon="5.92299">
        <ele>1826.472130915</ele>
        <time>2015-06-06T08:46:23Z</time>
      </trkpt>
      <trkpt lat="45.40979" lon="5.92298">
        <ele>1826.472130915</ele>
        <time>2015-06-06T08:46:29Z</time>
      </trkpt>
      <trkpt lat="45.40973" lon="5.92295">
        <ele>1826.65406442</ele>
        <time>2015-06-06T08:46:34Z</time>
      </trkpt>
      <trkpt lat="45.40967" lon="5.92295">
        <ele>1826.65406442</ele>
        <time>2015-06-06T08:46:39Z</time>
      </trkpt>
      <trkpt lat="45.40962" lon="5.92293">
        <ele>1826.970710721</ele>
        <time>2015-06-06T08:46:44Z</time>
      </trkpt>
      <trkpt lat="45.40954" lon="5.92294">
        <ele>1826.970710721</ele>
        <time>2015-06-06T08:46:49Z</time>
      </trkpt>
      <trkpt lat="45.4095" lon="5.92293">
        <ele>1827.701017813</ele>
        <time>2015-06-06T08:46:54Z</time>
      </trkpt>
      <trkpt lat="45.40944" lon="5.92291">
        <ele>1827.701017813</ele>
        <time>2015-06-06T08:46:59Z</time>
      </trkpt>
      <trkpt lat="45.4094" lon="5.92291">
        <ele>1828.093376333</ele>
        <time>2015-06-06T08:47:03Z</time>
      </trkpt>
      <trkpt lat="45.40934" lon="5.92291">
        <ele>1828.093376333</ele>
        <time>2015-06-06T08:47:08Z</time>
      </trkpt>
      <trkpt lat="45.40929" lon="5.92288">
        <ele>1828.31688618</ele>
        <time>2015-06-06T08:47:13Z</time>
      </trkpt>
      <trkpt lat="45.40921" lon="5.9229">
        <ele>1828.31688618</ele>
        <time>2015-06-06T08:47:20Z</time>
      </trkpt>
      <trkpt lat="45.40919" lon="5.92292">
        <ele>1828.384477535</ele>
        <time>2015-06-06T08:47:24Z</time>
      </trkpt>
      <trkpt lat="45.40917" lon="5.92289">
        <ele>1828.384477535</ele>
        <time>2015-06-06T08:47:29Z</time>
      </trkpt>
      <trkpt lat="45.40911" lon="5.92288">
        <ele>1828.884910669</ele>
        <time>2015-06-06T08:47:34Z</time>
      </trkpt>
      <trkpt lat="45.40904" lon="5.92285">
        <ele>1828.884910669</ele>
        <time>2015-06-06T08:47:39Z</time>
      </trkpt>
      <trkpt lat="45.409" lon="5.92284">
        <ele>1829.641831367</ele>
        <time>2015-06-06T08:47:44Z</time>
      </trkpt>
      <trkpt lat="45.40898" lon="5.92286">
        <ele>1829.641831367</ele>
        <time>2015-06-06T08:47:50Z</time>
      </trkpt>
      <trkpt lat="45.40897" lon="5.92288">
        <ele>1829.641831367</ele>
        <time>2015-06-06T08:47:54Z</time>
      </trkpt>
      <trkpt lat="45.40892" lon="5.92287">
        <ele>1829.641831367</ele>
        <time>2015-06-06T08:48:00Z</time>
      </trkpt>
      <trkpt lat="45.40889" lon="5.92285">
        <ele>1828.761697608</ele>
        <time>2015-06-06T08:48:04Z</time>
      </trkpt>
      <trkpt lat="45.40887" lon="5.92288">
        <ele>1828.761697608</ele>
        <time>2015-06-06T08:48:10Z</time>
      </trkpt>
      <trkpt lat="45.40887" lon="5.92287">
        <ele>1828.761697608</ele>
        <time>2015-06-06T08:48:14Z</time>
      </trkpt>
      <trkpt lat="45.40889" lon="5.92283">
        <ele>1828.761697608</ele>
        <time>2015-06-06T08:48:19Z</time>
      </trkpt>
      <trkpt lat="45.40891" lon="5.9228">
        <ele>1827.665018504</ele>
        <time>2015-06-06T08:48:24Z</time>
      </trkpt>
      <trkpt lat="45.40893" lon="5.92274">
        <ele>1827.665018504</ele>
        <time>2015-06-06T08:48:30Z</time>
      </trkpt>
      <trkpt lat="45.40894" lon="5.92267">
        <ele>1826.515587169</ele>
        <time>2015-06-06T08:48:34Z</time>
      </trkpt>
      <trkpt lat="45.40894" lon="5.92266">
        <ele>1826.515587169</ele>
        <time>2015-06-06T08:48:39Z</time>
      </trkpt>
      <trkpt lat="45.40892" lon="5.92263">
        <ele>1826.515587169</ele>
        <time>2015-06-06T08:48:44Z</time>
      </trkpt>
      <trkpt lat="45.40888" lon="5.92262">
        <ele>1826.515587169</ele>
        <time>2015-06-06T08:48:50Z</time>
      </trkpt>
      <trkpt lat="45.40885" lon="5.92256">
        <ele>1825.177003315</ele>
        <time>2015-06-06T08:48:54Z</time>
      </trkpt>
      <trkpt lat="45.40881" lon="5.92256">
        <ele>1825.177003315</ele>
        <time>2015-06-06T08:49:00Z</time>
      </trkpt>
      <trkpt lat="45.40878" lon="5.92256">
        <ele>1825.177003315</ele>
        <time>2015-06-06T08:49:04Z</time>
      </trkpt>
      <trkpt lat="45.40879" lon="5.92253">
        <ele>1823.955658869</ele>
        <time>2015-06-06T08:49:10Z</time>
      </trkpt>
      <trkpt lat="45.40875" lon="5.9225">
        <ele>1823.955658869</ele>
        <time>2015-06-06T08:49:14Z</time>
      </trkpt>
      <trkpt lat="45.40873" lon="5.92251">
        <ele>1823.955658869</ele>
        <time>2015-06-06T08:49:19Z</time>
      </trkpt>
      <trkpt lat="45.40873" lon="5.92251">
        <ele>1823.955658869</ele>
        <time>2015-06-06T08:49:25Z</time>
      </trkpt>
      <trkpt lat="45.40873" lon="5.92251">
        <ele>1823.955658869</ele>
        <time>2015-06-06T08:49:29Z</time>
      </trkpt>
      <trkpt lat="45.40873" lon="5.92252">
        <ele>1823.955658869</ele>
        <time>2015-06-06T08:49:34Z</time>
      </trkpt>
      <trkpt lat="45.40873" lon="5.92252">
        <ele>1823.955658869</ele>
        <time>2015-06-06T08:49:39Z</time>
      </trkpt>
      <trkpt lat="45.40873" lon="5.92252">
        <ele>1823.955658869</ele>
        <time>2015-06-06T08:49:44Z</time>
      </trkpt>
      <trkpt lat="45.40873" lon="5.92252">
        <ele>1823.955658869</ele>
        <time>2015-06-06T08:49:50Z</time>
      </trkpt>
      <trkpt lat="45.40873" lon="5.92252">
        <ele>1823.955658869</ele>
        <time>2015-06-06T08:49:54Z</time>
      </trkpt>
      <trkpt lat="45.4087" lon="5.92247">
        <ele>1822.270345028</ele>
        <time>2015-06-06T08:49:59Z</time>
      </trkpt>
      <trkpt lat="45.40865" lon="5.92246">
        <ele>1822.270345028</ele>
        <time>2015-06-06T08:50:04Z</time>
      </trkpt>
      <trkpt lat="45.40863" lon="5.92245">
        <ele>1822.270345028</ele>
        <time>2015-06-06T08:50:10Z</time>
      </trkpt>
      <trkpt lat="45.40862" lon="5.92244">
        <ele>1822.270345028</ele>
        <time>2015-06-06T08:50:14Z</time>
      </trkpt>
      <trkpt lat="45.40862" lon="5.92244">
        <ele>1822.270345028</ele>
        <time>2015-06-06T08:50:18Z</time>
      </trkpt>
      <trkpt lat="45.40862" lon="5.92244">
        <ele>1822.270345028</ele>
        <time>2015-06-06T08:50:24Z</time>
      </trkpt>
      <trkpt lat="45.40862" lon="5.92244">
        <ele>1822.270345028</ele>
        <time>2015-06-06T08:50:29Z</time>
      </trkpt>
      <trkpt lat="45.40859" lon="5.9224">
        <ele>1820.592524743</ele>
        <time>2015-06-06T08:50:33Z</time>
      </trkpt>
      <trkpt lat="45.40855" lon="5.9224">
        <ele>1820.592524743</ele>
        <time>2015-06-06T08:50:38Z</time>
      </trkpt>
      <trkpt lat="45.40852" lon="5.92245">
        <ele>1820.592524743</ele>
        <time>2015-06-06T08:50:44Z</time>
      </trkpt>
      <trkpt lat="45.40848" lon="5.92238">
        <ele>1819.935343776</ele>
        <time>2015-06-06T08:50:50Z</time>
      </trkpt>
      <trkpt lat="45.40846" lon="5.92236">
        <ele>1819.935343776</ele>
        <time>2015-06-06T08:50:54Z</time>
      </trkpt>
      <trkpt lat="45.40844" lon="5.92232">
        <ele>1819.935343776</ele>
        <time>2015-06-06T08:51:00Z</time>
      </trkpt>
      <trkpt lat="45.4084" lon="5.92232">
        <ele>1819.505215615</ele>
        <time>2015-06-06T08:51:04Z</time>
      </trkpt>
      <trkpt lat="45.40837" lon="5.92232">
        <ele>1819.505215615</ele>
        <time>2015-06-06T08:51:10Z</time>
      </trkpt>
      <trkpt lat="45.40833" lon="5.92224">
        <ele>1818.71021351</ele>
        <time>2015-06-06T08:51:14Z</time>
      </trkpt>
      <trkpt lat="45.40827" lon="5.92221">
        <ele>1818.71021351</ele>
        <time>2015-06-06T08:51:20Z</time>
      </trkpt>
      <trkpt lat="45.40824" lon="5.92221">
        <ele>1818.443920169</ele>
        <time>2015-06-06T08:51:24Z</time>
      </trkpt>
      <trkpt lat="45.40824" lon="5.92222">
        <ele>1818.443920169</ele>
        <time>2015-06-06T08:51:30Z</time>
      </trkpt>
      <trkpt lat="45.40824" lon="5.92222">
        <ele>1818.443920169</ele>
        <time>2015-06-06T08:51:34Z</time>
      </trkpt>
      <trkpt lat="45.40824" lon="5.92222">
        <ele>1818.443920169</ele>
        <time>2015-06-06T08:51:39Z</time>
      </trkpt>
      <trkpt lat="45.40824" lon="5.9222">
        <ele>1818.443920169</ele>
        <time>2015-06-06T08:51:43Z</time>
      </trkpt>
      <trkpt lat="45.40824" lon="5.92218">
        <ele>1818.443920169</ele>
        <time>2015-06-06T08:51:48Z</time>
      </trkpt>
      <trkpt lat="45.4082" lon="5.92217">
        <ele>1818.443920169</ele>
        <time>2015-06-06T08:51:54Z</time>
      </trkpt>
      <trkpt lat="45.40816" lon="5.92213">
        <ele>1817.371020195</ele>
        <time>2015-06-06T08:52:00Z</time>
      </trkpt>
      <trkpt lat="45.40812" lon="5.92216">
        <ele>1817.371020195</ele>
        <time>2015-06-06T08:52:04Z</time>
      </trkpt>
      <trkpt lat="45.40806" lon="5.92216">
        <ele>1816.418117479</ele>
        <time>2015-06-06T08:52:10Z</time>
      </trkpt>
      <trkpt lat="45.40805" lon="5.92221">
        <ele>1816.418117479</ele>
        <time>2015-06-06T08:52:14Z</time>
      </trkpt>
      <trkpt lat="45.40803" lon="5.92219">
        <ele>1816.418117479</ele>
        <time>2015-06-06T08:52:19Z</time>
      </trkpt>
      <trkpt lat="45.40802" lon="5.9222">
        <ele>1816.418117479</ele>
        <time>2015-06-06T08:52:25Z</time>
      </trkpt>
      <trkpt lat="45.40801" lon="5.92222">
        <ele>1816.418117479</ele>
        <time>2015-06-06T08:52:29Z</time>
      </trkpt>
      <trkpt lat="45.40797" lon="5.92222">
        <ele>1815.002198613</ele>
        <time>2015-06-06T08:52:34Z</time>
      </trkpt>
      <trkpt lat="45.40794" lon="5.92221">
        <ele>1815.002198613</ele>
        <time>2015-06-06T08:52:39Z</time>
      </trkpt>
      <trkpt lat="45.40789" lon="5.92222">
        <ele>1815.002198613</ele>
        <time>2015-06-06T08:52:44Z</time>
      </trkpt>
      <trkpt lat="45.40786" lon="5.92223">
        <ele>1813.737165468</ele>
        <time>2015-06-06T08:52:50Z</time>
      </trkpt>
      <trkpt lat="45.40786" lon="5.92223">
        <ele>1813.737165468</ele>
        <time>2015-06-06T08:52:53Z</time>
      </trkpt>
      <trkpt lat="45.40786" lon="5.92224">
        <ele>1813.737165468</ele>
        <time>2015-06-06T08:52:59Z</time>
      </trkpt>
      <trkpt lat="45.40785" lon="5.92224">
        <ele>1813.737165468</ele>
        <time>2015-06-06T08:53:05Z</time>
      </trkpt>
      <trkpt lat="45.40786" lon="5.92226">
        <ele>1813.737165468</ele>
        <time>2015-06-06T08:53:09Z</time>
      </trkpt>
      <trkpt lat="45.40786" lon="5.9223">
        <ele>1813.737165468</ele>
        <time>2015-06-06T08:53:14Z</time>
      </trkpt>
      <trkpt lat="45.40781" lon="5.92237">
        <ele>1812.758965106</ele>
        <time>2015-06-06T08:53:19Z</time>
      </trkpt>
      <trkpt lat="45.4078" lon="5.92237">
        <ele>1812.758965106</ele>
        <time>2015-06-06T08:53:24Z</time>
      </trkpt>
      <trkpt lat="45.40779" lon="5.92239">
        <ele>1812.758965106</ele>
        <time>2015-06-06T08:53:29Z</time>
      </trkpt>
      <trkpt lat="45.40785" lon="5.9224">
        <ele>1812.758965106</ele>
        <time>2015-06-06T08:53:33Z</time>
      </trkpt>
      <trkpt lat="45.40782" lon="5.9224">
        <ele>1811.760318536</ele>
        <time>2015-06-06T08:53:38Z</time>
      </trkpt>
      <trkpt lat="45.40781" lon="5.9224">
        <ele>1811.760318536</ele>
        <time>2015-06-06T08:53:43Z</time>
      </trkpt>
      <trkpt lat="45.40781" lon="5.9224">
        <ele>1811.760318536</ele>
        <time>2015-06-06T08:53:49Z</time>
      </trkpt>
      <trkpt lat="45.40774" lon="5.9225">
        <ele>1810.312363799</ele>
        <time>2015-06-06T08:53:54Z</time>
      </trkpt>
      <trkpt lat="45.40774" lon="5.92252">
        <ele>1810.312363799</ele>
        <time>2015-06-06T08:54:00Z</time>
      </trkpt>
      <trkpt lat="45.40774" lon="5.92253">
        <ele>1810.312363799</ele>
        <time>2015-06-06T08:54:04Z</time>
      </trkpt>
      <trkpt lat="45.40774" lon="5.92254">
        <ele>1810.312363799</ele>
        <time>2015-06-06T08:54:10Z</time>
      </trkpt>
      <trkpt lat="45.40775" lon="5.92254">
        <ele>1810.312363799</ele>
        <time>2015-06-06T08:54:14Z</time>
      </trkpt>
      <trkpt lat="45.40775" lon="5.92254">
        <ele>1810.312363799</ele>
        <time>2015-06-06T08:54:19Z</time>
      </trkpt>
      <trkpt lat="45.40775" lon="5.92254">
        <ele>1810.312363799</ele>
        <time>2015-06-06T08:54:24Z</time>
      </trkpt>
      <trkpt lat="45.40775" lon="5.92254">
        <ele>1810.312363799</ele>
        <time>2015-06-06T08:54:30Z</time>
      </trkpt>
      <trkpt lat="45.40775" lon="5.92254">
        <ele>1810.312363799</ele>
        <time>2015-06-06T08:54:34Z</time>
      </trkpt>
      <trkpt lat="45.40775" lon="5.92254">
        <ele>1810.312363799</ele>
        <time>2015-06-06T08:54:40Z</time>
      </trkpt>
      <trkpt lat="45.40775" lon="5.92254">
        <ele>1810.312363799</ele>
        <time>2015-06-06T08:54:44Z</time>
      </trkpt>
      <trkpt lat="45.40775" lon="5.92254">
        <ele>1810.312363799</ele>
        <time>2015-06-06T08:54:50Z</time>
      </trkpt>
      <trkpt lat="45.40775" lon="5.92254">
        <ele>1810.312363799</ele>
        <time>2015-06-06T08:54:54Z</time>
      </trkpt>
      <trkpt lat="45.40775" lon="5.92254">
        <ele>1810.312363799</ele>
        <time>2015-06-06T08:54:59Z</time>
      </trkpt>
      <trkpt lat="45.40775" lon="5.92254">
        <ele>1810.312363799</ele>
        <time>2015-06-06T08:55:04Z</time>
      </trkpt>
      <trkpt lat="45.40775" lon="5.92254">
        <ele>1810.312363799</ele>
        <time>2015-06-06T08:55:10Z</time>
      </trkpt>
      <trkpt lat="45.40775" lon="5.92254">
        <ele>1810.312363799</ele>
        <time>2015-06-06T08:55:14Z</time>
      </trkpt>
      <trkpt lat="45.40775" lon="5.92254">
        <ele>1810.312363799</ele>
        <time>2015-06-06T08:55:19Z</time>
      </trkpt>
      <trkpt lat="45.40774" lon="5.92254">
        <ele>1810.312363799</ele>
        <time>2015-06-06T08:55:24Z</time>
      </trkpt>
      <trkpt lat="45.40774" lon="5.92254">
        <ele>1810.312363799</ele>
        <time>2015-06-06T08:55:30Z</time>
      </trkpt>
      <trkpt lat="45.40774" lon="5.92254">
        <ele>1810.312363799</ele>
        <time>2015-06-06T08:55:34Z</time>
      </trkpt>
      <trkpt lat="45.40774" lon="5.92254">
        <ele>1810.312363799</ele>
        <time>2015-06-06T08:55:40Z</time>
      </trkpt>
      <trkpt lat="45.40775" lon="5.92255">
        <ele>1810.312363799</ele>
        <time>2015-06-06T08:55:44Z</time>
      </trkpt>
      <trkpt lat="45.40775" lon="5.92255">
        <ele>1810.312363799</ele>
        <time>2015-06-06T08:55:50Z</time>
      </trkpt>
      <trkpt lat="45.40775" lon="5.92255">
        <ele>1810.312363799</ele>
        <time>2015-06-06T08:55:54Z</time>
      </trkpt>
      <trkpt lat="45.40775" lon="5.92255">
        <ele>1810.312363799</ele>
        <time>2015-06-06T08:55:59Z</time>
      </trkpt>
      <trkpt lat="45.40775" lon="5.92255">
        <ele>1810.312363799</ele>
        <time>2015-06-06T08:56:05Z</time>
      </trkpt>
      <trkpt lat="45.40775" lon="5.92255">
        <ele>1810.312363799</ele>
        <time>2015-06-06T08:56:09Z</time>
      </trkpt>
      <trkpt lat="45.40775" lon="5.92255">
        <ele>1810.312363799</ele>
        <time>2015-06-06T08:56:14Z</time>
      </trkpt>
      <trkpt lat="45.40775" lon="5.92255">
        <ele>1810.312363799</ele>
        <time>2015-06-06T08:56:20Z</time>
      </trkpt>
      <trkpt lat="45.40775" lon="5.92255">
        <ele>1810.312363799</ele>
        <time>2015-06-06T08:56:24Z</time>
      </trkpt>
      <trkpt lat="45.40775" lon="5.92255">
        <ele>1810.312363799</ele>
        <time>2015-06-06T08:56:30Z</time>
      </trkpt>
      <trkpt lat="45.40775" lon="5.92255">
        <ele>1810.312363799</ele>
        <time>2015-06-06T08:56:34Z</time>
      </trkpt>
      <trkpt lat="45.40775" lon="5.92255">
        <ele>1810.312363799</ele>
        <time>2015-06-06T08:56:39Z</time>
      </trkpt>
      <trkpt lat="45.40775" lon="5.92255">
        <ele>1810.312363799</ele>
        <time>2015-06-06T08:56:44Z</time>
      </trkpt>
      <trkpt lat="45.40775" lon="5.92255">
        <ele>1810.312363799</ele>
        <time>2015-06-06T08:56:50Z</time>
      </trkpt>
      <trkpt lat="45.40775" lon="5.92255">
        <ele>1810.312363799</ele>
        <time>2015-06-06T08:56:54Z</time>
      </trkpt>
      <trkpt lat="45.40775" lon="5.92255">
        <ele>1810.312363799</ele>
        <time>2015-06-06T08:56:59Z</time>
      </trkpt>
      <trkpt lat="45.40775" lon="5.92255">
        <ele>1810.312363799</ele>
        <time>2015-06-06T08:57:04Z</time>
      </trkpt>
      <trkpt lat="45.40775" lon="5.92255">
        <ele>1810.312363799</ele>
        <time>2015-06-06T08:57:10Z</time>
      </trkpt>
      <trkpt lat="45.40775" lon="5.92255">
        <ele>1810.312363799</ele>
        <time>2015-06-06T08:57:14Z</time>
      </trkpt>
      <trkpt lat="45.40775" lon="5.92255">
        <ele>1810.312363799</ele>
        <time>2015-06-06T08:57:20Z</time>
      </trkpt>
      <trkpt lat="45.40775" lon="5.92255">
        <ele>1810.312363799</ele>
        <time>2015-06-06T08:57:24Z</time>
      </trkpt>
      <trkpt lat="45.40775" lon="5.92255">
        <ele>1810.312363799</ele>
        <time>2015-06-06T08:57:29Z</time>
      </trkpt>
      <trkpt lat="45.40775" lon="5.92255">
        <ele>1810.312363799</ele>
        <time>2015-06-06T08:57:34Z</time>
      </trkpt>
      <trkpt lat="45.40775" lon="5.92255">
        <ele>1810.312363799</ele>
        <time>2015-06-06T08:57:39Z</time>
      </trkpt>
      <trkpt lat="45.40775" lon="5.92255">
        <ele>1810.312363799</ele>
        <time>2015-06-06T08:57:45Z</time>
      </trkpt>
      <trkpt lat="45.40775" lon="5.92255">
        <ele>1810.312363799</ele>
        <time>2015-06-06T08:57:49Z</time>
      </trkpt>
      <trkpt lat="45.40775" lon="5.92255">
        <ele>1810.312363799</ele>
        <time>2015-06-06T08:57:54Z</time>
      </trkpt>
      <trkpt lat="45.40775" lon="5.92255">
        <ele>1810.312363799</ele>
        <time>2015-06-06T08:57:59Z</time>
      </trkpt>
      <trkpt lat="45.40774" lon="5.92255">
        <ele>1810.312363799</ele>
        <time>2015-06-06T08:58:05Z</time>
      </trkpt>
      <trkpt lat="45.40775" lon="5.92255">
        <ele>1810.312363799</ele>
        <time>2015-06-06T08:58:09Z</time>
      </trkpt>
      <trkpt lat="45.40774" lon="5.92255">
        <ele>1810.312363799</ele>
        <time>2015-06-06T08:58:14Z</time>
      </trkpt>
      <trkpt lat="45.40774" lon="5.92255">
        <ele>1810.312363799</ele>
        <time>2015-06-06T08:58:20Z</time>
      </trkpt>
      <trkpt lat="45.40774" lon="5.92255">
        <ele>1810.312363799</ele>
        <time>2015-06-06T08:58:24Z</time>
      </trkpt>
      <trkpt lat="45.40774" lon="5.92255">
        <ele>1810.312363799</ele>
        <time>2015-06-06T08:58:30Z</time>
      </trkpt>
      <trkpt lat="45.40774" lon="5.92255">
        <ele>1810.312363799</ele>
        <time>2015-06-06T08:58:34Z</time>
      </trkpt>
      <trkpt lat="45.40774" lon="5.92255">
        <ele>1810.312363799</ele>
        <time>2015-06-06T08:58:39Z</time>
      </trkpt>
      <trkpt lat="45.40774" lon="5.92255">
        <ele>1810.312363799</ele>
        <time>2015-06-06T08:58:44Z</time>
      </trkpt>
      <trkpt lat="45.40774" lon="5.92255">
        <ele>1810.312363799</ele>
        <time>2015-06-06T08:58:50Z</time>
      </trkpt>
      <trkpt lat="45.40774" lon="5.92255">
        <ele>1810.312363799</ele>
        <time>2015-06-06T08:58:54Z</time>
      </trkpt>
      <trkpt lat="45.40774" lon="5.92255">
        <ele>1810.312363799</ele>
        <time>2015-06-06T08:59:00Z</time>
      </trkpt>
      <trkpt lat="45.40774" lon="5.92255">
        <ele>1810.312363799</ele>
        <time>2015-06-06T08:59:04Z</time>
      </trkpt>
      <trkpt lat="45.40774" lon="5.92255">
        <ele>1810.312363799</ele>
        <time>2015-06-06T08:59:10Z</time>
      </trkpt>
      <trkpt lat="45.40774" lon="5.92255">
        <ele>1810.312363799</ele>
        <time>2015-06-06T08:59:14Z</time>
      </trkpt>
      <trkpt lat="45.40774" lon="5.92255">
        <ele>1810.312363799</ele>
        <time>2015-06-06T08:59:20Z</time>
      </trkpt>
      <trkpt lat="45.40774" lon="5.92255">
        <ele>1810.312363799</ele>
        <time>2015-06-06T08:59:24Z</time>
      </trkpt>
      <trkpt lat="45.40774" lon="5.92255">
        <ele>1810.312363799</ele>
        <time>2015-06-06T08:59:30Z</time>
      </trkpt>
      <trkpt lat="45.40774" lon="5.92255">
        <ele>1810.312363799</ele>
        <time>2015-06-06T08:59:34Z</time>
      </trkpt>
      <trkpt lat="45.40774" lon="5.92255">
        <ele>1810.312363799</ele>
        <time>2015-06-06T08:59:39Z</time>
      </trkpt>
      <trkpt lat="45.40774" lon="5.92255">
        <ele>1810.312363799</ele>
        <time>2015-06-06T08:59:45Z</time>
      </trkpt>
      <trkpt lat="45.40774" lon="5.92255">
        <ele>1810.312363799</ele>
        <time>2015-06-06T08:59:49Z</time>
      </trkpt>
      <trkpt lat="45.40774" lon="5.92255">
        <ele>1810.312363799</ele>
        <time>2015-06-06T08:59:54Z</time>
      </trkpt>
      <trkpt lat="45.40774" lon="5.92255">
        <ele>1810.312363799</ele>
        <time>2015-06-06T09:00:00Z</time>
      </trkpt>
      <trkpt lat="45.40774" lon="5.92255">
        <ele>1810.312363799</ele>
        <time>2015-06-06T09:00:04Z</time>
      </trkpt>
      <trkpt lat="45.40774" lon="5.92255">
        <ele>1810.312363799</ele>
        <time>2015-06-06T09:00:10Z</time>
      </trkpt>
      <trkpt lat="45.40774" lon="5.92255">
        <ele>1810.312363799</ele>
        <time>2015-06-06T09:00:14Z</time>
      </trkpt>
      <trkpt lat="45.40774" lon="5.92255">
        <ele>1810.312363799</ele>
        <time>2015-06-06T09:00:19Z</time>
      </trkpt>
      <trkpt lat="45.40774" lon="5.92255">
        <ele>1810.312363799</ele>
        <time>2015-06-06T09:00:24Z</time>
      </trkpt>
      <trkpt lat="45.40774" lon="5.92255">
        <ele>1810.312363799</ele>
        <time>2015-06-06T09:00:30Z</time>
      </trkpt>
      <trkpt lat="45.40774" lon="5.92255">
        <ele>1810.312363799</ele>
        <time>2015-06-06T09:00:34Z</time>
      </trkpt>
      <trkpt lat="45.40774" lon="5.92255">
        <ele>1810.312363799</ele>
        <time>2015-06-06T09:00:40Z</time>
      </trkpt>
      <trkpt lat="45.40774" lon="5.92255">
        <ele>1810.312363799</ele>
        <time>2015-06-06T09:00:44Z</time>
      </trkpt>
      <trkpt lat="45.40774" lon="5.92255">
        <ele>1810.312363799</ele>
        <time>2015-06-06T09:00:50Z</time>
      </trkpt>
      <trkpt lat="45.40773" lon="5.92255">
        <ele>1810.312363799</ele>
        <time>2015-06-06T09:00:54Z</time>
      </trkpt>
      <trkpt lat="45.40773" lon="5.92255">
        <ele>1810.312363799</ele>
        <time>2015-06-06T09:00:59Z</time>
      </trkpt>
      <trkpt lat="45.40775" lon="5.92253">
        <ele>1810.312363799</ele>
        <time>2015-06-06T09:01:04Z</time>
      </trkpt>
      <trkpt lat="45.40774" lon="5.9225">
        <ele>1809.31590301</ele>
        <time>2015-06-06T09:01:09Z</time>
      </trkpt>
      <trkpt lat="45.40772" lon="5.9225">
        <ele>1809.31590301</ele>
        <time>2015-06-06T09:01:14Z</time>
      </trkpt>
      <trkpt lat="45.40773" lon="5.92251">
        <ele>1809.31590301</ele>
        <time>2015-06-06T09:01:19Z</time>
      </trkpt>
      <trkpt lat="45.40773" lon="5.9225">
        <ele>1809.31590301</ele>
        <time>2015-06-06T09:01:24Z</time>
      </trkpt>
      <trkpt lat="45.40771" lon="5.92245">
        <ele>1809.31590301</ele>
        <time>2015-06-06T09:01:30Z</time>
      </trkpt>
      <trkpt lat="45.40768" lon="5.92242">
        <ele>1807.2984192</ele>
        <time>2015-06-06T09:01:34Z</time>
      </trkpt>
      <trkpt lat="45.40765" lon="5.92242">
        <ele>1807.2984192</ele>
        <time>2015-06-06T09:01:40Z</time>
      </trkpt>
      <trkpt lat="45.40764" lon="5.92241">
        <ele>1807.2984192</ele>
        <time>2015-06-06T09:01:44Z</time>
      </trkpt>
      <trkpt lat="45.40764" lon="5.92241">
        <ele>1807.2984192</ele>
        <time>2015-06-06T09:01:50Z</time>
      </trkpt>
      <trkpt lat="45.40764" lon="5.9224">
        <ele>1807.2984192</ele>
        <time>2015-06-06T09:01:54Z</time>
      </trkpt>
      <trkpt lat="45.40764" lon="5.9224">
        <ele>1807.2984192</ele>
        <time>2015-06-06T09:02:00Z</time>
      </trkpt>
      <trkpt lat="45.40764" lon="5.9224">
        <ele>1807.2984192</ele>
        <time>2015-06-06T09:02:04Z</time>
      </trkpt>
      <trkpt lat="45.40761" lon="5.9224">
        <ele>1807.2984192</ele>
        <time>2015-06-06T09:02:10Z</time>
      </trkpt>
      <trkpt lat="45.4076" lon="5.92237">
        <ele>1805.348216759</ele>
        <time>2015-06-06T09:02:14Z</time>
      </trkpt>
      <trkpt lat="45.40759" lon="5.92237">
        <ele>1805.348216759</ele>
        <time>2015-06-06T09:02:19Z</time>
      </trkpt>
      <trkpt lat="45.4076" lon="5.92236">
        <ele>1805.348216759</ele>
        <time>2015-06-06T09:02:24Z</time>
      </trkpt>
      <trkpt lat="45.40761" lon="5.92236">
        <ele>1805.348216759</ele>
        <time>2015-06-06T09:02:30Z</time>
      </trkpt>
      <trkpt lat="45.40761" lon="5.92236">
        <ele>1805.348216759</ele>
        <time>2015-06-06T09:02:33Z</time>
      </trkpt>
      <trkpt lat="45.40761" lon="5.92236">
        <ele>1805.348216759</ele>
        <time>2015-06-06T09:02:39Z</time>
      </trkpt>
      <trkpt lat="45.40761" lon="5.92236">
        <ele>1805.348216759</ele>
        <time>2015-06-06T09:02:44Z</time>
      </trkpt>
      <trkpt lat="45.40761" lon="5.92236">
        <ele>1805.348216759</ele>
        <time>2015-06-06T09:02:49Z</time>
      </trkpt>
      <trkpt lat="45.40761" lon="5.92236">
        <ele>1805.348216759</ele>
        <time>2015-06-06T09:02:54Z</time>
      </trkpt>
      <trkpt lat="45.40761" lon="5.92236">
        <ele>1805.348216759</ele>
        <time>2015-06-06T09:02:58Z</time>
      </trkpt>
      <trkpt lat="45.40761" lon="5.92236">
        <ele>1805.348216759</ele>
        <time>2015-06-06T09:03:05Z</time>
      </trkpt>
      <trkpt lat="45.40761" lon="5.92236">
        <ele>1805.348216759</ele>
        <time>2015-06-06T09:03:09Z</time>
      </trkpt>
      <trkpt lat="45.40763" lon="5.92231">
        <ele>1805.348216759</ele>
        <time>2015-06-06T09:03:14Z</time>
      </trkpt>
      <trkpt lat="45.40763" lon="5.92227">
        <ele>1802.455801372</ele>
        <time>2015-06-06T09:03:19Z</time>
      </trkpt>
      <trkpt lat="45.40762" lon="5.92222">
        <ele>1802.455801372</ele>
        <time>2015-06-06T09:03:25Z</time>
      </trkpt>
      <trkpt lat="45.40758" lon="5.92223">
        <ele>1802.455801372</ele>
        <time>2015-06-06T09:03:29Z</time>
      </trkpt>
      <trkpt lat="45.40757" lon="5.92215">
        <ele>1799.417698741</ele>
        <time>2015-06-06T09:03:34Z</time>
      </trkpt>
      <trkpt lat="45.40755" lon="5.92209">
        <ele>1799.417698741</ele>
        <time>2015-06-06T09:03:39Z</time>
      </trkpt>
      <trkpt lat="45.40753" lon="5.92207">
        <ele>1799.417698741</ele>
        <time>2015-06-06T09:03:44Z</time>
      </trkpt>
      <trkpt lat="45.40749" lon="5.92199">
        <ele>1796.683986</ele>
        <time>2015-06-06T09:03:49Z</time>
      </trkpt>
      <trkpt lat="45.40743" lon="5.92197">
        <ele>1796.683986</ele>
        <time>2015-06-06T09:03:55Z</time>
      </trkpt>
      <trkpt lat="45.40742" lon="5.92196">
        <ele>1796.683986</ele>
        <time>2015-06-06T09:03:59Z</time>
      </trkpt>
      <trkpt lat="45.40742" lon="5.92197">
        <ele>1796.683986</ele>
        <time>2015-06-06T09:04:05Z</time>
      </trkpt>
      <trkpt lat="45.40742" lon="5.92197">
        <ele>1796.683986</ele>
        <time>2015-06-06T09:04:10Z</time>
      </trkpt>
      <trkpt lat="45.40742" lon="5.92197">
        <ele>1796.683986</ele>
        <time>2015-06-06T09:04:14Z</time>
      </trkpt>
      <trkpt lat="45.40742" lon="5.92197">
        <ele>1796.683986</ele>
        <time>2015-06-06T09:04:19Z</time>
      </trkpt>
      <trkpt lat="45.40743" lon="5.92197">
        <ele>1796.683986</ele>
        <time>2015-06-06T09:04:25Z</time>
      </trkpt>
      <trkpt lat="45.40742" lon="5.92197">
        <ele>1796.683986</ele>
        <time>2015-06-06T09:04:29Z</time>
      </trkpt>
      <trkpt lat="45.40742" lon="5.92197">
        <ele>1796.683986</ele>
        <time>2015-06-06T09:04:35Z</time>
      </trkpt>
      <trkpt lat="45.40742" lon="5.92197">
        <ele>1796.683986</ele>
        <time>2015-06-06T09:04:39Z</time>
      </trkpt>
      <trkpt lat="45.40742" lon="5.92197">
        <ele>1796.683986</ele>
        <time>2015-06-06T09:04:45Z</time>
      </trkpt>
      <trkpt lat="45.40742" lon="5.92197">
        <ele>1796.683986</ele>
        <time>2015-06-06T09:04:49Z</time>
      </trkpt>
      <trkpt lat="45.40742" lon="5.92196">
        <ele>1794.526581938</ele>
        <time>2015-06-06T09:04:55Z</time>
      </trkpt>
      <trkpt lat="45.4074" lon="5.92192">
        <ele>1794.526581938</ele>
        <time>2015-06-06T09:04:59Z</time>
      </trkpt>
      <trkpt lat="45.40737" lon="5.92186">
        <ele>1794.526581938</ele>
        <time>2015-06-06T09:05:05Z</time>
      </trkpt>
      <trkpt lat="45.40734" lon="5.9218">
        <ele>1792.475119711</ele>
        <time>2015-06-06T09:05:09Z</time>
      </trkpt>
      <trkpt lat="45.4073" lon="5.92179">
        <ele>1792.475119711</ele>
        <time>2015-06-06T09:05:15Z</time>
      </trkpt>
      <trkpt lat="45.40726" lon="5.9218">
        <ele>1792.475119711</ele>
        <time>2015-06-06T09:05:19Z</time>
      </trkpt>
      <trkpt lat="45.40723" lon="5.92178">
        <ele>1790.958013486</ele>
        <time>2015-06-06T09:05:25Z</time>
      </trkpt>
      <trkpt lat="45.4072" lon="5.92176">
        <ele>1790.958013486</ele>
        <time>2015-06-06T09:05:29Z</time>
      </trkpt>
      <trkpt lat="45.40717" lon="5.92171">
        <ele>1790.958013486</ele>
        <time>2015-06-06T09:05:35Z</time>
      </trkpt>
      <trkpt lat="45.40714" lon="5.92165">
        <ele>1789.505898421</ele>
        <time>2015-06-06T09:05:39Z</time>
      </trkpt>
      <trkpt lat="45.4071" lon="5.92153">
        <ele>1788.983169492</ele>
        <time>2015-06-06T09:05:45Z</time>
      </trkpt>
      <trkpt lat="45.40702" lon="5.92172">
        <ele>1788.460440563</ele>
        <time>2015-06-06T09:05:49Z</time>
      </trkpt>
      <trkpt lat="45.4071" lon="5.92121">
        <ele>1787.937711634</ele>
        <time>2015-06-06T09:06:35Z</time>
      </trkpt>
      <trkpt lat="45.40711" lon="5.92104">
        <ele>1787.414982706</ele>
        <time>2015-06-06T09:06:39Z</time>
      </trkpt>
      <trkpt lat="45.40709" lon="5.92101">
        <ele>1786.892253777</ele>
        <time>2015-06-06T09:06:45Z</time>
      </trkpt>
      <trkpt lat="45.40698" lon="5.92129">
        <ele>1786.369524848</ele>
        <time>2015-06-06T09:06:49Z</time>
      </trkpt>
      <trkpt lat="45.40695" lon="5.92129">
        <ele>1785.846795919</ele>
        <time>2015-06-06T09:06:55Z</time>
      </trkpt>
      <trkpt lat="45.40683" lon="5.92156">
        <ele>1785.324066991</ele>
        <time>2015-06-06T09:06:59Z</time>
      </trkpt>
      <trkpt lat="45.40679" lon="5.92147">
        <ele>1784.801338062</ele>
        <time>2015-06-06T09:07:05Z</time>
      </trkpt>
      <trkpt lat="45.40676" lon="5.9214">
        <ele>1784.801338062</ele>
        <time>2015-06-06T09:07:09Z</time>
      </trkpt>
      <trkpt lat="45.40672" lon="5.92129">
        <ele>1780.69690315</ele>
        <time>2015-06-06T09:07:15Z</time>
      </trkpt>
      <trkpt lat="45.4067" lon="5.92122">
        <ele>1780.69690315</ele>
        <time>2015-06-06T09:07:19Z</time>
      </trkpt>
      <trkpt lat="45.40666" lon="5.92121">
        <ele>1777.013425108</ele>
        <time>2015-06-06T09:07:25Z</time>
      </trkpt>
      <trkpt lat="45.40663" lon="5.92113">
        <ele>1777.013425108</ele>
        <time>2015-06-06T09:07:29Z</time>
      </trkpt>
      <trkpt lat="45.4066" lon="5.9211">
        <ele>1774.015881308</ele>
        <time>2015-06-06T09:07:35Z</time>
      </trkpt>
      <trkpt lat="45.40658" lon="5.92105">
        <ele>1774.015881308</ele>
        <time>2015-06-06T09:07:39Z</time>
      </trkpt>
      <trkpt lat="45.40657" lon="5.92102">
        <ele>1774.015881308</ele>
        <time>2015-06-06T09:07:45Z</time>
      </trkpt>
      <trkpt lat="45.40654" lon="5.92101">
        <ele>1771.371236961</ele>
        <time>2015-06-06T09:07:49Z</time>
      </trkpt>
      <trkpt lat="45.40653" lon="5.92094">
        <ele>1771.371236961</ele>
        <time>2015-06-06T09:07:55Z</time>
      </trkpt>
      <trkpt lat="45.40653" lon="5.92096">
        <ele>1771.371236961</ele>
        <time>2015-06-06T09:07:59Z</time>
      </trkpt>
      <trkpt lat="45.40653" lon="5.92096">
        <ele>1771.371236961</ele>
        <time>2015-06-06T09:08:05Z</time>
      </trkpt>
      <trkpt lat="45.40652" lon="5.92096">
        <ele>1771.371236961</ele>
        <time>2015-06-06T09:08:09Z</time>
      </trkpt>
      <trkpt lat="45.40652" lon="5.92096">
        <ele>1771.371236961</ele>
        <time>2015-06-06T09:08:15Z</time>
      </trkpt>
      <trkpt lat="45.40652" lon="5.92096">
        <ele>1771.371236961</ele>
        <time>2015-06-06T09:08:19Z</time>
      </trkpt>
      <trkpt lat="45.40652" lon="5.92096">
        <ele>1771.371236961</ele>
        <time>2015-06-06T09:08:25Z</time>
      </trkpt>
      <trkpt lat="45.40652" lon="5.92096">
        <ele>1771.371236961</ele>
        <time>2015-06-06T09:08:28Z</time>
      </trkpt>
      <trkpt lat="45.40652" lon="5.92096">
        <ele>1771.371236961</ele>
        <time>2015-06-06T09:08:33Z</time>
      </trkpt>
      <trkpt lat="45.40652" lon="5.92096">
        <ele>1771.371236961</ele>
        <time>2015-06-06T09:08:38Z</time>
      </trkpt>
      <trkpt lat="45.40652" lon="5.92096">
        <ele>1771.371236961</ele>
        <time>2015-06-06T09:08:43Z</time>
      </trkpt>
      <trkpt lat="45.40652" lon="5.92096">
        <ele>1771.371236961</ele>
        <time>2015-06-06T09:08:49Z</time>
      </trkpt>
      <trkpt lat="45.40652" lon="5.92096">
        <ele>1771.371236961</ele>
        <time>2015-06-06T09:08:55Z</time>
      </trkpt>
      <trkpt lat="45.40652" lon="5.92096">
        <ele>1771.371236961</ele>
        <time>2015-06-06T09:08:59Z</time>
      </trkpt>
      <trkpt lat="45.40652" lon="5.92096">
        <ele>1771.371236961</ele>
        <time>2015-06-06T09:09:04Z</time>
      </trkpt>
      <trkpt lat="45.40652" lon="5.92096">
        <ele>1771.371236961</ele>
        <time>2015-06-06T09:09:09Z</time>
      </trkpt>
      <trkpt lat="45.40652" lon="5.92096">
        <ele>1771.371236961</ele>
        <time>2015-06-06T09:09:13Z</time>
      </trkpt>
      <trkpt lat="45.40651" lon="5.92095">
        <ele>1771.371236961</ele>
        <time>2015-06-06T09:09:18Z</time>
      </trkpt>
      <trkpt lat="45.40645" lon="5.92087">
        <ele>1769.057971503</ele>
        <time>2015-06-06T09:09:25Z</time>
      </trkpt>
      <trkpt lat="45.4065" lon="5.92084">
        <ele>1769.057971503</ele>
        <time>2015-06-06T09:09:29Z</time>
      </trkpt>
      <trkpt lat="45.4065" lon="5.92082">
        <ele>1769.057971503</ele>
        <time>2015-06-06T09:09:35Z</time>
      </trkpt>
      <trkpt lat="45.40647" lon="5.92081">
        <ele>1766.478587361</ele>
        <time>2015-06-06T09:09:39Z</time>
      </trkpt>
      <trkpt lat="45.40647" lon="5.92081">
        <ele>1766.478587361</ele>
        <time>2015-06-06T09:09:45Z</time>
      </trkpt>
      <trkpt lat="45.40647" lon="5.92081">
        <ele>1766.478587361</ele>
        <time>2015-06-06T09:09:49Z</time>
      </trkpt>
      <trkpt lat="45.40647" lon="5.92081">
        <ele>1766.478587361</ele>
        <time>2015-06-06T09:09:55Z</time>
      </trkpt>
      <trkpt lat="45.40647" lon="5.92081">
        <ele>1766.478587361</ele>
        <time>2015-06-06T09:09:59Z</time>
      </trkpt>
      <trkpt lat="45.40647" lon="5.92081">
        <ele>1766.478587361</ele>
        <time>2015-06-06T09:10:05Z</time>
      </trkpt>
      <trkpt lat="45.40647" lon="5.92081">
        <ele>1766.478587361</ele>
        <time>2015-06-06T09:10:09Z</time>
      </trkpt>
      <trkpt lat="45.40647" lon="5.92081">
        <ele>1766.478587361</ele>
        <time>2015-06-06T09:10:15Z</time>
      </trkpt>
      <trkpt lat="45.40641" lon="5.92064">
        <ele>1763.944710425</ele>
        <time>2015-06-06T09:10:19Z</time>
      </trkpt>
      <trkpt lat="45.4064" lon="5.92065">
        <ele>1763.944710425</ele>
        <time>2015-06-06T09:10:25Z</time>
      </trkpt>
      <trkpt lat="45.40639" lon="5.9206">
        <ele>1763.944710425</ele>
        <time>2015-06-06T09:10:29Z</time>
      </trkpt>
      <trkpt lat="45.40636" lon="5.9206">
        <ele>1763.944710425</ele>
        <time>2015-06-06T09:10:35Z</time>
      </trkpt>
      <trkpt lat="45.40635" lon="5.92055">
        <ele>1761.456545702</ele>
        <time>2015-06-06T09:10:39Z</time>
      </trkpt>
      <trkpt lat="45.40633" lon="5.92047">
        <ele>1761.456545702</ele>
        <time>2015-06-06T09:10:45Z</time>
      </trkpt>
      <trkpt lat="45.40629" lon="5.92046">
        <ele>1759.30220205</ele>
        <time>2015-06-06T09:10:49Z</time>
      </trkpt>
      <trkpt lat="45.40624" lon="5.92035">
        <ele>1757.315183511</ele>
        <time>2015-06-06T09:10:55Z</time>
      </trkpt>
      <trkpt lat="45.40626" lon="5.92028">
        <ele>1756.986084721</ele>
        <time>2015-06-06T09:10:59Z</time>
      </trkpt>
      <trkpt lat="45.4064" lon="5.92045">
        <ele>1756.656985932</ele>
        <time>2015-06-06T09:11:05Z</time>
      </trkpt>
      <trkpt lat="45.40631" lon="5.92044">
        <ele>1756.327887142</ele>
        <time>2015-06-06T09:11:09Z</time>
      </trkpt>
      <trkpt lat="45.40624" lon="5.92035">
        <ele>1755.998788353</ele>
        <time>2015-06-06T09:11:14Z</time>
      </trkpt>
      <trkpt lat="45.40615" lon="5.92033">
        <ele>1755.669689563</ele>
        <time>2015-06-06T09:11:20Z</time>
      </trkpt>
      <trkpt lat="45.40621" lon="5.92026">
        <ele>1755.340590773</ele>
        <time>2015-06-06T09:11:24Z</time>
      </trkpt>
      <trkpt lat="45.40628" lon="5.92027">
        <ele>1755.340590773</ele>
        <time>2015-06-06T09:11:29Z</time>
      </trkpt>
      <trkpt lat="45.40625" lon="5.92025">
        <ele>1753.378822049</ele>
        <time>2015-06-06T09:11:35Z</time>
      </trkpt>
      <trkpt lat="45.40627" lon="5.92021">
        <ele>1753.378822049</ele>
        <time>2015-06-06T09:11:39Z</time>
      </trkpt>
      <trkpt lat="45.40629" lon="5.92023">
        <ele>1753.378822049</ele>
        <time>2015-06-06T09:11:45Z</time>
      </trkpt>
      <trkpt lat="45.40623" lon="5.92013">
        <ele>1751.141837732</ele>
        <time>2015-06-06T09:11:49Z</time>
      </trkpt>
      <trkpt lat="45.4062" lon="5.92013">
        <ele>1751.141837732</ele>
        <time>2015-06-06T09:11:55Z</time>
      </trkpt>
      <trkpt lat="45.40617" lon="5.9201">
        <ele>1751.141837732</ele>
        <time>2015-06-06T09:11:59Z</time>
      </trkpt>
      <trkpt lat="45.40611" lon="5.92003">
        <ele>1749.804499617</ele>
        <time>2015-06-06T09:12:05Z</time>
      </trkpt>
      <trkpt lat="45.40614" lon="5.91999">
        <ele>1749.804499617</ele>
        <time>2015-06-06T09:12:09Z</time>
      </trkpt>
      <trkpt lat="45.40612" lon="5.91998">
        <ele>1749.804499617</ele>
        <time>2015-06-06T09:12:14Z</time>
      </trkpt>
      <trkpt lat="45.40612" lon="5.91998">
        <ele>1749.804499617</ele>
        <time>2015-06-06T09:12:18Z</time>
      </trkpt>
      <trkpt lat="45.40612" lon="5.91998">
        <ele>1749.804499617</ele>
        <time>2015-06-06T09:12:29Z</time>
      </trkpt>
      <trkpt lat="45.40612" lon="5.91998">
        <ele>1749.804499617</ele>
        <time>2015-06-06T09:12:33Z</time>
      </trkpt>
      <trkpt lat="45.40612" lon="5.91998">
        <ele>1749.804499617</ele>
        <time>2015-06-06T09:12:39Z</time>
      </trkpt>
      <trkpt lat="45.40612" lon="5.91998">
        <ele>1749.804499617</ele>
        <time>2015-06-06T09:12:43Z</time>
      </trkpt>
      <trkpt lat="45.40612" lon="5.91998">
        <ele>1749.804499617</ele>
        <time>2015-06-06T09:12:49Z</time>
      </trkpt>
      <trkpt lat="45.40612" lon="5.91998">
        <ele>1749.804499617</ele>
        <time>2015-06-06T09:12:54Z</time>
      </trkpt>
      <trkpt lat="45.40612" lon="5.91998">
        <ele>1749.804499617</ele>
        <time>2015-06-06T09:12:59Z</time>
      </trkpt>
      <trkpt lat="45.40612" lon="5.91998">
        <ele>1749.804499617</ele>
        <time>2015-06-06T09:13:04Z</time>
      </trkpt>
      <trkpt lat="45.40612" lon="5.91998">
        <ele>1749.804499617</ele>
        <time>2015-06-06T09:13:09Z</time>
      </trkpt>
      <trkpt lat="45.40611" lon="5.91997">
        <ele>1749.804499617</ele>
        <time>2015-06-06T09:13:14Z</time>
      </trkpt>
      <trkpt lat="45.40603" lon="5.91986">
        <ele>1749.30523586</ele>
        <time>2015-06-06T09:13:19Z</time>
      </trkpt>
      <trkpt lat="45.40597" lon="5.91978">
        <ele>1748.805972104</ele>
        <time>2015-06-06T09:13:25Z</time>
      </trkpt>
      <trkpt lat="45.40588" lon="5.91983">
        <ele>1748.306708347</ele>
        <time>2015-06-06T09:13:29Z</time>
      </trkpt>
      <trkpt lat="45.40613" lon="5.91947">
        <ele>1747.807444591</ele>
        <time>2015-06-06T09:13:49Z</time>
      </trkpt>
      <trkpt lat="45.40614" lon="5.91942">
        <ele>1747.308180834</ele>
        <time>2015-06-06T09:13:55Z</time>
      </trkpt>
      <trkpt lat="45.40613" lon="5.91945">
        <ele>1746.808917078</ele>
        <time>2015-06-06T09:13:59Z</time>
      </trkpt>
      <trkpt lat="45.40614" lon="5.91945">
        <ele>1746.309653321</ele>
        <time>2015-06-06T09:14:05Z</time>
      </trkpt>
      <trkpt lat="45.40614" lon="5.91947">
        <ele>1745.810389564</ele>
        <time>2015-06-06T09:14:09Z</time>
      </trkpt>
      <trkpt lat="45.40613" lon="5.91947">
        <ele>1745.311125808</ele>
        <time>2015-06-06T09:14:13Z</time>
      </trkpt>
      <trkpt lat="45.40609" lon="5.91945">
        <ele>1744.811862051</ele>
        <time>2015-06-06T09:14:19Z</time>
      </trkpt>
      <trkpt lat="45.40617" lon="5.91952">
        <ele>1744.312598295</ele>
        <time>2015-06-06T09:14:24Z</time>
      </trkpt>
      <trkpt lat="45.4061" lon="5.91975">
        <ele>1743.813334538</ele>
        <time>2015-06-06T09:14:29Z</time>
      </trkpt>
      <trkpt lat="45.40609" lon="5.91948">
        <ele>1743.314070782</ele>
        <time>2015-06-06T09:14:45Z</time>
      </trkpt>
      <trkpt lat="45.40607" lon="5.91944">
        <ele>1742.814807025</ele>
        <time>2015-06-06T09:14:49Z</time>
      </trkpt>
      <trkpt lat="45.40606" lon="5.91942">
        <ele>1742.814807025</ele>
        <time>2015-06-06T09:14:54Z</time>
      </trkpt>
      <trkpt lat="45.40606" lon="5.91942">
        <ele>1742.814807025</ele>
        <time>2015-06-06T09:14:59Z</time>
      </trkpt>
      <trkpt lat="45.40606" lon="5.91942">
        <ele>1742.814807025</ele>
        <time>2015-06-06T09:15:04Z</time>
      </trkpt>
      <trkpt lat="45.40606" lon="5.91942">
        <ele>1742.814807025</ele>
        <time>2015-06-06T09:15:10Z</time>
      </trkpt>
      <trkpt lat="45.40606" lon="5.91942">
        <ele>1742.814807025</ele>
        <time>2015-06-06T09:15:14Z</time>
      </trkpt>
      <trkpt lat="45.40606" lon="5.91941">
        <ele>1742.814807025</ele>
        <time>2015-06-06T09:15:20Z</time>
      </trkpt>
      <trkpt lat="45.40606" lon="5.91942">
        <ele>1742.814807025</ele>
        <time>2015-06-06T09:15:24Z</time>
      </trkpt>
      <trkpt lat="45.40606" lon="5.91941">
        <ele>1742.814807025</ele>
        <time>2015-06-06T09:15:29Z</time>
      </trkpt>
      <trkpt lat="45.40606" lon="5.91941">
        <ele>1742.814807025</ele>
        <time>2015-06-06T09:15:34Z</time>
      </trkpt>
      <trkpt lat="45.40606" lon="5.91941">
        <ele>1742.814807025</ele>
        <time>2015-06-06T09:15:40Z</time>
      </trkpt>
      <trkpt lat="45.40606" lon="5.91941">
        <ele>1742.814807025</ele>
        <time>2015-06-06T09:15:44Z</time>
      </trkpt>
      <trkpt lat="45.40606" lon="5.91941">
        <ele>1742.814807025</ele>
        <time>2015-06-06T09:15:48Z</time>
      </trkpt>
      <trkpt lat="45.40606" lon="5.91941">
        <ele>1742.814807025</ele>
        <time>2015-06-06T09:15:53Z</time>
      </trkpt>
      <trkpt lat="45.40606" lon="5.91941">
        <ele>1742.814807025</ele>
        <time>2015-06-06T09:15:58Z</time>
      </trkpt>
      <trkpt lat="45.40605" lon="5.91941">
        <ele>1742.814807025</ele>
        <time>2015-06-06T09:16:03Z</time>
      </trkpt>
      <trkpt lat="45.40605" lon="5.91941">
        <ele>1742.814807025</ele>
        <time>2015-06-06T09:16:08Z</time>
      </trkpt>
      <trkpt lat="45.40605" lon="5.91941">
        <ele>1742.814807025</ele>
        <time>2015-06-06T09:16:13Z</time>
      </trkpt>
      <trkpt lat="45.40605" lon="5.91941">
        <ele>1742.814807025</ele>
        <time>2015-06-06T09:16:19Z</time>
      </trkpt>
      <trkpt lat="45.40605" lon="5.91941">
        <ele>1742.814807025</ele>
        <time>2015-06-06T09:16:24Z</time>
      </trkpt>
      <trkpt lat="45.40605" lon="5.91941">
        <ele>1742.814807025</ele>
        <time>2015-06-06T09:16:29Z</time>
      </trkpt>
      <trkpt lat="45.40605" lon="5.91941">
        <ele>1742.814807025</ele>
        <time>2015-06-06T09:16:34Z</time>
      </trkpt>
      <trkpt lat="45.40605" lon="5.91941">
        <ele>1742.814807025</ele>
        <time>2015-06-06T09:16:39Z</time>
      </trkpt>
      <trkpt lat="45.40605" lon="5.91941">
        <ele>1742.814807025</ele>
        <time>2015-06-06T09:16:44Z</time>
      </trkpt>
      <trkpt lat="45.40605" lon="5.91941">
        <ele>1742.814807025</ele>
        <time>2015-06-06T09:16:49Z</time>
      </trkpt>
      <trkpt lat="45.40605" lon="5.91941">
        <ele>1742.814807025</ele>
        <time>2015-06-06T09:16:53Z</time>
      </trkpt>
      <trkpt lat="45.40605" lon="5.91941">
        <ele>1742.814807025</ele>
        <time>2015-06-06T09:16:58Z</time>
      </trkpt>
      <trkpt lat="45.40605" lon="5.91942">
        <ele>1742.814807025</ele>
        <time>2015-06-06T09:17:03Z</time>
      </trkpt>
      <trkpt lat="45.40605" lon="5.91942">
        <ele>1742.814807025</ele>
        <time>2015-06-06T09:17:08Z</time>
      </trkpt>
      <trkpt lat="45.40605" lon="5.91942">
        <ele>1742.814807025</ele>
        <time>2015-06-06T09:17:13Z</time>
      </trkpt>
      <trkpt lat="45.40605" lon="5.91942">
        <ele>1742.814807025</ele>
        <time>2015-06-06T09:17:18Z</time>
      </trkpt>
      <trkpt lat="45.40605" lon="5.91942">
        <ele>1742.814807025</ele>
        <time>2015-06-06T09:17:23Z</time>
      </trkpt>
      <trkpt lat="45.40605" lon="5.91943">
        <ele>1742.814807025</ele>
        <time>2015-06-06T09:17:28Z</time>
      </trkpt>
      <trkpt lat="45.40605" lon="5.91943">
        <ele>1742.814807025</ele>
        <time>2015-06-06T09:17:33Z</time>
      </trkpt>
      <trkpt lat="45.40605" lon="5.91943">
        <ele>1742.814807025</ele>
        <time>2015-06-06T09:17:38Z</time>
      </trkpt>
      <trkpt lat="45.40605" lon="5.91943">
        <ele>1742.814807025</ele>
        <time>2015-06-06T09:17:43Z</time>
      </trkpt>
      <trkpt lat="45.40605" lon="5.91943">
        <ele>1742.814807025</ele>
        <time>2015-06-06T09:17:48Z</time>
      </trkpt>
      <trkpt lat="45.40605" lon="5.91943">
        <ele>1742.814807025</ele>
        <time>2015-06-06T09:17:53Z</time>
      </trkpt>
      <trkpt lat="45.40605" lon="5.91943">
        <ele>1742.814807025</ele>
        <time>2015-06-06T09:17:58Z</time>
      </trkpt>
      <trkpt lat="45.40605" lon="5.91943">
        <ele>1742.814807025</ele>
        <time>2015-06-06T09:18:03Z</time>
      </trkpt>
      <trkpt lat="45.40605" lon="5.91943">
        <ele>1742.814807025</ele>
        <time>2015-06-06T09:18:08Z</time>
      </trkpt>
      <trkpt lat="45.40605" lon="5.91943">
        <ele>1742.814807025</ele>
        <time>2015-06-06T09:18:13Z</time>
      </trkpt>
      <trkpt lat="45.40605" lon="5.91944">
        <ele>1742.814807025</ele>
        <time>2015-06-06T09:18:18Z</time>
      </trkpt>
      <trkpt lat="45.40605" lon="5.91944">
        <ele>1742.814807025</ele>
        <time>2015-06-06T09:18:23Z</time>
      </trkpt>
      <trkpt lat="45.40605" lon="5.91944">
        <ele>1742.814807025</ele>
        <time>2015-06-06T09:18:28Z</time>
      </trkpt>
      <trkpt lat="45.40605" lon="5.91944">
        <ele>1742.814807025</ele>
        <time>2015-06-06T09:18:33Z</time>
      </trkpt>
      <trkpt lat="45.40605" lon="5.91944">
        <ele>1742.814807025</ele>
        <time>2015-06-06T09:18:38Z</time>
      </trkpt>
      <trkpt lat="45.40605" lon="5.91944">
        <ele>1742.814807025</ele>
        <time>2015-06-06T09:18:43Z</time>
      </trkpt>
      <trkpt lat="45.40605" lon="5.91944">
        <ele>1742.814807025</ele>
        <time>2015-06-06T09:18:49Z</time>
      </trkpt>
      <trkpt lat="45.40605" lon="5.91945">
        <ele>1742.814807025</ele>
        <time>2015-06-06T09:18:54Z</time>
      </trkpt>
      <trkpt lat="45.40604" lon="5.91947">
        <ele>1742.814807025</ele>
        <time>2015-06-06T09:19:00Z</time>
      </trkpt>
      <trkpt lat="45.40613" lon="5.91962">
        <ele>1737.23189185</ele>
        <time>2015-06-06T09:19:04Z</time>
      </trkpt>
      <trkpt lat="45.40634" lon="5.91991">
        <ele>1732.818999287</ele>
        <time>2015-06-06T09:19:09Z</time>
      </trkpt>
      <trkpt lat="45.40646" lon="5.92008">
        <ele>1729.353316091</ele>
        <time>2015-06-06T09:19:14Z</time>
      </trkpt>
      <trkpt lat="45.40645" lon="5.92023">
        <ele>1727.20200642</ele>
        <time>2015-06-06T09:19:20Z</time>
      </trkpt>
      <trkpt lat="45.4065" lon="5.92037">
        <ele>1726.269065873</ele>
        <time>2015-06-06T09:19:24Z</time>
      </trkpt>
      <trkpt lat="45.40665" lon="5.92054">
        <ele>1725.597291701</ele>
        <time>2015-06-06T09:19:30Z</time>
      </trkpt>
      <trkpt lat="45.40664" lon="5.92071">
        <ele>1725.884139424</ele>
        <time>2015-06-06T09:19:34Z</time>
      </trkpt>
      <trkpt lat="45.40659" lon="5.92082">
        <ele>1727.052462429</ele>
        <time>2015-06-06T09:19:40Z</time>
      </trkpt>
      <trkpt lat="45.40657" lon="5.92089">
        <ele>1727.052462429</ele>
        <time>2015-06-06T09:19:44Z</time>
      </trkpt>
      <trkpt lat="45.40655" lon="5.92099">
        <ele>1729.316439116</ele>
        <time>2015-06-06T09:19:50Z</time>
      </trkpt>
      <trkpt lat="45.40659" lon="5.92104">
        <ele>1729.316439116</ele>
        <time>2015-06-06T09:19:54Z</time>
      </trkpt>
      <trkpt lat="45.4066" lon="5.92114">
        <ele>1732.294939962</ele>
        <time>2015-06-06T09:20:00Z</time>
      </trkpt>
      <trkpt lat="45.40662" lon="5.92118">
        <ele>1732.294939962</ele>
        <time>2015-06-06T09:20:04Z</time>
      </trkpt>
      <trkpt lat="45.40664" lon="5.92115">
        <ele>1732.294939962</ele>
        <time>2015-06-06T09:20:10Z</time>
      </trkpt>
      <trkpt lat="45.40666" lon="5.92114">
        <ele>1732.294939962</ele>
        <time>2015-06-06T09:20:14Z</time>
      </trkpt>
      <trkpt lat="45.40667" lon="5.92114">
        <ele>1735.200477926</ele>
        <time>2015-06-06T09:20:20Z</time>
      </trkpt>
      <trkpt lat="45.40667" lon="5.92114">
        <ele>1735.200477926</ele>
        <time>2015-06-06T09:20:24Z</time>
      </trkpt>
      <trkpt lat="45.40667" lon="5.92114">
        <ele>1735.200477926</ele>
        <time>2015-06-06T09:20:30Z</time>
      </trkpt>
      <trkpt lat="45.40667" lon="5.92114">
        <ele>1735.200477926</ele>
        <time>2015-06-06T09:20:33Z</time>
      </trkpt>
      <trkpt lat="45.40667" lon="5.92114">
        <ele>1735.200477926</ele>
        <time>2015-06-06T09:20:38Z</time>
      </trkpt>
      <trkpt lat="45.40667" lon="5.92113">
        <ele>1735.439616553</ele>
        <time>2015-06-06T09:20:43Z</time>
      </trkpt>
      <trkpt lat="45.40668" lon="5.92113">
        <ele>1735.678755181</ele>
        <time>2015-06-06T09:20:49Z</time>
      </trkpt>
      <trkpt lat="45.40668" lon="5.92113">
        <ele>1735.917893808</ele>
        <time>2015-06-06T09:22:20Z</time>
      </trkpt>
      <trkpt lat="45.40668" lon="5.92112">
        <ele>1736.157032436</ele>
        <time>2015-06-06T09:22:24Z</time>
      </trkpt>
      <trkpt lat="45.40668" lon="5.92112">
        <ele>1736.396171063</ele>
        <time>2015-06-06T09:22:30Z</time>
      </trkpt>
      <trkpt lat="45.40669" lon="5.92112">
        <ele>1736.635309691</ele>
        <time>2015-06-06T09:22:34Z</time>
      </trkpt>
      <trkpt lat="45.40669" lon="5.92112">
        <ele>1736.874448318</ele>
        <time>2015-06-06T09:22:40Z</time>
      </trkpt>
      <trkpt lat="45.40682" lon="5.92101">
        <ele>1737.113586946</ele>
        <time>2015-06-06T09:25:05Z</time>
      </trkpt>
      <trkpt lat="45.40696" lon="5.92101">
        <ele>1737.352725573</ele>
        <time>2015-06-06T09:25:09Z</time>
      </trkpt>
      <trkpt lat="45.40704" lon="5.92116">
        <ele>1737.591864201</ele>
        <time>2015-06-06T09:25:14Z</time>
      </trkpt>
      <trkpt lat="45.40716" lon="5.92135">
        <ele>1739.350044881</ele>
        <time>2015-06-06T09:25:19Z</time>
      </trkpt>
      <trkpt lat="45.40742" lon="5.92145">
        <ele>1741.231249689</ele>
        <time>2015-06-06T09:25:25Z</time>
      </trkpt>
      <trkpt lat="45.40774" lon="5.92174">
        <ele>1743.359490259</ele>
        <time>2015-06-06T09:25:29Z</time>
      </trkpt>
      <trkpt lat="45.40772" lon="5.92247">
        <ele>1751.037136167</ele>
        <time>2015-06-06T09:25:34Z</time>
      </trkpt>
      <trkpt lat="45.40772" lon="5.92248">
        <ele>1751.037136167</ele>
        <time>2015-06-06T09:25:40Z</time>
      </trkpt>
      <trkpt lat="45.40774" lon="5.92246">
        <ele>1751.037136167</ele>
        <time>2015-06-06T09:25:44Z</time>
      </trkpt>
      <trkpt lat="45.40774" lon="5.92246">
        <ele>1751.037136167</ele>
        <time>2015-06-06T09:25:50Z</time>
      </trkpt>
      <trkpt lat="45.40775" lon="5.92245">
        <ele>1751.037136167</ele>
        <time>2015-06-06T09:25:54Z</time>
      </trkpt>
      <trkpt lat="45.40778" lon="5.92246">
        <ele>1751.037136167</ele>
        <time>2015-06-06T09:26:00Z</time>
      </trkpt>
      <trkpt lat="45.40776" lon="5.92239">
        <ele>1759.362119978</ele>
        <time>2015-06-06T09:26:04Z</time>
      </trkpt>
      <trkpt lat="45.4078" lon="5.92237">
        <ele>1759.362119978</ele>
        <time>2015-06-06T09:26:10Z</time>
      </trkpt>
      <trkpt lat="45.40779" lon="5.92229">
        <ele>1767.681911237</ele>
        <time>2015-06-06T09:26:14Z</time>
      </trkpt>
      <trkpt lat="45.40783" lon="5.92229">
        <ele>1767.681911237</ele>
        <time>2015-06-06T09:26:20Z</time>
      </trkpt>
      <trkpt lat="45.40787" lon="5.92233">
        <ele>1767.681911237</ele>
        <time>2015-06-06T09:26:24Z</time>
      </trkpt>
      <trkpt lat="45.40789" lon="5.92225">
        <ele>1775.824567884</ele>
        <time>2015-06-06T09:26:30Z</time>
      </trkpt>
      <trkpt lat="45.4079" lon="5.92217">
        <ele>1775.824567884</ele>
        <time>2015-06-06T09:26:34Z</time>
      </trkpt>
      <trkpt lat="45.40795" lon="5.92218">
        <ele>1783.631641436</ele>
        <time>2015-06-06T09:26:40Z</time>
      </trkpt>
      <trkpt lat="45.40802" lon="5.92219">
        <ele>1783.631641436</ele>
        <time>2015-06-06T09:26:44Z</time>
      </trkpt>
      <trkpt lat="45.40803" lon="5.92214">
        <ele>1790.525349586</ele>
        <time>2015-06-06T09:26:50Z</time>
      </trkpt>
      <trkpt lat="45.40804" lon="5.92209">
        <ele>1790.525349586</ele>
        <time>2015-06-06T09:26:54Z</time>
      </trkpt>
      <trkpt lat="45.40807" lon="5.92205">
        <ele>1790.525349586</ele>
        <time>2015-06-06T09:27:00Z</time>
      </trkpt>
      <trkpt lat="45.40807" lon="5.92205">
        <ele>1790.525349586</ele>
        <time>2015-06-06T09:27:04Z</time>
      </trkpt>
      <trkpt lat="45.40805" lon="5.92205">
        <ele>1798.567382836</ele>
        <time>2015-06-06T09:27:10Z</time>
      </trkpt>
      <trkpt lat="45.40807" lon="5.92203">
        <ele>1798.567382836</ele>
        <time>2015-06-06T09:27:13Z</time>
      </trkpt>
      <trkpt lat="45.4081" lon="5.92201">
        <ele>1798.567382836</ele>
        <time>2015-06-06T09:27:18Z</time>
      </trkpt>
      <trkpt lat="45.40812" lon="5.92204">
        <ele>1798.567382836</ele>
        <time>2015-06-06T09:27:23Z</time>
      </trkpt>
      <trkpt lat="45.4081" lon="5.92191">
        <ele>1805.053706702</ele>
        <time>2015-06-06T09:27:30Z</time>
      </trkpt>
      <trkpt lat="45.40807" lon="5.92184">
        <ele>1805.053706702</ele>
        <time>2015-06-06T09:27:34Z</time>
      </trkpt>
      <trkpt lat="45.40804" lon="5.92177">
        <ele>1810.942490819</ele>
        <time>2015-06-06T09:27:40Z</time>
      </trkpt>
      <trkpt lat="45.408" lon="5.92175">
        <ele>1810.942490819</ele>
        <time>2015-06-06T09:27:44Z</time>
      </trkpt>
      <trkpt lat="45.40792" lon="5.92175">
        <ele>1816.547308364</ele>
        <time>2015-06-06T09:27:50Z</time>
      </trkpt>
      <trkpt lat="45.40789" lon="5.92174">
        <ele>1816.547308364</ele>
        <time>2015-06-06T09:27:54Z</time>
      </trkpt>
      <trkpt lat="45.40784" lon="5.92167">
        <ele>1822.015958106</ele>
        <time>2015-06-06T09:28:00Z</time>
      </trkpt>
      <trkpt lat="45.40778" lon="5.92166">
        <ele>1822.015958106</ele>
        <time>2015-06-06T09:28:04Z</time>
      </trkpt>
      <trkpt lat="45.40772" lon="5.92167">
        <ele>1826.6216796</ele>
        <time>2015-06-06T09:28:10Z</time>
      </trkpt>
      <trkpt lat="45.40771" lon="5.92161">
        <ele>1826.6216796</ele>
        <time>2015-06-06T09:28:14Z</time>
      </trkpt>
      <trkpt lat="45.40766" lon="5.92155">
        <ele>1830.270549348</ele>
        <time>2015-06-06T09:28:20Z</time>
      </trkpt>
      <trkpt lat="45.40765" lon="5.92152">
        <ele>1830.270549348</ele>
        <time>2015-06-06T09:28:24Z</time>
      </trkpt>
      <trkpt lat="45.40761" lon="5.92145">
        <ele>1830.270549348</ele>
        <time>2015-06-06T09:28:30Z</time>
      </trkpt>
      <trkpt lat="45.40753" lon="5.92148">
        <ele>1833.022916939</ele>
        <time>2015-06-06T09:28:34Z</time>
      </trkpt>
      <trkpt lat="45.40748" lon="5.92144">
        <ele>1833.022916939</ele>
        <time>2015-06-06T09:28:40Z</time>
      </trkpt>
      <trkpt lat="45.40747" lon="5.92144">
        <ele>1833.022916939</ele>
        <time>2015-06-06T09:28:44Z</time>
      </trkpt>
      <trkpt lat="45.40743" lon="5.92139">
        <ele>1835.081889347</ele>
        <time>2015-06-06T09:28:49Z</time>
      </trkpt>
      <trkpt lat="45.40742" lon="5.92137">
        <ele>1835.081889347</ele>
        <time>2015-06-06T09:28:54Z</time>
      </trkpt>
      <trkpt lat="45.40739" lon="5.92135">
        <ele>1835.081889347</ele>
        <time>2015-06-06T09:29:00Z</time>
      </trkpt>
      <trkpt lat="45.40739" lon="5.92137">
        <ele>1835.081889347</ele>
        <time>2015-06-06T09:29:04Z</time>
      </trkpt>
      <trkpt lat="45.40739" lon="5.92138">
        <ele>1835.081889347</ele>
        <time>2015-06-06T09:29:10Z</time>
      </trkpt>
      <trkpt lat="45.40739" lon="5.92137">
        <ele>1835.081889347</ele>
        <time>2015-06-06T09:29:14Z</time>
      </trkpt>
      <trkpt lat="45.40739" lon="5.92138">
        <ele>1835.081889347</ele>
        <time>2015-06-06T09:29:20Z</time>
      </trkpt>
      <trkpt lat="45.40738" lon="5.92138">
        <ele>1835.081889347</ele>
        <time>2015-06-06T09:29:24Z</time>
      </trkpt>
      <trkpt lat="45.40739" lon="5.92138">
        <ele>1835.081889347</ele>
        <time>2015-06-06T09:29:30Z</time>
      </trkpt>
      <trkpt lat="45.40739" lon="5.92138">
        <ele>1835.081889347</ele>
        <time>2015-06-06T09:29:34Z</time>
      </trkpt>
      <trkpt lat="45.40739" lon="5.92138">
        <ele>1835.081889347</ele>
        <time>2015-06-06T09:29:40Z</time>
      </trkpt>
      <trkpt lat="45.40738" lon="5.92138">
        <ele>1835.081889347</ele>
        <time>2015-06-06T09:29:44Z</time>
      </trkpt>
      <trkpt lat="45.40729" lon="5.92142">
        <ele>1837.791033462</ele>
        <time>2015-06-06T09:29:50Z</time>
      </trkpt>
      <trkpt lat="45.40727" lon="5.92144">
        <ele>1837.791033462</ele>
        <time>2015-06-06T09:29:54Z</time>
      </trkpt>
      <trkpt lat="45.4072" lon="5.9214">
        <ele>1839.94402652</ele>
        <time>2015-06-06T09:30:00Z</time>
      </trkpt>
      <trkpt lat="45.40715" lon="5.92139">
        <ele>1839.94402652</ele>
        <time>2015-06-06T09:30:04Z</time>
      </trkpt>
      <trkpt lat="45.40711" lon="5.92136">
        <ele>1842.154551945</ele>
        <time>2015-06-06T09:30:10Z</time>
      </trkpt>
      <trkpt lat="45.40706" lon="5.92138">
        <ele>1842.154551945</ele>
        <time>2015-06-06T09:30:14Z</time>
      </trkpt>
      <trkpt lat="45.40707" lon="5.92137">
        <ele>1842.154551945</ele>
        <time>2015-06-06T09:30:19Z</time>
      </trkpt>
      <trkpt lat="45.40708" lon="5.92137">
        <ele>1842.154551945</ele>
        <time>2015-06-06T09:30:24Z</time>
      </trkpt>
      <trkpt lat="45.40707" lon="5.92137">
        <ele>1842.154551945</ele>
        <time>2015-06-06T09:30:28Z</time>
      </trkpt>
      <trkpt lat="45.40707" lon="5.92137">
        <ele>1842.154551945</ele>
        <time>2015-06-06T09:30:34Z</time>
      </trkpt>
      <trkpt lat="45.40707" lon="5.92137">
        <ele>1842.154551945</ele>
        <time>2015-06-06T09:30:38Z</time>
      </trkpt>
      <trkpt lat="45.40707" lon="5.92137">
        <ele>1842.154551945</ele>
        <time>2015-06-06T09:30:45Z</time>
      </trkpt>
      <trkpt lat="45.40707" lon="5.92137">
        <ele>1842.154551945</ele>
        <time>2015-06-06T09:30:49Z</time>
      </trkpt>
      <trkpt lat="45.40707" lon="5.92137">
        <ele>1842.154551945</ele>
        <time>2015-06-06T09:30:54Z</time>
      </trkpt>
      <trkpt lat="45.40707" lon="5.92137">
        <ele>1842.154551945</ele>
        <time>2015-06-06T09:31:00Z</time>
      </trkpt>
      <trkpt lat="45.40705" lon="5.92136">
        <ele>1844.847411131</ele>
        <time>2015-06-06T09:31:04Z</time>
      </trkpt>
      <trkpt lat="45.40701" lon="5.92138">
        <ele>1844.847411131</ele>
        <time>2015-06-06T09:31:10Z</time>
      </trkpt>
      <trkpt lat="45.40695" lon="5.92137">
        <ele>1847.118292963</ele>
        <time>2015-06-06T09:31:14Z</time>
      </trkpt>
      <trkpt lat="45.40689" lon="5.92131">
        <ele>1847.118292963</ele>
        <time>2015-06-06T09:31:20Z</time>
      </trkpt>
      <trkpt lat="45.40683" lon="5.92133">
        <ele>1849.139700409</ele>
        <time>2015-06-06T09:31:24Z</time>
      </trkpt>
      <trkpt lat="45.40684" lon="5.92132">
        <ele>1849.139700409</ele>
        <time>2015-06-06T09:31:30Z</time>
      </trkpt>
      <trkpt lat="45.40685" lon="5.92132">
        <ele>1849.139700409</ele>
        <time>2015-06-06T09:31:34Z</time>
      </trkpt>
      <trkpt lat="45.40685" lon="5.92133">
        <ele>1849.139700409</ele>
        <time>2015-06-06T09:31:40Z</time>
      </trkpt>
      <trkpt lat="45.40685" lon="5.92133">
        <ele>1849.139700409</ele>
        <time>2015-06-06T09:31:44Z</time>
      </trkpt>
      <trkpt lat="45.40685" lon="5.92133">
        <ele>1849.139700409</ele>
        <time>2015-06-06T09:31:50Z</time>
      </trkpt>
      <trkpt lat="45.40685" lon="5.92133">
        <ele>1849.139700409</ele>
        <time>2015-06-06T09:31:54Z</time>
      </trkpt>
      <trkpt lat="45.40685" lon="5.92133">
        <ele>1849.139700409</ele>
        <time>2015-06-06T09:32:00Z</time>
      </trkpt>
      <trkpt lat="45.40685" lon="5.92133">
        <ele>1849.139700409</ele>
        <time>2015-06-06T09:32:04Z</time>
      </trkpt>
      <trkpt lat="45.40685" lon="5.92133">
        <ele>1849.139700409</ele>
        <time>2015-06-06T09:32:10Z</time>
      </trkpt>
      <trkpt lat="45.40686" lon="5.92132">
        <ele>1849.139700409</ele>
        <time>2015-06-06T09:32:14Z</time>
      </trkpt>
      <trkpt lat="45.40687" lon="5.92125">
        <ele>1849.139700409</ele>
        <time>2015-06-06T09:32:20Z</time>
      </trkpt>
      <trkpt lat="45.40688" lon="5.92123">
        <ele>1851.649007525</ele>
        <time>2015-06-06T09:32:24Z</time>
      </trkpt>
      <trkpt lat="45.40688" lon="5.92125">
        <ele>1851.649007525</ele>
        <time>2015-06-06T09:32:30Z</time>
      </trkpt>
      <trkpt lat="45.40688" lon="5.92125">
        <ele>1851.649007525</ele>
        <time>2015-06-06T09:32:34Z</time>
      </trkpt>
      <trkpt lat="45.40688" lon="5.92125">
        <ele>1851.649007525</ele>
        <time>2015-06-06T09:32:40Z</time>
      </trkpt>
      <trkpt lat="45.40688" lon="5.92125">
        <ele>1851.649007525</ele>
        <time>2015-06-06T09:32:44Z</time>
      </trkpt>
      <trkpt lat="45.40689" lon="5.92122">
        <ele>1851.649007525</ele>
        <time>2015-06-06T09:32:50Z</time>
      </trkpt>
      <trkpt lat="45.40687" lon="5.9212">
        <ele>1851.649007525</ele>
        <time>2015-06-06T09:32:54Z</time>
      </trkpt>
      <trkpt lat="45.40686" lon="5.92119">
        <ele>1851.649007525</ele>
        <time>2015-06-06T09:33:00Z</time>
      </trkpt>
      <trkpt lat="45.40684" lon="5.92117">
        <ele>1853.887316084</ele>
        <time>2015-06-06T09:33:04Z</time>
      </trkpt>
      <trkpt lat="45.40683" lon="5.92117">
        <ele>1853.887316084</ele>
        <time>2015-06-06T09:33:10Z</time>
      </trkpt>
      <trkpt lat="45.40684" lon="5.92115">
        <ele>1853.887316084</ele>
        <time>2015-06-06T09:33:14Z</time>
      </trkpt>
      <trkpt lat="45.40684" lon="5.92115">
        <ele>1853.887316084</ele>
        <time>2015-06-06T09:33:20Z</time>
      </trkpt>
      <trkpt lat="45.40684" lon="5.92115">
        <ele>1853.887316084</ele>
        <time>2015-06-06T09:33:24Z</time>
      </trkpt>
      <trkpt lat="45.40684" lon="5.92115">
        <ele>1853.887316084</ele>
        <time>2015-06-06T09:33:30Z</time>
      </trkpt>
      <trkpt lat="45.40684" lon="5.92115">
        <ele>1853.887316084</ele>
        <time>2015-06-06T09:33:34Z</time>
      </trkpt>
      <trkpt lat="45.40682" lon="5.92109">
        <ele>1853.887316084</ele>
        <time>2015-06-06T09:33:38Z</time>
      </trkpt>
      <trkpt lat="45.40681" lon="5.92105">
        <ele>1853.887316084</ele>
        <time>2015-06-06T09:33:44Z</time>
      </trkpt>
      <trkpt lat="45.4068" lon="5.92107">
        <ele>1854.143806679</ele>
        <time>2015-06-06T09:33:48Z</time>
      </trkpt>
      <trkpt lat="45.40679" lon="5.92104">
        <ele>1854.143806679</ele>
        <time>2015-06-06T09:33:54Z</time>
      </trkpt>
      <trkpt lat="45.40679" lon="5.92105">
        <ele>1854.143806679</ele>
        <time>2015-06-06T09:34:00Z</time>
      </trkpt>
      <trkpt lat="45.40679" lon="5.92105">
        <ele>1854.143806679</ele>
        <time>2015-06-06T09:34:04Z</time>
      </trkpt>
      <trkpt lat="45.40679" lon="5.92106">
        <ele>1854.143806679</ele>
        <time>2015-06-06T09:34:10Z</time>
      </trkpt>
      <trkpt lat="45.40679" lon="5.92105">
        <ele>1854.143806679</ele>
        <time>2015-06-06T09:34:14Z</time>
      </trkpt>
      <trkpt lat="45.4068" lon="5.92096">
        <ele>1853.72143774</ele>
        <time>2015-06-06T09:34:20Z</time>
      </trkpt>
      <trkpt lat="45.40685" lon="5.92092">
        <ele>1853.72143774</ele>
        <time>2015-06-06T09:34:24Z</time>
      </trkpt>
      <trkpt lat="45.40687" lon="5.92091">
        <ele>1853.72143774</ele>
        <time>2015-06-06T09:34:30Z</time>
      </trkpt>
      <trkpt lat="45.40687" lon="5.92092">
        <ele>1852.100307603</ele>
        <time>2015-06-06T09:34:34Z</time>
      </trkpt>
      <trkpt lat="45.40686" lon="5.92092">
        <ele>1852.100307603</ele>
        <time>2015-06-06T09:34:40Z</time>
      </trkpt>
      <trkpt lat="45.40687" lon="5.92091">
        <ele>1852.100307603</ele>
        <time>2015-06-06T09:34:44Z</time>
      </trkpt>
      <trkpt lat="45.40687" lon="5.92091">
        <ele>1852.100307603</ele>
        <time>2015-06-06T09:34:49Z</time>
      </trkpt>
      <trkpt lat="45.40687" lon="5.92091">
        <ele>1852.100307603</ele>
        <time>2015-06-06T09:34:54Z</time>
      </trkpt>
      <trkpt lat="45.40687" lon="5.92091">
        <ele>1852.100307603</ele>
        <time>2015-06-06T09:35:00Z</time>
      </trkpt>
      <trkpt lat="45.40687" lon="5.92091">
        <ele>1852.100307603</ele>
        <time>2015-06-06T09:35:04Z</time>
      </trkpt>
      <trkpt lat="45.40687" lon="5.92091">
        <ele>1852.100307603</ele>
        <time>2015-06-06T09:35:10Z</time>
      </trkpt>
      <trkpt lat="45.40688" lon="5.92085">
        <ele>1852.100307603</ele>
        <time>2015-06-06T09:35:14Z</time>
      </trkpt>
      <trkpt lat="45.40688" lon="5.9208">
        <ele>1850.243423883</ele>
        <time>2015-06-06T09:35:20Z</time>
      </trkpt>
      <trkpt lat="45.40688" lon="5.92075">
        <ele>1850.243423883</ele>
        <time>2015-06-06T09:35:24Z</time>
      </trkpt>
      <trkpt lat="45.40689" lon="5.92072">
        <ele>1850.243423883</ele>
        <time>2015-06-06T09:35:30Z</time>
      </trkpt>
      <trkpt lat="45.40688" lon="5.92068">
        <ele>1850.243423883</ele>
        <time>2015-06-06T09:35:34Z</time>
      </trkpt>
      <trkpt lat="45.40687" lon="5.92067">
        <ele>1847.60279819</ele>
        <time>2015-06-06T09:35:40Z</time>
      </trkpt>
      <trkpt lat="45.40687" lon="5.92067">
        <ele>1847.60279819</ele>
        <time>2015-06-06T09:35:44Z</time>
      </trkpt>
      <trkpt lat="45.40688" lon="5.92067">
        <ele>1847.60279819</ele>
        <time>2015-06-06T09:35:50Z</time>
      </trkpt>
      <trkpt lat="45.40688" lon="5.92067">
        <ele>1847.60279819</ele>
        <time>2015-06-06T09:35:54Z</time>
      </trkpt>
      <trkpt lat="45.40689" lon="5.92069">
        <ele>1847.60279819</ele>
        <time>2015-06-06T09:36:00Z</time>
      </trkpt>
      <trkpt lat="45.40686" lon="5.92067">
        <ele>1847.60279819</ele>
        <time>2015-06-06T09:36:04Z</time>
      </trkpt>
      <trkpt lat="45.40686" lon="5.92066">
        <ele>1847.60279819</ele>
        <time>2015-06-06T09:36:10Z</time>
      </trkpt>
      <trkpt lat="45.40686" lon="5.92065">
        <ele>1847.60279819</ele>
        <time>2015-06-06T09:36:14Z</time>
      </trkpt>
      <trkpt lat="45.40688" lon="5.92056">
        <ele>1844.970043784</ele>
        <time>2015-06-06T09:36:20Z</time>
      </trkpt>
      <trkpt lat="45.40688" lon="5.92056">
        <ele>1844.970043784</ele>
        <time>2015-06-06T09:36:24Z</time>
      </trkpt>
      <trkpt lat="45.40687" lon="5.92056">
        <ele>1844.970043784</ele>
        <time>2015-06-06T09:36:30Z</time>
      </trkpt>
      <trkpt lat="45.40687" lon="5.92056">
        <ele>1844.970043784</ele>
        <time>2015-06-06T09:36:34Z</time>
      </trkpt>
      <trkpt lat="45.40689" lon="5.92059">
        <ele>1844.970043784</ele>
        <time>2015-06-06T09:36:40Z</time>
      </trkpt>
      <trkpt lat="45.40688" lon="5.92057">
        <ele>1844.970043784</ele>
        <time>2015-06-06T09:36:44Z</time>
      </trkpt>
      <trkpt lat="45.40688" lon="5.92057">
        <ele>1844.970043784</ele>
        <time>2015-06-06T09:36:50Z</time>
      </trkpt>
      <trkpt lat="45.40688" lon="5.92057">
        <ele>1844.970043784</ele>
        <time>2015-06-06T09:36:53Z</time>
      </trkpt>
      <trkpt lat="45.40688" lon="5.92056">
        <ele>1844.970043784</ele>
        <time>2015-06-06T09:36:59Z</time>
      </trkpt>
      <trkpt lat="45.40688" lon="5.92056">
        <ele>1844.970043784</ele>
        <time>2015-06-06T09:37:03Z</time>
      </trkpt>
      <trkpt lat="45.40688" lon="5.92056">
        <ele>1844.970043784</ele>
        <time>2015-06-06T09:37:09Z</time>
      </trkpt>
      <trkpt lat="45.40688" lon="5.92056">
        <ele>1844.970043784</ele>
        <time>2015-06-06T09:37:14Z</time>
      </trkpt>
      <trkpt lat="45.40688" lon="5.92056">
        <ele>1844.970043784</ele>
        <time>2015-06-06T09:37:19Z</time>
      </trkpt>
      <trkpt lat="45.40686" lon="5.92052">
        <ele>1844.970043784</ele>
        <time>2015-06-06T09:37:24Z</time>
      </trkpt>
      <trkpt lat="45.40682" lon="5.92046">
        <ele>1841.781697461</ele>
        <time>2015-06-06T09:37:29Z</time>
      </trkpt>
      <trkpt lat="45.40683" lon="5.92047">
        <ele>1841.781697461</ele>
        <time>2015-06-06T09:37:33Z</time>
      </trkpt>
      <trkpt lat="45.40683" lon="5.92047">
        <ele>1841.781697461</ele>
        <time>2015-06-06T09:37:40Z</time>
      </trkpt>
      <trkpt lat="45.40681" lon="5.92041">
        <ele>1841.781697461</ele>
        <time>2015-06-06T09:37:44Z</time>
      </trkpt>
      <trkpt lat="45.4068" lon="5.92037">
        <ele>1837.373181422</ele>
        <time>2015-06-06T09:37:50Z</time>
      </trkpt>
      <trkpt lat="45.40679" lon="5.92034">
        <ele>1837.373181422</ele>
        <time>2015-06-06T09:37:54Z</time>
      </trkpt>
      <trkpt lat="45.40677" lon="5.92032">
        <ele>1837.373181422</ele>
        <time>2015-06-06T09:38:00Z</time>
      </trkpt>
      <trkpt lat="45.40675" lon="5.92026">
        <ele>1832.429154833</ele>
        <time>2015-06-06T09:38:04Z</time>
      </trkpt>
      <trkpt lat="45.40675" lon="5.92028">
        <ele>1832.429154833</ele>
        <time>2015-06-06T09:38:10Z</time>
      </trkpt>
      <trkpt lat="45.40676" lon="5.92028">
        <ele>1832.429154833</ele>
        <time>2015-06-06T09:38:14Z</time>
      </trkpt>
      <trkpt lat="45.40675" lon="5.92026">
        <ele>1832.429154833</ele>
        <time>2015-06-06T09:38:20Z</time>
      </trkpt>
      <trkpt lat="45.40675" lon="5.92026">
        <ele>1832.429154833</ele>
        <time>2015-06-06T09:38:24Z</time>
      </trkpt>
      <trkpt lat="45.40675" lon="5.92026">
        <ele>1832.429154833</ele>
        <time>2015-06-06T09:38:29Z</time>
      </trkpt>
      <trkpt lat="45.40675" lon="5.92024">
        <ele>1832.429154833</ele>
        <time>2015-06-06T09:38:34Z</time>
      </trkpt>
      <trkpt lat="45.40673" lon="5.92021">
        <ele>1832.429154833</ele>
        <time>2015-06-06T09:38:40Z</time>
      </trkpt>
      <trkpt lat="45.40671" lon="5.92016">
        <ele>1827.15309184</ele>
        <time>2015-06-06T09:38:44Z</time>
      </trkpt>
      <trkpt lat="45.40668" lon="5.92009">
        <ele>1827.15309184</ele>
        <time>2015-06-06T09:38:50Z</time>
      </trkpt>
      <trkpt lat="45.40669" lon="5.92008">
        <ele>1827.15309184</ele>
        <time>2015-06-06T09:38:54Z</time>
      </trkpt>
      <trkpt lat="45.40667" lon="5.92008">
        <ele>1827.15309184</ele>
        <time>2015-06-06T09:39:00Z</time>
      </trkpt>
      <trkpt lat="45.40667" lon="5.92008">
        <ele>1827.15309184</ele>
        <time>2015-06-06T09:39:04Z</time>
      </trkpt>
      <trkpt lat="45.40667" lon="5.92008">
        <ele>1827.15309184</ele>
        <time>2015-06-06T09:39:10Z</time>
      </trkpt>
      <trkpt lat="45.40667" lon="5.92008">
        <ele>1827.15309184</ele>
        <time>2015-06-06T09:39:14Z</time>
      </trkpt>
      <trkpt lat="45.40663" lon="5.92004">
        <ele>1821.157892259</ele>
        <time>2015-06-06T09:39:20Z</time>
      </trkpt>
      <trkpt lat="45.40662" lon="5.92001">
        <ele>1821.157892259</ele>
        <time>2015-06-06T09:39:24Z</time>
      </trkpt>
      <trkpt lat="45.4066" lon="5.91997">
        <ele>1821.157892259</ele>
        <time>2015-06-06T09:39:30Z</time>
      </trkpt>
      <trkpt lat="45.40659" lon="5.91993">
        <ele>1821.157892259</ele>
        <time>2015-06-06T09:39:34Z</time>
      </trkpt>
      <trkpt lat="45.40652" lon="5.91985">
        <ele>1814.230850209</ele>
        <time>2015-06-06T09:39:40Z</time>
      </trkpt>
      <trkpt lat="45.40646" lon="5.91981">
        <ele>1814.230850209</ele>
        <time>2015-06-06T09:39:44Z</time>
      </trkpt>
      <trkpt lat="45.40643" lon="5.9198">
        <ele>1808.050719531</ele>
        <time>2015-06-06T09:39:50Z</time>
      </trkpt>
      <trkpt lat="45.40642" lon="5.91979">
        <ele>1808.050719531</ele>
        <time>2015-06-06T09:39:54Z</time>
      </trkpt>
      <trkpt lat="45.40641" lon="5.91978">
        <ele>1808.050719531</ele>
        <time>2015-06-06T09:40:00Z</time>
      </trkpt>
      <trkpt lat="45.40641" lon="5.91977">
        <ele>1808.050719531</ele>
        <time>2015-06-06T09:40:04Z</time>
      </trkpt>
      <trkpt lat="45.40641" lon="5.91977">
        <ele>1808.050719531</ele>
        <time>2015-06-06T09:40:10Z</time>
      </trkpt>
      <trkpt lat="45.40641" lon="5.91977">
        <ele>1808.050719531</ele>
        <time>2015-06-06T09:40:14Z</time>
      </trkpt>
      <trkpt lat="45.40637" lon="5.91972">
        <ele>1808.050719531</ele>
        <time>2015-06-06T09:40:19Z</time>
      </trkpt>
      <trkpt lat="45.40634" lon="5.91969">
        <ele>1801.864782683</ele>
        <time>2015-06-06T09:40:24Z</time>
      </trkpt>
      <trkpt lat="45.40631" lon="5.91965">
        <ele>1801.864782683</ele>
        <time>2015-06-06T09:40:28Z</time>
      </trkpt>
      <trkpt lat="45.40632" lon="5.91964">
        <ele>1801.864782683</ele>
        <time>2015-06-06T09:40:33Z</time>
      </trkpt>
      <trkpt lat="45.40625" lon="5.91953">
        <ele>1795.119416813</ele>
        <time>2015-06-06T09:40:40Z</time>
      </trkpt>
      <trkpt lat="45.40621" lon="5.91948">
        <ele>1795.119416813</ele>
        <time>2015-06-06T09:40:44Z</time>
      </trkpt>
      <trkpt lat="45.4062" lon="5.91944">
        <ele>1795.119416813</ele>
        <time>2015-06-06T09:40:50Z</time>
      </trkpt>
      <trkpt lat="45.4062" lon="5.91944">
        <ele>1795.119416813</ele>
        <time>2015-06-06T09:40:54Z</time>
      </trkpt>
      <trkpt lat="45.4062" lon="5.91943">
        <ele>1795.119416813</ele>
        <time>2015-06-06T09:41:00Z</time>
      </trkpt>
      <trkpt lat="45.4062" lon="5.91943">
        <ele>1795.119416813</ele>
        <time>2015-06-06T09:41:04Z</time>
      </trkpt>
      <trkpt lat="45.40619" lon="5.9194">
        <ele>1789.032199873</ele>
        <time>2015-06-06T09:41:10Z</time>
      </trkpt>
      <trkpt lat="45.40615" lon="5.9194">
        <ele>1789.032199873</ele>
        <time>2015-06-06T09:41:14Z</time>
      </trkpt>
      <trkpt lat="45.40616" lon="5.91939">
        <ele>1789.032199873</ele>
        <time>2015-06-06T09:41:20Z</time>
      </trkpt>
      <trkpt lat="45.40614" lon="5.91939">
        <ele>1789.032199873</ele>
        <time>2015-06-06T09:41:24Z</time>
      </trkpt>
      <trkpt lat="45.40614" lon="5.9194">
        <ele>1789.032199873</ele>
        <time>2015-06-06T09:41:30Z</time>
      </trkpt>
      <trkpt lat="45.40614" lon="5.91939">
        <ele>1789.032199873</ele>
        <time>2015-06-06T09:41:34Z</time>
      </trkpt>
      <trkpt lat="45.40614" lon="5.91938">
        <ele>1789.032199873</ele>
        <time>2015-06-06T09:41:40Z</time>
      </trkpt>
      <trkpt lat="45.40614" lon="5.91938">
        <ele>1789.032199873</ele>
        <time>2015-06-06T09:41:44Z</time>
      </trkpt>
      <trkpt lat="45.40614" lon="5.91938">
        <ele>1789.032199873</ele>
        <time>2015-06-06T09:41:50Z</time>
      </trkpt>
      <trkpt lat="45.40614" lon="5.91938">
        <ele>1789.032199873</ele>
        <time>2015-06-06T09:41:54Z</time>
      </trkpt>
      <trkpt lat="45.40614" lon="5.91938">
        <ele>1789.032199873</ele>
        <time>2015-06-06T09:41:59Z</time>
      </trkpt>
      <trkpt lat="45.40614" lon="5.91938">
        <ele>1789.032199873</ele>
        <time>2015-06-06T09:42:03Z</time>
      </trkpt>
      <trkpt lat="45.40614" lon="5.91938">
        <ele>1789.032199873</ele>
        <time>2015-06-06T09:42:08Z</time>
      </trkpt>
      <trkpt lat="45.4061" lon="5.91936">
        <ele>1783.28789935</ele>
        <time>2015-06-06T09:42:14Z</time>
      </trkpt>
      <trkpt lat="45.4061" lon="5.91935">
        <ele>1783.28789935</ele>
        <time>2015-06-06T09:42:19Z</time>
      </trkpt>
      <trkpt lat="45.40608" lon="5.91934">
        <ele>1783.28789935</ele>
        <time>2015-06-06T09:42:24Z</time>
      </trkpt>
      <trkpt lat="45.40608" lon="5.91934">
        <ele>1783.28789935</ele>
        <time>2015-06-06T09:42:29Z</time>
      </trkpt>
      <trkpt lat="45.40608" lon="5.91934">
        <ele>1783.28789935</ele>
        <time>2015-06-06T09:42:34Z</time>
      </trkpt>
      <trkpt lat="45.40608" lon="5.91934">
        <ele>1783.28789935</ele>
        <time>2015-06-06T09:42:39Z</time>
      </trkpt>
      <trkpt lat="45.40608" lon="5.91934">
        <ele>1783.28789935</ele>
        <time>2015-06-06T09:42:44Z</time>
      </trkpt>
      <trkpt lat="45.40608" lon="5.91933">
        <ele>1783.28789935</ele>
        <time>2015-06-06T09:42:49Z</time>
      </trkpt>
      <trkpt lat="45.40607" lon="5.91931">
        <ele>1783.28789935</ele>
        <time>2015-06-06T09:42:54Z</time>
      </trkpt>
      <trkpt lat="45.40601" lon="5.91926">
        <ele>1777.160699736</ele>
        <time>2015-06-06T09:42:59Z</time>
      </trkpt>
      <trkpt lat="45.40599" lon="5.91923">
        <ele>1777.160699736</ele>
        <time>2015-06-06T09:43:04Z</time>
      </trkpt>
      <trkpt lat="45.40596" lon="5.9191">
        <ele>1770.987481774</ele>
        <time>2015-06-06T09:43:09Z</time>
      </trkpt>
      <trkpt lat="45.40598" lon="5.91906">
        <ele>1770.987481774</ele>
        <time>2015-06-06T09:43:14Z</time>
      </trkpt>
      <trkpt lat="45.40594" lon="5.91904">
        <ele>1770.987481774</ele>
        <time>2015-06-06T09:43:19Z</time>
      </trkpt>
      <trkpt lat="45.40592" lon="5.91905">
        <ele>1765.512343604</ele>
        <time>2015-06-06T09:43:24Z</time>
      </trkpt>
      <trkpt lat="45.40592" lon="5.91905">
        <ele>1765.512343604</ele>
        <time>2015-06-06T09:43:29Z</time>
      </trkpt>
      <trkpt lat="45.40592" lon="5.91905">
        <ele>1765.512343604</ele>
        <time>2015-06-06T09:43:34Z</time>
      </trkpt>
      <trkpt lat="45.40592" lon="5.91905">
        <ele>1765.512343604</ele>
        <time>2015-06-06T09:43:38Z</time>
      </trkpt>
      <trkpt lat="45.40592" lon="5.91905">
        <ele>1765.512343604</ele>
        <time>2015-06-06T09:43:44Z</time>
      </trkpt>
      <trkpt lat="45.40592" lon="5.91905">
        <ele>1765.512343604</ele>
        <time>2015-06-06T09:43:48Z</time>
      </trkpt>
      <trkpt lat="45.40593" lon="5.91904">
        <ele>1765.512343604</ele>
        <time>2015-06-06T09:43:54Z</time>
      </trkpt>
      <trkpt lat="45.40593" lon="5.91904">
        <ele>1765.512343604</ele>
        <time>2015-06-06T09:43:58Z</time>
      </trkpt>
      <trkpt lat="45.40593" lon="5.91904">
        <ele>1765.512343604</ele>
        <time>2015-06-06T09:44:05Z</time>
      </trkpt>
      <trkpt lat="45.40593" lon="5.91904">
        <ele>1765.512343604</ele>
        <time>2015-06-06T09:44:09Z</time>
      </trkpt>
      <trkpt lat="45.40593" lon="5.91904">
        <ele>1765.512343604</ele>
        <time>2015-06-06T09:44:14Z</time>
      </trkpt>
      <trkpt lat="45.40593" lon="5.91904">
        <ele>1765.512343604</ele>
        <time>2015-06-06T09:44:19Z</time>
      </trkpt>
      <trkpt lat="45.40589" lon="5.9189">
        <ele>1758.684131179</ele>
        <time>2015-06-06T09:44:24Z</time>
      </trkpt>
      <trkpt lat="45.40585" lon="5.91877">
        <ele>1752.35251304</ele>
        <time>2015-06-06T09:44:29Z</time>
      </trkpt>
      <trkpt lat="45.40581" lon="5.91873">
        <ele>1752.35251304</ele>
        <time>2015-06-06T09:44:34Z</time>
      </trkpt>
      <trkpt lat="45.40574" lon="5.91868">
        <ele>1746.067664514</ele>
        <time>2015-06-06T09:44:39Z</time>
      </trkpt>
      <trkpt lat="45.40568" lon="5.91865">
        <ele>1746.067664514</ele>
        <time>2015-06-06T09:44:44Z</time>
      </trkpt>
      <trkpt lat="45.40564" lon="5.9186">
        <ele>1740.997326792</ele>
        <time>2015-06-06T09:44:49Z</time>
      </trkpt>
      <trkpt lat="45.40566" lon="5.91858">
        <ele>1740.997326792</ele>
        <time>2015-06-06T09:44:54Z</time>
      </trkpt>
      <trkpt lat="45.40565" lon="5.91859">
        <ele>1740.997326792</ele>
        <time>2015-06-06T09:44:59Z</time>
      </trkpt>
      <trkpt lat="45.40564" lon="5.91859">
        <ele>1740.997326792</ele>
        <time>2015-06-06T09:45:04Z</time>
      </trkpt>
      <trkpt lat="45.40563" lon="5.91859">
        <ele>1740.997326792</ele>
        <time>2015-06-06T09:45:09Z</time>
      </trkpt>
      <trkpt lat="45.40563" lon="5.91859">
        <ele>1740.997326792</ele>
        <time>2015-06-06T09:45:14Z</time>
      </trkpt>
      <trkpt lat="45.40556" lon="5.91853">
        <ele>1735.769583704</ele>
        <time>2015-06-06T09:45:19Z</time>
      </trkpt>
      <trkpt lat="45.4055" lon="5.91849">
        <ele>1735.769583704</ele>
        <time>2015-06-06T09:45:24Z</time>
      </trkpt>
      <trkpt lat="45.40548" lon="5.91851">
        <ele>1735.769583704</ele>
        <time>2015-06-06T09:45:29Z</time>
      </trkpt>
      <trkpt lat="45.40546" lon="5.91849">
        <ele>1731.563049767</ele>
        <time>2015-06-06T09:45:34Z</time>
      </trkpt>
      <trkpt lat="45.40546" lon="5.91849">
        <ele>1731.563049767</ele>
        <time>2015-06-06T09:45:39Z</time>
      </trkpt>
      <trkpt lat="45.40546" lon="5.91847">
        <ele>1731.563049767</ele>
        <time>2015-06-06T09:45:44Z</time>
      </trkpt>
      <trkpt lat="45.40546" lon="5.91846">
        <ele>1731.563049767</ele>
        <time>2015-06-06T09:45:49Z</time>
      </trkpt>
      <trkpt lat="45.40545" lon="5.91845">
        <ele>1731.563049767</ele>
        <time>2015-06-06T09:45:54Z</time>
      </trkpt>
      <trkpt lat="45.40544" lon="5.91845">
        <ele>1731.563049767</ele>
        <time>2015-06-06T09:45:59Z</time>
      </trkpt>
      <trkpt lat="45.40543" lon="5.91845">
        <ele>1731.563049767</ele>
        <time>2015-06-06T09:46:04Z</time>
      </trkpt>
      <trkpt lat="45.40537" lon="5.91844">
        <ele>1727.736983626</ele>
        <time>2015-06-06T09:46:09Z</time>
      </trkpt>
      <trkpt lat="45.40531" lon="5.91844">
        <ele>1727.736983626</ele>
        <time>2015-06-06T09:46:14Z</time>
      </trkpt>
      <trkpt lat="45.40523" lon="5.91839">
        <ele>1724.416634552</ele>
        <time>2015-06-06T09:46:19Z</time>
      </trkpt>
      <trkpt lat="45.4052" lon="5.91839">
        <ele>1724.416634552</ele>
        <time>2015-06-06T09:46:24Z</time>
      </trkpt>
      <trkpt lat="45.40514" lon="5.91835">
        <ele>1722.292527351</ele>
        <time>2015-06-06T09:46:29Z</time>
      </trkpt>
      <trkpt lat="45.40511" lon="5.91835">
        <ele>1722.292527351</ele>
        <time>2015-06-06T09:46:34Z</time>
      </trkpt>
      <trkpt lat="45.40506" lon="5.9183">
        <ele>1721.280023711</ele>
        <time>2015-06-06T09:46:39Z</time>
      </trkpt>
      <trkpt lat="45.40503" lon="5.91829">
        <ele>1721.280023711</ele>
        <time>2015-06-06T09:46:44Z</time>
      </trkpt>
      <trkpt lat="45.40502" lon="5.91828">
        <ele>1721.280023711</ele>
        <time>2015-06-06T09:46:49Z</time>
      </trkpt>
      <trkpt lat="45.40501" lon="5.91819">
        <ele>1721.008866496</ele>
        <time>2015-06-06T09:46:54Z</time>
      </trkpt>
      <trkpt lat="45.40497" lon="5.91819">
        <ele>1721.008866496</ele>
        <time>2015-06-06T09:46:58Z</time>
      </trkpt>
      <trkpt lat="45.4049" lon="5.91821">
        <ele>1720.845235861</ele>
        <time>2015-06-06T09:47:04Z</time>
      </trkpt>
      <trkpt lat="45.40482" lon="5.91815">
        <ele>1720.845235861</ele>
        <time>2015-06-06T09:47:09Z</time>
      </trkpt>
      <trkpt lat="45.40473" lon="5.91815">
        <ele>1721.209930092</ele>
        <time>2015-06-06T09:47:14Z</time>
      </trkpt>
      <trkpt lat="45.40468" lon="5.91813">
        <ele>1721.209930092</ele>
        <time>2015-06-06T09:47:19Z</time>
      </trkpt>
      <trkpt lat="45.40465" lon="5.91809">
        <ele>1722.058645858</ele>
        <time>2015-06-06T09:47:23Z</time>
      </trkpt>
      <trkpt lat="45.40466" lon="5.91807">
        <ele>1722.058645858</ele>
        <time>2015-06-06T09:47:29Z</time>
      </trkpt>
      <trkpt lat="45.40466" lon="5.91807">
        <ele>1722.058645858</ele>
        <time>2015-06-06T09:47:34Z</time>
      </trkpt>
      <trkpt lat="45.40466" lon="5.91807">
        <ele>1722.058645858</ele>
        <time>2015-06-06T09:47:40Z</time>
      </trkpt>
      <trkpt lat="45.40457" lon="5.91802">
        <ele>1722.483979102</ele>
        <time>2015-06-06T09:47:44Z</time>
      </trkpt>
      <trkpt lat="45.40451" lon="5.91801">
        <ele>1722.483979102</ele>
        <time>2015-06-06T09:47:50Z</time>
      </trkpt>
      <trkpt lat="45.40444" lon="5.91796">
        <ele>1723.0871957</ele>
        <time>2015-06-06T09:47:54Z</time>
      </trkpt>
      <trkpt lat="45.40437" lon="5.91793">
        <ele>1723.0871957</ele>
        <time>2015-06-06T09:47:59Z</time>
      </trkpt>
      <trkpt lat="45.40433" lon="5.91791">
        <ele>1724.136427693</ele>
        <time>2015-06-06T09:48:05Z</time>
      </trkpt>
      <trkpt lat="45.40428" lon="5.91788">
        <ele>1724.136427693</ele>
        <time>2015-06-06T09:48:09Z</time>
      </trkpt>
      <trkpt lat="45.40422" lon="5.91783">
        <ele>1724.869877727</ele>
        <time>2015-06-06T09:48:14Z</time>
      </trkpt>
      <trkpt lat="45.40419" lon="5.9178">
        <ele>1724.869877727</ele>
        <time>2015-06-06T09:48:19Z</time>
      </trkpt>
      <trkpt lat="45.40414" lon="5.91777">
        <ele>1725.447097465</ele>
        <time>2015-06-06T09:48:24Z</time>
      </trkpt>
      <trkpt lat="45.4041" lon="5.91779">
        <ele>1725.447097465</ele>
        <time>2015-06-06T09:48:30Z</time>
      </trkpt>
      <trkpt lat="45.40405" lon="5.91778">
        <ele>1726.448561504</ele>
        <time>2015-06-06T09:48:34Z</time>
      </trkpt>
      <trkpt lat="45.40401" lon="5.91776">
        <ele>1726.448561504</ele>
        <time>2015-06-06T09:48:40Z</time>
      </trkpt>
      <trkpt lat="45.40392" lon="5.91773">
        <ele>1727.257929632</ele>
        <time>2015-06-06T09:48:44Z</time>
      </trkpt>
      <trkpt lat="45.40389" lon="5.91765">
        <ele>1727.257929632</ele>
        <time>2015-06-06T09:48:50Z</time>
      </trkpt>
      <trkpt lat="45.40386" lon="5.9176">
        <ele>1728.457504289</ele>
        <time>2015-06-06T09:48:54Z</time>
      </trkpt>
      <trkpt lat="45.40384" lon="5.91761">
        <ele>1728.457504289</ele>
        <time>2015-06-06T09:49:00Z</time>
      </trkpt>
      <trkpt lat="45.40377" lon="5.91759">
        <ele>1730.585688671</ele>
        <time>2015-06-06T09:49:04Z</time>
      </trkpt>
      <trkpt lat="45.40374" lon="5.91757">
        <ele>1730.585688671</ele>
        <time>2015-06-06T09:49:10Z</time>
      </trkpt>
      <trkpt lat="45.40372" lon="5.91754">
        <ele>1730.585688671</ele>
        <time>2015-06-06T09:49:14Z</time>
      </trkpt>
      <trkpt lat="45.40368" lon="5.91751">
        <ele>1732.553510461</ele>
        <time>2015-06-06T09:49:19Z</time>
      </trkpt>
      <trkpt lat="45.40366" lon="5.91743">
        <ele>1732.553510461</ele>
        <time>2015-06-06T09:49:25Z</time>
      </trkpt>
      <trkpt lat="45.40365" lon="5.9174">
        <ele>1732.553510461</ele>
        <time>2015-06-06T09:49:29Z</time>
      </trkpt>
      <trkpt lat="45.40363" lon="5.91735">
        <ele>1734.505366771</ele>
        <time>2015-06-06T09:49:34Z</time>
      </trkpt>
      <trkpt lat="45.40361" lon="5.9173">
        <ele>1734.505366771</ele>
        <time>2015-06-06T09:49:39Z</time>
      </trkpt>
      <trkpt lat="45.4036" lon="5.91729">
        <ele>1734.505366771</ele>
        <time>2015-06-06T09:49:44Z</time>
      </trkpt>
      <trkpt lat="45.40353" lon="5.91724">
        <ele>1736.863381528</ele>
        <time>2015-06-06T09:49:50Z</time>
      </trkpt>
      <trkpt lat="45.40348" lon="5.91724">
        <ele>1736.863381528</ele>
        <time>2015-06-06T09:49:54Z</time>
      </trkpt>
      <trkpt lat="45.40348" lon="5.91724">
        <ele>1736.863381528</ele>
        <time>2015-06-06T09:49:58Z</time>
      </trkpt>
      <trkpt lat="45.40346" lon="5.91721">
        <ele>1736.863381528</ele>
        <time>2015-06-06T09:50:05Z</time>
      </trkpt>
      <trkpt lat="45.40346" lon="5.9172">
        <ele>1736.863381528</ele>
        <time>2015-06-06T09:50:09Z</time>
      </trkpt>
      <trkpt lat="45.40336" lon="5.91712">
        <ele>1739.297072465</ele>
        <time>2015-06-06T09:50:14Z</time>
      </trkpt>
      <trkpt lat="45.40329" lon="5.91701">
        <ele>1741.356037262</ele>
        <time>2015-06-06T09:50:19Z</time>
      </trkpt>
      <trkpt lat="45.40322" lon="5.91702">
        <ele>1741.356037262</ele>
        <time>2015-06-06T09:50:24Z</time>
      </trkpt>
      <trkpt lat="45.40318" lon="5.917">
        <ele>1742.912385197</ele>
        <time>2015-06-06T09:50:30Z</time>
      </trkpt>
      <trkpt lat="45.40315" lon="5.91698">
        <ele>1742.912385197</ele>
        <time>2015-06-06T09:50:34Z</time>
      </trkpt>
      <trkpt lat="45.40309" lon="5.91701">
        <ele>1744.569760334</ele>
        <time>2015-06-06T09:50:40Z</time>
      </trkpt>
      <trkpt lat="45.40306" lon="5.91699">
        <ele>1744.569760334</ele>
        <time>2015-06-06T09:50:44Z</time>
      </trkpt>
      <trkpt lat="45.40303" lon="5.91697">
        <ele>1744.569760334</ele>
        <time>2015-06-06T09:50:50Z</time>
      </trkpt>
      <trkpt lat="45.40299" lon="5.91691">
        <ele>1746.887373963</ele>
        <time>2015-06-06T09:50:54Z</time>
      </trkpt>
      <trkpt lat="45.40297" lon="5.91696">
        <ele>1746.887373963</ele>
        <time>2015-06-06T09:51:00Z</time>
      </trkpt>
      <trkpt lat="45.40297" lon="5.91696">
        <ele>1746.887373963</ele>
        <time>2015-06-06T09:51:04Z</time>
      </trkpt>
      <trkpt lat="45.40296" lon="5.91697">
        <ele>1746.887373963</ele>
        <time>2015-06-06T09:51:10Z</time>
      </trkpt>
      <trkpt lat="45.40296" lon="5.91697">
        <ele>1746.887373963</ele>
        <time>2015-06-06T09:51:14Z</time>
      </trkpt>
      <trkpt lat="45.40296" lon="5.91697">
        <ele>1746.887373963</ele>
        <time>2015-06-06T09:51:20Z</time>
      </trkpt>
      <trkpt lat="45.40297" lon="5.91697">
        <ele>1746.887373963</ele>
        <time>2015-06-06T09:51:24Z</time>
      </trkpt>
      <trkpt lat="45.40297" lon="5.91697">
        <ele>1746.887373963</ele>
        <time>2015-06-06T09:51:30Z</time>
      </trkpt>
      <trkpt lat="45.40292" lon="5.9169">
        <ele>1750.525830598</ele>
        <time>2015-06-06T09:51:34Z</time>
      </trkpt>
      <trkpt lat="45.40288" lon="5.91683">
        <ele>1750.525830598</ele>
        <time>2015-06-06T09:51:40Z</time>
      </trkpt>
      <trkpt lat="45.40282" lon="5.91677">
        <ele>1753.499733267</ele>
        <time>2015-06-06T09:51:44Z</time>
      </trkpt>
      <trkpt lat="45.40281" lon="5.91673">
        <ele>1753.499733267</ele>
        <time>2015-06-06T09:51:50Z</time>
      </trkpt>
      <trkpt lat="45.40279" lon="5.91668">
        <ele>1753.499733267</ele>
        <time>2015-06-06T09:51:54Z</time>
      </trkpt>
      <trkpt lat="45.40277" lon="5.91666">
        <ele>1755.989203395</ele>
        <time>2015-06-06T09:52:00Z</time>
      </trkpt>
      <trkpt lat="45.40276" lon="5.91665">
        <ele>1755.989203395</ele>
        <time>2015-06-06T09:52:04Z</time>
      </trkpt>
      <trkpt lat="45.40273" lon="5.91664">
        <ele>1755.989203395</ele>
        <time>2015-06-06T09:52:10Z</time>
      </trkpt>
      <trkpt lat="45.40263" lon="5.91662">
        <ele>1758.7392051</ele>
        <time>2015-06-06T09:52:14Z</time>
      </trkpt>
      <trkpt lat="45.40256" lon="5.91657">
        <ele>1758.7392051</ele>
        <time>2015-06-06T09:52:19Z</time>
      </trkpt>
      <trkpt lat="45.40253" lon="5.91652">
        <ele>1760.998421664</ele>
        <time>2015-06-06T09:52:24Z</time>
      </trkpt>
      <trkpt lat="45.40253" lon="5.91654">
        <ele>1760.998421664</ele>
        <time>2015-06-06T09:52:30Z</time>
      </trkpt>
      <trkpt lat="45.40249" lon="5.91649">
        <ele>1760.998421664</ele>
        <time>2015-06-06T09:52:34Z</time>
      </trkpt>
      <trkpt lat="45.40249" lon="5.91647">
        <ele>1760.998421664</ele>
        <time>2015-06-06T09:52:40Z</time>
      </trkpt>
      <trkpt lat="45.40242" lon="5.91641">
        <ele>1762.36062316</ele>
        <time>2015-06-06T09:52:44Z</time>
      </trkpt>
      <trkpt lat="45.4024" lon="5.91637">
        <ele>1762.36062316</ele>
        <time>2015-06-06T09:52:50Z</time>
      </trkpt>
      <trkpt lat="45.40236" lon="5.91631">
        <ele>1763.605129007</ele>
        <time>2015-06-06T09:52:53Z</time>
      </trkpt>
      <trkpt lat="45.40232" lon="5.9163">
        <ele>1763.605129007</ele>
        <time>2015-06-06T09:52:59Z</time>
      </trkpt>
      <trkpt lat="45.40228" lon="5.91629">
        <ele>1763.605129007</ele>
        <time>2015-06-06T09:53:05Z</time>
      </trkpt>
      <trkpt lat="45.40227" lon="5.9163">
        <ele>1765.310534134</ele>
        <time>2015-06-06T09:53:09Z</time>
      </trkpt>
      <trkpt lat="45.40223" lon="5.91625">
        <ele>1765.310534134</ele>
        <time>2015-06-06T09:53:14Z</time>
      </trkpt>
      <trkpt lat="45.40218" lon="5.91622">
        <ele>1766.714940545</ele>
        <time>2015-06-06T09:53:20Z</time>
      </trkpt>
      <trkpt lat="45.40215" lon="5.91617">
        <ele>1766.714940545</ele>
        <time>2015-06-06T09:53:24Z</time>
      </trkpt>
      <trkpt lat="45.4021" lon="5.91613">
        <ele>1768.122342333</ele>
        <time>2015-06-06T09:53:29Z</time>
      </trkpt>
      <trkpt lat="45.40208" lon="5.91607">
        <ele>1768.122342333</ele>
        <time>2015-06-06T09:53:34Z</time>
      </trkpt>
      <trkpt lat="45.40203" lon="5.91607">
        <ele>1769.382357787</ele>
        <time>2015-06-06T09:53:40Z</time>
      </trkpt>
      <trkpt lat="45.40202" lon="5.91607">
        <ele>1769.382357787</ele>
        <time>2015-06-06T09:53:44Z</time>
      </trkpt>
      <trkpt lat="45.40197" lon="5.91603">
        <ele>1769.382357787</ele>
        <time>2015-06-06T09:53:50Z</time>
      </trkpt>
      <trkpt lat="45.40197" lon="5.91601">
        <ele>1769.382357787</ele>
        <time>2015-06-06T09:53:54Z</time>
      </trkpt>
      <trkpt lat="45.40195" lon="5.916">
        <ele>1770.068135184</ele>
        <time>2015-06-06T09:54:00Z</time>
      </trkpt>
      <trkpt lat="45.40195" lon="5.91599">
        <ele>1770.068135184</ele>
        <time>2015-06-06T09:54:04Z</time>
      </trkpt>
      <trkpt lat="45.40193" lon="5.91598">
        <ele>1770.068135184</ele>
        <time>2015-06-06T09:54:10Z</time>
      </trkpt>
      <trkpt lat="45.40189" lon="5.91592">
        <ele>1770.506629937</ele>
        <time>2015-06-06T09:54:14Z</time>
      </trkpt>
      <trkpt lat="45.40189" lon="5.91584">
        <ele>1770.506629937</ele>
        <time>2015-06-06T09:54:20Z</time>
      </trkpt>
      <trkpt lat="45.40188" lon="5.91579">
        <ele>1770.281190473</ele>
        <time>2015-06-06T09:54:24Z</time>
      </trkpt>
      <trkpt lat="45.40185" lon="5.91573">
        <ele>1770.281190473</ele>
        <time>2015-06-06T09:54:30Z</time>
      </trkpt>
      <trkpt lat="45.40184" lon="5.91565">
        <ele>1770.016672186</ele>
        <time>2015-06-06T09:54:34Z</time>
      </trkpt>
      <trkpt lat="45.40181" lon="5.91569">
        <ele>1770.016672186</ele>
        <time>2015-06-06T09:54:39Z</time>
      </trkpt>
      <trkpt lat="45.40174" lon="5.91561">
        <ele>1769.860048323</ele>
        <time>2015-06-06T09:54:44Z</time>
      </trkpt>
      <trkpt lat="45.40172" lon="5.9156">
        <ele>1769.860048323</ele>
        <time>2015-06-06T09:54:50Z</time>
      </trkpt>
      <trkpt lat="45.40168" lon="5.91562">
        <ele>1769.860048323</ele>
        <time>2015-06-06T09:54:54Z</time>
      </trkpt>
      <trkpt lat="45.40168" lon="5.91565">
        <ele>1769.860048323</ele>
        <time>2015-06-06T09:54:59Z</time>
      </trkpt>
      <trkpt lat="45.40166" lon="5.9156">
        <ele>1769.947419394</ele>
        <time>2015-06-06T09:55:05Z</time>
      </trkpt>
      <trkpt lat="45.40166" lon="5.91558">
        <ele>1769.947419394</ele>
        <time>2015-06-06T09:55:09Z</time>
      </trkpt>
      <trkpt lat="45.40166" lon="5.91557">
        <ele>1769.947419394</ele>
        <time>2015-06-06T09:55:14Z</time>
      </trkpt>
      <trkpt lat="45.40166" lon="5.91557">
        <ele>1769.947419394</ele>
        <time>2015-06-06T09:55:20Z</time>
      </trkpt>
      <trkpt lat="45.40166" lon="5.91557">
        <ele>1769.947419394</ele>
        <time>2015-06-06T09:55:24Z</time>
      </trkpt>
      <trkpt lat="45.40166" lon="5.91557">
        <ele>1769.947419394</ele>
        <time>2015-06-06T09:55:30Z</time>
      </trkpt>
      <trkpt lat="45.40161" lon="5.91553">
        <ele>1769.947419394</ele>
        <time>2015-06-06T09:55:34Z</time>
      </trkpt>
      <trkpt lat="45.4016" lon="5.91548">
        <ele>1769.251522808</ele>
        <time>2015-06-06T09:55:40Z</time>
      </trkpt>
      <trkpt lat="45.40157" lon="5.91541">
        <ele>1769.251522808</ele>
        <time>2015-06-06T09:55:44Z</time>
      </trkpt>
      <trkpt lat="45.40155" lon="5.91536">
        <ele>1768.119946103</ele>
        <time>2015-06-06T09:55:50Z</time>
      </trkpt>
      <trkpt lat="45.4015" lon="5.91532">
        <ele>1768.119946103</ele>
        <time>2015-06-06T09:55:54Z</time>
      </trkpt>
      <trkpt lat="45.40147" lon="5.91532">
        <ele>1768.119946103</ele>
        <time>2015-06-06T09:55:59Z</time>
      </trkpt>
      <trkpt lat="45.40143" lon="5.91526">
        <ele>1766.299690737</ele>
        <time>2015-06-06T09:56:04Z</time>
      </trkpt>
      <trkpt lat="45.40135" lon="5.91516">
        <ele>1764.711312627</ele>
        <time>2015-06-06T09:56:10Z</time>
      </trkpt>
      <trkpt lat="45.40132" lon="5.91513">
        <ele>1764.711312627</ele>
        <time>2015-06-06T09:56:14Z</time>
      </trkpt>
      <trkpt lat="45.40129" lon="5.91509">
        <ele>1764.711312627</ele>
        <time>2015-06-06T09:56:19Z</time>
      </trkpt>
      <trkpt lat="45.40125" lon="5.91505">
        <ele>1763.198440019</ele>
        <time>2015-06-06T09:56:25Z</time>
      </trkpt>
      <trkpt lat="45.40121" lon="5.91502">
        <ele>1763.198440019</ele>
        <time>2015-06-06T09:56:29Z</time>
      </trkpt>
      <trkpt lat="45.40118" lon="5.91503">
        <ele>1763.198440019</ele>
        <time>2015-06-06T09:56:34Z</time>
      </trkpt>
      <trkpt lat="45.40115" lon="5.91505">
        <ele>1761.039631461</ele>
        <time>2015-06-06T09:56:40Z</time>
      </trkpt>
      <trkpt lat="45.40114" lon="5.91505">
        <ele>1761.039631461</ele>
        <time>2015-06-06T09:56:44Z</time>
      </trkpt>
      <trkpt lat="45.40108" lon="5.915">
        <ele>1761.039631461</ele>
        <time>2015-06-06T09:56:50Z</time>
      </trkpt>
      <trkpt lat="45.40108" lon="5.91502">
        <ele>1759.15355305</ele>
        <time>2015-06-06T09:56:54Z</time>
      </trkpt>
      <trkpt lat="45.40107" lon="5.91502">
        <ele>1759.15355305</ele>
        <time>2015-06-06T09:57:00Z</time>
      </trkpt>
      <trkpt lat="45.40107" lon="5.91501">
        <ele>1759.15355305</ele>
        <time>2015-06-06T09:57:04Z</time>
      </trkpt>
      <trkpt lat="45.40107" lon="5.91501">
        <ele>1759.15355305</ele>
        <time>2015-06-06T09:57:10Z</time>
      </trkpt>
      <trkpt lat="45.40107" lon="5.91501">
        <ele>1759.15355305</ele>
        <time>2015-06-06T09:57:14Z</time>
      </trkpt>
      <trkpt lat="45.40107" lon="5.91501">
        <ele>1759.15355305</ele>
        <time>2015-06-06T09:57:20Z</time>
      </trkpt>
      <trkpt lat="45.40107" lon="5.91501">
        <ele>1759.15355305</ele>
        <time>2015-06-06T09:57:24Z</time>
      </trkpt>
      <trkpt lat="45.40107" lon="5.91501">
        <ele>1759.15355305</ele>
        <time>2015-06-06T09:57:30Z</time>
      </trkpt>
      <trkpt lat="45.40107" lon="5.91501">
        <ele>1759.15355305</ele>
        <time>2015-06-06T09:57:34Z</time>
      </trkpt>
      <trkpt lat="45.40104" lon="5.91498">
        <ele>1759.15355305</ele>
        <time>2015-06-06T09:57:40Z</time>
      </trkpt>
      <trkpt lat="45.40103" lon="5.91496">
        <ele>1759.15355305</ele>
        <time>2015-06-06T09:57:44Z</time>
      </trkpt>
      <trkpt lat="45.40102" lon="5.91495">
        <ele>1759.15355305</ele>
        <time>2015-06-06T09:57:50Z</time>
      </trkpt>
      <trkpt lat="45.40101" lon="5.91493">
        <ele>1756.661339364</ele>
        <time>2015-06-06T09:57:54Z</time>
      </trkpt>
      <trkpt lat="45.401" lon="5.91493">
        <ele>1756.661339364</ele>
        <time>2015-06-06T09:58:00Z</time>
      </trkpt>
      <trkpt lat="45.401" lon="5.91493">
        <ele>1756.661339364</ele>
        <time>2015-06-06T09:58:04Z</time>
      </trkpt>
      <trkpt lat="45.4009" lon="5.91491">
        <ele>1754.335638126</ele>
        <time>2015-06-06T09:58:10Z</time>
      </trkpt>
      <trkpt lat="45.40087" lon="5.91487">
        <ele>1754.335638126</ele>
        <time>2015-06-06T09:58:14Z</time>
      </trkpt>
      <trkpt lat="45.40086" lon="5.91485">
        <ele>1754.335638126</ele>
        <time>2015-06-06T09:58:20Z</time>
      </trkpt>
      <trkpt lat="45.40086" lon="5.91487">
        <ele>1754.335638126</ele>
        <time>2015-06-06T09:58:24Z</time>
      </trkpt>
      <trkpt lat="45.40078" lon="5.91483">
        <ele>1753.180102111</ele>
        <time>2015-06-06T09:58:30Z</time>
      </trkpt>
      <trkpt lat="45.40074" lon="5.91484">
        <ele>1753.180102111</ele>
        <time>2015-06-06T09:58:34Z</time>
      </trkpt>
      <trkpt lat="45.40073" lon="5.91483">
        <ele>1753.180102111</ele>
        <time>2015-06-06T09:58:40Z</time>
      </trkpt>
      <trkpt lat="45.4007" lon="5.91483">
        <ele>1753.180102111</ele>
        <time>2015-06-06T09:58:44Z</time>
      </trkpt>
      <trkpt lat="45.40063" lon="5.91482">
        <ele>1752.968475839</ele>
        <time>2015-06-06T09:58:50Z</time>
      </trkpt>
      <trkpt lat="45.40061" lon="5.91482">
        <ele>1752.968475839</ele>
        <time>2015-06-06T09:58:54Z</time>
      </trkpt>
      <trkpt lat="45.4006" lon="5.91486">
        <ele>1752.968475839</ele>
        <time>2015-06-06T09:58:59Z</time>
      </trkpt>
      <trkpt lat="45.4006" lon="5.91485">
        <ele>1752.968475839</ele>
        <time>2015-06-06T09:59:03Z</time>
      </trkpt>
      <trkpt lat="45.40061" lon="5.91487">
        <ele>1752.968475839</ele>
        <time>2015-06-06T09:59:10Z</time>
      </trkpt>
      <trkpt lat="45.40061" lon="5.91487">
        <ele>1752.968475839</ele>
        <time>2015-06-06T09:59:13Z</time>
      </trkpt>
      <trkpt lat="45.40061" lon="5.91487">
        <ele>1752.968475839</ele>
        <time>2015-06-06T09:59:19Z</time>
      </trkpt>
      <trkpt lat="45.40061" lon="5.91487">
        <ele>1752.968475839</ele>
        <time>2015-06-06T09:59:25Z</time>
      </trkpt>
      <trkpt lat="45.40061" lon="5.91487">
        <ele>1752.968475839</ele>
        <time>2015-06-06T09:59:29Z</time>
      </trkpt>
      <trkpt lat="45.40061" lon="5.91487">
        <ele>1752.968475839</ele>
        <time>2015-06-06T09:59:34Z</time>
      </trkpt>
      <trkpt lat="45.40061" lon="5.91487">
        <ele>1752.968475839</ele>
        <time>2015-06-06T09:59:40Z</time>
      </trkpt>
      <trkpt lat="45.40061" lon="5.91487">
        <ele>1752.968475839</ele>
        <time>2015-06-06T09:59:44Z</time>
      </trkpt>
      <trkpt lat="45.40061" lon="5.91487">
        <ele>1752.968475839</ele>
        <time>2015-06-06T09:59:50Z</time>
      </trkpt>
      <trkpt lat="45.40053" lon="5.91486">
        <ele>1751.615008666</ele>
        <time>2015-06-06T09:59:54Z</time>
      </trkpt>
      <trkpt lat="45.40054" lon="5.91489">
        <ele>1751.615008666</ele>
        <time>2015-06-06T10:00:00Z</time>
      </trkpt>
      <trkpt lat="45.40054" lon="5.91487">
        <ele>1751.615008666</ele>
        <time>2015-06-06T10:00:04Z</time>
      </trkpt>
      <trkpt lat="45.40053" lon="5.91487">
        <ele>1751.615008666</ele>
        <time>2015-06-06T10:00:10Z</time>
      </trkpt>
      <trkpt lat="45.40053" lon="5.91487">
        <ele>1751.615008666</ele>
        <time>2015-06-06T10:00:14Z</time>
      </trkpt>
      <trkpt lat="45.40052" lon="5.91486">
        <ele>1751.615008666</ele>
        <time>2015-06-06T10:00:19Z</time>
      </trkpt>
      <trkpt lat="45.40051" lon="5.91481">
        <ele>1750.072561515</ele>
        <time>2015-06-06T10:00:24Z</time>
      </trkpt>
      <trkpt lat="45.40048" lon="5.91482">
        <ele>1750.072561515</ele>
        <time>2015-06-06T10:00:30Z</time>
      </trkpt>
      <trkpt lat="45.40047" lon="5.91481">
        <ele>1750.072561515</ele>
        <time>2015-06-06T10:00:34Z</time>
      </trkpt>
      <trkpt lat="45.40047" lon="5.91482">
        <ele>1750.072561515</ele>
        <time>2015-06-06T10:00:39Z</time>
      </trkpt>
      <trkpt lat="45.40046" lon="5.91482">
        <ele>1750.072561515</ele>
        <time>2015-06-06T10:00:45Z</time>
      </trkpt>
      <trkpt lat="45.40046" lon="5.91482">
        <ele>1750.072561515</ele>
        <time>2015-06-06T10:00:49Z</time>
      </trkpt>
      <trkpt lat="45.40046" lon="5.91482">
        <ele>1750.072561515</ele>
        <time>2015-06-06T10:00:54Z</time>
      </trkpt>
      <trkpt lat="45.40046" lon="5.91483">
        <ele>1750.072561515</ele>
        <time>2015-06-06T10:00:59Z</time>
      </trkpt>
      <trkpt lat="45.40046" lon="5.91483">
        <ele>1750.072561515</ele>
        <time>2015-06-06T10:01:05Z</time>
      </trkpt>
      <trkpt lat="45.40046" lon="5.91483">
        <ele>1750.072561515</ele>
        <time>2015-06-06T10:01:09Z</time>
      </trkpt>
      <trkpt lat="45.40039" lon="5.91482">
        <ele>1748.648042824</ele>
        <time>2015-06-06T10:01:14Z</time>
      </trkpt>
      <trkpt lat="45.40033" lon="5.9148">
        <ele>1748.648042824</ele>
        <time>2015-06-06T10:01:19Z</time>
      </trkpt>
      <trkpt lat="45.4003" lon="5.91481">
        <ele>1748.345992487</ele>
        <time>2015-06-06T10:01:25Z</time>
      </trkpt>
      <trkpt lat="45.40029" lon="5.91482">
        <ele>1748.345992487</ele>
        <time>2015-06-06T10:01:29Z</time>
      </trkpt>
      <trkpt lat="45.40029" lon="5.91482">
        <ele>1748.345992487</ele>
        <time>2015-06-06T10:01:34Z</time>
      </trkpt>
      <trkpt lat="45.40028" lon="5.91482">
        <ele>1748.345992487</ele>
        <time>2015-06-06T10:01:39Z</time>
      </trkpt>
      <trkpt lat="45.40026" lon="5.91482">
        <ele>1748.345992487</ele>
        <time>2015-06-06T10:01:44Z</time>
      </trkpt>
      <trkpt lat="45.4002" lon="5.91483">
        <ele>1747.788174889</ele>
        <time>2015-06-06T10:01:50Z</time>
      </trkpt>
      <trkpt lat="45.40016" lon="5.9148">
        <ele>1747.788174889</ele>
        <time>2015-06-06T10:01:54Z</time>
      </trkpt>
      <trkpt lat="45.40014" lon="5.91476">
        <ele>1747.788174889</ele>
        <time>2015-06-06T10:01:59Z</time>
      </trkpt>
      <trkpt lat="45.40014" lon="5.91476">
        <ele>1747.788174889</ele>
        <time>2015-06-06T10:02:05Z</time>
      </trkpt>
      <trkpt lat="45.40014" lon="5.91475">
        <ele>1747.788174889</ele>
        <time>2015-06-06T10:02:09Z</time>
      </trkpt>
      <trkpt lat="45.40014" lon="5.91475">
        <ele>1747.788174889</ele>
        <time>2015-06-06T10:02:14Z</time>
      </trkpt>
      <trkpt lat="45.40014" lon="5.91475">
        <ele>1747.788174889</ele>
        <time>2015-06-06T10:02:18Z</time>
      </trkpt>
      <trkpt lat="45.40014" lon="5.91475">
        <ele>1747.788174889</ele>
        <time>2015-06-06T10:02:24Z</time>
      </trkpt>
      <trkpt lat="45.40013" lon="5.91462">
        <ele>1748.724594106</ele>
        <time>2015-06-06T10:02:29Z</time>
      </trkpt>
      <trkpt lat="45.40012" lon="5.91455">
        <ele>1748.724594106</ele>
        <time>2015-06-06T10:02:33Z</time>
      </trkpt>
      <trkpt lat="45.4001" lon="5.91453">
        <ele>1748.724594106</ele>
        <time>2015-06-06T10:02:38Z</time>
      </trkpt>
      <trkpt lat="45.40009" lon="5.91452">
        <ele>1748.724594106</ele>
        <time>2015-06-06T10:02:44Z</time>
      </trkpt>
      <trkpt lat="45.40009" lon="5.91452">
        <ele>1748.724594106</ele>
        <time>2015-06-06T10:02:49Z</time>
      </trkpt>
      <trkpt lat="45.40009" lon="5.91452">
        <ele>1748.724594106</ele>
        <time>2015-06-06T10:02:54Z</time>
      </trkpt>
      <trkpt lat="45.40009" lon="5.91452">
        <ele>1748.724594106</ele>
        <time>2015-06-06T10:02:59Z</time>
      </trkpt>
      <trkpt lat="45.40009" lon="5.91452">
        <ele>1748.724594106</ele>
        <time>2015-06-06T10:03:05Z</time>
      </trkpt>
      <trkpt lat="45.39999" lon="5.9145">
        <ele>1749.890231118</ele>
        <time>2015-06-06T10:03:09Z</time>
      </trkpt>
      <trkpt lat="45.39993" lon="5.91443">
        <ele>1749.890231118</ele>
        <time>2015-06-06T10:03:14Z</time>
      </trkpt>
      <trkpt lat="45.39993" lon="5.91446">
        <ele>1750.256414781</ele>
        <time>2015-06-06T10:03:19Z</time>
      </trkpt>
      <trkpt lat="45.39991" lon="5.9145">
        <ele>1750.256414781</ele>
        <time>2015-06-06T10:03:25Z</time>
      </trkpt>
      <trkpt lat="45.39991" lon="5.91448">
        <ele>1750.256414781</ele>
        <time>2015-06-06T10:03:29Z</time>
      </trkpt>
      <trkpt lat="45.3999" lon="5.91446">
        <ele>1750.256414781</ele>
        <time>2015-06-06T10:03:34Z</time>
      </trkpt>
      <trkpt lat="45.39989" lon="5.91446">
        <ele>1750.256414781</ele>
        <time>2015-06-06T10:03:39Z</time>
      </trkpt>
      <trkpt lat="45.39989" lon="5.91446">
        <ele>1750.256414781</ele>
        <time>2015-06-06T10:03:43Z</time>
      </trkpt>
      <trkpt lat="45.39989" lon="5.91446">
        <ele>1750.256414781</ele>
        <time>2015-06-06T10:03:48Z</time>
      </trkpt>
      <trkpt lat="45.39989" lon="5.91446">
        <ele>1750.256414781</ele>
        <time>2015-06-06T10:03:53Z</time>
      </trkpt>
      <trkpt lat="45.39989" lon="5.91446">
        <ele>1750.256414781</ele>
        <time>2015-06-06T10:03:58Z</time>
      </trkpt>
      <trkpt lat="45.39989" lon="5.91446">
        <ele>1750.256414781</ele>
        <time>2015-06-06T10:04:03Z</time>
      </trkpt>
      <trkpt lat="45.39989" lon="5.91446">
        <ele>1750.256414781</ele>
        <time>2015-06-06T10:04:09Z</time>
      </trkpt>
      <trkpt lat="45.39989" lon="5.91446">
        <ele>1750.256414781</ele>
        <time>2015-06-06T10:04:14Z</time>
      </trkpt>
      <trkpt lat="45.39989" lon="5.91446">
        <ele>1750.256414781</ele>
        <time>2015-06-06T10:04:18Z</time>
      </trkpt>
      <trkpt lat="45.39989" lon="5.91446">
        <ele>1750.256414781</ele>
        <time>2015-06-06T10:04:24Z</time>
      </trkpt>
      <trkpt lat="45.39989" lon="5.91446">
        <ele>1750.256414781</ele>
        <time>2015-06-06T10:04:29Z</time>
      </trkpt>
      <trkpt lat="45.39989" lon="5.91446">
        <ele>1750.256414781</ele>
        <time>2015-06-06T10:04:34Z</time>
      </trkpt>
      <trkpt lat="45.39989" lon="5.91446">
        <ele>1750.256414781</ele>
        <time>2015-06-06T10:04:39Z</time>
      </trkpt>
      <trkpt lat="45.39989" lon="5.91446">
        <ele>1750.256414781</ele>
        <time>2015-06-06T10:04:44Z</time>
      </trkpt>
      <trkpt lat="45.39989" lon="5.91446">
        <ele>1750.256414781</ele>
        <time>2015-06-06T10:04:49Z</time>
      </trkpt>
      <trkpt lat="45.39989" lon="5.91446">
        <ele>1750.256414781</ele>
        <time>2015-06-06T10:04:54Z</time>
      </trkpt>
      <trkpt lat="45.39989" lon="5.91446">
        <ele>1750.256414781</ele>
        <time>2015-06-06T10:04:59Z</time>
      </trkpt>
      <trkpt lat="45.39989" lon="5.91446">
        <ele>1750.256414781</ele>
        <time>2015-06-06T10:05:04Z</time>
      </trkpt>
      <trkpt lat="45.39989" lon="5.91446">
        <ele>1750.256414781</ele>
        <time>2015-06-06T10:05:09Z</time>
      </trkpt>
      <trkpt lat="45.39989" lon="5.91446">
        <ele>1750.256414781</ele>
        <time>2015-06-06T10:05:14Z</time>
      </trkpt>
      <trkpt lat="45.39989" lon="5.91446">
        <ele>1750.256414781</ele>
        <time>2015-06-06T10:05:19Z</time>
      </trkpt>
      <trkpt lat="45.39989" lon="5.91446">
        <ele>1750.256414781</ele>
        <time>2015-06-06T10:05:24Z</time>
      </trkpt>
      <trkpt lat="45.39989" lon="5.91446">
        <ele>1750.256414781</ele>
        <time>2015-06-06T10:05:29Z</time>
      </trkpt>
      <trkpt lat="45.39989" lon="5.91446">
        <ele>1750.256414781</ele>
        <time>2015-06-06T10:05:34Z</time>
      </trkpt>
      <trkpt lat="45.39989" lon="5.91446">
        <ele>1750.256414781</ele>
        <time>2015-06-06T10:05:39Z</time>
      </trkpt>
      <trkpt lat="45.39989" lon="5.91446">
        <ele>1750.256414781</ele>
        <time>2015-06-06T10:05:44Z</time>
      </trkpt>
      <trkpt lat="45.39989" lon="5.91446">
        <ele>1750.256414781</ele>
        <time>2015-06-06T10:05:49Z</time>
      </trkpt>
      <trkpt lat="45.39989" lon="5.91446">
        <ele>1750.445005529</ele>
        <time>2015-06-06T10:05:53Z</time>
      </trkpt>
      <trkpt lat="45.40012" lon="5.91453">
        <ele>1750.633596277</ele>
        <time>2015-06-06T10:11:59Z</time>
      </trkpt>
      <trkpt lat="45.40011" lon="5.91457">
        <ele>1750.822187026</ele>
        <time>2015-06-06T10:12:04Z</time>
      </trkpt>
      <trkpt lat="45.40016" lon="5.91438">
        <ele>1751.010777774</ele>
        <time>2015-06-06T10:12:09Z</time>
      </trkpt>
      <trkpt lat="45.40009" lon="5.91452">
        <ele>1751.199368522</ele>
        <time>2015-06-06T10:12:14Z</time>
      </trkpt>
      <trkpt lat="45.39999" lon="5.91464">
        <ele>1751.387959271</ele>
        <time>2015-06-06T10:12:19Z</time>
      </trkpt>
      <trkpt lat="45.39993" lon="5.91468">
        <ele>1751.576550019</ele>
        <time>2015-06-06T10:12:24Z</time>
      </trkpt>
      <trkpt lat="45.39993" lon="5.91467">
        <ele>1751.765140767</ele>
        <time>2015-06-06T10:12:28Z</time>
      </trkpt>
      <trkpt lat="45.39995" lon="5.91465">
        <ele>1751.953731516</ele>
        <time>2015-06-06T10:12:34Z</time>
      </trkpt>
      <trkpt lat="45.39993" lon="5.91465">
        <ele>1752.142322264</ele>
        <time>2015-06-06T10:12:39Z</time>
      </trkpt>
      <trkpt lat="45.39993" lon="5.91465">
        <ele>1752.330913012</ele>
        <time>2015-06-06T10:12:44Z</time>
      </trkpt>
      <trkpt lat="45.39994" lon="5.91465">
        <ele>1752.330913012</ele>
        <time>2015-06-06T10:12:49Z</time>
      </trkpt>
      <trkpt lat="45.39994" lon="5.91465">
        <ele>1752.330913012</ele>
        <time>2015-06-06T10:12:54Z</time>
      </trkpt>
      <trkpt lat="45.39994" lon="5.91465">
        <ele>1752.330913012</ele>
        <time>2015-06-06T10:12:59Z</time>
      </trkpt>
      <trkpt lat="45.39993" lon="5.91465">
        <ele>1752.330913012</ele>
        <time>2015-06-06T10:13:04Z</time>
      </trkpt>
      <trkpt lat="45.39993" lon="5.91465">
        <ele>1752.330913012</ele>
        <time>2015-06-06T10:13:09Z</time>
      </trkpt>
      <trkpt lat="45.39993" lon="5.91465">
        <ele>1752.330913012</ele>
        <time>2015-06-06T10:13:14Z</time>
      </trkpt>
      <trkpt lat="45.39993" lon="5.91465">
        <ele>1752.330913012</ele>
        <time>2015-06-06T10:13:19Z</time>
      </trkpt>
      <trkpt lat="45.39993" lon="5.91465">
        <ele>1752.330913012</ele>
        <time>2015-06-06T10:13:24Z</time>
      </trkpt>
      <trkpt lat="45.39993" lon="5.91465">
        <ele>1752.330913012</ele>
        <time>2015-06-06T10:13:29Z</time>
      </trkpt>
      <trkpt lat="45.39993" lon="5.91465">
        <ele>1752.330913012</ele>
        <time>2015-06-06T10:13:34Z</time>
      </trkpt>
      <trkpt lat="45.39993" lon="5.91465">
        <ele>1752.330913012</ele>
        <time>2015-06-06T10:13:39Z</time>
      </trkpt>
      <trkpt lat="45.39993" lon="5.91465">
        <ele>1752.330913012</ele>
        <time>2015-06-06T10:13:44Z</time>
      </trkpt>
      <trkpt lat="45.39993" lon="5.91465">
        <ele>1752.330913012</ele>
        <time>2015-06-06T10:13:49Z</time>
      </trkpt>
      <trkpt lat="45.39993" lon="5.91465">
        <ele>1752.330913012</ele>
        <time>2015-06-06T10:13:54Z</time>
      </trkpt>
      <trkpt lat="45.39993" lon="5.91465">
        <ele>1752.330913012</ele>
        <time>2015-06-06T10:13:59Z</time>
      </trkpt>
      <trkpt lat="45.39993" lon="5.91465">
        <ele>1752.330913012</ele>
        <time>2015-06-06T10:14:04Z</time>
      </trkpt>
      <trkpt lat="45.39993" lon="5.91465">
        <ele>1752.330913012</ele>
        <time>2015-06-06T10:14:09Z</time>
      </trkpt>
      <trkpt lat="45.39992" lon="5.91466">
        <ele>1752.330913012</ele>
        <time>2015-06-06T10:14:13Z</time>
      </trkpt>
      <trkpt lat="45.39991" lon="5.91468">
        <ele>1752.330913012</ele>
        <time>2015-06-06T10:14:19Z</time>
      </trkpt>
      <trkpt lat="45.39991" lon="5.91468">
        <ele>1752.330913012</ele>
        <time>2015-06-06T10:14:24Z</time>
      </trkpt>
      <trkpt lat="45.39991" lon="5.91468">
        <ele>1752.330913012</ele>
        <time>2015-06-06T10:14:29Z</time>
      </trkpt>
      <trkpt lat="45.39991" lon="5.91468">
        <ele>1752.330913012</ele>
        <time>2015-06-06T10:14:34Z</time>
      </trkpt>
      <trkpt lat="45.39991" lon="5.91468">
        <ele>1752.330913012</ele>
        <time>2015-06-06T10:14:39Z</time>
      </trkpt>
      <trkpt lat="45.39991" lon="5.91468">
        <ele>1752.330913012</ele>
        <time>2015-06-06T10:14:44Z</time>
      </trkpt>
      <trkpt lat="45.3999" lon="5.91469">
        <ele>1752.330913012</ele>
        <time>2015-06-06T10:14:49Z</time>
      </trkpt>
      <trkpt lat="45.39991" lon="5.91468">
        <ele>1752.330913012</ele>
        <time>2015-06-06T10:14:54Z</time>
      </trkpt>
      <trkpt lat="45.39994" lon="5.91464">
        <ele>1753.532676887</ele>
        <time>2015-06-06T10:14:59Z</time>
      </trkpt>
      <trkpt lat="45.39995" lon="5.91464">
        <ele>1753.532676887</ele>
        <time>2015-06-06T10:15:04Z</time>
      </trkpt>
      <trkpt lat="45.39995" lon="5.91463">
        <ele>1753.532676887</ele>
        <time>2015-06-06T10:15:09Z</time>
      </trkpt>
      <trkpt lat="45.39996" lon="5.91461">
        <ele>1753.532676887</ele>
        <time>2015-06-06T10:15:14Z</time>
      </trkpt>
      <trkpt lat="45.39997" lon="5.91461">
        <ele>1753.532676887</ele>
        <time>2015-06-06T10:15:19Z</time>
      </trkpt>
      <trkpt lat="45.39996" lon="5.91459">
        <ele>1753.532676887</ele>
        <time>2015-06-06T10:15:24Z</time>
      </trkpt>
      <trkpt lat="45.39991" lon="5.91439">
        <ele>1753.202025514</ele>
        <time>2015-06-06T10:15:28Z</time>
      </trkpt>
      <trkpt lat="45.39982" lon="5.91428">
        <ele>1752.893694545</ele>
        <time>2015-06-06T10:15:33Z</time>
      </trkpt>
      <trkpt lat="45.39973" lon="5.91417">
        <ele>1752.751141176</ele>
        <time>2015-06-06T10:15:39Z</time>
      </trkpt>
      <trkpt lat="45.39971" lon="5.91415">
        <ele>1752.751141176</ele>
        <time>2015-06-06T10:15:45Z</time>
      </trkpt>
      <trkpt lat="45.39969" lon="5.91414">
        <ele>1752.751141176</ele>
        <time>2015-06-06T10:15:49Z</time>
      </trkpt>
      <trkpt lat="45.39965" lon="5.9142">
        <ele>1752.186257264</ele>
        <time>2015-06-06T10:15:55Z</time>
      </trkpt>
      <trkpt lat="45.39962" lon="5.91412">
        <ele>1752.186257264</ele>
        <time>2015-06-06T10:15:59Z</time>
      </trkpt>
      <trkpt lat="45.39961" lon="5.91408">
        <ele>1751.519979189</ele>
        <time>2015-06-06T10:16:05Z</time>
      </trkpt>
      <trkpt lat="45.3996" lon="5.91405">
        <ele>1751.519979189</ele>
        <time>2015-06-06T10:16:09Z</time>
      </trkpt>
      <trkpt lat="45.39959" lon="5.91404">
        <ele>1751.519979189</ele>
        <time>2015-06-06T10:16:15Z</time>
      </trkpt>
      <trkpt lat="45.39959" lon="5.91404">
        <ele>1751.519979189</ele>
        <time>2015-06-06T10:16:19Z</time>
      </trkpt>
      <trkpt lat="45.39959" lon="5.91404">
        <ele>1751.519979189</ele>
        <time>2015-06-06T10:16:25Z</time>
      </trkpt>
      <trkpt lat="45.39958" lon="5.91404">
        <ele>1751.519979189</ele>
        <time>2015-06-06T10:16:29Z</time>
      </trkpt>
      <trkpt lat="45.39958" lon="5.91404">
        <ele>1751.519979189</ele>
        <time>2015-06-06T10:16:35Z</time>
      </trkpt>
      <trkpt lat="45.39958" lon="5.91404">
        <ele>1751.519979189</ele>
        <time>2015-06-06T10:16:39Z</time>
      </trkpt>
      <trkpt lat="45.39948" lon="5.914">
        <ele>1750.617605222</ele>
        <time>2015-06-06T10:16:45Z</time>
      </trkpt>
      <trkpt lat="45.39933" lon="5.91397">
        <ele>1749.643195276</ele>
        <time>2015-06-06T10:16:49Z</time>
      </trkpt>
      <trkpt lat="45.39917" lon="5.91379">
        <ele>1747.740155915</ele>
        <time>2015-06-06T10:16:55Z</time>
      </trkpt>
      <trkpt lat="45.39922" lon="5.91378">
        <ele>1747.740155915</ele>
        <time>2015-06-06T10:16:59Z</time>
      </trkpt>
      <trkpt lat="45.39913" lon="5.91379">
        <ele>1745.846723346</ele>
        <time>2015-06-06T10:17:05Z</time>
      </trkpt>
      <trkpt lat="45.39911" lon="5.9138">
        <ele>1745.846723346</ele>
        <time>2015-06-06T10:17:09Z</time>
      </trkpt>
      <trkpt lat="45.39905" lon="5.91383">
        <ele>1745.846723346</ele>
        <time>2015-06-06T10:17:15Z</time>
      </trkpt>
      <trkpt lat="45.39904" lon="5.91386">
        <ele>1744.399807202</ele>
        <time>2015-06-06T10:17:19Z</time>
      </trkpt>
      <trkpt lat="45.39898" lon="5.9138">
        <ele>1744.399807202</ele>
        <time>2015-06-06T10:17:25Z</time>
      </trkpt>
      <trkpt lat="45.39899" lon="5.91377">
        <ele>1744.399807202</ele>
        <time>2015-06-06T10:17:29Z</time>
      </trkpt>
      <trkpt lat="45.39895" lon="5.91376">
        <ele>1742.938248473</ele>
        <time>2015-06-06T10:17:35Z</time>
      </trkpt>
      <trkpt lat="45.39891" lon="5.91371">
        <ele>1742.938248473</ele>
        <time>2015-06-06T10:17:39Z</time>
      </trkpt>
      <trkpt lat="45.39887" lon="5.91364">
        <ele>1741.178852961</ele>
        <time>2015-06-06T10:17:45Z</time>
      </trkpt>
      <trkpt lat="45.39884" lon="5.91359">
        <ele>1741.178852961</ele>
        <time>2015-06-06T10:17:49Z</time>
      </trkpt>
      <trkpt lat="45.39877" lon="5.91359">
        <ele>1739.004103248</ele>
        <time>2015-06-06T10:17:54Z</time>
      </trkpt>
      <trkpt lat="45.39872" lon="5.91357">
        <ele>1739.004103248</ele>
        <time>2015-06-06T10:17:59Z</time>
      </trkpt>
      <trkpt lat="45.39868" lon="5.91356">
        <ele>1739.004103248</ele>
        <time>2015-06-06T10:18:04Z</time>
      </trkpt>
      <trkpt lat="45.39862" lon="5.9135">
        <ele>1737.314976743</ele>
        <time>2015-06-06T10:18:09Z</time>
      </trkpt>
      <trkpt lat="45.39858" lon="5.91342">
        <ele>1737.314976743</ele>
        <time>2015-06-06T10:18:14Z</time>
      </trkpt>
      <trkpt lat="45.39857" lon="5.91339">
        <ele>1735.503702044</ele>
        <time>2015-06-06T10:18:18Z</time>
      </trkpt>
      <trkpt lat="45.39857" lon="5.91339">
        <ele>1735.503702044</ele>
        <time>2015-06-06T10:18:23Z</time>
      </trkpt>
      <trkpt lat="45.39848" lon="5.9134">
        <ele>1733.72795551</ele>
        <time>2015-06-06T10:18:29Z</time>
      </trkpt>
      <trkpt lat="45.39841" lon="5.91338">
        <ele>1733.72795551</ele>
        <time>2015-06-06T10:18:34Z</time>
      </trkpt>
      <trkpt lat="45.39839" lon="5.91334">
        <ele>1731.989516037</ele>
        <time>2015-06-06T10:18:39Z</time>
      </trkpt>
      <trkpt lat="45.39836" lon="5.9133">
        <ele>1731.989516037</ele>
        <time>2015-06-06T10:18:44Z</time>
      </trkpt>
      <trkpt lat="45.39829" lon="5.91327">
        <ele>1730.145706814</ele>
        <time>2015-06-06T10:18:48Z</time>
      </trkpt>
      <trkpt lat="45.39825" lon="5.91323">
        <ele>1730.145706814</ele>
        <time>2015-06-06T10:18:54Z</time>
      </trkpt>
      <trkpt lat="45.39821" lon="5.91321">
        <ele>1730.145706814</ele>
        <time>2015-06-06T10:18:59Z</time>
      </trkpt>
      <trkpt lat="45.39812" lon="5.91315">
        <ele>1729.073293074</ele>
        <time>2015-06-06T10:19:04Z</time>
      </trkpt>
      <trkpt lat="45.39811" lon="5.91312">
        <ele>1729.073293074</ele>
        <time>2015-06-06T10:19:09Z</time>
      </trkpt>
      <trkpt lat="45.39805" lon="5.91314">
        <ele>1729.073293074</ele>
        <time>2015-06-06T10:19:14Z</time>
      </trkpt>
      <trkpt lat="45.39799" lon="5.91313">
        <ele>1728.573577648</ele>
        <time>2015-06-06T10:19:19Z</time>
      </trkpt>
      <trkpt lat="45.39792" lon="5.9131">
        <ele>1728.573577648</ele>
        <time>2015-06-06T10:19:24Z</time>
      </trkpt>
      <trkpt lat="45.39789" lon="5.91308">
        <ele>1727.884296055</ele>
        <time>2015-06-06T10:19:29Z</time>
      </trkpt>
      <trkpt lat="45.39786" lon="5.91303">
        <ele>1727.884296055</ele>
        <time>2015-06-06T10:19:34Z</time>
      </trkpt>
      <trkpt lat="45.39781" lon="5.9131">
        <ele>1727.7407154</ele>
        <time>2015-06-06T10:19:39Z</time>
      </trkpt>
      <trkpt lat="45.39777" lon="5.91305">
        <ele>1727.7407154</ele>
        <time>2015-06-06T10:19:44Z</time>
      </trkpt>
      <trkpt lat="45.39777" lon="5.91307">
        <ele>1727.7407154</ele>
        <time>2015-06-06T10:19:49Z</time>
      </trkpt>
      <trkpt lat="45.39771" lon="5.91305">
        <ele>1728.10190467</ele>
        <time>2015-06-06T10:19:54Z</time>
      </trkpt>
      <trkpt lat="45.39767" lon="5.91305">
        <ele>1728.10190467</ele>
        <time>2015-06-06T10:19:59Z</time>
      </trkpt>
      <trkpt lat="45.39761" lon="5.91306">
        <ele>1728.784323937</ele>
        <time>2015-06-06T10:20:04Z</time>
      </trkpt>
      <trkpt lat="45.39758" lon="5.91306">
        <ele>1728.784323937</ele>
        <time>2015-06-06T10:20:09Z</time>
      </trkpt>
      <trkpt lat="45.39754" lon="5.91306">
        <ele>1728.784323937</ele>
        <time>2015-06-06T10:20:14Z</time>
      </trkpt>
      <trkpt lat="45.3975" lon="5.91301">
        <ele>1729.184604796</ele>
        <time>2015-06-06T10:20:19Z</time>
      </trkpt>
      <trkpt lat="45.39746" lon="5.91299">
        <ele>1729.184604796</ele>
        <time>2015-06-06T10:20:24Z</time>
      </trkpt>
      <trkpt lat="45.39744" lon="5.91299">
        <ele>1729.184604796</ele>
        <time>2015-06-06T10:20:29Z</time>
      </trkpt>
      <trkpt lat="45.39737" lon="5.91292">
        <ele>1729.609097158</ele>
        <time>2015-06-06T10:20:34Z</time>
      </trkpt>
      <trkpt lat="45.39736" lon="5.91292">
        <ele>1729.609097158</ele>
        <time>2015-06-06T10:20:39Z</time>
      </trkpt>
      <trkpt lat="45.39736" lon="5.91291">
        <ele>1729.609097158</ele>
        <time>2015-06-06T10:20:44Z</time>
      </trkpt>
      <trkpt lat="45.39736" lon="5.91292">
        <ele>1729.609097158</ele>
        <time>2015-06-06T10:20:49Z</time>
      </trkpt>
      <trkpt lat="45.39734" lon="5.91292">
        <ele>1729.609097158</ele>
        <time>2015-06-06T10:20:54Z</time>
      </trkpt>
      <trkpt lat="45.39724" lon="5.91286">
        <ele>1729.188637947</ele>
        <time>2015-06-06T10:20:59Z</time>
      </trkpt>
      <trkpt lat="45.39673" lon="5.91266">
        <ele>1731.382771732</ele>
        <time>2015-06-06T10:21:40Z</time>
      </trkpt>
      <trkpt lat="45.39666" lon="5.91269">
        <ele>1731.382771732</ele>
        <time>2015-06-06T10:21:45Z</time>
      </trkpt>
      <trkpt lat="45.39659" lon="5.91264">
        <ele>1738.567090797</ele>
        <time>2015-06-06T10:21:49Z</time>
      </trkpt>
      <trkpt lat="45.39651" lon="5.91267">
        <ele>1738.567090797</ele>
        <time>2015-06-06T10:21:55Z</time>
      </trkpt>
      <trkpt lat="45.39646" lon="5.9126">
        <ele>1747.788099266</ele>
        <time>2015-06-06T10:21:59Z</time>
      </trkpt>
      <trkpt lat="45.39638" lon="5.91272">
        <ele>1758.161132503</ele>
        <time>2015-06-06T10:22:05Z</time>
      </trkpt>
      <trkpt lat="45.39636" lon="5.91266">
        <ele>1758.161132503</ele>
        <time>2015-06-06T10:22:10Z</time>
      </trkpt>
      <trkpt lat="45.39631" lon="5.91255">
        <ele>1766.400236043</ele>
        <time>2015-06-06T10:22:15Z</time>
      </trkpt>
      <trkpt lat="45.39628" lon="5.9125">
        <ele>1766.400236043</ele>
        <time>2015-06-06T10:22:20Z</time>
      </trkpt>
      <trkpt lat="45.39626" lon="5.9125">
        <ele>1766.400236043</ele>
        <time>2015-06-06T10:22:25Z</time>
      </trkpt>
      <trkpt lat="45.39623" lon="5.91251">
        <ele>1773.18650982</ele>
        <time>2015-06-06T10:22:30Z</time>
      </trkpt>
      <trkpt lat="45.39622" lon="5.91255">
        <ele>1773.18650982</ele>
        <time>2015-06-06T10:22:35Z</time>
      </trkpt>
      <trkpt lat="45.39625" lon="5.91249">
        <ele>1773.18650982</ele>
        <time>2015-06-06T10:22:40Z</time>
      </trkpt>
      <trkpt lat="45.39623" lon="5.91247">
        <ele>1779.551641597</ele>
        <time>2015-06-06T10:22:45Z</time>
      </trkpt>
      <trkpt lat="45.39621" lon="5.9125">
        <ele>1779.551641597</ele>
        <time>2015-06-06T10:22:50Z</time>
      </trkpt>
      <trkpt lat="45.3962" lon="5.91251">
        <ele>1779.551641597</ele>
        <time>2015-06-06T10:22:55Z</time>
      </trkpt>
      <trkpt lat="45.3962" lon="5.91251">
        <ele>1779.551641597</ele>
        <time>2015-06-06T10:23:00Z</time>
      </trkpt>
      <trkpt lat="45.3962" lon="5.91251">
        <ele>1779.551641597</ele>
        <time>2015-06-06T10:23:04Z</time>
      </trkpt>
      <trkpt lat="45.3962" lon="5.91251">
        <ele>1779.551641597</ele>
        <time>2015-06-06T10:23:10Z</time>
      </trkpt>
      <trkpt lat="45.3962" lon="5.91251">
        <ele>1779.551641597</ele>
        <time>2015-06-06T10:23:15Z</time>
      </trkpt>
      <trkpt lat="45.3962" lon="5.91251">
        <ele>1779.551641597</ele>
        <time>2015-06-06T10:23:20Z</time>
      </trkpt>
      <trkpt lat="45.3962" lon="5.91251">
        <ele>1779.551641597</ele>
        <time>2015-06-06T10:23:25Z</time>
      </trkpt>
      <trkpt lat="45.3962" lon="5.91251">
        <ele>1779.551641597</ele>
        <time>2015-06-06T10:23:30Z</time>
      </trkpt>
      <trkpt lat="45.3962" lon="5.91251">
        <ele>1779.551641597</ele>
        <time>2015-06-06T10:23:35Z</time>
      </trkpt>
      <trkpt lat="45.39621" lon="5.91248">
        <ele>1779.551641597</ele>
        <time>2015-06-06T10:23:39Z</time>
      </trkpt>
      <trkpt lat="45.39624" lon="5.91252">
        <ele>1784.128856647</ele>
        <time>2015-06-06T10:23:44Z</time>
      </trkpt>
      <trkpt lat="45.39622" lon="5.91253">
        <ele>1784.128856647</ele>
        <time>2015-06-06T10:23:49Z</time>
      </trkpt>
      <trkpt lat="45.39622" lon="5.91254">
        <ele>1784.128856647</ele>
        <time>2015-06-06T10:23:54Z</time>
      </trkpt>
      <trkpt lat="45.39622" lon="5.91254">
        <ele>1784.128856647</ele>
        <time>2015-06-06T10:23:59Z</time>
      </trkpt>
      <trkpt lat="45.39622" lon="5.91254">
        <ele>1784.128856647</ele>
        <time>2015-06-06T10:24:04Z</time>
      </trkpt>
      <trkpt lat="45.39622" lon="5.91254">
        <ele>1784.128856647</ele>
        <time>2015-06-06T10:24:09Z</time>
      </trkpt>
      <trkpt lat="45.39619" lon="5.91254">
        <ele>1784.128856647</ele>
        <time>2015-06-06T10:24:14Z</time>
      </trkpt>
      <trkpt lat="45.39619" lon="5.91253">
        <ele>1784.128856647</ele>
        <time>2015-06-06T10:24:19Z</time>
      </trkpt>
      <trkpt lat="45.39619" lon="5.91253">
        <ele>1784.128856647</ele>
        <time>2015-06-06T10:24:24Z</time>
      </trkpt>
      <trkpt lat="45.39619" lon="5.91253">
        <ele>1784.128856647</ele>
        <time>2015-06-06T10:24:29Z</time>
      </trkpt>
      <trkpt lat="45.39619" lon="5.91253">
        <ele>1784.128856647</ele>
        <time>2015-06-06T10:24:34Z</time>
      </trkpt>
      <trkpt lat="45.39619" lon="5.91253">
        <ele>1784.128856647</ele>
        <time>2015-06-06T10:24:39Z</time>
      </trkpt>
      <trkpt lat="45.39619" lon="5.91253">
        <ele>1784.128856647</ele>
        <time>2015-06-06T10:24:44Z</time>
      </trkpt>
      <trkpt lat="45.39619" lon="5.91253">
        <ele>1784.128856647</ele>
        <time>2015-06-06T10:24:49Z</time>
      </trkpt>
      <trkpt lat="45.39619" lon="5.91253">
        <ele>1784.128856647</ele>
        <time>2015-06-06T10:24:54Z</time>
      </trkpt>
      <trkpt lat="45.39619" lon="5.91253">
        <ele>1784.128856647</ele>
        <time>2015-06-06T10:24:59Z</time>
      </trkpt>
      <trkpt lat="45.39619" lon="5.91253">
        <ele>1784.128856647</ele>
        <time>2015-06-06T10:25:04Z</time>
      </trkpt>
      <trkpt lat="45.39619" lon="5.91253">
        <ele>1784.128856647</ele>
        <time>2015-06-06T10:25:09Z</time>
      </trkpt>
      <trkpt lat="45.39619" lon="5.91253">
        <ele>1784.128856647</ele>
        <time>2015-06-06T10:25:14Z</time>
      </trkpt>
      <trkpt lat="45.39619" lon="5.91253">
        <ele>1784.128856647</ele>
        <time>2015-06-06T10:25:19Z</time>
      </trkpt>
      <trkpt lat="45.39619" lon="5.91252">
        <ele>1784.128856647</ele>
        <time>2015-06-06T10:25:24Z</time>
      </trkpt>
      <trkpt lat="45.39619" lon="5.91252">
        <ele>1784.128856647</ele>
        <time>2015-06-06T10:25:29Z</time>
      </trkpt>
      <trkpt lat="45.39619" lon="5.91254">
        <ele>1784.128856647</ele>
        <time>2015-06-06T10:25:34Z</time>
      </trkpt>
      <trkpt lat="45.39619" lon="5.91254">
        <ele>1784.128856647</ele>
        <time>2015-06-06T10:25:40Z</time>
      </trkpt>
      <trkpt lat="45.39619" lon="5.91254">
        <ele>1784.128856647</ele>
        <time>2015-06-06T10:25:44Z</time>
      </trkpt>
      <trkpt lat="45.39619" lon="5.91254">
        <ele>1784.128856647</ele>
        <time>2015-06-06T10:25:50Z</time>
      </trkpt>
      <trkpt lat="45.39619" lon="5.91254">
        <ele>1784.128856647</ele>
        <time>2015-06-06T10:25:55Z</time>
      </trkpt>
      <trkpt lat="45.39619" lon="5.91254">
        <ele>1784.128856647</ele>
        <time>2015-06-06T10:26:00Z</time>
      </trkpt>
      <trkpt lat="45.39619" lon="5.91254">
        <ele>1784.128856647</ele>
        <time>2015-06-06T10:26:04Z</time>
      </trkpt>
      <trkpt lat="45.39613" lon="5.91253">
        <ele>1786.371501588</ele>
        <time>2015-06-06T10:26:10Z</time>
      </trkpt>
      <trkpt lat="45.39599" lon="5.91241">
        <ele>1787.681102541</ele>
        <time>2015-06-06T10:26:15Z</time>
      </trkpt>
      <trkpt lat="45.39588" lon="5.91234">
        <ele>1787.408173249</ele>
        <time>2015-06-06T10:26:20Z</time>
      </trkpt>
      <trkpt lat="45.39582" lon="5.91227">
        <ele>1787.408173249</ele>
        <time>2015-06-06T10:26:25Z</time>
      </trkpt>
      <trkpt lat="45.39574" lon="5.91223">
        <ele>1787.21857593</ele>
        <time>2015-06-06T10:26:30Z</time>
      </trkpt>
      <trkpt lat="45.3957" lon="5.91219">
        <ele>1787.21857593</ele>
        <time>2015-06-06T10:26:35Z</time>
      </trkpt>
      <trkpt lat="45.39566" lon="5.91216">
        <ele>1785.192865079</ele>
        <time>2015-06-06T10:26:40Z</time>
      </trkpt>
      <trkpt lat="45.39565" lon="5.91216">
        <ele>1785.192865079</ele>
        <time>2015-06-06T10:26:44Z</time>
      </trkpt>
      <trkpt lat="45.39558" lon="5.91212">
        <ele>1785.192865079</ele>
        <time>2015-06-06T10:26:50Z</time>
      </trkpt>
      <trkpt lat="45.39555" lon="5.91209">
        <ele>1783.111435265</ele>
        <time>2015-06-06T10:26:55Z</time>
      </trkpt>
      <trkpt lat="45.39557" lon="5.91211">
        <ele>1783.111435265</ele>
        <time>2015-06-06T10:27:00Z</time>
      </trkpt>
      <trkpt lat="45.39558" lon="5.91206">
        <ele>1783.111435265</ele>
        <time>2015-06-06T10:27:04Z</time>
      </trkpt>
      <trkpt lat="45.39554" lon="5.91204">
        <ele>1780.441467157</ele>
        <time>2015-06-06T10:27:10Z</time>
      </trkpt>
      <trkpt lat="45.39553" lon="5.91205">
        <ele>1780.441467157</ele>
        <time>2015-06-06T10:27:14Z</time>
      </trkpt>
      <trkpt lat="45.39552" lon="5.91204">
        <ele>1780.441467157</ele>
        <time>2015-06-06T10:27:19Z</time>
      </trkpt>
      <trkpt lat="45.39553" lon="5.91204">
        <ele>1780.441467157</ele>
        <time>2015-06-06T10:27:24Z</time>
      </trkpt>
      <trkpt lat="45.39556" lon="5.91209">
        <ele>1780.441467157</ele>
        <time>2015-06-06T10:27:29Z</time>
      </trkpt>
      <trkpt lat="45.39555" lon="5.91212">
        <ele>1776.862616282</ele>
        <time>2015-06-06T10:27:35Z</time>
      </trkpt>
      <trkpt lat="45.39556" lon="5.91208">
        <ele>1776.862616282</ele>
        <time>2015-06-06T10:27:40Z</time>
      </trkpt>
      <trkpt lat="45.39557" lon="5.91203">
        <ele>1776.862616282</ele>
        <time>2015-06-06T10:27:45Z</time>
      </trkpt>
      <trkpt lat="45.39551" lon="5.91208">
        <ele>1772.738237067</ele>
        <time>2015-06-06T10:27:50Z</time>
      </trkpt>
      <trkpt lat="45.39546" lon="5.91211">
        <ele>1772.738237067</ele>
        <time>2015-06-06T10:27:55Z</time>
      </trkpt>
      <trkpt lat="45.39552" lon="5.91212">
        <ele>1768.863841024</ele>
        <time>2015-06-06T10:28:00Z</time>
      </trkpt>
      <trkpt lat="45.39552" lon="5.91211">
        <ele>1768.863841024</ele>
        <time>2015-06-06T10:28:05Z</time>
      </trkpt>
      <trkpt lat="45.39542" lon="5.91217">
        <ele>1764.96388561</ele>
        <time>2015-06-06T10:28:10Z</time>
      </trkpt>
      <trkpt lat="45.39544" lon="5.91215">
        <ele>1764.96388561</ele>
        <time>2015-06-06T10:28:15Z</time>
      </trkpt>
      <trkpt lat="45.39544" lon="5.91214">
        <ele>1764.96388561</ele>
        <time>2015-06-06T10:28:20Z</time>
      </trkpt>
      <trkpt lat="45.39544" lon="5.91214">
        <ele>1764.96388561</ele>
        <time>2015-06-06T10:28:24Z</time>
      </trkpt>
      <trkpt lat="45.39544" lon="5.91214">
        <ele>1764.96388561</ele>
        <time>2015-06-06T10:28:31Z</time>
      </trkpt>
      <trkpt lat="45.39544" lon="5.91214">
        <ele>1764.96388561</ele>
        <time>2015-06-06T10:28:35Z</time>
      </trkpt>
      <trkpt lat="45.39536" lon="5.91212">
        <ele>1760.781796592</ele>
        <time>2015-06-06T10:28:40Z</time>
      </trkpt>
      <trkpt lat="45.39531" lon="5.91215">
        <ele>1760.781796592</ele>
        <time>2015-06-06T10:28:44Z</time>
      </trkpt>
      <trkpt lat="45.39531" lon="5.91209">
        <ele>1756.855375304</ele>
        <time>2015-06-06T10:28:51Z</time>
      </trkpt>
      <trkpt lat="45.39531" lon="5.91202">
        <ele>1756.855375304</ele>
        <time>2015-06-06T10:28:55Z</time>
      </trkpt>
      <trkpt lat="45.39529" lon="5.91203">
        <ele>1756.855375304</ele>
        <time>2015-06-06T10:29:00Z</time>
      </trkpt>
      <trkpt lat="45.39527" lon="5.91201">
        <ele>1753.793356282</ele>
        <time>2015-06-06T10:29:04Z</time>
      </trkpt>
      <trkpt lat="45.3952" lon="5.91201">
        <ele>1753.793356282</ele>
        <time>2015-06-06T10:29:09Z</time>
      </trkpt>
      <trkpt lat="45.3952" lon="5.91201">
        <ele>1753.793356282</ele>
        <time>2015-06-06T10:29:14Z</time>
      </trkpt>
      <trkpt lat="45.3952" lon="5.91201">
        <ele>1753.793356282</ele>
        <time>2015-06-06T10:29:19Z</time>
      </trkpt>
      <trkpt lat="45.3952" lon="5.91201">
        <ele>1753.793356282</ele>
        <time>2015-06-06T10:29:24Z</time>
      </trkpt>
      <trkpt lat="45.3952" lon="5.91201">
        <ele>1753.793356282</ele>
        <time>2015-06-06T10:29:29Z</time>
      </trkpt>
      <trkpt lat="45.3952" lon="5.91201">
        <ele>1753.793356282</ele>
        <time>2015-06-06T10:29:34Z</time>
      </trkpt>
      <trkpt lat="45.3952" lon="5.91201">
        <ele>1753.793356282</ele>
        <time>2015-06-06T10:29:39Z</time>
      </trkpt>
      <trkpt lat="45.3952" lon="5.91201">
        <ele>1753.793356282</ele>
        <time>2015-06-06T10:29:45Z</time>
      </trkpt>
      <trkpt lat="45.3952" lon="5.91201">
        <ele>1753.793356282</ele>
        <time>2015-06-06T10:29:50Z</time>
      </trkpt>
      <trkpt lat="45.3952" lon="5.91201">
        <ele>1753.793356282</ele>
        <time>2015-06-06T10:29:55Z</time>
      </trkpt>
      <trkpt lat="45.3952" lon="5.91201">
        <ele>1753.793356282</ele>
        <time>2015-06-06T10:30:00Z</time>
      </trkpt>
      <trkpt lat="45.3952" lon="5.91201">
        <ele>1753.793356282</ele>
        <time>2015-06-06T10:30:05Z</time>
      </trkpt>
      <trkpt lat="45.3952" lon="5.91201">
        <ele>1753.793356282</ele>
        <time>2015-06-06T10:30:10Z</time>
      </trkpt>
      <trkpt lat="45.3952" lon="5.91201">
        <ele>1753.793356282</ele>
        <time>2015-06-06T10:30:15Z</time>
      </trkpt>
      <trkpt lat="45.39519" lon="5.912">
        <ele>1752.414638488</ele>
        <time>2015-06-06T10:30:20Z</time>
      </trkpt>
      <trkpt lat="45.39518" lon="5.91198">
        <ele>1752.414638488</ele>
        <time>2015-06-06T10:30:24Z</time>
      </trkpt>
      <trkpt lat="45.39516" lon="5.91199">
        <ele>1752.414638488</ele>
        <time>2015-06-06T10:30:29Z</time>
      </trkpt>
      <trkpt lat="45.39516" lon="5.912">
        <ele>1752.414638488</ele>
        <time>2015-06-06T10:30:35Z</time>
      </trkpt>
      <trkpt lat="45.39516" lon="5.912">
        <ele>1752.414638488</ele>
        <time>2015-06-06T10:30:39Z</time>
      </trkpt>
      <trkpt lat="45.39517" lon="5.91202">
        <ele>1752.414638488</ele>
        <time>2015-06-06T10:30:44Z</time>
      </trkpt>
      <trkpt lat="45.39517" lon="5.912">
        <ele>1752.414638488</ele>
        <time>2015-06-06T10:30:50Z</time>
      </trkpt>
      <trkpt lat="45.39517" lon="5.91201">
        <ele>1750.471722254</ele>
        <time>2015-06-06T10:30:54Z</time>
      </trkpt>
      <trkpt lat="45.39518" lon="5.91203">
        <ele>1750.471722254</ele>
        <time>2015-06-06T10:31:00Z</time>
      </trkpt>
      <trkpt lat="45.39518" lon="5.91203">
        <ele>1750.471722254</ele>
        <time>2015-06-06T10:31:05Z</time>
      </trkpt>
      <trkpt lat="45.39518" lon="5.91203">
        <ele>1750.471722254</ele>
        <time>2015-06-06T10:31:10Z</time>
      </trkpt>
      <trkpt lat="45.39518" lon="5.91203">
        <ele>1750.471722254</ele>
        <time>2015-06-06T10:31:15Z</time>
      </trkpt>
      <trkpt lat="45.39518" lon="5.91202">
        <ele>1750.471722254</ele>
        <time>2015-06-06T10:31:20Z</time>
      </trkpt>
      <trkpt lat="45.39527" lon="5.91214">
        <ele>1748.176628982</ele>
        <time>2015-06-06T10:31:24Z</time>
      </trkpt>
      <trkpt lat="45.39529" lon="5.91222">
        <ele>1748.176628982</ele>
        <time>2015-06-06T10:31:31Z</time>
      </trkpt>
      <trkpt lat="45.39531" lon="5.91224">
        <ele>1748.176628982</ele>
        <time>2015-06-06T10:31:35Z</time>
      </trkpt>
      <trkpt lat="45.39527" lon="5.91217">
        <ele>1746.144301536</ele>
        <time>2015-06-06T10:31:40Z</time>
      </trkpt>
      <trkpt lat="45.39523" lon="5.91214">
        <ele>1746.144301536</ele>
        <time>2015-06-06T10:31:45Z</time>
      </trkpt>
      <trkpt lat="45.39514" lon="5.91215">
        <ele>1744.774912278</ele>
        <time>2015-06-06T10:31:50Z</time>
      </trkpt>
      <trkpt lat="45.39516" lon="5.91209">
        <ele>1744.774912278</ele>
        <time>2015-06-06T10:31:55Z</time>
      </trkpt>
      <trkpt lat="45.39513" lon="5.9121">
        <ele>1744.774912278</ele>
        <time>2015-06-06T10:32:01Z</time>
      </trkpt>
      <trkpt lat="45.39509" lon="5.91209">
        <ele>1743.296352465</ele>
        <time>2015-06-06T10:32:04Z</time>
      </trkpt>
      <trkpt lat="45.3951" lon="5.91205">
        <ele>1743.296352465</ele>
        <time>2015-06-06T10:32:11Z</time>
      </trkpt>
      <trkpt lat="45.39507" lon="5.91203">
        <ele>1743.296352465</ele>
        <time>2015-06-06T10:32:15Z</time>
      </trkpt>
      <trkpt lat="45.39503" lon="5.91198">
        <ele>1740.734618167</ele>
        <time>2015-06-06T10:32:21Z</time>
      </trkpt>
      <trkpt lat="45.39499" lon="5.91197">
        <ele>1740.734618167</ele>
        <time>2015-06-06T10:32:24Z</time>
      </trkpt>
      <trkpt lat="45.39493" lon="5.91195">
        <ele>1739.132822251</ele>
        <time>2015-06-06T10:32:30Z</time>
      </trkpt>
      <trkpt lat="45.39492" lon="5.91193">
        <ele>1739.132822251</ele>
        <time>2015-06-06T10:32:35Z</time>
      </trkpt>
      <trkpt lat="45.3949" lon="5.9119">
        <ele>1739.132822251</ele>
        <time>2015-06-06T10:32:40Z</time>
      </trkpt>
      <trkpt lat="45.39491" lon="5.9119">
        <ele>1739.132822251</ele>
        <time>2015-06-06T10:32:45Z</time>
      </trkpt>
      <trkpt lat="45.39491" lon="5.9119">
        <ele>1739.132822251</ele>
        <time>2015-06-06T10:32:50Z</time>
      </trkpt>
      <trkpt lat="45.39489" lon="5.91187">
        <ele>1739.132822251</ele>
        <time>2015-06-06T10:32:55Z</time>
      </trkpt>
      <trkpt lat="45.3949" lon="5.91184">
        <ele>1737.714568198</ele>
        <time>2015-06-06T10:32:59Z</time>
      </trkpt>
      <trkpt lat="45.3949" lon="5.91184">
        <ele>1737.714568198</ele>
        <time>2015-06-06T10:33:04Z</time>
      </trkpt>
      <trkpt lat="45.3949" lon="5.91184">
        <ele>1737.714568198</ele>
        <time>2015-06-06T10:33:09Z</time>
      </trkpt>
      <trkpt lat="45.3949" lon="5.91184">
        <ele>1737.714568198</ele>
        <time>2015-06-06T10:33:16Z</time>
      </trkpt>
      <trkpt lat="45.3949" lon="5.91184">
        <ele>1737.714568198</ele>
        <time>2015-06-06T10:33:20Z</time>
      </trkpt>
      <trkpt lat="45.3949" lon="5.91184">
        <ele>1737.714568198</ele>
        <time>2015-06-06T10:33:25Z</time>
      </trkpt>
      <trkpt lat="45.3949" lon="5.91184">
        <ele>1737.714568198</ele>
        <time>2015-06-06T10:33:36Z</time>
      </trkpt>
      <trkpt lat="45.3949" lon="5.91184">
        <ele>1737.714568198</ele>
        <time>2015-06-06T10:33:40Z</time>
      </trkpt>
      <trkpt lat="45.3949" lon="5.91185">
        <ele>1737.714568198</ele>
        <time>2015-06-06T10:33:45Z</time>
      </trkpt>
      <trkpt lat="45.3949" lon="5.91184">
        <ele>1737.714568198</ele>
        <time>2015-06-06T10:33:50Z</time>
      </trkpt>
      <trkpt lat="45.39495" lon="5.91191">
        <ele>1737.714568198</ele>
        <time>2015-06-06T10:33:54Z</time>
      </trkpt>
      <trkpt lat="45.39504" lon="5.91201">
        <ele>1736.88013034</ele>
        <time>2015-06-06T10:33:59Z</time>
      </trkpt>
      <trkpt lat="45.39518" lon="5.912">
        <ele>1736.030862958</ele>
        <time>2015-06-06T10:34:05Z</time>
      </trkpt>
      <trkpt lat="45.39521" lon="5.91205">
        <ele>1736.030862958</ele>
        <time>2015-06-06T10:34:10Z</time>
      </trkpt>
      <trkpt lat="45.39524" lon="5.91217">
        <ele>1735.028892316</ele>
        <time>2015-06-06T10:34:15Z</time>
      </trkpt>
      <trkpt lat="45.39532" lon="5.91211">
        <ele>1735.028892316</ele>
        <time>2015-06-06T10:34:20Z</time>
      </trkpt>
      <trkpt lat="45.39538" lon="5.91209">
        <ele>1733.048436985</ele>
        <time>2015-06-06T10:34:25Z</time>
      </trkpt>
      <trkpt lat="45.39538" lon="5.91211">
        <ele>1733.048436985</ele>
        <time>2015-06-06T10:34:30Z</time>
      </trkpt>
      <trkpt lat="45.39537" lon="5.91217">
        <ele>1733.048436985</ele>
        <time>2015-06-06T10:34:36Z</time>
      </trkpt>
      <trkpt lat="45.39536" lon="5.91222">
        <ele>1731.135277405</ele>
        <time>2015-06-06T10:34:40Z</time>
      </trkpt>
      <trkpt lat="45.39535" lon="5.91224">
        <ele>1731.135277405</ele>
        <time>2015-06-06T10:34:45Z</time>
      </trkpt>
      <trkpt lat="45.39535" lon="5.91226">
        <ele>1731.135277405</ele>
        <time>2015-06-06T10:34:50Z</time>
      </trkpt>
      <trkpt lat="45.39535" lon="5.91226">
        <ele>1731.135277405</ele>
        <time>2015-06-06T10:34:55Z</time>
      </trkpt>
      <trkpt lat="45.39535" lon="5.91226">
        <ele>1731.135277405</ele>
        <time>2015-06-06T10:35:00Z</time>
      </trkpt>
      <trkpt lat="45.39535" lon="5.91226">
        <ele>1731.135277405</ele>
        <time>2015-06-06T10:35:05Z</time>
      </trkpt>
      <trkpt lat="45.39535" lon="5.91226">
        <ele>1731.135277405</ele>
        <time>2015-06-06T10:35:10Z</time>
      </trkpt>
      <trkpt lat="45.39535" lon="5.91226">
        <ele>1731.135277405</ele>
        <time>2015-06-06T10:35:15Z</time>
      </trkpt>
      <trkpt lat="45.39535" lon="5.91226">
        <ele>1731.135277405</ele>
        <time>2015-06-06T10:35:20Z</time>
      </trkpt>
      <trkpt lat="45.39535" lon="5.91226">
        <ele>1731.135277405</ele>
        <time>2015-06-06T10:35:25Z</time>
      </trkpt>
      <trkpt lat="45.39535" lon="5.91226">
        <ele>1731.135277405</ele>
        <time>2015-06-06T10:35:30Z</time>
      </trkpt>
      <trkpt lat="45.39535" lon="5.91226">
        <ele>1731.135277405</ele>
        <time>2015-06-06T10:35:35Z</time>
      </trkpt>
      <trkpt lat="45.39535" lon="5.91226">
        <ele>1731.135277405</ele>
        <time>2015-06-06T10:35:40Z</time>
      </trkpt>
      <trkpt lat="45.39535" lon="5.91226">
        <ele>1731.135277405</ele>
        <time>2015-06-06T10:35:45Z</time>
      </trkpt>
      <trkpt lat="45.39535" lon="5.91226">
        <ele>1731.135277405</ele>
        <time>2015-06-06T10:35:49Z</time>
      </trkpt>
      <trkpt lat="45.39535" lon="5.91226">
        <ele>1731.135277405</ele>
        <time>2015-06-06T10:35:54Z</time>
      </trkpt>
      <trkpt lat="45.39535" lon="5.91226">
        <ele>1731.135277405</ele>
        <time>2015-06-06T10:36:01Z</time>
      </trkpt>
      <trkpt lat="45.39535" lon="5.91226">
        <ele>1731.135277405</ele>
        <time>2015-06-06T10:36:05Z</time>
      </trkpt>
      <trkpt lat="45.39535" lon="5.91226">
        <ele>1731.135277405</ele>
        <time>2015-06-06T10:36:10Z</time>
      </trkpt>
      <trkpt lat="45.39535" lon="5.91226">
        <ele>1731.135277405</ele>
        <time>2015-06-06T10:36:15Z</time>
      </trkpt>
      <trkpt lat="45.39535" lon="5.91226">
        <ele>1731.135277405</ele>
        <time>2015-06-06T10:36:20Z</time>
      </trkpt>
      <trkpt lat="45.39535" lon="5.91226">
        <ele>1731.135277405</ele>
        <time>2015-06-06T10:36:25Z</time>
      </trkpt>
      <trkpt lat="45.39535" lon="5.91226">
        <ele>1731.135277405</ele>
        <time>2015-06-06T10:36:30Z</time>
      </trkpt>
      <trkpt lat="45.39535" lon="5.91226">
        <ele>1731.135277405</ele>
        <time>2015-06-06T10:36:36Z</time>
      </trkpt>
      <trkpt lat="45.39527" lon="5.9122">
        <ele>1728.58631721</ele>
        <time>2015-06-06T10:36:40Z</time>
      </trkpt>
      <trkpt lat="45.39523" lon="5.91216">
        <ele>1728.58631721</ele>
        <time>2015-06-06T10:36:45Z</time>
      </trkpt>
      <trkpt lat="45.39519" lon="5.9121">
        <ele>1726.155824361</ele>
        <time>2015-06-06T10:36:50Z</time>
      </trkpt>
      <trkpt lat="45.39512" lon="5.91205">
        <ele>1726.155824361</ele>
        <time>2015-06-06T10:36:55Z</time>
      </trkpt>
      <trkpt lat="45.39509" lon="5.91199">
        <ele>1724.703306169</ele>
        <time>2015-06-06T10:37:00Z</time>
      </trkpt>
      <trkpt lat="45.39507" lon="5.91196">
        <ele>1724.703306169</ele>
        <time>2015-06-06T10:37:05Z</time>
      </trkpt>
      <trkpt lat="45.3951" lon="5.91196">
        <ele>1724.703306169</ele>
        <time>2015-06-06T10:37:09Z</time>
      </trkpt>
      <trkpt lat="45.39508" lon="5.91197">
        <ele>1724.703306169</ele>
        <time>2015-06-06T10:37:15Z</time>
      </trkpt>
      <trkpt lat="45.39508" lon="5.91199">
        <ele>1723.750345452</ele>
        <time>2015-06-06T10:37:19Z</time>
      </trkpt>
      <trkpt lat="45.39502" lon="5.91199">
        <ele>1723.750345452</ele>
        <time>2015-06-06T10:37:25Z</time>
      </trkpt>
      <trkpt lat="45.39502" lon="5.91199">
        <ele>1723.750345452</ele>
        <time>2015-06-06T10:37:30Z</time>
      </trkpt>
      <trkpt lat="45.39502" lon="5.91198">
        <ele>1723.750345452</ele>
        <time>2015-06-06T10:37:35Z</time>
      </trkpt>
      <trkpt lat="45.39503" lon="5.91197">
        <ele>1723.750345452</ele>
        <time>2015-06-06T10:37:40Z</time>
      </trkpt>
      <trkpt lat="45.39503" lon="5.91197">
        <ele>1723.750345452</ele>
        <time>2015-06-06T10:37:45Z</time>
      </trkpt>
      <trkpt lat="45.39503" lon="5.91197">
        <ele>1723.750345452</ele>
        <time>2015-06-06T10:37:50Z</time>
      </trkpt>
      <trkpt lat="45.39503" lon="5.91197">
        <ele>1723.750345452</ele>
        <time>2015-06-06T10:37:56Z</time>
      </trkpt>
      <trkpt lat="45.39503" lon="5.91197">
        <ele>1723.750345452</ele>
        <time>2015-06-06T10:38:00Z</time>
      </trkpt>
      <trkpt lat="45.39503" lon="5.91198">
        <ele>1723.750345452</ele>
        <time>2015-06-06T10:38:05Z</time>
      </trkpt>
      <trkpt lat="45.39503" lon="5.91197">
        <ele>1723.750345452</ele>
        <time>2015-06-06T10:38:10Z</time>
      </trkpt>
      <trkpt lat="45.39504" lon="5.91197">
        <ele>1723.750345452</ele>
        <time>2015-06-06T10:38:16Z</time>
      </trkpt>
      <trkpt lat="45.39503" lon="5.91197">
        <ele>1723.750345452</ele>
        <time>2015-06-06T10:38:20Z</time>
      </trkpt>
      <trkpt lat="45.39504" lon="5.91197">
        <ele>1723.750345452</ele>
        <time>2015-06-06T10:38:25Z</time>
      </trkpt>
      <trkpt lat="45.39504" lon="5.91197">
        <ele>1723.750345452</ele>
        <time>2015-06-06T10:38:29Z</time>
      </trkpt>
      <trkpt lat="45.39504" lon="5.91197">
        <ele>1723.750345452</ele>
        <time>2015-06-06T10:38:34Z</time>
      </trkpt>
      <trkpt lat="45.39504" lon="5.91198">
        <ele>1723.750345452</ele>
        <time>2015-06-06T10:38:41Z</time>
      </trkpt>
      <trkpt lat="45.39504" lon="5.91198">
        <ele>1723.750345452</ele>
        <time>2015-06-06T10:38:45Z</time>
      </trkpt>
      <trkpt lat="45.39504" lon="5.91198">
        <ele>1723.750345452</ele>
        <time>2015-06-06T10:38:50Z</time>
      </trkpt>
      <trkpt lat="45.39504" lon="5.91198">
        <ele>1723.750345452</ele>
        <time>2015-06-06T10:38:55Z</time>
      </trkpt>
      <trkpt lat="45.39503" lon="5.91198">
        <ele>1723.750345452</ele>
        <time>2015-06-06T10:39:00Z</time>
      </trkpt>
      <trkpt lat="45.39503" lon="5.91198">
        <ele>1723.750345452</ele>
        <time>2015-06-06T10:39:05Z</time>
      </trkpt>
      <trkpt lat="45.39503" lon="5.91198">
        <ele>1723.750345452</ele>
        <time>2015-06-06T10:39:10Z</time>
      </trkpt>
      <trkpt lat="45.39503" lon="5.91198">
        <ele>1723.750345452</ele>
        <time>2015-06-06T10:39:16Z</time>
      </trkpt>
      <trkpt lat="45.39503" lon="5.91198">
        <ele>1723.750345452</ele>
        <time>2015-06-06T10:39:20Z</time>
      </trkpt>
      <trkpt lat="45.39503" lon="5.91198">
        <ele>1723.750345452</ele>
        <time>2015-06-06T10:39:25Z</time>
      </trkpt>
      <trkpt lat="45.39503" lon="5.91198">
        <ele>1723.750345452</ele>
        <time>2015-06-06T10:39:30Z</time>
      </trkpt>
      <trkpt lat="45.39501" lon="5.91204">
        <ele>1721.827879268</ele>
        <time>2015-06-06T10:39:35Z</time>
      </trkpt>
      <trkpt lat="45.395" lon="5.91203">
        <ele>1721.827879268</ele>
        <time>2015-06-06T10:39:40Z</time>
      </trkpt>
      <trkpt lat="45.39499" lon="5.91201">
        <ele>1721.827879268</ele>
        <time>2015-06-06T10:39:45Z</time>
      </trkpt>
      <trkpt lat="45.39498" lon="5.91202">
        <ele>1721.827879268</ele>
        <time>2015-06-06T10:39:50Z</time>
      </trkpt>
      <trkpt lat="45.39498" lon="5.91203">
        <ele>1721.827879268</ele>
        <time>2015-06-06T10:39:56Z</time>
      </trkpt>
      <trkpt lat="45.39498" lon="5.91203">
        <ele>1721.827879268</ele>
        <time>2015-06-06T10:40:00Z</time>
      </trkpt>
      <trkpt lat="45.39498" lon="5.91203">
        <ele>1721.827879268</ele>
        <time>2015-06-06T10:40:05Z</time>
      </trkpt>
      <trkpt lat="45.39498" lon="5.91203">
        <ele>1721.827879268</ele>
        <time>2015-06-06T10:40:10Z</time>
      </trkpt>
      <trkpt lat="45.39498" lon="5.91203">
        <ele>1721.827879268</ele>
        <time>2015-06-06T10:40:16Z</time>
      </trkpt>
      <trkpt lat="45.39498" lon="5.91203">
        <ele>1721.827879268</ele>
        <time>2015-06-06T10:40:20Z</time>
      </trkpt>
      <trkpt lat="45.39498" lon="5.91203">
        <ele>1721.827879268</ele>
        <time>2015-06-06T10:40:25Z</time>
      </trkpt>
      <trkpt lat="45.39498" lon="5.91203">
        <ele>1721.827879268</ele>
        <time>2015-06-06T10:40:29Z</time>
      </trkpt>
      <trkpt lat="45.39498" lon="5.91203">
        <ele>1721.827879268</ele>
        <time>2015-06-06T10:40:35Z</time>
      </trkpt>
      <trkpt lat="45.39498" lon="5.91203">
        <ele>1721.827879268</ele>
        <time>2015-06-06T10:40:40Z</time>
      </trkpt>
      <trkpt lat="45.39498" lon="5.91203">
        <ele>1721.827879268</ele>
        <time>2015-06-06T10:40:44Z</time>
      </trkpt>
      <trkpt lat="45.39498" lon="5.91203">
        <ele>1721.827879268</ele>
        <time>2015-06-06T10:40:50Z</time>
      </trkpt>
      <trkpt lat="45.39498" lon="5.91203">
        <ele>1721.827879268</ele>
        <time>2015-06-06T10:40:54Z</time>
      </trkpt>
      <trkpt lat="45.39498" lon="5.91203">
        <ele>1721.827879268</ele>
        <time>2015-06-06T10:41:00Z</time>
      </trkpt>
      <trkpt lat="45.39498" lon="5.91203">
        <ele>1721.827879268</ele>
        <time>2015-06-06T10:41:05Z</time>
      </trkpt>
      <trkpt lat="45.39498" lon="5.91203">
        <ele>1721.827879268</ele>
        <time>2015-06-06T10:41:10Z</time>
      </trkpt>
      <trkpt lat="45.39498" lon="5.91203">
        <ele>1721.827879268</ele>
        <time>2015-06-06T10:41:15Z</time>
      </trkpt>
      <trkpt lat="45.39496" lon="5.912">
        <ele>1720.487456342</ele>
        <time>2015-06-06T10:42:25Z</time>
      </trkpt>
      <trkpt lat="45.39495" lon="5.91202">
        <ele>1719.147033416</ele>
        <time>2015-06-06T10:42:30Z</time>
      </trkpt>
      <trkpt lat="45.39494" lon="5.91204">
        <ele>1719.147033416</ele>
        <time>2015-06-06T10:42:35Z</time>
      </trkpt>
      <trkpt lat="45.39494" lon="5.91204">
        <ele>1719.147033416</ele>
        <time>2015-06-06T10:42:40Z</time>
      </trkpt>
      <trkpt lat="45.39494" lon="5.91204">
        <ele>1719.147033416</ele>
        <time>2015-06-06T10:42:45Z</time>
      </trkpt>
      <trkpt lat="45.39494" lon="5.91204">
        <ele>1719.147033416</ele>
        <time>2015-06-06T10:42:50Z</time>
      </trkpt>
      <trkpt lat="45.39494" lon="5.91204">
        <ele>1719.147033416</ele>
        <time>2015-06-06T10:42:55Z</time>
      </trkpt>
      <trkpt lat="45.39492" lon="5.9121">
        <ele>1719.147033416</ele>
        <time>2015-06-06T10:43:00Z</time>
      </trkpt>
      <trkpt lat="45.3949" lon="5.91211">
        <ele>1719.147033416</ele>
        <time>2015-06-06T10:43:05Z</time>
      </trkpt>
      <trkpt lat="45.39489" lon="5.91216">
        <ele>1716.205365006</ele>
        <time>2015-06-06T10:43:10Z</time>
      </trkpt>
      <trkpt lat="45.3949" lon="5.91216">
        <ele>1716.205365006</ele>
        <time>2015-06-06T10:43:15Z</time>
      </trkpt>
      <trkpt lat="45.3949" lon="5.91218">
        <ele>1716.205365006</ele>
        <time>2015-06-06T10:43:20Z</time>
      </trkpt>
      <trkpt lat="45.3949" lon="5.91216">
        <ele>1716.205365006</ele>
        <time>2015-06-06T10:43:25Z</time>
      </trkpt>
      <trkpt lat="45.3949" lon="5.91215">
        <ele>1716.205365006</ele>
        <time>2015-06-06T10:43:30Z</time>
      </trkpt>
      <trkpt lat="45.3949" lon="5.91215">
        <ele>1716.205365006</ele>
        <time>2015-06-06T10:43:36Z</time>
      </trkpt>
      <trkpt lat="45.3949" lon="5.91215">
        <ele>1716.205365006</ele>
        <time>2015-06-06T10:43:40Z</time>
      </trkpt>
      <trkpt lat="45.3949" lon="5.91215">
        <ele>1716.205365006</ele>
        <time>2015-06-06T10:43:45Z</time>
      </trkpt>
      <trkpt lat="45.3949" lon="5.91215">
        <ele>1716.205365006</ele>
        <time>2015-06-06T10:43:49Z</time>
      </trkpt>
      <trkpt lat="45.39487" lon="5.91216">
        <ele>1716.205365006</ele>
        <time>2015-06-06T10:43:54Z</time>
      </trkpt>
      <trkpt lat="45.39485" lon="5.91218">
        <ele>1712.443265481</ele>
        <time>2015-06-06T10:44:00Z</time>
      </trkpt>
      <trkpt lat="45.39484" lon="5.91221">
        <ele>1712.443265481</ele>
        <time>2015-06-06T10:44:04Z</time>
      </trkpt>
      <trkpt lat="45.39484" lon="5.91223">
        <ele>1712.443265481</ele>
        <time>2015-06-06T10:44:09Z</time>
      </trkpt>
      <trkpt lat="45.39485" lon="5.91223">
        <ele>1712.443265481</ele>
        <time>2015-06-06T10:44:16Z</time>
      </trkpt>
      <trkpt lat="45.39483" lon="5.91224">
        <ele>1712.443265481</ele>
        <time>2015-06-06T10:44:20Z</time>
      </trkpt>
      <trkpt lat="45.39484" lon="5.91224">
        <ele>1707.039583926</ele>
        <time>2015-06-06T10:44:25Z</time>
      </trkpt>
      <trkpt lat="45.39482" lon="5.91227">
        <ele>1707.039583926</ele>
        <time>2015-06-06T10:44:30Z</time>
      </trkpt>
      <trkpt lat="45.39486" lon="5.91227">
        <ele>1707.039583926</ele>
        <time>2015-06-06T10:44:35Z</time>
      </trkpt>
      <trkpt lat="45.39492" lon="5.91229">
        <ele>1700.868312915</ele>
        <time>2015-06-06T10:44:40Z</time>
      </trkpt>
      <trkpt lat="45.39492" lon="5.91238">
        <ele>1700.868312915</ele>
        <time>2015-06-06T10:44:45Z</time>
      </trkpt>
      <trkpt lat="45.39489" lon="5.91249">
        <ele>1694.905271531</ele>
        <time>2015-06-06T10:44:50Z</time>
      </trkpt>
      <trkpt lat="45.39487" lon="5.91251">
        <ele>1694.905271531</ele>
        <time>2015-06-06T10:44:55Z</time>
      </trkpt>
      <trkpt lat="45.39487" lon="5.9125">
        <ele>1694.905271531</ele>
        <time>2015-06-06T10:45:00Z</time>
      </trkpt>
      <trkpt lat="45.39486" lon="5.91251">
        <ele>1694.905271531</ele>
        <time>2015-06-06T10:45:05Z</time>
      </trkpt>
      <trkpt lat="45.39485" lon="5.9125">
        <ele>1694.905271531</ele>
        <time>2015-06-06T10:45:10Z</time>
      </trkpt>
      <trkpt lat="45.39485" lon="5.91251">
        <ele>1694.905271531</ele>
        <time>2015-06-06T10:45:15Z</time>
      </trkpt>
      <trkpt lat="45.39484" lon="5.91248">
        <ele>1694.905271531</ele>
        <time>2015-06-06T10:45:20Z</time>
      </trkpt>
      <trkpt lat="45.39484" lon="5.91248">
        <ele>1694.905271531</ele>
        <time>2015-06-06T10:45:25Z</time>
      </trkpt>
      <trkpt lat="45.39484" lon="5.91248">
        <ele>1694.905271531</ele>
        <time>2015-06-06T10:45:30Z</time>
      </trkpt>
      <trkpt lat="45.39484" lon="5.91248">
        <ele>1694.905271531</ele>
        <time>2015-06-06T10:45:36Z</time>
      </trkpt>
      <trkpt lat="45.39484" lon="5.91248">
        <ele>1694.905271531</ele>
        <time>2015-06-06T10:45:40Z</time>
      </trkpt>
      <trkpt lat="45.39495" lon="5.91248">
        <ele>1688.862712688</ele>
        <time>2015-06-06T10:45:45Z</time>
      </trkpt>
      <trkpt lat="45.395" lon="5.91244">
        <ele>1688.862712688</ele>
        <time>2015-06-06T10:45:50Z</time>
      </trkpt>
      <trkpt lat="45.39502" lon="5.91241">
        <ele>1683.523647595</ele>
        <time>2015-06-06T10:45:55Z</time>
      </trkpt>
      <trkpt lat="45.39503" lon="5.9124">
        <ele>1683.523647595</ele>
        <time>2015-06-06T10:46:00Z</time>
      </trkpt>
      <trkpt lat="45.39503" lon="5.91239">
        <ele>1683.523647595</ele>
        <time>2015-06-06T10:46:05Z</time>
      </trkpt>
      <trkpt lat="45.39503" lon="5.91239">
        <ele>1683.523647595</ele>
        <time>2015-06-06T10:46:10Z</time>
      </trkpt>
      <trkpt lat="45.39503" lon="5.91241">
        <ele>1683.523647595</ele>
        <time>2015-06-06T10:46:15Z</time>
      </trkpt>
      <trkpt lat="45.39503" lon="5.91243">
        <ele>1683.523647595</ele>
        <time>2015-06-06T10:46:20Z</time>
      </trkpt>
      <trkpt lat="45.39508" lon="5.91255">
        <ele>1678.557412262</ele>
        <time>2015-06-06T10:46:25Z</time>
      </trkpt>
      <trkpt lat="45.39509" lon="5.91258">
        <ele>1678.557412262</ele>
        <time>2015-06-06T10:46:30Z</time>
      </trkpt>
      <trkpt lat="45.39512" lon="5.91251">
        <ele>1678.557412262</ele>
        <time>2015-06-06T10:46:36Z</time>
      </trkpt>
      <trkpt lat="45.39514" lon="5.9125">
        <ele>1674.105485221</ele>
        <time>2015-06-06T10:46:40Z</time>
      </trkpt>
      <trkpt lat="45.39516" lon="5.91254">
        <ele>1674.105485221</ele>
        <time>2015-06-06T10:46:46Z</time>
      </trkpt>
      <trkpt lat="45.39523" lon="5.91254">
        <ele>1669.540035136</ele>
        <time>2015-06-06T10:46:49Z</time>
      </trkpt>
      <trkpt lat="45.39525" lon="5.9126">
        <ele>1669.540035136</ele>
        <time>2015-06-06T10:46:55Z</time>
      </trkpt>
      <trkpt lat="45.39524" lon="5.91261">
        <ele>1669.540035136</ele>
        <time>2015-06-06T10:47:01Z</time>
      </trkpt>
      <trkpt lat="45.39524" lon="5.91264">
        <ele>1669.540035136</ele>
        <time>2015-06-06T10:47:05Z</time>
      </trkpt>
      <trkpt lat="45.39523" lon="5.91265">
        <ele>1669.540035136</ele>
        <time>2015-06-06T10:47:09Z</time>
      </trkpt>
      <trkpt lat="45.39525" lon="5.91257">
        <ele>1667.740151331</ele>
        <time>2015-06-06T10:47:15Z</time>
      </trkpt>
      <trkpt lat="45.3953" lon="5.91263">
        <ele>1665.940267527</ele>
        <time>2015-06-06T10:47:20Z</time>
      </trkpt>
      <trkpt lat="45.39536" lon="5.91265">
        <ele>1665.940267527</ele>
        <time>2015-06-06T10:47:25Z</time>
      </trkpt>
      <trkpt lat="45.39537" lon="5.91264">
        <ele>1665.940267527</ele>
        <time>2015-06-06T10:47:30Z</time>
      </trkpt>
      <trkpt lat="45.39537" lon="5.91266">
        <ele>1662.184361313</ele>
        <time>2015-06-06T10:47:35Z</time>
      </trkpt>
      <trkpt lat="45.39539" lon="5.91283">
        <ele>1659.34873519</ele>
        <time>2015-06-06T10:47:40Z</time>
      </trkpt>
      <trkpt lat="45.39537" lon="5.91282">
        <ele>1659.34873519</ele>
        <time>2015-06-06T10:47:45Z</time>
      </trkpt>
      <trkpt lat="45.39539" lon="5.91289">
        <ele>1659.34873519</ele>
        <time>2015-06-06T10:47:50Z</time>
      </trkpt>
      <trkpt lat="45.39531" lon="5.91292">
        <ele>1655.860036679</ele>
        <time>2015-06-06T10:47:55Z</time>
      </trkpt>
      <trkpt lat="45.39532" lon="5.91296">
        <ele>1655.860036679</ele>
        <time>2015-06-06T10:47:59Z</time>
      </trkpt>
      <trkpt lat="45.39532" lon="5.91296">
        <ele>1655.860036679</ele>
        <time>2015-06-06T10:48:04Z</time>
      </trkpt>
      <trkpt lat="45.39531" lon="5.91295">
        <ele>1655.860036679</ele>
        <time>2015-06-06T10:48:10Z</time>
      </trkpt>
      <trkpt lat="45.39529" lon="5.91291">
        <ele>1655.860036679</ele>
        <time>2015-06-06T10:48:15Z</time>
      </trkpt>
      <trkpt lat="45.39534" lon="5.91283">
        <ele>1652.679333781</ele>
        <time>2015-06-06T10:48:20Z</time>
      </trkpt>
      <trkpt lat="45.39532" lon="5.91278">
        <ele>1652.679333781</ele>
        <time>2015-06-06T10:48:25Z</time>
      </trkpt>
      <trkpt lat="45.39532" lon="5.91276">
        <ele>1652.679333781</ele>
        <time>2015-06-06T10:48:30Z</time>
      </trkpt>
      <trkpt lat="45.39535" lon="5.9127">
        <ele>1649.937214866</ele>
        <time>2015-06-06T10:48:35Z</time>
      </trkpt>
      <trkpt lat="45.39532" lon="5.9127">
        <ele>1649.937214866</ele>
        <time>2015-06-06T10:48:40Z</time>
      </trkpt>
      <trkpt lat="45.39528" lon="5.91268">
        <ele>1649.937214866</ele>
        <time>2015-06-06T10:48:45Z</time>
      </trkpt>
      <trkpt lat="45.39525" lon="5.91266">
        <ele>1647.601785674</ele>
        <time>2015-06-06T10:48:50Z</time>
      </trkpt>
      <trkpt lat="45.39522" lon="5.91262">
        <ele>1647.601785674</ele>
        <time>2015-06-06T10:48:55Z</time>
      </trkpt>
      <trkpt lat="45.39519" lon="5.91257">
        <ele>1647.601785674</ele>
        <time>2015-06-06T10:49:01Z</time>
      </trkpt>
      <trkpt lat="45.39517" lon="5.91255">
        <ele>1646.388645324</ele>
        <time>2015-06-06T10:49:05Z</time>
      </trkpt>
      <trkpt lat="45.39515" lon="5.91252">
        <ele>1646.388645324</ele>
        <time>2015-06-06T10:49:10Z</time>
      </trkpt>
      <trkpt lat="45.39511" lon="5.91249">
        <ele>1646.388645324</ele>
        <time>2015-06-06T10:49:15Z</time>
      </trkpt>
      <trkpt lat="45.39508" lon="5.91248">
        <ele>1646.055820324</ele>
        <time>2015-06-06T10:49:20Z</time>
      </trkpt>
      <trkpt lat="45.39508" lon="5.91248">
        <ele>1646.055820324</ele>
        <time>2015-06-06T10:49:25Z</time>
      </trkpt>
      <trkpt lat="45.39506" lon="5.91247">
        <ele>1646.055820324</ele>
        <time>2015-06-06T10:49:30Z</time>
      </trkpt>
      <trkpt lat="45.39502" lon="5.91244">
        <ele>1646.055820324</ele>
        <time>2015-06-06T10:49:35Z</time>
      </trkpt>
      <trkpt lat="45.395" lon="5.9124">
        <ele>1646.527513649</ele>
        <time>2015-06-06T10:49:41Z</time>
      </trkpt>
      <trkpt lat="45.395" lon="5.91238">
        <ele>1646.527513649</ele>
        <time>2015-06-06T10:49:45Z</time>
      </trkpt>
      <trkpt lat="45.39497" lon="5.91236">
        <ele>1646.527513649</ele>
        <time>2015-06-06T10:49:50Z</time>
      </trkpt>
      <trkpt lat="45.39494" lon="5.91233">
        <ele>1647.732029717</ele>
        <time>2015-06-06T10:49:55Z</time>
      </trkpt>
      <trkpt lat="45.39491" lon="5.91228">
        <ele>1647.732029717</ele>
        <time>2015-06-06T10:50:00Z</time>
      </trkpt>
      <trkpt lat="45.39487" lon="5.91228">
        <ele>1647.732029717</ele>
        <time>2015-06-06T10:50:05Z</time>
      </trkpt>
      <trkpt lat="45.39484" lon="5.91221">
        <ele>1648.714841407</ele>
        <time>2015-06-06T10:50:10Z</time>
      </trkpt>
      <trkpt lat="45.39484" lon="5.91221">
        <ele>1648.714841407</ele>
        <time>2015-06-06T10:50:15Z</time>
      </trkpt>
      <trkpt lat="45.39484" lon="5.91221">
        <ele>1648.714841407</ele>
        <time>2015-06-06T10:50:19Z</time>
      </trkpt>
      <trkpt lat="45.39485" lon="5.91221">
        <ele>1648.714841407</ele>
        <time>2015-06-06T10:50:25Z</time>
      </trkpt>
      <trkpt lat="45.39485" lon="5.91221">
        <ele>1648.714841407</ele>
        <time>2015-06-06T10:50:29Z</time>
      </trkpt>
      <trkpt lat="45.39484" lon="5.91229">
        <ele>1648.714841407</ele>
        <time>2015-06-06T10:50:35Z</time>
      </trkpt>
      <trkpt lat="45.39484" lon="5.91223">
        <ele>1649.781925106</ele>
        <time>2015-06-06T10:50:40Z</time>
      </trkpt>
      <trkpt lat="45.39483" lon="5.91219">
        <ele>1649.781925106</ele>
        <time>2015-06-06T10:50:44Z</time>
      </trkpt>
      <trkpt lat="45.39481" lon="5.91215">
        <ele>1649.781925106</ele>
        <time>2015-06-06T10:50:50Z</time>
      </trkpt>
      <trkpt lat="45.39478" lon="5.91213">
        <ele>1651.802027975</ele>
        <time>2015-06-06T10:50:56Z</time>
      </trkpt>
      <trkpt lat="45.39476" lon="5.91212">
        <ele>1651.802027975</ele>
        <time>2015-06-06T10:51:00Z</time>
      </trkpt>
      <trkpt lat="45.39476" lon="5.91213">
        <ele>1651.802027975</ele>
        <time>2015-06-06T10:51:05Z</time>
      </trkpt>
      <trkpt lat="45.39476" lon="5.91213">
        <ele>1651.802027975</ele>
        <time>2015-06-06T10:51:10Z</time>
      </trkpt>
      <trkpt lat="45.39476" lon="5.91216">
        <ele>1651.802027975</ele>
        <time>2015-06-06T10:51:15Z</time>
      </trkpt>
      <trkpt lat="45.39475" lon="5.91217">
        <ele>1651.802027975</ele>
        <time>2015-06-06T10:51:20Z</time>
      </trkpt>
      <trkpt lat="45.39475" lon="5.91218">
        <ele>1651.802027975</ele>
        <time>2015-06-06T10:51:26Z</time>
      </trkpt>
      <trkpt lat="45.39475" lon="5.91223">
        <ele>1654.688749128</ele>
        <time>2015-06-06T10:51:30Z</time>
      </trkpt>
      <trkpt lat="45.39471" lon="5.9123">
        <ele>1654.688749128</ele>
        <time>2015-06-06T10:51:35Z</time>
      </trkpt>
      <trkpt lat="45.3947" lon="5.91228">
        <ele>1654.688749128</ele>
        <time>2015-06-06T10:51:40Z</time>
      </trkpt>
      <trkpt lat="45.39469" lon="5.91226">
        <ele>1656.89620278</ele>
        <time>2015-06-06T10:51:45Z</time>
      </trkpt>
      <trkpt lat="45.39469" lon="5.91228">
        <ele>1656.89620278</ele>
        <time>2015-06-06T10:51:50Z</time>
      </trkpt>
      <trkpt lat="45.39469" lon="5.91228">
        <ele>1656.89620278</ele>
        <time>2015-06-06T10:51:55Z</time>
      </trkpt>
      <trkpt lat="45.39469" lon="5.91228">
        <ele>1656.89620278</ele>
        <time>2015-06-06T10:52:00Z</time>
      </trkpt>
      <trkpt lat="45.39469" lon="5.91228">
        <ele>1656.89620278</ele>
        <time>2015-06-06T10:52:05Z</time>
      </trkpt>
      <trkpt lat="45.39469" lon="5.91228">
        <ele>1656.89620278</ele>
        <time>2015-06-06T10:52:10Z</time>
      </trkpt>
      <trkpt lat="45.39469" lon="5.91228">
        <ele>1656.89620278</ele>
        <time>2015-06-06T10:52:14Z</time>
      </trkpt>
      <trkpt lat="45.3947" lon="5.91229">
        <ele>1656.89620278</ele>
        <time>2015-06-06T10:52:20Z</time>
      </trkpt>
      <trkpt lat="45.39472" lon="5.91228">
        <ele>1656.89620278</ele>
        <time>2015-06-06T10:52:25Z</time>
      </trkpt>
      <trkpt lat="45.39471" lon="5.91228">
        <ele>1656.89620278</ele>
        <time>2015-06-06T10:52:29Z</time>
      </trkpt>
      <trkpt lat="45.39471" lon="5.91228">
        <ele>1656.89620278</ele>
        <time>2015-06-06T10:52:36Z</time>
      </trkpt>
      <trkpt lat="45.39471" lon="5.91228">
        <ele>1656.89620278</ele>
        <time>2015-06-06T10:52:40Z</time>
      </trkpt>
      <trkpt lat="45.39471" lon="5.91228">
        <ele>1656.89620278</ele>
        <time>2015-06-06T10:52:45Z</time>
      </trkpt>
      <trkpt lat="45.39471" lon="5.91228">
        <ele>1656.89620278</ele>
        <time>2015-06-06T10:52:50Z</time>
      </trkpt>
      <trkpt lat="45.39471" lon="5.91228">
        <ele>1656.89620278</ele>
        <time>2015-06-06T10:52:55Z</time>
      </trkpt>
      <trkpt lat="45.3947" lon="5.91225">
        <ele>1656.89620278</ele>
        <time>2015-06-06T10:53:00Z</time>
      </trkpt>
      <trkpt lat="45.39468" lon="5.91211">
        <ele>1658.907272839</ele>
        <time>2015-06-06T10:53:05Z</time>
      </trkpt>
      <trkpt lat="45.39463" lon="5.91215">
        <ele>1658.907272839</ele>
        <time>2015-06-06T10:53:10Z</time>
      </trkpt>
      <trkpt lat="45.39458" lon="5.91212">
        <ele>1661.311811878</ele>
        <time>2015-06-06T10:53:15Z</time>
      </trkpt>
      <trkpt lat="45.39455" lon="5.91202">
        <ele>1661.311811878</ele>
        <time>2015-06-06T10:53:20Z</time>
      </trkpt>
      <trkpt lat="45.39449" lon="5.91206">
        <ele>1663.631548953</ele>
        <time>2015-06-06T10:53:25Z</time>
      </trkpt>
      <trkpt lat="45.39446" lon="5.91207">
        <ele>1663.631548953</ele>
        <time>2015-06-06T10:53:29Z</time>
      </trkpt>
      <trkpt lat="45.39443" lon="5.91207">
        <ele>1663.631548953</ele>
        <time>2015-06-06T10:53:36Z</time>
      </trkpt>
      <trkpt lat="45.3944" lon="5.91206">
        <ele>1663.631548953</ele>
        <time>2015-06-06T10:53:40Z</time>
      </trkpt>
      <trkpt lat="45.39441" lon="5.91211">
        <ele>1665.863058439</ele>
        <time>2015-06-06T10:53:45Z</time>
      </trkpt>
      <trkpt lat="45.3944" lon="5.91201">
        <ele>1665.863058439</ele>
        <time>2015-06-06T10:53:49Z</time>
      </trkpt>
      <trkpt lat="45.39434" lon="5.912">
        <ele>1668.003374097</ele>
        <time>2015-06-06T10:53:55Z</time>
      </trkpt>
      <trkpt lat="45.39436" lon="5.91199">
        <ele>1668.003374097</ele>
        <time>2015-06-06T10:53:59Z</time>
      </trkpt>
      <trkpt lat="45.39436" lon="5.91198">
        <ele>1668.003374097</ele>
        <time>2015-06-06T10:54:05Z</time>
      </trkpt>
      <trkpt lat="45.39436" lon="5.91198">
        <ele>1668.003374097</ele>
        <time>2015-06-06T10:54:10Z</time>
      </trkpt>
      <trkpt lat="45.39436" lon="5.91198">
        <ele>1668.003374097</ele>
        <time>2015-06-06T10:54:14Z</time>
      </trkpt>
      <trkpt lat="45.39436" lon="5.91198">
        <ele>1668.003374097</ele>
        <time>2015-06-06T10:54:19Z</time>
      </trkpt>
      <trkpt lat="45.39434" lon="5.91197">
        <ele>1668.003374097</ele>
        <time>2015-06-06T10:54:24Z</time>
      </trkpt>
      <trkpt lat="45.39436" lon="5.91198">
        <ele>1668.003374097</ele>
        <time>2015-06-06T10:54:29Z</time>
      </trkpt>
      <trkpt lat="45.39436" lon="5.91199">
        <ele>1668.003374097</ele>
        <time>2015-06-06T10:54:34Z</time>
      </trkpt>
      <trkpt lat="45.39437" lon="5.91199">
        <ele>1670.775150118</ele>
        <time>2015-06-06T10:54:39Z</time>
      </trkpt>
      <trkpt lat="45.39437" lon="5.91198">
        <ele>1670.775150118</ele>
        <time>2015-06-06T10:54:44Z</time>
      </trkpt>
      <trkpt lat="45.39437" lon="5.91198">
        <ele>1670.775150118</ele>
        <time>2015-06-06T10:54:49Z</time>
      </trkpt>
      <trkpt lat="45.39437" lon="5.91198">
        <ele>1670.775150118</ele>
        <time>2015-06-06T10:54:54Z</time>
      </trkpt>
      <trkpt lat="45.39437" lon="5.91198">
        <ele>1670.775150118</ele>
        <time>2015-06-06T10:54:59Z</time>
      </trkpt>
      <trkpt lat="45.39437" lon="5.91198">
        <ele>1670.775150118</ele>
        <time>2015-06-06T10:55:04Z</time>
      </trkpt>
      <trkpt lat="45.39437" lon="5.91198">
        <ele>1670.775150118</ele>
        <time>2015-06-06T10:55:10Z</time>
      </trkpt>
      <trkpt lat="45.39437" lon="5.91198">
        <ele>1670.775150118</ele>
        <time>2015-06-06T10:55:15Z</time>
      </trkpt>
      <trkpt lat="45.39437" lon="5.91198">
        <ele>1670.775150118</ele>
        <time>2015-06-06T10:55:20Z</time>
      </trkpt>
      <trkpt lat="45.39437" lon="5.91198">
        <ele>1670.775150118</ele>
        <time>2015-06-06T10:55:25Z</time>
      </trkpt>
      <trkpt lat="45.39437" lon="5.91198">
        <ele>1670.775150118</ele>
        <time>2015-06-06T10:55:30Z</time>
      </trkpt>
      <trkpt lat="45.39437" lon="5.91198">
        <ele>1670.775150118</ele>
        <time>2015-06-06T10:55:35Z</time>
      </trkpt>
      <trkpt lat="45.39437" lon="5.91198">
        <ele>1670.775150118</ele>
        <time>2015-06-06T10:55:40Z</time>
      </trkpt>
      <trkpt lat="45.39437" lon="5.91198">
        <ele>1670.775150118</ele>
        <time>2015-06-06T10:55:45Z</time>
      </trkpt>
      <trkpt lat="45.39437" lon="5.91198">
        <ele>1670.775150118</ele>
        <time>2015-06-06T10:55:50Z</time>
      </trkpt>
      <trkpt lat="45.39437" lon="5.91198">
        <ele>1670.775150118</ele>
        <time>2015-06-06T10:55:56Z</time>
      </trkpt>
      <trkpt lat="45.39437" lon="5.91198">
        <ele>1670.775150118</ele>
        <time>2015-06-06T10:56:00Z</time>
      </trkpt>
      <trkpt lat="45.39435" lon="5.91193">
        <ele>1670.775150118</ele>
        <time>2015-06-06T10:56:06Z</time>
      </trkpt>
      <trkpt lat="45.39436" lon="5.91194">
        <ele>1670.775150118</ele>
        <time>2015-06-06T10:56:09Z</time>
      </trkpt>
      <trkpt lat="45.39437" lon="5.9119">
        <ele>1670.775150118</ele>
        <time>2015-06-06T10:56:15Z</time>
      </trkpt>
      <trkpt lat="45.39437" lon="5.9119">
        <ele>1670.775150118</ele>
        <time>2015-06-06T10:56:20Z</time>
      </trkpt>
      <trkpt lat="45.39437" lon="5.91187">
        <ele>1673.539203392</ele>
        <time>2015-06-06T10:56:25Z</time>
      </trkpt>
      <trkpt lat="45.39438" lon="5.91191">
        <ele>1673.539203392</ele>
        <time>2015-06-06T10:56:30Z</time>
      </trkpt>
      <trkpt lat="45.39438" lon="5.91193">
        <ele>1673.539203392</ele>
        <time>2015-06-06T10:56:35Z</time>
      </trkpt>
      <trkpt lat="45.39437" lon="5.91185">
        <ele>1675.995600086</ele>
        <time>2015-06-06T10:56:40Z</time>
      </trkpt>
      <trkpt lat="45.39437" lon="5.91182">
        <ele>1675.995600086</ele>
        <time>2015-06-06T10:56:46Z</time>
      </trkpt>
      <trkpt lat="45.39437" lon="5.91182">
        <ele>1675.995600086</ele>
        <time>2015-06-06T10:56:49Z</time>
      </trkpt>
      <trkpt lat="45.39436" lon="5.91183">
        <ele>1675.995600086</ele>
        <time>2015-06-06T10:56:56Z</time>
      </trkpt>
      <trkpt lat="45.39436" lon="5.91183">
        <ele>1675.995600086</ele>
        <time>2015-06-06T10:57:00Z</time>
      </trkpt>
      <trkpt lat="45.39438" lon="5.91191">
        <ele>1675.995600086</ele>
        <time>2015-06-06T10:57:05Z</time>
      </trkpt>
      <trkpt lat="45.39438" lon="5.91196">
        <ele>1679.02520981</ele>
        <time>2015-06-06T10:57:10Z</time>
      </trkpt>
      <trkpt lat="45.39436" lon="5.91202">
        <ele>1679.02520981</ele>
        <time>2015-06-06T10:57:15Z</time>
      </trkpt>
      <trkpt lat="45.39436" lon="5.91209">
        <ele>1682.573077961</ele>
        <time>2015-06-06T10:57:20Z</time>
      </trkpt>
      <trkpt lat="45.39437" lon="5.91205">
        <ele>1682.573077961</ele>
        <time>2015-06-06T10:57:25Z</time>
      </trkpt>
      <trkpt lat="45.39437" lon="5.91201">
        <ele>1682.573077961</ele>
        <time>2015-06-06T10:57:29Z</time>
      </trkpt>
      <trkpt lat="45.39435" lon="5.91199">
        <ele>1682.573077961</ele>
        <time>2015-06-06T10:57:35Z</time>
      </trkpt>
      <trkpt lat="45.39432" lon="5.91207">
        <ele>1685.576376226</ele>
        <time>2015-06-06T10:57:39Z</time>
      </trkpt>
      <trkpt lat="45.39429" lon="5.91209">
        <ele>1685.576376226</ele>
        <time>2015-06-06T10:57:45Z</time>
      </trkpt>
      <trkpt lat="45.39422" lon="5.9122">
        <ele>1687.920306407</ele>
        <time>2015-06-06T10:57:49Z</time>
      </trkpt>
      <trkpt lat="45.39431" lon="5.91205">
        <ele>1690.077637319</ele>
        <time>2015-06-06T10:57:54Z</time>
      </trkpt>
      <trkpt lat="45.39429" lon="5.91206">
        <ele>1690.077637319</ele>
        <time>2015-06-06T10:58:01Z</time>
      </trkpt>
      <trkpt lat="45.39429" lon="5.91207">
        <ele>1690.077637319</ele>
        <time>2015-06-06T10:58:05Z</time>
      </trkpt>
      <trkpt lat="45.39426" lon="5.91211">
        <ele>1690.077637319</ele>
        <time>2015-06-06T10:58:10Z</time>
      </trkpt>
      <trkpt lat="45.39426" lon="5.9121">
        <ele>1690.077637319</ele>
        <time>2015-06-06T10:58:15Z</time>
      </trkpt>
      <trkpt lat="45.39426" lon="5.91211">
        <ele>1692.053567407</ele>
        <time>2015-06-06T10:58:20Z</time>
      </trkpt>
      <trkpt lat="45.39426" lon="5.91211">
        <ele>1692.053567407</ele>
        <time>2015-06-06T10:58:25Z</time>
      </trkpt>
      <trkpt lat="45.39426" lon="5.91211">
        <ele>1692.053567407</ele>
        <time>2015-06-06T10:58:30Z</time>
      </trkpt>
      <trkpt lat="45.39423" lon="5.9121">
        <ele>1692.053567407</ele>
        <time>2015-06-06T10:58:34Z</time>
      </trkpt>
      <trkpt lat="45.39422" lon="5.91209">
        <ele>1692.053567407</ele>
        <time>2015-06-06T10:58:39Z</time>
      </trkpt>
      <trkpt lat="45.39423" lon="5.91208">
        <ele>1692.053567407</ele>
        <time>2015-06-06T10:58:44Z</time>
      </trkpt>
      <trkpt lat="45.39423" lon="5.91208">
        <ele>1692.053567407</ele>
        <time>2015-06-06T10:58:49Z</time>
      </trkpt>
      <trkpt lat="45.39423" lon="5.91208">
        <ele>1692.053567407</ele>
        <time>2015-06-06T10:58:55Z</time>
      </trkpt>
      <trkpt lat="45.39423" lon="5.91207">
        <ele>1692.053567407</ele>
        <time>2015-06-06T10:59:00Z</time>
      </trkpt>
      <trkpt lat="45.39423" lon="5.91207">
        <ele>1692.053567407</ele>
        <time>2015-06-06T10:59:05Z</time>
      </trkpt>
      <trkpt lat="45.39423" lon="5.91207">
        <ele>1692.053567407</ele>
        <time>2015-06-06T10:59:10Z</time>
      </trkpt>
      <trkpt lat="45.39423" lon="5.91207">
        <ele>1692.053567407</ele>
        <time>2015-06-06T10:59:15Z</time>
      </trkpt>
      <trkpt lat="45.39423" lon="5.91207">
        <ele>1692.053567407</ele>
        <time>2015-06-06T10:59:20Z</time>
      </trkpt>
      <trkpt lat="45.39419" lon="5.91205">
        <ele>1694.142031423</ele>
        <time>2015-06-06T10:59:25Z</time>
      </trkpt>
      <trkpt lat="45.39411" lon="5.91199">
        <ele>1694.142031423</ele>
        <time>2015-06-06T10:59:30Z</time>
      </trkpt>
      <trkpt lat="45.39405" lon="5.91191">
        <ele>1695.749853184</ele>
        <time>2015-06-06T10:59:35Z</time>
      </trkpt>
      <trkpt lat="45.39407" lon="5.91181">
        <ele>1695.749853184</ele>
        <time>2015-06-06T10:59:40Z</time>
      </trkpt>
      <trkpt lat="45.3941" lon="5.91177">
        <ele>1697.482804986</ele>
        <time>2015-06-06T10:59:45Z</time>
      </trkpt>
      <trkpt lat="45.39405" lon="5.91184">
        <ele>1697.482804986</ele>
        <time>2015-06-06T10:59:50Z</time>
      </trkpt>
      <trkpt lat="45.39402" lon="5.91187">
        <ele>1699.036756279</ele>
        <time>2015-06-06T10:59:56Z</time>
      </trkpt>
      <trkpt lat="45.39402" lon="5.91188">
        <ele>1699.036756279</ele>
        <time>2015-06-06T11:00:00Z</time>
      </trkpt>
      <trkpt lat="45.39402" lon="5.91188">
        <ele>1699.036756279</ele>
        <time>2015-06-06T11:00:05Z</time>
      </trkpt>
      <trkpt lat="45.39401" lon="5.91188">
        <ele>1699.036756279</ele>
        <time>2015-06-06T11:00:09Z</time>
      </trkpt>
      <trkpt lat="45.39401" lon="5.91188">
        <ele>1699.036756279</ele>
        <time>2015-06-06T11:00:15Z</time>
      </trkpt>
      <trkpt lat="45.39401" lon="5.91188">
        <ele>1699.036756279</ele>
        <time>2015-06-06T11:00:20Z</time>
      </trkpt>
      <trkpt lat="45.39401" lon="5.91188">
        <ele>1699.036756279</ele>
        <time>2015-06-06T11:00:25Z</time>
      </trkpt>
      <trkpt lat="45.39401" lon="5.91188">
        <ele>1699.036756279</ele>
        <time>2015-06-06T11:00:30Z</time>
      </trkpt>
      <trkpt lat="45.39401" lon="5.91188">
        <ele>1699.036756279</ele>
        <time>2015-06-06T11:00:35Z</time>
      </trkpt>
      <trkpt lat="45.39395" lon="5.91189">
        <ele>1699.036756279</ele>
        <time>2015-06-06T11:00:41Z</time>
      </trkpt>
      <trkpt lat="45.39391" lon="5.91188">
        <ele>1700.995804381</ele>
        <time>2015-06-06T11:00:45Z</time>
      </trkpt>
      <trkpt lat="45.39396" lon="5.9118">
        <ele>1700.995804381</ele>
        <time>2015-06-06T11:00:50Z</time>
      </trkpt>
      <trkpt lat="45.39388" lon="5.91189">
        <ele>1703.756070528</ele>
        <time>2015-06-06T11:00:55Z</time>
      </trkpt>
      <trkpt lat="45.39385" lon="5.91182">
        <ele>1703.756070528</ele>
        <time>2015-06-06T11:01:00Z</time>
      </trkpt>
      <trkpt lat="45.3939" lon="5.91174">
        <ele>1706.673402364</ele>
        <time>2015-06-06T11:01:05Z</time>
      </trkpt>
      <trkpt lat="45.3939" lon="5.9117">
        <ele>1706.673402364</ele>
        <time>2015-06-06T11:01:10Z</time>
      </trkpt>
      <trkpt lat="45.39391" lon="5.91165">
        <ele>1706.673402364</ele>
        <time>2015-06-06T11:01:15Z</time>
      </trkpt>
      <trkpt lat="45.3939" lon="5.91166">
        <ele>1706.673402364</ele>
        <time>2015-06-06T11:01:20Z</time>
      </trkpt>
      <trkpt lat="45.39389" lon="5.91167">
        <ele>1706.673402364</ele>
        <time>2015-06-06T11:01:25Z</time>
      </trkpt>
      <trkpt lat="45.39389" lon="5.91168">
        <ele>1708.574037273</ele>
        <time>2015-06-06T11:01:30Z</time>
      </trkpt>
      <trkpt lat="45.39389" lon="5.91168">
        <ele>1708.574037273</ele>
        <time>2015-06-06T11:01:35Z</time>
      </trkpt>
      <trkpt lat="45.39389" lon="5.91168">
        <ele>1708.574037273</ele>
        <time>2015-06-06T11:01:40Z</time>
      </trkpt>
      <trkpt lat="45.39389" lon="5.91168">
        <ele>1708.574037273</ele>
        <time>2015-06-06T11:01:45Z</time>
      </trkpt>
      <trkpt lat="45.39389" lon="5.91168">
        <ele>1708.574037273</ele>
        <time>2015-06-06T11:01:50Z</time>
      </trkpt>
      <trkpt lat="45.39386" lon="5.91159">
        <ele>1708.574037273</ele>
        <time>2015-06-06T11:01:56Z</time>
      </trkpt>
      <trkpt lat="45.39385" lon="5.91139">
        <ele>1710.103745054</ele>
        <time>2015-06-06T11:02:00Z</time>
      </trkpt>
      <trkpt lat="45.39378" lon="5.91143">
        <ele>1710.103745054</ele>
        <time>2015-06-06T11:02:06Z</time>
      </trkpt>
      <trkpt lat="45.39379" lon="5.91136">
        <ele>1711.573851719</ele>
        <time>2015-06-06T11:02:09Z</time>
      </trkpt>
      <trkpt lat="45.39366" lon="5.91144">
        <ele>1712.207262772</ele>
        <time>2015-06-06T11:02:15Z</time>
      </trkpt>
      <trkpt lat="45.3937" lon="5.91134">
        <ele>1712.840673825</ele>
        <time>2015-06-06T11:02:20Z</time>
      </trkpt>
      <trkpt lat="45.39369" lon="5.91134">
        <ele>1712.840673825</ele>
        <time>2015-06-06T11:02:25Z</time>
      </trkpt>
      <trkpt lat="45.39369" lon="5.91134">
        <ele>1712.840673825</ele>
        <time>2015-06-06T11:02:29Z</time>
      </trkpt>
      <trkpt lat="45.39369" lon="5.91134">
        <ele>1712.840673825</ele>
        <time>2015-06-06T11:02:35Z</time>
      </trkpt>
      <trkpt lat="45.39369" lon="5.91134">
        <ele>1712.840673825</ele>
        <time>2015-06-06T11:02:40Z</time>
      </trkpt>
      <trkpt lat="45.39369" lon="5.91134">
        <ele>1712.840673825</ele>
        <time>2015-06-06T11:02:45Z</time>
      </trkpt>
      <trkpt lat="45.39368" lon="5.91134">
        <ele>1712.840673825</ele>
        <time>2015-06-06T11:02:50Z</time>
      </trkpt>
      <trkpt lat="45.39368" lon="5.91134">
        <ele>1712.840673825</ele>
        <time>2015-06-06T11:02:55Z</time>
      </trkpt>
      <trkpt lat="45.39368" lon="5.91134">
        <ele>1712.840673825</ele>
        <time>2015-06-06T11:03:00Z</time>
      </trkpt>
      <trkpt lat="45.39368" lon="5.91134">
        <ele>1712.840673825</ele>
        <time>2015-06-06T11:03:05Z</time>
      </trkpt>
      <trkpt lat="45.39368" lon="5.91134">
        <ele>1712.840673825</ele>
        <time>2015-06-06T11:03:10Z</time>
      </trkpt>
      <trkpt lat="45.39368" lon="5.91134">
        <ele>1712.840673825</ele>
        <time>2015-06-06T11:03:15Z</time>
      </trkpt>
      <trkpt lat="45.39368" lon="5.91134">
        <ele>1712.840673825</ele>
        <time>2015-06-06T11:03:20Z</time>
      </trkpt>
      <trkpt lat="45.39368" lon="5.91134">
        <ele>1712.840673825</ele>
        <time>2015-06-06T11:03:25Z</time>
      </trkpt>
      <trkpt lat="45.39368" lon="5.91134">
        <ele>1712.840673825</ele>
        <time>2015-06-06T11:03:29Z</time>
      </trkpt>
      <trkpt lat="45.39368" lon="5.91134">
        <ele>1712.840673825</ele>
        <time>2015-06-06T11:03:35Z</time>
      </trkpt>
      <trkpt lat="45.39368" lon="5.91134">
        <ele>1712.840673825</ele>
        <time>2015-06-06T11:03:41Z</time>
      </trkpt>
      <trkpt lat="45.39368" lon="5.91134">
        <ele>1712.840673825</ele>
        <time>2015-06-06T11:03:45Z</time>
      </trkpt>
      <trkpt lat="45.39368" lon="5.91134">
        <ele>1712.840673825</ele>
        <time>2015-06-06T11:03:50Z</time>
      </trkpt>
      <trkpt lat="45.39368" lon="5.91134">
        <ele>1712.840673825</ele>
        <time>2015-06-06T11:03:54Z</time>
      </trkpt>
      <trkpt lat="45.39367" lon="5.91134">
        <ele>1712.840673825</ele>
        <time>2015-06-06T11:04:01Z</time>
      </trkpt>
      <trkpt lat="45.39362" lon="5.91119">
        <ele>1712.47393587</ele>
        <time>2015-06-06T11:04:05Z</time>
      </trkpt>
      <trkpt lat="45.39354" lon="5.91109">
        <ele>1711.316506348</ele>
        <time>2015-06-06T11:04:10Z</time>
      </trkpt>
      <trkpt lat="45.39345" lon="5.91104">
        <ele>1709.574985632</ele>
        <time>2015-06-06T11:04:15Z</time>
      </trkpt>
      <trkpt lat="45.39337" lon="5.91104">
        <ele>1709.574985632</ele>
        <time>2015-06-06T11:04:20Z</time>
      </trkpt>
      <trkpt lat="45.39334" lon="5.91105">
        <ele>1708.308104856</ele>
        <time>2015-06-06T11:04:25Z</time>
      </trkpt>
      <trkpt lat="45.39334" lon="5.91105">
        <ele>1708.308104856</ele>
        <time>2015-06-06T11:04:29Z</time>
      </trkpt>
      <trkpt lat="45.39334" lon="5.91105">
        <ele>1708.308104856</ele>
        <time>2015-06-06T11:04:34Z</time>
      </trkpt>
      <trkpt lat="45.39334" lon="5.91105">
        <ele>1708.308104856</ele>
        <time>2015-06-06T11:04:40Z</time>
      </trkpt>
      <trkpt lat="45.39334" lon="5.91105">
        <ele>1708.308104856</ele>
        <time>2015-06-06T11:04:46Z</time>
      </trkpt>
      <trkpt lat="45.39334" lon="5.91105">
        <ele>1708.308104856</ele>
        <time>2015-06-06T11:04:50Z</time>
      </trkpt>
      <trkpt lat="45.39334" lon="5.91105">
        <ele>1708.308104856</ele>
        <time>2015-06-06T11:04:55Z</time>
      </trkpt>
      <trkpt lat="45.39334" lon="5.91105">
        <ele>1708.308104856</ele>
        <time>2015-06-06T11:04:59Z</time>
      </trkpt>
      <trkpt lat="45.39334" lon="5.91105">
        <ele>1708.308104856</ele>
        <time>2015-06-06T11:05:04Z</time>
      </trkpt>
      <trkpt lat="45.39334" lon="5.91105">
        <ele>1708.308104856</ele>
        <time>2015-06-06T11:05:09Z</time>
      </trkpt>
      <trkpt lat="45.39334" lon="5.91105">
        <ele>1708.308104856</ele>
        <time>2015-06-06T11:05:14Z</time>
      </trkpt>
      <trkpt lat="45.39334" lon="5.91105">
        <ele>1708.308104856</ele>
        <time>2015-06-06T11:05:21Z</time>
      </trkpt>
      <trkpt lat="45.39334" lon="5.91105">
        <ele>1708.308104856</ele>
        <time>2015-06-06T11:05:25Z</time>
      </trkpt>
      <trkpt lat="45.39334" lon="5.91105">
        <ele>1708.308104856</ele>
        <time>2015-06-06T11:05:30Z</time>
      </trkpt>
      <trkpt lat="45.39334" lon="5.91105">
        <ele>1708.308104856</ele>
        <time>2015-06-06T11:05:34Z</time>
      </trkpt>
      <trkpt lat="45.39334" lon="5.91104">
        <ele>1708.308104856</ele>
        <time>2015-06-06T11:05:39Z</time>
      </trkpt>
      <trkpt lat="45.39334" lon="5.91104">
        <ele>1708.308104856</ele>
        <time>2015-06-06T11:05:44Z</time>
      </trkpt>
      <trkpt lat="45.39334" lon="5.91104">
        <ele>1708.308104856</ele>
        <time>2015-06-06T11:05:49Z</time>
      </trkpt>
      <trkpt lat="45.39334" lon="5.91104">
        <ele>1708.308104856</ele>
        <time>2015-06-06T11:05:54Z</time>
      </trkpt>
      <trkpt lat="45.39334" lon="5.91104">
        <ele>1708.308104856</ele>
        <time>2015-06-06T11:06:01Z</time>
      </trkpt>
      <trkpt lat="45.39334" lon="5.91104">
        <ele>1708.308104856</ele>
        <time>2015-06-06T11:06:05Z</time>
      </trkpt>
      <trkpt lat="45.39334" lon="5.91104">
        <ele>1708.308104856</ele>
        <time>2015-06-06T11:06:10Z</time>
      </trkpt>
      <trkpt lat="45.39334" lon="5.91104">
        <ele>1708.308104856</ele>
        <time>2015-06-06T11:06:15Z</time>
      </trkpt>
      <trkpt lat="45.39334" lon="5.91104">
        <ele>1708.308104856</ele>
        <time>2015-06-06T11:06:20Z</time>
      </trkpt>
      <trkpt lat="45.39334" lon="5.91104">
        <ele>1708.308104856</ele>
        <time>2015-06-06T11:06:25Z</time>
      </trkpt>
      <trkpt lat="45.39334" lon="5.91104">
        <ele>1708.308104856</ele>
        <time>2015-06-06T11:06:30Z</time>
      </trkpt>
      <trkpt lat="45.39334" lon="5.91104">
        <ele>1708.308104856</ele>
        <time>2015-06-06T11:06:35Z</time>
      </trkpt>
      <trkpt lat="45.39334" lon="5.91104">
        <ele>1708.308104856</ele>
        <time>2015-06-06T11:06:41Z</time>
      </trkpt>
      <trkpt lat="45.39335" lon="5.91101">
        <ele>1708.308104856</ele>
        <time>2015-06-06T11:06:45Z</time>
      </trkpt>
      <trkpt lat="45.39334" lon="5.91099">
        <ele>1708.308104856</ele>
        <time>2015-06-06T11:06:50Z</time>
      </trkpt>
      <trkpt lat="45.39334" lon="5.91099">
        <ele>1708.308104856</ele>
        <time>2015-06-06T11:06:54Z</time>
      </trkpt>
      <trkpt lat="45.39333" lon="5.91101">
        <ele>1708.308104856</ele>
        <time>2015-06-06T11:07:00Z</time>
      </trkpt>
      <trkpt lat="45.39333" lon="5.91101">
        <ele>1708.308104856</ele>
        <time>2015-06-06T11:07:05Z</time>
      </trkpt>
      <trkpt lat="45.39333" lon="5.91101">
        <ele>1708.308104856</ele>
        <time>2015-06-06T11:07:09Z</time>
      </trkpt>
      <trkpt lat="45.39333" lon="5.91101">
        <ele>1708.308104856</ele>
        <time>2015-06-06T11:07:15Z</time>
      </trkpt>
      <trkpt lat="45.39333" lon="5.91101">
        <ele>1708.308104856</ele>
        <time>2015-06-06T11:07:19Z</time>
      </trkpt>
      <trkpt lat="45.39333" lon="5.91101">
        <ele>1708.308104856</ele>
        <time>2015-06-06T11:07:26Z</time>
      </trkpt>
      <trkpt lat="45.39333" lon="5.91101">
        <ele>1708.308104856</ele>
        <time>2015-06-06T11:07:30Z</time>
      </trkpt>
      <trkpt lat="45.39333" lon="5.91101">
        <ele>1708.308104856</ele>
        <time>2015-06-06T11:07:35Z</time>
      </trkpt>
      <trkpt lat="45.39333" lon="5.91101">
        <ele>1708.308104856</ele>
        <time>2015-06-06T11:07:40Z</time>
      </trkpt>
      <trkpt lat="45.39333" lon="5.91101">
        <ele>1708.308104856</ele>
        <time>2015-06-06T11:07:45Z</time>
      </trkpt>
      <trkpt lat="45.39333" lon="5.91101">
        <ele>1708.308104856</ele>
        <time>2015-06-06T11:07:50Z</time>
      </trkpt>
      <trkpt lat="45.39333" lon="5.91101">
        <ele>1708.308104856</ele>
        <time>2015-06-06T11:07:55Z</time>
      </trkpt>
      <trkpt lat="45.39333" lon="5.91101">
        <ele>1708.308104856</ele>
        <time>2015-06-06T11:08:00Z</time>
      </trkpt>
      <trkpt lat="45.39333" lon="5.91101">
        <ele>1708.308104856</ele>
        <time>2015-06-06T11:08:06Z</time>
      </trkpt>
      <trkpt lat="45.39333" lon="5.91101">
        <ele>1708.308104856</ele>
        <time>2015-06-06T11:08:10Z</time>
      </trkpt>
      <trkpt lat="45.39333" lon="5.911">
        <ele>1708.308104856</ele>
        <time>2015-06-06T11:08:15Z</time>
      </trkpt>
      <trkpt lat="45.39333" lon="5.911">
        <ele>1708.308104856</ele>
        <time>2015-06-06T11:08:21Z</time>
      </trkpt>
      <trkpt lat="45.39332" lon="5.911">
        <ele>1708.308104856</ele>
        <time>2015-06-06T11:08:25Z</time>
      </trkpt>
      <trkpt lat="45.39332" lon="5.911">
        <ele>1708.11342181</ele>
        <time>2015-06-06T11:08:29Z</time>
      </trkpt>
      <trkpt lat="45.39316" lon="5.91091">
        <ele>1707.918738763</ele>
        <time>2015-06-06T11:08:35Z</time>
      </trkpt>
      <trkpt lat="45.39303" lon="5.91083">
        <ele>1707.191140226</ele>
        <time>2015-06-06T11:08:40Z</time>
      </trkpt>
      <trkpt lat="45.39283" lon="5.91077">
        <ele>1706.586641905</ele>
        <time>2015-06-06T11:08:45Z</time>
      </trkpt>
      <trkpt lat="45.39276" lon="5.91075">
        <ele>1706.586641905</ele>
        <time>2015-06-06T11:08:50Z</time>
      </trkpt>
      <trkpt lat="45.39275" lon="5.91075">
        <ele>1706.586641905</ele>
        <time>2015-06-06T11:08:55Z</time>
      </trkpt>
      <trkpt lat="45.39275" lon="5.91073">
        <ele>1706.532413642</ele>
        <time>2015-06-06T11:09:00Z</time>
      </trkpt>
      <trkpt lat="45.39264" lon="5.91076">
        <ele>1706.124551529</ele>
        <time>2015-06-06T11:09:05Z</time>
      </trkpt>
      <trkpt lat="45.39257" lon="5.91084">
        <ele>1706.546054955</ele>
        <time>2015-06-06T11:09:10Z</time>
      </trkpt>
      <trkpt lat="45.39252" lon="5.91086">
        <ele>1706.546054955</ele>
        <time>2015-06-06T11:09:15Z</time>
      </trkpt>
      <trkpt lat="45.39254" lon="5.91086">
        <ele>1706.546054955</ele>
        <time>2015-06-06T11:09:21Z</time>
      </trkpt>
      <trkpt lat="45.39254" lon="5.91086">
        <ele>1706.546054955</ele>
        <time>2015-06-06T11:09:25Z</time>
      </trkpt>
      <trkpt lat="45.39252" lon="5.91082">
        <ele>1706.727048135</ele>
        <time>2015-06-06T11:09:30Z</time>
      </trkpt>
      <trkpt lat="45.39246" lon="5.91089">
        <ele>1706.727048135</ele>
        <time>2015-06-06T11:09:35Z</time>
      </trkpt>
      <trkpt lat="45.39243" lon="5.91097">
        <ele>1707.552122269</ele>
        <time>2015-06-06T11:09:40Z</time>
      </trkpt>
      <trkpt lat="45.39242" lon="5.91096">
        <ele>1707.552122269</ele>
        <time>2015-06-06T11:09:45Z</time>
      </trkpt>
      <trkpt lat="45.39243" lon="5.91099">
        <ele>1707.552122269</ele>
        <time>2015-06-06T11:09:50Z</time>
      </trkpt>
      <trkpt lat="45.39242" lon="5.91097">
        <ele>1707.552122269</ele>
        <time>2015-06-06T11:09:55Z</time>
      </trkpt>
      <trkpt lat="45.39242" lon="5.91097">
        <ele>1707.552122269</ele>
        <time>2015-06-06T11:10:01Z</time>
      </trkpt>
      <trkpt lat="45.39242" lon="5.91097">
        <ele>1707.552122269</ele>
        <time>2015-06-06T11:10:05Z</time>
      </trkpt>
      <trkpt lat="45.39242" lon="5.91096">
        <ele>1707.552122269</ele>
        <time>2015-06-06T11:10:10Z</time>
      </trkpt>
      <trkpt lat="45.39242" lon="5.91096">
        <ele>1707.552122269</ele>
        <time>2015-06-06T11:10:15Z</time>
      </trkpt>
      <trkpt lat="45.39242" lon="5.91096">
        <ele>1707.552122269</ele>
        <time>2015-06-06T11:10:20Z</time>
      </trkpt>
      <trkpt lat="45.39242" lon="5.91096">
        <ele>1707.552122269</ele>
        <time>2015-06-06T11:10:25Z</time>
      </trkpt>
      <trkpt lat="45.39242" lon="5.91096">
        <ele>1707.552122269</ele>
        <time>2015-06-06T11:10:30Z</time>
      </trkpt>
      <trkpt lat="45.39242" lon="5.91096">
        <ele>1707.552122269</ele>
        <time>2015-06-06T11:10:34Z</time>
      </trkpt>
      <trkpt lat="45.39242" lon="5.91096">
        <ele>1707.552122269</ele>
        <time>2015-06-06T11:10:39Z</time>
      </trkpt>
      <trkpt lat="45.39234" lon="5.911">
        <ele>1709.262056474</ele>
        <time>2015-06-06T11:10:45Z</time>
      </trkpt>
      <trkpt lat="45.39227" lon="5.91113">
        <ele>1711.212135429</ele>
        <time>2015-06-06T11:10:49Z</time>
      </trkpt>
      <trkpt lat="45.39225" lon="5.911">
        <ele>1713.381345149</ele>
        <time>2015-06-06T11:10:55Z</time>
      </trkpt>
      <trkpt lat="45.39225" lon="5.91102">
        <ele>1713.381345149</ele>
        <time>2015-06-06T11:11:01Z</time>
      </trkpt>
      <trkpt lat="45.39224" lon="5.91103">
        <ele>1713.381345149</ele>
        <time>2015-06-06T11:11:05Z</time>
      </trkpt>
      <trkpt lat="45.39225" lon="5.91105">
        <ele>1713.381345149</ele>
        <time>2015-06-06T11:11:10Z</time>
      </trkpt>
      <trkpt lat="45.39225" lon="5.91099">
        <ele>1713.381345149</ele>
        <time>2015-06-06T11:11:15Z</time>
      </trkpt>
      <trkpt lat="45.39219" lon="5.91101">
        <ele>1716.182265149</ele>
        <time>2015-06-06T11:11:20Z</time>
      </trkpt>
      <trkpt lat="45.39213" lon="5.91088">
        <ele>1717.544037702</ele>
        <time>2015-06-06T11:11:25Z</time>
      </trkpt>
      <trkpt lat="45.39206" lon="5.9109">
        <ele>1717.544037702</ele>
        <time>2015-06-06T11:11:30Z</time>
      </trkpt>
      <trkpt lat="45.39205" lon="5.91091">
        <ele>1717.544037702</ele>
        <time>2015-06-06T11:11:35Z</time>
      </trkpt>
      <trkpt lat="45.39205" lon="5.91095">
        <ele>1719.157189231</ele>
        <time>2015-06-06T11:11:40Z</time>
      </trkpt>
      <trkpt lat="45.39205" lon="5.91095">
        <ele>1719.157189231</ele>
        <time>2015-06-06T11:11:45Z</time>
      </trkpt>
      <trkpt lat="45.39205" lon="5.91095">
        <ele>1719.157189231</ele>
        <time>2015-06-06T11:11:50Z</time>
      </trkpt>
      <trkpt lat="45.39205" lon="5.91095">
        <ele>1719.157189231</ele>
        <time>2015-06-06T11:11:55Z</time>
      </trkpt>
      <trkpt lat="45.39205" lon="5.91095">
        <ele>1719.157189231</ele>
        <time>2015-06-06T11:12:00Z</time>
      </trkpt>
      <trkpt lat="45.39205" lon="5.91095">
        <ele>1719.157189231</ele>
        <time>2015-06-06T11:12:05Z</time>
      </trkpt>
      <trkpt lat="45.39205" lon="5.91095">
        <ele>1719.157189231</ele>
        <time>2015-06-06T11:12:10Z</time>
      </trkpt>
      <trkpt lat="45.39205" lon="5.91095">
        <ele>1719.157189231</ele>
        <time>2015-06-06T11:12:15Z</time>
      </trkpt>
      <trkpt lat="45.39205" lon="5.91095">
        <ele>1719.157189231</ele>
        <time>2015-06-06T11:12:21Z</time>
      </trkpt>
      <trkpt lat="45.39205" lon="5.91095">
        <ele>1719.157189231</ele>
        <time>2015-06-06T11:12:25Z</time>
      </trkpt>
      <trkpt lat="45.39206" lon="5.91093">
        <ele>1719.157189231</ele>
        <time>2015-06-06T11:12:30Z</time>
      </trkpt>
      <trkpt lat="45.39204" lon="5.91097">
        <ele>1719.157189231</ele>
        <time>2015-06-06T11:12:35Z</time>
      </trkpt>
      <trkpt lat="45.39202" lon="5.91095">
        <ele>1719.157189231</ele>
        <time>2015-06-06T11:12:40Z</time>
      </trkpt>
      <trkpt lat="45.39202" lon="5.91095">
        <ele>1719.157189231</ele>
        <time>2015-06-06T11:12:45Z</time>
      </trkpt>
      <trkpt lat="45.39202" lon="5.91095">
        <ele>1719.157189231</ele>
        <time>2015-06-06T11:12:50Z</time>
      </trkpt>
      <trkpt lat="45.39202" lon="5.91095">
        <ele>1719.157189231</ele>
        <time>2015-06-06T11:12:55Z</time>
      </trkpt>
      <trkpt lat="45.39202" lon="5.91095">
        <ele>1719.157189231</ele>
        <time>2015-06-06T11:13:00Z</time>
      </trkpt>
      <trkpt lat="45.39202" lon="5.91095">
        <ele>1719.157189231</ele>
        <time>2015-06-06T11:13:05Z</time>
      </trkpt>
      <trkpt lat="45.39202" lon="5.91095">
        <ele>1719.157189231</ele>
        <time>2015-06-06T11:13:10Z</time>
      </trkpt>
      <trkpt lat="45.39202" lon="5.91095">
        <ele>1719.157189231</ele>
        <time>2015-06-06T11:13:15Z</time>
      </trkpt>
      <trkpt lat="45.392" lon="5.91087">
        <ele>1719.847624382</ele>
        <time>2015-06-06T11:13:21Z</time>
      </trkpt>
      <trkpt lat="45.39193" lon="5.91079">
        <ele>1719.847624382</ele>
        <time>2015-06-06T11:13:25Z</time>
      </trkpt>
      <trkpt lat="45.3919" lon="5.91074">
        <ele>1719.25125983</ele>
        <time>2015-06-06T11:13:30Z</time>
      </trkpt>
      <trkpt lat="45.39187" lon="5.91073">
        <ele>1719.25125983</ele>
        <time>2015-06-06T11:13:35Z</time>
      </trkpt>
      <trkpt lat="45.39178" lon="5.91073">
        <ele>1718.908652099</ele>
        <time>2015-06-06T11:13:40Z</time>
      </trkpt>
      <trkpt lat="45.39174" lon="5.91067">
        <ele>1718.908652099</ele>
        <time>2015-06-06T11:13:46Z</time>
      </trkpt>
      <trkpt lat="45.3917" lon="5.91071">
        <ele>1718.51630469</ele>
        <time>2015-06-06T11:13:50Z</time>
      </trkpt>
      <trkpt lat="45.39169" lon="5.91066">
        <ele>1718.51630469</ele>
        <time>2015-06-06T11:13:54Z</time>
      </trkpt>
      <trkpt lat="45.39167" lon="5.91062">
        <ele>1718.51630469</ele>
        <time>2015-06-06T11:14:01Z</time>
      </trkpt>
      <trkpt lat="45.39166" lon="5.9107">
        <ele>1718.946473078</ele>
        <time>2015-06-06T11:14:05Z</time>
      </trkpt>
      <trkpt lat="45.39164" lon="5.91065">
        <ele>1718.946473078</ele>
        <time>2015-06-06T11:14:10Z</time>
      </trkpt>
      <trkpt lat="45.39166" lon="5.91072">
        <ele>1720.28417536</ele>
        <time>2015-06-06T11:14:14Z</time>
      </trkpt>
      <trkpt lat="45.39167" lon="5.91074">
        <ele>1720.28417536</ele>
        <time>2015-06-06T11:14:20Z</time>
      </trkpt>
      <trkpt lat="45.39165" lon="5.91068">
        <ele>1720.28417536</ele>
        <time>2015-06-06T11:14:25Z</time>
      </trkpt>
      <trkpt lat="45.39164" lon="5.91067">
        <ele>1720.28417536</ele>
        <time>2015-06-06T11:14:30Z</time>
      </trkpt>
      <trkpt lat="45.39164" lon="5.91067">
        <ele>1720.28417536</ele>
        <time>2015-06-06T11:14:35Z</time>
      </trkpt>
      <trkpt lat="45.39164" lon="5.91067">
        <ele>1720.28417536</ele>
        <time>2015-06-06T11:14:40Z</time>
      </trkpt>
      <trkpt lat="45.39164" lon="5.91067">
        <ele>1720.28417536</ele>
        <time>2015-06-06T11:14:45Z</time>
      </trkpt>
      <trkpt lat="45.39164" lon="5.91067">
        <ele>1720.28417536</ele>
        <time>2015-06-06T11:14:50Z</time>
      </trkpt>
      <trkpt lat="45.39164" lon="5.91067">
        <ele>1720.28417536</ele>
        <time>2015-06-06T11:14:55Z</time>
      </trkpt>
      <trkpt lat="45.39164" lon="5.91067">
        <ele>1720.28417536</ele>
        <time>2015-06-06T11:15:00Z</time>
      </trkpt>
      <trkpt lat="45.39164" lon="5.91067">
        <ele>1720.212948405</ele>
        <time>2015-06-06T11:15:05Z</time>
      </trkpt>
      <trkpt lat="45.39164" lon="5.91067">
        <ele>1720.14172145</ele>
        <time>2015-06-06T11:15:10Z</time>
      </trkpt>
      <trkpt lat="45.39164" lon="5.91067">
        <ele>1720.070494495</ele>
        <time>2015-06-06T11:15:15Z</time>
      </trkpt>
      <trkpt lat="45.39164" lon="5.91067">
        <ele>1719.99926754</ele>
        <time>2015-06-06T11:15:21Z</time>
      </trkpt>
      <trkpt lat="45.39164" lon="5.91067">
        <ele>1719.928040585</ele>
        <time>2015-06-06T11:15:25Z</time>
      </trkpt>
      <trkpt lat="45.39164" lon="5.91067">
        <ele>1719.85681363</ele>
        <time>2015-06-06T11:15:30Z</time>
      </trkpt>
      <trkpt lat="45.39164" lon="5.91067">
        <ele>1719.785586675</ele>
        <time>2015-06-06T11:15:35Z</time>
      </trkpt>
      <trkpt lat="45.39161" lon="5.91064">
        <ele>1719.71435972</ele>
        <time>2015-06-06T11:15:41Z</time>
      </trkpt>
      <trkpt lat="45.39153" lon="5.91056">
        <ele>1719.643132765</ele>
        <time>2015-06-06T11:15:45Z</time>
      </trkpt>
      <trkpt lat="45.39144" lon="5.91058">
        <ele>1719.57190581</ele>
        <time>2015-06-06T11:15:50Z</time>
      </trkpt>
      <trkpt lat="45.39133" lon="5.91059">
        <ele>1719.500678855</ele>
        <time>2015-06-06T11:15:55Z</time>
      </trkpt>
      <trkpt lat="45.39118" lon="5.91072">
        <ele>1719.4294519</ele>
        <time>2015-06-06T11:16:01Z</time>
      </trkpt>
      <trkpt lat="45.39115" lon="5.91074">
        <ele>1719.358224945</ele>
        <time>2015-06-06T11:16:05Z</time>
      </trkpt>
      <trkpt lat="45.39112" lon="5.91073">
        <ele>1719.28699799</ele>
        <time>2015-06-06T11:16:15Z</time>
      </trkpt>
      <trkpt lat="45.39111" lon="5.91075">
        <ele>1719.215771035</ele>
        <time>2015-06-06T11:16:21Z</time>
      </trkpt>
      <trkpt lat="45.3911" lon="5.91073">
        <ele>1719.14454408</ele>
        <time>2015-06-06T11:16:35Z</time>
      </trkpt>
      <trkpt lat="45.39111" lon="5.9108">
        <ele>1719.073317125</ele>
        <time>2015-06-06T11:16:41Z</time>
      </trkpt>
      <trkpt lat="45.39106" lon="5.91067">
        <ele>1719.00209017</ele>
        <time>2015-06-06T11:16:45Z</time>
      </trkpt>
      <trkpt lat="45.39105" lon="5.91064">
        <ele>1719.00209017</ele>
        <time>2015-06-06T11:16:51Z</time>
      </trkpt>
      <trkpt lat="45.39105" lon="5.91064">
        <ele>1719.00209017</ele>
        <time>2015-06-06T11:16:54Z</time>
      </trkpt>
      <trkpt lat="45.39105" lon="5.91064">
        <ele>1719.00209017</ele>
        <time>2015-06-06T11:17:00Z</time>
      </trkpt>
      <trkpt lat="45.39105" lon="5.91064">
        <ele>1719.00209017</ele>
        <time>2015-06-06T11:17:04Z</time>
      </trkpt>
      <trkpt lat="45.39092" lon="5.91061">
        <ele>1716.308103366</ele>
        <time>2015-06-06T11:17:10Z</time>
      </trkpt>
      <trkpt lat="45.39078" lon="5.91056">
        <ele>1712.748600818</ele>
        <time>2015-06-06T11:17:15Z</time>
      </trkpt>
      <trkpt lat="45.39071" lon="5.9106">
        <ele>1712.748600818</ele>
        <time>2015-06-06T11:17:21Z</time>
      </trkpt>
      <trkpt lat="45.3907" lon="5.91062">
        <ele>1710.56169791</ele>
        <time>2015-06-06T11:17:25Z</time>
      </trkpt>
      <trkpt lat="45.3907" lon="5.91063">
        <ele>1710.56169791</ele>
        <time>2015-06-06T11:17:30Z</time>
      </trkpt>
      <trkpt lat="45.3907" lon="5.91063">
        <ele>1710.56169791</ele>
        <time>2015-06-06T11:17:35Z</time>
      </trkpt>
      <trkpt lat="45.3907" lon="5.91063">
        <ele>1710.56169791</ele>
        <time>2015-06-06T11:17:41Z</time>
      </trkpt>
      <trkpt lat="45.3907" lon="5.91063">
        <ele>1710.56169791</ele>
        <time>2015-06-06T11:17:45Z</time>
      </trkpt>
      <trkpt lat="45.3907" lon="5.91063">
        <ele>1710.56169791</ele>
        <time>2015-06-06T11:17:51Z</time>
      </trkpt>
      <trkpt lat="45.3907" lon="5.91063">
        <ele>1710.56169791</ele>
        <time>2015-06-06T11:18:01Z</time>
      </trkpt>
      <trkpt lat="45.3907" lon="5.91063">
        <ele>1710.56169791</ele>
        <time>2015-06-06T11:18:05Z</time>
      </trkpt>
      <trkpt lat="45.3907" lon="5.91063">
        <ele>1710.56169791</ele>
        <time>2015-06-06T11:18:11Z</time>
      </trkpt>
      <trkpt lat="45.3907" lon="5.91063">
        <ele>1710.56169791</ele>
        <time>2015-06-06T11:18:14Z</time>
      </trkpt>
      <trkpt lat="45.39071" lon="5.9106">
        <ele>1710.56169791</ele>
        <time>2015-06-06T11:18:21Z</time>
      </trkpt>
      <trkpt lat="45.39071" lon="5.91059">
        <ele>1710.56169791</ele>
        <time>2015-06-06T11:18:25Z</time>
      </trkpt>
      <trkpt lat="45.39072" lon="5.91058">
        <ele>1710.56169791</ele>
        <time>2015-06-06T11:18:30Z</time>
      </trkpt>
      <trkpt lat="45.39072" lon="5.91058">
        <ele>1710.56169791</ele>
        <time>2015-06-06T11:18:34Z</time>
      </trkpt>
      <trkpt lat="45.39072" lon="5.91057">
        <ele>1710.56169791</ele>
        <time>2015-06-06T11:18:40Z</time>
      </trkpt>
      <trkpt lat="45.39072" lon="5.91057">
        <ele>1710.56169791</ele>
        <time>2015-06-06T11:18:45Z</time>
      </trkpt>
      <trkpt lat="45.39072" lon="5.91057">
        <ele>1710.56169791</ele>
        <time>2015-06-06T11:18:50Z</time>
      </trkpt>
      <trkpt lat="45.39072" lon="5.91057">
        <ele>1710.56169791</ele>
        <time>2015-06-06T11:18:54Z</time>
      </trkpt>
      <trkpt lat="45.39072" lon="5.91057">
        <ele>1710.56169791</ele>
        <time>2015-06-06T11:19:01Z</time>
      </trkpt>
      <trkpt lat="45.39072" lon="5.91057">
        <ele>1710.56169791</ele>
        <time>2015-06-06T11:19:05Z</time>
      </trkpt>
      <trkpt lat="45.39072" lon="5.91056">
        <ele>1710.56169791</ele>
        <time>2015-06-06T11:19:09Z</time>
      </trkpt>
      <trkpt lat="45.39072" lon="5.91056">
        <ele>1710.56169791</ele>
        <time>2015-06-06T11:19:15Z</time>
      </trkpt>
      <trkpt lat="45.39072" lon="5.91056">
        <ele>1710.56169791</ele>
        <time>2015-06-06T11:19:20Z</time>
      </trkpt>
      <trkpt lat="45.39072" lon="5.91056">
        <ele>1710.56169791</ele>
        <time>2015-06-06T11:19:26Z</time>
      </trkpt>
      <trkpt lat="45.39072" lon="5.91056">
        <ele>1710.56169791</ele>
        <time>2015-06-06T11:19:30Z</time>
      </trkpt>
      <trkpt lat="45.39072" lon="5.91056">
        <ele>1710.56169791</ele>
        <time>2015-06-06T11:19:35Z</time>
      </trkpt>
      <trkpt lat="45.39072" lon="5.91056">
        <ele>1710.56169791</ele>
        <time>2015-06-06T11:19:41Z</time>
      </trkpt>
      <trkpt lat="45.39072" lon="5.91056">
        <ele>1710.56169791</ele>
        <time>2015-06-06T11:19:45Z</time>
      </trkpt>
      <trkpt lat="45.39072" lon="5.91056">
        <ele>1710.56169791</ele>
        <time>2015-06-06T11:19:50Z</time>
      </trkpt>
      <trkpt lat="45.39072" lon="5.91055">
        <ele>1710.56169791</ele>
        <time>2015-06-06T11:19:55Z</time>
      </trkpt>
      <trkpt lat="45.39072" lon="5.91055">
        <ele>1710.56169791</ele>
        <time>2015-06-06T11:20:00Z</time>
      </trkpt>
      <trkpt lat="45.39072" lon="5.91055">
        <ele>1710.56169791</ele>
        <time>2015-06-06T11:20:05Z</time>
      </trkpt>
      <trkpt lat="45.39072" lon="5.91055">
        <ele>1710.56169791</ele>
        <time>2015-06-06T11:20:10Z</time>
      </trkpt>
      <trkpt lat="45.39072" lon="5.91055">
        <ele>1710.56169791</ele>
        <time>2015-06-06T11:20:14Z</time>
      </trkpt>
      <trkpt lat="45.39072" lon="5.91055">
        <ele>1710.56169791</ele>
        <time>2015-06-06T11:20:20Z</time>
      </trkpt>
      <trkpt lat="45.39072" lon="5.91055">
        <ele>1710.56169791</ele>
        <time>2015-06-06T11:20:24Z</time>
      </trkpt>
      <trkpt lat="45.39072" lon="5.91055">
        <ele>1710.56169791</ele>
        <time>2015-06-06T11:20:30Z</time>
      </trkpt>
      <trkpt lat="45.39072" lon="5.91055">
        <ele>1710.56169791</ele>
        <time>2015-06-06T11:20:35Z</time>
      </trkpt>
      <trkpt lat="45.39072" lon="5.91055">
        <ele>1710.56169791</ele>
        <time>2015-06-06T11:20:41Z</time>
      </trkpt>
      <trkpt lat="45.39072" lon="5.91055">
        <ele>1710.56169791</ele>
        <time>2015-06-06T11:20:45Z</time>
      </trkpt>
      <trkpt lat="45.3907" lon="5.91055">
        <ele>1709.36683492</ele>
        <time>2015-06-06T11:20:50Z</time>
      </trkpt>
      <trkpt lat="45.3907" lon="5.91055">
        <ele>1709.36683492</ele>
        <time>2015-06-06T11:20:55Z</time>
      </trkpt>
      <trkpt lat="45.3907" lon="5.91056">
        <ele>1709.36683492</ele>
        <time>2015-06-06T11:21:00Z</time>
      </trkpt>
      <trkpt lat="45.39064" lon="5.91056">
        <ele>1709.36683492</ele>
        <time>2015-06-06T11:21:05Z</time>
      </trkpt>
      <trkpt lat="45.39058" lon="5.91053">
        <ele>1708.520347817</ele>
        <time>2015-06-06T11:21:10Z</time>
      </trkpt>
      <trkpt lat="45.39056" lon="5.91054">
        <ele>1708.520347817</ele>
        <time>2015-06-06T11:21:15Z</time>
      </trkpt>
      <trkpt lat="45.39055" lon="5.91046">
        <ele>1708.520347817</ele>
        <time>2015-06-06T11:21:21Z</time>
      </trkpt>
      <trkpt lat="45.39053" lon="5.91048">
        <ele>1708.001320392</ele>
        <time>2015-06-06T11:21:25Z</time>
      </trkpt>
      <trkpt lat="45.39052" lon="5.91051">
        <ele>1708.001320392</ele>
        <time>2015-06-06T11:21:30Z</time>
      </trkpt>
      <trkpt lat="45.39048" lon="5.91055">
        <ele>1708.001320392</ele>
        <time>2015-06-06T11:21:35Z</time>
      </trkpt>
      <trkpt lat="45.39043" lon="5.91055">
        <ele>1707.645237143</ele>
        <time>2015-06-06T11:21:41Z</time>
      </trkpt>
      <trkpt lat="45.39041" lon="5.91047">
        <ele>1707.645237143</ele>
        <time>2015-06-06T11:21:45Z</time>
      </trkpt>
      <trkpt lat="45.39039" lon="5.91048">
        <ele>1707.645237143</ele>
        <time>2015-06-06T11:21:50Z</time>
      </trkpt>
      <trkpt lat="45.39037" lon="5.91043">
        <ele>1707.154995979</ele>
        <time>2015-06-06T11:21:55Z</time>
      </trkpt>
      <trkpt lat="45.39032" lon="5.9104">
        <ele>1707.154995979</ele>
        <time>2015-06-06T11:22:00Z</time>
      </trkpt>
      <trkpt lat="45.39027" lon="5.91043">
        <ele>1706.832058407</ele>
        <time>2015-06-06T11:22:05Z</time>
      </trkpt>
      <trkpt lat="45.39024" lon="5.91044">
        <ele>1706.832058407</ele>
        <time>2015-06-06T11:22:11Z</time>
      </trkpt>
      <trkpt lat="45.3902" lon="5.91047">
        <ele>1706.832058407</ele>
        <time>2015-06-06T11:22:14Z</time>
      </trkpt>
      <trkpt lat="45.39014" lon="5.91046">
        <ele>1705.802233419</ele>
        <time>2015-06-06T11:22:20Z</time>
      </trkpt>
      <trkpt lat="45.39013" lon="5.91049">
        <ele>1705.802233419</ele>
        <time>2015-06-06T11:22:25Z</time>
      </trkpt>
      <trkpt lat="45.39011" lon="5.91046">
        <ele>1705.802233419</ele>
        <time>2015-06-06T11:22:30Z</time>
      </trkpt>
      <trkpt lat="45.3901" lon="5.91046">
        <ele>1705.802233419</ele>
        <time>2015-06-06T11:22:35Z</time>
      </trkpt>
      <trkpt lat="45.3901" lon="5.91047">
        <ele>1705.802233419</ele>
        <time>2015-06-06T11:22:40Z</time>
      </trkpt>
      <trkpt lat="45.3901" lon="5.91047">
        <ele>1705.802233419</ele>
        <time>2015-06-06T11:22:45Z</time>
      </trkpt>
      <trkpt lat="45.3901" lon="5.91045">
        <ele>1705.802233419</ele>
        <time>2015-06-06T11:22:50Z</time>
      </trkpt>
      <trkpt lat="45.39005" lon="5.91049">
        <ele>1705.130910687</ele>
        <time>2015-06-06T11:22:55Z</time>
      </trkpt>
      <trkpt lat="45.38997" lon="5.91044">
        <ele>1705.130910687</ele>
        <time>2015-06-06T11:23:00Z</time>
      </trkpt>
      <trkpt lat="45.38995" lon="5.91041">
        <ele>1704.507056463</ele>
        <time>2015-06-06T11:23:04Z</time>
      </trkpt>
      <trkpt lat="45.38993" lon="5.9104">
        <ele>1704.507056463</ele>
        <time>2015-06-06T11:23:10Z</time>
      </trkpt>
      <trkpt lat="45.38989" lon="5.91046">
        <ele>1704.507056463</ele>
        <time>2015-06-06T11:23:16Z</time>
      </trkpt>
      <trkpt lat="45.38987" lon="5.91049">
        <ele>1704.651028425</ele>
        <time>2015-06-06T11:23:20Z</time>
      </trkpt>
      <trkpt lat="45.38987" lon="5.91059">
        <ele>1704.651028425</ele>
        <time>2015-06-06T11:23:25Z</time>
      </trkpt>
      <trkpt lat="45.38988" lon="5.91059">
        <ele>1704.651028425</ele>
        <time>2015-06-06T11:23:30Z</time>
      </trkpt>
      <trkpt lat="45.38985" lon="5.91055">
        <ele>1705.363318395</ele>
        <time>2015-06-06T11:23:35Z</time>
      </trkpt>
      <trkpt lat="45.38984" lon="5.91053">
        <ele>1705.363318395</ele>
        <time>2015-06-06T11:23:39Z</time>
      </trkpt>
      <trkpt lat="45.38979" lon="5.91044">
        <ele>1705.736808328</ele>
        <time>2015-06-06T11:23:45Z</time>
      </trkpt>
      <trkpt lat="45.38975" lon="5.91045">
        <ele>1705.736808328</ele>
        <time>2015-06-06T11:23:49Z</time>
      </trkpt>
      <trkpt lat="45.38972" lon="5.91047">
        <ele>1705.736808328</ele>
        <time>2015-06-06T11:23:55Z</time>
      </trkpt>
      <trkpt lat="45.38968" lon="5.91046">
        <ele>1706.37298847</ele>
        <time>2015-06-06T11:23:59Z</time>
      </trkpt>
      <trkpt lat="45.38961" lon="5.91044">
        <ele>1706.37298847</ele>
        <time>2015-06-06T11:24:05Z</time>
      </trkpt>
      <trkpt lat="45.38964" lon="5.91041">
        <ele>1706.819541703</ele>
        <time>2015-06-06T11:24:10Z</time>
      </trkpt>
      <trkpt lat="45.38964" lon="5.91046">
        <ele>1706.819541703</ele>
        <time>2015-06-06T11:24:15Z</time>
      </trkpt>
      <trkpt lat="45.38964" lon="5.91047">
        <ele>1706.819541703</ele>
        <time>2015-06-06T11:24:21Z</time>
      </trkpt>
      <trkpt lat="45.38964" lon="5.91047">
        <ele>1706.819541703</ele>
        <time>2015-06-06T11:24:24Z</time>
      </trkpt>
      <trkpt lat="45.38964" lon="5.91046">
        <ele>1706.819541703</ele>
        <time>2015-06-06T11:24:30Z</time>
      </trkpt>
      <trkpt lat="45.38964" lon="5.91046">
        <ele>1706.819541703</ele>
        <time>2015-06-06T11:24:35Z</time>
      </trkpt>
      <trkpt lat="45.38964" lon="5.91046">
        <ele>1706.819541703</ele>
        <time>2015-06-06T11:24:40Z</time>
      </trkpt>
      <trkpt lat="45.38964" lon="5.91047">
        <ele>1706.819541703</ele>
        <time>2015-06-06T11:24:45Z</time>
      </trkpt>
      <trkpt lat="45.38958" lon="5.91038">
        <ele>1708.098950939</ele>
        <time>2015-06-06T11:24:50Z</time>
      </trkpt>
      <trkpt lat="45.38954" lon="5.9104">
        <ele>1708.098950939</ele>
        <time>2015-06-06T11:24:55Z</time>
      </trkpt>
      <trkpt lat="45.38953" lon="5.9104">
        <ele>1708.098950939</ele>
        <time>2015-06-06T11:25:00Z</time>
      </trkpt>
      <trkpt lat="45.38949" lon="5.9104">
        <ele>1708.098950939</ele>
        <time>2015-06-06T11:25:05Z</time>
      </trkpt>
      <trkpt lat="45.38946" lon="5.91044">
        <ele>1709.138594233</ele>
        <time>2015-06-06T11:25:10Z</time>
      </trkpt>
      <trkpt lat="45.38943" lon="5.91043">
        <ele>1709.138594233</ele>
        <time>2015-06-06T11:25:15Z</time>
      </trkpt>
      <trkpt lat="45.38942" lon="5.91044">
        <ele>1709.138594233</ele>
        <time>2015-06-06T11:25:20Z</time>
      </trkpt>
      <trkpt lat="45.38942" lon="5.91046">
        <ele>1709.138594233</ele>
        <time>2015-06-06T11:25:25Z</time>
      </trkpt>
      <trkpt lat="45.38941" lon="5.91045">
        <ele>1709.138594233</ele>
        <time>2015-06-06T11:25:31Z</time>
      </trkpt>
      <trkpt lat="45.38938" lon="5.91048">
        <ele>1709.665811199</ele>
        <time>2015-06-06T11:25:35Z</time>
      </trkpt>
      <trkpt lat="45.38934" lon="5.91045">
        <ele>1709.665811199</ele>
        <time>2015-06-06T11:25:40Z</time>
      </trkpt>
      <trkpt lat="45.38932" lon="5.91049">
        <ele>1709.665811199</ele>
        <time>2015-06-06T11:25:45Z</time>
      </trkpt>
      <trkpt lat="45.38929" lon="5.91049">
        <ele>1710.005803651</ele>
        <time>2015-06-06T11:25:50Z</time>
      </trkpt>
      <trkpt lat="45.3893" lon="5.91047">
        <ele>1710.005803651</ele>
        <time>2015-06-06T11:25:56Z</time>
      </trkpt>
      <trkpt lat="45.38929" lon="5.91049">
        <ele>1710.005803651</ele>
        <time>2015-06-06T11:26:00Z</time>
      </trkpt>
      <trkpt lat="45.38929" lon="5.91049">
        <ele>1710.005803651</ele>
        <time>2015-06-06T11:26:05Z</time>
      </trkpt>
      <trkpt lat="45.3893" lon="5.91052">
        <ele>1710.005803651</ele>
        <time>2015-06-06T11:26:10Z</time>
      </trkpt>
      <trkpt lat="45.38929" lon="5.91052">
        <ele>1711.097767702</ele>
        <time>2015-06-06T11:26:15Z</time>
      </trkpt>
      <trkpt lat="45.3893" lon="5.91045">
        <ele>1712.189731754</ele>
        <time>2015-06-06T11:26:20Z</time>
      </trkpt>
      <trkpt lat="45.38931" lon="5.91046">
        <ele>1712.189731754</ele>
        <time>2015-06-06T11:26:25Z</time>
      </trkpt>
      <trkpt lat="45.38928" lon="5.9104">
        <ele>1712.189731754</ele>
        <time>2015-06-06T11:26:30Z</time>
      </trkpt>
      <trkpt lat="45.38928" lon="5.91038">
        <ele>1712.189731754</ele>
        <time>2015-06-06T11:26:36Z</time>
      </trkpt>
      <trkpt lat="45.38928" lon="5.91039">
        <ele>1712.189731754</ele>
        <time>2015-06-06T11:26:40Z</time>
      </trkpt>
      <trkpt lat="45.38928" lon="5.91039">
        <ele>1712.189731754</ele>
        <time>2015-06-06T11:26:45Z</time>
      </trkpt>
      <trkpt lat="45.38928" lon="5.91038">
        <ele>1713.626805207</ele>
        <time>2015-06-06T11:26:50Z</time>
      </trkpt>
      <trkpt lat="45.38928" lon="5.91038">
        <ele>1713.626805207</ele>
        <time>2015-06-06T11:26:55Z</time>
      </trkpt>
      <trkpt lat="45.38928" lon="5.91038">
        <ele>1713.626805207</ele>
        <time>2015-06-06T11:27:00Z</time>
      </trkpt>
      <trkpt lat="45.38928" lon="5.91038">
        <ele>1713.626805207</ele>
        <time>2015-06-06T11:27:05Z</time>
      </trkpt>
      <trkpt lat="45.38927" lon="5.91038">
        <ele>1713.626805207</ele>
        <time>2015-06-06T11:27:09Z</time>
      </trkpt>
      <trkpt lat="45.38924" lon="5.91049">
        <ele>1713.626805207</ele>
        <time>2015-06-06T11:27:15Z</time>
      </trkpt>
      <trkpt lat="45.38925" lon="5.91051">
        <ele>1715.377357134</ele>
        <time>2015-06-06T11:27:19Z</time>
      </trkpt>
      <trkpt lat="45.38925" lon="5.91055">
        <ele>1715.377357134</ele>
        <time>2015-06-06T11:27:25Z</time>
      </trkpt>
      <trkpt lat="45.38925" lon="5.91056">
        <ele>1715.377357134</ele>
        <time>2015-06-06T11:27:29Z</time>
      </trkpt>
      <trkpt lat="45.38925" lon="5.91056">
        <ele>1715.377357134</ele>
        <time>2015-06-06T11:27:35Z</time>
      </trkpt>
      <trkpt lat="45.38918" lon="5.91053">
        <ele>1716.981794215</ele>
        <time>2015-06-06T11:27:39Z</time>
      </trkpt>
      <trkpt lat="45.38919" lon="5.91045">
        <ele>1716.981794215</ele>
        <time>2015-06-06T11:27:44Z</time>
      </trkpt>
      <trkpt lat="45.38913" lon="5.91048">
        <ele>1717.854515277</ele>
        <time>2015-06-06T11:27:49Z</time>
      </trkpt>
      <trkpt lat="45.38928" lon="5.9105">
        <ele>1718.727236338</ele>
        <time>2015-06-06T11:27:54Z</time>
      </trkpt>
      <trkpt lat="45.38928" lon="5.91054">
        <ele>1719.5999574</ele>
        <time>2015-06-06T11:27:59Z</time>
      </trkpt>
      <trkpt lat="45.38924" lon="5.91051">
        <ele>1720.133877488</ele>
        <time>2015-06-06T11:28:05Z</time>
      </trkpt>
      <trkpt lat="45.3892" lon="5.91054">
        <ele>1720.667797575</ele>
        <time>2015-06-06T11:28:10Z</time>
      </trkpt>
      <trkpt lat="45.38915" lon="5.9106">
        <ele>1721.201717663</ele>
        <time>2015-06-06T11:28:15Z</time>
      </trkpt>
      <trkpt lat="45.38915" lon="5.9106">
        <ele>1721.735637751</ele>
        <time>2015-06-06T11:28:20Z</time>
      </trkpt>
      <trkpt lat="45.38915" lon="5.9106">
        <ele>1722.269557838</ele>
        <time>2015-06-06T11:28:25Z</time>
      </trkpt>
      <trkpt lat="45.38915" lon="5.9106">
        <ele>1722.803477926</ele>
        <time>2015-06-06T11:28:30Z</time>
      </trkpt>
      <trkpt lat="45.38915" lon="5.9106">
        <ele>1723.337398014</ele>
        <time>2015-06-06T11:28:35Z</time>
      </trkpt>
      <trkpt lat="45.38915" lon="5.9106">
        <ele>1723.871318101</ele>
        <time>2015-06-06T11:28:40Z</time>
      </trkpt>
      <trkpt lat="45.38915" lon="5.9106">
        <ele>1723.871318101</ele>
        <time>2015-06-06T11:28:45Z</time>
      </trkpt>
      <trkpt lat="45.38914" lon="5.9106">
        <ele>1723.871318101</ele>
        <time>2015-06-06T11:28:50Z</time>
      </trkpt>
      <trkpt lat="45.38915" lon="5.9106">
        <ele>1723.871318101</ele>
        <time>2015-06-06T11:28:55Z</time>
      </trkpt>
      <trkpt lat="45.38915" lon="5.91059">
        <ele>1723.871318101</ele>
        <time>2015-06-06T11:29:00Z</time>
      </trkpt>
      <trkpt lat="45.38915" lon="5.91059">
        <ele>1723.871318101</ele>
        <time>2015-06-06T11:29:05Z</time>
      </trkpt>
      <trkpt lat="45.38915" lon="5.91059">
        <ele>1723.871318101</ele>
        <time>2015-06-06T11:29:10Z</time>
      </trkpt>
      <trkpt lat="45.38915" lon="5.91059">
        <ele>1723.871318101</ele>
        <time>2015-06-06T11:29:15Z</time>
      </trkpt>
      <trkpt lat="45.38915" lon="5.91059">
        <ele>1723.871318101</ele>
        <time>2015-06-06T11:29:20Z</time>
      </trkpt>
      <trkpt lat="45.38915" lon="5.91059">
        <ele>1723.871318101</ele>
        <time>2015-06-06T11:29:25Z</time>
      </trkpt>
      <trkpt lat="45.38915" lon="5.91059">
        <ele>1723.871318101</ele>
        <time>2015-06-06T11:29:30Z</time>
      </trkpt>
      <trkpt lat="45.38914" lon="5.91059">
        <ele>1723.871318101</ele>
        <time>2015-06-06T11:29:35Z</time>
      </trkpt>
      <trkpt lat="45.38915" lon="5.91059">
        <ele>1723.871318101</ele>
        <time>2015-06-06T11:29:40Z</time>
      </trkpt>
      <trkpt lat="45.38915" lon="5.91059">
        <ele>1723.871318101</ele>
        <time>2015-06-06T11:29:45Z</time>
      </trkpt>
      <trkpt lat="45.38915" lon="5.91059">
        <ele>1723.871318101</ele>
        <time>2015-06-06T11:29:50Z</time>
      </trkpt>
      <trkpt lat="45.38915" lon="5.91059">
        <ele>1723.871318101</ele>
        <time>2015-06-06T11:29:55Z</time>
      </trkpt>
      <trkpt lat="45.38916" lon="5.91059">
        <ele>1723.871318101</ele>
        <time>2015-06-06T11:30:00Z</time>
      </trkpt>
      <trkpt lat="45.38916" lon="5.91059">
        <ele>1723.871318101</ele>
        <time>2015-06-06T11:30:05Z</time>
      </trkpt>
      <trkpt lat="45.38916" lon="5.91059">
        <ele>1723.871318101</ele>
        <time>2015-06-06T11:30:10Z</time>
      </trkpt>
      <trkpt lat="45.38916" lon="5.91059">
        <ele>1723.871318101</ele>
        <time>2015-06-06T11:30:15Z</time>
      </trkpt>
      <trkpt lat="45.38916" lon="5.91059">
        <ele>1723.871318101</ele>
        <time>2015-06-06T11:30:20Z</time>
      </trkpt>
      <trkpt lat="45.38916" lon="5.91059">
        <ele>1723.871318101</ele>
        <time>2015-06-06T11:30:25Z</time>
      </trkpt>
      <trkpt lat="45.38916" lon="5.91059">
        <ele>1723.871318101</ele>
        <time>2015-06-06T11:30:29Z</time>
      </trkpt>
      <trkpt lat="45.38916" lon="5.91059">
        <ele>1723.871318101</ele>
        <time>2015-06-06T11:30:35Z</time>
      </trkpt>
      <trkpt lat="45.38916" lon="5.91058">
        <ele>1723.871318101</ele>
        <time>2015-06-06T11:30:39Z</time>
      </trkpt>
      <trkpt lat="45.38917" lon="5.91058">
        <ele>1723.871318101</ele>
        <time>2015-06-06T11:30:45Z</time>
      </trkpt>
      <trkpt lat="45.38917" lon="5.91058">
        <ele>1723.871318101</ele>
        <time>2015-06-06T11:30:50Z</time>
      </trkpt>
      <trkpt lat="45.38917" lon="5.91058">
        <ele>1723.871318101</ele>
        <time>2015-06-06T11:30:55Z</time>
      </trkpt>
      <trkpt lat="45.38917" lon="5.91058">
        <ele>1723.871318101</ele>
        <time>2015-06-06T11:31:00Z</time>
      </trkpt>
      <trkpt lat="45.38918" lon="5.91058">
        <ele>1723.871318101</ele>
        <time>2015-06-06T11:31:05Z</time>
      </trkpt>
      <trkpt lat="45.38918" lon="5.91058">
        <ele>1723.871318101</ele>
        <time>2015-06-06T11:31:10Z</time>
      </trkpt>
      <trkpt lat="45.38919" lon="5.91058">
        <ele>1723.871318101</ele>
        <time>2015-06-06T11:31:15Z</time>
      </trkpt>
      <trkpt lat="45.38919" lon="5.91058">
        <ele>1723.871318101</ele>
        <time>2015-06-06T11:31:20Z</time>
      </trkpt>
      <trkpt lat="45.38919" lon="5.91058">
        <ele>1723.871318101</ele>
        <time>2015-06-06T11:31:25Z</time>
      </trkpt>
      <trkpt lat="45.38919" lon="5.91058">
        <ele>1723.871318101</ele>
        <time>2015-06-06T11:31:30Z</time>
      </trkpt>
      <trkpt lat="45.38919" lon="5.91058">
        <ele>1723.871318101</ele>
        <time>2015-06-06T11:31:35Z</time>
      </trkpt>
      <trkpt lat="45.38919" lon="5.91058">
        <ele>1723.871318101</ele>
        <time>2015-06-06T11:31:40Z</time>
      </trkpt>
      <trkpt lat="45.3892" lon="5.91058">
        <ele>1723.871318101</ele>
        <time>2015-06-06T11:31:45Z</time>
      </trkpt>
      <trkpt lat="45.3892" lon="5.91058">
        <ele>1723.871318101</ele>
        <time>2015-06-06T11:31:50Z</time>
      </trkpt>
      <trkpt lat="45.3892" lon="5.91058">
        <ele>1723.871318101</ele>
        <time>2015-06-06T11:31:55Z</time>
      </trkpt>
      <trkpt lat="45.3892" lon="5.91058">
        <ele>1723.871318101</ele>
        <time>2015-06-06T11:32:00Z</time>
      </trkpt>
      <trkpt lat="45.3892" lon="5.91058">
        <ele>1723.871318101</ele>
        <time>2015-06-06T11:32:05Z</time>
      </trkpt>
      <trkpt lat="45.3892" lon="5.91058">
        <ele>1723.871318101</ele>
        <time>2015-06-06T11:32:10Z</time>
      </trkpt>
      <trkpt lat="45.3892" lon="5.91058">
        <ele>1723.871318101</ele>
        <time>2015-06-06T11:32:15Z</time>
      </trkpt>
      <trkpt lat="45.3892" lon="5.91057">
        <ele>1723.871318101</ele>
        <time>2015-06-06T11:32:20Z</time>
      </trkpt>
      <trkpt lat="45.3892" lon="5.91057">
        <ele>1723.871318101</ele>
        <time>2015-06-06T11:32:25Z</time>
      </trkpt>
      <trkpt lat="45.3892" lon="5.91057">
        <ele>1723.871318101</ele>
        <time>2015-06-06T11:32:30Z</time>
      </trkpt>
      <trkpt lat="45.3892" lon="5.91057">
        <ele>1723.871318101</ele>
        <time>2015-06-06T11:32:35Z</time>
      </trkpt>
      <trkpt lat="45.3892" lon="5.91057">
        <ele>1723.871318101</ele>
        <time>2015-06-06T11:32:40Z</time>
      </trkpt>
      <trkpt lat="45.3892" lon="5.91057">
        <ele>1723.871318101</ele>
        <time>2015-06-06T11:32:45Z</time>
      </trkpt>
      <trkpt lat="45.38921" lon="5.91058">
        <ele>1723.871318101</ele>
        <time>2015-06-06T11:32:50Z</time>
      </trkpt>
      <trkpt lat="45.38919" lon="5.9106">
        <ele>1727.78970537</ele>
        <time>2015-06-06T11:32:55Z</time>
      </trkpt>
      <trkpt lat="45.38918" lon="5.91059">
        <ele>1727.78970537</ele>
        <time>2015-06-06T11:33:00Z</time>
      </trkpt>
      <trkpt lat="45.38918" lon="5.91058">
        <ele>1727.78970537</ele>
        <time>2015-06-06T11:33:05Z</time>
      </trkpt>
      <trkpt lat="45.38917" lon="5.91057">
        <ele>1727.78970537</ele>
        <time>2015-06-06T11:33:09Z</time>
      </trkpt>
      <trkpt lat="45.38917" lon="5.91057">
        <ele>1727.78970537</ele>
        <time>2015-06-06T11:33:15Z</time>
      </trkpt>
      <trkpt lat="45.38917" lon="5.91057">
        <ele>1727.78970537</ele>
        <time>2015-06-06T11:33:20Z</time>
      </trkpt>
      <trkpt lat="45.38917" lon="5.91057">
        <ele>1727.78970537</ele>
        <time>2015-06-06T11:33:25Z</time>
      </trkpt>
      <trkpt lat="45.38917" lon="5.91055">
        <ele>1727.78970537</ele>
        <time>2015-06-06T11:33:30Z</time>
      </trkpt>
      <trkpt lat="45.38919" lon="5.91049">
        <ele>1731.947327481</ele>
        <time>2015-06-06T11:33:35Z</time>
      </trkpt>
      <trkpt lat="45.38916" lon="5.91048">
        <ele>1731.947327481</ele>
        <time>2015-06-06T11:33:40Z</time>
      </trkpt>
      <trkpt lat="45.38915" lon="5.91045">
        <ele>1731.947327481</ele>
        <time>2015-06-06T11:33:45Z</time>
      </trkpt>
      <trkpt lat="45.38914" lon="5.91043">
        <ele>1731.947327481</ele>
        <time>2015-06-06T11:33:49Z</time>
      </trkpt>
      <trkpt lat="45.3891" lon="5.91044">
        <ele>1735.739386833</ele>
        <time>2015-06-06T11:33:54Z</time>
      </trkpt>
      <trkpt lat="45.38907" lon="5.91043">
        <ele>1735.739386833</ele>
        <time>2015-06-06T11:34:00Z</time>
      </trkpt>
      <trkpt lat="45.38907" lon="5.91041">
        <ele>1735.739386833</ele>
        <time>2015-06-06T11:34:04Z</time>
      </trkpt>
      <trkpt lat="45.38903" lon="5.91035">
        <ele>1739.038997245</ele>
        <time>2015-06-06T11:34:11Z</time>
      </trkpt>
      <trkpt lat="45.38894" lon="5.91036">
        <ele>1739.038997245</ele>
        <time>2015-06-06T11:34:15Z</time>
      </trkpt>
      <trkpt lat="45.38888" lon="5.91036">
        <ele>1741.441876788</ele>
        <time>2015-06-06T11:34:20Z</time>
      </trkpt>
      <trkpt lat="45.38885" lon="5.91034">
        <ele>1741.441876788</ele>
        <time>2015-06-06T11:34:25Z</time>
      </trkpt>
      <trkpt lat="45.38887" lon="5.91031">
        <ele>1741.441876788</ele>
        <time>2015-06-06T11:34:30Z</time>
      </trkpt>
      <trkpt lat="45.38888" lon="5.91031">
        <ele>1741.441876788</ele>
        <time>2015-06-06T11:34:36Z</time>
      </trkpt>
      <trkpt lat="45.38888" lon="5.91031">
        <ele>1741.441876788</ele>
        <time>2015-06-06T11:34:40Z</time>
      </trkpt>
      <trkpt lat="45.38884" lon="5.91033">
        <ele>1742.576101772</ele>
        <time>2015-06-06T11:34:44Z</time>
      </trkpt>
      <trkpt lat="45.38879" lon="5.91038">
        <ele>1742.576101772</ele>
        <time>2015-06-06T11:34:50Z</time>
      </trkpt>
      <trkpt lat="45.38874" lon="5.9104">
        <ele>1743.109578241</ele>
        <time>2015-06-06T11:34:55Z</time>
      </trkpt>
      <trkpt lat="45.38873" lon="5.91033">
        <ele>1743.109578241</ele>
        <time>2015-06-06T11:35:00Z</time>
      </trkpt>
      <trkpt lat="45.38872" lon="5.91034">
        <ele>1743.109578241</ele>
        <time>2015-06-06T11:35:05Z</time>
      </trkpt>
      <trkpt lat="45.38869" lon="5.91029">
        <ele>1744.527661142</ele>
        <time>2015-06-06T11:35:10Z</time>
      </trkpt>
      <trkpt lat="45.38866" lon="5.91025">
        <ele>1744.527661142</ele>
        <time>2015-06-06T11:35:15Z</time>
      </trkpt>
      <trkpt lat="45.38864" lon="5.91026">
        <ele>1744.527661142</ele>
        <time>2015-06-06T11:35:20Z</time>
      </trkpt>
      <trkpt lat="45.38863" lon="5.91025">
        <ele>1744.527661142</ele>
        <time>2015-06-06T11:35:25Z</time>
      </trkpt>
      <trkpt lat="45.38863" lon="5.91028">
        <ele>1744.527661142</ele>
        <time>2015-06-06T11:35:30Z</time>
      </trkpt>
      <trkpt lat="45.38861" lon="5.91031">
        <ele>1746.330760985</ele>
        <time>2015-06-06T11:35:36Z</time>
      </trkpt>
      <trkpt lat="45.38861" lon="5.91029">
        <ele>1746.330760985</ele>
        <time>2015-06-06T11:35:40Z</time>
      </trkpt>
      <trkpt lat="45.38859" lon="5.9103">
        <ele>1746.330760985</ele>
        <time>2015-06-06T11:35:45Z</time>
      </trkpt>
      <trkpt lat="45.38857" lon="5.91028">
        <ele>1746.330760985</ele>
        <time>2015-06-06T11:35:50Z</time>
      </trkpt>
      <trkpt lat="45.38855" lon="5.91028">
        <ele>1746.330760985</ele>
        <time>2015-06-06T11:35:56Z</time>
      </trkpt>
      <trkpt lat="45.38852" lon="5.9103">
        <ele>1748.487388865</ele>
        <time>2015-06-06T11:36:00Z</time>
      </trkpt>
      <trkpt lat="45.38852" lon="5.91028">
        <ele>1748.487388865</ele>
        <time>2015-06-06T11:36:05Z</time>
      </trkpt>
      <trkpt lat="45.38852" lon="5.91028">
        <ele>1748.487388865</ele>
        <time>2015-06-06T11:36:10Z</time>
      </trkpt>
      <trkpt lat="45.38852" lon="5.91028">
        <ele>1748.487388865</ele>
        <time>2015-06-06T11:36:15Z</time>
      </trkpt>
      <trkpt lat="45.38852" lon="5.91028">
        <ele>1748.487388865</ele>
        <time>2015-06-06T11:36:20Z</time>
      </trkpt>
      <trkpt lat="45.38852" lon="5.91028">
        <ele>1748.487388865</ele>
        <time>2015-06-06T11:36:25Z</time>
      </trkpt>
      <trkpt lat="45.38851" lon="5.91028">
        <ele>1748.487388865</ele>
        <time>2015-06-06T11:36:30Z</time>
      </trkpt>
      <trkpt lat="45.3885" lon="5.91017">
        <ele>1751.11162663</ele>
        <time>2015-06-06T11:36:36Z</time>
      </trkpt>
      <trkpt lat="45.38849" lon="5.9101">
        <ele>1751.11162663</ele>
        <time>2015-06-06T11:36:40Z</time>
      </trkpt>
      <trkpt lat="45.38848" lon="5.91003">
        <ele>1753.010978587</ele>
        <time>2015-06-06T11:36:45Z</time>
      </trkpt>
      <trkpt lat="45.38844" lon="5.90999">
        <ele>1753.010978587</ele>
        <time>2015-06-06T11:36:50Z</time>
      </trkpt>
      <trkpt lat="45.3884" lon="5.90996">
        <ele>1754.523858412</ele>
        <time>2015-06-06T11:36:55Z</time>
      </trkpt>
      <trkpt lat="45.38837" lon="5.90987">
        <ele>1754.523858412</ele>
        <time>2015-06-06T11:37:00Z</time>
      </trkpt>
      <trkpt lat="45.38833" lon="5.9098">
        <ele>1755.532698368</ele>
        <time>2015-06-06T11:37:05Z</time>
      </trkpt>
      <trkpt lat="45.38829" lon="5.90979">
        <ele>1755.532698368</ele>
        <time>2015-06-06T11:37:09Z</time>
      </trkpt>
      <trkpt lat="45.38824" lon="5.90973">
        <ele>1756.21833793</ele>
        <time>2015-06-06T11:37:15Z</time>
      </trkpt>
      <trkpt lat="45.3882" lon="5.90964">
        <ele>1756.21833793</ele>
        <time>2015-06-06T11:37:20Z</time>
      </trkpt>
      <trkpt lat="45.38816" lon="5.9096">
        <ele>1756.605247398</ele>
        <time>2015-06-06T11:37:25Z</time>
      </trkpt>
      <trkpt lat="45.38808" lon="5.90957">
        <ele>1756.605247398</ele>
        <time>2015-06-06T11:37:30Z</time>
      </trkpt>
      <trkpt lat="45.38803" lon="5.90953">
        <ele>1756.717048365</ele>
        <time>2015-06-06T11:37:35Z</time>
      </trkpt>
      <trkpt lat="45.38801" lon="5.90952">
        <ele>1756.717048365</ele>
        <time>2015-06-06T11:37:40Z</time>
      </trkpt>
      <trkpt lat="45.38797" lon="5.90951">
        <ele>1756.717048365</ele>
        <time>2015-06-06T11:37:45Z</time>
      </trkpt>
      <trkpt lat="45.3879" lon="5.90949">
        <ele>1756.576496425</ele>
        <time>2015-06-06T11:37:50Z</time>
      </trkpt>
      <trkpt lat="45.38785" lon="5.90948">
        <ele>1756.576496425</ele>
        <time>2015-06-06T11:37:55Z</time>
      </trkpt>
      <trkpt lat="45.38781" lon="5.90951">
        <ele>1756.493690709</ele>
        <time>2015-06-06T11:38:00Z</time>
      </trkpt>
      <trkpt lat="45.38777" lon="5.90944">
        <ele>1756.493690709</ele>
        <time>2015-06-06T11:38:05Z</time>
      </trkpt>
      <trkpt lat="45.38772" lon="5.90943">
        <ele>1756.035294975</ele>
        <time>2015-06-06T11:38:10Z</time>
      </trkpt>
      <trkpt lat="45.38768" lon="5.90938">
        <ele>1756.035294975</ele>
        <time>2015-06-06T11:38:16Z</time>
      </trkpt>
      <trkpt lat="45.38768" lon="5.90937">
        <ele>1756.035294975</ele>
        <time>2015-06-06T11:38:20Z</time>
      </trkpt>
      <trkpt lat="45.38765" lon="5.90942">
        <ele>1755.665583568</ele>
        <time>2015-06-06T11:38:25Z</time>
      </trkpt>
      <trkpt lat="45.38762" lon="5.90938">
        <ele>1755.665583568</ele>
        <time>2015-06-06T11:38:29Z</time>
      </trkpt>
      <trkpt lat="45.3876" lon="5.9094">
        <ele>1755.665583568</ele>
        <time>2015-06-06T11:38:35Z</time>
      </trkpt>
      <trkpt lat="45.38755" lon="5.90951">
        <ele>1755.38217616</ele>
        <time>2015-06-06T11:38:40Z</time>
      </trkpt>
      <trkpt lat="45.3875" lon="5.9095">
        <ele>1755.38217616</ele>
        <time>2015-06-06T11:38:45Z</time>
      </trkpt>
      <trkpt lat="45.38747" lon="5.90956">
        <ele>1755.03853491</ele>
        <time>2015-06-06T11:38:50Z</time>
      </trkpt>
      <trkpt lat="45.38743" lon="5.90963">
        <ele>1755.03853491</ele>
        <time>2015-06-06T11:38:55Z</time>
      </trkpt>
      <trkpt lat="45.38741" lon="5.90964">
        <ele>1755.03853491</ele>
        <time>2015-06-06T11:39:00Z</time>
      </trkpt>
      <trkpt lat="45.38738" lon="5.90965">
        <ele>1754.787286435</ele>
        <time>2015-06-06T11:39:06Z</time>
      </trkpt>
      <trkpt lat="45.38737" lon="5.90961">
        <ele>1754.787286435</ele>
        <time>2015-06-06T11:39:10Z</time>
      </trkpt>
      <trkpt lat="45.38738" lon="5.90956">
        <ele>1754.787286435</ele>
        <time>2015-06-06T11:39:16Z</time>
      </trkpt>
      <trkpt lat="45.38739" lon="5.90957">
        <ele>1754.787286435</ele>
        <time>2015-06-06T11:39:20Z</time>
      </trkpt>
      <trkpt lat="45.38739" lon="5.90957">
        <ele>1754.787286435</ele>
        <time>2015-06-06T11:39:25Z</time>
      </trkpt>
      <trkpt lat="45.38739" lon="5.90957">
        <ele>1754.787286435</ele>
        <time>2015-06-06T11:39:30Z</time>
      </trkpt>
      <trkpt lat="45.38739" lon="5.90957">
        <ele>1754.787286435</ele>
        <time>2015-06-06T11:39:36Z</time>
      </trkpt>
      <trkpt lat="45.38739" lon="5.90957">
        <ele>1754.787286435</ele>
        <time>2015-06-06T11:39:40Z</time>
      </trkpt>
      <trkpt lat="45.38737" lon="5.90957">
        <ele>1755.346028113</ele>
        <time>2015-06-06T11:39:45Z</time>
      </trkpt>
      <trkpt lat="45.38737" lon="5.90954">
        <ele>1755.346028113</ele>
        <time>2015-06-06T11:39:50Z</time>
      </trkpt>
      <trkpt lat="45.38735" lon="5.90947">
        <ele>1755.346028113</ele>
        <time>2015-06-06T11:39:56Z</time>
      </trkpt>
      <trkpt lat="45.38733" lon="5.9094">
        <ele>1755.503907888</ele>
        <time>2015-06-06T11:40:00Z</time>
      </trkpt>
      <trkpt lat="45.3873" lon="5.90935">
        <ele>1755.503907888</ele>
        <time>2015-06-06T11:40:05Z</time>
      </trkpt>
      <trkpt lat="45.38725" lon="5.90932">
        <ele>1755.725352469</ele>
        <time>2015-06-06T11:40:09Z</time>
      </trkpt>
      <trkpt lat="45.38717" lon="5.9093">
        <ele>1755.725352469</ele>
        <time>2015-06-06T11:40:15Z</time>
      </trkpt>
      <trkpt lat="45.38712" lon="5.90929">
        <ele>1756.008132235</ele>
        <time>2015-06-06T11:40:20Z</time>
      </trkpt>
      <trkpt lat="45.38707" lon="5.90928">
        <ele>1756.008132235</ele>
        <time>2015-06-06T11:40:25Z</time>
      </trkpt>
      <trkpt lat="45.38702" lon="5.90928">
        <ele>1756.205866154</ele>
        <time>2015-06-06T11:40:30Z</time>
      </trkpt>
      <trkpt lat="45.38701" lon="5.90923">
        <ele>1756.205866154</ele>
        <time>2015-06-06T11:40:35Z</time>
      </trkpt>
      <trkpt lat="45.387" lon="5.90922">
        <ele>1756.205866154</ele>
        <time>2015-06-06T11:40:40Z</time>
      </trkpt>
      <trkpt lat="45.38697" lon="5.90924">
        <ele>1756.205866154</ele>
        <time>2015-06-06T11:40:46Z</time>
      </trkpt>
      <trkpt lat="45.38697" lon="5.90924">
        <ele>1756.471350792</ele>
        <time>2015-06-06T11:40:50Z</time>
      </trkpt>
      <trkpt lat="45.38691" lon="5.90924">
        <ele>1756.471350792</ele>
        <time>2015-06-06T11:40:55Z</time>
      </trkpt>
      <trkpt lat="45.38686" lon="5.90923">
        <ele>1756.801816271</ele>
        <time>2015-06-06T11:41:01Z</time>
      </trkpt>
      <trkpt lat="45.38681" lon="5.90926">
        <ele>1756.801816271</ele>
        <time>2015-06-06T11:41:05Z</time>
      </trkpt>
      <trkpt lat="45.38676" lon="5.90927">
        <ele>1756.906246883</ele>
        <time>2015-06-06T11:41:10Z</time>
      </trkpt>
      <trkpt lat="45.38672" lon="5.90925">
        <ele>1756.906246883</ele>
        <time>2015-06-06T11:41:15Z</time>
      </trkpt>
      <trkpt lat="45.38669" lon="5.90918">
        <ele>1757.38025863</ele>
        <time>2015-06-06T11:41:21Z</time>
      </trkpt>
      <trkpt lat="45.38666" lon="5.90917">
        <ele>1757.38025863</ele>
        <time>2015-06-06T11:41:25Z</time>
      </trkpt>
      <trkpt lat="45.38662" lon="5.90921">
        <ele>1757.38025863</ele>
        <time>2015-06-06T11:41:30Z</time>
      </trkpt>
      <trkpt lat="45.38659" lon="5.90911">
        <ele>1758.34229438</ele>
        <time>2015-06-06T11:41:35Z</time>
      </trkpt>
      <trkpt lat="45.38659" lon="5.9091">
        <ele>1758.34229438</ele>
        <time>2015-06-06T11:41:40Z</time>
      </trkpt>
      <trkpt lat="45.38657" lon="5.90905">
        <ele>1758.34229438</ele>
        <time>2015-06-06T11:41:45Z</time>
      </trkpt>
      <trkpt lat="45.38656" lon="5.90904">
        <ele>1758.34229438</ele>
        <time>2015-06-06T11:41:50Z</time>
      </trkpt>
      <trkpt lat="45.38655" lon="5.90905">
        <ele>1758.34229438</ele>
        <time>2015-06-06T11:41:56Z</time>
      </trkpt>
      <trkpt lat="45.38654" lon="5.90901">
        <ele>1759.468344703</ele>
        <time>2015-06-06T11:42:00Z</time>
      </trkpt>
      <trkpt lat="45.38654" lon="5.90899">
        <ele>1759.468344703</ele>
        <time>2015-06-06T11:42:05Z</time>
      </trkpt>
      <trkpt lat="45.38654" lon="5.90899">
        <ele>1759.468344703</ele>
        <time>2015-06-06T11:42:10Z</time>
      </trkpt>
      <trkpt lat="45.38654" lon="5.909">
        <ele>1759.468344703</ele>
        <time>2015-06-06T11:42:15Z</time>
      </trkpt>
      <trkpt lat="45.38654" lon="5.909">
        <ele>1759.468344703</ele>
        <time>2015-06-06T11:42:20Z</time>
      </trkpt>
      <trkpt lat="45.3865" lon="5.90899">
        <ele>1759.468344703</ele>
        <time>2015-06-06T11:42:25Z</time>
      </trkpt>
      <trkpt lat="45.38652" lon="5.90898">
        <ele>1759.468344703</ele>
        <time>2015-06-06T11:42:30Z</time>
      </trkpt>
      <trkpt lat="45.38652" lon="5.90898">
        <ele>1759.468344703</ele>
        <time>2015-06-06T11:42:35Z</time>
      </trkpt>
      <trkpt lat="45.38651" lon="5.90896">
        <ele>1759.468344703</ele>
        <time>2015-06-06T11:42:40Z</time>
      </trkpt>
      <trkpt lat="45.38651" lon="5.90897">
        <ele>1760.89002874</ele>
        <time>2015-06-06T11:42:45Z</time>
      </trkpt>
      <trkpt lat="45.3865" lon="5.90896">
        <ele>1760.89002874</ele>
        <time>2015-06-06T11:42:50Z</time>
      </trkpt>
      <trkpt lat="45.38645" lon="5.9089">
        <ele>1760.89002874</ele>
        <time>2015-06-06T11:42:55Z</time>
      </trkpt>
      <trkpt lat="45.3864" lon="5.90892">
        <ele>1761.43142329</ele>
        <time>2015-06-06T11:43:00Z</time>
      </trkpt>
      <trkpt lat="45.3864" lon="5.90891">
        <ele>1761.43142329</ele>
        <time>2015-06-06T11:43:05Z</time>
      </trkpt>
      <trkpt lat="45.38637" lon="5.90886">
        <ele>1761.43142329</ele>
        <time>2015-06-06T11:43:09Z</time>
      </trkpt>
      <trkpt lat="45.38633" lon="5.9088">
        <ele>1761.590639773</ele>
        <time>2015-06-06T11:43:15Z</time>
      </trkpt>
      <trkpt lat="45.38631" lon="5.90876">
        <ele>1761.590639773</ele>
        <time>2015-06-06T11:43:21Z</time>
      </trkpt>
      <trkpt lat="45.38632" lon="5.90874">
        <ele>1761.590639773</ele>
        <time>2015-06-06T11:43:25Z</time>
      </trkpt>
      <trkpt lat="45.38632" lon="5.90873">
        <ele>1761.590639773</ele>
        <time>2015-06-06T11:43:29Z</time>
      </trkpt>
      <trkpt lat="45.38632" lon="5.90873">
        <ele>1761.590639773</ele>
        <time>2015-06-06T11:43:34Z</time>
      </trkpt>
      <trkpt lat="45.38632" lon="5.90873">
        <ele>1761.590639773</ele>
        <time>2015-06-06T11:43:41Z</time>
      </trkpt>
      <trkpt lat="45.38632" lon="5.90873">
        <ele>1761.590639773</ele>
        <time>2015-06-06T11:43:45Z</time>
      </trkpt>
      <trkpt lat="45.38627" lon="5.90871">
        <ele>1761.83023131</ele>
        <time>2015-06-06T11:43:50Z</time>
      </trkpt>
      <trkpt lat="45.38625" lon="5.90872">
        <ele>1761.83023131</ele>
        <time>2015-06-06T11:43:55Z</time>
      </trkpt>
      <trkpt lat="45.38624" lon="5.90871">
        <ele>1761.83023131</ele>
        <time>2015-06-06T11:44:01Z</time>
      </trkpt>
      <trkpt lat="45.38624" lon="5.90871">
        <ele>1761.83023131</ele>
        <time>2015-06-06T11:44:05Z</time>
      </trkpt>
      <trkpt lat="45.38623" lon="5.90872">
        <ele>1761.83023131</ele>
        <time>2015-06-06T11:44:10Z</time>
      </trkpt>
      <trkpt lat="45.38617" lon="5.90873">
        <ele>1761.857949958</ele>
        <time>2015-06-06T11:44:15Z</time>
      </trkpt>
      <trkpt lat="45.38615" lon="5.90875">
        <ele>1761.857949958</ele>
        <time>2015-06-06T11:44:21Z</time>
      </trkpt>
      <trkpt lat="45.38615" lon="5.90874">
        <ele>1761.857949958</ele>
        <time>2015-06-06T11:44:25Z</time>
      </trkpt>
      <trkpt lat="45.38612" lon="5.90873">
        <ele>1761.857949958</ele>
        <time>2015-06-06T11:44:30Z</time>
      </trkpt>
      <trkpt lat="45.38608" lon="5.90871">
        <ele>1761.691788999</ele>
        <time>2015-06-06T11:44:36Z</time>
      </trkpt>
      <trkpt lat="45.38604" lon="5.90872">
        <ele>1761.691788999</ele>
        <time>2015-06-06T11:44:40Z</time>
      </trkpt>
      <trkpt lat="45.38602" lon="5.9087">
        <ele>1761.691788999</ele>
        <time>2015-06-06T11:44:45Z</time>
      </trkpt>
      <trkpt lat="45.38599" lon="5.9087">
        <ele>1761.637138574</ele>
        <time>2015-06-06T11:44:50Z</time>
      </trkpt>
      <trkpt lat="45.38596" lon="5.90874">
        <ele>1761.637138574</ele>
        <time>2015-06-06T11:44:55Z</time>
      </trkpt>
      <trkpt lat="45.38595" lon="5.90874">
        <ele>1761.637138574</ele>
        <time>2015-06-06T11:45:00Z</time>
      </trkpt>
      <trkpt lat="45.38593" lon="5.90874">
        <ele>1761.637138574</ele>
        <time>2015-06-06T11:45:05Z</time>
      </trkpt>
      <trkpt lat="45.3859" lon="5.90874">
        <ele>1761.976591266</ele>
        <time>2015-06-06T11:45:10Z</time>
      </trkpt>
      <trkpt lat="45.38585" lon="5.90876">
        <ele>1761.976591266</ele>
        <time>2015-06-06T11:45:15Z</time>
      </trkpt>
      <trkpt lat="45.38581" lon="5.90875">
        <ele>1761.976591266</ele>
        <time>2015-06-06T11:45:20Z</time>
      </trkpt>
      <trkpt lat="45.38582" lon="5.90874">
        <ele>1762.682599389</ele>
        <time>2015-06-06T11:45:25Z</time>
      </trkpt>
      <trkpt lat="45.38582" lon="5.90873">
        <ele>1762.682599389</ele>
        <time>2015-06-06T11:45:29Z</time>
      </trkpt>
      <trkpt lat="45.38582" lon="5.90876">
        <ele>1762.682599389</ele>
        <time>2015-06-06T11:45:36Z</time>
      </trkpt>
      <trkpt lat="45.38578" lon="5.90878">
        <ele>1762.682599389</ele>
        <time>2015-06-06T11:45:40Z</time>
      </trkpt>
      <trkpt lat="45.38577" lon="5.90878">
        <ele>1762.682599389</ele>
        <time>2015-06-06T11:45:46Z</time>
      </trkpt>
      <trkpt lat="45.38574" lon="5.90874">
        <ele>1763.872669031</ele>
        <time>2015-06-06T11:45:50Z</time>
      </trkpt>
      <trkpt lat="45.38569" lon="5.90875">
        <ele>1763.872669031</ele>
        <time>2015-06-06T11:45:55Z</time>
      </trkpt>
      <trkpt lat="45.38569" lon="5.90873">
        <ele>1763.872669031</ele>
        <time>2015-06-06T11:45:59Z</time>
      </trkpt>
      <trkpt lat="45.38569" lon="5.90872">
        <ele>1763.872669031</ele>
        <time>2015-06-06T11:46:05Z</time>
      </trkpt>
      <trkpt lat="45.38569" lon="5.90872">
        <ele>1763.872669031</ele>
        <time>2015-06-06T11:46:10Z</time>
      </trkpt>
      <trkpt lat="45.38569" lon="5.90872">
        <ele>1763.872669031</ele>
        <time>2015-06-06T11:46:15Z</time>
      </trkpt>
      <trkpt lat="45.38569" lon="5.90872">
        <ele>1763.872669031</ele>
        <time>2015-06-06T11:46:19Z</time>
      </trkpt>
      <trkpt lat="45.38569" lon="5.90872">
        <ele>1763.872669031</ele>
        <time>2015-06-06T11:46:25Z</time>
      </trkpt>
      <trkpt lat="45.38569" lon="5.90872">
        <ele>1763.872669031</ele>
        <time>2015-06-06T11:46:30Z</time>
      </trkpt>
      <trkpt lat="45.38569" lon="5.90872">
        <ele>1763.872669031</ele>
        <time>2015-06-06T11:46:34Z</time>
      </trkpt>
      <trkpt lat="45.38569" lon="5.90872">
        <ele>1763.872669031</ele>
        <time>2015-06-06T11:46:40Z</time>
      </trkpt>
      <trkpt lat="45.38569" lon="5.90872">
        <ele>1763.872669031</ele>
        <time>2015-06-06T11:46:45Z</time>
      </trkpt>
      <trkpt lat="45.38568" lon="5.90872">
        <ele>1763.872669031</ele>
        <time>2015-06-06T11:46:50Z</time>
      </trkpt>
      <trkpt lat="45.38568" lon="5.90872">
        <ele>1763.872669031</ele>
        <time>2015-06-06T11:46:55Z</time>
      </trkpt>
      <trkpt lat="45.38562" lon="5.90861">
        <ele>1765.077821354</ele>
        <time>2015-06-06T11:47:00Z</time>
      </trkpt>
      <trkpt lat="45.38555" lon="5.90865">
        <ele>1765.077821354</ele>
        <time>2015-06-06T11:47:05Z</time>
      </trkpt>
      <trkpt lat="45.3855" lon="5.90863">
        <ele>1766.439886452</ele>
        <time>2015-06-06T11:47:10Z</time>
      </trkpt>
      <trkpt lat="45.38542" lon="5.90863">
        <ele>1766.439886452</ele>
        <time>2015-06-06T11:47:15Z</time>
      </trkpt>
      <trkpt lat="45.38538" lon="5.90858">
        <ele>1767.801574974</ele>
        <time>2015-06-06T11:47:20Z</time>
      </trkpt>
      <trkpt lat="45.38533" lon="5.90861">
        <ele>1767.801574974</ele>
        <time>2015-06-06T11:47:25Z</time>
      </trkpt>
      <trkpt lat="45.38533" lon="5.90862">
        <ele>1767.801574974</ele>
        <time>2015-06-06T11:47:30Z</time>
      </trkpt>
      <trkpt lat="45.38528" lon="5.90875">
        <ele>1768.728899103</ele>
        <time>2015-06-06T11:47:35Z</time>
      </trkpt>
      <trkpt lat="45.38529" lon="5.90853">
        <ele>1770.406169812</ele>
        <time>2015-06-06T11:47:40Z</time>
      </trkpt>
      <trkpt lat="45.38522" lon="5.90865">
        <ele>1771.766908838</ele>
        <time>2015-06-06T11:47:45Z</time>
      </trkpt>
      <trkpt lat="45.38519" lon="5.90865">
        <ele>1772.05869101</ele>
        <time>2015-06-06T11:47:50Z</time>
      </trkpt>
      <trkpt lat="45.38471" lon="5.90918">
        <ele>1772.350473181</ele>
        <time>2015-06-06T11:50:19Z</time>
      </trkpt>
      <trkpt lat="45.38471" lon="5.90919">
        <ele>1772.642255352</ele>
        <time>2015-06-06T11:50:24Z</time>
      </trkpt>
      <trkpt lat="45.38471" lon="5.9092">
        <ele>1772.934037523</ele>
        <time>2015-06-06T11:50:31Z</time>
      </trkpt>
      <trkpt lat="45.38471" lon="5.9092">
        <ele>1773.225819694</ele>
        <time>2015-06-06T11:50:34Z</time>
      </trkpt>
      <trkpt lat="45.38471" lon="5.9092">
        <ele>1773.517601865</ele>
        <time>2015-06-06T11:50:40Z</time>
      </trkpt>
      <trkpt lat="45.38471" lon="5.9092">
        <ele>1773.809384036</ele>
        <time>2015-06-06T11:50:45Z</time>
      </trkpt>
      <trkpt lat="45.38471" lon="5.9092">
        <ele>1774.101166207</ele>
        <time>2015-06-06T11:50:50Z</time>
      </trkpt>
      <trkpt lat="45.38471" lon="5.9092">
        <ele>1774.392948378</ele>
        <time>2015-06-06T11:50:55Z</time>
      </trkpt>
      <trkpt lat="45.38471" lon="5.9092">
        <ele>1774.684730549</ele>
        <time>2015-06-06T11:51:00Z</time>
      </trkpt>
      <trkpt lat="45.38471" lon="5.9092">
        <ele>1774.97651272</ele>
        <time>2015-06-06T11:51:05Z</time>
      </trkpt>
      <trkpt lat="45.38471" lon="5.90921">
        <ele>1775.268294891</ele>
        <time>2015-06-06T11:51:11Z</time>
      </trkpt>
      <trkpt lat="45.3847" lon="5.90921">
        <ele>1775.560077062</ele>
        <time>2015-06-06T11:51:14Z</time>
      </trkpt>
      <trkpt lat="45.38471" lon="5.9092">
        <ele>1775.851859233</ele>
        <time>2015-06-06T11:51:20Z</time>
      </trkpt>
      <trkpt lat="45.38471" lon="5.90919">
        <ele>1776.143641404</ele>
        <time>2015-06-06T11:51:25Z</time>
      </trkpt>
      <trkpt lat="45.38476" lon="5.909">
        <ele>1776.435423575</ele>
        <time>2015-06-06T11:51:30Z</time>
      </trkpt>
      <trkpt lat="45.38476" lon="5.90903">
        <ele>1776.435423575</ele>
        <time>2015-06-06T11:51:35Z</time>
      </trkpt>
      <trkpt lat="45.38474" lon="5.90909">
        <ele>1776.435423575</ele>
        <time>2015-06-06T11:51:40Z</time>
      </trkpt>
      <trkpt lat="45.38475" lon="5.90906">
        <ele>1776.435423575</ele>
        <time>2015-06-06T11:51:45Z</time>
      </trkpt>
      <trkpt lat="45.38475" lon="5.90906">
        <ele>1776.435423575</ele>
        <time>2015-06-06T11:51:51Z</time>
      </trkpt>
      <trkpt lat="45.38475" lon="5.90906">
        <ele>1776.435423575</ele>
        <time>2015-06-06T11:51:55Z</time>
      </trkpt>
      <trkpt lat="45.38475" lon="5.90906">
        <ele>1776.435423575</ele>
        <time>2015-06-06T11:52:01Z</time>
      </trkpt>
      <trkpt lat="45.3847" lon="5.90893">
        <ele>1779.257945328</ele>
        <time>2015-06-06T11:52:05Z</time>
      </trkpt>
      <trkpt lat="45.38459" lon="5.90881">
        <ele>1782.093618516</ele>
        <time>2015-06-06T11:52:11Z</time>
      </trkpt>
      <trkpt lat="45.3846" lon="5.90876">
        <ele>1782.093618516</ele>
        <time>2015-06-06T11:52:15Z</time>
      </trkpt>
      <trkpt lat="45.38457" lon="5.90873">
        <ele>1782.093618516</ele>
        <time>2015-06-06T11:52:20Z</time>
      </trkpt>
      <trkpt lat="45.38456" lon="5.90873">
        <ele>1782.093618516</ele>
        <time>2015-06-06T11:52:26Z</time>
      </trkpt>
      <trkpt lat="45.38456" lon="5.90873">
        <ele>1782.093618516</ele>
        <time>2015-06-06T11:52:30Z</time>
      </trkpt>
      <trkpt lat="45.38456" lon="5.90873">
        <ele>1782.093618516</ele>
        <time>2015-06-06T11:52:35Z</time>
      </trkpt>
      <trkpt lat="45.38451" lon="5.9087">
        <ele>1784.935684869</ele>
        <time>2015-06-06T11:52:41Z</time>
      </trkpt>
      <trkpt lat="45.38452" lon="5.90861">
        <ele>1784.935684869</ele>
        <time>2015-06-06T11:52:45Z</time>
      </trkpt>
      <trkpt lat="45.38451" lon="5.90856">
        <ele>1786.913253632</ele>
        <time>2015-06-06T11:52:51Z</time>
      </trkpt>
      <trkpt lat="45.38447" lon="5.90852">
        <ele>1786.913253632</ele>
        <time>2015-06-06T11:52:54Z</time>
      </trkpt>
      <trkpt lat="45.38444" lon="5.9085">
        <ele>1786.913253632</ele>
        <time>2015-06-06T11:53:00Z</time>
      </trkpt>
      <trkpt lat="45.38442" lon="5.90848">
        <ele>1788.66301328</ele>
        <time>2015-06-06T11:53:05Z</time>
      </trkpt>
      <trkpt lat="45.38441" lon="5.90848">
        <ele>1788.66301328</ele>
        <time>2015-06-06T11:53:11Z</time>
      </trkpt>
      <trkpt lat="45.3844" lon="5.90848">
        <ele>1788.66301328</ele>
        <time>2015-06-06T11:53:14Z</time>
      </trkpt>
      <trkpt lat="45.3844" lon="5.90849">
        <ele>1788.66301328</ele>
        <time>2015-06-06T11:53:20Z</time>
      </trkpt>
      <trkpt lat="45.3844" lon="5.90849">
        <ele>1788.66301328</ele>
        <time>2015-06-06T11:53:26Z</time>
      </trkpt>
      <trkpt lat="45.3844" lon="5.90849">
        <ele>1788.66301328</ele>
        <time>2015-06-06T11:53:30Z</time>
      </trkpt>
      <trkpt lat="45.3844" lon="5.90849">
        <ele>1788.66301328</ele>
        <time>2015-06-06T11:53:35Z</time>
      </trkpt>
      <trkpt lat="45.3844" lon="5.90849">
        <ele>1788.66301328</ele>
        <time>2015-06-06T11:53:40Z</time>
      </trkpt>
      <trkpt lat="45.3844" lon="5.90849">
        <ele>1788.66301328</ele>
        <time>2015-06-06T11:53:45Z</time>
      </trkpt>
      <trkpt lat="45.3844" lon="5.90849">
        <ele>1788.66301328</ele>
        <time>2015-06-06T11:53:50Z</time>
      </trkpt>
      <trkpt lat="45.3844" lon="5.90849">
        <ele>1788.66301328</ele>
        <time>2015-06-06T11:53:54Z</time>
      </trkpt>
      <trkpt lat="45.3844" lon="5.90849">
        <ele>1788.66301328</ele>
        <time>2015-06-06T11:54:01Z</time>
      </trkpt>
      <trkpt lat="45.3844" lon="5.90849">
        <ele>1788.66301328</ele>
        <time>2015-06-06T11:54:05Z</time>
      </trkpt>
      <trkpt lat="45.38439" lon="5.90849">
        <ele>1788.66301328</ele>
        <time>2015-06-06T11:54:11Z</time>
      </trkpt>
      <trkpt lat="45.38439" lon="5.90849">
        <ele>1788.66301328</ele>
        <time>2015-06-06T11:54:14Z</time>
      </trkpt>
      <trkpt lat="45.38439" lon="5.90849">
        <ele>1788.66301328</ele>
        <time>2015-06-06T11:54:20Z</time>
      </trkpt>
      <trkpt lat="45.38439" lon="5.90849">
        <ele>1788.66301328</ele>
        <time>2015-06-06T11:54:25Z</time>
      </trkpt>
      <trkpt lat="45.38439" lon="5.90849">
        <ele>1788.66301328</ele>
        <time>2015-06-06T11:54:31Z</time>
      </trkpt>
      <trkpt lat="45.38439" lon="5.90849">
        <ele>1788.66301328</ele>
        <time>2015-06-06T11:54:35Z</time>
      </trkpt>
      <trkpt lat="45.38439" lon="5.90849">
        <ele>1788.66301328</ele>
        <time>2015-06-06T11:54:40Z</time>
      </trkpt>
      <trkpt lat="45.38439" lon="5.90849">
        <ele>1788.66301328</ele>
        <time>2015-06-06T11:54:45Z</time>
      </trkpt>
      <trkpt lat="45.38439" lon="5.90849">
        <ele>1788.66301328</ele>
        <time>2015-06-06T11:54:51Z</time>
      </trkpt>
      <trkpt lat="45.38439" lon="5.90849">
        <ele>1788.66301328</ele>
        <time>2015-06-06T11:54:55Z</time>
      </trkpt>
      <trkpt lat="45.38439" lon="5.90849">
        <ele>1788.66301328</ele>
        <time>2015-06-06T11:55:01Z</time>
      </trkpt>
      <trkpt lat="45.38438" lon="5.90849">
        <ele>1788.66301328</ele>
        <time>2015-06-06T11:55:05Z</time>
      </trkpt>
      <trkpt lat="45.38432" lon="5.90846">
        <ele>1789.334479759</ele>
        <time>2015-06-06T11:55:10Z</time>
      </trkpt>
      <trkpt lat="45.38432" lon="5.90843">
        <ele>1789.334479759</ele>
        <time>2015-06-06T11:55:15Z</time>
      </trkpt>
      <trkpt lat="45.38431" lon="5.90839">
        <ele>1789.334479759</ele>
        <time>2015-06-06T11:55:20Z</time>
      </trkpt>
      <trkpt lat="45.38431" lon="5.90839">
        <ele>1789.334479759</ele>
        <time>2015-06-06T11:55:25Z</time>
      </trkpt>
      <trkpt lat="45.38429" lon="5.90835">
        <ele>1789.334479759</ele>
        <time>2015-06-06T11:55:30Z</time>
      </trkpt>
      <trkpt lat="45.38418" lon="5.90832">
        <ele>1789.439742615</ele>
        <time>2015-06-06T11:55:34Z</time>
      </trkpt>
      <trkpt lat="45.38416" lon="5.90823">
        <ele>1789.439742615</ele>
        <time>2015-06-06T11:55:41Z</time>
      </trkpt>
      <trkpt lat="45.38415" lon="5.90823">
        <ele>1789.439742615</ele>
        <time>2015-06-06T11:55:45Z</time>
      </trkpt>
      <trkpt lat="45.38414" lon="5.90822">
        <ele>1789.887262669</ele>
        <time>2015-06-06T11:55:51Z</time>
      </trkpt>
      <trkpt lat="45.38413" lon="5.90822">
        <ele>1789.887262669</ele>
        <time>2015-06-06T11:55:54Z</time>
      </trkpt>
      <trkpt lat="45.38413" lon="5.90822">
        <ele>1789.887262669</ele>
        <time>2015-06-06T11:56:00Z</time>
      </trkpt>
      <trkpt lat="45.38413" lon="5.90822">
        <ele>1789.887262669</ele>
        <time>2015-06-06T11:56:04Z</time>
      </trkpt>
      <trkpt lat="45.38413" lon="5.90822">
        <ele>1789.887262669</ele>
        <time>2015-06-06T11:56:10Z</time>
      </trkpt>
      <trkpt lat="45.38413" lon="5.90822">
        <ele>1789.887262669</ele>
        <time>2015-06-06T11:56:14Z</time>
      </trkpt>
      <trkpt lat="45.38409" lon="5.90816">
        <ele>1789.887262669</ele>
        <time>2015-06-06T11:56:20Z</time>
      </trkpt>
      <trkpt lat="45.38406" lon="5.9081">
        <ele>1790.364975584</ele>
        <time>2015-06-06T11:56:25Z</time>
      </trkpt>
      <trkpt lat="45.38403" lon="5.90812">
        <ele>1790.364975584</ele>
        <time>2015-06-06T11:56:30Z</time>
      </trkpt>
      <trkpt lat="45.38402" lon="5.90809">
        <ele>1790.364975584</ele>
        <time>2015-06-06T11:56:35Z</time>
      </trkpt>
      <trkpt lat="45.38402" lon="5.90809">
        <ele>1790.364975584</ele>
        <time>2015-06-06T11:56:41Z</time>
      </trkpt>
      <trkpt lat="45.38401" lon="5.90809">
        <ele>1790.364975584</ele>
        <time>2015-06-06T11:56:45Z</time>
      </trkpt>
      <trkpt lat="45.38401" lon="5.90809">
        <ele>1790.364975584</ele>
        <time>2015-06-06T11:56:50Z</time>
      </trkpt>
      <trkpt lat="45.38401" lon="5.90809">
        <ele>1790.364975584</ele>
        <time>2015-06-06T11:56:55Z</time>
      </trkpt>
      <trkpt lat="45.38401" lon="5.90809">
        <ele>1790.364975584</ele>
        <time>2015-06-06T11:57:01Z</time>
      </trkpt>
      <trkpt lat="45.38401" lon="5.90809">
        <ele>1790.364975584</ele>
        <time>2015-06-06T11:57:05Z</time>
      </trkpt>
      <trkpt lat="45.38401" lon="5.90809">
        <ele>1790.364975584</ele>
        <time>2015-06-06T11:57:10Z</time>
      </trkpt>
      <trkpt lat="45.38401" lon="5.90809">
        <ele>1790.364975584</ele>
        <time>2015-06-06T11:57:15Z</time>
      </trkpt>
      <trkpt lat="45.38401" lon="5.90809">
        <ele>1790.364975584</ele>
        <time>2015-06-06T11:57:20Z</time>
      </trkpt>
      <trkpt lat="45.38387" lon="5.90801">
        <ele>1790.583707024</ele>
        <time>2015-06-06T11:57:25Z</time>
      </trkpt>
      <trkpt lat="45.38378" lon="5.90803">
        <ele>1791.140961134</ele>
        <time>2015-06-06T11:57:30Z</time>
      </trkpt>
      <trkpt lat="45.3837" lon="5.90805">
        <ele>1791.140961134</ele>
        <time>2015-06-06T11:57:35Z</time>
      </trkpt>
      <trkpt lat="45.3836" lon="5.90803">
        <ele>1791.004210258</ele>
        <time>2015-06-06T11:57:40Z</time>
      </trkpt>
      <trkpt lat="45.38356" lon="5.90794">
        <ele>1791.004210258</ele>
        <time>2015-06-06T11:57:45Z</time>
      </trkpt>
      <trkpt lat="45.38352" lon="5.90798">
        <ele>1790.948081662</ele>
        <time>2015-06-06T11:57:50Z</time>
      </trkpt>
      <trkpt lat="45.38348" lon="5.90798">
        <ele>1790.948081662</ele>
        <time>2015-06-06T11:57:55Z</time>
      </trkpt>
      <trkpt lat="45.38344" lon="5.90785">
        <ele>1790.68130958</ele>
        <time>2015-06-06T11:58:00Z</time>
      </trkpt>
      <trkpt lat="45.3834" lon="5.90778">
        <ele>1790.68130958</ele>
        <time>2015-06-06T11:58:05Z</time>
      </trkpt>
      <trkpt lat="45.38333" lon="5.90772">
        <ele>1789.934619938</ele>
        <time>2015-06-06T11:58:10Z</time>
      </trkpt>
      <trkpt lat="45.38329" lon="5.90773">
        <ele>1789.934619938</ele>
        <time>2015-06-06T11:58:15Z</time>
      </trkpt>
      <trkpt lat="45.38321" lon="5.90777">
        <ele>1789.612748709</ele>
        <time>2015-06-06T11:58:20Z</time>
      </trkpt>
      <trkpt lat="45.3832" lon="5.9076">
        <ele>1789.543983514</ele>
        <time>2015-06-06T11:58:25Z</time>
      </trkpt>
      <trkpt lat="45.38316" lon="5.90749">
        <ele>1789.543983514</ele>
        <time>2015-06-06T11:58:30Z</time>
      </trkpt>
      <trkpt lat="45.38311" lon="5.90749">
        <ele>1789.424378061</ele>
        <time>2015-06-06T11:58:35Z</time>
      </trkpt>
      <trkpt lat="45.38304" lon="5.90762">
        <ele>1788.972421003</ele>
        <time>2015-06-06T11:58:41Z</time>
      </trkpt>
      <trkpt lat="45.38305" lon="5.90755">
        <ele>1788.972421003</ele>
        <time>2015-06-06T11:58:45Z</time>
      </trkpt>
      <trkpt lat="45.38306" lon="5.90752">
        <ele>1788.972421003</ele>
        <time>2015-06-06T11:58:51Z</time>
      </trkpt>
      <trkpt lat="45.38306" lon="5.90752">
        <ele>1788.972421003</ele>
        <time>2015-06-06T11:58:54Z</time>
      </trkpt>
      <trkpt lat="45.38306" lon="5.90753">
        <ele>1788.972421003</ele>
        <time>2015-06-06T11:59:00Z</time>
      </trkpt>
      <trkpt lat="45.38306" lon="5.90753">
        <ele>1788.972421003</ele>
        <time>2015-06-06T11:59:04Z</time>
      </trkpt>
      <trkpt lat="45.38306" lon="5.90754">
        <ele>1788.50461475</ele>
        <time>2015-06-06T11:59:09Z</time>
      </trkpt>
      <trkpt lat="45.38306" lon="5.90753">
        <ele>1788.50461475</ele>
        <time>2015-06-06T11:59:14Z</time>
      </trkpt>
      <trkpt lat="45.38306" lon="5.90753">
        <ele>1788.50461475</ele>
        <time>2015-06-06T11:59:19Z</time>
      </trkpt>
      <trkpt lat="45.38304" lon="5.90755">
        <ele>1788.50461475</ele>
        <time>2015-06-06T11:59:25Z</time>
      </trkpt>
      <trkpt lat="45.38303" lon="5.90756">
        <ele>1788.50461475</ele>
        <time>2015-06-06T11:59:30Z</time>
      </trkpt>
      <trkpt lat="45.38304" lon="5.90757">
        <ele>1788.50461475</ele>
        <time>2015-06-06T11:59:34Z</time>
      </trkpt>
      <trkpt lat="45.38304" lon="5.90756">
        <ele>1788.50461475</ele>
        <time>2015-06-06T11:59:40Z</time>
      </trkpt>
      <trkpt lat="45.38304" lon="5.90756">
        <ele>1788.50461475</ele>
        <time>2015-06-06T11:59:44Z</time>
      </trkpt>
      <trkpt lat="45.38304" lon="5.90756">
        <ele>1788.50461475</ele>
        <time>2015-06-06T11:59:50Z</time>
      </trkpt>
      <trkpt lat="45.38304" lon="5.90756">
        <ele>1788.50461475</ele>
        <time>2015-06-06T11:59:55Z</time>
      </trkpt>
      <trkpt lat="45.38304" lon="5.90756">
        <ele>1788.50461475</ele>
        <time>2015-06-06T11:59:59Z</time>
      </trkpt>
      <trkpt lat="45.38304" lon="5.90756">
        <ele>1788.50461475</ele>
        <time>2015-06-06T12:00:04Z</time>
      </trkpt>
      <trkpt lat="45.38304" lon="5.90756">
        <ele>1788.50461475</ele>
        <time>2015-06-06T12:00:10Z</time>
      </trkpt>
      <trkpt lat="45.38304" lon="5.90756">
        <ele>1788.50461475</ele>
        <time>2015-06-06T12:00:15Z</time>
      </trkpt>
      <trkpt lat="45.38304" lon="5.90756">
        <ele>1788.50461475</ele>
        <time>2015-06-06T12:00:20Z</time>
      </trkpt>
      <trkpt lat="45.38304" lon="5.90756">
        <ele>1788.50461475</ele>
        <time>2015-06-06T12:00:25Z</time>
      </trkpt>
      <trkpt lat="45.38304" lon="5.90756">
        <ele>1788.50461475</ele>
        <time>2015-06-06T12:00:30Z</time>
      </trkpt>
      <trkpt lat="45.38304" lon="5.90756">
        <ele>1788.50461475</ele>
        <time>2015-06-06T12:00:35Z</time>
      </trkpt>
      <trkpt lat="45.38304" lon="5.90756">
        <ele>1788.50461475</ele>
        <time>2015-06-06T12:00:40Z</time>
      </trkpt>
      <trkpt lat="45.38304" lon="5.90756">
        <ele>1788.50461475</ele>
        <time>2015-06-06T12:00:45Z</time>
      </trkpt>
      <trkpt lat="45.38304" lon="5.90756">
        <ele>1788.50461475</ele>
        <time>2015-06-06T12:00:50Z</time>
      </trkpt>
      <trkpt lat="45.38304" lon="5.90755">
        <ele>1788.50461475</ele>
        <time>2015-06-06T12:00:55Z</time>
      </trkpt>
      <trkpt lat="45.38304" lon="5.90755">
        <ele>1788.50461475</ele>
        <time>2015-06-06T12:01:00Z</time>
      </trkpt>
      <trkpt lat="45.38304" lon="5.90755">
        <ele>1788.50461475</ele>
        <time>2015-06-06T12:01:05Z</time>
      </trkpt>
      <trkpt lat="45.38304" lon="5.90755">
        <ele>1788.50461475</ele>
        <time>2015-06-06T12:01:10Z</time>
      </trkpt>
      <trkpt lat="45.38304" lon="5.90755">
        <ele>1788.50461475</ele>
        <time>2015-06-06T12:01:15Z</time>
      </trkpt>
      <trkpt lat="45.38304" lon="5.90755">
        <ele>1788.50461475</ele>
        <time>2015-06-06T12:01:20Z</time>
      </trkpt>
      <trkpt lat="45.38304" lon="5.90755">
        <ele>1788.50461475</ele>
        <time>2015-06-06T12:01:25Z</time>
      </trkpt>
      <trkpt lat="45.38304" lon="5.90755">
        <ele>1788.50461475</ele>
        <time>2015-06-06T12:01:30Z</time>
      </trkpt>
      <trkpt lat="45.38304" lon="5.90755">
        <ele>1788.50461475</ele>
        <time>2015-06-06T12:01:34Z</time>
      </trkpt>
      <trkpt lat="45.38305" lon="5.90743">
        <ele>1788.314206328</ele>
        <time>2015-06-06T12:01:39Z</time>
      </trkpt>
      <trkpt lat="45.38305" lon="5.9074">
        <ele>1788.314206328</ele>
        <time>2015-06-06T12:01:44Z</time>
      </trkpt>
      <trkpt lat="45.38305" lon="5.90739">
        <ele>1788.314206328</ele>
        <time>2015-06-06T12:01:49Z</time>
      </trkpt>
      <trkpt lat="45.38304" lon="5.90737">
        <ele>1788.314206328</ele>
        <time>2015-06-06T12:01:55Z</time>
      </trkpt>
      <trkpt lat="45.38304" lon="5.90738">
        <ele>1788.314206328</ele>
        <time>2015-06-06T12:01:59Z</time>
      </trkpt>
      <trkpt lat="45.38299" lon="5.90731">
        <ele>1790.257293117</ele>
        <time>2015-06-06T12:02:05Z</time>
      </trkpt>
      <trkpt lat="45.38294" lon="5.90725">
        <ele>1790.257293117</ele>
        <time>2015-06-06T12:02:10Z</time>
      </trkpt>
      <trkpt lat="45.38291" lon="5.90722">
        <ele>1792.300697233</ele>
        <time>2015-06-06T12:02:15Z</time>
      </trkpt>
      <trkpt lat="45.38285" lon="5.90715">
        <ele>1792.300697233</ele>
        <time>2015-06-06T12:02:20Z</time>
      </trkpt>
      <trkpt lat="45.38284" lon="5.90711">
        <ele>1794.289603357</ele>
        <time>2015-06-06T12:02:25Z</time>
      </trkpt>
      <trkpt lat="45.38281" lon="5.90708">
        <ele>1794.289603357</ele>
        <time>2015-06-06T12:02:29Z</time>
      </trkpt>
      <trkpt lat="45.38277" lon="5.90705">
        <ele>1794.289603357</ele>
        <time>2015-06-06T12:02:35Z</time>
      </trkpt>
      <trkpt lat="45.38271" lon="5.907">
        <ele>1796.224796833</ele>
        <time>2015-06-06T12:02:40Z</time>
      </trkpt>
      <trkpt lat="45.38265" lon="5.90699">
        <ele>1796.224796833</ele>
        <time>2015-06-06T12:02:45Z</time>
      </trkpt>
      <trkpt lat="45.38259" lon="5.90698">
        <ele>1798.539466485</ele>
        <time>2015-06-06T12:02:50Z</time>
      </trkpt>
      <trkpt lat="45.38255" lon="5.90694">
        <ele>1798.539466485</ele>
        <time>2015-06-06T12:02:55Z</time>
      </trkpt>
      <trkpt lat="45.38252" lon="5.90692">
        <ele>1798.539466485</ele>
        <time>2015-06-06T12:03:01Z</time>
      </trkpt>
      <trkpt lat="45.38252" lon="5.90693">
        <ele>1798.539466485</ele>
        <time>2015-06-06T12:03:05Z</time>
      </trkpt>
      <trkpt lat="45.38252" lon="5.90691">
        <ele>1800.336902905</ele>
        <time>2015-06-06T12:03:10Z</time>
      </trkpt>
      <trkpt lat="45.38252" lon="5.90691">
        <ele>1800.336902905</ele>
        <time>2015-06-06T12:03:15Z</time>
      </trkpt>
      <trkpt lat="45.38252" lon="5.90691">
        <ele>1800.336902905</ele>
        <time>2015-06-06T12:03:19Z</time>
      </trkpt>
      <trkpt lat="45.38252" lon="5.90691">
        <ele>1800.336902905</ele>
        <time>2015-06-06T12:03:24Z</time>
      </trkpt>
      <trkpt lat="45.38244" lon="5.90682">
        <ele>1802.372941993</ele>
        <time>2015-06-06T12:03:30Z</time>
      </trkpt>
      <trkpt lat="45.38242" lon="5.90679">
        <ele>1802.372941993</ele>
        <time>2015-06-06T12:03:35Z</time>
      </trkpt>
      <trkpt lat="45.38229" lon="5.90674">
        <ele>1803.617901558</ele>
        <time>2015-06-06T12:03:40Z</time>
      </trkpt>
      <trkpt lat="45.38224" lon="5.90671">
        <ele>1803.617901558</ele>
        <time>2015-06-06T12:03:45Z</time>
      </trkpt>
      <trkpt lat="45.38225" lon="5.90667">
        <ele>1803.617901558</ele>
        <time>2015-06-06T12:03:50Z</time>
      </trkpt>
      <trkpt lat="45.38218" lon="5.90663">
        <ele>1805.281642279</ele>
        <time>2015-06-06T12:03:55Z</time>
      </trkpt>
      <trkpt lat="45.38217" lon="5.90661">
        <ele>1805.281642279</ele>
        <time>2015-06-06T12:04:00Z</time>
      </trkpt>
      <trkpt lat="45.38216" lon="5.90653">
        <ele>1805.281642279</ele>
        <time>2015-06-06T12:04:06Z</time>
      </trkpt>
      <trkpt lat="45.38213" lon="5.90649">
        <ele>1806.178216486</ele>
        <time>2015-06-06T12:04:10Z</time>
      </trkpt>
      <trkpt lat="45.38208" lon="5.90645">
        <ele>1806.178216486</ele>
        <time>2015-06-06T12:04:15Z</time>
      </trkpt>
      <trkpt lat="45.38204" lon="5.90642">
        <ele>1806.94030489</ele>
        <time>2015-06-06T12:04:20Z</time>
      </trkpt>
      <trkpt lat="45.38199" lon="5.90639">
        <ele>1806.94030489</ele>
        <time>2015-06-06T12:04:25Z</time>
      </trkpt>
      <trkpt lat="45.3819" lon="5.90636">
        <ele>1807.001621965</ele>
        <time>2015-06-06T12:04:30Z</time>
      </trkpt>
      <trkpt lat="45.38184" lon="5.90632">
        <ele>1807.001621965</ele>
        <time>2015-06-06T12:04:35Z</time>
      </trkpt>
      <trkpt lat="45.38179" lon="5.90626">
        <ele>1806.704132419</ele>
        <time>2015-06-06T12:04:40Z</time>
      </trkpt>
      <trkpt lat="45.38175" lon="5.90629">
        <ele>1806.704132419</ele>
        <time>2015-06-06T12:04:46Z</time>
      </trkpt>
      <trkpt lat="45.38173" lon="5.90633">
        <ele>1806.704132419</ele>
        <time>2015-06-06T12:04:50Z</time>
      </trkpt>
      <trkpt lat="45.3817" lon="5.90626">
        <ele>1805.78925278</ele>
        <time>2015-06-06T12:04:55Z</time>
      </trkpt>
      <trkpt lat="45.38161" lon="5.90621">
        <ele>1805.172016774</ele>
        <time>2015-06-06T12:05:00Z</time>
      </trkpt>
      <trkpt lat="45.38159" lon="5.90621">
        <ele>1805.172016774</ele>
        <time>2015-06-06T12:05:06Z</time>
      </trkpt>
      <trkpt lat="45.38155" lon="5.90614">
        <ele>1805.172016774</ele>
        <time>2015-06-06T12:05:11Z</time>
      </trkpt>
      <trkpt lat="45.3815" lon="5.90608">
        <ele>1804.690616134</ele>
        <time>2015-06-06T12:05:14Z</time>
      </trkpt>
      <trkpt lat="45.38146" lon="5.90602">
        <ele>1804.690616134</ele>
        <time>2015-06-06T12:05:20Z</time>
      </trkpt>
      <trkpt lat="45.38142" lon="5.906">
        <ele>1804.338836755</ele>
        <time>2015-06-06T12:05:25Z</time>
      </trkpt>
      <trkpt lat="45.38135" lon="5.90601">
        <ele>1804.338836755</ele>
        <time>2015-06-06T12:05:30Z</time>
      </trkpt>
      <trkpt lat="45.3813" lon="5.90599">
        <ele>1803.534079487</ele>
        <time>2015-06-06T12:05:35Z</time>
      </trkpt>
      <trkpt lat="45.38127" lon="5.90596">
        <ele>1803.534079487</ele>
        <time>2015-06-06T12:05:40Z</time>
      </trkpt>
      <trkpt lat="45.38123" lon="5.90589">
        <ele>1801.737768685</ele>
        <time>2015-06-06T12:05:45Z</time>
      </trkpt>
      <trkpt lat="45.38115" lon="5.90589">
        <ele>1801.737768685</ele>
        <time>2015-06-06T12:05:50Z</time>
      </trkpt>
      <trkpt lat="45.3811" lon="5.90587">
        <ele>1800.038839953</ele>
        <time>2015-06-06T12:05:55Z</time>
      </trkpt>
      <trkpt lat="45.38106" lon="5.90581">
        <ele>1800.038839953</ele>
        <time>2015-06-06T12:06:00Z</time>
      </trkpt>
      <trkpt lat="45.38106" lon="5.90581">
        <ele>1800.038839953</ele>
        <time>2015-06-06T12:06:05Z</time>
      </trkpt>
      <trkpt lat="45.38093" lon="5.90575">
        <ele>1798.293003452</ele>
        <time>2015-06-06T12:06:10Z</time>
      </trkpt>
      <trkpt lat="45.38089" lon="5.90574">
        <ele>1798.293003452</ele>
        <time>2015-06-06T12:06:15Z</time>
      </trkpt>
      <trkpt lat="45.38087" lon="5.90569">
        <ele>1798.293003452</ele>
        <time>2015-06-06T12:06:20Z</time>
      </trkpt>
      <trkpt lat="45.38086" lon="5.90567">
        <ele>1796.654837706</ele>
        <time>2015-06-06T12:06:25Z</time>
      </trkpt>
      <trkpt lat="45.38087" lon="5.90568">
        <ele>1796.654837706</ele>
        <time>2015-06-06T12:06:30Z</time>
      </trkpt>
      <trkpt lat="45.38086" lon="5.90567">
        <ele>1796.654837706</ele>
        <time>2015-06-06T12:06:34Z</time>
      </trkpt>
      <trkpt lat="45.38086" lon="5.90567">
        <ele>1796.654837706</ele>
        <time>2015-06-06T12:06:40Z</time>
      </trkpt>
      <trkpt lat="45.38077" lon="5.90557">
        <ele>1795.411276376</ele>
        <time>2015-06-06T12:06:45Z</time>
      </trkpt>
      <trkpt lat="45.38068" lon="5.90548">
        <ele>1794.250513302</ele>
        <time>2015-06-06T12:06:50Z</time>
      </trkpt>
      <trkpt lat="45.38061" lon="5.90548">
        <ele>1794.250513302</ele>
        <time>2015-06-06T12:06:55Z</time>
      </trkpt>
      <trkpt lat="45.38054" lon="5.9056">
        <ele>1792.595072608</ele>
        <time>2015-06-06T12:07:00Z</time>
      </trkpt>
      <trkpt lat="45.38048" lon="5.90548">
        <ele>1791.208159498</ele>
        <time>2015-06-06T12:07:05Z</time>
      </trkpt>
      <trkpt lat="45.38042" lon="5.90548">
        <ele>1791.208159498</ele>
        <time>2015-06-06T12:07:10Z</time>
      </trkpt>
      <trkpt lat="45.38039" lon="5.90542">
        <ele>1789.787247882</ele>
        <time>2015-06-06T12:07:15Z</time>
      </trkpt>
      <trkpt lat="45.38032" lon="5.90539">
        <ele>1789.787247882</ele>
        <time>2015-06-06T12:07:20Z</time>
      </trkpt>
      <trkpt lat="45.38029" lon="5.90537">
        <ele>1788.484322514</ele>
        <time>2015-06-06T12:07:25Z</time>
      </trkpt>
      <trkpt lat="45.38025" lon="5.90532">
        <ele>1788.484322514</ele>
        <time>2015-06-06T12:07:29Z</time>
      </trkpt>
      <trkpt lat="45.38022" lon="5.90532">
        <ele>1788.484322514</ele>
        <time>2015-06-06T12:07:34Z</time>
      </trkpt>
      <trkpt lat="45.38016" lon="5.90531">
        <ele>1787.583837515</ele>
        <time>2015-06-06T12:07:40Z</time>
      </trkpt>
      <trkpt lat="45.38011" lon="5.90531">
        <ele>1787.583837515</ele>
        <time>2015-06-06T12:07:46Z</time>
      </trkpt>
      <trkpt lat="45.38004" lon="5.90526">
        <ele>1786.627517376</ele>
        <time>2015-06-06T12:07:50Z</time>
      </trkpt>
      <trkpt lat="45.38001" lon="5.90523">
        <ele>1786.627517376</ele>
        <time>2015-06-06T12:07:55Z</time>
      </trkpt>
      <trkpt lat="45.37996" lon="5.90516">
        <ele>1785.767202438</ele>
        <time>2015-06-06T12:08:00Z</time>
      </trkpt>
      <trkpt lat="45.37991" lon="5.90514">
        <ele>1785.767202438</ele>
        <time>2015-06-06T12:08:05Z</time>
      </trkpt>
      <trkpt lat="45.37983" lon="5.90508">
        <ele>1785.143160333</ele>
        <time>2015-06-06T12:08:10Z</time>
      </trkpt>
      <trkpt lat="45.37974" lon="5.90502">
        <ele>1784.596322559</ele>
        <time>2015-06-06T12:08:15Z</time>
      </trkpt>
      <trkpt lat="45.37971" lon="5.90503">
        <ele>1784.596322559</ele>
        <time>2015-06-06T12:08:21Z</time>
      </trkpt>
      <trkpt lat="45.37967" lon="5.90501">
        <ele>1784.596322559</ele>
        <time>2015-06-06T12:08:25Z</time>
      </trkpt>
      <trkpt lat="45.3797" lon="5.90491">
        <ele>1783.114276747</ele>
        <time>2015-06-06T12:08:30Z</time>
      </trkpt>
      <trkpt lat="45.37962" lon="5.90489">
        <ele>1783.114276747</ele>
        <time>2015-06-06T12:08:35Z</time>
      </trkpt>
      <trkpt lat="45.37955" lon="5.90487">
        <ele>1781.634906566</ele>
        <time>2015-06-06T12:08:40Z</time>
      </trkpt>
      <trkpt lat="45.37953" lon="5.90482">
        <ele>1781.634906566</ele>
        <time>2015-06-06T12:08:45Z</time>
      </trkpt>
      <trkpt lat="45.3795" lon="5.90473">
        <ele>1781.603495425</ele>
        <time>2015-06-06T12:08:51Z</time>
      </trkpt>
      <trkpt lat="45.37954" lon="5.90477">
        <ele>1781.603495425</ele>
        <time>2015-06-06T12:08:55Z</time>
      </trkpt>
      <trkpt lat="45.37954" lon="5.90476">
        <ele>1781.603495425</ele>
        <time>2015-06-06T12:09:00Z</time>
      </trkpt>
      <trkpt lat="45.37954" lon="5.90476">
        <ele>1781.603495425</ele>
        <time>2015-06-06T12:09:05Z</time>
      </trkpt>
      <trkpt lat="45.37953" lon="5.90469">
        <ele>1782.049179474</ele>
        <time>2015-06-06T12:09:10Z</time>
      </trkpt>
      <trkpt lat="45.37952" lon="5.90462">
        <ele>1782.049179474</ele>
        <time>2015-06-06T12:09:15Z</time>
      </trkpt>
      <trkpt lat="45.37945" lon="5.90452">
        <ele>1782.503278671</ele>
        <time>2015-06-06T12:09:20Z</time>
      </trkpt>
      <trkpt lat="45.37941" lon="5.90448">
        <ele>1782.503278671</ele>
        <time>2015-06-06T12:09:25Z</time>
      </trkpt>
      <trkpt lat="45.37939" lon="5.90444">
        <ele>1782.819620367</ele>
        <time>2015-06-06T12:09:30Z</time>
      </trkpt>
      <trkpt lat="45.37931" lon="5.90445">
        <ele>1782.819620367</ele>
        <time>2015-06-06T12:09:35Z</time>
      </trkpt>
      <trkpt lat="45.37924" lon="5.90446">
        <ele>1783.295382037</ele>
        <time>2015-06-06T12:09:40Z</time>
      </trkpt>
      <trkpt lat="45.37921" lon="5.90442">
        <ele>1783.295382037</ele>
        <time>2015-06-06T12:09:45Z</time>
      </trkpt>
      <trkpt lat="45.37921" lon="5.90444">
        <ele>1783.295382037</ele>
        <time>2015-06-06T12:09:50Z</time>
      </trkpt>
      <trkpt lat="45.37919" lon="5.90436">
        <ele>1784.205369299</ele>
        <time>2015-06-06T12:09:54Z</time>
      </trkpt>
      <trkpt lat="45.3791" lon="5.90432">
        <ele>1784.650011611</ele>
        <time>2015-06-06T12:10:00Z</time>
      </trkpt>
      <trkpt lat="45.37903" lon="5.90429">
        <ele>1784.650011611</ele>
        <time>2015-06-06T12:10:05Z</time>
      </trkpt>
      <trkpt lat="45.37899" lon="5.90424">
        <ele>1785.238168283</ele>
        <time>2015-06-06T12:10:10Z</time>
      </trkpt>
      <trkpt lat="45.37894" lon="5.90416">
        <ele>1785.238168283</ele>
        <time>2015-06-06T12:10:15Z</time>
      </trkpt>
      <trkpt lat="45.37891" lon="5.9042">
        <ele>1786.245290845</ele>
        <time>2015-06-06T12:10:20Z</time>
      </trkpt>
      <trkpt lat="45.37889" lon="5.90414">
        <ele>1786.245290845</ele>
        <time>2015-06-06T12:10:25Z</time>
      </trkpt>
      <trkpt lat="45.37886" lon="5.90415">
        <ele>1786.245290845</ele>
        <time>2015-06-06T12:10:30Z</time>
      </trkpt>
      <trkpt lat="45.37885" lon="5.90414">
        <ele>1786.245290845</ele>
        <time>2015-06-06T12:10:35Z</time>
      </trkpt>
      <trkpt lat="45.37884" lon="5.90416">
        <ele>1786.628375496</ele>
        <time>2015-06-06T12:10:40Z</time>
      </trkpt>
      <trkpt lat="45.37884" lon="5.90416">
        <ele>1786.628375496</ele>
        <time>2015-06-06T12:10:45Z</time>
      </trkpt>
      <trkpt lat="45.37884" lon="5.90416">
        <ele>1786.628375496</ele>
        <time>2015-06-06T12:10:50Z</time>
      </trkpt>
      <trkpt lat="45.37884" lon="5.90416">
        <ele>1786.628375496</ele>
        <time>2015-06-06T12:10:55Z</time>
      </trkpt>
      <trkpt lat="45.37884" lon="5.90416">
        <ele>1786.628375496</ele>
        <time>2015-06-06T12:11:00Z</time>
      </trkpt>
      <trkpt lat="45.37884" lon="5.90416">
        <ele>1786.628375496</ele>
        <time>2015-06-06T12:11:05Z</time>
      </trkpt>
      <trkpt lat="45.37874" lon="5.90412">
        <ele>1787.152087083</ele>
        <time>2015-06-06T12:11:10Z</time>
      </trkpt>
      <trkpt lat="45.37867" lon="5.9041">
        <ele>1787.152087083</ele>
        <time>2015-06-06T12:11:15Z</time>
      </trkpt>
      <trkpt lat="45.37862" lon="5.90409">
        <ele>1788.812723845</ele>
        <time>2015-06-06T12:11:20Z</time>
      </trkpt>
      <trkpt lat="45.37862" lon="5.90408">
        <ele>1788.812723845</ele>
        <time>2015-06-06T12:11:25Z</time>
      </trkpt>
      <trkpt lat="45.37861" lon="5.90408">
        <ele>1788.812723845</ele>
        <time>2015-06-06T12:11:30Z</time>
      </trkpt>
      <trkpt lat="45.37861" lon="5.90408">
        <ele>1788.812723845</ele>
        <time>2015-06-06T12:11:35Z</time>
      </trkpt>
      <trkpt lat="45.37861" lon="5.90408">
        <ele>1788.812723845</ele>
        <time>2015-06-06T12:11:40Z</time>
      </trkpt>
      <trkpt lat="45.37861" lon="5.90408">
        <ele>1788.812723845</ele>
        <time>2015-06-06T12:11:45Z</time>
      </trkpt>
      <trkpt lat="45.37861" lon="5.90408">
        <ele>1788.812723845</ele>
        <time>2015-06-06T12:11:50Z</time>
      </trkpt>
      <trkpt lat="45.37856" lon="5.90407">
        <ele>1788.812723845</ele>
        <time>2015-06-06T12:11:55Z</time>
      </trkpt>
      <trkpt lat="45.37843" lon="5.90401">
        <ele>1790.368528945</ele>
        <time>2015-06-06T12:12:00Z</time>
      </trkpt>
      <trkpt lat="45.37842" lon="5.90398">
        <ele>1790.368528945</ele>
        <time>2015-06-06T12:12:05Z</time>
      </trkpt>
      <trkpt lat="45.37833" lon="5.90397">
        <ele>1792.398595174</ele>
        <time>2015-06-06T12:12:10Z</time>
      </trkpt>
      <trkpt lat="45.37829" lon="5.90396">
        <ele>1792.398595174</ele>
        <time>2015-06-06T12:12:15Z</time>
      </trkpt>
      <trkpt lat="45.37823" lon="5.90392">
        <ele>1794.285273645</ele>
        <time>2015-06-06T12:12:20Z</time>
      </trkpt>
      <trkpt lat="45.37818" lon="5.90392">
        <ele>1794.285273645</ele>
        <time>2015-06-06T12:12:25Z</time>
      </trkpt>
      <trkpt lat="45.37812" lon="5.90388">
        <ele>1795.744945352</ele>
        <time>2015-06-06T12:12:30Z</time>
      </trkpt>
      <trkpt lat="45.37805" lon="5.90387">
        <ele>1795.744945352</ele>
        <time>2015-06-06T12:12:35Z</time>
      </trkpt>
      <trkpt lat="45.37802" lon="5.90379">
        <ele>1797.66896091</ele>
        <time>2015-06-06T12:12:40Z</time>
      </trkpt>
      <trkpt lat="45.37794" lon="5.90383">
        <ele>1797.66896091</ele>
        <time>2015-06-06T12:12:45Z</time>
      </trkpt>
      <trkpt lat="45.37792" lon="5.90383">
        <ele>1799.873174038</ele>
        <time>2015-06-06T12:12:50Z</time>
      </trkpt>
      <trkpt lat="45.37789" lon="5.90386">
        <ele>1799.873174038</ele>
        <time>2015-06-06T12:12:54Z</time>
      </trkpt>
      <trkpt lat="45.37787" lon="5.90386">
        <ele>1799.873174038</ele>
        <time>2015-06-06T12:13:00Z</time>
      </trkpt>
      <trkpt lat="45.37778" lon="5.90386">
        <ele>1801.465697875</ele>
        <time>2015-06-06T12:13:05Z</time>
      </trkpt>
      <trkpt lat="45.37774" lon="5.90383">
        <ele>1801.465697875</ele>
        <time>2015-06-06T12:13:10Z</time>
      </trkpt>
      <trkpt lat="45.37765" lon="5.9038">
        <ele>1803.207187103</ele>
        <time>2015-06-06T12:13:15Z</time>
      </trkpt>
      <trkpt lat="45.37763" lon="5.90383">
        <ele>1803.207187103</ele>
        <time>2015-06-06T12:13:20Z</time>
      </trkpt>
      <trkpt lat="45.37759" lon="5.90379">
        <ele>1803.207187103</ele>
        <time>2015-06-06T12:13:25Z</time>
      </trkpt>
      <trkpt lat="45.37752" lon="5.90377">
        <ele>1805.802098265</ele>
        <time>2015-06-06T12:13:30Z</time>
      </trkpt>
      <trkpt lat="45.37749" lon="5.90372">
        <ele>1805.802098265</ele>
        <time>2015-06-06T12:13:35Z</time>
      </trkpt>
      <trkpt lat="45.37746" lon="5.90372">
        <ele>1805.802098265</ele>
        <time>2015-06-06T12:13:40Z</time>
      </trkpt>
      <trkpt lat="45.37742" lon="5.90372">
        <ele>1808.027407205</ele>
        <time>2015-06-06T12:13:45Z</time>
      </trkpt>
      <trkpt lat="45.37739" lon="5.90377">
        <ele>1808.027407205</ele>
        <time>2015-06-06T12:13:50Z</time>
      </trkpt>
      <trkpt lat="45.37736" lon="5.90374">
        <ele>1808.027407205</ele>
        <time>2015-06-06T12:13:55Z</time>
      </trkpt>
      <trkpt lat="45.37727" lon="5.90377">
        <ele>1809.7598642</ele>
        <time>2015-06-06T12:14:00Z</time>
      </trkpt>
      <trkpt lat="45.37724" lon="5.9037">
        <ele>1809.7598642</ele>
        <time>2015-06-06T12:14:05Z</time>
      </trkpt>
      <trkpt lat="45.37726" lon="5.90364">
        <ele>1811.751448907</ele>
        <time>2015-06-06T12:14:10Z</time>
      </trkpt>
      <trkpt lat="45.37717" lon="5.90368">
        <ele>1813.545418143</ele>
        <time>2015-06-06T12:14:14Z</time>
      </trkpt>
      <trkpt lat="45.37714" lon="5.90364">
        <ele>1813.545418143</ele>
        <time>2015-06-06T12:14:19Z</time>
      </trkpt>
      <trkpt lat="45.37709" lon="5.90366">
        <ele>1815.295718455</ele>
        <time>2015-06-06T12:14:25Z</time>
      </trkpt>
      <trkpt lat="45.37697" lon="5.90362">
        <ele>1816.857029798</ele>
        <time>2015-06-06T12:14:30Z</time>
      </trkpt>
      <trkpt lat="45.37696" lon="5.90364">
        <ele>1816.857029798</ele>
        <time>2015-06-06T12:14:35Z</time>
      </trkpt>
      <trkpt lat="45.3769" lon="5.90364">
        <ele>1816.857029798</ele>
        <time>2015-06-06T12:14:40Z</time>
      </trkpt>
      <trkpt lat="45.37687" lon="5.90361">
        <ele>1819.104161201</ele>
        <time>2015-06-06T12:14:45Z</time>
      </trkpt>
      <trkpt lat="45.37683" lon="5.90362">
        <ele>1819.104161201</ele>
        <time>2015-06-06T12:14:50Z</time>
      </trkpt>
      <trkpt lat="45.37677" lon="5.90367">
        <ele>1821.692994707</ele>
        <time>2015-06-06T12:14:55Z</time>
      </trkpt>
      <trkpt lat="45.37673" lon="5.90365">
        <ele>1821.692994707</ele>
        <time>2015-06-06T12:15:00Z</time>
      </trkpt>
      <trkpt lat="45.37675" lon="5.90365">
        <ele>1821.692994707</ele>
        <time>2015-06-06T12:15:04Z</time>
      </trkpt>
      <trkpt lat="45.37675" lon="5.90364">
        <ele>1821.692994707</ele>
        <time>2015-06-06T12:15:10Z</time>
      </trkpt>
      <trkpt lat="45.37675" lon="5.90365">
        <ele>1821.692994707</ele>
        <time>2015-06-06T12:15:15Z</time>
      </trkpt>
      <trkpt lat="45.37675" lon="5.90365">
        <ele>1821.692994707</ele>
        <time>2015-06-06T12:15:20Z</time>
      </trkpt>
      <trkpt lat="45.37675" lon="5.90365">
        <ele>1821.692994707</ele>
        <time>2015-06-06T12:15:25Z</time>
      </trkpt>
      <trkpt lat="45.37662" lon="5.90368">
        <ele>1823.295106162</ele>
        <time>2015-06-06T12:15:30Z</time>
      </trkpt>
      <trkpt lat="45.37642" lon="5.90358">
        <ele>1824.988357812</ele>
        <time>2015-06-06T12:15:35Z</time>
      </trkpt>
      <trkpt lat="45.37636" lon="5.90361">
        <ele>1824.988357812</ele>
        <time>2015-06-06T12:15:39Z</time>
      </trkpt>
      <trkpt lat="45.37633" lon="5.90369">
        <ele>1826.762555151</ele>
        <time>2015-06-06T12:15:45Z</time>
      </trkpt>
      <trkpt lat="45.37631" lon="5.90371">
        <ele>1826.762555151</ele>
        <time>2015-06-06T12:15:50Z</time>
      </trkpt>
      <trkpt lat="45.37624" lon="5.90376">
        <ele>1829.040516027</ele>
        <time>2015-06-06T12:15:55Z</time>
      </trkpt>
      <trkpt lat="45.3762" lon="5.90377">
        <ele>1829.040516027</ele>
        <time>2015-06-06T12:16:00Z</time>
      </trkpt>
      <trkpt lat="45.37615" lon="5.9038">
        <ele>1830.77162955</ele>
        <time>2015-06-06T12:16:05Z</time>
      </trkpt>
      <trkpt lat="45.37609" lon="5.90382">
        <ele>1830.77162955</ele>
        <time>2015-06-06T12:16:10Z</time>
      </trkpt>
      <trkpt lat="45.37606" lon="5.90382">
        <ele>1830.77162955</ele>
        <time>2015-06-06T12:16:15Z</time>
      </trkpt>
      <trkpt lat="45.37599" lon="5.90383">
        <ele>1832.713485825</ele>
        <time>2015-06-06T12:16:20Z</time>
      </trkpt>
      <trkpt lat="45.37593" lon="5.90383">
        <ele>1832.713485825</ele>
        <time>2015-06-06T12:16:25Z</time>
      </trkpt>
      <trkpt lat="45.37589" lon="5.90383">
        <ele>1834.126474142</ele>
        <time>2015-06-06T12:16:30Z</time>
      </trkpt>
      <trkpt lat="45.37587" lon="5.9038">
        <ele>1834.126474142</ele>
        <time>2015-06-06T12:16:35Z</time>
      </trkpt>
      <trkpt lat="45.37576" lon="5.90379">
        <ele>1835.479839657</ele>
        <time>2015-06-06T12:16:40Z</time>
      </trkpt>
      <trkpt lat="45.37571" lon="5.90375">
        <ele>1835.479839657</ele>
        <time>2015-06-06T12:16:45Z</time>
      </trkpt>
      <trkpt lat="45.37566" lon="5.90376">
        <ele>1836.344003609</ele>
        <time>2015-06-06T12:16:50Z</time>
      </trkpt>
      <trkpt lat="45.37559" lon="5.9038">
        <ele>1836.344003609</ele>
        <time>2015-06-06T12:16:55Z</time>
      </trkpt>
      <trkpt lat="45.37557" lon="5.90382">
        <ele>1837.907679714</ele>
        <time>2015-06-06T12:17:00Z</time>
      </trkpt>
      <trkpt lat="45.37553" lon="5.90376">
        <ele>1837.907679714</ele>
        <time>2015-06-06T12:17:05Z</time>
      </trkpt>
      <trkpt lat="45.37546" lon="5.90374">
        <ele>1839.396986019</ele>
        <time>2015-06-06T12:17:10Z</time>
      </trkpt>
      <trkpt lat="45.37541" lon="5.9038">
        <ele>1839.396986019</ele>
        <time>2015-06-06T12:17:15Z</time>
      </trkpt>
      <trkpt lat="45.37545" lon="5.90376">
        <ele>1841.680450112</ele>
        <time>2015-06-06T12:17:20Z</time>
      </trkpt>
      <trkpt lat="45.37548" lon="5.90377">
        <ele>1841.680450112</ele>
        <time>2015-06-06T12:17:25Z</time>
      </trkpt>
      <trkpt lat="45.37543" lon="5.9039">
        <ele>1844.407807559</ele>
        <time>2015-06-06T12:17:30Z</time>
      </trkpt>
      <trkpt lat="45.37545" lon="5.90379">
        <ele>1844.407807559</ele>
        <time>2015-06-06T12:17:35Z</time>
      </trkpt>
      <trkpt lat="45.37541" lon="5.90392">
        <ele>1846.388737636</ele>
        <time>2015-06-06T12:17:40Z</time>
      </trkpt>
      <trkpt lat="45.3754" lon="5.90393">
        <ele>1846.388737636</ele>
        <time>2015-06-06T12:17:45Z</time>
      </trkpt>
      <trkpt lat="45.37541" lon="5.90393">
        <ele>1846.388737636</ele>
        <time>2015-06-06T12:17:50Z</time>
      </trkpt>
      <trkpt lat="45.37541" lon="5.90392">
        <ele>1846.388737636</ele>
        <time>2015-06-06T12:17:55Z</time>
      </trkpt>
      <trkpt lat="45.37539" lon="5.90389">
        <ele>1846.388737636</ele>
        <time>2015-06-06T12:17:59Z</time>
      </trkpt>
      <trkpt lat="45.37539" lon="5.90388">
        <ele>1846.388737636</ele>
        <time>2015-06-06T12:18:04Z</time>
      </trkpt>
      <trkpt lat="45.37537" lon="5.90385">
        <ele>1848.251913504</ele>
        <time>2015-06-06T12:18:10Z</time>
      </trkpt>
      <trkpt lat="45.37539" lon="5.90388">
        <ele>1848.251913504</ele>
        <time>2015-06-06T12:18:15Z</time>
      </trkpt>
      <trkpt lat="45.37532" lon="5.9038">
        <ele>1849.571503099</ele>
        <time>2015-06-06T12:18:20Z</time>
      </trkpt>
      <trkpt lat="45.37527" lon="5.90382">
        <ele>1849.571503099</ele>
        <time>2015-06-06T12:18:25Z</time>
      </trkpt>
      <trkpt lat="45.37526" lon="5.90386">
        <ele>1849.571503099</ele>
        <time>2015-06-06T12:18:30Z</time>
      </trkpt>
      <trkpt lat="45.37518" lon="5.90386">
        <ele>1849.666377488</ele>
        <time>2015-06-06T12:18:35Z</time>
      </trkpt>
      <trkpt lat="45.37514" lon="5.90385">
        <ele>1849.666377488</ele>
        <time>2015-06-06T12:18:39Z</time>
      </trkpt>
      <trkpt lat="45.37514" lon="5.90389">
        <ele>1849.666377488</ele>
        <time>2015-06-06T12:18:44Z</time>
      </trkpt>
      <trkpt lat="45.37509" lon="5.90383">
        <ele>1849.350099531</ele>
        <time>2015-06-06T12:18:51Z</time>
      </trkpt>
      <trkpt lat="45.375" lon="5.90387">
        <ele>1849.377717405</ele>
        <time>2015-06-06T12:18:55Z</time>
      </trkpt>
      <trkpt lat="45.37496" lon="5.90389">
        <ele>1849.377717405</ele>
        <time>2015-06-06T12:19:00Z</time>
      </trkpt>
      <trkpt lat="45.37498" lon="5.90401">
        <ele>1849.295039218</ele>
        <time>2015-06-06T12:19:06Z</time>
      </trkpt>
      <trkpt lat="45.37493" lon="5.90405">
        <ele>1849.295039218</ele>
        <time>2015-06-06T12:19:10Z</time>
      </trkpt>
      <trkpt lat="45.37484" lon="5.90398">
        <ele>1849.546276842</ele>
        <time>2015-06-06T12:19:15Z</time>
      </trkpt>
      <trkpt lat="45.37478" lon="5.90393">
        <ele>1849.546276842</ele>
        <time>2015-06-06T12:19:20Z</time>
      </trkpt>
      <trkpt lat="45.37473" lon="5.90395">
        <ele>1849.677454069</ele>
        <time>2015-06-06T12:19:26Z</time>
      </trkpt>
      <trkpt lat="45.37466" lon="5.90395">
        <ele>1849.677454069</ele>
        <time>2015-06-06T12:19:30Z</time>
      </trkpt>
      <trkpt lat="45.37465" lon="5.9039">
        <ele>1849.988869993</ele>
        <time>2015-06-06T12:19:35Z</time>
      </trkpt>
      <trkpt lat="45.37461" lon="5.90395">
        <ele>1849.988869993</ele>
        <time>2015-06-06T12:19:40Z</time>
      </trkpt>
      <trkpt lat="45.37457" lon="5.90402">
        <ele>1850.037723904</ele>
        <time>2015-06-06T12:19:45Z</time>
      </trkpt>
      <trkpt lat="45.37452" lon="5.90397">
        <ele>1850.037723904</ele>
        <time>2015-06-06T12:19:50Z</time>
      </trkpt>
      <trkpt lat="45.3745" lon="5.90408">
        <ele>1849.270377119</ele>
        <time>2015-06-06T12:19:55Z</time>
      </trkpt>
      <trkpt lat="45.37439" lon="5.90405">
        <ele>1848.617258033</ele>
        <time>2015-06-06T12:19:59Z</time>
      </trkpt>
      <trkpt lat="45.37433" lon="5.90405">
        <ele>1848.617258033</ele>
        <time>2015-06-06T12:20:06Z</time>
      </trkpt>
      <trkpt lat="45.37426" lon="5.90401">
        <ele>1847.931329616</ele>
        <time>2015-06-06T12:20:10Z</time>
      </trkpt>
      <trkpt lat="45.37422" lon="5.90402">
        <ele>1847.931329616</ele>
        <time>2015-06-06T12:20:15Z</time>
      </trkpt>
      <trkpt lat="45.37417" lon="5.90405">
        <ele>1847.931329616</ele>
        <time>2015-06-06T12:20:20Z</time>
      </trkpt>
      <trkpt lat="45.37405" lon="5.90402">
        <ele>1847.364638038</ele>
        <time>2015-06-06T12:20:25Z</time>
      </trkpt>
      <trkpt lat="45.3741" lon="5.90393">
        <ele>1847.364638038</ele>
        <time>2015-06-06T12:20:30Z</time>
      </trkpt>
      <trkpt lat="45.37403" lon="5.90392">
        <ele>1847.201791277</ele>
        <time>2015-06-06T12:20:35Z</time>
      </trkpt>
      <trkpt lat="45.37402" lon="5.90389">
        <ele>1847.201791277</ele>
        <time>2015-06-06T12:20:40Z</time>
      </trkpt>
      <trkpt lat="45.37392" lon="5.90388">
        <ele>1846.984744498</ele>
        <time>2015-06-06T12:20:46Z</time>
      </trkpt>
      <trkpt lat="45.37387" lon="5.90386">
        <ele>1846.984744498</ele>
        <time>2015-06-06T12:20:50Z</time>
      </trkpt>
      <trkpt lat="45.37383" lon="5.90383">
        <ele>1846.14507412</ele>
        <time>2015-06-06T12:20:55Z</time>
      </trkpt>
      <trkpt lat="45.37378" lon="5.90379">
        <ele>1846.14507412</ele>
        <time>2015-06-06T12:21:00Z</time>
      </trkpt>
      <trkpt lat="45.37374" lon="5.90382">
        <ele>1845.166560488</ele>
        <time>2015-06-06T12:21:05Z</time>
      </trkpt>
      <trkpt lat="45.37368" lon="5.9038">
        <ele>1845.166560488</ele>
        <time>2015-06-06T12:21:10Z</time>
      </trkpt>
      <trkpt lat="45.37361" lon="5.90371">
        <ele>1843.3448578</ele>
        <time>2015-06-06T12:21:15Z</time>
      </trkpt>
      <trkpt lat="45.37358" lon="5.90368">
        <ele>1843.3448578</ele>
        <time>2015-06-06T12:21:20Z</time>
      </trkpt>
      <trkpt lat="45.37357" lon="5.9037">
        <ele>1843.3448578</ele>
        <time>2015-06-06T12:21:26Z</time>
      </trkpt>
      <trkpt lat="45.37353" lon="5.90376">
        <ele>1841.03840295</ele>
        <time>2015-06-06T12:21:30Z</time>
      </trkpt>
      <trkpt lat="45.37346" lon="5.90375">
        <ele>1841.03840295</ele>
        <time>2015-06-06T12:21:35Z</time>
      </trkpt>
      <trkpt lat="45.37339" lon="5.90376">
        <ele>1839.156990092</ele>
        <time>2015-06-06T12:21:40Z</time>
      </trkpt>
      <trkpt lat="45.37334" lon="5.90373">
        <ele>1839.156990092</ele>
        <time>2015-06-06T12:21:45Z</time>
      </trkpt>
      <trkpt lat="45.3733" lon="5.90377">
        <ele>1837.67758923</ele>
        <time>2015-06-06T12:21:50Z</time>
      </trkpt>
      <trkpt lat="45.37321" lon="5.90374">
        <ele>1836.577588925</ele>
        <time>2015-06-06T12:21:55Z</time>
      </trkpt>
      <trkpt lat="45.3732" lon="5.9037">
        <ele>1836.577588925</ele>
        <time>2015-06-06T12:22:00Z</time>
      </trkpt>
      <trkpt lat="45.37321" lon="5.90368">
        <ele>1836.577588925</ele>
        <time>2015-06-06T12:22:05Z</time>
      </trkpt>
      <trkpt lat="45.37321" lon="5.90368">
        <ele>1836.577588925</ele>
        <time>2015-06-06T12:22:10Z</time>
      </trkpt>
      <trkpt lat="45.37323" lon="5.90374">
        <ele>1836.123041832</ele>
        <time>2015-06-06T12:22:15Z</time>
      </trkpt>
      <trkpt lat="45.37322" lon="5.90377">
        <ele>1836.123041832</ele>
        <time>2015-06-06T12:22:20Z</time>
      </trkpt>
      <trkpt lat="45.37323" lon="5.90378">
        <ele>1836.123041832</ele>
        <time>2015-06-06T12:22:25Z</time>
      </trkpt>
      <trkpt lat="45.37323" lon="5.90379">
        <ele>1836.123041832</ele>
        <time>2015-06-06T12:22:31Z</time>
      </trkpt>
      <trkpt lat="45.37317" lon="5.90385">
        <ele>1836.270264358</ele>
        <time>2015-06-06T12:22:35Z</time>
      </trkpt>
      <trkpt lat="45.37312" lon="5.9039">
        <ele>1836.270264358</ele>
        <time>2015-06-06T12:22:40Z</time>
      </trkpt>
      <trkpt lat="45.37306" lon="5.90395">
        <ele>1837.121046998</ele>
        <time>2015-06-06T12:22:46Z</time>
      </trkpt>
      <trkpt lat="45.373" lon="5.90392">
        <ele>1837.121046998</ele>
        <time>2015-06-06T12:22:49Z</time>
      </trkpt>
      <trkpt lat="45.37292" lon="5.90394">
        <ele>1838.335243912</ele>
        <time>2015-06-06T12:22:54Z</time>
      </trkpt>
      <trkpt lat="45.37284" lon="5.90397">
        <ele>1838.335243912</ele>
        <time>2015-06-06T12:23:00Z</time>
      </trkpt>
      <trkpt lat="45.37278" lon="5.90395">
        <ele>1839.740646759</ele>
        <time>2015-06-06T12:23:05Z</time>
      </trkpt>
      <trkpt lat="45.37271" lon="5.90395">
        <ele>1839.740646759</ele>
        <time>2015-06-06T12:23:10Z</time>
      </trkpt>
      <trkpt lat="45.37269" lon="5.90391">
        <ele>1839.447696493</ele>
        <time>2015-06-06T12:23:15Z</time>
      </trkpt>
      <trkpt lat="45.3726" lon="5.90393">
        <ele>1839.313063003</ele>
        <time>2015-06-06T12:23:20Z</time>
      </trkpt>
      <trkpt lat="45.37256" lon="5.9039">
        <ele>1839.313063003</ele>
        <time>2015-06-06T12:23:25Z</time>
      </trkpt>
      <trkpt lat="45.37255" lon="5.90387">
        <ele>1839.313063003</ele>
        <time>2015-06-06T12:23:30Z</time>
      </trkpt>
      <trkpt lat="45.37246" lon="5.90392">
        <ele>1838.606578152</ele>
        <time>2015-06-06T12:23:34Z</time>
      </trkpt>
      <trkpt lat="45.37241" lon="5.90388">
        <ele>1838.606578152</ele>
        <time>2015-06-06T12:23:40Z</time>
      </trkpt>
      <trkpt lat="45.37233" lon="5.90378">
        <ele>1839.823653173</ele>
        <time>2015-06-06T12:23:45Z</time>
      </trkpt>
      <trkpt lat="45.37233" lon="5.90372">
        <ele>1839.823653173</ele>
        <time>2015-06-06T12:23:50Z</time>
      </trkpt>
      <trkpt lat="45.37224" lon="5.90373">
        <ele>1840.659330732</ele>
        <time>2015-06-06T12:23:54Z</time>
      </trkpt>
      <trkpt lat="45.37218" lon="5.9037">
        <ele>1840.659330732</ele>
        <time>2015-06-06T12:23:59Z</time>
      </trkpt>
      <trkpt lat="45.37212" lon="5.90366">
        <ele>1842.29350588</ele>
        <time>2015-06-06T12:24:05Z</time>
      </trkpt>
      <trkpt lat="45.37208" lon="5.90363">
        <ele>1842.29350588</ele>
        <time>2015-06-06T12:24:10Z</time>
      </trkpt>
      <trkpt lat="45.37201" lon="5.90359">
        <ele>1843.511296122</ele>
        <time>2015-06-06T12:24:15Z</time>
      </trkpt>
      <trkpt lat="45.37199" lon="5.90356">
        <ele>1843.511296122</ele>
        <time>2015-06-06T12:24:20Z</time>
      </trkpt>
      <trkpt lat="45.37188" lon="5.90356">
        <ele>1844.629271718</ele>
        <time>2015-06-06T12:24:25Z</time>
      </trkpt>
      <trkpt lat="45.37182" lon="5.90358">
        <ele>1844.629271718</ele>
        <time>2015-06-06T12:24:30Z</time>
      </trkpt>
      <trkpt lat="45.37176" lon="5.90354">
        <ele>1845.940968898</ele>
        <time>2015-06-06T12:24:35Z</time>
      </trkpt>
      <trkpt lat="45.37172" lon="5.90351">
        <ele>1845.940968898</ele>
        <time>2015-06-06T12:24:40Z</time>
      </trkpt>
      <trkpt lat="45.37168" lon="5.90345">
        <ele>1846.853102888</ele>
        <time>2015-06-06T12:24:44Z</time>
      </trkpt>
      <trkpt lat="45.37165" lon="5.90335">
        <ele>1846.853102888</ele>
        <time>2015-06-06T12:24:49Z</time>
      </trkpt>
      <trkpt lat="45.37161" lon="5.90337">
        <ele>1847.681721223</ele>
        <time>2015-06-06T12:24:55Z</time>
      </trkpt>
      <trkpt lat="45.37151" lon="5.90332">
        <ele>1847.85519132</ele>
        <time>2015-06-06T12:25:00Z</time>
      </trkpt>
      <trkpt lat="45.37149" lon="5.90328">
        <ele>1847.85519132</ele>
        <time>2015-06-06T12:25:06Z</time>
      </trkpt>
      <trkpt lat="45.37141" lon="5.90322">
        <ele>1848.719131051</ele>
        <time>2015-06-06T12:25:10Z</time>
      </trkpt>
      <trkpt lat="45.37136" lon="5.90318">
        <ele>1848.719131051</ele>
        <time>2015-06-06T12:25:16Z</time>
      </trkpt>
      <trkpt lat="45.37129" lon="5.90317">
        <ele>1850.07724264</ele>
        <time>2015-06-06T12:25:20Z</time>
      </trkpt>
      <trkpt lat="45.37127" lon="5.90311">
        <ele>1850.07724264</ele>
        <time>2015-06-06T12:25:25Z</time>
      </trkpt>
      <trkpt lat="45.3712" lon="5.90306">
        <ele>1850.593358375</ele>
        <time>2015-06-06T12:25:30Z</time>
      </trkpt>
      <trkpt lat="45.37112" lon="5.90296">
        <ele>1850.761150428</ele>
        <time>2015-06-06T12:25:35Z</time>
      </trkpt>
      <trkpt lat="45.37109" lon="5.90295">
        <ele>1850.761150428</ele>
        <time>2015-06-06T12:25:39Z</time>
      </trkpt>
      <trkpt lat="45.37102" lon="5.90291">
        <ele>1850.1743281</ele>
        <time>2015-06-06T12:25:46Z</time>
      </trkpt>
      <trkpt lat="45.37099" lon="5.90289">
        <ele>1850.1743281</ele>
        <time>2015-06-06T12:25:50Z</time>
      </trkpt>
      <trkpt lat="45.37094" lon="5.90282">
        <ele>1849.17910968</ele>
        <time>2015-06-06T12:25:55Z</time>
      </trkpt>
      <trkpt lat="45.37091" lon="5.90283">
        <ele>1849.17910968</ele>
        <time>2015-06-06T12:25:59Z</time>
      </trkpt>
      <trkpt lat="45.37086" lon="5.90282">
        <ele>1849.17910968</ele>
        <time>2015-06-06T12:26:05Z</time>
      </trkpt>
      <trkpt lat="45.3708" lon="5.90275">
        <ele>1848.817968163</ele>
        <time>2015-06-06T12:26:10Z</time>
      </trkpt>
      <trkpt lat="45.37075" lon="5.90269">
        <ele>1848.817968163</ele>
        <time>2015-06-06T12:26:15Z</time>
      </trkpt>
      <trkpt lat="45.37067" lon="5.90268">
        <ele>1848.325664505</ele>
        <time>2015-06-06T12:26:20Z</time>
      </trkpt>
      <trkpt lat="45.37063" lon="5.90265">
        <ele>1848.325664505</ele>
        <time>2015-06-06T12:26:25Z</time>
      </trkpt>
      <trkpt lat="45.37056" lon="5.90264">
        <ele>1848.146405484</ele>
        <time>2015-06-06T12:26:31Z</time>
      </trkpt>
      <trkpt lat="45.37052" lon="5.90252">
        <ele>1848.146405484</ele>
        <time>2015-06-06T12:26:35Z</time>
      </trkpt>
      <trkpt lat="45.37051" lon="5.90246">
        <ele>1847.39385727</ele>
        <time>2015-06-06T12:26:40Z</time>
      </trkpt>
      <trkpt lat="45.37041" lon="5.90246">
        <ele>1846.545369101</ele>
        <time>2015-06-06T12:26:45Z</time>
      </trkpt>
      <trkpt lat="45.37033" lon="5.90243">
        <ele>1846.545369101</ele>
        <time>2015-06-06T12:26:50Z</time>
      </trkpt>
      <trkpt lat="45.37032" lon="5.90235">
        <ele>1845.899342617</ele>
        <time>2015-06-06T12:26:56Z</time>
      </trkpt>
      <trkpt lat="45.37023" lon="5.90236">
        <ele>1845.899342617</ele>
        <time>2015-06-06T12:27:00Z</time>
      </trkpt>
      <trkpt lat="45.37022" lon="5.9023">
        <ele>1845.155201747</ele>
        <time>2015-06-06T12:27:05Z</time>
      </trkpt>
      <trkpt lat="45.37016" lon="5.90232">
        <ele>1845.155201747</ele>
        <time>2015-06-06T12:27:10Z</time>
      </trkpt>
      <trkpt lat="45.37012" lon="5.90225">
        <ele>1844.178786826</ele>
        <time>2015-06-06T12:27:15Z</time>
      </trkpt>
      <trkpt lat="45.37007" lon="5.90217">
        <ele>1844.178786826</ele>
        <time>2015-06-06T12:27:20Z</time>
      </trkpt>
      <trkpt lat="45.37008" lon="5.90215">
        <ele>1844.178786826</ele>
        <time>2015-06-06T12:27:26Z</time>
      </trkpt>
      <trkpt lat="45.37001" lon="5.90212">
        <ele>1843.711057676</ele>
        <time>2015-06-06T12:27:30Z</time>
      </trkpt>
      <trkpt lat="45.36997" lon="5.90205">
        <ele>1843.711057676</ele>
        <time>2015-06-06T12:27:35Z</time>
      </trkpt>
      <trkpt lat="45.36994" lon="5.902">
        <ele>1842.995946655</ele>
        <time>2015-06-06T12:27:40Z</time>
      </trkpt>
      <trkpt lat="45.3699" lon="5.90196">
        <ele>1842.995946655</ele>
        <time>2015-06-06T12:27:45Z</time>
      </trkpt>
      <trkpt lat="45.36988" lon="5.90192">
        <ele>1842.995946655</ele>
        <time>2015-06-06T12:27:50Z</time>
      </trkpt>
      <trkpt lat="45.36984" lon="5.90185">
        <ele>1842.630559857</ele>
        <time>2015-06-06T12:27:55Z</time>
      </trkpt>
      <trkpt lat="45.36979" lon="5.90186">
        <ele>1842.630559857</ele>
        <time>2015-06-06T12:27:59Z</time>
      </trkpt>
      <trkpt lat="45.36969" lon="5.90177">
        <ele>1842.590652442</ele>
        <time>2015-06-06T12:28:06Z</time>
      </trkpt>
      <trkpt lat="45.36967" lon="5.90181">
        <ele>1842.590652442</ele>
        <time>2015-06-06T12:28:10Z</time>
      </trkpt>
      <trkpt lat="45.36961" lon="5.90182">
        <ele>1842.27634078</ele>
        <time>2015-06-06T12:28:15Z</time>
      </trkpt>
      <trkpt lat="45.36958" lon="5.90179">
        <ele>1842.27634078</ele>
        <time>2015-06-06T12:28:20Z</time>
      </trkpt>
      <trkpt lat="45.36958" lon="5.90165">
        <ele>1842.285406842</ele>
        <time>2015-06-06T12:28:25Z</time>
      </trkpt>
      <trkpt lat="45.3695" lon="5.90156">
        <ele>1842.450199071</ele>
        <time>2015-06-06T12:28:30Z</time>
      </trkpt>
      <trkpt lat="45.36947" lon="5.90174">
        <ele>1842.182556097</ele>
        <time>2015-06-06T12:28:35Z</time>
      </trkpt>
      <trkpt lat="45.3694" lon="5.9018">
        <ele>1842.182556097</ele>
        <time>2015-06-06T12:28:40Z</time>
      </trkpt>
      <trkpt lat="45.36935" lon="5.90173">
        <ele>1842.235684404</ele>
        <time>2015-06-06T12:28:45Z</time>
      </trkpt>
      <trkpt lat="45.36931" lon="5.90165">
        <ele>1842.235684404</ele>
        <time>2015-06-06T12:28:50Z</time>
      </trkpt>
      <trkpt lat="45.36918" lon="5.90162">
        <ele>1841.721288449</ele>
        <time>2015-06-06T12:28:55Z</time>
      </trkpt>
      <trkpt lat="45.36912" lon="5.90154">
        <ele>1841.721288449</ele>
        <time>2015-06-06T12:29:00Z</time>
      </trkpt>
      <trkpt lat="45.36908" lon="5.90153">
        <ele>1841.691316924</ele>
        <time>2015-06-06T12:29:05Z</time>
      </trkpt>
      <trkpt lat="45.36906" lon="5.90164">
        <ele>1841.691316924</ele>
        <time>2015-06-06T12:29:11Z</time>
      </trkpt>
      <trkpt lat="45.36897" lon="5.9016">
        <ele>1841.389704924</ele>
        <time>2015-06-06T12:29:15Z</time>
      </trkpt>
      <trkpt lat="45.36895" lon="5.90159">
        <ele>1841.389704924</ele>
        <time>2015-06-06T12:29:20Z</time>
      </trkpt>
      <trkpt lat="45.36892" lon="5.90159">
        <ele>1841.389704924</ele>
        <time>2015-06-06T12:29:25Z</time>
      </trkpt>
      <trkpt lat="45.36888" lon="5.90163">
        <ele>1841.1254243</ele>
        <time>2015-06-06T12:29:30Z</time>
      </trkpt>
      <trkpt lat="45.36882" lon="5.90157">
        <ele>1841.1254243</ele>
        <time>2015-06-06T12:29:35Z</time>
      </trkpt>
      <trkpt lat="45.36877" lon="5.90153">
        <ele>1841.761049274</ele>
        <time>2015-06-06T12:29:40Z</time>
      </trkpt>
      <trkpt lat="45.36872" lon="5.90152">
        <ele>1841.761049274</ele>
        <time>2015-06-06T12:29:45Z</time>
      </trkpt>
      <trkpt lat="45.36864" lon="5.90152">
        <ele>1842.075671952</ele>
        <time>2015-06-06T12:29:50Z</time>
      </trkpt>
      <trkpt lat="45.36859" lon="5.9016">
        <ele>1842.075671952</ele>
        <time>2015-06-06T12:29:55Z</time>
      </trkpt>
      <trkpt lat="45.36855" lon="5.90154">
        <ele>1842.091828412</ele>
        <time>2015-06-06T12:30:00Z</time>
      </trkpt>
      <trkpt lat="45.3685" lon="5.90153">
        <ele>1842.091828412</ele>
        <time>2015-06-06T12:30:05Z</time>
      </trkpt>
      <trkpt lat="45.36847" lon="5.90156">
        <ele>1842.091828412</ele>
        <time>2015-06-06T12:30:10Z</time>
      </trkpt>
      <trkpt lat="45.36839" lon="5.90156">
        <ele>1842.407653281</ele>
        <time>2015-06-06T12:30:15Z</time>
      </trkpt>
      <trkpt lat="45.36829" lon="5.90162">
        <ele>1843.000035016</ele>
        <time>2015-06-06T12:30:20Z</time>
      </trkpt>
      <trkpt lat="45.36828" lon="5.90139">
        <ele>1843.270321826</ele>
        <time>2015-06-06T12:30:26Z</time>
      </trkpt>
      <trkpt lat="45.36822" lon="5.9015">
        <ele>1843.673507709</ele>
        <time>2015-06-06T12:30:30Z</time>
      </trkpt>
      <trkpt lat="45.36809" lon="5.90147">
        <ele>1843.622003839</ele>
        <time>2015-06-06T12:30:35Z</time>
      </trkpt>
      <trkpt lat="45.36802" lon="5.90151">
        <ele>1843.622003839</ele>
        <time>2015-06-06T12:30:40Z</time>
      </trkpt>
      <trkpt lat="45.36804" lon="5.9015">
        <ele>1842.716765694</ele>
        <time>2015-06-06T12:30:46Z</time>
      </trkpt>
      <trkpt lat="45.36795" lon="5.90158">
        <ele>1841.743339723</ele>
        <time>2015-06-06T12:30:50Z</time>
      </trkpt>
      <trkpt lat="45.36788" lon="5.90157">
        <ele>1841.743339723</ele>
        <time>2015-06-06T12:30:55Z</time>
      </trkpt>
      <trkpt lat="45.36787" lon="5.90153">
        <ele>1841.141526191</ele>
        <time>2015-06-06T12:30:59Z</time>
      </trkpt>
      <trkpt lat="45.36781" lon="5.90149">
        <ele>1841.141526191</ele>
        <time>2015-06-06T12:31:05Z</time>
      </trkpt>
      <trkpt lat="45.36777" lon="5.90138">
        <ele>1841.029540382</ele>
        <time>2015-06-06T12:31:10Z</time>
      </trkpt>
      <trkpt lat="45.36774" lon="5.90144">
        <ele>1841.029540382</ele>
        <time>2015-06-06T12:31:15Z</time>
      </trkpt>
      <trkpt lat="45.36766" lon="5.90138">
        <ele>1840.794967781</ele>
        <time>2015-06-06T12:31:20Z</time>
      </trkpt>
      <trkpt lat="45.36761" lon="5.90138">
        <ele>1840.794967781</ele>
        <time>2015-06-06T12:31:26Z</time>
      </trkpt>
      <trkpt lat="45.36757" lon="5.90136">
        <ele>1840.447152659</ele>
        <time>2015-06-06T12:31:30Z</time>
      </trkpt>
      <trkpt lat="45.36748" lon="5.90124">
        <ele>1840.139164088</ele>
        <time>2015-06-06T12:31:35Z</time>
      </trkpt>
      <trkpt lat="45.36745" lon="5.90125">
        <ele>1840.139164088</ele>
        <time>2015-06-06T12:31:40Z</time>
      </trkpt>
      <trkpt lat="45.36744" lon="5.90115">
        <ele>1839.580363578</ele>
        <time>2015-06-06T12:31:45Z</time>
      </trkpt>
      <trkpt lat="45.36739" lon="5.90113">
        <ele>1839.580363578</ele>
        <time>2015-06-06T12:31:50Z</time>
      </trkpt>
      <trkpt lat="45.3673" lon="5.90107">
        <ele>1839.366815072</ele>
        <time>2015-06-06T12:31:55Z</time>
      </trkpt>
      <trkpt lat="45.36722" lon="5.90097">
        <ele>1839.32925328</ele>
        <time>2015-06-06T12:32:00Z</time>
      </trkpt>
      <trkpt lat="45.36717" lon="5.90107">
        <ele>1839.32925328</ele>
        <time>2015-06-06T12:32:06Z</time>
      </trkpt>
      <trkpt lat="45.36712" lon="5.90102">
        <ele>1838.733889839</ele>
        <time>2015-06-06T12:32:10Z</time>
      </trkpt>
      <trkpt lat="45.36707" lon="5.90103">
        <ele>1838.733889839</ele>
        <time>2015-06-06T12:32:15Z</time>
      </trkpt>
      <trkpt lat="45.36705" lon="5.90103">
        <ele>1838.733889839</ele>
        <time>2015-06-06T12:32:20Z</time>
      </trkpt>
      <trkpt lat="45.36703" lon="5.90098">
        <ele>1838.919943286</ele>
        <time>2015-06-06T12:32:26Z</time>
      </trkpt>
      <trkpt lat="45.36702" lon="5.90099">
        <ele>1838.919943286</ele>
        <time>2015-06-06T12:32:30Z</time>
      </trkpt>
      <trkpt lat="45.36702" lon="5.90099">
        <ele>1838.919943286</ele>
        <time>2015-06-06T12:32:35Z</time>
      </trkpt>
      <trkpt lat="45.36702" lon="5.90098">
        <ele>1838.919943286</ele>
        <time>2015-06-06T12:32:40Z</time>
      </trkpt>
      <trkpt lat="45.36701" lon="5.90098">
        <ele>1838.919943286</ele>
        <time>2015-06-06T12:32:46Z</time>
      </trkpt>
      <trkpt lat="45.36701" lon="5.90098">
        <ele>1838.919943286</ele>
        <time>2015-06-06T12:32:50Z</time>
      </trkpt>
      <trkpt lat="45.36701" lon="5.90098">
        <ele>1838.919943286</ele>
        <time>2015-06-06T12:32:55Z</time>
      </trkpt>
      <trkpt lat="45.36701" lon="5.90098">
        <ele>1838.919943286</ele>
        <time>2015-06-06T12:33:00Z</time>
      </trkpt>
      <trkpt lat="45.36701" lon="5.90098">
        <ele>1838.919943286</ele>
        <time>2015-06-06T12:33:05Z</time>
      </trkpt>
      <trkpt lat="45.367" lon="5.90096">
        <ele>1838.919943286</ele>
        <time>2015-06-06T12:33:11Z</time>
      </trkpt>
      <trkpt lat="45.36688" lon="5.9009">
        <ele>1838.24382076</ele>
        <time>2015-06-06T12:33:15Z</time>
      </trkpt>
      <trkpt lat="45.36676" lon="5.90082">
        <ele>1837.346734553</ele>
        <time>2015-06-06T12:33:20Z</time>
      </trkpt>
      <trkpt lat="45.36666" lon="5.90071">
        <ele>1837.11161707</ele>
        <time>2015-06-06T12:33:25Z</time>
      </trkpt>
      <trkpt lat="45.36661" lon="5.90074">
        <ele>1837.11161707</ele>
        <time>2015-06-06T12:33:31Z</time>
      </trkpt>
      <trkpt lat="45.36658" lon="5.9007">
        <ele>1837.201775476</ele>
        <time>2015-06-06T12:33:35Z</time>
      </trkpt>
      <trkpt lat="45.36657" lon="5.90059">
        <ele>1837.201775476</ele>
        <time>2015-06-06T12:33:39Z</time>
      </trkpt>
      <trkpt lat="45.36653" lon="5.9006">
        <ele>1837.304318594</ele>
        <time>2015-06-06T12:33:46Z</time>
      </trkpt>
      <trkpt lat="45.36647" lon="5.90057">
        <ele>1837.304318594</ele>
        <time>2015-06-06T12:33:50Z</time>
      </trkpt>
      <trkpt lat="45.36642" lon="5.90055">
        <ele>1836.120507652</ele>
        <time>2015-06-06T12:33:55Z</time>
      </trkpt>
      <trkpt lat="45.36637" lon="5.90059">
        <ele>1836.120507652</ele>
        <time>2015-06-06T12:33:59Z</time>
      </trkpt>
      <trkpt lat="45.36633" lon="5.90051">
        <ele>1835.476932557</ele>
        <time>2015-06-06T12:34:05Z</time>
      </trkpt>
      <trkpt lat="45.36625" lon="5.90049">
        <ele>1835.476932557</ele>
        <time>2015-06-06T12:34:10Z</time>
      </trkpt>
      <trkpt lat="45.3662" lon="5.90045">
        <ele>1835.191022981</ele>
        <time>2015-06-06T12:34:15Z</time>
      </trkpt>
      <trkpt lat="45.36613" lon="5.90052">
        <ele>1835.191022981</ele>
        <time>2015-06-06T12:34:20Z</time>
      </trkpt>
      <trkpt lat="45.36605" lon="5.90035">
        <ele>1835.236707962</ele>
        <time>2015-06-06T12:34:26Z</time>
      </trkpt>
      <trkpt lat="45.36599" lon="5.90036">
        <ele>1835.236707962</ele>
        <time>2015-06-06T12:34:30Z</time>
      </trkpt>
      <trkpt lat="45.36596" lon="5.9004">
        <ele>1834.724213549</ele>
        <time>2015-06-06T12:34:35Z</time>
      </trkpt>
      <trkpt lat="45.36591" lon="5.90046">
        <ele>1834.724213549</ele>
        <time>2015-06-06T12:34:40Z</time>
      </trkpt>
      <trkpt lat="45.36583" lon="5.90037">
        <ele>1834.848230975</ele>
        <time>2015-06-06T12:34:45Z</time>
      </trkpt>
      <trkpt lat="45.36582" lon="5.9003">
        <ele>1834.848230975</ele>
        <time>2015-06-06T12:34:50Z</time>
      </trkpt>
      <trkpt lat="45.36577" lon="5.90028">
        <ele>1835.128665151</ele>
        <time>2015-06-06T12:34:55Z</time>
      </trkpt>
      <trkpt lat="45.3657" lon="5.90019">
        <ele>1835.264347453</ele>
        <time>2015-06-06T12:35:00Z</time>
      </trkpt>
      <trkpt lat="45.36567" lon="5.90011">
        <ele>1835.264347453</ele>
        <time>2015-06-06T12:35:06Z</time>
      </trkpt>
      <trkpt lat="45.36563" lon="5.9002">
        <ele>1836.129519776</ele>
        <time>2015-06-06T12:35:11Z</time>
      </trkpt>
      <trkpt lat="45.36553" lon="5.90031">
        <ele>1836.802819779</ele>
        <time>2015-06-06T12:35:15Z</time>
      </trkpt>
      <trkpt lat="45.36551" lon="5.90022">
        <ele>1836.802819779</ele>
        <time>2015-06-06T12:35:20Z</time>
      </trkpt>
      <trkpt lat="45.36553" lon="5.90014">
        <ele>1836.575219961</ele>
        <time>2015-06-06T12:35:25Z</time>
      </trkpt>
      <trkpt lat="45.36549" lon="5.90009">
        <ele>1836.575219961</ele>
        <time>2015-06-06T12:35:30Z</time>
      </trkpt>
      <trkpt lat="45.3654" lon="5.90011">
        <ele>1836.521646273</ele>
        <time>2015-06-06T12:35:36Z</time>
      </trkpt>
      <trkpt lat="45.36533" lon="5.90011">
        <ele>1836.521646273</ele>
        <time>2015-06-06T12:35:40Z</time>
      </trkpt>
      <trkpt lat="45.36525" lon="5.90008">
        <ele>1836.772917343</ele>
        <time>2015-06-06T12:35:45Z</time>
      </trkpt>
      <trkpt lat="45.36519" lon="5.90008">
        <ele>1836.772917343</ele>
        <time>2015-06-06T12:35:50Z</time>
      </trkpt>
      <trkpt lat="45.36516" lon="5.90004">
        <ele>1837.017066805</ele>
        <time>2015-06-06T12:35:55Z</time>
      </trkpt>
      <trkpt lat="45.36511" lon="5.89999">
        <ele>1837.017066805</ele>
        <time>2015-06-06T12:36:00Z</time>
      </trkpt>
      <trkpt lat="45.36501" lon="5.89997">
        <ele>1836.820968519</ele>
        <time>2015-06-06T12:36:05Z</time>
      </trkpt>
      <trkpt lat="45.36497" lon="5.90001">
        <ele>1836.820968519</ele>
        <time>2015-06-06T12:36:11Z</time>
      </trkpt>
      <trkpt lat="45.36489" lon="5.90002">
        <ele>1836.793342699</ele>
        <time>2015-06-06T12:36:15Z</time>
      </trkpt>
      <trkpt lat="45.36488" lon="5.90002">
        <ele>1836.793342699</ele>
        <time>2015-06-06T12:36:20Z</time>
      </trkpt>
      <trkpt lat="45.36486" lon="5.89995">
        <ele>1836.793342699</ele>
        <time>2015-06-06T12:36:25Z</time>
      </trkpt>
      <trkpt lat="45.3648" lon="5.89995">
        <ele>1836.921293273</ele>
        <time>2015-06-06T12:36:31Z</time>
      </trkpt>
      <trkpt lat="45.36473" lon="5.89988">
        <ele>1836.921293273</ele>
        <time>2015-06-06T12:36:35Z</time>
      </trkpt>
      <trkpt lat="45.36466" lon="5.89985">
        <ele>1837.192453311</ele>
        <time>2015-06-06T12:36:40Z</time>
      </trkpt>
      <trkpt lat="45.36459" lon="5.89993">
        <ele>1837.192453311</ele>
        <time>2015-06-06T12:36:45Z</time>
      </trkpt>
      <trkpt lat="45.36455" lon="5.8999">
        <ele>1838.171427891</ele>
        <time>2015-06-06T12:36:50Z</time>
      </trkpt>
      <trkpt lat="45.36451" lon="5.89988">
        <ele>1838.171427891</ele>
        <time>2015-06-06T12:36:55Z</time>
      </trkpt>
      <trkpt lat="45.36451" lon="5.89971">
        <ele>1839.226496228</ele>
        <time>2015-06-06T12:36:59Z</time>
      </trkpt>
      <trkpt lat="45.3644" lon="5.89983">
        <ele>1839.916270816</ele>
        <time>2015-06-06T12:37:05Z</time>
      </trkpt>
      <trkpt lat="45.36436" lon="5.89974">
        <ele>1839.916270816</ele>
        <time>2015-06-06T12:37:10Z</time>
      </trkpt>
      <trkpt lat="45.36428" lon="5.89978">
        <ele>1839.976958652</ele>
        <time>2015-06-06T12:37:15Z</time>
      </trkpt>
      <trkpt lat="45.36423" lon="5.89975">
        <ele>1839.976958652</ele>
        <time>2015-06-06T12:37:20Z</time>
      </trkpt>
      <trkpt lat="45.36417" lon="5.89973">
        <ele>1840.462949174</ele>
        <time>2015-06-06T12:37:25Z</time>
      </trkpt>
      <trkpt lat="45.36413" lon="5.89972">
        <ele>1840.462949174</ele>
        <time>2015-06-06T12:37:30Z</time>
      </trkpt>
      <trkpt lat="45.36411" lon="5.89967">
        <ele>1840.462949174</ele>
        <time>2015-06-06T12:37:35Z</time>
      </trkpt>
      <trkpt lat="45.36404" lon="5.89968">
        <ele>1840.332468327</ele>
        <time>2015-06-06T12:37:40Z</time>
      </trkpt>
      <trkpt lat="45.364" lon="5.89968">
        <ele>1840.332468327</ele>
        <time>2015-06-06T12:37:45Z</time>
      </trkpt>
      <trkpt lat="45.36392" lon="5.89969">
        <ele>1841.071931386</ele>
        <time>2015-06-06T12:37:50Z</time>
      </trkpt>
      <trkpt lat="45.36388" lon="5.89968">
        <ele>1841.071931386</ele>
        <time>2015-06-06T12:37:55Z</time>
      </trkpt>
      <trkpt lat="45.36387" lon="5.89973">
        <ele>1841.071931386</ele>
        <time>2015-06-06T12:38:00Z</time>
      </trkpt>
      <trkpt lat="45.36391" lon="5.89975">
        <ele>1840.741606216</ele>
        <time>2015-06-06T12:38:05Z</time>
      </trkpt>
      <trkpt lat="45.36387" lon="5.89968">
        <ele>1840.741606216</ele>
        <time>2015-06-06T12:38:11Z</time>
      </trkpt>
      <trkpt lat="45.36385" lon="5.89962">
        <ele>1841.438296374</ele>
        <time>2015-06-06T12:38:14Z</time>
      </trkpt>
      <trkpt lat="45.36383" lon="5.89962">
        <ele>1841.438296374</ele>
        <time>2015-06-06T12:38:19Z</time>
      </trkpt>
      <trkpt lat="45.36379" lon="5.89958">
        <ele>1841.438296374</ele>
        <time>2015-06-06T12:38:24Z</time>
      </trkpt>
      <trkpt lat="45.36378" lon="5.89953">
        <ele>1842.219713143</ele>
        <time>2015-06-06T12:38:29Z</time>
      </trkpt>
      <trkpt lat="45.36377" lon="5.8995">
        <ele>1842.219713143</ele>
        <time>2015-06-06T12:38:36Z</time>
      </trkpt>
      <trkpt lat="45.36366" lon="5.89952">
        <ele>1842.356703888</ele>
        <time>2015-06-06T12:38:40Z</time>
      </trkpt>
      <trkpt lat="45.36359" lon="5.89945">
        <ele>1842.356703888</ele>
        <time>2015-06-06T12:38:46Z</time>
      </trkpt>
      <trkpt lat="45.36362" lon="5.89932">
        <ele>1842.328418835</ele>
        <time>2015-06-06T12:38:50Z</time>
      </trkpt>
      <trkpt lat="45.36354" lon="5.89937">
        <ele>1842.328418835</ele>
        <time>2015-06-06T12:38:55Z</time>
      </trkpt>
      <trkpt lat="45.36349" lon="5.89934">
        <ele>1842.146982472</ele>
        <time>2015-06-06T12:39:00Z</time>
      </trkpt>
      <trkpt lat="45.36342" lon="5.89934">
        <ele>1842.146982472</ele>
        <time>2015-06-06T12:39:06Z</time>
      </trkpt>
      <trkpt lat="45.36336" lon="5.89939">
        <ele>1842.544655095</ele>
        <time>2015-06-06T12:39:10Z</time>
      </trkpt>
      <trkpt lat="45.36332" lon="5.89939">
        <ele>1842.544655095</ele>
        <time>2015-06-06T12:39:15Z</time>
      </trkpt>
      <trkpt lat="45.36327" lon="5.89945">
        <ele>1843.189542304</ele>
        <time>2015-06-06T12:39:19Z</time>
      </trkpt>
      <trkpt lat="45.36322" lon="5.8995">
        <ele>1843.189542304</ele>
        <time>2015-06-06T12:39:26Z</time>
      </trkpt>
      <trkpt lat="45.36318" lon="5.89941">
        <ele>1843.917587164</ele>
        <time>2015-06-06T12:39:30Z</time>
      </trkpt>
      <trkpt lat="45.36317" lon="5.89937">
        <ele>1843.917587164</ele>
        <time>2015-06-06T12:39:36Z</time>
      </trkpt>
      <trkpt lat="45.36312" lon="5.89942">
        <ele>1843.917587164</ele>
        <time>2015-06-06T12:39:40Z</time>
      </trkpt>
      <trkpt lat="45.36307" lon="5.89944">
        <ele>1844.144256717</ele>
        <time>2015-06-06T12:39:46Z</time>
      </trkpt>
      <trkpt lat="45.36304" lon="5.8994">
        <ele>1844.144256717</ele>
        <time>2015-06-06T12:39:51Z</time>
      </trkpt>
      <trkpt lat="45.36307" lon="5.89931">
        <ele>1844.194070727</ele>
        <time>2015-06-06T12:39:55Z</time>
      </trkpt>
      <trkpt lat="45.36301" lon="5.89931">
        <ele>1844.194070727</ele>
        <time>2015-06-06T12:39:59Z</time>
      </trkpt>
      <trkpt lat="45.3629" lon="5.89931">
        <ele>1843.935911395</ele>
        <time>2015-06-06T12:40:05Z</time>
      </trkpt>
      <trkpt lat="45.36288" lon="5.89929">
        <ele>1843.935911395</ele>
        <time>2015-06-06T12:40:10Z</time>
      </trkpt>
      <trkpt lat="45.36282" lon="5.89936">
        <ele>1844.113860665</ele>
        <time>2015-06-06T12:40:16Z</time>
      </trkpt>
      <trkpt lat="45.36284" lon="5.89926">
        <ele>1844.113860665</ele>
        <time>2015-06-06T12:40:19Z</time>
      </trkpt>
      <trkpt lat="45.36287" lon="5.89918">
        <ele>1843.830927633</ele>
        <time>2015-06-06T12:40:26Z</time>
      </trkpt>
      <trkpt lat="45.36274" lon="5.8992">
        <ele>1843.986670585</ele>
        <time>2015-06-06T12:40:30Z</time>
      </trkpt>
      <trkpt lat="45.36273" lon="5.89914">
        <ele>1843.986670585</ele>
        <time>2015-06-06T12:40:35Z</time>
      </trkpt>
      <trkpt lat="45.36269" lon="5.89917">
        <ele>1845.125142294</ele>
        <time>2015-06-06T12:40:39Z</time>
      </trkpt>
      <trkpt lat="45.36268" lon="5.89917">
        <ele>1845.125142294</ele>
        <time>2015-06-06T12:40:46Z</time>
      </trkpt>
      <trkpt lat="45.36269" lon="5.89913">
        <ele>1845.125142294</ele>
        <time>2015-06-06T12:40:50Z</time>
      </trkpt>
      <trkpt lat="45.36266" lon="5.89906">
        <ele>1846.883035945</ele>
        <time>2015-06-06T12:40:55Z</time>
      </trkpt>
      <trkpt lat="45.36267" lon="5.89904">
        <ele>1846.883035945</ele>
        <time>2015-06-06T12:41:00Z</time>
      </trkpt>
      <trkpt lat="45.36267" lon="5.89903">
        <ele>1846.883035945</ele>
        <time>2015-06-06T12:41:05Z</time>
      </trkpt>
      <trkpt lat="45.36268" lon="5.89904">
        <ele>1846.883035945</ele>
        <time>2015-06-06T12:41:11Z</time>
      </trkpt>
      <trkpt lat="45.36267" lon="5.89904">
        <ele>1846.883035945</ele>
        <time>2015-06-06T12:41:15Z</time>
      </trkpt>
      <trkpt lat="45.36267" lon="5.89904">
        <ele>1846.883035945</ele>
        <time>2015-06-06T12:41:20Z</time>
      </trkpt>
      <trkpt lat="45.36267" lon="5.89904">
        <ele>1846.883035945</ele>
        <time>2015-06-06T12:41:25Z</time>
      </trkpt>
      <trkpt lat="45.36267" lon="5.89904">
        <ele>1846.883035945</ele>
        <time>2015-06-06T12:41:30Z</time>
      </trkpt>
      <trkpt lat="45.36267" lon="5.89904">
        <ele>1846.883035945</ele>
        <time>2015-06-06T12:41:36Z</time>
      </trkpt>
      <trkpt lat="45.36267" lon="5.89904">
        <ele>1846.883035945</ele>
        <time>2015-06-06T12:41:40Z</time>
      </trkpt>
      <trkpt lat="45.36267" lon="5.89904">
        <ele>1846.883035945</ele>
        <time>2015-06-06T12:41:45Z</time>
      </trkpt>
      <trkpt lat="45.36267" lon="5.89904">
        <ele>1846.883035945</ele>
        <time>2015-06-06T12:41:50Z</time>
      </trkpt>
      <trkpt lat="45.36267" lon="5.89904">
        <ele>1846.883035945</ele>
        <time>2015-06-06T12:41:56Z</time>
      </trkpt>
      <trkpt lat="45.36267" lon="5.89904">
        <ele>1846.883035945</ele>
        <time>2015-06-06T12:42:00Z</time>
      </trkpt>
      <trkpt lat="45.36267" lon="5.89904">
        <ele>1846.883035945</ele>
        <time>2015-06-06T12:42:06Z</time>
      </trkpt>
      <trkpt lat="45.36267" lon="5.89904">
        <ele>1846.883035945</ele>
        <time>2015-06-06T12:42:10Z</time>
      </trkpt>
      <trkpt lat="45.36264" lon="5.89905">
        <ele>1846.883035945</ele>
        <time>2015-06-06T12:42:16Z</time>
      </trkpt>
      <trkpt lat="45.36256" lon="5.89899">
        <ele>1849.21025323</ele>
        <time>2015-06-06T12:42:20Z</time>
      </trkpt>
      <trkpt lat="45.36239" lon="5.89893">
        <ele>1851.914713468</ele>
        <time>2015-06-06T12:42:26Z</time>
      </trkpt>
      <trkpt lat="45.36236" lon="5.8988">
        <ele>1853.808667515</ele>
        <time>2015-06-06T12:42:30Z</time>
      </trkpt>
      <trkpt lat="45.36235" lon="5.89876">
        <ele>1853.808667515</ele>
        <time>2015-06-06T12:42:35Z</time>
      </trkpt>
      <trkpt lat="45.36232" lon="5.8987">
        <ele>1853.808667515</ele>
        <time>2015-06-06T12:42:40Z</time>
      </trkpt>
      <trkpt lat="45.36229" lon="5.89865">
        <ele>1855.667406921</ele>
        <time>2015-06-06T12:42:46Z</time>
      </trkpt>
      <trkpt lat="45.36221" lon="5.89862">
        <ele>1855.667406921</ele>
        <time>2015-06-06T12:42:50Z</time>
      </trkpt>
      <trkpt lat="45.36215" lon="5.89863">
        <ele>1856.191892641</ele>
        <time>2015-06-06T12:42:55Z</time>
      </trkpt>
      <trkpt lat="45.36212" lon="5.89857">
        <ele>1856.191892641</ele>
        <time>2015-06-06T12:42:59Z</time>
      </trkpt>
      <trkpt lat="45.36203" lon="5.89855">
        <ele>1856.920452223</ele>
        <time>2015-06-06T12:43:05Z</time>
      </trkpt>
      <trkpt lat="45.36196" lon="5.89857">
        <ele>1856.920452223</ele>
        <time>2015-06-06T12:43:09Z</time>
      </trkpt>
      <trkpt lat="45.36193" lon="5.89854">
        <ele>1858.125033498</ele>
        <time>2015-06-06T12:43:15Z</time>
      </trkpt>
      <trkpt lat="45.36189" lon="5.89851">
        <ele>1858.125033498</ele>
        <time>2015-06-06T12:43:20Z</time>
      </trkpt>
      <trkpt lat="45.36185" lon="5.89846">
        <ele>1859.047579729</ele>
        <time>2015-06-06T12:43:25Z</time>
      </trkpt>
      <trkpt lat="45.36179" lon="5.89843">
        <ele>1859.047579729</ele>
        <time>2015-06-06T12:43:31Z</time>
      </trkpt>
      <trkpt lat="45.36173" lon="5.89845">
        <ele>1860.283597286</ele>
        <time>2015-06-06T12:43:35Z</time>
      </trkpt>
      <trkpt lat="45.3617" lon="5.89845">
        <ele>1860.283597286</ele>
        <time>2015-06-06T12:43:40Z</time>
      </trkpt>
      <trkpt lat="45.36167" lon="5.89843">
        <ele>1860.283597286</ele>
        <time>2015-06-06T12:43:45Z</time>
      </trkpt>
      <trkpt lat="45.36162" lon="5.89836">
        <ele>1859.790048411</ele>
        <time>2015-06-06T12:43:50Z</time>
      </trkpt>
      <trkpt lat="45.36154" lon="5.89833">
        <ele>1859.790048411</ele>
        <time>2015-06-06T12:43:55Z</time>
      </trkpt>
      <trkpt lat="45.36151" lon="5.8983">
        <ele>1859.137572356</ele>
        <time>2015-06-06T12:44:00Z</time>
      </trkpt>
      <trkpt lat="45.36143" lon="5.89826">
        <ele>1859.137572356</ele>
        <time>2015-06-06T12:44:06Z</time>
      </trkpt>
      <trkpt lat="45.3614" lon="5.89826">
        <ele>1859.061389404</ele>
        <time>2015-06-06T12:44:10Z</time>
      </trkpt>
      <trkpt lat="45.36137" lon="5.89823">
        <ele>1859.061389404</ele>
        <time>2015-06-06T12:44:15Z</time>
      </trkpt>
      <trkpt lat="45.36136" lon="5.89823">
        <ele>1859.061389404</ele>
        <time>2015-06-06T12:44:20Z</time>
      </trkpt>
      <trkpt lat="45.36138" lon="5.89823">
        <ele>1859.061389404</ele>
        <time>2015-06-06T12:44:25Z</time>
      </trkpt>
      <trkpt lat="45.36137" lon="5.89824">
        <ele>1859.061389404</ele>
        <time>2015-06-06T12:44:30Z</time>
      </trkpt>
      <trkpt lat="45.36137" lon="5.89825">
        <ele>1859.061389404</ele>
        <time>2015-06-06T12:44:35Z</time>
      </trkpt>
      <trkpt lat="45.36138" lon="5.89825">
        <ele>1859.061389404</ele>
        <time>2015-06-06T12:44:40Z</time>
      </trkpt>
      <trkpt lat="45.36138" lon="5.89825">
        <ele>1859.061389404</ele>
        <time>2015-06-06T12:44:46Z</time>
      </trkpt>
      <trkpt lat="45.36138" lon="5.89825">
        <ele>1859.061389404</ele>
        <time>2015-06-06T12:44:50Z</time>
      </trkpt>
      <trkpt lat="45.36138" lon="5.89825">
        <ele>1859.061389404</ele>
        <time>2015-06-06T12:44:55Z</time>
      </trkpt>
      <trkpt lat="45.36138" lon="5.89825">
        <ele>1859.061389404</ele>
        <time>2015-06-06T12:44:59Z</time>
      </trkpt>
      <trkpt lat="45.36134" lon="5.89824">
        <ele>1859.952933255</ele>
        <time>2015-06-06T12:45:06Z</time>
      </trkpt>
      <trkpt lat="45.36133" lon="5.89823">
        <ele>1859.952933255</ele>
        <time>2015-06-06T12:45:10Z</time>
      </trkpt>
      <trkpt lat="45.36133" lon="5.89823">
        <ele>1859.952933255</ele>
        <time>2015-06-06T12:45:16Z</time>
      </trkpt>
      <trkpt lat="45.36133" lon="5.89823">
        <ele>1859.952933255</ele>
        <time>2015-06-06T12:45:20Z</time>
      </trkpt>
      <trkpt lat="45.36133" lon="5.89823">
        <ele>1859.952933255</ele>
        <time>2015-06-06T12:45:26Z</time>
      </trkpt>
      <trkpt lat="45.36127" lon="5.89828">
        <ele>1859.952933255</ele>
        <time>2015-06-06T12:45:30Z</time>
      </trkpt>
      <trkpt lat="45.36121" lon="5.89834">
        <ele>1859.578218685</ele>
        <time>2015-06-06T12:45:36Z</time>
      </trkpt>
      <trkpt lat="45.3612" lon="5.89843">
        <ele>1859.578218685</ele>
        <time>2015-06-06T12:45:39Z</time>
      </trkpt>
      <trkpt lat="45.3612" lon="5.89843">
        <ele>1859.578218685</ele>
        <time>2015-06-06T12:45:46Z</time>
      </trkpt>
      <trkpt lat="45.36118" lon="5.89844">
        <ele>1859.473742775</ele>
        <time>2015-06-06T12:45:50Z</time>
      </trkpt>
      <trkpt lat="45.36115" lon="5.89844">
        <ele>1859.473742775</ele>
        <time>2015-06-06T12:45:55Z</time>
      </trkpt>
      <trkpt lat="45.36115" lon="5.89844">
        <ele>1859.473742775</ele>
        <time>2015-06-06T12:45:59Z</time>
      </trkpt>
      <trkpt lat="45.36115" lon="5.89844">
        <ele>1859.473742775</ele>
        <time>2015-06-06T12:46:05Z</time>
      </trkpt>
      <trkpt lat="45.36115" lon="5.89844">
        <ele>1859.473742775</ele>
        <time>2015-06-06T12:46:09Z</time>
      </trkpt>
      <trkpt lat="45.36115" lon="5.89844">
        <ele>1859.473742775</ele>
        <time>2015-06-06T12:46:16Z</time>
      </trkpt>
      <trkpt lat="45.36107" lon="5.89859">
        <ele>1858.468408713</ele>
        <time>2015-06-06T12:46:20Z</time>
      </trkpt>
      <trkpt lat="45.36089" lon="5.89855">
        <ele>1857.20903424</ele>
        <time>2015-06-06T12:46:26Z</time>
      </trkpt>
      <trkpt lat="45.36079" lon="5.89856">
        <ele>1855.863313797</ele>
        <time>2015-06-06T12:46:30Z</time>
      </trkpt>
      <trkpt lat="45.36073" lon="5.89852">
        <ele>1855.863313797</ele>
        <time>2015-06-06T12:46:35Z</time>
      </trkpt>
      <trkpt lat="45.36074" lon="5.8984">
        <ele>1854.010418126</ele>
        <time>2015-06-06T12:46:40Z</time>
      </trkpt>
      <trkpt lat="45.36072" lon="5.8984">
        <ele>1854.010418126</ele>
        <time>2015-06-06T12:46:45Z</time>
      </trkpt>
      <trkpt lat="45.36067" lon="5.8984">
        <ele>1854.010418126</ele>
        <time>2015-06-06T12:46:50Z</time>
      </trkpt>
      <trkpt lat="45.36061" lon="5.89841">
        <ele>1852.270614108</ele>
        <time>2015-06-06T12:46:55Z</time>
      </trkpt>
      <trkpt lat="45.36056" lon="5.89845">
        <ele>1852.270614108</ele>
        <time>2015-06-06T12:47:00Z</time>
      </trkpt>
      <trkpt lat="45.36054" lon="5.89847">
        <ele>1852.270614108</ele>
        <time>2015-06-06T12:47:05Z</time>
      </trkpt>
      <trkpt lat="45.36051" lon="5.89856">
        <ele>1849.77713899</ele>
        <time>2015-06-06T12:47:10Z</time>
      </trkpt>
      <trkpt lat="45.36045" lon="5.89862">
        <ele>1849.77713899</ele>
        <time>2015-06-06T12:47:15Z</time>
      </trkpt>
      <trkpt lat="45.36041" lon="5.8986">
        <ele>1847.746518999</ele>
        <time>2015-06-06T12:47:19Z</time>
      </trkpt>
      <trkpt lat="45.36032" lon="5.89858">
        <ele>1847.746518999</ele>
        <time>2015-06-06T12:47:25Z</time>
      </trkpt>
      <trkpt lat="45.36027" lon="5.8986">
        <ele>1845.863434543</ele>
        <time>2015-06-06T12:47:31Z</time>
      </trkpt>
      <trkpt lat="45.36023" lon="5.89858">
        <ele>1845.863434543</ele>
        <time>2015-06-06T12:47:35Z</time>
      </trkpt>
      <trkpt lat="45.36018" lon="5.89853">
        <ele>1843.979340502</ele>
        <time>2015-06-06T12:47:40Z</time>
      </trkpt>
      <trkpt lat="45.36009" lon="5.89846">
        <ele>1842.388840684</ele>
        <time>2015-06-06T12:47:45Z</time>
      </trkpt>
      <trkpt lat="45.36005" lon="5.89843">
        <ele>1842.388840684</ele>
        <time>2015-06-06T12:47:50Z</time>
      </trkpt>
      <trkpt lat="45.36003" lon="5.89841">
        <ele>1842.388840684</ele>
        <time>2015-06-06T12:47:55Z</time>
      </trkpt>
      <trkpt lat="45.35998" lon="5.89846">
        <ele>1841.075741766</ele>
        <time>2015-06-06T12:48:00Z</time>
      </trkpt>
      <trkpt lat="45.35993" lon="5.89851">
        <ele>1841.075741766</ele>
        <time>2015-06-06T12:48:05Z</time>
      </trkpt>
      <trkpt lat="45.35989" lon="5.89847">
        <ele>1840.168255878</ele>
        <time>2015-06-06T12:48:10Z</time>
      </trkpt>
      <trkpt lat="45.35981" lon="5.89845">
        <ele>1840.168255878</ele>
        <time>2015-06-06T12:48:15Z</time>
      </trkpt>
      <trkpt lat="45.35974" lon="5.89842">
        <ele>1838.631026695</ele>
        <time>2015-06-06T12:48:20Z</time>
      </trkpt>
      <trkpt lat="45.35972" lon="5.89833">
        <ele>1838.631026695</ele>
        <time>2015-06-06T12:48:26Z</time>
      </trkpt>
      <trkpt lat="45.35967" lon="5.89825">
        <ele>1836.515171416</ele>
        <time>2015-06-06T12:48:30Z</time>
      </trkpt>
      <trkpt lat="45.35962" lon="5.89826">
        <ele>1836.515171416</ele>
        <time>2015-06-06T12:48:35Z</time>
      </trkpt>
      <trkpt lat="45.35956" lon="5.89822">
        <ele>1835.454766995</ele>
        <time>2015-06-06T12:48:40Z</time>
      </trkpt>
      <trkpt lat="45.35947" lon="5.89819">
        <ele>1834.22264433</ele>
        <time>2015-06-06T12:48:46Z</time>
      </trkpt>
      <trkpt lat="45.3594" lon="5.89815">
        <ele>1834.22264433</ele>
        <time>2015-06-06T12:48:50Z</time>
      </trkpt>
      <trkpt lat="45.35935" lon="5.89813">
        <ele>1833.555571743</ele>
        <time>2015-06-06T12:48:56Z</time>
      </trkpt>
      <trkpt lat="45.35933" lon="5.89816">
        <ele>1833.555571743</ele>
        <time>2015-06-06T12:49:00Z</time>
      </trkpt>
      <trkpt lat="45.35932" lon="5.89795">
        <ele>1832.981584517</ele>
        <time>2015-06-06T12:49:06Z</time>
      </trkpt>
      <trkpt lat="45.35927" lon="5.8979">
        <ele>1832.981584517</ele>
        <time>2015-06-06T12:49:10Z</time>
      </trkpt>
      <trkpt lat="45.35923" lon="5.89782">
        <ele>1832.207105178</ele>
        <time>2015-06-06T12:49:16Z</time>
      </trkpt>
      <trkpt lat="45.35918" lon="5.89775">
        <ele>1832.207105178</ele>
        <time>2015-06-06T12:49:19Z</time>
      </trkpt>
      <trkpt lat="45.35917" lon="5.89772">
        <ele>1832.207105178</ele>
        <time>2015-06-06T12:49:24Z</time>
      </trkpt>
      <trkpt lat="45.35918" lon="5.89764">
        <ele>1832.401668988</ele>
        <time>2015-06-06T12:49:30Z</time>
      </trkpt>
      <trkpt lat="45.35908" lon="5.89756">
        <ele>1831.187388985</ele>
        <time>2015-06-06T12:49:36Z</time>
      </trkpt>
      <trkpt lat="45.35908" lon="5.89751">
        <ele>1831.187388985</ele>
        <time>2015-06-06T12:49:40Z</time>
      </trkpt>
      <trkpt lat="45.35891" lon="5.89748">
        <ele>1829.247113083</ele>
        <time>2015-06-06T12:49:46Z</time>
      </trkpt>
      <trkpt lat="45.3589" lon="5.8974">
        <ele>1829.247113083</ele>
        <time>2015-06-06T12:49:50Z</time>
      </trkpt>
      <trkpt lat="45.35883" lon="5.89734">
        <ele>1828.080115134</ele>
        <time>2015-06-06T12:49:56Z</time>
      </trkpt>
      <trkpt lat="45.35882" lon="5.89734">
        <ele>1828.080115134</ele>
        <time>2015-06-06T12:50:00Z</time>
      </trkpt>
      <trkpt lat="45.3587" lon="5.8973">
        <ele>1827.488026987</ele>
        <time>2015-06-06T12:50:05Z</time>
      </trkpt>
      <trkpt lat="45.35865" lon="5.89728">
        <ele>1827.488026987</ele>
        <time>2015-06-06T12:50:10Z</time>
      </trkpt>
      <trkpt lat="45.35857" lon="5.89734">
        <ele>1827.573550252</ele>
        <time>2015-06-06T12:50:16Z</time>
      </trkpt>
      <trkpt lat="45.3585" lon="5.89733">
        <ele>1827.573550252</ele>
        <time>2015-06-06T12:50:20Z</time>
      </trkpt>
      <trkpt lat="45.35845" lon="5.89723">
        <ele>1828.429835935</ele>
        <time>2015-06-06T12:50:25Z</time>
      </trkpt>
      <trkpt lat="45.35839" lon="5.8972">
        <ele>1828.429835935</ele>
        <time>2015-06-06T12:50:30Z</time>
      </trkpt>
      <trkpt lat="45.35831" lon="5.8971">
        <ele>1829.564491453</ele>
        <time>2015-06-06T12:50:36Z</time>
      </trkpt>
      <trkpt lat="45.35825" lon="5.89702">
        <ele>1829.564491453</ele>
        <time>2015-06-06T12:50:40Z</time>
      </trkpt>
      <trkpt lat="45.3582" lon="5.89701">
        <ele>1830.232212074</ele>
        <time>2015-06-06T12:50:45Z</time>
      </trkpt>
      <trkpt lat="45.35816" lon="5.89694">
        <ele>1830.232212074</ele>
        <time>2015-06-06T12:50:50Z</time>
      </trkpt>
      <trkpt lat="45.35812" lon="5.89688">
        <ele>1830.896577827</ele>
        <time>2015-06-06T12:50:55Z</time>
      </trkpt>
      <trkpt lat="45.35811" lon="5.89688">
        <ele>1830.896577827</ele>
        <time>2015-06-06T12:50:59Z</time>
      </trkpt>
      <trkpt lat="45.35812" lon="5.89688">
        <ele>1830.896577827</ele>
        <time>2015-06-06T12:51:04Z</time>
      </trkpt>
      <trkpt lat="45.35812" lon="5.89688">
        <ele>1830.896577827</ele>
        <time>2015-06-06T12:51:10Z</time>
      </trkpt>
      <trkpt lat="45.35812" lon="5.89688">
        <ele>1830.896577827</ele>
        <time>2015-06-06T12:51:16Z</time>
      </trkpt>
      <trkpt lat="45.35812" lon="5.89688">
        <ele>1830.896577827</ele>
        <time>2015-06-06T12:51:20Z</time>
      </trkpt>
      <trkpt lat="45.35811" lon="5.8969">
        <ele>1830.896577827</ele>
        <time>2015-06-06T12:53:55Z</time>
      </trkpt>
      <trkpt lat="45.35809" lon="5.89692">
        <ele>1830.896577827</ele>
        <time>2015-06-06T12:54:01Z</time>
      </trkpt>
      <trkpt lat="45.35799" lon="5.89691">
        <ele>1831.122407275</ele>
        <time>2015-06-06T12:54:05Z</time>
      </trkpt>
      <trkpt lat="45.35783" lon="5.89692">
        <ele>1831.66057013</ele>
        <time>2015-06-06T12:54:10Z</time>
      </trkpt>
      <trkpt lat="45.35759" lon="5.89733">
        <ele>1833.494100452</ele>
        <time>2015-06-06T12:54:14Z</time>
      </trkpt>
      <trkpt lat="45.35742" lon="5.89762">
        <ele>1835.944953993</ele>
        <time>2015-06-06T12:54:19Z</time>
      </trkpt>
      <trkpt lat="45.3574" lon="5.89765">
        <ele>1835.944953993</ele>
        <time>2015-06-06T12:54:24Z</time>
      </trkpt>
      <trkpt lat="45.35739" lon="5.89761">
        <ele>1835.944953993</ele>
        <time>2015-06-06T12:54:30Z</time>
      </trkpt>
      <trkpt lat="45.35737" lon="5.89759">
        <ele>1835.944953993</ele>
        <time>2015-06-06T12:54:35Z</time>
      </trkpt>
      <trkpt lat="45.35736" lon="5.8975">
        <ele>1835.068609645</ele>
        <time>2015-06-06T12:54:40Z</time>
      </trkpt>
      <trkpt lat="45.35737" lon="5.89738">
        <ele>1835.068609645</ele>
        <time>2015-06-06T12:54:45Z</time>
      </trkpt>
      <trkpt lat="45.35742" lon="5.89731">
        <ele>1832.839988847</ele>
        <time>2015-06-06T12:54:50Z</time>
      </trkpt>
      <trkpt lat="45.35736" lon="5.89718">
        <ele>1830.516298008</ele>
        <time>2015-06-06T12:54:54Z</time>
      </trkpt>
      <trkpt lat="45.35739" lon="5.89704">
        <ele>1828.109772504</ele>
        <time>2015-06-06T12:55:00Z</time>
      </trkpt>
      <trkpt lat="45.35744" lon="5.89698">
        <ele>1828.109772504</ele>
        <time>2015-06-06T12:55:05Z</time>
      </trkpt>
      <trkpt lat="45.35746" lon="5.89689">
        <ele>1825.487860603</ele>
        <time>2015-06-06T12:55:10Z</time>
      </trkpt>
      <trkpt lat="45.35744" lon="5.89681">
        <ele>1825.487860603</ele>
        <time>2015-06-06T12:55:14Z</time>
      </trkpt>
      <trkpt lat="45.35744" lon="5.89672">
        <ele>1822.384214342</ele>
        <time>2015-06-06T12:55:20Z</time>
      </trkpt>
      <trkpt lat="45.35745" lon="5.89658">
        <ele>1819.562138187</ele>
        <time>2015-06-06T12:55:25Z</time>
      </trkpt>
      <trkpt lat="45.35748" lon="5.89648">
        <ele>1819.562138187</ele>
        <time>2015-06-06T12:55:30Z</time>
      </trkpt>
      <trkpt lat="45.35748" lon="5.8964">
        <ele>1816.575126059</ele>
        <time>2015-06-06T12:55:35Z</time>
      </trkpt>
      <trkpt lat="45.3574" lon="5.89629">
        <ele>1814.306860999</ele>
        <time>2015-06-06T12:55:39Z</time>
      </trkpt>
      <trkpt lat="45.35731" lon="5.89617">
        <ele>1813.917852252</ele>
        <time>2015-06-06T12:55:44Z</time>
      </trkpt>
      <trkpt lat="45.35737" lon="5.89618">
        <ele>1813.528843505</ele>
        <time>2015-06-06T12:55:50Z</time>
      </trkpt>
      <trkpt lat="45.35738" lon="5.89621">
        <ele>1813.139834758</ele>
        <time>2015-06-06T12:55:55Z</time>
      </trkpt>
      <trkpt lat="45.35729" lon="5.89603">
        <ele>1812.750826011</ele>
        <time>2015-06-06T12:56:00Z</time>
      </trkpt>
      <trkpt lat="45.35697" lon="5.89548">
        <ele>1812.361817264</ele>
        <time>2015-06-06T12:57:15Z</time>
      </trkpt>
      <trkpt lat="45.35693" lon="5.89545">
        <ele>1811.972808518</ele>
        <time>2015-06-06T12:57:20Z</time>
      </trkpt>
      <trkpt lat="45.3569" lon="5.89554">
        <ele>1811.583799771</ele>
        <time>2015-06-06T12:57:25Z</time>
      </trkpt>
      <trkpt lat="45.35683" lon="5.89548">
        <ele>1811.194791024</ele>
        <time>2015-06-06T12:57:30Z</time>
      </trkpt>
      <trkpt lat="45.35679" lon="5.89548">
        <ele>1810.805782277</ele>
        <time>2015-06-06T12:57:35Z</time>
      </trkpt>
      <trkpt lat="45.35683" lon="5.89548">
        <ele>1810.41677353</ele>
        <time>2015-06-06T12:57:40Z</time>
      </trkpt>
      <trkpt lat="45.35673" lon="5.89598">
        <ele>1810.027764783</ele>
        <time>2015-06-06T12:58:10Z</time>
      </trkpt>
      <trkpt lat="45.3567" lon="5.89597">
        <ele>1809.638756036</ele>
        <time>2015-06-06T12:58:15Z</time>
      </trkpt>
      <trkpt lat="45.35669" lon="5.89589">
        <ele>1809.249747289</ele>
        <time>2015-06-06T12:58:20Z</time>
      </trkpt>
      <trkpt lat="45.35665" lon="5.89578">
        <ele>1808.860738542</ele>
        <time>2015-06-06T12:58:25Z</time>
      </trkpt>
      <trkpt lat="45.35662" lon="5.89582">
        <ele>1808.471729795</ele>
        <time>2015-06-06T12:58:30Z</time>
      </trkpt>
      <trkpt lat="45.35662" lon="5.8958">
        <ele>1808.082721048</ele>
        <time>2015-06-06T12:58:35Z</time>
      </trkpt>
      <trkpt lat="45.35661" lon="5.89578">
        <ele>1807.693712301</ele>
        <time>2015-06-06T12:58:40Z</time>
      </trkpt>
      <trkpt lat="45.35661" lon="5.89577">
        <ele>1807.304703554</ele>
        <time>2015-06-06T12:58:45Z</time>
      </trkpt>
      <trkpt lat="45.3566" lon="5.89577">
        <ele>1806.915694807</ele>
        <time>2015-06-06T12:59:04Z</time>
      </trkpt>
      <trkpt lat="45.3566" lon="5.89578">
        <ele>1806.52668606</ele>
        <time>2015-06-06T12:59:10Z</time>
      </trkpt>
      <trkpt lat="45.3566" lon="5.89577">
        <ele>1806.137677313</ele>
        <time>2015-06-06T12:59:15Z</time>
      </trkpt>
      <trkpt lat="45.3566" lon="5.89578">
        <ele>1805.748668566</ele>
        <time>2015-06-06T12:59:20Z</time>
      </trkpt>
      <trkpt lat="45.3566" lon="5.89578">
        <ele>1805.359659819</ele>
        <time>2015-06-06T12:59:25Z</time>
      </trkpt>
      <trkpt lat="45.3566" lon="5.89578">
        <ele>1805.359659819</ele>
        <time>2015-06-06T12:59:30Z</time>
      </trkpt>
      <trkpt lat="45.35661" lon="5.89578">
        <ele>1805.359659819</ele>
        <time>2015-06-06T12:59:35Z</time>
      </trkpt>
      <trkpt lat="45.35661" lon="5.89578">
        <ele>1805.359659819</ele>
        <time>2015-06-06T12:59:40Z</time>
      </trkpt>
      <trkpt lat="45.35654" lon="5.89581">
        <ele>1804.065103891</ele>
        <time>2015-06-06T12:59:45Z</time>
      </trkpt>
      <trkpt lat="45.3565" lon="5.89587">
        <ele>1802.770547962</ele>
        <time>2015-06-06T12:59:50Z</time>
      </trkpt>
      <trkpt lat="45.35642" lon="5.89593">
        <ele>1801.475992034</ele>
        <time>2015-06-06T12:59:55Z</time>
      </trkpt>
      <trkpt lat="45.35624" lon="5.89621">
        <ele>1800.181436105</ele>
        <time>2015-06-06T13:00:00Z</time>
      </trkpt>
      <trkpt lat="45.35622" lon="5.89626">
        <ele>1798.886880177</ele>
        <time>2015-06-06T13:00:05Z</time>
      </trkpt>
      <trkpt lat="45.35623" lon="5.89628">
        <ele>1797.592324248</ele>
        <time>2015-06-06T13:00:10Z</time>
      </trkpt>
      <trkpt lat="45.35625" lon="5.89621">
        <ele>1796.29776832</ele>
        <time>2015-06-06T13:00:15Z</time>
      </trkpt>
      <trkpt lat="45.35626" lon="5.89619">
        <ele>1795.003212391</ele>
        <time>2015-06-06T13:00:20Z</time>
      </trkpt>
      <trkpt lat="45.35626" lon="5.89619">
        <ele>1795.003212391</ele>
        <time>2015-06-06T13:00:25Z</time>
      </trkpt>
      <trkpt lat="45.35626" lon="5.89619">
        <ele>1795.003212391</ele>
        <time>2015-06-06T13:00:30Z</time>
      </trkpt>
      <trkpt lat="45.35626" lon="5.89619">
        <ele>1795.003212391</ele>
        <time>2015-06-06T13:00:35Z</time>
      </trkpt>
      <trkpt lat="45.35626" lon="5.89619">
        <ele>1795.003212391</ele>
        <time>2015-06-06T13:00:40Z</time>
      </trkpt>
      <trkpt lat="45.35627" lon="5.89619">
        <ele>1795.003212391</ele>
        <time>2015-06-06T13:00:46Z</time>
      </trkpt>
      <trkpt lat="45.35627" lon="5.89619">
        <ele>1795.003212391</ele>
        <time>2015-06-06T13:00:50Z</time>
      </trkpt>
      <trkpt lat="45.35626" lon="5.89622">
        <ele>1795.003212391</ele>
        <time>2015-06-06T13:00:55Z</time>
      </trkpt>
      <trkpt lat="45.3563" lon="5.8965">
        <ele>1790.05037889</ele>
        <time>2015-06-06T13:01:00Z</time>
      </trkpt>
      <trkpt lat="45.35631" lon="5.89671">
        <ele>1785.097545388</ele>
        <time>2015-06-06T13:01:05Z</time>
      </trkpt>
      <trkpt lat="45.35633" lon="5.89674">
        <ele>1785.097545388</ele>
        <time>2015-06-06T13:01:10Z</time>
      </trkpt>
      <trkpt lat="45.35638" lon="5.89671">
        <ele>1785.097545388</ele>
        <time>2015-06-06T13:01:14Z</time>
      </trkpt>
      <trkpt lat="45.35638" lon="5.89671">
        <ele>1785.097545388</ele>
        <time>2015-06-06T13:01:20Z</time>
      </trkpt>
      <trkpt lat="45.35638" lon="5.89671">
        <ele>1785.097545388</ele>
        <time>2015-06-06T13:01:25Z</time>
      </trkpt>
      <trkpt lat="45.35638" lon="5.89672">
        <ele>1785.097545388</ele>
        <time>2015-06-06T13:01:31Z</time>
      </trkpt>
      <trkpt lat="45.35638" lon="5.89672">
        <ele>1785.097545388</ele>
        <time>2015-06-06T13:01:35Z</time>
      </trkpt>
      <trkpt lat="45.35638" lon="5.89672">
        <ele>1785.097545388</ele>
        <time>2015-06-06T13:01:40Z</time>
      </trkpt>
      <trkpt lat="45.35633" lon="5.89677">
        <ele>1774.626443777</ele>
        <time>2015-06-06T13:01:45Z</time>
      </trkpt>
      <trkpt lat="45.35623" lon="5.89681">
        <ele>1764.090750725</ele>
        <time>2015-06-06T13:01:50Z</time>
      </trkpt>
      <trkpt lat="45.35622" lon="5.89683">
        <ele>1764.090750725</ele>
        <time>2015-06-06T13:01:55Z</time>
      </trkpt>
      <trkpt lat="45.35621" lon="5.89678">
        <ele>1764.090750725</ele>
        <time>2015-06-06T13:02:00Z</time>
      </trkpt>
      <trkpt lat="45.35619" lon="5.89676">
        <ele>1764.090750725</ele>
        <time>2015-06-06T13:02:05Z</time>
      </trkpt>
      <trkpt lat="45.35615" lon="5.89674">
        <ele>1752.080902576</ele>
        <time>2015-06-06T13:02:10Z</time>
      </trkpt>
      <trkpt lat="45.35613" lon="5.89676">
        <ele>1752.080902576</ele>
        <time>2015-06-06T13:02:14Z</time>
      </trkpt>
      <trkpt lat="45.35603" lon="5.89683">
        <ele>1741.329722592</ele>
        <time>2015-06-06T13:02:19Z</time>
      </trkpt>
      <trkpt lat="45.35604" lon="5.89685">
        <ele>1741.329722592</ele>
        <time>2015-06-06T13:02:25Z</time>
      </trkpt>
      <trkpt lat="45.35608" lon="5.89688">
        <ele>1741.329722592</ele>
        <time>2015-06-06T13:02:30Z</time>
      </trkpt>
      <trkpt lat="45.35608" lon="5.89688">
        <ele>1741.329722592</ele>
        <time>2015-06-06T13:02:34Z</time>
      </trkpt>
      <trkpt lat="45.35608" lon="5.89686">
        <ele>1741.329722592</ele>
        <time>2015-06-06T13:02:41Z</time>
      </trkpt>
      <trkpt lat="45.35609" lon="5.89685">
        <ele>1729.753733373</ele>
        <time>2015-06-06T13:02:45Z</time>
      </trkpt>
      <trkpt lat="45.35609" lon="5.89685">
        <ele>1729.753733373</ele>
        <time>2015-06-06T13:02:50Z</time>
      </trkpt>
      <trkpt lat="45.35609" lon="5.89685">
        <ele>1729.753733373</ele>
        <time>2015-06-06T13:02:54Z</time>
      </trkpt>
      <trkpt lat="45.35609" lon="5.89685">
        <ele>1729.753733373</ele>
        <time>2015-06-06T13:03:00Z</time>
      </trkpt>
      <trkpt lat="45.35608" lon="5.89697">
        <ele>1729.753733373</ele>
        <time>2015-06-06T13:03:05Z</time>
      </trkpt>
      <trkpt lat="45.356" lon="5.89712">
        <ele>1718.306535201</ele>
        <time>2015-06-06T13:03:11Z</time>
      </trkpt>
      <trkpt lat="45.35605" lon="5.89717">
        <ele>1718.306535201</ele>
        <time>2015-06-06T13:03:15Z</time>
      </trkpt>
      <trkpt lat="45.35612" lon="5.89726">
        <ele>1705.997313574</ele>
        <time>2015-06-06T13:03:20Z</time>
      </trkpt>
      <trkpt lat="45.35611" lon="5.89731">
        <ele>1705.997313574</ele>
        <time>2015-06-06T13:03:26Z</time>
      </trkpt>
      <trkpt lat="45.35607" lon="5.89734">
        <ele>1705.997313574</ele>
        <time>2015-06-06T13:03:30Z</time>
      </trkpt>
      <trkpt lat="45.3561" lon="5.89734">
        <ele>1693.062745261</ele>
        <time>2015-06-06T13:03:35Z</time>
      </trkpt>
      <trkpt lat="45.35614" lon="5.89737">
        <ele>1693.062745261</ele>
        <time>2015-06-06T13:03:40Z</time>
      </trkpt>
      <trkpt lat="45.35619" lon="5.89745">
        <ele>1680.299677317</ele>
        <time>2015-06-06T13:03:45Z</time>
      </trkpt>
      <trkpt lat="45.35622" lon="5.89755">
        <ele>1680.299677317</ele>
        <time>2015-06-06T13:03:50Z</time>
      </trkpt>
      <trkpt lat="45.35627" lon="5.89762">
        <ele>1668.01292551</ele>
        <time>2015-06-06T13:03:55Z</time>
      </trkpt>
      <trkpt lat="45.35633" lon="5.89771">
        <ele>1656.194640845</ele>
        <time>2015-06-06T13:04:00Z</time>
      </trkpt>
      <trkpt lat="45.35633" lon="5.89785">
        <ele>1645.556051943</ele>
        <time>2015-06-06T13:04:06Z</time>
      </trkpt>
      <trkpt lat="45.35639" lon="5.89794">
        <ele>1645.556051943</ele>
        <time>2015-06-06T13:04:10Z</time>
      </trkpt>
      <trkpt lat="45.35635" lon="5.89806">
        <ele>1635.599184815</ele>
        <time>2015-06-06T13:04:15Z</time>
      </trkpt>
      <trkpt lat="45.35637" lon="5.89815">
        <ele>1635.599184815</ele>
        <time>2015-06-06T13:04:20Z</time>
      </trkpt>
      <trkpt lat="45.35639" lon="5.89822">
        <ele>1626.436414172</ele>
        <time>2015-06-06T13:04:25Z</time>
      </trkpt>
      <trkpt lat="45.35634" lon="5.89824">
        <ele>1626.436414172</ele>
        <time>2015-06-06T13:04:30Z</time>
      </trkpt>
      <trkpt lat="45.35635" lon="5.89827">
        <ele>1626.436414172</ele>
        <time>2015-06-06T13:04:35Z</time>
      </trkpt>
      <trkpt lat="45.35644" lon="5.89827">
        <ele>1616.871867805</ele>
        <time>2015-06-06T13:04:40Z</time>
      </trkpt>
      <trkpt lat="45.35639" lon="5.89846">
        <ele>1608.536006167</ele>
        <time>2015-06-06T13:04:45Z</time>
      </trkpt>
      <trkpt lat="45.35632" lon="5.89842">
        <ele>1608.536006167</ele>
        <time>2015-06-06T13:04:50Z</time>
      </trkpt>
      <trkpt lat="45.35626" lon="5.89843">
        <ele>1600.485440232</ele>
        <time>2015-06-06T13:04:55Z</time>
      </trkpt>
      <trkpt lat="45.35628" lon="5.89851">
        <ele>1600.485440232</ele>
        <time>2015-06-06T13:05:00Z</time>
      </trkpt>
      <trkpt lat="45.35632" lon="5.89861">
        <ele>1592.997450425</ele>
        <time>2015-06-06T13:05:06Z</time>
      </trkpt>
      <trkpt lat="45.3563" lon="5.89866">
        <ele>1592.997450425</ele>
        <time>2015-06-06T13:05:09Z</time>
      </trkpt>
      <trkpt lat="45.35631" lon="5.89874">
        <ele>1586.61489776</ele>
        <time>2015-06-06T13:05:15Z</time>
      </trkpt>
      <trkpt lat="45.35637" lon="5.89875">
        <ele>1586.61489776</ele>
        <time>2015-06-06T13:05:20Z</time>
      </trkpt>
      <trkpt lat="45.35644" lon="5.89881">
        <ele>1580.972334187</ele>
        <time>2015-06-06T13:05:24Z</time>
      </trkpt>
      <trkpt lat="45.3564" lon="5.89904">
        <ele>1576.016678465</ele>
        <time>2015-06-06T13:05:31Z</time>
      </trkpt>
      <trkpt lat="45.35644" lon="5.89912">
        <ele>1576.016678465</ele>
        <time>2015-06-06T13:05:35Z</time>
      </trkpt>
      <trkpt lat="45.35646" lon="5.89918">
        <ele>1571.263905248</ele>
        <time>2015-06-06T13:05:40Z</time>
      </trkpt>
      <trkpt lat="45.35641" lon="5.8992">
        <ele>1571.263905248</ele>
        <time>2015-06-06T13:05:45Z</time>
      </trkpt>
      <trkpt lat="45.35633" lon="5.89937">
        <ele>1567.273218311</ele>
        <time>2015-06-06T13:05:50Z</time>
      </trkpt>
      <trkpt lat="45.35633" lon="5.89941">
        <ele>1567.273218311</ele>
        <time>2015-06-06T13:05:55Z</time>
      </trkpt>
      <trkpt lat="45.35628" lon="5.89944">
        <ele>1567.273218311</ele>
        <time>2015-06-06T13:06:00Z</time>
      </trkpt>
      <trkpt lat="45.35625" lon="5.89953">
        <ele>1563.551339643</ele>
        <time>2015-06-06T13:06:05Z</time>
      </trkpt>
      <trkpt lat="45.35627" lon="5.89961">
        <ele>1563.551339643</ele>
        <time>2015-06-06T13:06:10Z</time>
      </trkpt>
      <trkpt lat="45.35625" lon="5.89968">
        <ele>1559.78414733</ele>
        <time>2015-06-06T13:06:15Z</time>
      </trkpt>
      <trkpt lat="45.35618" lon="5.89977">
        <ele>1556.833225505</ele>
        <time>2015-06-06T13:06:20Z</time>
      </trkpt>
      <trkpt lat="45.35611" lon="5.89974">
        <ele>1556.833225505</ele>
        <time>2015-06-06T13:06:25Z</time>
      </trkpt>
      <trkpt lat="45.35609" lon="5.89974">
        <ele>1554.197242497</ele>
        <time>2015-06-06T13:06:29Z</time>
      </trkpt>
      <trkpt lat="45.35609" lon="5.89957">
        <ele>1550.978193302</ele>
        <time>2015-06-06T13:06:34Z</time>
      </trkpt>
      <trkpt lat="45.35611" lon="5.8996">
        <ele>1550.978193302</ele>
        <time>2015-06-06T13:06:39Z</time>
      </trkpt>
      <trkpt lat="45.35612" lon="5.89963">
        <ele>1550.978193302</ele>
        <time>2015-06-06T13:06:46Z</time>
      </trkpt>
      <trkpt lat="45.35612" lon="5.89964">
        <ele>1550.978193302</ele>
        <time>2015-06-06T13:06:50Z</time>
      </trkpt>
      <trkpt lat="45.35612" lon="5.89964">
        <ele>1550.978193302</ele>
        <time>2015-06-06T13:06:55Z</time>
      </trkpt>
      <trkpt lat="45.35612" lon="5.89964">
        <ele>1550.978193302</ele>
        <time>2015-06-06T13:07:00Z</time>
      </trkpt>
      <trkpt lat="45.35612" lon="5.89964">
        <ele>1550.978193302</ele>
        <time>2015-06-06T13:07:06Z</time>
      </trkpt>
      <trkpt lat="45.35612" lon="5.89964">
        <ele>1550.978193302</ele>
        <time>2015-06-06T13:07:10Z</time>
      </trkpt>
      <trkpt lat="45.35612" lon="5.89964">
        <ele>1550.978193302</ele>
        <time>2015-06-06T13:07:15Z</time>
      </trkpt>
      <trkpt lat="45.35612" lon="5.89964">
        <ele>1550.978193302</ele>
        <time>2015-06-06T13:07:20Z</time>
      </trkpt>
      <trkpt lat="45.35612" lon="5.89964">
        <ele>1550.978193302</ele>
        <time>2015-06-06T13:07:26Z</time>
      </trkpt>
      <trkpt lat="45.35612" lon="5.89964">
        <ele>1550.978193302</ele>
        <time>2015-06-06T13:07:30Z</time>
      </trkpt>
      <trkpt lat="45.35612" lon="5.89969">
        <ele>1548.795331829</ele>
        <time>2015-06-06T13:07:35Z</time>
      </trkpt>
      <trkpt lat="45.35611" lon="5.89995">
        <ele>1546.840093119</ele>
        <time>2015-06-06T13:07:40Z</time>
      </trkpt>
      <trkpt lat="45.35614" lon="5.90015">
        <ele>1544.362533538</ele>
        <time>2015-06-06T13:07:45Z</time>
      </trkpt>
      <trkpt lat="45.35615" lon="5.90027">
        <ele>1544.362533538</ele>
        <time>2015-06-06T13:07:50Z</time>
      </trkpt>
      <trkpt lat="45.35617" lon="5.90037">
        <ele>1541.822062515</ele>
        <time>2015-06-06T13:07:55Z</time>
      </trkpt>
      <trkpt lat="45.35621" lon="5.90048">
        <ele>1541.822062515</ele>
        <time>2015-06-06T13:08:00Z</time>
      </trkpt>
      <trkpt lat="45.35631" lon="5.90058">
        <ele>1538.923912046</ele>
        <time>2015-06-06T13:08:06Z</time>
      </trkpt>
      <trkpt lat="45.35633" lon="5.90069">
        <ele>1538.923912046</ele>
        <time>2015-06-06T13:08:10Z</time>
      </trkpt>
      <trkpt lat="45.35638" lon="5.90078">
        <ele>1536.116514293</ele>
        <time>2015-06-06T13:08:15Z</time>
      </trkpt>
      <trkpt lat="45.35645" lon="5.90082">
        <ele>1536.116514293</ele>
        <time>2015-06-06T13:08:20Z</time>
      </trkpt>
      <trkpt lat="45.3565" lon="5.90083">
        <ele>1533.6710155</ele>
        <time>2015-06-06T13:08:26Z</time>
      </trkpt>
      <trkpt lat="45.35653" lon="5.90092">
        <ele>1533.6710155</ele>
        <time>2015-06-06T13:08:29Z</time>
      </trkpt>
      <trkpt lat="45.35663" lon="5.90099">
        <ele>1530.828902145</ele>
        <time>2015-06-06T13:08:34Z</time>
      </trkpt>
      <trkpt lat="45.35664" lon="5.90116">
        <ele>1528.762019572</ele>
        <time>2015-06-06T13:08:40Z</time>
      </trkpt>
      <trkpt lat="45.35668" lon="5.90134">
        <ele>1527.545287587</ele>
        <time>2015-06-06T13:08:45Z</time>
      </trkpt>
      <trkpt lat="45.35667" lon="5.90151">
        <ele>1526.381210234</ele>
        <time>2015-06-06T13:08:50Z</time>
      </trkpt>
      <trkpt lat="45.35669" lon="5.90155">
        <ele>1526.381210234</ele>
        <time>2015-06-06T13:08:55Z</time>
      </trkpt>
      <trkpt lat="45.35679" lon="5.90157">
        <ele>1525.395563917</ele>
        <time>2015-06-06T13:09:00Z</time>
      </trkpt>
      <trkpt lat="45.35682" lon="5.90167">
        <ele>1525.395563917</ele>
        <time>2015-06-06T13:09:06Z</time>
      </trkpt>
      <trkpt lat="45.35679" lon="5.90166">
        <ele>1525.5692536</ele>
        <time>2015-06-06T13:09:09Z</time>
      </trkpt>
      <trkpt lat="45.35678" lon="5.90165">
        <ele>1525.5692536</ele>
        <time>2015-06-06T13:09:15Z</time>
      </trkpt>
      <trkpt lat="45.35678" lon="5.90166">
        <ele>1525.5692536</ele>
        <time>2015-06-06T13:09:20Z</time>
      </trkpt>
      <trkpt lat="45.35678" lon="5.90166">
        <ele>1525.5692536</ele>
        <time>2015-06-06T13:09:26Z</time>
      </trkpt>
      <trkpt lat="45.35678" lon="5.90166">
        <ele>1525.5692536</ele>
        <time>2015-06-06T13:09:30Z</time>
      </trkpt>
      <trkpt lat="45.35678" lon="5.90166">
        <ele>1525.5692536</ele>
        <time>2015-06-06T13:09:35Z</time>
      </trkpt>
      <trkpt lat="45.35678" lon="5.90166">
        <ele>1525.5692536</ele>
        <time>2015-06-06T13:09:40Z</time>
      </trkpt>
      <trkpt lat="45.35678" lon="5.90166">
        <ele>1525.5692536</ele>
        <time>2015-06-06T13:09:45Z</time>
      </trkpt>
      <trkpt lat="45.35678" lon="5.90166">
        <ele>1525.5692536</ele>
        <time>2015-06-06T13:09:50Z</time>
      </trkpt>
      <trkpt lat="45.35678" lon="5.90166">
        <ele>1525.5692536</ele>
        <time>2015-06-06T13:09:55Z</time>
      </trkpt>
      <trkpt lat="45.35678" lon="5.90166">
        <ele>1525.5692536</ele>
        <time>2015-06-06T13:10:00Z</time>
      </trkpt>
      <trkpt lat="45.35678" lon="5.90166">
        <ele>1525.704999564</ele>
        <time>2015-06-06T13:10:06Z</time>
      </trkpt>
      <trkpt lat="45.35678" lon="5.90166">
        <ele>1525.840745528</ele>
        <time>2015-06-06T13:10:10Z</time>
      </trkpt>
      <trkpt lat="45.35678" lon="5.90166">
        <ele>1525.976491492</ele>
        <time>2015-06-06T13:10:15Z</time>
      </trkpt>
      <trkpt lat="45.35678" lon="5.90166">
        <ele>1526.112237456</ele>
        <time>2015-06-06T13:10:20Z</time>
      </trkpt>
      <trkpt lat="45.35677" lon="5.90166">
        <ele>1526.24798342</ele>
        <time>2015-06-06T13:10:25Z</time>
      </trkpt>
      <trkpt lat="45.35655" lon="5.90167">
        <ele>1526.383729384</ele>
        <time>2015-06-06T13:10:30Z</time>
      </trkpt>
      <trkpt lat="45.35649" lon="5.90167">
        <ele>1526.519475348</ele>
        <time>2015-06-06T13:10:34Z</time>
      </trkpt>
      <trkpt lat="45.35643" lon="5.90171">
        <ele>1526.655221312</ele>
        <time>2015-06-06T13:10:39Z</time>
      </trkpt>
      <trkpt lat="45.35633" lon="5.9017">
        <ele>1528.278158296</ele>
        <time>2015-06-06T13:10:46Z</time>
      </trkpt>
      <trkpt lat="45.35623" lon="5.90169">
        <ele>1530.089127689</ele>
        <time>2015-06-06T13:10:50Z</time>
      </trkpt>
      <trkpt lat="45.35611" lon="5.90176">
        <ele>1532.196978542</ele>
        <time>2015-06-06T13:10:55Z</time>
      </trkpt>
      <trkpt lat="45.35602" lon="5.9018">
        <ele>1534.558005541</ele>
        <time>2015-06-06T13:11:00Z</time>
      </trkpt>
      <trkpt lat="45.3559" lon="5.90185">
        <ele>1536.843203261</ele>
        <time>2015-06-06T13:11:05Z</time>
      </trkpt>
      <trkpt lat="45.35578" lon="5.90187">
        <ele>1539.036625085</ele>
        <time>2015-06-06T13:11:09Z</time>
      </trkpt>
      <trkpt lat="45.3556" lon="5.90199">
        <ele>1540.836015504</ele>
        <time>2015-06-06T13:11:15Z</time>
      </trkpt>
      <trkpt lat="45.35551" lon="5.90197">
        <ele>1540.836015504</ele>
        <time>2015-06-06T13:11:20Z</time>
      </trkpt>
      <trkpt lat="45.35538" lon="5.90196">
        <ele>1540.534807447</ele>
        <time>2015-06-06T13:11:25Z</time>
      </trkpt>
      <trkpt lat="45.35529" lon="5.90193">
        <ele>1540.233599389</ele>
        <time>2015-06-06T13:11:30Z</time>
      </trkpt>
      <trkpt lat="45.35521" lon="5.90205">
        <ele>1538.402680718</ele>
        <time>2015-06-06T13:11:36Z</time>
      </trkpt>
      <trkpt lat="45.35518" lon="5.90199">
        <ele>1538.402680718</ele>
        <time>2015-06-06T13:11:39Z</time>
      </trkpt>
      <trkpt lat="45.3551" lon="5.902">
        <ele>1534.993223433</ele>
        <time>2015-06-06T13:11:45Z</time>
      </trkpt>
      <trkpt lat="45.35501" lon="5.90199">
        <ele>1531.415169687</ele>
        <time>2015-06-06T13:11:50Z</time>
      </trkpt>
      <trkpt lat="45.35497" lon="5.90183">
        <ele>1526.814171551</ele>
        <time>2015-06-06T13:11:56Z</time>
      </trkpt>
      <trkpt lat="45.35488" lon="5.9019">
        <ele>1522.563626102</ele>
        <time>2015-06-06T13:12:00Z</time>
      </trkpt>
      <trkpt lat="45.35487" lon="5.90192">
        <ele>1522.563626102</ele>
        <time>2015-06-06T13:12:05Z</time>
      </trkpt>
      <trkpt lat="45.35482" lon="5.902">
        <ele>1518.062027487</ele>
        <time>2015-06-06T13:12:10Z</time>
      </trkpt>
      <trkpt lat="45.35482" lon="5.90205">
        <ele>1518.062027487</ele>
        <time>2015-06-06T13:12:15Z</time>
      </trkpt>
      <trkpt lat="45.35478" lon="5.90212">
        <ele>1513.473696167</ele>
        <time>2015-06-06T13:12:20Z</time>
      </trkpt>
      <trkpt lat="45.35473" lon="5.90223">
        <ele>1513.473696167</ele>
        <time>2015-06-06T13:12:24Z</time>
      </trkpt>
      <trkpt lat="45.35473" lon="5.90212">
        <ele>1507.798579523</ele>
        <time>2015-06-06T13:12:29Z</time>
      </trkpt>
      <trkpt lat="45.35473" lon="5.90212">
        <ele>1507.798579523</ele>
        <time>2015-06-06T13:12:34Z</time>
      </trkpt>
      <trkpt lat="45.35473" lon="5.90211">
        <ele>1507.798579523</ele>
        <time>2015-06-06T13:12:39Z</time>
      </trkpt>
      <trkpt lat="45.35473" lon="5.90213">
        <ele>1507.798579523</ele>
        <time>2015-06-06T13:12:45Z</time>
      </trkpt>
      <trkpt lat="45.35471" lon="5.90223">
        <ele>1501.410443993</ele>
        <time>2015-06-06T13:12:50Z</time>
      </trkpt>
      <trkpt lat="45.35474" lon="5.90237">
        <ele>1495.666646305</ele>
        <time>2015-06-06T13:12:55Z</time>
      </trkpt>
      <trkpt lat="45.35475" lon="5.90245">
        <ele>1495.666646305</ele>
        <time>2015-06-06T13:13:00Z</time>
      </trkpt>
      <trkpt lat="45.35476" lon="5.90246">
        <ele>1495.666646305</ele>
        <time>2015-06-06T13:13:05Z</time>
      </trkpt>
      <trkpt lat="45.35476" lon="5.90247">
        <ele>1495.666646305</ele>
        <time>2015-06-06T13:13:10Z</time>
      </trkpt>
      <trkpt lat="45.35476" lon="5.90247">
        <ele>1495.666646305</ele>
        <time>2015-06-06T13:13:15Z</time>
      </trkpt>
      <trkpt lat="45.35476" lon="5.90248">
        <ele>1489.949809673</ele>
        <time>2015-06-06T13:13:19Z</time>
      </trkpt>
      <trkpt lat="45.35464" lon="5.90271">
        <ele>1484.552693202</ele>
        <time>2015-06-06T13:13:25Z</time>
      </trkpt>
      <trkpt lat="45.35463" lon="5.90283">
        <ele>1484.552693202</ele>
        <time>2015-06-06T13:13:30Z</time>
      </trkpt>
      <trkpt lat="45.35462" lon="5.90295">
        <ele>1479.025255128</ele>
        <time>2015-06-06T13:13:35Z</time>
      </trkpt>
      <trkpt lat="45.35465" lon="5.90296">
        <ele>1479.025255128</ele>
        <time>2015-06-06T13:13:40Z</time>
      </trkpt>
      <trkpt lat="45.35462" lon="5.90297">
        <ele>1479.025255128</ele>
        <time>2015-06-06T13:13:45Z</time>
      </trkpt>
      <trkpt lat="45.35463" lon="5.90293">
        <ele>1473.815673395</ele>
        <time>2015-06-06T13:13:50Z</time>
      </trkpt>
      <trkpt lat="45.35452" lon="5.90281">
        <ele>1468.041409507</ele>
        <time>2015-06-06T13:13:55Z</time>
      </trkpt>
      <trkpt lat="45.35443" lon="5.90274">
        <ele>1463.048080582</ele>
        <time>2015-06-06T13:14:00Z</time>
      </trkpt>
      <trkpt lat="45.35441" lon="5.90263">
        <ele>1463.048080582</ele>
        <time>2015-06-06T13:14:05Z</time>
      </trkpt>
      <trkpt lat="45.35438" lon="5.90256">
        <ele>1458.350981208</ele>
        <time>2015-06-06T13:14:10Z</time>
      </trkpt>
      <trkpt lat="45.35429" lon="5.90246">
        <ele>1454.364879928</ele>
        <time>2015-06-06T13:14:14Z</time>
      </trkpt>
      <trkpt lat="45.35428" lon="5.90234">
        <ele>1454.364879928</ele>
        <time>2015-06-06T13:14:20Z</time>
      </trkpt>
      <trkpt lat="45.35429" lon="5.90232">
        <ele>1450.895655117</ele>
        <time>2015-06-06T13:14:25Z</time>
      </trkpt>
      <trkpt lat="45.35426" lon="5.90236">
        <ele>1450.895655117</ele>
        <time>2015-06-06T13:14:30Z</time>
      </trkpt>
      <trkpt lat="45.35426" lon="5.90233">
        <ele>1450.895655117</ele>
        <time>2015-06-06T13:14:35Z</time>
      </trkpt>
      <trkpt lat="45.35426" lon="5.9023">
        <ele>1450.895655117</ele>
        <time>2015-06-06T13:14:39Z</time>
      </trkpt>
      <trkpt lat="45.35426" lon="5.9023">
        <ele>1450.895655117</ele>
        <time>2015-06-06T13:14:45Z</time>
      </trkpt>
      <trkpt lat="45.3542" lon="5.90206">
        <ele>1447.473781417</ele>
        <time>2015-06-06T13:14:49Z</time>
      </trkpt>
      <trkpt lat="45.3542" lon="5.90188">
        <ele>1444.672873916</ele>
        <time>2015-06-06T13:14:55Z</time>
      </trkpt>
      <trkpt lat="45.35414" lon="5.90178">
        <ele>1442.302116027</ele>
        <time>2015-06-06T13:15:00Z</time>
      </trkpt>
      <trkpt lat="45.3541" lon="5.90153">
        <ele>1440.471730805</ele>
        <time>2015-06-06T13:15:05Z</time>
      </trkpt>
      <trkpt lat="45.35408" lon="5.90152">
        <ele>1440.471730805</ele>
        <time>2015-06-06T13:15:10Z</time>
      </trkpt>
      <trkpt lat="45.35407" lon="5.90144">
        <ele>1440.471730805</ele>
        <time>2015-06-06T13:15:15Z</time>
      </trkpt>
      <trkpt lat="45.35408" lon="5.90135">
        <ele>1438.705896442</ele>
        <time>2015-06-06T13:15:20Z</time>
      </trkpt>
      <trkpt lat="45.35406" lon="5.90128">
        <ele>1438.705896442</ele>
        <time>2015-06-06T13:15:25Z</time>
      </trkpt>
      <trkpt lat="45.35397" lon="5.90111">
        <ele>1437.140029603</ele>
        <time>2015-06-06T13:15:30Z</time>
      </trkpt>
      <trkpt lat="45.35396" lon="5.90107">
        <ele>1437.140029603</ele>
        <time>2015-06-06T13:15:35Z</time>
      </trkpt>
      <trkpt lat="45.35393" lon="5.90103">
        <ele>1437.140029603</ele>
        <time>2015-06-06T13:15:40Z</time>
      </trkpt>
      <trkpt lat="45.35392" lon="5.90098">
        <ele>1436.043181638</ele>
        <time>2015-06-06T13:15:45Z</time>
      </trkpt>
      <trkpt lat="45.3539" lon="5.90095">
        <ele>1436.043181638</ele>
        <time>2015-06-06T13:15:50Z</time>
      </trkpt>
      <trkpt lat="45.35386" lon="5.90093">
        <ele>1436.043181638</ele>
        <time>2015-06-06T13:15:55Z</time>
      </trkpt>
      <trkpt lat="45.35381" lon="5.90083">
        <ele>1434.654589052</ele>
        <time>2015-06-06T13:16:00Z</time>
      </trkpt>
      <trkpt lat="45.35374" lon="5.90083">
        <ele>1434.654589052</ele>
        <time>2015-06-06T13:16:05Z</time>
      </trkpt>
      <trkpt lat="45.35375" lon="5.90075">
        <ele>1432.126133638</ele>
        <time>2015-06-06T13:16:10Z</time>
      </trkpt>
      <trkpt lat="45.35369" lon="5.90062">
        <ele>1429.692813969</ele>
        <time>2015-06-06T13:16:15Z</time>
      </trkpt>
      <trkpt lat="45.35362" lon="5.90051">
        <ele>1427.778149877</ele>
        <time>2015-06-06T13:16:20Z</time>
      </trkpt>
      <trkpt lat="45.35358" lon="5.90046">
        <ele>1427.778149877</ele>
        <time>2015-06-06T13:16:25Z</time>
      </trkpt>
      <trkpt lat="45.35347" lon="5.90045">
        <ele>1425.7643859</ele>
        <time>2015-06-06T13:16:30Z</time>
      </trkpt>
      <trkpt lat="45.35344" lon="5.90034">
        <ele>1425.7643859</ele>
        <time>2015-06-06T13:16:35Z</time>
      </trkpt>
      <trkpt lat="45.3534" lon="5.90029">
        <ele>1423.367717821</ele>
        <time>2015-06-06T13:16:40Z</time>
      </trkpt>
      <trkpt lat="45.35338" lon="5.90018">
        <ele>1423.367717821</ele>
        <time>2015-06-06T13:16:45Z</time>
      </trkpt>
      <trkpt lat="45.35332" lon="5.90012">
        <ele>1420.902780881</ele>
        <time>2015-06-06T13:16:50Z</time>
      </trkpt>
      <trkpt lat="45.35331" lon="5.90004">
        <ele>1420.902780881</ele>
        <time>2015-06-06T13:16:55Z</time>
      </trkpt>
      <trkpt lat="45.35328" lon="5.90002">
        <ele>1420.902780881</ele>
        <time>2015-06-06T13:17:00Z</time>
      </trkpt>
      <trkpt lat="45.35318" lon="5.89985">
        <ele>1418.229028452</ele>
        <time>2015-06-06T13:17:05Z</time>
      </trkpt>
      <trkpt lat="45.35311" lon="5.89977">
        <ele>1415.937452631</ele>
        <time>2015-06-06T13:17:10Z</time>
      </trkpt>
      <trkpt lat="45.35309" lon="5.89973">
        <ele>1415.937452631</ele>
        <time>2015-06-06T13:17:14Z</time>
      </trkpt>
      <trkpt lat="45.35308" lon="5.89973">
        <ele>1415.937452631</ele>
        <time>2015-06-06T13:17:19Z</time>
      </trkpt>
      <trkpt lat="45.35309" lon="5.89973">
        <ele>1415.937452631</ele>
        <time>2015-06-06T13:17:24Z</time>
      </trkpt>
      <trkpt lat="45.35309" lon="5.89972">
        <ele>1415.937452631</ele>
        <time>2015-06-06T13:17:30Z</time>
      </trkpt>
      <trkpt lat="45.35309" lon="5.89972">
        <ele>1415.937452631</ele>
        <time>2015-06-06T13:17:35Z</time>
      </trkpt>
      <trkpt lat="45.35309" lon="5.89972">
        <ele>1415.937452631</ele>
        <time>2015-06-06T13:17:39Z</time>
      </trkpt>
      <trkpt lat="45.35309" lon="5.89972">
        <ele>1415.937452631</ele>
        <time>2015-06-06T13:17:45Z</time>
      </trkpt>
      <trkpt lat="45.35309" lon="5.89972">
        <ele>1415.937452631</ele>
        <time>2015-06-06T13:17:50Z</time>
      </trkpt>
      <trkpt lat="45.35309" lon="5.89972">
        <ele>1415.937452631</ele>
        <time>2015-06-06T13:17:55Z</time>
      </trkpt>
      <trkpt lat="45.35309" lon="5.89972">
        <ele>1415.937452631</ele>
        <time>2015-06-06T13:17:59Z</time>
      </trkpt>
      <trkpt lat="45.35309" lon="5.89972">
        <ele>1415.937452631</ele>
        <time>2015-06-06T13:18:05Z</time>
      </trkpt>
      <trkpt lat="45.35303" lon="5.89965">
        <ele>1413.421741203</ele>
        <time>2015-06-06T13:18:10Z</time>
      </trkpt>
      <trkpt lat="45.35286" lon="5.89932">
        <ele>1410.409040916</ele>
        <time>2015-06-06T13:18:15Z</time>
      </trkpt>
      <trkpt lat="45.35264" lon="5.89915">
        <ele>1407.512668872</ele>
        <time>2015-06-06T13:18:20Z</time>
      </trkpt>
      <trkpt lat="45.35249" lon="5.89897">
        <ele>1405.300624866</ele>
        <time>2015-06-06T13:18:25Z</time>
      </trkpt>
      <trkpt lat="45.35244" lon="5.8989">
        <ele>1405.300624866</ele>
        <time>2015-06-06T13:18:30Z</time>
      </trkpt>
      <trkpt lat="45.35244" lon="5.89889">
        <ele>1405.300624866</ele>
        <time>2015-06-06T13:18:35Z</time>
      </trkpt>
      <trkpt lat="45.35239" lon="5.89884">
        <ele>1403.000323596</ele>
        <time>2015-06-06T13:18:40Z</time>
      </trkpt>
      <trkpt lat="45.35236" lon="5.89876">
        <ele>1403.000323596</ele>
        <time>2015-06-06T13:18:45Z</time>
      </trkpt>
      <trkpt lat="45.35232" lon="5.89876">
        <ele>1399.896237707</ele>
        <time>2015-06-06T13:18:50Z</time>
      </trkpt>
      <trkpt lat="45.35231" lon="5.89868">
        <ele>1399.896237707</ele>
        <time>2015-06-06T13:18:55Z</time>
      </trkpt>
      <trkpt lat="45.35228" lon="5.89865">
        <ele>1395.904153705</ele>
        <time>2015-06-06T13:19:00Z</time>
      </trkpt>
      <trkpt lat="45.35223" lon="5.89858">
        <ele>1395.904153705</ele>
        <time>2015-06-06T13:19:05Z</time>
      </trkpt>
      <trkpt lat="45.35215" lon="5.89846">
        <ele>1391.957359357</ele>
        <time>2015-06-06T13:19:10Z</time>
      </trkpt>
      <trkpt lat="45.35213" lon="5.89849">
        <ele>1391.957359357</ele>
        <time>2015-06-06T13:19:15Z</time>
      </trkpt>
      <trkpt lat="45.35207" lon="5.8984">
        <ele>1388.055825881</ele>
        <time>2015-06-06T13:19:20Z</time>
      </trkpt>
      <trkpt lat="45.352" lon="5.89833">
        <ele>1388.055825881</ele>
        <time>2015-06-06T13:19:25Z</time>
      </trkpt>
      <trkpt lat="45.352" lon="5.89824">
        <ele>1384.487647271</ele>
        <time>2015-06-06T13:19:30Z</time>
      </trkpt>
      <trkpt lat="45.35193" lon="5.89822">
        <ele>1384.487647271</ele>
        <time>2015-06-06T13:19:35Z</time>
      </trkpt>
      <trkpt lat="45.35183" lon="5.89814">
        <ele>1380.79827761</ele>
        <time>2015-06-06T13:19:40Z</time>
      </trkpt>
      <trkpt lat="45.35182" lon="5.89809">
        <ele>1380.79827761</ele>
        <time>2015-06-06T13:19:44Z</time>
      </trkpt>
      <trkpt lat="45.35186" lon="5.89804">
        <ele>1380.79827761</ele>
        <time>2015-06-06T13:19:49Z</time>
      </trkpt>
      <trkpt lat="45.35185" lon="5.89801">
        <ele>1375.990459794</ele>
        <time>2015-06-06T13:19:54Z</time>
      </trkpt>
      <trkpt lat="45.35184" lon="5.89802">
        <ele>1375.990459794</ele>
        <time>2015-06-06T13:19:59Z</time>
      </trkpt>
      <trkpt lat="45.35183" lon="5.89802">
        <ele>1375.990459794</ele>
        <time>2015-06-06T13:20:05Z</time>
      </trkpt>
      <trkpt lat="45.35183" lon="5.89802">
        <ele>1375.990459794</ele>
        <time>2015-06-06T13:20:10Z</time>
      </trkpt>
      <trkpt lat="45.35183" lon="5.89802">
        <ele>1375.990459794</ele>
        <time>2015-06-06T13:20:15Z</time>
      </trkpt>
      <trkpt lat="45.35183" lon="5.89802">
        <ele>1375.990459794</ele>
        <time>2015-06-06T13:20:20Z</time>
      </trkpt>
      <trkpt lat="45.35183" lon="5.89802">
        <ele>1375.990459794</ele>
        <time>2015-06-06T13:20:24Z</time>
      </trkpt>
      <trkpt lat="45.35183" lon="5.89802">
        <ele>1375.990459794</ele>
        <time>2015-06-06T13:20:30Z</time>
      </trkpt>
      <trkpt lat="45.35183" lon="5.89802">
        <ele>1375.990459794</ele>
        <time>2015-06-06T13:20:35Z</time>
      </trkpt>
      <trkpt lat="45.35183" lon="5.89802">
        <ele>1375.990459794</ele>
        <time>2015-06-06T13:20:39Z</time>
      </trkpt>
      <trkpt lat="45.35183" lon="5.89802">
        <ele>1375.990459794</ele>
        <time>2015-06-06T13:20:45Z</time>
      </trkpt>
      <trkpt lat="45.35168" lon="5.89799">
        <ele>1372.601993874</ele>
        <time>2015-06-06T13:20:50Z</time>
      </trkpt>
      <trkpt lat="45.35145" lon="5.89799">
        <ele>1369.953924721</ele>
        <time>2015-06-06T13:20:55Z</time>
      </trkpt>
      <trkpt lat="45.3513" lon="5.898">
        <ele>1368.135634191</ele>
        <time>2015-06-06T13:21:00Z</time>
      </trkpt>
      <trkpt lat="45.35121" lon="5.89788">
        <ele>1366.795260802</ele>
        <time>2015-06-06T13:21:05Z</time>
      </trkpt>
      <trkpt lat="45.35114" lon="5.8979">
        <ele>1366.795260802</ele>
        <time>2015-06-06T13:21:10Z</time>
      </trkpt>
      <trkpt lat="45.35101" lon="5.89799">
        <ele>1364.452549752</ele>
        <time>2015-06-06T13:21:15Z</time>
      </trkpt>
      <trkpt lat="45.35093" lon="5.89788">
        <ele>1362.332794514</ele>
        <time>2015-06-06T13:21:20Z</time>
      </trkpt>
      <trkpt lat="45.3509" lon="5.89769">
        <ele>1359.985434676</ele>
        <time>2015-06-06T13:21:25Z</time>
      </trkpt>
      <trkpt lat="45.35085" lon="5.89772">
        <ele>1359.985434676</ele>
        <time>2015-06-06T13:21:30Z</time>
      </trkpt>
      <trkpt lat="45.35085" lon="5.89767">
        <ele>1357.425988321</ele>
        <time>2015-06-06T13:21:35Z</time>
      </trkpt>
      <trkpt lat="45.35085" lon="5.89766">
        <ele>1357.425988321</ele>
        <time>2015-06-06T13:21:39Z</time>
      </trkpt>
      <trkpt lat="45.35085" lon="5.89763">
        <ele>1357.425988321</ele>
        <time>2015-06-06T13:21:45Z</time>
      </trkpt>
      <trkpt lat="45.35086" lon="5.89759">
        <ele>1357.425988321</ele>
        <time>2015-06-06T13:21:50Z</time>
      </trkpt>
      <trkpt lat="45.35086" lon="5.8976">
        <ele>1357.425988321</ele>
        <time>2015-06-06T13:21:55Z</time>
      </trkpt>
      <trkpt lat="45.35086" lon="5.8976">
        <ele>1357.425988321</ele>
        <time>2015-06-06T13:22:00Z</time>
      </trkpt>
      <trkpt lat="45.35086" lon="5.8976">
        <ele>1357.425988321</ele>
        <time>2015-06-06T13:22:05Z</time>
      </trkpt>
      <trkpt lat="45.35086" lon="5.89759">
        <ele>1357.425988321</ele>
        <time>2015-06-06T13:22:10Z</time>
      </trkpt>
      <trkpt lat="45.35086" lon="5.89759">
        <ele>1357.425988321</ele>
        <time>2015-06-06T13:22:15Z</time>
      </trkpt>
      <trkpt lat="45.35086" lon="5.89759">
        <ele>1357.425988321</ele>
        <time>2015-06-06T13:22:20Z</time>
      </trkpt>
      <trkpt lat="45.35086" lon="5.89759">
        <ele>1357.425988321</ele>
        <time>2015-06-06T13:22:25Z</time>
      </trkpt>
      <trkpt lat="45.35086" lon="5.89759">
        <ele>1357.425988321</ele>
        <time>2015-06-06T13:22:30Z</time>
      </trkpt>
      <trkpt lat="45.35086" lon="5.89759">
        <ele>1357.425988321</ele>
        <time>2015-06-06T13:22:35Z</time>
      </trkpt>
      <trkpt lat="45.35085" lon="5.89755">
        <ele>1354.525328168</ele>
        <time>2015-06-06T13:22:40Z</time>
      </trkpt>
      <trkpt lat="45.35083" lon="5.89727">
        <ele>1351.020669279</ele>
        <time>2015-06-06T13:22:45Z</time>
      </trkpt>
      <trkpt lat="45.35082" lon="5.89714">
        <ele>1347.246677651</ele>
        <time>2015-06-06T13:22:50Z</time>
      </trkpt>
      <trkpt lat="45.3508" lon="5.897">
        <ele>1343.658304595</ele>
        <time>2015-06-06T13:22:55Z</time>
      </trkpt>
      <trkpt lat="45.35078" lon="5.8968">
        <ele>1339.811889255</ele>
        <time>2015-06-06T13:22:59Z</time>
      </trkpt>
      <trkpt lat="45.35073" lon="5.89674">
        <ele>1339.811889255</ele>
        <time>2015-06-06T13:23:04Z</time>
      </trkpt>
      <trkpt lat="45.35072" lon="5.89669">
        <ele>1336.305852756</ele>
        <time>2015-06-06T13:23:09Z</time>
      </trkpt>
      <trkpt lat="45.35072" lon="5.89665">
        <ele>1336.305852756</ele>
        <time>2015-06-06T13:23:14Z</time>
      </trkpt>
      <trkpt lat="45.35072" lon="5.89664">
        <ele>1336.305852756</ele>
        <time>2015-06-06T13:23:19Z</time>
      </trkpt>
      <trkpt lat="45.35072" lon="5.89664">
        <ele>1336.305852756</ele>
        <time>2015-06-06T13:23:24Z</time>
      </trkpt>
      <trkpt lat="45.35072" lon="5.89664">
        <ele>1336.305852756</ele>
        <time>2015-06-06T13:23:29Z</time>
      </trkpt>
      <trkpt lat="45.35072" lon="5.89662">
        <ele>1336.305852756</ele>
        <time>2015-06-06T13:23:34Z</time>
      </trkpt>
      <trkpt lat="45.35072" lon="5.89662">
        <ele>1336.305852756</ele>
        <time>2015-06-06T13:23:39Z</time>
      </trkpt>
      <trkpt lat="45.3507" lon="5.89658">
        <ele>1333.837796901</ele>
        <time>2015-06-06T13:23:44Z</time>
      </trkpt>
      <trkpt lat="45.35069" lon="5.89656">
        <ele>1333.837796901</ele>
        <time>2015-06-06T13:23:49Z</time>
      </trkpt>
      <trkpt lat="45.35068" lon="5.89654">
        <ele>1333.837796901</ele>
        <time>2015-06-06T13:23:54Z</time>
      </trkpt>
      <trkpt lat="45.35068" lon="5.89653">
        <ele>1333.837796901</ele>
        <time>2015-06-06T13:23:59Z</time>
      </trkpt>
      <trkpt lat="45.35068" lon="5.89653">
        <ele>1333.837796901</ele>
        <time>2015-06-06T13:24:04Z</time>
      </trkpt>
      <trkpt lat="45.35068" lon="5.89653">
        <ele>1333.94361848</ele>
        <time>2015-06-06T13:24:10Z</time>
      </trkpt>
      <trkpt lat="45.35068" lon="5.89653">
        <ele>1334.049440059</ele>
        <time>2015-06-06T13:24:15Z</time>
      </trkpt>
      <trkpt lat="45.35067" lon="5.89653">
        <ele>1334.155261637</ele>
        <time>2015-06-06T13:24:20Z</time>
      </trkpt>
      <trkpt lat="45.35067" lon="5.89653">
        <ele>1334.261083216</ele>
        <time>2015-06-06T13:24:25Z</time>
      </trkpt>
      <trkpt lat="45.35067" lon="5.89653">
        <ele>1334.366904795</ele>
        <time>2015-06-06T13:24:30Z</time>
      </trkpt>
      <trkpt lat="45.35067" lon="5.89653">
        <ele>1334.472726374</ele>
        <time>2015-06-06T13:24:35Z</time>
      </trkpt>
      <trkpt lat="45.35067" lon="5.89653">
        <ele>1334.578547953</ele>
        <time>2015-06-06T13:24:39Z</time>
      </trkpt>
      <trkpt lat="45.35067" lon="5.89653">
        <ele>1334.684369532</ele>
        <time>2015-06-06T13:24:45Z</time>
      </trkpt>
      <trkpt lat="45.35067" lon="5.89653">
        <ele>1334.79019111</ele>
        <time>2015-06-06T13:24:50Z</time>
      </trkpt>
      <trkpt lat="45.35067" lon="5.89653">
        <ele>1334.896012689</ele>
        <time>2015-06-06T13:24:55Z</time>
      </trkpt>
      <trkpt lat="45.35067" lon="5.89653">
        <ele>1335.001834268</ele>
        <time>2015-06-06T13:25:00Z</time>
      </trkpt>
      <trkpt lat="45.35067" lon="5.89653">
        <ele>1335.107655847</ele>
        <time>2015-06-06T13:25:05Z</time>
      </trkpt>
      <trkpt lat="45.35067" lon="5.89652">
        <ele>1335.213477426</ele>
        <time>2015-06-06T13:25:10Z</time>
      </trkpt>
      <trkpt lat="45.35066" lon="5.89652">
        <ele>1335.319299005</ele>
        <time>2015-06-06T13:25:15Z</time>
      </trkpt>
      <trkpt lat="45.35066" lon="5.89652">
        <ele>1335.425120583</ele>
        <time>2015-06-06T13:25:20Z</time>
      </trkpt>
      <trkpt lat="45.35066" lon="5.89652">
        <ele>1335.530942162</ele>
        <time>2015-06-06T13:25:25Z</time>
      </trkpt>
      <trkpt lat="45.35065" lon="5.89652">
        <ele>1335.636763741</ele>
        <time>2015-06-06T13:25:30Z</time>
      </trkpt>
      <trkpt lat="45.35065" lon="5.89651">
        <ele>1335.74258532</ele>
        <time>2015-06-06T13:25:35Z</time>
      </trkpt>
      <trkpt lat="45.35065" lon="5.89651">
        <ele>1335.848406899</ele>
        <time>2015-06-06T13:25:40Z</time>
      </trkpt>
      <trkpt lat="45.35065" lon="5.89651">
        <ele>1335.954228478</ele>
        <time>2015-06-06T13:25:44Z</time>
      </trkpt>
      <trkpt lat="45.35064" lon="5.89651">
        <ele>1336.060050056</ele>
        <time>2015-06-06T13:25:49Z</time>
      </trkpt>
      <trkpt lat="45.35064" lon="5.8965">
        <ele>1336.165871635</ele>
        <time>2015-06-06T13:25:56Z</time>
      </trkpt>
      <trkpt lat="45.35064" lon="5.8965">
        <ele>1336.271693214</ele>
        <time>2015-06-06T13:25:59Z</time>
      </trkpt>
      <trkpt lat="45.35064" lon="5.8965">
        <ele>1336.377514793</ele>
        <time>2015-06-06T13:26:04Z</time>
      </trkpt>
      <trkpt lat="45.35064" lon="5.8965">
        <ele>1336.483336372</ele>
        <time>2015-06-06T13:26:09Z</time>
      </trkpt>
      <trkpt lat="45.35063" lon="5.8965">
        <ele>1336.589157951</ele>
        <time>2015-06-06T13:26:14Z</time>
      </trkpt>
      <trkpt lat="45.35063" lon="5.8965">
        <ele>1336.694979529</ele>
        <time>2015-06-06T13:26:20Z</time>
      </trkpt>
      <trkpt lat="45.35063" lon="5.89649">
        <ele>1336.800801108</ele>
        <time>2015-06-06T13:26:25Z</time>
      </trkpt>
      <trkpt lat="45.35063" lon="5.89649">
        <ele>1336.906622687</ele>
        <time>2015-06-06T13:26:30Z</time>
      </trkpt>
      <trkpt lat="45.35063" lon="5.89649">
        <ele>1337.012444266</ele>
        <time>2015-06-06T13:26:35Z</time>
      </trkpt>
      <trkpt lat="45.35062" lon="5.89649">
        <ele>1337.118265845</ele>
        <time>2015-06-06T13:26:39Z</time>
      </trkpt>
      <trkpt lat="45.35062" lon="5.89648">
        <ele>1337.224087424</ele>
        <time>2015-06-06T13:26:45Z</time>
      </trkpt>
      <trkpt lat="45.35062" lon="5.89648">
        <ele>1337.329909003</ele>
        <time>2015-06-06T13:26:50Z</time>
      </trkpt>
      <trkpt lat="45.35062" lon="5.89648">
        <ele>1337.435730581</ele>
        <time>2015-06-06T13:26:55Z</time>
      </trkpt>
      <trkpt lat="45.35062" lon="5.89648">
        <ele>1337.54155216</ele>
        <time>2015-06-06T13:27:00Z</time>
      </trkpt>
      <trkpt lat="45.35062" lon="5.89648">
        <ele>1337.647373739</ele>
        <time>2015-06-06T13:27:05Z</time>
      </trkpt>
      <trkpt lat="45.35062" lon="5.89648">
        <ele>1337.753195318</ele>
        <time>2015-06-06T13:27:10Z</time>
      </trkpt>
      <trkpt lat="45.35062" lon="5.89648">
        <ele>1337.859016897</ele>
        <time>2015-06-06T13:27:15Z</time>
      </trkpt>
      <trkpt lat="45.35062" lon="5.89648">
        <ele>1337.964838476</ele>
        <time>2015-06-06T13:27:20Z</time>
      </trkpt>
      <trkpt lat="45.35076" lon="5.89604">
        <ele>1338.070660054</ele>
        <time>2015-06-06T13:27:24Z</time>
      </trkpt>
      <trkpt lat="45.35093" lon="5.89544">
        <ele>1338.176481633</ele>
        <time>2015-06-06T13:27:36Z</time>
      </trkpt>
      <trkpt lat="45.35096" lon="5.8952">
        <ele>1338.282303212</ele>
        <time>2015-06-06T13:27:39Z</time>
      </trkpt>
      <trkpt lat="45.35097" lon="5.89496">
        <ele>1338.388124791</ele>
        <time>2015-06-06T13:27:46Z</time>
      </trkpt>
      <trkpt lat="45.35098" lon="5.89484">
        <ele>1338.49394637</ele>
        <time>2015-06-06T13:27:50Z</time>
      </trkpt>
      <trkpt lat="45.35096" lon="5.89466">
        <ele>1338.599767949</ele>
        <time>2015-06-06T13:27:55Z</time>
      </trkpt>
      <trkpt lat="45.35095" lon="5.89448">
        <ele>1338.705589527</ele>
        <time>2015-06-06T13:28:00Z</time>
      </trkpt>
      <trkpt lat="45.35086" lon="5.89427">
        <ele>1338.811411106</ele>
        <time>2015-06-06T13:28:05Z</time>
      </trkpt>
      <trkpt lat="45.35081" lon="5.89409">
        <ele>1338.917232685</ele>
        <time>2015-06-06T13:28:11Z</time>
      </trkpt>
      <trkpt lat="45.35079" lon="5.89393">
        <ele>1339.023054264</ele>
        <time>2015-06-06T13:28:15Z</time>
      </trkpt>
      <trkpt lat="45.35074" lon="5.89378">
        <ele>1339.128875843</ele>
        <time>2015-06-06T13:28:20Z</time>
      </trkpt>
      <trkpt lat="45.35076" lon="5.89358">
        <ele>1339.234697422</ele>
        <time>2015-06-06T13:28:25Z</time>
      </trkpt>
      <trkpt lat="45.35075" lon="5.89345">
        <ele>1339.340519</ele>
        <time>2015-06-06T13:28:30Z</time>
      </trkpt>
      <trkpt lat="45.35072" lon="5.89331">
        <ele>1339.446340579</ele>
        <time>2015-06-06T13:28:35Z</time>
      </trkpt>
      <trkpt lat="45.35064" lon="5.89321">
        <ele>1339.552162158</ele>
        <time>2015-06-06T13:28:40Z</time>
      </trkpt>
      <trkpt lat="45.35062" lon="5.89311">
        <ele>1339.657983737</ele>
        <time>2015-06-06T13:28:45Z</time>
      </trkpt>
      <trkpt lat="45.35053" lon="5.89308">
        <ele>1339.763805316</ele>
        <time>2015-06-06T13:28:50Z</time>
      </trkpt>
      <trkpt lat="45.35052" lon="5.89293">
        <ele>1339.869626895</ele>
        <time>2015-06-06T13:28:55Z</time>
      </trkpt>
      <trkpt lat="45.35046" lon="5.89291">
        <ele>1339.975448473</ele>
        <time>2015-06-06T13:29:00Z</time>
      </trkpt>
      <trkpt lat="45.35037" lon="5.89288">
        <ele>1340.081270052</ele>
        <time>2015-06-06T13:29:05Z</time>
      </trkpt>
      <trkpt lat="45.35032" lon="5.89275">
        <ele>1340.187091631</ele>
        <time>2015-06-06T13:29:10Z</time>
      </trkpt>
      <trkpt lat="45.35037" lon="5.89264">
        <ele>1340.29291321</ele>
        <time>2015-06-06T13:29:15Z</time>
      </trkpt>
      <trkpt lat="45.3503" lon="5.89262">
        <ele>1340.398734789</ele>
        <time>2015-06-06T13:29:20Z</time>
      </trkpt>
      <trkpt lat="45.35033" lon="5.89255">
        <ele>1340.504556368</ele>
        <time>2015-06-06T13:29:25Z</time>
      </trkpt>
      <trkpt lat="45.35029" lon="5.8925">
        <ele>1340.610377946</ele>
        <time>2015-06-06T13:29:31Z</time>
      </trkpt>
      <trkpt lat="45.35026" lon="5.89249">
        <ele>1340.716199525</ele>
        <time>2015-06-06T13:29:35Z</time>
      </trkpt>
      <trkpt lat="45.3503" lon="5.89229">
        <ele>1340.822021104</ele>
        <time>2015-06-06T13:29:40Z</time>
      </trkpt>
      <trkpt lat="45.35024" lon="5.89229">
        <ele>1340.927842683</ele>
        <time>2015-06-06T13:29:45Z</time>
      </trkpt>
      <trkpt lat="45.35028" lon="5.89222">
        <ele>1341.033664262</ele>
        <time>2015-06-06T13:29:50Z</time>
      </trkpt>
      <trkpt lat="45.35027" lon="5.89214">
        <ele>1341.139485841</ele>
        <time>2015-06-06T13:29:55Z</time>
      </trkpt>
      <trkpt lat="45.35019" lon="5.89222">
        <ele>1341.245307419</ele>
        <time>2015-06-06T13:30:00Z</time>
      </trkpt>
      <trkpt lat="45.3501" lon="5.89225">
        <ele>1341.351128998</ele>
        <time>2015-06-06T13:30:05Z</time>
      </trkpt>
      <trkpt lat="45.35008" lon="5.89221">
        <ele>1341.456950577</ele>
        <time>2015-06-06T13:30:11Z</time>
      </trkpt>
      <trkpt lat="45.35005" lon="5.89225">
        <ele>1341.562772156</ele>
        <time>2015-06-06T13:30:15Z</time>
      </trkpt>
      <trkpt lat="45.35011" lon="5.89217">
        <ele>1341.668593735</ele>
        <time>2015-06-06T13:30:20Z</time>
      </trkpt>
      <trkpt lat="45.35005" lon="5.89218">
        <ele>1341.774415314</ele>
        <time>2015-06-06T13:30:25Z</time>
      </trkpt>
      <trkpt lat="45.34988" lon="5.8922">
        <ele>1341.880236892</ele>
        <time>2015-06-06T13:30:30Z</time>
      </trkpt>
      <trkpt lat="45.34984" lon="5.89211">
        <ele>1341.986058471</ele>
        <time>2015-06-06T13:30:35Z</time>
      </trkpt>
      <trkpt lat="45.34974" lon="5.89216">
        <ele>1350.428820016</ele>
        <time>2015-06-06T13:30:40Z</time>
      </trkpt>
      <trkpt lat="45.3497" lon="5.89216">
        <ele>1350.428820016</ele>
        <time>2015-06-06T13:30:45Z</time>
      </trkpt>
      <trkpt lat="45.34963" lon="5.89215">
        <ele>1358.536650238</ele>
        <time>2015-06-06T13:30:50Z</time>
      </trkpt>
      <trkpt lat="45.34962" lon="5.89206">
        <ele>1358.536650238</ele>
        <time>2015-06-06T13:30:55Z</time>
      </trkpt>
      <trkpt lat="45.34958" lon="5.89206">
        <ele>1367.168564929</ele>
        <time>2015-06-06T13:31:00Z</time>
      </trkpt>
      <trkpt lat="45.34954" lon="5.89192">
        <ele>1375.245800767</ele>
        <time>2015-06-06T13:31:05Z</time>
      </trkpt>
      <trkpt lat="45.34948" lon="5.89191">
        <ele>1375.245800767</ele>
        <time>2015-06-06T13:31:09Z</time>
      </trkpt>
      <trkpt lat="45.34953" lon="5.89187">
        <ele>1383.500043196</ele>
        <time>2015-06-06T13:31:14Z</time>
      </trkpt>
      <trkpt lat="45.34956" lon="5.89189">
        <ele>1383.500043196</ele>
        <time>2015-06-06T13:31:19Z</time>
      </trkpt>
      <trkpt lat="45.34963" lon="5.89201">
        <ele>1390.591554395</ele>
        <time>2015-06-06T13:31:25Z</time>
      </trkpt>
      <trkpt lat="45.34966" lon="5.8921">
        <ele>1390.591554395</ele>
        <time>2015-06-06T13:31:30Z</time>
      </trkpt>
      <trkpt lat="45.34972" lon="5.89213">
        <ele>1396.435598347</ele>
        <time>2015-06-06T13:31:35Z</time>
      </trkpt>
      <trkpt lat="45.34977" lon="5.8922">
        <ele>1396.435598347</ele>
        <time>2015-06-06T13:31:40Z</time>
      </trkpt>
      <trkpt lat="45.34982" lon="5.89222">
        <ele>1401.534086384</ele>
        <time>2015-06-06T13:31:45Z</time>
      </trkpt>
      <trkpt lat="45.34985" lon="5.89225">
        <ele>1401.534086384</ele>
        <time>2015-06-06T13:31:50Z</time>
      </trkpt>
      <trkpt lat="45.3499" lon="5.8923">
        <ele>1406.354662991</ele>
        <time>2015-06-06T13:31:54Z</time>
      </trkpt>
      <trkpt lat="45.34996" lon="5.89235">
        <ele>1406.354662991</ele>
        <time>2015-06-06T13:32:00Z</time>
      </trkpt>
      <trkpt lat="45.35006" lon="5.89234">
        <ele>1410.899600366</ele>
        <time>2015-06-06T13:32:05Z</time>
      </trkpt>
      <trkpt lat="45.35004" lon="5.8924">
        <ele>1410.899600366</ele>
        <time>2015-06-06T13:32:10Z</time>
      </trkpt>
      <trkpt lat="45.3501" lon="5.89245">
        <ele>1414.019434954</ele>
        <time>2015-06-06T13:32:15Z</time>
      </trkpt>
      <trkpt lat="45.35011" lon="5.89251">
        <ele>1414.019434954</ele>
        <time>2015-06-06T13:32:20Z</time>
      </trkpt>
      <trkpt lat="45.35016" lon="5.89259">
        <ele>1415.345341876</ele>
        <time>2015-06-06T13:32:24Z</time>
      </trkpt>
      <trkpt lat="45.35024" lon="5.89267">
        <ele>1416.671248799</ele>
        <time>2015-06-06T13:32:29Z</time>
      </trkpt>
      <trkpt lat="45.35028" lon="5.89272">
        <ele>1416.671248799</ele>
        <time>2015-06-06T13:32:35Z</time>
      </trkpt>
      <trkpt lat="45.35028" lon="5.89276">
        <ele>1416.671248799</ele>
        <time>2015-06-06T13:32:40Z</time>
      </trkpt>
      <trkpt lat="45.35032" lon="5.89281">
        <ele>1418.302567995</ele>
        <time>2015-06-06T13:32:45Z</time>
      </trkpt>
      <trkpt lat="45.35035" lon="5.89287">
        <ele>1418.233264914</ele>
        <time>2015-06-06T13:32:51Z</time>
      </trkpt>
      <trkpt lat="45.35032" lon="5.89296">
        <ele>1418.163961832</ele>
        <time>2015-06-06T13:32:55Z</time>
      </trkpt>
      <trkpt lat="45.35031" lon="5.8931">
        <ele>1418.09465875</ele>
        <time>2015-06-06T13:33:00Z</time>
      </trkpt>
      <trkpt lat="45.35031" lon="5.89317">
        <ele>1418.025355669</ele>
        <time>2015-06-06T13:33:05Z</time>
      </trkpt>
      <trkpt lat="45.35038" lon="5.89322">
        <ele>1417.956052587</ele>
        <time>2015-06-06T13:33:09Z</time>
      </trkpt>
      <trkpt lat="45.35043" lon="5.89336">
        <ele>1417.886749505</ele>
        <time>2015-06-06T13:33:16Z</time>
      </trkpt>
      <trkpt lat="45.35042" lon="5.89337">
        <ele>1417.817446423</ele>
        <time>2015-06-06T13:33:20Z</time>
      </trkpt>
      <trkpt lat="45.35048" lon="5.89344">
        <ele>1417.748143342</ele>
        <time>2015-06-06T13:33:24Z</time>
      </trkpt>
      <trkpt lat="45.35054" lon="5.89355">
        <ele>1417.67884026</ele>
        <time>2015-06-06T13:33:30Z</time>
      </trkpt>
      <trkpt lat="45.35027" lon="5.89353">
        <ele>1417.609537178</ele>
        <time>2015-06-06T13:33:50Z</time>
      </trkpt>
      <trkpt lat="45.35039" lon="5.89348">
        <ele>1417.540234097</ele>
        <time>2015-06-06T13:33:55Z</time>
      </trkpt>
      <trkpt lat="45.3504" lon="5.89348">
        <ele>1417.540234097</ele>
        <time>2015-06-06T13:33:59Z</time>
      </trkpt>
      <trkpt lat="45.3504" lon="5.89348">
        <ele>1417.540234097</ele>
        <time>2015-06-06T13:34:04Z</time>
      </trkpt>
      <trkpt lat="45.35043" lon="5.89361">
        <ele>1417.15430064</ele>
        <time>2015-06-06T13:34:10Z</time>
      </trkpt>
      <trkpt lat="45.35044" lon="5.89367">
        <ele>1417.15430064</ele>
        <time>2015-06-06T13:34:15Z</time>
      </trkpt>
      <trkpt lat="45.35047" lon="5.89374">
        <ele>1416.10798223</ele>
        <time>2015-06-06T13:34:20Z</time>
      </trkpt>
      <trkpt lat="45.35052" lon="5.89377">
        <ele>1416.10798223</ele>
        <time>2015-06-06T13:34:25Z</time>
      </trkpt>
      <trkpt lat="45.35051" lon="5.89383">
        <ele>1415.17228877</ele>
        <time>2015-06-06T13:34:30Z</time>
      </trkpt>
      <trkpt lat="45.35059" lon="5.89393">
        <ele>1413.476466887</ele>
        <time>2015-06-06T13:34:35Z</time>
      </trkpt>
      <trkpt lat="45.35057" lon="5.89392">
        <ele>1413.476466887</ele>
        <time>2015-06-06T13:34:40Z</time>
      </trkpt>
      <trkpt lat="45.35059" lon="5.89401">
        <ele>1413.476466887</ele>
        <time>2015-06-06T13:34:45Z</time>
      </trkpt>
      <trkpt lat="45.35062" lon="5.89408">
        <ele>1411.94556365</ele>
        <time>2015-06-06T13:34:50Z</time>
      </trkpt>
      <trkpt lat="45.35058" lon="5.89406">
        <ele>1411.94556365</ele>
        <time>2015-06-06T13:34:55Z</time>
      </trkpt>
      <trkpt lat="45.35054" lon="5.89406">
        <ele>1411.94556365</ele>
        <time>2015-06-06T13:35:00Z</time>
      </trkpt>
      <trkpt lat="45.35063" lon="5.89423">
        <ele>1411.004207643</ele>
        <time>2015-06-06T13:35:05Z</time>
      </trkpt>
      <trkpt lat="45.35071" lon="5.8943">
        <ele>1410.179808616</ele>
        <time>2015-06-06T13:35:10Z</time>
      </trkpt>
      <trkpt lat="45.35079" lon="5.89432">
        <ele>1410.179808616</ele>
        <time>2015-06-06T13:35:15Z</time>
      </trkpt>
      <trkpt lat="45.35088" lon="5.89438">
        <ele>1408.02564536</ele>
        <time>2015-06-06T13:35:20Z</time>
      </trkpt>
      <trkpt lat="45.3509" lon="5.89441">
        <ele>1408.02564536</ele>
        <time>2015-06-06T13:35:24Z</time>
      </trkpt>
      <trkpt lat="45.35092" lon="5.89449">
        <ele>1406.37567391</ele>
        <time>2015-06-06T13:35:29Z</time>
      </trkpt>
      <trkpt lat="45.35094" lon="5.89453">
        <ele>1406.37567391</ele>
        <time>2015-06-06T13:35:34Z</time>
      </trkpt>
      <trkpt lat="45.35094" lon="5.8946">
        <ele>1406.37567391</ele>
        <time>2015-06-06T13:35:40Z</time>
      </trkpt>
      <trkpt lat="45.35098" lon="5.89461">
        <ele>1405.342686343</ele>
        <time>2015-06-06T13:35:45Z</time>
      </trkpt>
      <trkpt lat="45.35099" lon="5.89465">
        <ele>1405.342686343</ele>
        <time>2015-06-06T13:35:50Z</time>
      </trkpt>
      <trkpt lat="45.35094" lon="5.89466">
        <ele>1405.342686343</ele>
        <time>2015-06-06T13:35:54Z</time>
      </trkpt>
      <trkpt lat="45.35094" lon="5.89467">
        <ele>1405.342686343</ele>
        <time>2015-06-06T13:35:59Z</time>
      </trkpt>
      <trkpt lat="45.35094" lon="5.89467">
        <ele>1405.342686343</ele>
        <time>2015-06-06T13:36:04Z</time>
      </trkpt>
      <trkpt lat="45.35094" lon="5.89467">
        <ele>1405.342686343</ele>
        <time>2015-06-06T13:36:10Z</time>
      </trkpt>
      <trkpt lat="45.35094" lon="5.89467">
        <ele>1405.342686343</ele>
        <time>2015-06-06T13:36:15Z</time>
      </trkpt>
      <trkpt lat="45.35094" lon="5.89467">
        <ele>1405.342686343</ele>
        <time>2015-06-06T13:36:20Z</time>
      </trkpt>
      <trkpt lat="45.35094" lon="5.89467">
        <ele>1405.342686343</ele>
        <time>2015-06-06T13:36:24Z</time>
      </trkpt>
      <trkpt lat="45.35094" lon="5.89467">
        <ele>1405.342686343</ele>
        <time>2015-06-06T13:36:30Z</time>
      </trkpt>
      <trkpt lat="45.35094" lon="5.89467">
        <ele>1405.342686343</ele>
        <time>2015-06-06T13:36:35Z</time>
      </trkpt>
      <trkpt lat="45.35094" lon="5.89467">
        <ele>1405.342686343</ele>
        <time>2015-06-06T13:36:40Z</time>
      </trkpt>
      <trkpt lat="45.35097" lon="5.89478">
        <ele>1405.46195826</ele>
        <time>2015-06-06T13:36:45Z</time>
      </trkpt>
      <trkpt lat="45.35102" lon="5.89488">
        <ele>1405.46195826</ele>
        <time>2015-06-06T13:36:51Z</time>
      </trkpt>
      <trkpt lat="45.35109" lon="5.89497">
        <ele>1405.929353926</ele>
        <time>2015-06-06T13:36:55Z</time>
      </trkpt>
      <trkpt lat="45.35116" lon="5.89499">
        <ele>1405.929353926</ele>
        <time>2015-06-06T13:37:00Z</time>
      </trkpt>
      <trkpt lat="45.35118" lon="5.895">
        <ele>1406.863625063</ele>
        <time>2015-06-06T13:37:05Z</time>
      </trkpt>
      <trkpt lat="45.35121" lon="5.89504">
        <ele>1406.863625063</ele>
        <time>2015-06-06T13:37:11Z</time>
      </trkpt>
      <trkpt lat="45.35123" lon="5.89505">
        <ele>1406.863625063</ele>
        <time>2015-06-06T13:37:15Z</time>
      </trkpt>
      <trkpt lat="45.35124" lon="5.89506">
        <ele>1406.863625063</ele>
        <time>2015-06-06T13:37:20Z</time>
      </trkpt>
      <trkpt lat="45.35123" lon="5.89505">
        <ele>1406.863625063</ele>
        <time>2015-06-06T13:37:25Z</time>
      </trkpt>
      <trkpt lat="45.35123" lon="5.89505">
        <ele>1406.863625063</ele>
        <time>2015-06-06T13:37:31Z</time>
      </trkpt>
      <trkpt lat="45.35123" lon="5.89505">
        <ele>1406.863625063</ele>
        <time>2015-06-06T13:37:35Z</time>
      </trkpt>
      <trkpt lat="45.35123" lon="5.89505">
        <ele>1406.863625063</ele>
        <time>2015-06-06T13:37:40Z</time>
      </trkpt>
      <trkpt lat="45.35123" lon="5.89505">
        <ele>1406.863625063</ele>
        <time>2015-06-06T13:37:45Z</time>
      </trkpt>
      <trkpt lat="45.35123" lon="5.89505">
        <ele>1406.863625063</ele>
        <time>2015-06-06T13:37:51Z</time>
      </trkpt>
      <trkpt lat="45.35123" lon="5.89505">
        <ele>1406.863625063</ele>
        <time>2015-06-06T13:37:55Z</time>
      </trkpt>
      <trkpt lat="45.35123" lon="5.89505">
        <ele>1406.863625063</ele>
        <time>2015-06-06T13:38:00Z</time>
      </trkpt>
      <trkpt lat="45.35123" lon="5.89505">
        <ele>1406.863625063</ele>
        <time>2015-06-06T13:38:05Z</time>
      </trkpt>
      <trkpt lat="45.3512" lon="5.89517">
        <ele>1408.805939673</ele>
        <time>2015-06-06T13:38:09Z</time>
      </trkpt>
      <trkpt lat="45.35122" lon="5.89521">
        <ele>1408.805939673</ele>
        <time>2015-06-06T13:38:14Z</time>
      </trkpt>
      <trkpt lat="45.35133" lon="5.89533">
        <ele>1409.805103673</ele>
        <time>2015-06-06T13:38:19Z</time>
      </trkpt>
      <trkpt lat="45.35146" lon="5.89544">
        <ele>1411.370565597</ele>
        <time>2015-06-06T13:38:25Z</time>
      </trkpt>
      <trkpt lat="45.35151" lon="5.89552">
        <ele>1411.370565597</ele>
        <time>2015-06-06T13:38:30Z</time>
      </trkpt>
      <trkpt lat="45.35147" lon="5.89553">
        <ele>1413.314184656</ele>
        <time>2015-06-06T13:38:34Z</time>
      </trkpt>
      <trkpt lat="45.35151" lon="5.89559">
        <ele>1413.314184656</ele>
        <time>2015-06-06T13:38:39Z</time>
      </trkpt>
      <trkpt lat="45.35165" lon="5.8957">
        <ele>1414.451905574</ele>
        <time>2015-06-06T13:38:44Z</time>
      </trkpt>
      <trkpt lat="45.35178" lon="5.89583">
        <ele>1414.697792102</ele>
        <time>2015-06-06T13:38:50Z</time>
      </trkpt>
      <trkpt lat="45.35181" lon="5.89589">
        <ele>1414.697792102</ele>
        <time>2015-06-06T13:38:55Z</time>
      </trkpt>
      <trkpt lat="45.35187" lon="5.8959">
        <ele>1414.40715023</ele>
        <time>2015-06-06T13:39:00Z</time>
      </trkpt>
      <trkpt lat="45.3519" lon="5.89589">
        <ele>1414.40715023</ele>
        <time>2015-06-06T13:39:04Z</time>
      </trkpt>
      <trkpt lat="45.35198" lon="5.89597">
        <ele>1413.910774705</ele>
        <time>2015-06-06T13:39:10Z</time>
      </trkpt>
      <trkpt lat="45.35204" lon="5.89605">
        <ele>1413.910774705</ele>
        <time>2015-06-06T13:39:16Z</time>
      </trkpt>
      <trkpt lat="45.35211" lon="5.89607">
        <ele>1413.80403104</ele>
        <time>2015-06-06T13:39:20Z</time>
      </trkpt>
      <trkpt lat="45.35213" lon="5.89608">
        <ele>1413.80403104</ele>
        <time>2015-06-06T13:39:25Z</time>
      </trkpt>
      <trkpt lat="45.35214" lon="5.89607">
        <ele>1413.80403104</ele>
        <time>2015-06-06T13:39:30Z</time>
      </trkpt>
      <trkpt lat="45.35212" lon="5.89607">
        <ele>1413.80403104</ele>
        <time>2015-06-06T13:39:36Z</time>
      </trkpt>
      <trkpt lat="45.35213" lon="5.89608">
        <ele>1413.80403104</ele>
        <time>2015-06-06T13:39:40Z</time>
      </trkpt>
      <trkpt lat="45.35212" lon="5.89607">
        <ele>1413.80403104</ele>
        <time>2015-06-06T13:39:45Z</time>
      </trkpt>
      <trkpt lat="45.35212" lon="5.89607">
        <ele>1413.80403104</ele>
        <time>2015-06-06T13:39:50Z</time>
      </trkpt>
      <trkpt lat="45.35212" lon="5.89607">
        <ele>1413.80403104</ele>
        <time>2015-06-06T13:39:55Z</time>
      </trkpt>
      <trkpt lat="45.35212" lon="5.89607">
        <ele>1413.80403104</ele>
        <time>2015-06-06T13:40:00Z</time>
      </trkpt>
      <trkpt lat="45.35212" lon="5.89607">
        <ele>1413.80403104</ele>
        <time>2015-06-06T13:40:05Z</time>
      </trkpt>
      <trkpt lat="45.35212" lon="5.89607">
        <ele>1413.80403104</ele>
        <time>2015-06-06T13:40:10Z</time>
      </trkpt>
      <trkpt lat="45.35212" lon="5.89607">
        <ele>1413.80403104</ele>
        <time>2015-06-06T13:40:15Z</time>
      </trkpt>
      <trkpt lat="45.35212" lon="5.89607">
        <ele>1413.80403104</ele>
        <time>2015-06-06T13:40:20Z</time>
      </trkpt>
      <trkpt lat="45.35212" lon="5.89607">
        <ele>1413.80403104</ele>
        <time>2015-06-06T13:40:25Z</time>
      </trkpt>
      <trkpt lat="45.35212" lon="5.89607">
        <ele>1413.80403104</ele>
        <time>2015-06-06T13:40:30Z</time>
      </trkpt>
      <trkpt lat="45.35212" lon="5.89607">
        <ele>1413.80403104</ele>
        <time>2015-06-06T13:40:35Z</time>
      </trkpt>
      <trkpt lat="45.35212" lon="5.89607">
        <ele>1413.80403104</ele>
        <time>2015-06-06T13:40:40Z</time>
      </trkpt>
      <trkpt lat="45.35212" lon="5.89607">
        <ele>1413.80403104</ele>
        <time>2015-06-06T13:40:44Z</time>
      </trkpt>
      <trkpt lat="45.35212" lon="5.89607">
        <ele>1413.80403104</ele>
        <time>2015-06-06T13:40:49Z</time>
      </trkpt>
      <trkpt lat="45.35212" lon="5.89607">
        <ele>1413.80403104</ele>
        <time>2015-06-06T13:40:54Z</time>
      </trkpt>
      <trkpt lat="45.35212" lon="5.89607">
        <ele>1413.80403104</ele>
        <time>2015-06-06T13:40:59Z</time>
      </trkpt>
      <trkpt lat="45.35213" lon="5.89607">
        <ele>1413.80403104</ele>
        <time>2015-06-06T13:41:04Z</time>
      </trkpt>
      <trkpt lat="45.35213" lon="5.89607">
        <ele>1413.80403104</ele>
        <time>2015-06-06T13:41:09Z</time>
      </trkpt>
      <trkpt lat="45.35213" lon="5.89607">
        <ele>1413.80403104</ele>
        <time>2015-06-06T13:41:14Z</time>
      </trkpt>
      <trkpt lat="45.35215" lon="5.89604">
        <ele>1416.10302328</ele>
        <time>2015-06-06T13:43:05Z</time>
      </trkpt>
      <trkpt lat="45.35215" lon="5.89604">
        <ele>1418.40201552</ele>
        <time>2015-06-06T13:43:10Z</time>
      </trkpt>
      <trkpt lat="45.35216" lon="5.89601">
        <ele>1420.70100776</ele>
        <time>2015-06-06T13:43:15Z</time>
      </trkpt>
      <trkpt lat="45.35216" lon="5.896">
        <ele>1423</ele>
        <time>2015-06-06T13:43:20Z</time>
      </trkpt>
      <trkpt lat="45.35216" lon="5.89599">
        <ele>1423</ele>
        <time>2015-06-06T13:43:25Z</time>
      </trkpt>
      <trkpt lat="45.35216" lon="5.89599">
        <ele>1423</ele>
        <time>2015-06-06T13:43:30Z</time>
      </trkpt>
      <trkpt lat="45.35217" lon="5.89598">
        <ele>1423</ele>
        <time>2015-06-06T13:43:35Z</time>
      </trkpt>
      <trkpt lat="45.35217" lon="5.89598">
        <ele>1423</ele>
        <time>2015-06-06T13:43:40Z</time>
      </trkpt>
      <trkpt lat="45.35217" lon="5.89598">
        <ele>1423</ele>
        <time>2015-06-06T13:43:45Z</time>
      </trkpt>
      <trkpt lat="45.35217" lon="5.89598">
        <ele>1423</ele>
        <time>2015-06-06T13:43:50Z</time>
      </trkpt>
      <trkpt lat="45.35217" lon="5.89598">
        <ele>1423</ele>
        <time>2015-06-06T13:43:56Z</time>
      </trkpt>
      <trkpt lat="45.35217" lon="5.89598">
        <ele>1423</ele>
        <time>2015-06-06T13:44:01Z</time>
      </trkpt>
      <trkpt lat="45.35217" lon="5.89598">
        <ele>1423</ele>
        <time>2015-06-06T13:44:05Z</time>
      </trkpt>
      <trkpt lat="45.35217" lon="5.89598">
        <ele>1423</ele>
        <time>2015-06-06T13:44:11Z</time>
      </trkpt>
      <trkpt lat="45.35217" lon="5.89598">
        <ele>1423</ele>
        <time>2015-06-06T13:44:16Z</time>
      </trkpt>
      <trkpt lat="45.35217" lon="5.89598">
        <ele>1423</ele>
        <time>2015-06-06T13:44:20Z</time>
      </trkpt>
      <trkpt lat="45.35217" lon="5.89598">
        <ele>1423</ele>
        <time>2015-06-06T13:44:25Z</time>
      </trkpt>
      <trkpt lat="45.35217" lon="5.89598">
        <ele>1423</ele>
        <time>2015-06-06T13:44:31Z</time>
      </trkpt>
      <trkpt lat="45.35217" lon="5.89598">
        <ele>1423</ele>
        <time>2015-06-06T13:44:36Z</time>
      </trkpt>
      <trkpt lat="45.35217" lon="5.89598">
        <ele>1423</ele>
        <time>2015-06-06T13:44:41Z</time>
      </trkpt>
      <trkpt lat="45.35227" lon="5.8957">
        <ele>1420.380672671</ele>
        <time>2015-06-06T13:44:45Z</time>
      </trkpt>
      <trkpt lat="45.35233" lon="5.89552">
        <ele>1421.033033031</ele>
        <time>2015-06-06T13:44:50Z</time>
      </trkpt>
      <trkpt lat="45.35238" lon="5.89539">
        <ele>1424.299834401</ele>
        <time>2015-06-06T13:44:55Z</time>
      </trkpt>
      <trkpt lat="45.3524" lon="5.89538">
        <ele>1424.299834401</ele>
        <time>2015-06-06T13:45:00Z</time>
      </trkpt>
      <trkpt lat="45.3524" lon="5.89536">
        <ele>1424.299834401</ele>
        <time>2015-06-06T13:45:06Z</time>
      </trkpt>
      <trkpt lat="45.35238" lon="5.89535">
        <ele>1424.299834401</ele>
        <time>2015-06-06T13:45:11Z</time>
      </trkpt>
      <trkpt lat="45.35236" lon="5.89534">
        <ele>1424.299834401</ele>
        <time>2015-06-06T13:45:16Z</time>
      </trkpt>
      <trkpt lat="45.35235" lon="5.89533">
        <ele>1424.299834401</ele>
        <time>2015-06-06T13:45:21Z</time>
      </trkpt>
      <trkpt lat="45.35235" lon="5.89533">
        <ele>1424.299834401</ele>
        <time>2015-06-06T13:45:25Z</time>
      </trkpt>
      <trkpt lat="45.35235" lon="5.89533">
        <ele>1424.299834401</ele>
        <time>2015-06-06T13:45:30Z</time>
      </trkpt>
      <trkpt lat="45.35235" lon="5.89533">
        <ele>1424.299834401</ele>
        <time>2015-06-06T13:45:36Z</time>
      </trkpt>
      <trkpt lat="45.35235" lon="5.89533">
        <ele>1424.299834401</ele>
        <time>2015-06-06T13:45:41Z</time>
      </trkpt>
      <trkpt lat="45.35235" lon="5.89533">
        <ele>1424.299834401</ele>
        <time>2015-06-06T13:45:45Z</time>
      </trkpt>
      <trkpt lat="45.35235" lon="5.89533">
        <ele>1424.299834401</ele>
        <time>2015-06-06T13:45:50Z</time>
      </trkpt>
      <trkpt lat="45.35235" lon="5.89533">
        <ele>1424.299834401</ele>
        <time>2015-06-06T13:45:55Z</time>
      </trkpt>
      <trkpt lat="45.35235" lon="5.89533">
        <ele>1424.299834401</ele>
        <time>2015-06-06T13:46:00Z</time>
      </trkpt>
      <trkpt lat="45.35235" lon="5.89533">
        <ele>1424.299834401</ele>
        <time>2015-06-06T13:46:05Z</time>
      </trkpt>
      <trkpt lat="45.35235" lon="5.89509">
        <ele>1431.620690992</ele>
        <time>2015-06-06T13:46:10Z</time>
      </trkpt>
      <trkpt lat="45.35222" lon="5.89507">
        <ele>1439.147927755</ele>
        <time>2015-06-06T13:46:15Z</time>
      </trkpt>
      <trkpt lat="45.35215" lon="5.89494">
        <ele>1447.051478896</ele>
        <time>2015-06-06T13:46:21Z</time>
      </trkpt>
      <trkpt lat="45.35207" lon="5.89489">
        <ele>1447.051478896</ele>
        <time>2015-06-06T13:46:25Z</time>
      </trkpt>
      <trkpt lat="45.35195" lon="5.8948">
        <ele>1451.157207795</ele>
        <time>2015-06-06T13:46:31Z</time>
      </trkpt>
      <trkpt lat="45.3519" lon="5.89464">
        <ele>1455.262936694</ele>
        <time>2015-06-06T13:46:36Z</time>
      </trkpt>
      <trkpt lat="45.35185" lon="5.89453">
        <ele>1455.262936694</ele>
        <time>2015-06-06T13:46:41Z</time>
      </trkpt>
      <trkpt lat="45.35186" lon="5.89448">
        <ele>1462.955742448</ele>
        <time>2015-06-06T13:46:45Z</time>
      </trkpt>
      <trkpt lat="45.3518" lon="5.89432">
        <ele>1469.870592011</ele>
        <time>2015-06-06T13:46:50Z</time>
      </trkpt>
      <trkpt lat="45.3518" lon="5.89428">
        <ele>1469.870592011</ele>
        <time>2015-06-06T13:46:55Z</time>
      </trkpt>
      <trkpt lat="45.3518" lon="5.89428">
        <ele>1469.870592011</ele>
        <time>2015-06-06T13:47:01Z</time>
      </trkpt>
      <trkpt lat="45.3518" lon="5.89428">
        <ele>1469.870592011</ele>
        <time>2015-06-06T13:47:05Z</time>
      </trkpt>
      <trkpt lat="45.3518" lon="5.89428">
        <ele>1469.870592011</ele>
        <time>2015-06-06T13:47:11Z</time>
      </trkpt>
      <trkpt lat="45.3518" lon="5.89428">
        <ele>1469.870592011</ele>
        <time>2015-06-06T13:47:16Z</time>
      </trkpt>
      <trkpt lat="45.3518" lon="5.89428">
        <ele>1469.870592011</ele>
        <time>2015-06-06T13:47:21Z</time>
      </trkpt>
      <trkpt lat="45.3518" lon="5.89428">
        <ele>1469.870592011</ele>
        <time>2015-06-06T13:47:25Z</time>
      </trkpt>
      <trkpt lat="45.3518" lon="5.89428">
        <ele>1469.870592011</ele>
        <time>2015-06-06T13:47:30Z</time>
      </trkpt>
      <trkpt lat="45.3518" lon="5.89428">
        <ele>1469.870592011</ele>
        <time>2015-06-06T13:47:36Z</time>
      </trkpt>
      <trkpt lat="45.3518" lon="5.89428">
        <ele>1470.190854275</ele>
        <time>2015-06-06T13:47:41Z</time>
      </trkpt>
      <trkpt lat="45.3518" lon="5.89428">
        <ele>1470.511116539</ele>
        <time>2015-06-06T13:47:46Z</time>
      </trkpt>
      <trkpt lat="45.3518" lon="5.89428">
        <ele>1470.831378803</ele>
        <time>2015-06-06T13:47:51Z</time>
      </trkpt>
      <trkpt lat="45.3518" lon="5.89428">
        <ele>1471.151641067</ele>
        <time>2015-06-06T13:47:56Z</time>
      </trkpt>
      <trkpt lat="45.3518" lon="5.89428">
        <ele>1471.471903331</ele>
        <time>2015-06-06T13:48:01Z</time>
      </trkpt>
      <trkpt lat="45.3518" lon="5.89428">
        <ele>1471.792165595</ele>
        <time>2015-06-06T13:48:05Z</time>
      </trkpt>
      <trkpt lat="45.3518" lon="5.89428">
        <ele>1472.112427858</ele>
        <time>2015-06-06T13:48:11Z</time>
      </trkpt>
      <trkpt lat="45.3518" lon="5.89428">
        <ele>1472.432690122</ele>
        <time>2015-06-06T13:48:16Z</time>
      </trkpt>
      <trkpt lat="45.3518" lon="5.89428">
        <ele>1472.752952386</ele>
        <time>2015-06-06T13:48:21Z</time>
      </trkpt>
      <trkpt lat="45.3518" lon="5.89428">
        <ele>1473.07321465</ele>
        <time>2015-06-06T13:48:25Z</time>
      </trkpt>
      <trkpt lat="45.35179" lon="5.89428">
        <ele>1473.393476914</ele>
        <time>2015-06-06T13:48:31Z</time>
      </trkpt>
      <trkpt lat="45.35179" lon="5.89428">
        <ele>1473.713739178</ele>
        <time>2015-06-06T13:48:41Z</time>
      </trkpt>
      <trkpt lat="45.35179" lon="5.89428">
        <ele>1474.034001442</ele>
        <time>2015-06-06T13:48:45Z</time>
      </trkpt>
      <trkpt lat="45.35179" lon="5.89428">
        <ele>1474.354263706</ele>
        <time>2015-06-06T13:48:51Z</time>
      </trkpt>
      <trkpt lat="45.35179" lon="5.89428">
        <ele>1474.674525969</ele>
        <time>2015-06-06T13:48:56Z</time>
      </trkpt>
      <trkpt lat="45.35171" lon="5.89415">
        <ele>1474.994788233</ele>
        <time>2015-06-06T13:49:01Z</time>
      </trkpt>
      <trkpt lat="45.3517" lon="5.89404">
        <ele>1474.994788233</ele>
        <time>2015-06-06T13:49:05Z</time>
      </trkpt>
      <trkpt lat="45.35164" lon="5.89388">
        <ele>1478.122604861</ele>
        <time>2015-06-06T13:49:11Z</time>
      </trkpt>
      <trkpt lat="45.35161" lon="5.89385">
        <ele>1478.122604861</ele>
        <time>2015-06-06T13:49:15Z</time>
      </trkpt>
      <trkpt lat="45.35169" lon="5.89378">
        <ele>1479.115038862</ele>
        <time>2015-06-06T13:49:20Z</time>
      </trkpt>
      <trkpt lat="45.35166" lon="5.8938">
        <ele>1480.107472864</ele>
        <time>2015-06-06T13:49:25Z</time>
      </trkpt>
      <trkpt lat="45.35158" lon="5.89377">
        <ele>1481.943144092</ele>
        <time>2015-06-06T13:49:31Z</time>
      </trkpt>
      <trkpt lat="45.35156" lon="5.89376">
        <ele>1481.943144092</ele>
        <time>2015-06-06T13:49:36Z</time>
      </trkpt>
      <trkpt lat="45.35155" lon="5.89374">
        <ele>1481.943144092</ele>
        <time>2015-06-06T13:49:41Z</time>
      </trkpt>
      <trkpt lat="45.35154" lon="5.89373">
        <ele>1481.943144092</ele>
        <time>2015-06-06T13:49:46Z</time>
      </trkpt>
      <trkpt lat="45.35154" lon="5.89373">
        <ele>1481.943144092</ele>
        <time>2015-06-06T13:49:50Z</time>
      </trkpt>
      <trkpt lat="45.35154" lon="5.89373">
        <ele>1481.943144092</ele>
        <time>2015-06-06T13:49:56Z</time>
      </trkpt>
      <trkpt lat="45.35154" lon="5.89373">
        <ele>1481.943144092</ele>
        <time>2015-06-06T13:50:01Z</time>
      </trkpt>
      <trkpt lat="45.35154" lon="5.89373">
        <ele>1481.943144092</ele>
        <time>2015-06-06T13:50:01Z</time>
      </trkpt>
      <trkpt lat="45.35154" lon="5.89373">
        <ele>1481.943144092</ele>
        <time>2015-06-06T13:50:01Z</time>
      </trkpt>
      <trkpt lat="45.35154" lon="5.89373">
        <ele>1481.943144092</ele>
        <time>2015-06-06T13:50:01Z</time>
      </trkpt>
      <trkpt lat="45.35154" lon="5.89373">
        <ele>1481.943144092</ele>
        <time>2015-06-06T13:50:01Z</time>
      </trkpt>
      <trkpt lat="45.35154" lon="5.89373">
        <ele>1481.943144092</ele>
        <time>2015-06-06T13:50:01Z</time>
      </trkpt>
      <trkpt lat="45.35154" lon="5.89372">
        <ele>1481.943144092</ele>
        <time>2015-06-06T13:50:01Z</time>
      </trkpt>
      <trkpt lat="45.35154" lon="5.89372">
        <ele>1481.943144092</ele>
        <time>2015-06-06T13:50:01Z</time>
      </trkpt>
      <trkpt lat="45.35154" lon="5.89372">
        <ele>1481.943144092</ele>
        <time>2015-06-06T13:50:01Z</time>
      </trkpt>
      <trkpt lat="45.35154" lon="5.89372">
        <ele>1481.943144092</ele>
        <time>2015-06-06T13:50:01Z</time>
      </trkpt>
      <trkpt lat="45.35154" lon="5.89372">
        <ele>1481.943144092</ele>
        <time>2015-06-06T13:50:01Z</time>
      </trkpt>
      <trkpt lat="45.35153" lon="5.89372">
        <ele>1481.943144092</ele>
        <time>2015-06-06T13:50:01Z</time>
      </trkpt>
      <trkpt lat="45.35153" lon="5.89372">
        <ele>1481.943144092</ele>
        <time>2015-06-06T13:50:01Z</time>
      </trkpt>
      <trkpt lat="45.35153" lon="5.89372">
        <ele>1481.943144092</ele>
        <time>2015-06-06T13:50:01Z</time>
      </trkpt>
      <trkpt lat="45.35153" lon="5.89372">
        <ele>1481.943144092</ele>
        <time>2015-06-06T13:50:01Z</time>
      </trkpt>
      <trkpt lat="45.35153" lon="5.89372">
        <ele>1481.943144092</ele>
        <time>2015-06-06T13:50:01Z</time>
      </trkpt>
      <trkpt lat="45.35153" lon="5.89371">
        <ele>1481.943144092</ele>
        <time>2015-06-06T13:50:01Z</time>
      </trkpt>
      <trkpt lat="45.35153" lon="5.89371">
        <ele>1481.943144092</ele>
        <time>2015-06-06T13:50:01Z</time>
      </trkpt>
      <trkpt lat="45.35153" lon="5.89371">
        <ele>1481.943144092</ele>
        <time>2015-06-06T13:50:01Z</time>
      </trkpt>
      <trkpt lat="45.35152" lon="5.89371">
        <ele>1481.943144092</ele>
        <time>2015-06-06T13:50:01Z</time>
      </trkpt>
      <trkpt lat="45.35152" lon="5.89371">
        <ele>1481.943144092</ele>
        <time>2015-06-06T13:50:01Z</time>
      </trkpt>
      <trkpt lat="45.35152" lon="5.89371">
        <ele>1481.943144092</ele>
        <time>2015-06-06T13:50:01Z</time>
      </trkpt>
      <trkpt lat="45.35152" lon="5.89371">
        <ele>1481.943144092</ele>
        <time>2015-06-06T13:50:01Z</time>
      </trkpt>
      <trkpt lat="45.35152" lon="5.89371">
        <ele>1481.943144092</ele>
        <time>2015-06-06T13:50:01Z</time>
      </trkpt>
      <trkpt lat="45.35152" lon="5.89371">
        <ele>1481.943144092</ele>
        <time>2015-06-06T13:50:01Z</time>
      </trkpt>
      <trkpt lat="45.35152" lon="5.89371">
        <ele>1481.943144092</ele>
        <time>2015-06-06T13:50:01Z</time>
      </trkpt>
      <trkpt lat="45.35152" lon="5.89372">
        <ele>1431.51953125</ele>
      </trkpt>
      <trkpt lat="45.35146" lon="5.89349">
        <ele>1433.8359375</ele>
      </trkpt>
      <trkpt lat="45.35145" lon="5.89321">
        <ele>1440.94140625</ele>
      </trkpt>
      <trkpt lat="45.35158" lon="5.8931">
        <ele>1451.66015625</ele>
      </trkpt>
      <trkpt lat="45.35156" lon="5.89278">
        <ele>1459.96875</ele>
      </trkpt>
      <trkpt lat="45.35166" lon="5.89276">
        <ele>1466.2109375</ele>
      </trkpt>
      <trkpt lat="45.35163" lon="5.89254">
        <ele>1471.1328125</ele>
      </trkpt>
      <trkpt lat="45.35162" lon="5.89253">
        <ele>1509</ele>
        <time>2015-06-06T14:03:27Z</time>
      </trkpt>
      <trkpt lat="45.35165" lon="5.89249">
        <ele>1505.525237181</ele>
        <time>2015-06-06T14:03:32Z</time>
      </trkpt>
      <trkpt lat="45.35164" lon="5.89239">
        <ele>1502.050474361</ele>
        <time>2015-06-06T14:03:37Z</time>
      </trkpt>
      <trkpt lat="45.35166" lon="5.89228">
        <ele>1498.575711542</ele>
        <time>2015-06-06T14:03:42Z</time>
      </trkpt>
      <trkpt lat="45.35159" lon="5.89223">
        <ele>1498.575711542</ele>
        <time>2015-06-06T14:03:47Z</time>
      </trkpt>
      <trkpt lat="45.35159" lon="5.89219">
        <ele>1505.518700256</ele>
        <time>2015-06-06T14:03:52Z</time>
      </trkpt>
      <trkpt lat="45.35151" lon="5.89223">
        <ele>1505.518700256</ele>
        <time>2015-06-06T14:03:57Z</time>
      </trkpt>
      <trkpt lat="45.35153" lon="5.89211">
        <ele>1513.920019773</ele>
        <time>2015-06-06T14:04:02Z</time>
      </trkpt>
      <trkpt lat="45.35154" lon="5.8921">
        <ele>1513.920019773</ele>
        <time>2015-06-06T14:04:07Z</time>
      </trkpt>
      <trkpt lat="45.35157" lon="5.89208">
        <ele>1513.920019773</ele>
        <time>2015-06-06T14:04:12Z</time>
      </trkpt>
      <trkpt lat="45.35157" lon="5.89213">
        <ele>1515.045764108</ele>
        <time>2015-06-06T14:04:17Z</time>
      </trkpt>
      <trkpt lat="45.35161" lon="5.89218">
        <ele>1516.171508443</ele>
        <time>2015-06-06T14:04:22Z</time>
      </trkpt>
      <trkpt lat="45.35166" lon="5.89223">
        <ele>1517.297252778</ele>
        <time>2015-06-06T14:04:27Z</time>
      </trkpt>
      <trkpt lat="45.35174" lon="5.89234">
        <ele>1518.422997113</ele>
        <time>2015-06-06T14:04:32Z</time>
      </trkpt>
      <trkpt lat="45.35171" lon="5.89254">
        <ele>1519.548741448</ele>
        <time>2015-06-06T14:04:37Z</time>
      </trkpt>
      <trkpt lat="45.35178" lon="5.8927">
        <ele>1520.674485783</ele>
        <time>2015-06-06T14:04:42Z</time>
      </trkpt>
      <trkpt lat="45.35185" lon="5.89267">
        <ele>1521.800230118</ele>
        <time>2015-06-06T14:04:47Z</time>
      </trkpt>
      <trkpt lat="45.35185" lon="5.89272">
        <ele>1521.800230118</ele>
        <time>2015-06-06T14:04:52Z</time>
      </trkpt>
      <trkpt lat="45.35184" lon="5.8927">
        <ele>1521.800230118</ele>
        <time>2015-06-06T14:04:57Z</time>
      </trkpt>
      <trkpt lat="45.35191" lon="5.89282">
        <ele>1529.831462191</ele>
        <time>2015-06-06T14:05:02Z</time>
      </trkpt>
      <trkpt lat="45.35196" lon="5.89284">
        <ele>1529.831462191</ele>
        <time>2015-06-06T14:05:07Z</time>
      </trkpt>
      <trkpt lat="45.35203" lon="5.8928">
        <ele>1537.225569556</ele>
        <time>2015-06-06T14:05:12Z</time>
      </trkpt>
      <trkpt lat="45.352" lon="5.89294">
        <ele>1543.459761947</ele>
        <time>2015-06-06T14:05:17Z</time>
      </trkpt>
      <trkpt lat="45.35196" lon="5.89297">
        <ele>1543.459761947</ele>
        <time>2015-06-06T14:05:22Z</time>
      </trkpt>
      <trkpt lat="45.35198" lon="5.89303">
        <ele>1547.596979469</ele>
        <time>2015-06-06T14:05:27Z</time>
      </trkpt>
      <trkpt lat="45.35202" lon="5.8931">
        <ele>1547.596979469</ele>
        <time>2015-06-06T14:05:32Z</time>
      </trkpt>
      <trkpt lat="45.35203" lon="5.89308">
        <ele>1547.596979469</ele>
        <time>2015-06-06T14:05:37Z</time>
      </trkpt>
      <trkpt lat="45.35202" lon="5.89308">
        <ele>1547.596979469</ele>
        <time>2015-06-06T14:05:42Z</time>
      </trkpt>
      <trkpt lat="45.35202" lon="5.89308">
        <ele>1547.596979469</ele>
        <time>2015-06-06T14:05:47Z</time>
      </trkpt>
      <trkpt lat="45.35202" lon="5.89308">
        <ele>1547.596979469</ele>
        <time>2015-06-06T14:05:52Z</time>
      </trkpt>
      <trkpt lat="45.35202" lon="5.89308">
        <ele>1547.596979469</ele>
        <time>2015-06-06T14:05:57Z</time>
      </trkpt>
      <trkpt lat="45.35202" lon="5.89309">
        <ele>1547.596979469</ele>
        <time>2015-06-06T14:06:02Z</time>
      </trkpt>
      <trkpt lat="45.35202" lon="5.89309">
        <ele>1547.596979469</ele>
        <time>2015-06-06T14:06:07Z</time>
      </trkpt>
      <trkpt lat="45.35202" lon="5.89309">
        <ele>1547.596979469</ele>
        <time>2015-06-06T14:06:12Z</time>
      </trkpt>
      <trkpt lat="45.35202" lon="5.89309">
        <ele>1547.596979469</ele>
        <time>2015-06-06T14:06:22Z</time>
      </trkpt>
      <trkpt lat="45.35202" lon="5.89309">
        <ele>1547.596979469</ele>
        <time>2015-06-06T14:06:27Z</time>
      </trkpt>
      <trkpt lat="45.35202" lon="5.89309">
        <ele>1547.596979469</ele>
        <time>2015-06-06T14:06:32Z</time>
      </trkpt>
      <trkpt lat="45.35202" lon="5.89309">
        <ele>1547.596979469</ele>
        <time>2015-06-06T14:06:37Z</time>
      </trkpt>
      <trkpt lat="45.35202" lon="5.89309">
        <ele>1547.596979469</ele>
        <time>2015-06-06T14:06:42Z</time>
      </trkpt>
      <trkpt lat="45.35202" lon="5.89309">
        <ele>1547.596979469</ele>
        <time>2015-06-06T14:06:47Z</time>
      </trkpt>
      <trkpt lat="45.35202" lon="5.89309">
        <ele>1547.596979469</ele>
        <time>2015-06-06T14:06:52Z</time>
      </trkpt>
      <trkpt lat="45.35202" lon="5.89309">
        <ele>1547.596979469</ele>
        <time>2015-06-06T14:06:57Z</time>
      </trkpt>
      <trkpt lat="45.35202" lon="5.89309">
        <ele>1547.596979469</ele>
        <time>2015-06-06T14:07:02Z</time>
      </trkpt>
      <trkpt lat="45.35202" lon="5.89309">
        <ele>1547.596979469</ele>
        <time>2015-06-06T14:07:07Z</time>
      </trkpt>
      <trkpt lat="45.35202" lon="5.89309">
        <ele>1547.596979469</ele>
        <time>2015-06-06T14:07:12Z</time>
      </trkpt>
      <trkpt lat="45.35202" lon="5.89309">
        <ele>1547.596979469</ele>
        <time>2015-06-06T14:07:17Z</time>
      </trkpt>
      <trkpt lat="45.35202" lon="5.89309">
        <ele>1547.596979469</ele>
        <time>2015-06-06T14:07:22Z</time>
      </trkpt>
      <trkpt lat="45.35202" lon="5.89309">
        <ele>1547.596979469</ele>
        <time>2015-06-06T14:07:27Z</time>
      </trkpt>
      <trkpt lat="45.35202" lon="5.89309">
        <ele>1547.596979469</ele>
        <time>2015-06-06T14:07:32Z</time>
      </trkpt>
      <trkpt lat="45.35202" lon="5.89309">
        <ele>1547.596979469</ele>
        <time>2015-06-06T14:07:37Z</time>
      </trkpt>
      <trkpt lat="45.35202" lon="5.89309">
        <ele>1547.596979469</ele>
        <time>2015-06-06T14:07:42Z</time>
      </trkpt>
      <trkpt lat="45.35202" lon="5.89309">
        <ele>1547.596979469</ele>
        <time>2015-06-06T14:07:47Z</time>
      </trkpt>
      <trkpt lat="45.35202" lon="5.89309">
        <ele>1547.596979469</ele>
        <time>2015-06-06T14:07:52Z</time>
      </trkpt>
      <trkpt lat="45.35202" lon="5.89309">
        <ele>1547.596979469</ele>
        <time>2015-06-06T14:07:57Z</time>
      </trkpt>
      <trkpt lat="45.35203" lon="5.89309">
        <ele>1547.596979469</ele>
        <time>2015-06-06T14:08:02Z</time>
      </trkpt>
      <trkpt lat="45.35203" lon="5.89309">
        <ele>1547.596979469</ele>
        <time>2015-06-06T14:08:07Z</time>
      </trkpt>
      <trkpt lat="45.35203" lon="5.89309">
        <ele>1547.596979469</ele>
        <time>2015-06-06T14:08:12Z</time>
      </trkpt>
      <trkpt lat="45.35203" lon="5.89309">
        <ele>1547.596979469</ele>
        <time>2015-06-06T14:08:17Z</time>
      </trkpt>
      <trkpt lat="45.35203" lon="5.89309">
        <ele>1547.596979469</ele>
        <time>2015-06-06T14:08:22Z</time>
      </trkpt>
      <trkpt lat="45.35203" lon="5.8931">
        <ele>1552.207221359</ele>
        <time>2015-06-06T14:08:27Z</time>
      </trkpt>
      <trkpt lat="45.35204" lon="5.8931">
        <ele>1552.207221359</ele>
        <time>2015-06-06T14:08:32Z</time>
      </trkpt>
      <trkpt lat="45.35204" lon="5.89311">
        <ele>1552.207221359</ele>
        <time>2015-06-06T14:08:37Z</time>
      </trkpt>
      <trkpt lat="45.35208" lon="5.89312">
        <ele>1552.207221359</ele>
        <time>2015-06-06T14:08:42Z</time>
      </trkpt>
      <trkpt lat="45.35223" lon="5.89307">
        <ele>1556.577220814</ele>
        <time>2015-06-06T14:08:47Z</time>
      </trkpt>
      <trkpt lat="45.3523" lon="5.89302">
        <ele>1556.577220814</ele>
        <time>2015-06-06T14:08:52Z</time>
      </trkpt>
      <trkpt lat="45.35234" lon="5.89296">
        <ele>1559.846638818</ele>
        <time>2015-06-06T14:08:57Z</time>
      </trkpt>
      <trkpt lat="45.35241" lon="5.89294">
        <ele>1559.846638818</ele>
        <time>2015-06-06T14:09:02Z</time>
      </trkpt>
      <trkpt lat="45.35246" lon="5.89297">
        <ele>1563.793820146</ele>
        <time>2015-06-06T14:09:07Z</time>
      </trkpt>
      <trkpt lat="45.35243" lon="5.89293">
        <ele>1563.793820146</ele>
        <time>2015-06-06T14:09:12Z</time>
      </trkpt>
      <trkpt lat="45.35241" lon="5.89297">
        <ele>1563.793820146</ele>
        <time>2015-06-06T14:09:17Z</time>
      </trkpt>
      <trkpt lat="45.35242" lon="5.89297">
        <ele>1563.793820146</ele>
        <time>2015-06-06T14:09:22Z</time>
      </trkpt>
      <trkpt lat="45.35241" lon="5.89297">
        <ele>1563.793820146</ele>
        <time>2015-06-06T14:09:27Z</time>
      </trkpt>
      <trkpt lat="45.3524" lon="5.89299">
        <ele>1566.7476621</ele>
        <time>2015-06-06T14:09:32Z</time>
      </trkpt>
      <trkpt lat="45.35241" lon="5.893">
        <ele>1566.7476621</ele>
        <time>2015-06-06T14:09:37Z</time>
      </trkpt>
      <trkpt lat="45.35241" lon="5.893">
        <ele>1566.7476621</ele>
        <time>2015-06-06T14:09:42Z</time>
      </trkpt>
      <trkpt lat="45.35241" lon="5.893">
        <ele>1566.7476621</ele>
        <time>2015-06-06T14:09:47Z</time>
      </trkpt>
      <trkpt lat="45.35241" lon="5.893">
        <ele>1566.7476621</ele>
        <time>2015-06-06T14:09:52Z</time>
      </trkpt>
      <trkpt lat="45.3524" lon="5.89301">
        <ele>1566.7476621</ele>
        <time>2015-06-06T14:09:57Z</time>
      </trkpt>
      <trkpt lat="45.3524" lon="5.89302">
        <ele>1566.7476621</ele>
        <time>2015-06-06T14:10:02Z</time>
      </trkpt>
      <trkpt lat="45.3524" lon="5.89302">
        <ele>1566.7476621</ele>
        <time>2015-06-06T14:10:07Z</time>
      </trkpt>
      <trkpt lat="45.3524" lon="5.89302">
        <ele>1566.7476621</ele>
        <time>2015-06-06T14:10:12Z</time>
      </trkpt>
      <trkpt lat="45.3524" lon="5.89302">
        <ele>1566.7476621</ele>
        <time>2015-06-06T14:10:17Z</time>
      </trkpt>
      <trkpt lat="45.3524" lon="5.89301">
        <ele>1566.7476621</ele>
        <time>2015-06-06T14:10:22Z</time>
      </trkpt>
      <trkpt lat="45.3524" lon="5.89301">
        <ele>1566.7476621</ele>
        <time>2015-06-06T14:10:27Z</time>
      </trkpt>
      <trkpt lat="45.3524" lon="5.89301">
        <ele>1566.7476621</ele>
        <time>2015-06-06T14:10:32Z</time>
      </trkpt>
      <trkpt lat="45.3524" lon="5.89301">
        <ele>1566.7476621</ele>
        <time>2015-06-06T14:10:37Z</time>
      </trkpt>
      <trkpt lat="45.3524" lon="5.89301">
        <ele>1566.7476621</ele>
        <time>2015-06-06T14:10:42Z</time>
      </trkpt>
      <trkpt lat="45.3524" lon="5.89301">
        <ele>1566.7476621</ele>
        <time>2015-06-06T14:10:47Z</time>
      </trkpt>
      <trkpt lat="45.3524" lon="5.89301">
        <ele>1566.7476621</ele>
        <time>2015-06-06T14:10:52Z</time>
      </trkpt>
      <trkpt lat="45.3524" lon="5.89301">
        <ele>1566.7476621</ele>
        <time>2015-06-06T14:10:57Z</time>
      </trkpt>
      <trkpt lat="45.3524" lon="5.89301">
        <ele>1566.7476621</ele>
        <time>2015-06-06T14:11:02Z</time>
      </trkpt>
      <trkpt lat="45.3524" lon="5.89301">
        <ele>1566.7476621</ele>
        <time>2015-06-06T14:11:07Z</time>
      </trkpt>
      <trkpt lat="45.3524" lon="5.89301">
        <ele>1566.7476621</ele>
        <time>2015-06-06T14:11:17Z</time>
      </trkpt>
      <trkpt lat="45.3524" lon="5.89301">
        <ele>1566.7476621</ele>
        <time>2015-06-06T14:11:22Z</time>
      </trkpt>
      <trkpt lat="45.3524" lon="5.89301">
        <ele>1566.7476621</ele>
        <time>2015-06-06T14:11:27Z</time>
      </trkpt>
      <trkpt lat="45.35239" lon="5.89301">
        <ele>1566.7476621</ele>
        <time>2015-06-06T14:11:32Z</time>
      </trkpt>
      <trkpt lat="45.35239" lon="5.89301">
        <ele>1566.7476621</ele>
        <time>2015-06-06T14:11:37Z</time>
      </trkpt>
      <trkpt lat="45.35239" lon="5.893">
        <ele>1566.7476621</ele>
        <time>2015-06-06T14:11:42Z</time>
      </trkpt>
      <trkpt lat="45.35239" lon="5.893">
        <ele>1566.7476621</ele>
        <time>2015-06-06T14:11:47Z</time>
      </trkpt>
      <trkpt lat="45.35239" lon="5.893">
        <ele>1566.7476621</ele>
        <time>2015-06-06T14:11:52Z</time>
      </trkpt>
      <trkpt lat="45.35239" lon="5.893">
        <ele>1566.7476621</ele>
        <time>2015-06-06T14:11:57Z</time>
      </trkpt>
      <trkpt lat="45.35239" lon="5.893">
        <ele>1566.7476621</ele>
        <time>2015-06-06T14:12:02Z</time>
      </trkpt>
      <trkpt lat="45.35239" lon="5.893">
        <ele>1566.7476621</ele>
        <time>2015-06-06T14:12:07Z</time>
      </trkpt>
      <trkpt lat="45.35239" lon="5.893">
        <ele>1566.7476621</ele>
        <time>2015-06-06T14:12:12Z</time>
      </trkpt>
      <trkpt lat="45.35239" lon="5.893">
        <ele>1566.7476621</ele>
        <time>2015-06-06T14:12:17Z</time>
      </trkpt>
      <trkpt lat="45.35239" lon="5.893">
        <ele>1566.7476621</ele>
        <time>2015-06-06T14:12:22Z</time>
      </trkpt>
      <trkpt lat="45.35239" lon="5.893">
        <ele>1566.7476621</ele>
        <time>2015-06-06T14:12:27Z</time>
      </trkpt>
      <trkpt lat="45.35239" lon="5.893">
        <ele>1566.7476621</ele>
        <time>2015-06-06T14:12:32Z</time>
      </trkpt>
      <trkpt lat="45.35239" lon="5.893">
        <ele>1566.7476621</ele>
        <time>2015-06-06T14:12:37Z</time>
      </trkpt>
      <trkpt lat="45.35239" lon="5.893">
        <ele>1566.7476621</ele>
        <time>2015-06-06T14:12:42Z</time>
      </trkpt>
      <trkpt lat="45.35239" lon="5.893">
        <ele>1566.7476621</ele>
        <time>2015-06-06T14:12:47Z</time>
      </trkpt>
      <trkpt lat="45.35239" lon="5.893">
        <ele>1566.7476621</ele>
        <time>2015-06-06T14:12:52Z</time>
      </trkpt>
      <trkpt lat="45.3524" lon="5.89299">
        <ele>1566.7476621</ele>
        <time>2015-06-06T14:13:42Z</time>
      </trkpt>
      <trkpt lat="45.3524" lon="5.89299">
        <ele>1566.7476621</ele>
        <time>2015-06-06T14:13:47Z</time>
      </trkpt>
      <trkpt lat="45.3524" lon="5.89299">
        <ele>1566.7476621</ele>
        <time>2015-06-06T14:13:52Z</time>
      </trkpt>
      <trkpt lat="45.3524" lon="5.89299">
        <ele>1566.7476621</ele>
        <time>2015-06-06T14:13:57Z</time>
      </trkpt>
      <trkpt lat="45.3524" lon="5.89299">
        <ele>1566.7476621</ele>
        <time>2015-06-06T14:14:02Z</time>
      </trkpt>
      <trkpt lat="45.3524" lon="5.89299">
        <ele>1566.7476621</ele>
        <time>2015-06-06T14:14:07Z</time>
      </trkpt>
      <trkpt lat="45.3524" lon="5.89299">
        <ele>1566.7476621</ele>
        <time>2015-06-06T14:14:12Z</time>
      </trkpt>
      <trkpt lat="45.3524" lon="5.89299">
        <ele>1566.7476621</ele>
        <time>2015-06-06T14:14:17Z</time>
      </trkpt>
      <trkpt lat="45.35241" lon="5.89299">
        <ele>1566.7476621</ele>
        <time>2015-06-06T14:14:22Z</time>
      </trkpt>
      <trkpt lat="45.35241" lon="5.89299">
        <ele>1566.7476621</ele>
        <time>2015-06-06T14:14:27Z</time>
      </trkpt>
      <trkpt lat="45.35241" lon="5.89299">
        <ele>1566.7476621</ele>
        <time>2015-06-06T14:14:32Z</time>
      </trkpt>
      <trkpt lat="45.35241" lon="5.89299">
        <ele>1566.7476621</ele>
        <time>2015-06-06T14:14:37Z</time>
      </trkpt>
      <trkpt lat="45.35241" lon="5.89299">
        <ele>1566.7476621</ele>
        <time>2015-06-06T14:14:42Z</time>
      </trkpt>
      <trkpt lat="45.35241" lon="5.89299">
        <ele>1566.7476621</ele>
        <time>2015-06-06T14:14:47Z</time>
      </trkpt>
      <trkpt lat="45.35241" lon="5.89299">
        <ele>1566.7476621</ele>
        <time>2015-06-06T14:14:52Z</time>
      </trkpt>
      <trkpt lat="45.35241" lon="5.89299">
        <ele>1566.7476621</ele>
        <time>2015-06-06T14:14:57Z</time>
      </trkpt>
      <trkpt lat="45.35241" lon="5.89298">
        <ele>1566.7476621</ele>
        <time>2015-06-06T14:15:02Z</time>
      </trkpt>
      <trkpt lat="45.35242" lon="5.89298">
        <ele>1566.7476621</ele>
        <time>2015-06-06T14:15:07Z</time>
      </trkpt>
      <trkpt lat="45.35242" lon="5.89298">
        <ele>1566.7476621</ele>
        <time>2015-06-06T14:15:12Z</time>
      </trkpt>
      <trkpt lat="45.35242" lon="5.89298">
        <ele>1566.7476621</ele>
        <time>2015-06-06T14:15:17Z</time>
      </trkpt>
      <trkpt lat="45.35242" lon="5.89298">
        <ele>1566.7476621</ele>
        <time>2015-06-06T14:15:22Z</time>
      </trkpt>
      <trkpt lat="45.35242" lon="5.89298">
        <ele>1566.7476621</ele>
        <time>2015-06-06T14:15:27Z</time>
      </trkpt>
      <trkpt lat="45.35242" lon="5.89298">
        <ele>1566.7476621</ele>
        <time>2015-06-06T14:15:32Z</time>
      </trkpt>
      <trkpt lat="45.35242" lon="5.89298">
        <ele>1566.7476621</ele>
        <time>2015-06-06T14:15:37Z</time>
      </trkpt>
      <trkpt lat="45.35242" lon="5.89298">
        <ele>1566.7476621</ele>
        <time>2015-06-06T14:15:42Z</time>
      </trkpt>
      <trkpt lat="45.35242" lon="5.89298">
        <ele>1566.7476621</ele>
        <time>2015-06-06T14:15:47Z</time>
      </trkpt>
      <trkpt lat="45.35242" lon="5.89298">
        <ele>1566.7476621</ele>
        <time>2015-06-06T14:15:52Z</time>
      </trkpt>
      <trkpt lat="45.35242" lon="5.89298">
        <ele>1566.7476621</ele>
        <time>2015-06-06T14:15:57Z</time>
      </trkpt>
      <trkpt lat="45.35243" lon="5.89298">
        <ele>1566.7476621</ele>
        <time>2015-06-06T14:16:02Z</time>
      </trkpt>
      <trkpt lat="45.35243" lon="5.89298">
        <ele>1566.7476621</ele>
        <time>2015-06-06T14:16:07Z</time>
      </trkpt>
      <trkpt lat="45.35243" lon="5.89298">
        <ele>1566.7476621</ele>
        <time>2015-06-06T14:16:12Z</time>
      </trkpt>
      <trkpt lat="45.35243" lon="5.89298">
        <ele>1566.7476621</ele>
        <time>2015-06-06T14:16:17Z</time>
      </trkpt>
      <trkpt lat="45.35243" lon="5.89298">
        <ele>1566.7476621</ele>
        <time>2015-06-06T14:16:22Z</time>
      </trkpt>
      <trkpt lat="45.35243" lon="5.89298">
        <ele>1566.7476621</ele>
        <time>2015-06-06T14:16:27Z</time>
      </trkpt>
      <trkpt lat="45.35243" lon="5.89298">
        <ele>1566.7476621</ele>
        <time>2015-06-06T14:16:32Z</time>
      </trkpt>
      <trkpt lat="45.35243" lon="5.89298">
        <ele>1566.7476621</ele>
        <time>2015-06-06T14:16:37Z</time>
      </trkpt>
      <trkpt lat="45.35243" lon="5.89298">
        <ele>1566.7476621</ele>
        <time>2015-06-06T14:16:42Z</time>
      </trkpt>
      <trkpt lat="45.35243" lon="5.89297">
        <ele>1566.7476621</ele>
        <time>2015-06-06T14:16:47Z</time>
      </trkpt>
      <trkpt lat="45.35243" lon="5.89297">
        <ele>1566.7476621</ele>
        <time>2015-06-06T14:16:52Z</time>
      </trkpt>
      <trkpt lat="45.35243" lon="5.89297">
        <ele>1566.7476621</ele>
        <time>2015-06-06T14:16:57Z</time>
      </trkpt>
      <trkpt lat="45.35243" lon="5.89297">
        <ele>1566.7476621</ele>
        <time>2015-06-06T14:17:02Z</time>
      </trkpt>
      <trkpt lat="45.35244" lon="5.89297">
        <ele>1566.7476621</ele>
        <time>2015-06-06T14:17:07Z</time>
      </trkpt>
      <trkpt lat="45.35244" lon="5.89297">
        <ele>1566.7476621</ele>
        <time>2015-06-06T14:17:12Z</time>
      </trkpt>
      <trkpt lat="45.35244" lon="5.89297">
        <ele>1566.7476621</ele>
        <time>2015-06-06T14:17:17Z</time>
      </trkpt>
      <trkpt lat="45.35244" lon="5.89297">
        <ele>1566.7476621</ele>
        <time>2015-06-06T14:17:22Z</time>
      </trkpt>
      <trkpt lat="45.35244" lon="5.89297">
        <ele>1566.7476621</ele>
        <time>2015-06-06T14:17:27Z</time>
      </trkpt>
      <trkpt lat="45.35244" lon="5.89297">
        <ele>1566.7476621</ele>
        <time>2015-06-06T14:17:32Z</time>
      </trkpt>
      <trkpt lat="45.35244" lon="5.89297">
        <ele>1566.7476621</ele>
        <time>2015-06-06T14:17:37Z</time>
      </trkpt>
      <trkpt lat="45.35244" lon="5.89297">
        <ele>1566.7476621</ele>
        <time>2015-06-06T14:17:42Z</time>
      </trkpt>
      <trkpt lat="45.35244" lon="5.89296">
        <ele>1566.7476621</ele>
        <time>2015-06-06T14:17:47Z</time>
      </trkpt>
      <trkpt lat="45.35244" lon="5.89296">
        <ele>1566.7476621</ele>
        <time>2015-06-06T14:17:52Z</time>
      </trkpt>
      <trkpt lat="45.35244" lon="5.89296">
        <ele>1566.7476621</ele>
        <time>2015-06-06T14:17:57Z</time>
      </trkpt>
      <trkpt lat="45.35244" lon="5.89296">
        <ele>1566.7476621</ele>
        <time>2015-06-06T14:18:02Z</time>
      </trkpt>
      <trkpt lat="45.35244" lon="5.89296">
        <ele>1566.7476621</ele>
        <time>2015-06-06T14:18:07Z</time>
      </trkpt>
      <trkpt lat="45.35244" lon="5.89296">
        <ele>1566.7476621</ele>
        <time>2015-06-06T14:18:12Z</time>
      </trkpt>
      <trkpt lat="45.35244" lon="5.89296">
        <ele>1566.862345422</ele>
        <time>2015-06-06T14:18:17Z</time>
      </trkpt>
      <trkpt lat="45.35244" lon="5.89296">
        <ele>1566.977028744</ele>
        <time>2015-06-06T14:18:22Z</time>
      </trkpt>
      <trkpt lat="45.35244" lon="5.89296">
        <ele>1567.091712066</ele>
        <time>2015-06-06T14:18:27Z</time>
      </trkpt>
      <trkpt lat="45.35243" lon="5.89296">
        <ele>1567.206395388</ele>
        <time>2015-06-06T14:18:32Z</time>
      </trkpt>
      <trkpt lat="45.35243" lon="5.89296">
        <ele>1567.32107871</ele>
        <time>2015-06-06T14:18:37Z</time>
      </trkpt>
      <trkpt lat="45.35243" lon="5.89296">
        <ele>1567.435762032</ele>
        <time>2015-06-06T14:18:42Z</time>
      </trkpt>
      <trkpt lat="45.35243" lon="5.89296">
        <ele>1567.550445354</ele>
        <time>2015-06-06T14:18:47Z</time>
      </trkpt>
      <trkpt lat="45.35243" lon="5.89295">
        <ele>1567.665128676</ele>
        <time>2015-06-06T14:18:52Z</time>
      </trkpt>
      <trkpt lat="45.35243" lon="5.89295">
        <ele>1567.779811997</ele>
        <time>2015-06-06T14:18:57Z</time>
      </trkpt>
      <trkpt lat="45.35244" lon="5.89295">
        <ele>1567.894495319</ele>
        <time>2015-06-06T14:19:02Z</time>
      </trkpt>
      <trkpt lat="45.35244" lon="5.89295">
        <ele>1568.009178641</ele>
        <time>2015-06-06T14:19:07Z</time>
      </trkpt>
      <trkpt lat="45.35244" lon="5.89295">
        <ele>1568.123861963</ele>
        <time>2015-06-06T14:19:12Z</time>
      </trkpt>
      <trkpt lat="45.35244" lon="5.89295">
        <ele>1568.238545285</ele>
        <time>2015-06-06T14:19:17Z</time>
      </trkpt>
      <trkpt lat="45.35244" lon="5.89295">
        <ele>1568.353228607</ele>
        <time>2015-06-06T14:19:22Z</time>
      </trkpt>
      <trkpt lat="45.35243" lon="5.89295">
        <ele>1568.467911929</ele>
        <time>2015-06-06T14:19:27Z</time>
      </trkpt>
      <trkpt lat="45.35244" lon="5.89295">
        <ele>1568.582595251</ele>
        <time>2015-06-06T14:19:32Z</time>
      </trkpt>
      <trkpt lat="45.35244" lon="5.89295">
        <ele>1568.697278573</ele>
        <time>2015-06-06T14:19:37Z</time>
      </trkpt>
      <trkpt lat="45.35244" lon="5.89294">
        <ele>1568.811961895</ele>
        <time>2015-06-06T14:19:47Z</time>
      </trkpt>
      <trkpt lat="45.35244" lon="5.89294">
        <ele>1568.926645217</ele>
        <time>2015-06-06T14:19:52Z</time>
      </trkpt>
      <trkpt lat="45.35244" lon="5.89294">
        <ele>1569.041328539</ele>
        <time>2015-06-06T14:19:57Z</time>
      </trkpt>
      <trkpt lat="45.35244" lon="5.89294">
        <ele>1569.156011861</ele>
        <time>2015-06-06T14:20:02Z</time>
      </trkpt>
      <trkpt lat="45.35244" lon="5.89294">
        <ele>1569.270695183</ele>
        <time>2015-06-06T14:20:07Z</time>
      </trkpt>
      <trkpt lat="45.35244" lon="5.89294">
        <ele>1569.385378505</ele>
        <time>2015-06-06T14:20:12Z</time>
      </trkpt>
      <trkpt lat="45.35244" lon="5.89294">
        <ele>1569.500061827</ele>
        <time>2015-06-06T14:20:17Z</time>
      </trkpt>
      <trkpt lat="45.35243" lon="5.89292">
        <ele>1569.614745149</ele>
        <time>2015-06-06T14:21:42Z</time>
      </trkpt>
      <trkpt lat="45.35243" lon="5.89292">
        <ele>1569.729428471</ele>
        <time>2015-06-06T14:21:47Z</time>
      </trkpt>
      <trkpt lat="45.35243" lon="5.89292">
        <ele>1569.844111793</ele>
        <time>2015-06-06T14:21:52Z</time>
      </trkpt>
      <trkpt lat="45.35243" lon="5.89291">
        <ele>1569.958795114</ele>
        <time>2015-06-06T14:21:57Z</time>
      </trkpt>
      <trkpt lat="45.35243" lon="5.89291">
        <ele>1570.073478436</ele>
        <time>2015-06-06T14:22:02Z</time>
      </trkpt>
      <trkpt lat="45.35242" lon="5.89291">
        <ele>1570.188161758</ele>
        <time>2015-06-06T14:22:07Z</time>
      </trkpt>
      <trkpt lat="45.35242" lon="5.89291">
        <ele>1570.30284508</ele>
        <time>2015-06-06T14:22:12Z</time>
      </trkpt>
      <trkpt lat="45.35242" lon="5.89291">
        <ele>1570.417528402</ele>
        <time>2015-06-06T14:22:17Z</time>
      </trkpt>
      <trkpt lat="45.35242" lon="5.89291">
        <ele>1570.532211724</ele>
        <time>2015-06-06T14:22:22Z</time>
      </trkpt>
      <trkpt lat="45.35242" lon="5.89291">
        <ele>1570.532211724</ele>
        <time>2015-06-06T14:22:27Z</time>
      </trkpt>
      <trkpt lat="45.35242" lon="5.8929">
        <ele>1570.532211724</ele>
        <time>2015-06-06T14:22:32Z</time>
      </trkpt>
      <trkpt lat="45.35242" lon="5.8929">
        <ele>1570.532211724</ele>
        <time>2015-06-06T14:22:37Z</time>
      </trkpt>
      <trkpt lat="45.35242" lon="5.8929">
        <ele>1570.532211724</ele>
        <time>2015-06-06T14:22:42Z</time>
      </trkpt>
      <trkpt lat="45.35242" lon="5.8929">
        <ele>1570.532211724</ele>
        <time>2015-06-06T14:22:47Z</time>
      </trkpt>
      <trkpt lat="45.35241" lon="5.8929">
        <ele>1570.804268835</ele>
        <time>2015-06-06T14:22:52Z</time>
      </trkpt>
      <trkpt lat="45.35241" lon="5.8929">
        <ele>1571.076325945</ele>
        <time>2015-06-06T14:22:57Z</time>
      </trkpt>
      <trkpt lat="45.35241" lon="5.89289">
        <ele>1571.348383055</ele>
        <time>2015-06-06T14:23:02Z</time>
      </trkpt>
      <trkpt lat="45.35241" lon="5.89289">
        <ele>1571.620440166</ele>
        <time>2015-06-06T14:23:07Z</time>
      </trkpt>
      <trkpt lat="45.35241" lon="5.89289">
        <ele>1571.892497276</ele>
        <time>2015-06-06T14:23:12Z</time>
      </trkpt>
      <trkpt lat="45.35241" lon="5.89289">
        <ele>1572.164554387</ele>
        <time>2015-06-06T14:23:17Z</time>
      </trkpt>
      <trkpt lat="45.35241" lon="5.89289">
        <ele>1572.436611497</ele>
        <time>2015-06-06T14:23:27Z</time>
      </trkpt>
      <trkpt lat="45.3524" lon="5.89287">
        <ele>1572.708668608</ele>
        <time>2015-06-06T14:24:32Z</time>
      </trkpt>
      <trkpt lat="45.35244" lon="5.89261">
        <ele>1572.980725718</ele>
        <time>2015-06-06T14:24:37Z</time>
      </trkpt>
      <trkpt lat="45.35253" lon="5.89219">
        <ele>1571.984073969</ele>
        <time>2015-06-06T14:24:42Z</time>
      </trkpt>
      <trkpt lat="45.35256" lon="5.89208">
        <ele>1571.984073969</ele>
        <time>2015-06-06T14:24:47Z</time>
      </trkpt>
      <trkpt lat="45.35265" lon="5.89174">
        <ele>1569.944431314</ele>
        <time>2015-06-06T14:24:52Z</time>
      </trkpt>
      <trkpt lat="45.35265" lon="5.89159">
        <ele>1567.703047905</ele>
        <time>2015-06-06T14:24:57Z</time>
      </trkpt>
      <trkpt lat="45.35267" lon="5.89151">
        <ele>1567.703047905</ele>
        <time>2015-06-06T14:25:02Z</time>
      </trkpt>
      <trkpt lat="45.35268" lon="5.89148">
        <ele>1567.703047905</ele>
        <time>2015-06-06T14:25:07Z</time>
      </trkpt>
      <trkpt lat="45.35267" lon="5.89144">
        <ele>1565.509429168</ele>
        <time>2015-06-06T14:25:12Z</time>
      </trkpt>
      <trkpt lat="45.35267" lon="5.89147">
        <ele>1565.509429168</ele>
        <time>2015-06-06T14:25:17Z</time>
      </trkpt>
      <trkpt lat="45.35269" lon="5.89139">
        <ele>1565.509429168</ele>
        <time>2015-06-06T14:25:22Z</time>
      </trkpt>
      <trkpt lat="45.35267" lon="5.89135">
        <ele>1563.56697823</ele>
        <time>2015-06-06T14:25:27Z</time>
      </trkpt>
      <trkpt lat="45.35268" lon="5.89136">
        <ele>1563.56697823</ele>
        <time>2015-06-06T14:25:32Z</time>
      </trkpt>
      <trkpt lat="45.35267" lon="5.89136">
        <ele>1563.56697823</ele>
        <time>2015-06-06T14:25:37Z</time>
      </trkpt>
      <trkpt lat="45.35268" lon="5.89135">
        <ele>1563.56697823</ele>
        <time>2015-06-06T14:25:42Z</time>
      </trkpt>
      <trkpt lat="45.35268" lon="5.89135">
        <ele>1563.56697823</ele>
        <time>2015-06-06T14:25:47Z</time>
      </trkpt>
      <trkpt lat="45.35268" lon="5.89135">
        <ele>1563.56697823</ele>
        <time>2015-06-06T14:25:52Z</time>
      </trkpt>
      <trkpt lat="45.35268" lon="5.89135">
        <ele>1563.56697823</ele>
        <time>2015-06-06T14:25:57Z</time>
      </trkpt>
      <trkpt lat="45.35268" lon="5.89135">
        <ele>1563.56697823</ele>
        <time>2015-06-06T14:26:02Z</time>
      </trkpt>
      <trkpt lat="45.35268" lon="5.89135">
        <ele>1563.56697823</ele>
        <time>2015-06-06T14:26:07Z</time>
      </trkpt>
      <trkpt lat="45.35268" lon="5.89131">
        <ele>1563.56697823</ele>
        <time>2015-06-06T14:26:12Z</time>
      </trkpt>
      <trkpt lat="45.35268" lon="5.89126">
        <ele>1562.03910112</ele>
        <time>2015-06-06T14:26:17Z</time>
      </trkpt>
      <trkpt lat="45.35267" lon="5.89124">
        <ele>1562.03910112</ele>
        <time>2015-06-06T14:26:22Z</time>
      </trkpt>
      <trkpt lat="45.35267" lon="5.89124">
        <ele>1562.03910112</ele>
        <time>2015-06-06T14:26:27Z</time>
      </trkpt>
      <trkpt lat="45.35267" lon="5.89124">
        <ele>1562.03910112</ele>
        <time>2015-06-06T14:26:32Z</time>
      </trkpt>
      <trkpt lat="45.35267" lon="5.89124">
        <ele>1562.03910112</ele>
        <time>2015-06-06T14:26:37Z</time>
      </trkpt>
      <trkpt lat="45.35267" lon="5.89124">
        <ele>1562.03910112</ele>
        <time>2015-06-06T14:26:42Z</time>
      </trkpt>
      <trkpt lat="45.35265" lon="5.89124">
        <ele>1562.03910112</ele>
        <time>2015-06-06T14:26:47Z</time>
      </trkpt>
      <trkpt lat="45.35266" lon="5.89123">
        <ele>1562.03910112</ele>
        <time>2015-06-06T14:26:52Z</time>
      </trkpt>
      <trkpt lat="45.3527" lon="5.89116">
        <ele>1561.360436546</ele>
        <time>2015-06-06T14:26:57Z</time>
      </trkpt>
      <trkpt lat="45.35266" lon="5.89115">
        <ele>1561.360436546</ele>
        <time>2015-06-06T14:27:02Z</time>
      </trkpt>
      <trkpt lat="45.35261" lon="5.89113">
        <ele>1561.360436546</ele>
        <time>2015-06-06T14:27:07Z</time>
      </trkpt>
      <trkpt lat="45.35257" lon="5.89113">
        <ele>1561.300079851</ele>
        <time>2015-06-06T14:27:12Z</time>
      </trkpt>
      <trkpt lat="45.35263" lon="5.89104">
        <ele>1561.300079851</ele>
        <time>2015-06-06T14:27:17Z</time>
      </trkpt>
      <trkpt lat="45.35263" lon="5.89096">
        <ele>1561.797557336</ele>
        <time>2015-06-06T14:27:22Z</time>
      </trkpt>
      <trkpt lat="45.35264" lon="5.89097">
        <ele>1561.797557336</ele>
        <time>2015-06-06T14:27:27Z</time>
      </trkpt>
      <trkpt lat="45.35266" lon="5.89089">
        <ele>1561.797557336</ele>
        <time>2015-06-06T14:27:32Z</time>
      </trkpt>
      <trkpt lat="45.3527" lon="5.89086">
        <ele>1562.650279302</ele>
        <time>2015-06-06T14:27:37Z</time>
      </trkpt>
      <trkpt lat="45.35267" lon="5.89082">
        <ele>1565.823926582</ele>
        <time>2015-06-06T14:27:42Z</time>
      </trkpt>
      <trkpt lat="45.35264" lon="5.89089">
        <ele>1568.997573861</ele>
        <time>2015-06-06T14:27:47Z</time>
      </trkpt>
      <trkpt lat="45.35242" lon="5.89075">
        <ele>1572.17122114</ele>
        <time>2015-06-06T14:28:33Z</time>
      </trkpt>
      <trkpt lat="45.35242" lon="5.89074">
        <ele>1572.17122114</ele>
        <time>2015-06-06T14:28:38Z</time>
      </trkpt>
      <trkpt lat="45.35241" lon="5.89074">
        <ele>1572.17122114</ele>
        <time>2015-06-06T14:28:43Z</time>
      </trkpt>
      <trkpt lat="45.35238" lon="5.89077">
        <ele>1572.17122114</ele>
        <time>2015-06-06T14:28:48Z</time>
      </trkpt>
      <trkpt lat="45.35238" lon="5.89079">
        <ele>1572.17122114</ele>
        <time>2015-06-06T14:28:53Z</time>
      </trkpt>
      <trkpt lat="45.35238" lon="5.89079">
        <ele>1577.323148575</ele>
        <time>2015-06-06T14:28:58Z</time>
      </trkpt>
      <trkpt lat="45.35235" lon="5.89068">
        <ele>1582.475076009</ele>
        <time>2015-06-06T14:29:22Z</time>
      </trkpt>
      <trkpt lat="45.35225" lon="5.89071">
        <ele>1587.627003444</ele>
        <time>2015-06-06T14:29:28Z</time>
      </trkpt>
      <trkpt lat="45.35229" lon="5.89069">
        <ele>1587.627003444</ele>
        <time>2015-06-06T14:29:33Z</time>
      </trkpt>
      <trkpt lat="45.35219" lon="5.8907">
        <ele>1602.08699546</ele>
        <time>2015-06-06T14:29:38Z</time>
      </trkpt>
      <trkpt lat="45.35213" lon="5.89069">
        <ele>1602.08699546</ele>
        <time>2015-06-06T14:29:43Z</time>
      </trkpt>
      <trkpt lat="45.35212" lon="5.89067">
        <ele>1602.08699546</ele>
        <time>2015-06-06T14:29:48Z</time>
      </trkpt>
      <trkpt lat="45.35214" lon="5.89062">
        <ele>1616.200271559</ele>
        <time>2015-06-06T14:29:53Z</time>
      </trkpt>
      <trkpt lat="45.3522" lon="5.89058">
        <ele>1616.200271559</ele>
        <time>2015-06-06T14:29:57Z</time>
      </trkpt>
      <trkpt lat="45.35221" lon="5.89056">
        <ele>1616.200271559</ele>
        <time>2015-06-06T14:30:02Z</time>
      </trkpt>
      <trkpt lat="45.35221" lon="5.89055">
        <ele>1629.435520733</ele>
        <time>2015-06-06T14:30:07Z</time>
      </trkpt>
      <trkpt lat="45.35221" lon="5.89055">
        <ele>1629.435520733</ele>
        <time>2015-06-06T14:30:13Z</time>
      </trkpt>
      <trkpt lat="45.35221" lon="5.89055">
        <ele>1629.435520733</ele>
        <time>2015-06-06T14:30:18Z</time>
      </trkpt>
      <trkpt lat="45.35221" lon="5.89055">
        <ele>1629.435520733</ele>
        <time>2015-06-06T14:30:22Z</time>
      </trkpt>
      <trkpt lat="45.35221" lon="5.89055">
        <ele>1629.435520733</ele>
        <time>2015-06-06T14:30:28Z</time>
      </trkpt>
      <trkpt lat="45.35221" lon="5.89055">
        <ele>1629.435520733</ele>
        <time>2015-06-06T14:30:33Z</time>
      </trkpt>
      <trkpt lat="45.35221" lon="5.89055">
        <ele>1629.435520733</ele>
        <time>2015-06-06T14:30:37Z</time>
      </trkpt>
      <trkpt lat="45.3522" lon="5.89055">
        <ele>1629.435520733</ele>
        <time>2015-06-06T14:30:43Z</time>
      </trkpt>
      <trkpt lat="45.3522" lon="5.89055">
        <ele>1629.435520733</ele>
        <time>2015-06-06T14:30:48Z</time>
      </trkpt>
      <trkpt lat="45.3522" lon="5.89055">
        <ele>1629.435520733</ele>
        <time>2015-06-06T14:30:53Z</time>
      </trkpt>
      <trkpt lat="45.3522" lon="5.89055">
        <ele>1629.435520733</ele>
        <time>2015-06-06T14:30:59Z</time>
      </trkpt>
      <trkpt lat="45.3522" lon="5.89055">
        <ele>1629.435520733</ele>
        <time>2015-06-06T14:31:03Z</time>
      </trkpt>
      <trkpt lat="45.3522" lon="5.89055">
        <ele>1629.435520733</ele>
        <time>2015-06-06T14:31:08Z</time>
      </trkpt>
      <trkpt lat="45.3522" lon="5.89055">
        <ele>1629.435520733</ele>
        <time>2015-06-06T14:31:12Z</time>
      </trkpt>
      <trkpt lat="45.35207" lon="5.89044">
        <ele>1641.859336282</ele>
        <time>2015-06-06T14:31:18Z</time>
      </trkpt>
      <trkpt lat="45.35197" lon="5.89038">
        <ele>1653.110370028</ele>
        <time>2015-06-06T14:31:22Z</time>
      </trkpt>
      <trkpt lat="45.35189" lon="5.89033">
        <ele>1663.264057355</ele>
        <time>2015-06-06T14:31:28Z</time>
      </trkpt>
      <trkpt lat="45.35185" lon="5.8903">
        <ele>1663.264057355</ele>
        <time>2015-06-06T14:31:33Z</time>
      </trkpt>
      <trkpt lat="45.35178" lon="5.89023">
        <ele>1672.801507596</ele>
        <time>2015-06-06T14:31:38Z</time>
      </trkpt>
      <trkpt lat="45.35178" lon="5.89014">
        <ele>1672.801507596</ele>
        <time>2015-06-06T14:31:43Z</time>
      </trkpt>
      <trkpt lat="45.35173" lon="5.89012">
        <ele>1681.610959648</ele>
        <time>2015-06-06T14:31:48Z</time>
      </trkpt>
      <trkpt lat="45.3517" lon="5.89003">
        <ele>1681.610959648</ele>
        <time>2015-06-06T14:31:53Z</time>
      </trkpt>
      <trkpt lat="45.35167" lon="5.89001">
        <ele>1689.304989603</ele>
        <time>2015-06-06T14:31:58Z</time>
      </trkpt>
      <trkpt lat="45.35167" lon="5.89002">
        <ele>1689.304989603</ele>
        <time>2015-06-06T14:32:03Z</time>
      </trkpt>
      <trkpt lat="45.35167" lon="5.89001">
        <ele>1689.304989603</ele>
        <time>2015-06-06T14:32:08Z</time>
      </trkpt>
      <trkpt lat="45.35167" lon="5.89">
        <ele>1689.304989603</ele>
        <time>2015-06-06T14:32:13Z</time>
      </trkpt>
      <trkpt lat="45.35167" lon="5.89">
        <ele>1689.304989603</ele>
        <time>2015-06-06T14:32:18Z</time>
      </trkpt>
      <trkpt lat="45.35167" lon="5.89">
        <ele>1689.304989603</ele>
        <time>2015-06-06T14:32:23Z</time>
      </trkpt>
      <trkpt lat="45.35167" lon="5.89">
        <ele>1689.304989603</ele>
        <time>2015-06-06T14:32:28Z</time>
      </trkpt>
      <trkpt lat="45.35167" lon="5.89">
        <ele>1689.304989603</ele>
        <time>2015-06-06T14:32:33Z</time>
      </trkpt>
      <trkpt lat="45.35167" lon="5.89">
        <ele>1689.304989603</ele>
        <time>2015-06-06T14:32:38Z</time>
      </trkpt>
      <trkpt lat="45.35167" lon="5.89">
        <ele>1689.304989603</ele>
        <time>2015-06-06T14:32:43Z</time>
      </trkpt>
      <trkpt lat="45.35167" lon="5.89">
        <ele>1689.304989603</ele>
        <time>2015-06-06T14:32:48Z</time>
      </trkpt>
      <trkpt lat="45.35167" lon="5.89">
        <ele>1689.304989603</ele>
        <time>2015-06-06T14:32:53Z</time>
      </trkpt>
      <trkpt lat="45.35167" lon="5.89">
        <ele>1689.304989603</ele>
        <time>2015-06-06T14:32:57Z</time>
      </trkpt>
      <trkpt lat="45.35167" lon="5.89">
        <ele>1689.304989603</ele>
        <time>2015-06-06T14:33:03Z</time>
      </trkpt>
      <trkpt lat="45.35167" lon="5.89">
        <ele>1689.304989603</ele>
        <time>2015-06-06T14:33:08Z</time>
      </trkpt>
      <trkpt lat="45.35167" lon="5.89">
        <ele>1689.304989603</ele>
        <time>2015-06-06T14:33:13Z</time>
      </trkpt>
      <trkpt lat="45.35167" lon="5.89">
        <ele>1689.304989603</ele>
        <time>2015-06-06T14:33:18Z</time>
      </trkpt>
      <trkpt lat="45.35167" lon="5.89">
        <ele>1689.304989603</ele>
        <time>2015-06-06T14:33:23Z</time>
      </trkpt>
      <trkpt lat="45.35167" lon="5.89">
        <ele>1689.304989603</ele>
        <time>2015-06-06T14:33:29Z</time>
      </trkpt>
      <trkpt lat="45.35167" lon="5.89">
        <ele>1689.304989603</ele>
        <time>2015-06-06T14:33:33Z</time>
      </trkpt>
      <trkpt lat="45.35169" lon="5.88998">
        <ele>1689.304989603</ele>
        <time>2015-06-06T14:33:38Z</time>
      </trkpt>
      <trkpt lat="45.35169" lon="5.88998">
        <ele>1689.304989603</ele>
        <time>2015-06-06T14:33:43Z</time>
      </trkpt>
      <trkpt lat="45.35169" lon="5.88998">
        <ele>1689.304989603</ele>
        <time>2015-06-06T14:33:48Z</time>
      </trkpt>
      <trkpt lat="45.35169" lon="5.88998">
        <ele>1689.304989603</ele>
        <time>2015-06-06T14:33:53Z</time>
      </trkpt>
      <trkpt lat="45.35169" lon="5.88998">
        <ele>1689.304989603</ele>
        <time>2015-06-06T14:33:58Z</time>
      </trkpt>
      <trkpt lat="45.35169" lon="5.88998">
        <ele>1689.304989603</ele>
        <time>2015-06-06T14:34:03Z</time>
      </trkpt>
      <trkpt lat="45.35169" lon="5.88998">
        <ele>1689.304989603</ele>
        <time>2015-06-06T14:34:08Z</time>
      </trkpt>
      <trkpt lat="45.35169" lon="5.88998">
        <ele>1689.304989603</ele>
        <time>2015-06-06T14:34:13Z</time>
      </trkpt>
      <trkpt lat="45.35169" lon="5.88997">
        <ele>1689.304989603</ele>
        <time>2015-06-06T14:34:18Z</time>
      </trkpt>
      <trkpt lat="45.35169" lon="5.88997">
        <ele>1689.304989603</ele>
        <time>2015-06-06T14:34:22Z</time>
      </trkpt>
      <trkpt lat="45.35169" lon="5.88997">
        <ele>1689.304989603</ele>
        <time>2015-06-06T14:34:33Z</time>
      </trkpt>
      <trkpt lat="45.35169" lon="5.88997">
        <ele>1689.304989603</ele>
        <time>2015-06-06T14:34:37Z</time>
      </trkpt>
      <trkpt lat="45.35169" lon="5.88997">
        <ele>1689.304989603</ele>
        <time>2015-06-06T14:34:42Z</time>
      </trkpt>
      <trkpt lat="45.35169" lon="5.88997">
        <ele>1689.304989603</ele>
        <time>2015-06-06T14:34:47Z</time>
      </trkpt>
      <trkpt lat="45.35169" lon="5.88997">
        <ele>1689.304989603</ele>
        <time>2015-06-06T14:34:53Z</time>
      </trkpt>
      <trkpt lat="45.35169" lon="5.88997">
        <ele>1689.304989603</ele>
        <time>2015-06-06T14:34:58Z</time>
      </trkpt>
      <trkpt lat="45.35169" lon="5.88997">
        <ele>1689.304989603</ele>
        <time>2015-06-06T14:35:03Z</time>
      </trkpt>
      <trkpt lat="45.35169" lon="5.88997">
        <ele>1689.304989603</ele>
        <time>2015-06-06T14:35:08Z</time>
      </trkpt>
      <trkpt lat="45.35169" lon="5.88997">
        <ele>1689.304989603</ele>
        <time>2015-06-06T14:35:13Z</time>
      </trkpt>
      <trkpt lat="45.35169" lon="5.88997">
        <ele>1689.304989603</ele>
        <time>2015-06-06T14:35:18Z</time>
      </trkpt>
      <trkpt lat="45.35169" lon="5.88997">
        <ele>1689.304989603</ele>
        <time>2015-06-06T14:35:23Z</time>
      </trkpt>
      <trkpt lat="45.35169" lon="5.88997">
        <ele>1689.304989603</ele>
        <time>2015-06-06T14:35:28Z</time>
      </trkpt>
      <trkpt lat="45.35169" lon="5.88997">
        <ele>1689.304989603</ele>
        <time>2015-06-06T14:35:33Z</time>
      </trkpt>
      <trkpt lat="45.35169" lon="5.88997">
        <ele>1689.304989603</ele>
        <time>2015-06-06T14:35:38Z</time>
      </trkpt>
      <trkpt lat="45.35169" lon="5.88997">
        <ele>1689.304989603</ele>
        <time>2015-06-06T14:35:43Z</time>
      </trkpt>
      <trkpt lat="45.35169" lon="5.88997">
        <ele>1689.304989603</ele>
        <time>2015-06-06T14:35:48Z</time>
      </trkpt>
      <trkpt lat="45.35169" lon="5.88997">
        <ele>1689.304989603</ele>
        <time>2015-06-06T14:35:53Z</time>
      </trkpt>
      <trkpt lat="45.3517" lon="5.88997">
        <ele>1689.304989603</ele>
        <time>2015-06-06T14:35:58Z</time>
      </trkpt>
      <trkpt lat="45.3517" lon="5.88997">
        <ele>1689.304989603</ele>
        <time>2015-06-06T14:36:03Z</time>
      </trkpt>
      <trkpt lat="45.3517" lon="5.88997">
        <ele>1689.304989603</ele>
        <time>2015-06-06T14:36:08Z</time>
      </trkpt>
      <trkpt lat="45.3517" lon="5.88997">
        <ele>1689.304989603</ele>
        <time>2015-06-06T14:36:13Z</time>
      </trkpt>
      <trkpt lat="45.3517" lon="5.88997">
        <ele>1689.304989603</ele>
        <time>2015-06-06T14:36:18Z</time>
      </trkpt>
      <trkpt lat="45.3517" lon="5.88997">
        <ele>1689.304989603</ele>
        <time>2015-06-06T14:36:23Z</time>
      </trkpt>
      <trkpt lat="45.35171" lon="5.88996">
        <ele>1689.304989603</ele>
        <time>2015-06-06T14:36:28Z</time>
      </trkpt>
      <trkpt lat="45.35171" lon="5.88996">
        <ele>1689.304989603</ele>
        <time>2015-06-06T14:36:33Z</time>
      </trkpt>
      <trkpt lat="45.35171" lon="5.88996">
        <ele>1689.304989603</ele>
        <time>2015-06-06T14:36:38Z</time>
      </trkpt>
      <trkpt lat="45.35171" lon="5.88996">
        <ele>1689.304989603</ele>
        <time>2015-06-06T14:36:42Z</time>
      </trkpt>
      <trkpt lat="45.35171" lon="5.88996">
        <ele>1689.304989603</ele>
        <time>2015-06-06T14:36:48Z</time>
      </trkpt>
      <trkpt lat="45.35171" lon="5.88996">
        <ele>1689.304989603</ele>
        <time>2015-06-06T14:36:53Z</time>
      </trkpt>
      <trkpt lat="45.35171" lon="5.88996">
        <ele>1689.304989603</ele>
        <time>2015-06-06T14:36:58Z</time>
      </trkpt>
      <trkpt lat="45.35171" lon="5.88996">
        <ele>1689.304989603</ele>
        <time>2015-06-06T14:37:03Z</time>
      </trkpt>
      <trkpt lat="45.35171" lon="5.88996">
        <ele>1689.304989603</ele>
        <time>2015-06-06T14:37:08Z</time>
      </trkpt>
      <trkpt lat="45.35171" lon="5.88995">
        <ele>1689.304989603</ele>
        <time>2015-06-06T14:37:13Z</time>
      </trkpt>
      <trkpt lat="45.35171" lon="5.88995">
        <ele>1689.304989603</ele>
        <time>2015-06-06T14:37:18Z</time>
      </trkpt>
      <trkpt lat="45.35172" lon="5.88995">
        <ele>1689.304989603</ele>
        <time>2015-06-06T14:37:23Z</time>
      </trkpt>
      <trkpt lat="45.35172" lon="5.88995">
        <ele>1689.304989603</ele>
        <time>2015-06-06T14:37:28Z</time>
      </trkpt>
      <trkpt lat="45.35172" lon="5.88995">
        <ele>1689.304989603</ele>
        <time>2015-06-06T14:37:33Z</time>
      </trkpt>
      <trkpt lat="45.35172" lon="5.88995">
        <ele>1689.304989603</ele>
        <time>2015-06-06T14:37:38Z</time>
      </trkpt>
      <trkpt lat="45.35182" lon="5.88999">
        <ele>1697.771943001</ele>
        <time>2015-06-06T14:37:42Z</time>
      </trkpt>
      <trkpt lat="45.35192" lon="5.89011">
        <ele>1706.388758925</ele>
        <time>2015-06-06T14:37:47Z</time>
      </trkpt>
      <trkpt lat="45.35201" lon="5.89013">
        <ele>1713.993908975</ele>
        <time>2015-06-06T14:37:52Z</time>
      </trkpt>
      <trkpt lat="45.35208" lon="5.89013">
        <ele>1713.993908975</ele>
        <time>2015-06-06T14:37:58Z</time>
      </trkpt>
      <trkpt lat="45.35208" lon="5.89014">
        <ele>1713.993908975</ele>
        <time>2015-06-06T14:38:03Z</time>
      </trkpt>
      <trkpt lat="45.3521" lon="5.89013">
        <ele>1721.35572763</ele>
        <time>2015-06-06T14:38:08Z</time>
      </trkpt>
      <trkpt lat="45.3521" lon="5.89013">
        <ele>1721.35572763</ele>
        <time>2015-06-06T14:38:13Z</time>
      </trkpt>
      <trkpt lat="45.35211" lon="5.89013">
        <ele>1721.35572763</ele>
        <time>2015-06-06T14:38:18Z</time>
      </trkpt>
      <trkpt lat="45.35211" lon="5.89013">
        <ele>1721.35572763</ele>
        <time>2015-06-06T14:38:23Z</time>
      </trkpt>
      <trkpt lat="45.35211" lon="5.89013">
        <ele>1721.35572763</ele>
        <time>2015-06-06T14:38:27Z</time>
      </trkpt>
      <trkpt lat="45.35211" lon="5.89013">
        <ele>1721.35572763</ele>
        <time>2015-06-06T14:38:34Z</time>
      </trkpt>
      <trkpt lat="45.35211" lon="5.89013">
        <ele>1721.35572763</ele>
        <time>2015-06-06T14:38:38Z</time>
      </trkpt>
      <trkpt lat="45.35211" lon="5.89013">
        <ele>1721.35572763</ele>
        <time>2015-06-06T14:38:43Z</time>
      </trkpt>
      <trkpt lat="45.35211" lon="5.89013">
        <ele>1721.35572763</ele>
        <time>2015-06-06T14:38:49Z</time>
      </trkpt>
      <trkpt lat="45.35211" lon="5.89013">
        <ele>1721.35572763</ele>
        <time>2015-06-06T14:38:52Z</time>
      </trkpt>
      <trkpt lat="45.35211" lon="5.89013">
        <ele>1721.35572763</ele>
        <time>2015-06-06T14:38:58Z</time>
      </trkpt>
      <trkpt lat="45.35211" lon="5.89013">
        <ele>1721.35572763</ele>
        <time>2015-06-06T14:39:03Z</time>
      </trkpt>
      <trkpt lat="45.35212" lon="5.8901">
        <ele>1721.35572763</ele>
        <time>2015-06-06T14:39:08Z</time>
      </trkpt>
      <trkpt lat="45.35216" lon="5.89006">
        <ele>1721.35572763</ele>
        <time>2015-06-06T14:39:13Z</time>
      </trkpt>
      <trkpt lat="45.35219" lon="5.88999">
        <ele>1729.061689514</ele>
        <time>2015-06-06T14:39:18Z</time>
      </trkpt>
      <trkpt lat="45.35219" lon="5.88998">
        <ele>1729.061689514</ele>
        <time>2015-06-06T14:39:28Z</time>
      </trkpt>
      <trkpt lat="45.35219" lon="5.88997">
        <ele>1729.061689514</ele>
        <time>2015-06-06T14:39:33Z</time>
      </trkpt>
      <trkpt lat="45.35219" lon="5.88997">
        <ele>1729.061689514</ele>
        <time>2015-06-06T14:39:38Z</time>
      </trkpt>
      <trkpt lat="45.35219" lon="5.88997">
        <ele>1729.061689514</ele>
        <time>2015-06-06T14:39:43Z</time>
      </trkpt>
      <trkpt lat="45.35219" lon="5.88997">
        <ele>1729.061689514</ele>
        <time>2015-06-06T14:39:48Z</time>
      </trkpt>
      <trkpt lat="45.35219" lon="5.88997">
        <ele>1729.061689514</ele>
        <time>2015-06-06T14:39:53Z</time>
      </trkpt>
      <trkpt lat="45.35219" lon="5.88997">
        <ele>1729.061689514</ele>
        <time>2015-06-06T14:39:58Z</time>
      </trkpt>
      <trkpt lat="45.35219" lon="5.88997">
        <ele>1729.061689514</ele>
        <time>2015-06-06T14:40:03Z</time>
      </trkpt>
      <trkpt lat="45.35219" lon="5.88997">
        <ele>1729.061689514</ele>
        <time>2015-06-06T14:40:08Z</time>
      </trkpt>
      <trkpt lat="45.3522" lon="5.88998">
        <ele>1729.061689514</ele>
        <time>2015-06-06T14:40:13Z</time>
      </trkpt>
      <trkpt lat="45.3522" lon="5.88999">
        <ele>1729.061689514</ele>
        <time>2015-06-06T14:40:18Z</time>
      </trkpt>
      <trkpt lat="45.3522" lon="5.88999">
        <ele>1729.061689514</ele>
        <time>2015-06-06T14:40:23Z</time>
      </trkpt>
      <trkpt lat="45.3522" lon="5.88999">
        <ele>1729.061689514</ele>
        <time>2015-06-06T14:40:28Z</time>
      </trkpt>
      <trkpt lat="45.3522" lon="5.88999">
        <ele>1729.061689514</ele>
        <time>2015-06-06T14:40:33Z</time>
      </trkpt>
      <trkpt lat="45.3522" lon="5.88999">
        <ele>1729.061689514</ele>
        <time>2015-06-06T14:40:38Z</time>
      </trkpt>
      <trkpt lat="45.3522" lon="5.88999">
        <ele>1729.061689514</ele>
        <time>2015-06-06T14:40:43Z</time>
      </trkpt>
      <trkpt lat="45.3522" lon="5.88999">
        <ele>1729.061689514</ele>
        <time>2015-06-06T14:40:48Z</time>
      </trkpt>
      <trkpt lat="45.3522" lon="5.88999">
        <ele>1729.061689514</ele>
        <time>2015-06-06T14:40:52Z</time>
      </trkpt>
      <trkpt lat="45.3522" lon="5.88999">
        <ele>1729.061689514</ele>
        <time>2015-06-06T14:40:58Z</time>
      </trkpt>
      <trkpt lat="45.3522" lon="5.88999">
        <ele>1729.061689514</ele>
        <time>2015-06-06T14:41:02Z</time>
      </trkpt>
      <trkpt lat="45.3522" lon="5.88999">
        <ele>1729.061689514</ele>
        <time>2015-06-06T14:41:07Z</time>
      </trkpt>
      <trkpt lat="45.3522" lon="5.88999">
        <ele>1729.061689514</ele>
        <time>2015-06-06T14:41:13Z</time>
      </trkpt>
      <trkpt lat="45.3522" lon="5.88999">
        <ele>1729.061689514</ele>
        <time>2015-06-06T14:41:17Z</time>
      </trkpt>
      <trkpt lat="45.3522" lon="5.88999">
        <ele>1729.061689514</ele>
        <time>2015-06-06T14:41:23Z</time>
      </trkpt>
      <trkpt lat="45.3522" lon="5.88999">
        <ele>1729.061689514</ele>
        <time>2015-06-06T14:41:28Z</time>
      </trkpt>
      <trkpt lat="45.3522" lon="5.88999">
        <ele>1729.061689514</ele>
        <time>2015-06-06T14:41:33Z</time>
      </trkpt>
      <trkpt lat="45.3522" lon="5.88999">
        <ele>1729.061689514</ele>
        <time>2015-06-06T14:41:38Z</time>
      </trkpt>
      <trkpt lat="45.3522" lon="5.88999">
        <ele>1729.061689514</ele>
        <time>2015-06-06T14:41:43Z</time>
      </trkpt>
      <trkpt lat="45.3522" lon="5.88999">
        <ele>1729.061689514</ele>
        <time>2015-06-06T14:41:48Z</time>
      </trkpt>
      <trkpt lat="45.3522" lon="5.88999">
        <ele>1729.061689514</ele>
        <time>2015-06-06T14:41:53Z</time>
      </trkpt>
      <trkpt lat="45.3522" lon="5.88999">
        <ele>1729.061689514</ele>
        <time>2015-06-06T14:41:58Z</time>
      </trkpt>
      <trkpt lat="45.35227" lon="5.88989">
        <ele>1736.066936211</ele>
        <time>2015-06-06T14:42:03Z</time>
      </trkpt>
      <trkpt lat="45.35232" lon="5.88979">
        <ele>1736.066936211</ele>
        <time>2015-06-06T14:42:07Z</time>
      </trkpt>
      <trkpt lat="45.35236" lon="5.88976">
        <ele>1743.290461192</ele>
        <time>2015-06-06T14:42:12Z</time>
      </trkpt>
      <trkpt lat="45.35246" lon="5.8898">
        <ele>1750.865374685</ele>
        <time>2015-06-06T14:42:17Z</time>
      </trkpt>
      <trkpt lat="45.35247" lon="5.88972">
        <ele>1750.865374685</ele>
        <time>2015-06-06T14:42:23Z</time>
      </trkpt>
      <trkpt lat="45.35254" lon="5.8896">
        <ele>1757.285010901</ele>
        <time>2015-06-06T14:42:27Z</time>
      </trkpt>
      <trkpt lat="45.35253" lon="5.88955">
        <ele>1757.285010901</ele>
        <time>2015-06-06T14:42:33Z</time>
      </trkpt>
      <trkpt lat="45.35251" lon="5.88945">
        <ele>1763.370741</ele>
        <time>2015-06-06T14:42:37Z</time>
      </trkpt>
      <trkpt lat="45.35259" lon="5.8894">
        <ele>1763.370741</ele>
        <time>2015-06-06T14:42:43Z</time>
      </trkpt>
      <trkpt lat="45.35264" lon="5.88938">
        <ele>1768.102941479</ele>
        <time>2015-06-06T14:42:47Z</time>
      </trkpt>
      <trkpt lat="45.35266" lon="5.88943">
        <ele>1768.102941479</ele>
        <time>2015-06-06T14:42:53Z</time>
      </trkpt>
      <trkpt lat="45.35271" lon="5.88947">
        <ele>1772.184755151</ele>
        <time>2015-06-06T14:42:58Z</time>
      </trkpt>
      <trkpt lat="45.35279" lon="5.88947">
        <ele>1772.184755151</ele>
        <time>2015-06-06T14:43:03Z</time>
      </trkpt>
      <trkpt lat="45.35284" lon="5.88946">
        <ele>1774.472541395</ele>
        <time>2015-06-06T14:43:08Z</time>
      </trkpt>
      <trkpt lat="45.35289" lon="5.88942">
        <ele>1774.472541395</ele>
        <time>2015-06-06T14:43:13Z</time>
      </trkpt>
      <trkpt lat="45.35292" lon="5.88938">
        <ele>1776.171151535</ele>
        <time>2015-06-06T14:43:17Z</time>
      </trkpt>
      <trkpt lat="45.35292" lon="5.88939">
        <ele>1776.171151535</ele>
        <time>2015-06-06T14:43:23Z</time>
      </trkpt>
      <trkpt lat="45.35292" lon="5.88939">
        <ele>1776.171151535</ele>
        <time>2015-06-06T14:43:28Z</time>
      </trkpt>
      <trkpt lat="45.35295" lon="5.88941">
        <ele>1776.171151535</ele>
        <time>2015-06-06T14:43:33Z</time>
      </trkpt>
      <trkpt lat="45.35303" lon="5.88944">
        <ele>1776.894858762</ele>
        <time>2015-06-06T14:43:38Z</time>
      </trkpt>
      <trkpt lat="45.35304" lon="5.88948">
        <ele>1776.894858762</ele>
        <time>2015-06-06T14:43:43Z</time>
      </trkpt>
      <trkpt lat="45.35308" lon="5.8895">
        <ele>1776.894858762</ele>
        <time>2015-06-06T14:43:47Z</time>
      </trkpt>
      <trkpt lat="45.35314" lon="5.88946">
        <ele>1778.403829526</ele>
        <time>2015-06-06T14:43:53Z</time>
      </trkpt>
      <trkpt lat="45.35318" lon="5.88943">
        <ele>1778.403829526</ele>
        <time>2015-06-06T14:43:58Z</time>
      </trkpt>
      <trkpt lat="45.35319" lon="5.88942">
        <ele>1778.403829526</ele>
        <time>2015-06-06T14:44:03Z</time>
      </trkpt>
      <trkpt lat="45.35324" lon="5.88932">
        <ele>1779.452754146</ele>
        <time>2015-06-06T14:44:08Z</time>
      </trkpt>
      <trkpt lat="45.35334" lon="5.88936">
        <ele>1779.647153209</ele>
        <time>2015-06-06T14:44:13Z</time>
      </trkpt>
      <trkpt lat="45.35339" lon="5.88933">
        <ele>1779.647153209</ele>
        <time>2015-06-06T14:44:18Z</time>
      </trkpt>
      <trkpt lat="45.35343" lon="5.88923">
        <ele>1779.832220452</ele>
        <time>2015-06-06T14:44:23Z</time>
      </trkpt>
      <trkpt lat="45.3535" lon="5.88922">
        <ele>1779.832220452</ele>
        <time>2015-06-06T14:44:28Z</time>
      </trkpt>
      <trkpt lat="45.35354" lon="5.88926">
        <ele>1778.676927249</ele>
        <time>2015-06-06T14:44:33Z</time>
      </trkpt>
      <trkpt lat="45.35362" lon="5.88928">
        <ele>1778.676927249</ele>
        <time>2015-06-06T14:44:37Z</time>
      </trkpt>
      <trkpt lat="45.35367" lon="5.88921">
        <ele>1777.817864083</ele>
        <time>2015-06-06T14:44:42Z</time>
      </trkpt>
      <trkpt lat="45.35367" lon="5.88913">
        <ele>1777.817864083</ele>
        <time>2015-06-06T14:44:47Z</time>
      </trkpt>
      <trkpt lat="45.35371" lon="5.88911">
        <ele>1775.905036311</ele>
        <time>2015-06-06T14:44:53Z</time>
      </trkpt>
      <trkpt lat="45.35371" lon="5.88912">
        <ele>1775.905036311</ele>
        <time>2015-06-06T14:44:58Z</time>
      </trkpt>
      <trkpt lat="45.35371" lon="5.88911">
        <ele>1775.905036311</ele>
        <time>2015-06-06T14:45:03Z</time>
      </trkpt>
      <trkpt lat="45.35371" lon="5.88911">
        <ele>1775.905036311</ele>
        <time>2015-06-06T14:45:08Z</time>
      </trkpt>
      <trkpt lat="45.35372" lon="5.88911">
        <ele>1775.905036311</ele>
        <time>2015-06-06T14:45:13Z</time>
      </trkpt>
      <trkpt lat="45.35372" lon="5.88911">
        <ele>1775.905036311</ele>
        <time>2015-06-06T14:45:18Z</time>
      </trkpt>
      <trkpt lat="45.35372" lon="5.88911">
        <ele>1775.905036311</ele>
        <time>2015-06-06T14:45:23Z</time>
      </trkpt>
      <trkpt lat="45.35372" lon="5.88911">
        <ele>1775.905036311</ele>
        <time>2015-06-06T14:45:28Z</time>
      </trkpt>
      <trkpt lat="45.3538" lon="5.88908">
        <ele>1773.798270711</ele>
        <time>2015-06-06T14:45:33Z</time>
      </trkpt>
      <trkpt lat="45.3539" lon="5.88902">
        <ele>1772.583597749</ele>
        <time>2015-06-06T14:45:38Z</time>
      </trkpt>
      <trkpt lat="45.35408" lon="5.88897">
        <ele>1771.464517328</ele>
        <time>2015-06-06T14:45:43Z</time>
      </trkpt>
      <trkpt lat="45.35404" lon="5.88904">
        <ele>1771.464517328</ele>
        <time>2015-06-06T14:45:48Z</time>
      </trkpt>
      <trkpt lat="45.35409" lon="5.88894">
        <ele>1770.007469737</ele>
        <time>2015-06-06T14:45:53Z</time>
      </trkpt>
      <trkpt lat="45.35413" lon="5.88882">
        <ele>1767.222809734</ele>
        <time>2015-06-06T14:45:58Z</time>
      </trkpt>
      <trkpt lat="45.35413" lon="5.88873">
        <ele>1767.222809734</ele>
        <time>2015-06-06T14:46:03Z</time>
      </trkpt>
      <trkpt lat="45.35414" lon="5.88864">
        <ele>1764.424436613</ele>
        <time>2015-06-06T14:46:08Z</time>
      </trkpt>
      <trkpt lat="45.35417" lon="5.88861">
        <ele>1764.424436613</ele>
        <time>2015-06-06T14:46:13Z</time>
      </trkpt>
      <trkpt lat="45.35419" lon="5.88854">
        <ele>1764.424436613</ele>
        <time>2015-06-06T14:46:18Z</time>
      </trkpt>
      <trkpt lat="45.35421" lon="5.88847">
        <ele>1760.898260126</ele>
        <time>2015-06-06T14:46:23Z</time>
      </trkpt>
      <trkpt lat="45.35422" lon="5.8884">
        <ele>1760.898260126</ele>
        <time>2015-06-06T14:46:28Z</time>
      </trkpt>
      <trkpt lat="45.3542" lon="5.88832">
        <ele>1757.16793384</ele>
        <time>2015-06-06T14:46:33Z</time>
      </trkpt>
      <trkpt lat="45.35422" lon="5.88823">
        <ele>1757.16793384</ele>
        <time>2015-06-06T14:46:38Z</time>
      </trkpt>
      <trkpt lat="45.35422" lon="5.88818">
        <ele>1753.566632458</ele>
        <time>2015-06-06T14:46:43Z</time>
      </trkpt>
      <trkpt lat="45.35426" lon="5.88811">
        <ele>1753.566632458</ele>
        <time>2015-06-06T14:46:48Z</time>
      </trkpt>
      <trkpt lat="45.35429" lon="5.88809">
        <ele>1753.566632458</ele>
        <time>2015-06-06T14:46:53Z</time>
      </trkpt>
      <trkpt lat="45.3543" lon="5.88804">
        <ele>1748.934402038</ele>
        <time>2015-06-06T14:46:58Z</time>
      </trkpt>
      <trkpt lat="45.35431" lon="5.88799">
        <ele>1748.934402038</ele>
        <time>2015-06-06T14:47:03Z</time>
      </trkpt>
      <trkpt lat="45.35431" lon="5.88799">
        <ele>1748.934402038</ele>
        <time>2015-06-06T14:47:08Z</time>
      </trkpt>
      <trkpt lat="45.35431" lon="5.88798">
        <ele>1748.934402038</ele>
        <time>2015-06-06T14:47:13Z</time>
      </trkpt>
      <trkpt lat="45.3543" lon="5.88799">
        <ele>1748.934402038</ele>
        <time>2015-06-06T14:47:18Z</time>
      </trkpt>
      <trkpt lat="45.35432" lon="5.88799">
        <ele>1748.934402038</ele>
        <time>2015-06-06T14:47:23Z</time>
      </trkpt>
      <trkpt lat="45.35432" lon="5.88799">
        <ele>1748.934402038</ele>
        <time>2015-06-06T14:47:28Z</time>
      </trkpt>
      <trkpt lat="45.35432" lon="5.88799">
        <ele>1748.934402038</ele>
        <time>2015-06-06T14:47:33Z</time>
      </trkpt>
      <trkpt lat="45.35432" lon="5.88799">
        <ele>1748.934402038</ele>
        <time>2015-06-06T14:47:38Z</time>
      </trkpt>
      <trkpt lat="45.35432" lon="5.88799">
        <ele>1748.934402038</ele>
        <time>2015-06-06T14:47:42Z</time>
      </trkpt>
      <trkpt lat="45.35432" lon="5.88799">
        <ele>1748.934402038</ele>
        <time>2015-06-06T14:47:48Z</time>
      </trkpt>
      <trkpt lat="45.35432" lon="5.88799">
        <ele>1748.934402038</ele>
        <time>2015-06-06T14:47:53Z</time>
      </trkpt>
      <trkpt lat="45.35444" lon="5.88802">
        <ele>1744.400910724</ele>
        <time>2015-06-06T14:47:58Z</time>
      </trkpt>
      <trkpt lat="45.35452" lon="5.888">
        <ele>1744.400910724</ele>
        <time>2015-06-06T14:48:03Z</time>
      </trkpt>
      <trkpt lat="45.35458" lon="5.88799">
        <ele>1740.273470896</ele>
        <time>2015-06-06T14:48:08Z</time>
      </trkpt>
      <trkpt lat="45.35466" lon="5.88803">
        <ele>1740.273470896</ele>
        <time>2015-06-06T14:48:13Z</time>
      </trkpt>
      <trkpt lat="45.35471" lon="5.88807">
        <ele>1735.230983946</ele>
        <time>2015-06-06T14:48:18Z</time>
      </trkpt>
      <trkpt lat="45.35478" lon="5.88811">
        <ele>1735.230983946</ele>
        <time>2015-06-06T14:48:23Z</time>
      </trkpt>
      <trkpt lat="45.35481" lon="5.88813">
        <ele>1729.950339172</ele>
        <time>2015-06-06T14:48:28Z</time>
      </trkpt>
      <trkpt lat="45.35485" lon="5.88808">
        <ele>1729.950339172</ele>
        <time>2015-06-06T14:48:33Z</time>
      </trkpt>
      <trkpt lat="45.35492" lon="5.88811">
        <ele>1726.07104704</ele>
        <time>2015-06-06T14:48:38Z</time>
      </trkpt>
      <trkpt lat="45.35496" lon="5.88817">
        <ele>1726.07104704</ele>
        <time>2015-06-06T14:48:43Z</time>
      </trkpt>
      <trkpt lat="45.35501" lon="5.88808">
        <ele>1722.343938415</ele>
        <time>2015-06-06T14:48:48Z</time>
      </trkpt>
      <trkpt lat="45.35509" lon="5.88807">
        <ele>1722.343938415</ele>
        <time>2015-06-06T14:48:53Z</time>
      </trkpt>
      <trkpt lat="45.35515" lon="5.88813">
        <ele>1719.065652868</ele>
        <time>2015-06-06T14:48:58Z</time>
      </trkpt>
      <trkpt lat="45.35518" lon="5.88814">
        <ele>1719.065652868</ele>
        <time>2015-06-06T14:49:03Z</time>
      </trkpt>
      <trkpt lat="45.35523" lon="5.88806">
        <ele>1716.074006786</ele>
        <time>2015-06-06T14:49:08Z</time>
      </trkpt>
      <trkpt lat="45.3553" lon="5.88805">
        <ele>1716.074006786</ele>
        <time>2015-06-06T14:49:13Z</time>
      </trkpt>
      <trkpt lat="45.35535" lon="5.88802">
        <ele>1713.362728218</ele>
        <time>2015-06-06T14:49:19Z</time>
      </trkpt>
      <trkpt lat="45.35541" lon="5.88804">
        <ele>1713.362728218</ele>
        <time>2015-06-06T14:49:23Z</time>
      </trkpt>
      <trkpt lat="45.35548" lon="5.88795">
        <ele>1710.346728559</ele>
        <time>2015-06-06T14:49:28Z</time>
      </trkpt>
      <trkpt lat="45.35551" lon="5.88793">
        <ele>1710.346728559</ele>
        <time>2015-06-06T14:49:33Z</time>
      </trkpt>
      <trkpt lat="45.35557" lon="5.88787">
        <ele>1707.063260432</ele>
        <time>2015-06-06T14:49:38Z</time>
      </trkpt>
      <trkpt lat="45.35565" lon="5.88793">
        <ele>1703.979798745</ele>
        <time>2015-06-06T14:49:43Z</time>
      </trkpt>
      <trkpt lat="45.35569" lon="5.88789">
        <ele>1703.979798745</ele>
        <time>2015-06-06T14:49:48Z</time>
      </trkpt>
      <trkpt lat="45.35573" lon="5.88788">
        <ele>1703.979798745</ele>
        <time>2015-06-06T14:49:53Z</time>
      </trkpt>
      <trkpt lat="45.3558" lon="5.88787">
        <ele>1702.10468938</ele>
        <time>2015-06-06T14:49:58Z</time>
      </trkpt>
      <trkpt lat="45.35592" lon="5.88789">
        <ele>1699.914727498</ele>
        <time>2015-06-06T14:50:03Z</time>
      </trkpt>
      <trkpt lat="45.35596" lon="5.88788">
        <ele>1699.914727498</ele>
        <time>2015-06-06T14:50:08Z</time>
      </trkpt>
      <trkpt lat="45.35605" lon="5.88783">
        <ele>1697.875448948</ele>
        <time>2015-06-06T14:50:13Z</time>
      </trkpt>
      <trkpt lat="45.3561" lon="5.88783">
        <ele>1697.875448948</ele>
        <time>2015-06-06T14:50:18Z</time>
      </trkpt>
      <trkpt lat="45.35615" lon="5.88782">
        <ele>1696.272532918</ele>
        <time>2015-06-06T14:50:23Z</time>
      </trkpt>
      <trkpt lat="45.3562" lon="5.88781">
        <ele>1696.272532918</ele>
        <time>2015-06-06T14:50:28Z</time>
      </trkpt>
      <trkpt lat="45.35627" lon="5.88781">
        <ele>1694.503603271</ele>
        <time>2015-06-06T14:50:33Z</time>
      </trkpt>
      <trkpt lat="45.35632" lon="5.88781">
        <ele>1694.503603271</ele>
        <time>2015-06-06T14:50:38Z</time>
      </trkpt>
      <trkpt lat="45.35641" lon="5.88786">
        <ele>1692.731505571</ele>
        <time>2015-06-06T14:50:42Z</time>
      </trkpt>
      <trkpt lat="45.35645" lon="5.88785">
        <ele>1692.731505571</ele>
        <time>2015-06-06T14:50:48Z</time>
      </trkpt>
      <trkpt lat="45.35649" lon="5.8878">
        <ele>1691.106483784</ele>
        <time>2015-06-06T14:50:53Z</time>
      </trkpt>
      <trkpt lat="45.35653" lon="5.88774">
        <ele>1691.106483784</ele>
        <time>2015-06-06T14:50:58Z</time>
      </trkpt>
      <trkpt lat="45.35658" lon="5.88766">
        <ele>1690.199285691</ele>
        <time>2015-06-06T14:51:03Z</time>
      </trkpt>
      <trkpt lat="45.35665" lon="5.88763">
        <ele>1690.199285691</ele>
        <time>2015-06-06T14:51:08Z</time>
      </trkpt>
      <trkpt lat="45.35672" lon="5.88758">
        <ele>1688.661870726</ele>
        <time>2015-06-06T14:51:12Z</time>
      </trkpt>
      <trkpt lat="45.35676" lon="5.88752">
        <ele>1688.661870726</ele>
        <time>2015-06-06T14:51:18Z</time>
      </trkpt>
      <trkpt lat="45.35677" lon="5.88746">
        <ele>1686.976618448</ele>
        <time>2015-06-06T14:51:23Z</time>
      </trkpt>
      <trkpt lat="45.3568" lon="5.8874">
        <ele>1686.976618448</ele>
        <time>2015-06-06T14:51:28Z</time>
      </trkpt>
      <trkpt lat="45.35681" lon="5.88732">
        <ele>1685.734635378</ele>
        <time>2015-06-06T14:51:33Z</time>
      </trkpt>
      <trkpt lat="45.35685" lon="5.88727">
        <ele>1685.734635378</ele>
        <time>2015-06-06T14:51:38Z</time>
      </trkpt>
      <trkpt lat="45.35694" lon="5.88719">
        <ele>1684.039967317</ele>
        <time>2015-06-06T14:51:42Z</time>
      </trkpt>
      <trkpt lat="45.35696" lon="5.8871">
        <ele>1684.039967317</ele>
        <time>2015-06-06T14:51:47Z</time>
      </trkpt>
      <trkpt lat="45.35696" lon="5.88701">
        <ele>1682.50530002</ele>
        <time>2015-06-06T14:51:53Z</time>
      </trkpt>
      <trkpt lat="45.35697" lon="5.88694">
        <ele>1682.50530002</ele>
        <time>2015-06-06T14:51:58Z</time>
      </trkpt>
      <trkpt lat="45.35695" lon="5.88684">
        <ele>1680.832240744</ele>
        <time>2015-06-06T14:52:02Z</time>
      </trkpt>
      <trkpt lat="45.35692" lon="5.88676">
        <ele>1680.832240744</ele>
        <time>2015-06-06T14:52:08Z</time>
      </trkpt>
      <trkpt lat="45.35692" lon="5.88665">
        <ele>1679.321202824</ele>
        <time>2015-06-06T14:52:13Z</time>
      </trkpt>
      <trkpt lat="45.35693" lon="5.88657">
        <ele>1679.321202824</ele>
        <time>2015-06-06T14:52:18Z</time>
      </trkpt>
      <trkpt lat="45.35693" lon="5.88651">
        <ele>1678.105531185</ele>
        <time>2015-06-06T14:52:23Z</time>
      </trkpt>
      <trkpt lat="45.35693" lon="5.88645">
        <ele>1678.105531185</ele>
        <time>2015-06-06T14:52:28Z</time>
      </trkpt>
      <trkpt lat="45.35696" lon="5.88638">
        <ele>1676.730680184</ele>
        <time>2015-06-06T14:52:32Z</time>
      </trkpt>
      <trkpt lat="45.35696" lon="5.8863">
        <ele>1676.730680184</ele>
        <time>2015-06-06T14:52:37Z</time>
      </trkpt>
      <trkpt lat="45.35693" lon="5.88626">
        <ele>1675.06411032</ele>
        <time>2015-06-06T14:52:43Z</time>
      </trkpt>
      <trkpt lat="45.35689" lon="5.88622">
        <ele>1675.06411032</ele>
        <time>2015-06-06T14:52:48Z</time>
      </trkpt>
      <trkpt lat="45.35684" lon="5.88619">
        <ele>1674.137524423</ele>
        <time>2015-06-06T14:52:53Z</time>
      </trkpt>
      <trkpt lat="45.35681" lon="5.88616">
        <ele>1674.137524423</ele>
        <time>2015-06-06T14:52:58Z</time>
      </trkpt>
      <trkpt lat="45.35676" lon="5.88613">
        <ele>1673.029303989</ele>
        <time>2015-06-06T14:53:02Z</time>
      </trkpt>
      <trkpt lat="45.35671" lon="5.88605">
        <ele>1673.029303989</ele>
        <time>2015-06-06T14:53:08Z</time>
      </trkpt>
      <trkpt lat="45.3567" lon="5.886">
        <ele>1672.616788119</ele>
        <time>2015-06-06T14:53:12Z</time>
      </trkpt>
      <trkpt lat="45.35663" lon="5.88596">
        <ele>1672.616788119</ele>
        <time>2015-06-06T14:53:18Z</time>
      </trkpt>
      <trkpt lat="45.3566" lon="5.88596">
        <ele>1672.268211609</ele>
        <time>2015-06-06T14:53:23Z</time>
      </trkpt>
      <trkpt lat="45.35659" lon="5.88601">
        <ele>1672.268211609</ele>
        <time>2015-06-06T14:53:28Z</time>
      </trkpt>
      <trkpt lat="45.35657" lon="5.88601">
        <ele>1672.268211609</ele>
        <time>2015-06-06T14:53:33Z</time>
      </trkpt>
      <trkpt lat="45.35656" lon="5.88601">
        <ele>1672.268211609</ele>
        <time>2015-06-06T14:53:38Z</time>
      </trkpt>
      <trkpt lat="45.35655" lon="5.88601">
        <ele>1672.268211609</ele>
        <time>2015-06-06T14:53:43Z</time>
      </trkpt>
      <trkpt lat="45.35653" lon="5.88598">
        <ele>1672.840319643</ele>
        <time>2015-06-06T14:53:48Z</time>
      </trkpt>
      <trkpt lat="45.35649" lon="5.88597">
        <ele>1672.840319643</ele>
        <time>2015-06-06T14:53:53Z</time>
      </trkpt>
      <trkpt lat="45.3565" lon="5.88604">
        <ele>1672.840319643</ele>
        <time>2015-06-06T14:53:57Z</time>
      </trkpt>
      <trkpt lat="45.35649" lon="5.8861">
        <ele>1672.52783588</ele>
        <time>2015-06-06T14:54:02Z</time>
      </trkpt>
      <trkpt lat="45.35654" lon="5.8861">
        <ele>1672.52783588</ele>
        <time>2015-06-06T14:54:08Z</time>
      </trkpt>
      <trkpt lat="45.35653" lon="5.8861">
        <ele>1672.52783588</ele>
        <time>2015-06-06T14:54:13Z</time>
      </trkpt>
      <trkpt lat="45.35652" lon="5.88608">
        <ele>1672.52783588</ele>
        <time>2015-06-06T14:54:18Z</time>
      </trkpt>
      <trkpt lat="45.35651" lon="5.88607">
        <ele>1672.52783588</ele>
        <time>2015-06-06T14:54:22Z</time>
      </trkpt>
      <trkpt lat="45.35651" lon="5.88607">
        <ele>1672.52783588</ele>
        <time>2015-06-06T14:54:28Z</time>
      </trkpt>
      <trkpt lat="45.35651" lon="5.88607">
        <ele>1672.52783588</ele>
        <time>2015-06-06T14:54:32Z</time>
      </trkpt>
      <trkpt lat="45.35651" lon="5.88607">
        <ele>1672.52783588</ele>
        <time>2015-06-06T14:54:37Z</time>
      </trkpt>
      <trkpt lat="45.35651" lon="5.88607">
        <ele>1672.52783588</ele>
        <time>2015-06-06T14:54:43Z</time>
      </trkpt>
      <trkpt lat="45.35651" lon="5.88607">
        <ele>1672.52783588</ele>
        <time>2015-06-06T14:54:48Z</time>
      </trkpt>
      <trkpt lat="45.35651" lon="5.88607">
        <ele>1672.52783588</ele>
        <time>2015-06-06T14:54:53Z</time>
      </trkpt>
      <trkpt lat="45.35651" lon="5.88607">
        <ele>1672.52783588</ele>
        <time>2015-06-06T14:54:58Z</time>
      </trkpt>
      <trkpt lat="45.35651" lon="5.88607">
        <ele>1672.52783588</ele>
        <time>2015-06-06T14:55:03Z</time>
      </trkpt>
      <trkpt lat="45.35655" lon="5.8861">
        <ele>1672.978049237</ele>
        <time>2015-06-06T14:55:08Z</time>
      </trkpt>
      <trkpt lat="45.35654" lon="5.88605">
        <ele>1672.978049237</ele>
        <time>2015-06-06T14:55:13Z</time>
      </trkpt>
      <trkpt lat="45.35652" lon="5.88605">
        <ele>1672.978049237</ele>
        <time>2015-06-06T14:55:17Z</time>
      </trkpt>
      <trkpt lat="45.35654" lon="5.88601">
        <ele>1672.978049237</ele>
        <time>2015-06-06T14:55:23Z</time>
      </trkpt>
      <trkpt lat="45.3566" lon="5.886">
        <ele>1671.820669162</ele>
        <time>2015-06-06T14:55:28Z</time>
      </trkpt>
      <trkpt lat="45.35657" lon="5.88595">
        <ele>1671.820669162</ele>
        <time>2015-06-06T14:55:33Z</time>
      </trkpt>
      <trkpt lat="45.35654" lon="5.88594">
        <ele>1671.820669162</ele>
        <time>2015-06-06T14:55:38Z</time>
      </trkpt>
      <trkpt lat="45.35658" lon="5.88591">
        <ele>1671.479399903</ele>
        <time>2015-06-06T14:55:43Z</time>
      </trkpt>
      <trkpt lat="45.35657" lon="5.88592">
        <ele>1671.479399903</ele>
        <time>2015-06-06T14:55:48Z</time>
      </trkpt>
      <trkpt lat="45.35657" lon="5.88593">
        <ele>1671.479399903</ele>
        <time>2015-06-06T14:55:53Z</time>
      </trkpt>
      <trkpt lat="45.35656" lon="5.88594">
        <ele>1671.479399903</ele>
        <time>2015-06-06T14:55:58Z</time>
      </trkpt>
      <trkpt lat="45.35656" lon="5.88594">
        <ele>1671.479399903</ele>
        <time>2015-06-06T14:56:03Z</time>
      </trkpt>
      <trkpt lat="45.35657" lon="5.88594">
        <ele>1671.479399903</ele>
        <time>2015-06-06T14:56:08Z</time>
      </trkpt>
      <trkpt lat="45.35661" lon="5.88584">
        <ele>1672.178114431</ele>
        <time>2015-06-06T14:56:13Z</time>
      </trkpt>
      <trkpt lat="45.35666" lon="5.88577">
        <ele>1672.178114431</ele>
        <time>2015-06-06T14:56:18Z</time>
      </trkpt>
      <trkpt lat="45.35667" lon="5.88577">
        <ele>1672.178114431</ele>
        <time>2015-06-06T14:56:23Z</time>
      </trkpt>
      <trkpt lat="45.35673" lon="5.8858">
        <ele>1672.679205057</ele>
        <time>2015-06-06T14:56:28Z</time>
      </trkpt>
      <trkpt lat="45.35676" lon="5.88582">
        <ele>1672.679205057</ele>
        <time>2015-06-06T14:56:33Z</time>
      </trkpt>
      <trkpt lat="45.35681" lon="5.88586">
        <ele>1672.679205057</ele>
        <time>2015-06-06T14:56:38Z</time>
      </trkpt>
      <trkpt lat="45.35686" lon="5.88581">
        <ele>1672.269378425</ele>
        <time>2015-06-06T14:56:43Z</time>
      </trkpt>
      <trkpt lat="45.35686" lon="5.88578">
        <ele>1672.269378425</ele>
        <time>2015-06-06T14:56:48Z</time>
      </trkpt>
      <trkpt lat="45.35686" lon="5.88577">
        <ele>1672.269378425</ele>
        <time>2015-06-06T14:56:53Z</time>
      </trkpt>
      <trkpt lat="45.35686" lon="5.88577">
        <ele>1672.269378425</ele>
        <time>2015-06-06T14:56:57Z</time>
      </trkpt>
      <trkpt lat="45.35687" lon="5.88577">
        <ele>1672.269378425</ele>
        <time>2015-06-06T14:57:03Z</time>
      </trkpt>
      <trkpt lat="45.35687" lon="5.88577">
        <ele>1672.269378425</ele>
        <time>2015-06-06T14:57:07Z</time>
      </trkpt>
      <trkpt lat="45.35687" lon="5.88577">
        <ele>1672.269378425</ele>
        <time>2015-06-06T14:57:12Z</time>
      </trkpt>
      <trkpt lat="45.35686" lon="5.88577">
        <ele>1672.269378425</ele>
        <time>2015-06-06T14:57:17Z</time>
      </trkpt>
      <trkpt lat="45.35686" lon="5.88577">
        <ele>1672.269378425</ele>
        <time>2015-06-06T14:57:22Z</time>
      </trkpt>
      <trkpt lat="45.35685" lon="5.88567">
        <ele>1679.7421875</ele>
      </trkpt>
      <trkpt lat="45.35701" lon="5.88555">
        <ele>1677.56640625</ele>
      </trkpt>
      <trkpt lat="45.35712" lon="5.8855">
        <ele>1676.40625</ele>
      </trkpt>
      <trkpt lat="45.35732" lon="5.88545">
        <ele>1674.83984375</ele>
      </trkpt>
      <trkpt lat="45.35759" lon="5.88536">
        <ele>1671.56640625</ele>
      </trkpt>
      <trkpt lat="45.3578" lon="5.88523">
        <ele>1667.921875</ele>
      </trkpt>
      <trkpt lat="45.35801" lon="5.88519">
        <ele>1665.0078125</ele>
      </trkpt>
      <trkpt lat="45.35827" lon="5.88499">
        <ele>1659.265625</ele>
      </trkpt>
      <trkpt lat="45.35869" lon="5.88476">
        <ele>1651.8125</ele>
      </trkpt>
      <trkpt lat="45.35931" lon="5.88391">
        <ele>1642.26171875</ele>
      </trkpt>
      <trkpt lat="45.35969" lon="5.88404">
        <ele>1640.1640625</ele>
      </trkpt>
      <trkpt lat="45.35977" lon="5.88404">
        <ele>1639.890625</ele>
      </trkpt>
      <trkpt lat="45.35994" lon="5.88404">
        <ele>1639.2734375</ele>
      </trkpt>
      <trkpt lat="45.36012" lon="5.88405">
        <ele>1638.578125</ele>
      </trkpt>
      <trkpt lat="45.36026" lon="5.88394">
        <ele>1638.70703125</ele>
      </trkpt>
      <trkpt lat="45.36033" lon="5.88392">
        <ele>1638.65234375</ele>
      </trkpt>
      <trkpt lat="45.36037" lon="5.8839">
        <ele>1638.62109375</ele>
      </trkpt>
      <trkpt lat="45.36046" lon="5.8839">
        <ele>1638.45703125</ele>
      </trkpt>
      <trkpt lat="45.36059" lon="5.88393">
        <ele>1638.1875</ele>
      </trkpt>
      <trkpt lat="45.36068" lon="5.88394">
        <ele>1638.0234375</ele>
      </trkpt>
      <trkpt lat="45.36074" lon="5.88395">
        <ele>1637.9609375</ele>
      </trkpt>
      <trkpt lat="45.36083" lon="5.88399">
        <ele>1637.83984375</ele>
      </trkpt>
      <trkpt lat="45.3609" lon="5.884">
        <ele>1637.76171875</ele>
      </trkpt>
      <trkpt lat="45.36106" lon="5.88406">
        <ele>1637.50390625</ele>
      </trkpt>
      <trkpt lat="45.36118" lon="5.88409">
        <ele>1637.29296875</ele>
      </trkpt>
      <trkpt lat="45.36122" lon="5.88412">
        <ele>1637.17578125</ele>
      </trkpt>
      <trkpt lat="45.36128" lon="5.88413">
        <ele>1637.0625</ele>
      </trkpt>
      <trkpt lat="45.36134" lon="5.88416">
        <ele>1636.93359375</ele>
      </trkpt>
      <trkpt lat="45.3615" lon="5.88419">
        <ele>1636.57421875</ele>
      </trkpt>
      <trkpt lat="45.36156" lon="5.88423">
        <ele>1636.46875</ele>
      </trkpt>
      <trkpt lat="45.36163" lon="5.88429">
        <ele>1636.3828125</ele>
      </trkpt>
      <trkpt lat="45.36174" lon="5.88438">
        <ele>1636.1484375</ele>
      </trkpt>
      <trkpt lat="45.36188" lon="5.88447">
        <ele>1635.86328125</ele>
      </trkpt>
      <trkpt lat="45.36195" lon="5.88452">
        <ele>1635.69921875</ele>
      </trkpt>
      <trkpt lat="45.36199" lon="5.88454">
        <ele>1635.58203125</ele>
      </trkpt>
      <trkpt lat="45.36204" lon="5.88454">
        <ele>1635.4609375</ele>
      </trkpt>
      <trkpt lat="45.36216" lon="5.88458">
        <ele>1635.09375</ele>
      </trkpt>
      <trkpt lat="45.36222" lon="5.88458">
        <ele>1634.95703125</ele>
      </trkpt>
      <trkpt lat="45.36232" lon="5.88457">
        <ele>1634.72265625</ele>
      </trkpt>
      <trkpt lat="45.36239" lon="5.8845">
        <ele>1634.7265625</ele>
      </trkpt>
      <trkpt lat="45.36245" lon="5.88446">
        <ele>1634.484375</ele>
      </trkpt>
      <trkpt lat="45.36252" lon="5.88443">
        <ele>1634.16796875</ele>
      </trkpt>
      <trkpt lat="45.36267" lon="5.88447">
        <ele>1633.08984375</ele>
      </trkpt>
      <trkpt lat="45.36287" lon="5.88448">
        <ele>1631.75390625</ele>
      </trkpt>
      <trkpt lat="45.36291" lon="5.88448">
        <ele>1631.48046875</ele>
      </trkpt>
      <trkpt lat="45.36296" lon="5.88447">
        <ele>1631.26953125</ele>
      </trkpt>
      <trkpt lat="45.36299" lon="5.88448">
        <ele>1631.00390625</ele>
      </trkpt>
      <trkpt lat="45.36305" lon="5.88444">
        <ele>1630.80859375</ele>
      </trkpt>
      <trkpt lat="45.36313" lon="5.88442">
        <ele>1630.515625</ele>
      </trkpt>
      <trkpt lat="45.36325" lon="5.88443">
        <ele>1629.73046875</ele>
      </trkpt>
      <trkpt lat="45.36343" lon="5.88456">
        <ele>1627.30859375</ele>
      </trkpt>
      <trkpt lat="45.36357" lon="5.88464">
        <ele>1625.69921875</ele>
      </trkpt>
      <trkpt lat="45.36361" lon="5.88465">
        <ele>1625.36328125</ele>
      </trkpt>
      <trkpt lat="45.36377" lon="5.88477">
        <ele>1623.33984375</ele>
      </trkpt>
      <trkpt lat="45.3638" lon="5.88479">
        <ele>1623.1171875</ele>
      </trkpt>
      <trkpt lat="45.36385" lon="5.88479">
        <ele>1622.87109375</ele>
      </trkpt>
      <trkpt lat="45.36392" lon="5.88481">
        <ele>1622.38671875</ele>
      </trkpt>
      <trkpt lat="45.36406" lon="5.88491">
        <ele>1621.22265625</ele>
      </trkpt>
      <trkpt lat="45.36414" lon="5.88498">
        <ele>1620.48046875</ele>
      </trkpt>
      <trkpt lat="45.36427" lon="5.88501">
        <ele>1619.546875</ele>
      </trkpt>
      <trkpt lat="45.36434" lon="5.88503">
        <ele>1618.9765625</ele>
      </trkpt>
      <trkpt lat="45.36445" lon="5.88508">
        <ele>1618.0859375</ele>
      </trkpt>
      <trkpt lat="45.36464" lon="5.88519">
        <ele>1616.37109375</ele>
      </trkpt>
      <trkpt lat="45.36476" lon="5.88531">
        <ele>1614.75</ele>
      </trkpt>
      <trkpt lat="45.36479" lon="5.88536">
        <ele>1614.625</ele>
      </trkpt>
      <trkpt lat="45.3649" lon="5.88544">
        <ele>1614.11328125</ele>
      </trkpt>
      <trkpt lat="45.36505" lon="5.88549">
        <ele>1613.2421875</ele>
      </trkpt>
      <trkpt lat="45.36526" lon="5.8856">
        <ele>1612.50390625</ele>
      </trkpt>
      <trkpt lat="45.36538" lon="5.88566">
        <ele>1612.1171875</ele>
      </trkpt>
      <trkpt lat="45.36546" lon="5.88567">
        <ele>1611.78515625</ele>
      </trkpt>
      <trkpt lat="45.36556" lon="5.88572">
        <ele>1611.390625</ele>
      </trkpt>
      <trkpt lat="45.36566" lon="5.88575">
        <ele>1610.97265625</ele>
      </trkpt>
      <trkpt lat="45.36578" lon="5.88582">
        <ele>1610.70703125</ele>
      </trkpt>
      <trkpt lat="45.36587" lon="5.88585">
        <ele>1610.3671875</ele>
      </trkpt>
      <trkpt lat="45.36596" lon="5.8859">
        <ele>1610.1171875</ele>
      </trkpt>
      <trkpt lat="45.36602" lon="5.88595">
        <ele>1609.9296875</ele>
      </trkpt>
      <trkpt lat="45.36608" lon="5.88597">
        <ele>1609.73046875</ele>
      </trkpt>
      <trkpt lat="45.36622" lon="5.88604">
        <ele>1609.140625</ele>
      </trkpt>
      <trkpt lat="45.36626" lon="5.88605">
        <ele>1609.0546875</ele>
      </trkpt>
      <trkpt lat="45.36629" lon="5.88608">
        <ele>1609.16796875</ele>
      </trkpt>
      <trkpt lat="45.36637" lon="5.88613">
        <ele>1609.33984375</ele>
      </trkpt>
      <trkpt lat="45.36655" lon="5.88619">
        <ele>1609.53515625</ele>
      </trkpt>
      <trkpt lat="45.3666" lon="5.88623">
        <ele>1609.4453125</ele>
      </trkpt>
      <trkpt lat="45.36675" lon="5.88632">
        <ele>1608.8359375</ele>
      </trkpt>
      <trkpt lat="45.36685" lon="5.88637">
        <ele>1608.44921875</ele>
      </trkpt>
      <trkpt lat="45.36696" lon="5.88638">
        <ele>1608.375</ele>
      </trkpt>
      <trkpt lat="45.36708" lon="5.88644">
        <ele>1608</ele>
      </trkpt>
      <trkpt lat="45.36726" lon="5.88657">
        <ele>1607.8203125</ele>
      </trkpt>
      <trkpt lat="45.36742" lon="5.88665">
        <ele>1607.53125</ele>
      </trkpt>
      <trkpt lat="45.36749" lon="5.88672">
        <ele>1607.2890625</ele>
      </trkpt>
      <trkpt lat="45.36755" lon="5.88673">
        <ele>1607.1875</ele>
      </trkpt>
      <trkpt lat="45.36762" lon="5.88678">
        <ele>1606.85546875</ele>
      </trkpt>
      <trkpt lat="45.36771" lon="5.88682">
        <ele>1606.53125</ele>
      </trkpt>
      <trkpt lat="45.36777" lon="5.88689">
        <ele>1605.95703125</ele>
      </trkpt>
      <trkpt lat="45.36782" lon="5.88693">
        <ele>1605.56640625</ele>
      </trkpt>
      <trkpt lat="45.36785" lon="5.88698">
        <ele>1605.234375</ele>
      </trkpt>
      <trkpt lat="45.36788" lon="5.88705">
        <ele>1605.125</ele>
      </trkpt>
      <trkpt lat="45.36793" lon="5.88709">
        <ele>1604.9453125</ele>
      </trkpt>
      <trkpt lat="45.36796" lon="5.88715">
        <ele>1604.87109375</ele>
      </trkpt>
      <trkpt lat="45.36806" lon="5.88726">
        <ele>1604.44921875</ele>
      </trkpt>
      <trkpt lat="45.36813" lon="5.88729">
        <ele>1604.16796875</ele>
      </trkpt>
      <trkpt lat="45.36821" lon="5.88731">
        <ele>1603.796875</ele>
      </trkpt>
      <trkpt lat="45.36826" lon="5.88733">
        <ele>1603.57421875</ele>
      </trkpt>
      <trkpt lat="45.36837" lon="5.88735">
        <ele>1603.01953125</ele>
      </trkpt>
      <trkpt lat="45.36844" lon="5.88736">
        <ele>1602.70703125</ele>
      </trkpt>
      <trkpt lat="45.3685" lon="5.8874">
        <ele>1602.37890625</ele>
      </trkpt>
      <trkpt lat="45.36856" lon="5.88744">
        <ele>1602.00390625</ele>
      </trkpt>
      <trkpt lat="45.3686" lon="5.88748">
        <ele>1601.57421875</ele>
      </trkpt>
      <trkpt lat="45.36865" lon="5.88755">
        <ele>1601.078125</ele>
      </trkpt>
      <trkpt lat="45.36871" lon="5.88764">
        <ele>1601.07421875</ele>
      </trkpt>
      <trkpt lat="45.36873" lon="5.88771">
        <ele>1601.1171875</ele>
      </trkpt>
      <trkpt lat="45.36876" lon="5.88775">
        <ele>1600.99609375</ele>
      </trkpt>
      <trkpt lat="45.36877" lon="5.88781">
        <ele>1601.07421875</ele>
      </trkpt>
      <trkpt lat="45.36881" lon="5.8879">
        <ele>1600.89453125</ele>
      </trkpt>
      <trkpt lat="45.369" lon="5.88812">
        <ele>1599.375</ele>
      </trkpt>
      <trkpt lat="45.3691" lon="5.88832">
        <ele>1598.5</ele>
      </trkpt>
      <trkpt lat="45.36916" lon="5.88837">
        <ele>1597.94921875</ele>
      </trkpt>
      <trkpt lat="45.36938" lon="5.88858">
        <ele>1595.4296875</ele>
      </trkpt>
      <trkpt lat="45.36945" lon="5.88859">
        <ele>1594.63671875</ele>
      </trkpt>
      <trkpt lat="45.36954" lon="5.88861">
        <ele>1593.4375</ele>
      </trkpt>
      <trkpt lat="45.36963" lon="5.8886">
        <ele>1592.56640625</ele>
      </trkpt>
      <trkpt lat="45.36972" lon="5.88862">
        <ele>1591.796875</ele>
      </trkpt>
      <trkpt lat="45.3698" lon="5.88863">
        <ele>1591.01171875</ele>
      </trkpt>
      <trkpt lat="45.36987" lon="5.88861">
        <ele>1590.515625</ele>
      </trkpt>
      <trkpt lat="45.36992" lon="5.88861">
        <ele>1590.05078125</ele>
      </trkpt>
      <trkpt lat="45.36998" lon="5.88863">
        <ele>1589.37890625</ele>
      </trkpt>
      <trkpt lat="45.37013" lon="5.88868">
        <ele>1587.82421875</ele>
      </trkpt>
      <trkpt lat="45.37019" lon="5.88869">
        <ele>1587.49609375</ele>
      </trkpt>
      <trkpt lat="45.37025" lon="5.88868">
        <ele>1587.1875</ele>
      </trkpt>
      <trkpt lat="45.37033" lon="5.88864">
        <ele>1586.9375</ele>
      </trkpt>
      <trkpt lat="45.37037" lon="5.88867">
        <ele>1586.58984375</ele>
      </trkpt>
      <trkpt lat="45.37041" lon="5.88875">
        <ele>1586.0859375</ele>
      </trkpt>
      <trkpt lat="45.37046" lon="5.88888">
        <ele>1585.390625</ele>
      </trkpt>
      <trkpt lat="45.37057" lon="5.88904">
        <ele>1584.17578125</ele>
      </trkpt>
      <trkpt lat="45.37066" lon="5.88908">
        <ele>1583.5546875</ele>
      </trkpt>
      <trkpt lat="45.37071" lon="5.88913">
        <ele>1583.0859375</ele>
      </trkpt>
      <trkpt lat="45.37089" lon="5.88925">
        <ele>1581.7578125</ele>
      </trkpt>
      <trkpt lat="45.37095" lon="5.88927">
        <ele>1581.36328125</ele>
      </trkpt>
      <trkpt lat="45.371" lon="5.88928">
        <ele>1581.0625</ele>
      </trkpt>
      <trkpt lat="45.37119" lon="5.88928">
        <ele>1580.1328125</ele>
      </trkpt>
      <trkpt lat="45.37127" lon="5.88929">
        <ele>1579.6953125</ele>
      </trkpt>
      <trkpt lat="45.37133" lon="5.88932">
        <ele>1579.41796875</ele>
      </trkpt>
      <trkpt lat="45.37136" lon="5.88935">
        <ele>1579.1953125</ele>
      </trkpt>
      <trkpt lat="45.37144" lon="5.88948">
        <ele>1578.3984375</ele>
      </trkpt>
      <trkpt lat="45.37158" lon="5.88964">
        <ele>1576.9921875</ele>
      </trkpt>
      <trkpt lat="45.37164" lon="5.88972">
        <ele>1576.2734375</ele>
      </trkpt>
      <trkpt lat="45.37176" lon="5.88993">
        <ele>1574.859375</ele>
      </trkpt>
      <trkpt lat="45.3719" lon="5.89006">
        <ele>1573.8515625</ele>
      </trkpt>
      <trkpt lat="45.37214" lon="5.89015">
        <ele>1572.13671875</ele>
      </trkpt>
      <trkpt lat="45.37226" lon="5.89025">
        <ele>1570.9375</ele>
      </trkpt>
      <trkpt lat="45.37242" lon="5.89045">
        <ele>1569.48046875</ele>
      </trkpt>
      <trkpt lat="45.37245" lon="5.89047">
        <ele>1569.29296875</ele>
      </trkpt>
      <trkpt lat="45.37249" lon="5.89052">
        <ele>1568.96484375</ele>
      </trkpt>
      <trkpt lat="45.37253" lon="5.89055">
        <ele>1568.6875</ele>
      </trkpt>
      <trkpt lat="45.3726" lon="5.89059">
        <ele>1568.09375</ele>
      </trkpt>
      <trkpt lat="45.37271" lon="5.89059">
        <ele>1567.4921875</ele>
      </trkpt>
      <trkpt lat="45.37276" lon="5.89059">
        <ele>1567.19140625</ele>
      </trkpt>
      <trkpt lat="45.37284" lon="5.89065">
        <ele>1566.33984375</ele>
      </trkpt>
      <trkpt lat="45.37292" lon="5.89077">
        <ele>1564.66796875</ele>
      </trkpt>
      <trkpt lat="45.37304" lon="5.89096">
        <ele>1562.3828125</ele>
      </trkpt>
      <trkpt lat="45.37307" lon="5.89105">
        <ele>1561.265625</ele>
      </trkpt>
      <trkpt lat="45.37308" lon="5.89111">
        <ele>1560.671875</ele>
      </trkpt>
      <trkpt lat="45.37316" lon="5.89118">
        <ele>1559.234375</ele>
      </trkpt>
      <trkpt lat="45.37319" lon="5.89118">
        <ele>1558.92578125</ele>
      </trkpt>
      <trkpt lat="45.37327" lon="5.89123">
        <ele>1557.69140625</ele>
      </trkpt>
      <trkpt lat="45.3733" lon="5.89125">
        <ele>1557.1015625</ele>
      </trkpt>
      <trkpt lat="45.37334" lon="5.89133">
        <ele>1555.55078125</ele>
      </trkpt>
      <trkpt lat="45.37338" lon="5.89138">
        <ele>1554.48046875</ele>
      </trkpt>
      <trkpt lat="45.37342" lon="5.89141">
        <ele>1553.64453125</ele>
      </trkpt>
      <trkpt lat="45.37377" lon="5.89155">
        <ele>1550.25390625</ele>
      </trkpt>
      <trkpt lat="45.37398" lon="5.89168">
        <ele>1547.57421875</ele>
      </trkpt>
      <trkpt lat="45.3742" lon="5.8917">
        <ele>1544.66796875</ele>
      </trkpt>
      <trkpt lat="45.37452" lon="5.8917">
        <ele>1540.609375</ele>
      </trkpt>
      <trkpt lat="45.37473" lon="5.89173">
        <ele>1539.578125</ele>
      </trkpt>
      <trkpt lat="45.37476" lon="5.89174">
        <ele>1539.4375</ele>
      </trkpt>
      <trkpt lat="45.37482" lon="5.89178">
        <ele>1538.85546875</ele>
      </trkpt>
      <trkpt lat="45.37491" lon="5.89179">
        <ele>1538.55078125</ele>
      </trkpt>
      <trkpt lat="45.37497" lon="5.89182">
        <ele>1538.09765625</ele>
      </trkpt>
      <trkpt lat="45.37502" lon="5.89182">
        <ele>1537.9921875</ele>
      </trkpt>
      <trkpt lat="45.37508" lon="5.89185">
        <ele>1537.28515625</ele>
      </trkpt>
      <trkpt lat="45.37512" lon="5.89186">
        <ele>1536.9609375</ele>
      </trkpt>
      <trkpt lat="45.3752" lon="5.89193">
        <ele>1535.96484375</ele>
      </trkpt>
      <trkpt lat="45.37531" lon="5.89199">
        <ele>1535.87109375</ele>
      </trkpt>
      <trkpt lat="45.37534" lon="5.89202">
        <ele>1535.8984375</ele>
      </trkpt>
      <trkpt lat="45.37537" lon="5.89205">
        <ele>1535.890625</ele>
      </trkpt>
      <trkpt lat="45.37547" lon="5.89213">
        <ele>1535.76171875</ele>
      </trkpt>
      <trkpt lat="45.37553" lon="5.89216">
        <ele>1535.65625</ele>
      </trkpt>
      <trkpt lat="45.37562" lon="5.89226">
        <ele>1534.88671875</ele>
      </trkpt>
      <trkpt lat="45.37571" lon="5.89236">
        <ele>1533.7578125</ele>
      </trkpt>
      <trkpt lat="45.37585" lon="5.89248">
        <ele>1532.734375</ele>
      </trkpt>
      <trkpt lat="45.37593" lon="5.89252">
        <ele>1532.44140625</ele>
      </trkpt>
      <trkpt lat="45.37596" lon="5.89256">
        <ele>1532.55859375</ele>
      </trkpt>
      <trkpt lat="45.37599" lon="5.89257">
        <ele>1532.609375</ele>
      </trkpt>
      <trkpt lat="45.37609" lon="5.89264">
        <ele>1532.6484375</ele>
      </trkpt>
      <trkpt lat="45.37625" lon="5.89273">
        <ele>1532.20703125</ele>
      </trkpt>
      <trkpt lat="45.37629" lon="5.89278">
        <ele>1531.74609375</ele>
      </trkpt>
      <trkpt lat="45.3765" lon="5.89286">
        <ele>1530.13671875</ele>
      </trkpt>
      <trkpt lat="45.37654" lon="5.89286">
        <ele>1529.859375</ele>
      </trkpt>
      <trkpt lat="45.37658" lon="5.89285">
        <ele>1529.6328125</ele>
      </trkpt>
      <trkpt lat="45.37668" lon="5.89282">
        <ele>1529.1171875</ele>
      </trkpt>
      <trkpt lat="45.37671" lon="5.89283">
        <ele>1528.85546875</ele>
      </trkpt>
      <trkpt lat="45.37678" lon="5.89286">
        <ele>1528.328125</ele>
      </trkpt>
      <trkpt lat="45.37686" lon="5.89287">
        <ele>1527.59375</ele>
      </trkpt>
      <trkpt lat="45.37691" lon="5.89291">
        <ele>1526.8984375</ele>
      </trkpt>
      <trkpt lat="45.37698" lon="5.89294">
        <ele>1526.16015625</ele>
      </trkpt>
      <trkpt lat="45.37704" lon="5.89298">
        <ele>1525.34375</ele>
      </trkpt>
      <trkpt lat="45.37724" lon="5.89303">
        <ele>1523.3671875</ele>
      </trkpt>
      <trkpt lat="45.37733" lon="5.89308">
        <ele>1522.1875</ele>
      </trkpt>
      <trkpt lat="45.3774" lon="5.8931">
        <ele>1521.6875</ele>
      </trkpt>
      <trkpt lat="45.37747" lon="5.89314">
        <ele>1521.125</ele>
      </trkpt>
      <trkpt lat="45.37755" lon="5.89316">
        <ele>1520.52734375</ele>
      </trkpt>
      <trkpt lat="45.37775" lon="5.89317">
        <ele>1518.73046875</ele>
      </trkpt>
      <trkpt lat="45.37778" lon="5.89319">
        <ele>1518.515625</ele>
      </trkpt>
      <trkpt lat="45.37792" lon="5.89326">
        <ele>1517.55859375</ele>
      </trkpt>
      <trkpt lat="45.37807" lon="5.8933">
        <ele>1516.59375</ele>
      </trkpt>
      <trkpt lat="45.37815" lon="5.89333">
        <ele>1516.16796875</ele>
      </trkpt>
      <trkpt lat="45.37831" lon="5.89333">
        <ele>1515.0078125</ele>
      </trkpt>
      <trkpt lat="45.37848" lon="5.89335">
        <ele>1513.8671875</ele>
      </trkpt>
      <trkpt lat="45.37855" lon="5.89337">
        <ele>1513.5234375</ele>
      </trkpt>
      <trkpt lat="45.37874" lon="5.89338">
        <ele>1512.28515625</ele>
      </trkpt>
      <trkpt lat="45.37882" lon="5.89336">
        <ele>1511.71875</ele>
      </trkpt>
      <trkpt lat="45.37886" lon="5.89334">
        <ele>1511.51953125</ele>
      </trkpt>
      <trkpt lat="45.37891" lon="5.89329">
        <ele>1511.2265625</ele>
      </trkpt>
      <trkpt lat="45.37894" lon="5.89327">
        <ele>1511.05859375</ele>
      </trkpt>
      <trkpt lat="45.37903" lon="5.89332">
        <ele>1510.5</ele>
      </trkpt>
      <trkpt lat="45.37906" lon="5.89339">
        <ele>1510.14453125</ele>
      </trkpt>
      <trkpt lat="45.37915" lon="5.89347">
        <ele>1509.33984375</ele>
      </trkpt>
      <trkpt lat="45.3792" lon="5.8935">
        <ele>1508.828125</ele>
      </trkpt>
      <trkpt lat="45.37924" lon="5.89351">
        <ele>1508.453125</ele>
      </trkpt>
      <trkpt lat="45.37928" lon="5.89351">
        <ele>1508.19921875</ele>
      </trkpt>
      <trkpt lat="45.37947" lon="5.89359">
        <ele>1506.22265625</ele>
      </trkpt>
      <trkpt lat="45.37979" lon="5.89363">
        <ele>1504.23828125</ele>
      </trkpt>
      <trkpt lat="45.37991" lon="5.89367">
        <ele>1503.96484375</ele>
      </trkpt>
      <trkpt lat="45.38011" lon="5.8937">
        <ele>1503.32421875</ele>
      </trkpt>
      <trkpt lat="45.38031" lon="5.89369">
        <ele>1502.23046875</ele>
      </trkpt>
      <trkpt lat="45.38042" lon="5.89376">
        <ele>1501.73828125</ele>
      </trkpt>
      <trkpt lat="45.38054" lon="5.89389">
        <ele>1501.34375</ele>
      </trkpt>
      <trkpt lat="45.38066" lon="5.89396">
        <ele>1500.75</ele>
      </trkpt>
      <trkpt lat="45.38079" lon="5.89398">
        <ele>1499.94921875</ele>
      </trkpt>
      <trkpt lat="45.38097" lon="5.89407">
        <ele>1498.828125</ele>
      </trkpt>
      <trkpt lat="45.38107" lon="5.89409">
        <ele>1498.18359375</ele>
      </trkpt>
      <trkpt lat="45.38118" lon="5.89413">
        <ele>1497.37890625</ele>
      </trkpt>
      <trkpt lat="45.38135" lon="5.89423">
        <ele>1497.48828125</ele>
      </trkpt>
      <trkpt lat="45.38141" lon="5.89424">
        <ele>1497.53125</ele>
      </trkpt>
      <trkpt lat="45.38158" lon="5.89436">
        <ele>1498.97265625</ele>
      </trkpt>
      <trkpt lat="45.38167" lon="5.89439">
        <ele>1499.24609375</ele>
      </trkpt>
      <trkpt lat="45.38202" lon="5.89449">
        <ele>1499.25</ele>
      </trkpt>
      <trkpt lat="45.3822" lon="5.89455">
        <ele>1499.05859375</ele>
      </trkpt>
      <trkpt lat="45.38243" lon="5.89467">
        <ele>1498.66015625</ele>
      </trkpt>
      <trkpt lat="45.38254" lon="5.89469">
        <ele>1497.9140625</ele>
      </trkpt>
      <trkpt lat="45.38265" lon="5.89473">
        <ele>1497.19140625</ele>
      </trkpt>
      <trkpt lat="45.38271" lon="5.89472">
        <ele>1496.63671875</ele>
      </trkpt>
      <trkpt lat="45.38287" lon="5.89474">
        <ele>1495.35546875</ele>
      </trkpt>
      <trkpt lat="45.38298" lon="5.89476">
        <ele>1494.8203125</ele>
      </trkpt>
      <trkpt lat="45.38304" lon="5.8948">
        <ele>1495.125</ele>
      </trkpt>
      <trkpt lat="45.38323" lon="5.89484">
        <ele>1494.61328125</ele>
      </trkpt>
      <trkpt lat="45.38331" lon="5.89489">
        <ele>1494.88671875</ele>
      </trkpt>
      <trkpt lat="45.38333" lon="5.89494">
        <ele>1495.328125</ele>
      </trkpt>
      <trkpt lat="45.38337" lon="5.89496">
        <ele>1495.32421875</ele>
      </trkpt>
      <trkpt lat="45.38342" lon="5.895">
        <ele>1495.5859375</ele>
      </trkpt>
      <trkpt lat="45.38345" lon="5.89506">
        <ele>1496.03515625</ele>
      </trkpt>
      <trkpt lat="45.38348" lon="5.89509">
        <ele>1496.2109375</ele>
      </trkpt>
      <trkpt lat="45.38356" lon="5.89512">
        <ele>1496.06640625</ele>
      </trkpt>
      <trkpt lat="45.38359" lon="5.89513">
        <ele>1495.953125</ele>
      </trkpt>
      <trkpt lat="45.3837" lon="5.89518">
        <ele>1495.7109375</ele>
      </trkpt>
      <trkpt lat="45.38387" lon="5.89525">
        <ele>1494.91015625</ele>
      </trkpt>
      <trkpt lat="45.38391" lon="5.89528">
        <ele>1494.80859375</ele>
      </trkpt>
      <trkpt lat="45.38394" lon="5.8953">
        <ele>1494.72265625</ele>
      </trkpt>
      <trkpt lat="45.38406" lon="5.89533">
        <ele>1493.8984375</ele>
      </trkpt>
      <trkpt lat="45.38412" lon="5.89539">
        <ele>1493.76171875</ele>
      </trkpt>
      <trkpt lat="45.38416" lon="5.89544">
        <ele>1494.03515625</ele>
      </trkpt>
      <trkpt lat="45.38419" lon="5.89546">
        <ele>1493.8984375</ele>
      </trkpt>
      <trkpt lat="45.38429" lon="5.89553">
        <ele>1493.4921875</ele>
      </trkpt>
      <trkpt lat="45.38442" lon="5.89559">
        <ele>1492.546875</ele>
      </trkpt>
      <trkpt lat="45.38451" lon="5.89568">
        <ele>1492.546875</ele>
      </trkpt>
      <trkpt lat="45.38456" lon="5.89571">
        <ele>1492.2734375</ele>
      </trkpt>
      <trkpt lat="45.38461" lon="5.89575">
        <ele>1492.1953125</ele>
      </trkpt>
      <trkpt lat="45.38467" lon="5.89579">
        <ele>1491.6640625</ele>
      </trkpt>
      <trkpt lat="45.3847" lon="5.8958">
        <ele>1491.33203125</ele>
      </trkpt>
      <trkpt lat="45.38485" lon="5.8958">
        <ele>1489.140625</ele>
      </trkpt>
      <trkpt lat="45.38503" lon="5.89575">
        <ele>1486.03125</ele>
      </trkpt>
      <trkpt lat="45.3851" lon="5.89571">
        <ele>1484.3125</ele>
      </trkpt>
      <trkpt lat="45.38522" lon="5.89559">
        <ele>1480.8203125</ele>
      </trkpt>
      <trkpt lat="45.38533" lon="5.89552">
        <ele>1478.05078125</ele>
      </trkpt>
      <trkpt lat="45.38555" lon="5.89531">
        <ele>1471.33984375</ele>
      </trkpt>
      <trkpt lat="45.38566" lon="5.89525">
        <ele>1468.83984375</ele>
      </trkpt>
      <trkpt lat="45.38579" lon="5.8952">
        <ele>1465.96484375</ele>
      </trkpt>
      <trkpt lat="45.38616" lon="5.89511">
        <ele>1458.2734375</ele>
      </trkpt>
      <trkpt lat="45.38622" lon="5.89508">
        <ele>1456.9609375</ele>
      </trkpt>
      <trkpt lat="45.38637" lon="5.89504">
        <ele>1454.40234375</ele>
      </trkpt>
      <trkpt lat="45.38644" lon="5.89506">
        <ele>1453.46484375</ele>
      </trkpt>
      <trkpt lat="45.38656" lon="5.89499">
        <ele>1450.9609375</ele>
      </trkpt>
      <trkpt lat="45.38665" lon="5.89492">
        <ele>1448.6953125</ele>
      </trkpt>
      <trkpt lat="45.38674" lon="5.89486">
        <ele>1446.484375</ele>
      </trkpt>
      <trkpt lat="45.38684" lon="5.89484">
        <ele>1444.78125</ele>
      </trkpt>
      <trkpt lat="45.38691" lon="5.89473">
        <ele>1442.1953125</ele>
      </trkpt>
      <trkpt lat="45.387" lon="5.89466">
        <ele>1440.609375</ele>
      </trkpt>
      <trkpt lat="45.38719" lon="5.89463">
        <ele>1437.39453125</ele>
      </trkpt>
      <trkpt lat="45.38729" lon="5.89462">
        <ele>1435.76953125</ele>
      </trkpt>
      <trkpt lat="45.38735" lon="5.89459">
        <ele>1434.59375</ele>
      </trkpt>
      <trkpt lat="45.38741" lon="5.89457">
        <ele>1433.87890625</ele>
      </trkpt>
      <trkpt lat="45.38751" lon="5.89449">
        <ele>1432.16015625</ele>
      </trkpt>
      <trkpt lat="45.38756" lon="5.89447">
        <ele>1431.6015625</ele>
      </trkpt>
      <trkpt lat="45.38773" lon="5.89447">
        <ele>1430.0546875</ele>
      </trkpt>
      <trkpt lat="45.38783" lon="5.89445">
        <ele>1429.12109375</ele>
      </trkpt>
      <trkpt lat="45.38792" lon="5.89442">
        <ele>1428</ele>
      </trkpt>
      <trkpt lat="45.38797" lon="5.89439">
        <ele>1427.2578125</ele>
      </trkpt>
      <trkpt lat="45.38802" lon="5.89439">
        <ele>1426.55859375</ele>
      </trkpt>
      <trkpt lat="45.38806" lon="5.89441">
        <ele>1426.1328125</ele>
      </trkpt>
      <trkpt lat="45.38808" lon="5.89445">
        <ele>1426.13671875</ele>
      </trkpt>
      <trkpt lat="45.38815" lon="5.89462">
        <ele>1426.44921875</ele>
      </trkpt>
      <trkpt lat="45.38816" lon="5.89466">
        <ele>1426.62890625</ele>
      </trkpt>
      <trkpt lat="45.38815" lon="5.8947">
        <ele>1427.05078125</ele>
      </trkpt>
      <trkpt lat="45.38821" lon="5.8948">
        <ele>1427.59375</ele>
      </trkpt>
      <trkpt lat="45.38827" lon="5.895">
        <ele>1430.4375</ele>
      </trkpt>
      <trkpt lat="45.38828" lon="5.89504">
        <ele>1431.03125</ele>
      </trkpt>
      <trkpt lat="45.38831" lon="5.8951">
        <ele>1431.546875</ele>
      </trkpt>
      <trkpt lat="45.38835" lon="5.8952">
        <ele>1432.6328125</ele>
      </trkpt>
      <trkpt lat="45.38845" lon="5.89535">
        <ele>1434.05859375</ele>
      </trkpt>
      <trkpt lat="45.38858" lon="5.89543">
        <ele>1433.31640625</ele>
      </trkpt>
      <trkpt lat="45.38874" lon="5.89547">
        <ele>1431.08984375</ele>
      </trkpt>
      <trkpt lat="45.38888" lon="5.89547">
        <ele>1428.40625</ele>
      </trkpt>
      <trkpt lat="45.38893" lon="5.89551">
        <ele>1428.0625</ele>
      </trkpt>
      <trkpt lat="45.38898" lon="5.89553">
        <ele>1427.49609375</ele>
      </trkpt>
      <trkpt lat="45.38909" lon="5.89565">
        <ele>1428.140625</ele>
      </trkpt>
      <trkpt lat="45.38915" lon="5.89572">
        <ele>1428.80078125</ele>
      </trkpt>
      <trkpt lat="45.38918" lon="5.8958">
        <ele>1429.81640625</ele>
      </trkpt>
      <trkpt lat="45.38924" lon="5.89587">
        <ele>1430.4140625</ele>
      </trkpt>
      <trkpt lat="45.3893" lon="5.89598">
        <ele>1432.74609375</ele>
      </trkpt>
      <trkpt lat="45.3894" lon="5.89615">
        <ele>1436.28125</ele>
      </trkpt>
      <trkpt lat="45.38952" lon="5.8963">
        <ele>1439.2109375</ele>
      </trkpt>
      <trkpt lat="45.3896" lon="5.89634">
        <ele>1439.40625</ele>
      </trkpt>
      <trkpt lat="45.38969" lon="5.89638">
        <ele>1438.73828125</ele>
      </trkpt>
      <trkpt lat="45.38982" lon="5.89645">
        <ele>1438.68359375</ele>
      </trkpt>
      <trkpt lat="45.38992" lon="5.89651">
        <ele>1438.88671875</ele>
      </trkpt>
      <trkpt lat="45.39013" lon="5.89669">
        <ele>1440.3359375</ele>
      </trkpt>
      <trkpt lat="45.39032" lon="5.89685">
        <ele>1441.51171875</ele>
      </trkpt>
      <trkpt lat="45.39037" lon="5.8969">
        <ele>1441.92578125</ele>
      </trkpt>
      <trkpt lat="45.39053" lon="5.89699">
        <ele>1440.8828125</ele>
      </trkpt>
      <trkpt lat="45.39058" lon="5.89699">
        <ele>1439.73828125</ele>
      </trkpt>
      <trkpt lat="45.39057" lon="5.89688">
        <ele>1437.078125</ele>
      </trkpt>
      <trkpt lat="45.39058" lon="5.89671">
        <ele>1432.37109375</ele>
      </trkpt>
      <trkpt lat="45.3906" lon="5.89653">
        <ele>1427.234375</ele>
      </trkpt>
      <trkpt lat="45.39064" lon="5.89638">
        <ele>1422.94921875</ele>
      </trkpt>
      <trkpt lat="45.39074" lon="5.89611">
        <ele>1418.79296875</ele>
      </trkpt>
      <trkpt lat="45.39084" lon="5.89601">
        <ele>1419.89453125</ele>
      </trkpt>
      <trkpt lat="45.39092" lon="5.89597">
        <ele>1421.41015625</ele>
      </trkpt>
      <trkpt lat="45.39098" lon="5.89598">
        <ele>1423.796875</ele>
      </trkpt>
      <trkpt lat="45.39106" lon="5.89595">
        <ele>1425.51953125</ele>
      </trkpt>
      <trkpt lat="45.39112" lon="5.89592">
        <ele>1427.12109375</ele>
      </trkpt>
      <trkpt lat="45.39122" lon="5.89592">
        <ele>1430.296875</ele>
      </trkpt>
      <trkpt lat="45.39133" lon="5.89596">
        <ele>1430.6640625</ele>
      </trkpt>
      <trkpt lat="45.39143" lon="5.896">
        <ele>1431.0703125</ele>
      </trkpt>
      <trkpt lat="45.39155" lon="5.89606">
        <ele>1432.30859375</ele>
      </trkpt>
      <trkpt lat="45.39163" lon="5.89616">
        <ele>1435.328125</ele>
      </trkpt>
      <trkpt lat="45.39173" lon="5.89627">
        <ele>1439.2734375</ele>
      </trkpt>
      <trkpt lat="45.39186" lon="5.89642">
        <ele>1442.28515625</ele>
      </trkpt>
      <trkpt lat="45.3919" lon="5.8965">
        <ele>1442.953125</ele>
      </trkpt>
      <trkpt lat="45.39209" lon="5.89658">
        <ele>1438.83984375</ele>
      </trkpt>
      <trkpt lat="45.39217" lon="5.89664">
        <ele>1438.45703125</ele>
      </trkpt>
      <trkpt lat="45.39224" lon="5.89671">
        <ele>1439.15234375</ele>
      </trkpt>
      <trkpt lat="45.39241" lon="5.89691">
        <ele>1442.1953125</ele>
      </trkpt>
      <trkpt lat="45.39249" lon="5.89698">
        <ele>1441.37109375</ele>
      </trkpt>
      <trkpt lat="45.3926" lon="5.89701">
        <ele>1438.01953125</ele>
      </trkpt>
      <trkpt lat="45.39272" lon="5.89706">
        <ele>1435.84375</ele>
      </trkpt>
      <trkpt lat="45.3929" lon="5.89716">
        <ele>1434.5</ele>
      </trkpt>
      <trkpt lat="45.39298" lon="5.8972">
        <ele>1430.625</ele>
      </trkpt>
      <trkpt lat="45.39304" lon="5.89725">
        <ele>1428.828125</ele>
      </trkpt>
      <trkpt lat="45.39315" lon="5.89739">
        <ele>1430.6171875</ele>
      </trkpt>
      <trkpt lat="45.39324" lon="5.89761">
        <ele>1439.765625</ele>
      </trkpt>
      <trkpt lat="45.39331" lon="5.89773">
        <ele>1443.9765625</ele>
      </trkpt>
      <trkpt lat="45.39342" lon="5.89782">
        <ele>1444.64453125</ele>
      </trkpt>
      <trkpt lat="45.39352" lon="5.89786">
        <ele>1439.77734375</ele>
      </trkpt>
      <trkpt lat="45.39362" lon="5.89787">
        <ele>1433.4609375</ele>
      </trkpt>
      <trkpt lat="45.39373" lon="5.89783">
        <ele>1422.6640625</ele>
      </trkpt>
      <trkpt lat="45.39382" lon="5.89783">
        <ele>1415.41015625</ele>
      </trkpt>
      <trkpt lat="45.3939" lon="5.89788">
        <ele>1413.5703125</ele>
      </trkpt>
      <trkpt lat="45.3941" lon="5.89804">
        <ele>1414.796875</ele>
      </trkpt>
      <trkpt lat="45.39432" lon="5.89819">
        <ele>1419.7421875</ele>
      </trkpt>
      <trkpt lat="45.3944" lon="5.89828">
        <ele>1426.390625</ele>
      </trkpt>
      <trkpt lat="45.3945" lon="5.89835">
        <ele>1428.76171875</ele>
      </trkpt>
      <trkpt lat="45.39462" lon="5.89841">
        <ele>1428.93359375</ele>
      </trkpt>
      <trkpt lat="45.39475" lon="5.89846">
        <ele>1424.08984375</ele>
      </trkpt>
      <trkpt lat="45.39484" lon="5.89848">
        <ele>1418.9765625</ele>
      </trkpt>
      <trkpt lat="45.3949" lon="5.89851">
        <ele>1418.06640625</ele>
      </trkpt>
      <trkpt lat="45.39495" lon="5.89856">
        <ele>1419.05859375</ele>
      </trkpt>
      <trkpt lat="45.39508" lon="5.89874">
        <ele>1422.1875</ele>
      </trkpt>
      <trkpt lat="45.39514" lon="5.89877">
        <ele>1419.00390625</ele>
      </trkpt>
      <trkpt lat="45.39525" lon="5.89885">
        <ele>1415.0390625</ele>
      </trkpt>
      <trkpt lat="45.39534" lon="5.89892">
        <ele>1411.4296875</ele>
      </trkpt>
      <trkpt lat="45.39546" lon="5.8992">
        <ele>1418.37109375</ele>
      </trkpt>
      <trkpt lat="45.39558" lon="5.89949">
        <ele>1421.96875</ele>
      </trkpt>
      <trkpt lat="45.39574" lon="5.89974">
        <ele>1422.21875</ele>
      </trkpt>
      <trkpt lat="45.39586" lon="5.89987">
        <ele>1418.546875</ele>
      </trkpt>
      <trkpt lat="45.39599" lon="5.89998">
        <ele>1414.046875</ele>
      </trkpt>
      <trkpt lat="45.39607" lon="5.90006">
        <ele>1412.6484375</ele>
      </trkpt>
      <trkpt lat="45.39614" lon="5.90015">
        <ele>1413.01171875</ele>
      </trkpt>
      <trkpt lat="45.39623" lon="5.90028">
        <ele>1415.3046875</ele>
      </trkpt>
      <trkpt lat="45.39672" lon="5.90061">
        <ele>1408.18359375</ele>
      </trkpt>
      <trkpt lat="45.39697" lon="5.90088">
        <ele>1407.1015625</ele>
      </trkpt>
      <trkpt lat="45.3972" lon="5.9011">
        <ele>1400.1171875</ele>
      </trkpt>
      <trkpt lat="45.39729" lon="5.90119">
        <ele>1398.50390625</ele>
      </trkpt>
      <trkpt lat="45.39756" lon="5.90143">
        <ele>1390.7578125</ele>
      </trkpt>
      <trkpt lat="45.39771" lon="5.90155">
        <ele>1384.87109375</ele>
      </trkpt>
      <trkpt lat="45.39791" lon="5.90166">
        <ele>1375.171875</ele>
      </trkpt>
      <trkpt lat="45.39805" lon="5.90178">
        <ele>1371.62109375</ele>
      </trkpt>
      <trkpt lat="45.39809" lon="5.90183">
        <ele>1370.56640625</ele>
      </trkpt>
      <trkpt lat="45.39817" lon="5.9019">
        <ele>1368.671875</ele>
      </trkpt>
      <trkpt lat="45.39824" lon="5.902">
        <ele>1367.23046875</ele>
      </trkpt>
      <trkpt lat="45.3983" lon="5.90212">
        <ele>1367.5703125</ele>
      </trkpt>
      <trkpt lat="45.39835" lon="5.90223">
        <ele>1367.69921875</ele>
      </trkpt>
      <trkpt lat="45.39842" lon="5.90246">
        <ele>1369.74609375</ele>
      </trkpt>
      <trkpt lat="45.39845" lon="5.90252">
        <ele>1369.328125</ele>
      </trkpt>
      <trkpt lat="45.39848" lon="5.90257">
        <ele>1369.125</ele>
      </trkpt>
      <trkpt lat="45.39853" lon="5.90259">
        <ele>1367.96875</ele>
      </trkpt>
      <trkpt lat="45.39861" lon="5.90259">
        <ele>1365.73828125</ele>
      </trkpt>
      <trkpt lat="45.39876" lon="5.9026">
        <ele>1361.53515625</ele>
      </trkpt>
      <trkpt lat="45.39887" lon="5.90262">
        <ele>1358.90625</ele>
      </trkpt>
      <trkpt lat="45.39896" lon="5.90267">
        <ele>1357.5</ele>
      </trkpt>
      <trkpt lat="45.39951" lon="5.90286">
        <ele>1353.5859375</ele>
      </trkpt>
      <trkpt lat="45.39965" lon="5.90288">
        <ele>1351.3125</ele>
      </trkpt>
      <trkpt lat="45.39978" lon="5.90293">
        <ele>1349.69921875</ele>
      </trkpt>
      <trkpt lat="45.4" lon="5.90299">
        <ele>1345.890625</ele>
      </trkpt>
      <trkpt lat="45.40019" lon="5.90299">
        <ele>1341.69140625</ele>
      </trkpt>
      <trkpt lat="45.40031" lon="5.90304">
        <ele>1340.21484375</ele>
      </trkpt>
      <trkpt lat="45.40037" lon="5.90311">
        <ele>1341.00390625</ele>
      </trkpt>
      <trkpt lat="45.4005" lon="5.90333">
        <ele>1343.65625</ele>
      </trkpt>
      <trkpt lat="45.40058" lon="5.90342">
        <ele>1344.4765625</ele>
      </trkpt>
      <trkpt lat="45.40072" lon="5.90349">
        <ele>1343.17578125</ele>
      </trkpt>
      <trkpt lat="45.40084" lon="5.90354">
        <ele>1341.58203125</ele>
      </trkpt>
      <trkpt lat="45.40095" lon="5.90355">
        <ele>1339.1875</ele>
      </trkpt>
      <trkpt lat="45.40105" lon="5.90354">
        <ele>1336.09375</ele>
      </trkpt>
      <trkpt lat="45.40117" lon="5.90355">
        <ele>1333.48828125</ele>
      </trkpt>
      <trkpt lat="45.40144" lon="5.90375">
        <ele>1332.07421875</ele>
      </trkpt>
      <trkpt lat="45.40157" lon="5.90376">
        <ele>1328.30078125</ele>
      </trkpt>
      <trkpt lat="45.40199" lon="5.90402">
        <ele>1329.2421875</ele>
      </trkpt>
      <trkpt lat="45.40207" lon="5.90405">
        <ele>1328.26953125</ele>
      </trkpt>
      <trkpt lat="45.40214" lon="5.90406">
        <ele>1327.2890625</ele>
      </trkpt>
      <trkpt lat="45.40223" lon="5.90405">
        <ele>1324.30078125</ele>
      </trkpt>
      <trkpt lat="45.40233" lon="5.90402">
        <ele>1320.609375</ele>
      </trkpt>
      <trkpt lat="45.40242" lon="5.90397">
        <ele>1316.58984375</ele>
      </trkpt>
      <trkpt lat="45.40249" lon="5.9039">
        <ele>1311.625</ele>
      </trkpt>
      <trkpt lat="45.40255" lon="5.90382">
        <ele>1306.94921875</ele>
      </trkpt>
      <trkpt lat="45.4026" lon="5.90379">
        <ele>1304.84765625</ele>
      </trkpt>
      <trkpt lat="45.40269" lon="5.90377">
        <ele>1303.2734375</ele>
      </trkpt>
      <trkpt lat="45.40304" lon="5.90372">
        <ele>1298.54296875</ele>
      </trkpt>
      <trkpt lat="45.40321" lon="5.90365">
        <ele>1292.78515625</ele>
      </trkpt>
      <trkpt lat="45.40323" lon="5.9036">
        <ele>1289.921875</ele>
      </trkpt>
      <trkpt lat="45.40329" lon="5.90355">
        <ele>1287.3828125</ele>
      </trkpt>
      <trkpt lat="45.40341" lon="5.9035">
        <ele>1283.8203125</ele>
      </trkpt>
      <trkpt lat="45.40348" lon="5.90346">
        <ele>1282.16015625</ele>
      </trkpt>
      <trkpt lat="45.40353" lon="5.90341">
        <ele>1281.203125</ele>
      </trkpt>
      <trkpt lat="45.40357" lon="5.90336">
        <ele>1279.6015625</ele>
      </trkpt>
      <trkpt lat="45.40358" lon="5.90328">
        <ele>1276.85546875</ele>
      </trkpt>
      <trkpt lat="45.40362" lon="5.90313">
        <ele>1272.0625</ele>
      </trkpt>
      <trkpt lat="45.40365" lon="5.90308">
        <ele>1270.8984375</ele>
      </trkpt>
      <trkpt lat="45.40368" lon="5.90305">
        <ele>1270.82421875</ele>
      </trkpt>
      <trkpt lat="45.40373" lon="5.90299">
        <ele>1270.64453125</ele>
      </trkpt>
      <trkpt lat="45.40368" lon="5.90296">
        <ele>1268.61328125</ele>
      </trkpt>
      <trkpt lat="45.40361" lon="5.90297">
        <ele>1266.765625</ele>
      </trkpt>
      <trkpt lat="45.40349" lon="5.90303">
        <ele>1264.9453125</ele>
      </trkpt>
      <trkpt lat="45.40347" lon="5.90301">
        <ele>1263.7421875</ele>
      </trkpt>
      <trkpt lat="45.40346" lon="5.90293">
        <ele>1261.2890625</ele>
      </trkpt>
      <trkpt lat="45.40346" lon="5.90231">
        <ele>1243.81640625</ele>
      </trkpt>
      <trkpt lat="45.40344" lon="5.90227">
        <ele>1241.98046875</ele>
      </trkpt>
      <trkpt lat="45.40339" lon="5.9023">
        <ele>1241.78515625</ele>
      </trkpt>
      <trkpt lat="45.40337" lon="5.9022">
        <ele>1238.48828125</ele>
      </trkpt>
      <trkpt lat="45.40336" lon="5.90205">
        <ele>1233.625</ele>
      </trkpt>
      <trkpt lat="45.40338" lon="5.90183">
        <ele>1227.46484375</ele>
      </trkpt>
      <trkpt lat="45.4034" lon="5.90175">
        <ele>1225.93359375</ele>
      </trkpt>
      <trkpt lat="45.40347" lon="5.9017">
        <ele>1226.96875</ele>
      </trkpt>
      <trkpt lat="45.4035" lon="5.90165">
        <ele>1227.23046875</ele>
      </trkpt>
      <trkpt lat="45.40352" lon="5.90159">
        <ele>1226.41015625</ele>
      </trkpt>
      <trkpt lat="45.40353" lon="5.9015">
        <ele>1224.484375</ele>
      </trkpt>
      <trkpt lat="45.40352" lon="5.90142">
        <ele>1221.4453125</ele>
      </trkpt>
      <trkpt lat="45.4035" lon="5.90135">
        <ele>1218.36328125</ele>
      </trkpt>
      <trkpt lat="45.40348" lon="5.90127">
        <ele>1214.59375</ele>
      </trkpt>
      <trkpt lat="45.40345" lon="5.90122">
        <ele>1211.49609375</ele>
      </trkpt>
      <trkpt lat="45.40343" lon="5.90116">
        <ele>1208.58203125</ele>
      </trkpt>
      <trkpt lat="45.40341" lon="5.90101">
        <ele>1203.49609375</ele>
      </trkpt>
      <trkpt lat="45.40341" lon="5.90092">
        <ele>1200.859375</ele>
      </trkpt>
      <trkpt lat="45.40348" lon="5.90072">
        <ele>1198.33984375</ele>
      </trkpt>
      <trkpt lat="45.40358" lon="5.90048">
        <ele>1196.73046875</ele>
      </trkpt>
      <trkpt lat="45.40369" lon="5.90017">
        <ele>1192.5234375</ele>
      </trkpt>
      <trkpt lat="45.40372" lon="5.9001">
        <ele>1190.90625</ele>
      </trkpt>
      <trkpt lat="45.40375" lon="5.8999">
        <ele>1185.52734375</ele>
      </trkpt>
      <trkpt lat="45.4038" lon="5.89975">
        <ele>1182.0625</ele>
      </trkpt>
      <trkpt lat="45.40381" lon="5.89956">
        <ele>1176.1875</ele>
      </trkpt>
      <trkpt lat="45.40381" lon="5.89931">
        <ele>1168.328125</ele>
      </trkpt>
      <trkpt lat="45.40379" lon="5.89913">
        <ele>1161.390625</ele>
      </trkpt>
      <trkpt lat="45.40376" lon="5.89897">
        <ele>1153.90234375</ele>
      </trkpt>
      <trkpt lat="45.40373" lon="5.89864">
        <ele>1139.484375</ele>
      </trkpt>
      <trkpt lat="45.40368" lon="5.89837">
        <ele>1128.37890625</ele>
      </trkpt>
      <trkpt lat="45.4037" lon="5.89809">
        <ele>1120.01171875</ele>
      </trkpt>
      <trkpt lat="45.40373" lon="5.89796">
        <ele>1117.40625</ele>
      </trkpt>
      <trkpt lat="45.40375" lon="5.89789">
        <ele>1116.49609375</ele>
      </trkpt>
      <trkpt lat="45.4038" lon="5.8978">
        <ele>1117.23046875</ele>
      </trkpt>
      <trkpt lat="45.40388" lon="5.89764">
        <ele>1117.3671875</ele>
      </trkpt>
      <trkpt lat="45.40399" lon="5.89734">
        <ele>1117.0078125</ele>
      </trkpt>
      <trkpt lat="45.40403" lon="5.8972">
        <ele>1115.71484375</ele>
      </trkpt>
      <trkpt lat="45.40404" lon="5.89704">
        <ele>1112.41015625</ele>
      </trkpt>
      <trkpt lat="45.40405" lon="5.89695">
        <ele>1111.046875</ele>
      </trkpt>
      <trkpt lat="45.40411" lon="5.89679">
        <ele>1112.4375</ele>
      </trkpt>
      <trkpt lat="45.40414" lon="5.89664">
        <ele>1111.80859375</ele>
      </trkpt>
      <trkpt lat="45.40419" lon="5.89649">
        <ele>1111.984375</ele>
      </trkpt>
      <trkpt lat="45.40424" lon="5.89639">
        <ele>1113.91796875</ele>
      </trkpt>
      <trkpt lat="45.40432" lon="5.8963">
        <ele>1118.12109375</ele>
      </trkpt>
      <trkpt lat="45.40438" lon="5.8962">
        <ele>1121.29296875</ele>
      </trkpt>
      <trkpt lat="45.40451" lon="5.89603">
        <ele>1127.61328125</ele>
      </trkpt>
      <trkpt lat="45.40467" lon="5.89591">
        <ele>1133.80078125</ele>
      </trkpt>
      <trkpt lat="45.40494" lon="5.89566">
        <ele>1136.21875</ele>
      </trkpt>
      <trkpt lat="45.40502" lon="5.89559">
        <ele>1136.9296875</ele>
      </trkpt>
      <trkpt lat="45.40509" lon="5.89551">
        <ele>1135.80078125</ele>
      </trkpt>
      <trkpt lat="45.40537" lon="5.89525">
        <ele>1133.65234375</ele>
      </trkpt>
      <trkpt lat="45.40546" lon="5.89522">
        <ele>1135.04296875</ele>
      </trkpt>
      <trkpt lat="45.40569" lon="5.89516">
        <ele>1138.84375</ele>
      </trkpt>
      <trkpt lat="45.40581" lon="5.89516">
        <ele>1139.33203125</ele>
      </trkpt>
      <trkpt lat="45.40593" lon="5.89517">
        <ele>1140.46484375</ele>
      </trkpt>
      <trkpt lat="45.4061" lon="5.89517">
        <ele>1141.22265625</ele>
      </trkpt>
      <trkpt lat="45.40615" lon="5.89517">
        <ele>1141.45703125</ele>
      </trkpt>
      <trkpt lat="45.40632" lon="5.89523">
        <ele>1142.71484375</ele>
      </trkpt>
      <trkpt lat="45.40649" lon="5.89525">
        <ele>1139.546875</ele>
      </trkpt>
      <trkpt lat="45.40694" lon="5.89533">
        <ele>1133.38671875</ele>
      </trkpt>
      <trkpt lat="45.40706" lon="5.89535">
        <ele>1131.25390625</ele>
      </trkpt>
      <trkpt lat="45.40728" lon="5.89545">
        <ele>1132.59375</ele>
      </trkpt>
      <trkpt lat="45.40738" lon="5.89547">
        <ele>1132.3046875</ele>
      </trkpt>
      <trkpt lat="45.40755" lon="5.89543">
        <ele>1129.01171875</ele>
      </trkpt>
      <trkpt lat="45.40767" lon="5.89538">
        <ele>1125.12109375</ele>
      </trkpt>
      <trkpt lat="45.40779" lon="5.89528">
        <ele>1118.58984375</ele>
      </trkpt>
      <trkpt lat="45.40791" lon="5.89523">
        <ele>1115.375</ele>
      </trkpt>
      <trkpt lat="45.40802" lon="5.89521">
        <ele>1116.140625</ele>
      </trkpt>
      <trkpt lat="45.40822" lon="5.89524">
        <ele>1121.71484375</ele>
      </trkpt>
      <trkpt lat="45.4083" lon="5.89518">
        <ele>1120.1484375</ele>
      </trkpt>
      <trkpt lat="45.40837" lon="5.89508">
        <ele>1115.70703125</ele>
      </trkpt>
      <trkpt lat="45.4084" lon="5.89496">
        <ele>1109.92578125</ele>
      </trkpt>
      <trkpt lat="45.40845" lon="5.89488">
        <ele>1106.8046875</ele>
      </trkpt>
      <trkpt lat="45.40846" lon="5.89484">
        <ele>1105.01171875</ele>
      </trkpt>
      <trkpt lat="45.40849" lon="5.89473">
        <ele>1101.12109375</ele>
      </trkpt>
      <trkpt lat="45.4085" lon="5.89458">
        <ele>1096.84375</ele>
      </trkpt>
      <trkpt lat="45.40852" lon="5.89444">
        <ele>1093.69921875</ele>
      </trkpt>
      <trkpt lat="45.40852" lon="5.89412">
        <ele>1084.7109375</ele>
      </trkpt>
      <trkpt lat="45.40855" lon="5.89397">
        <ele>1084.984375</ele>
      </trkpt>
      <trkpt lat="45.40858" lon="5.89378">
        <ele>1083.94140625</ele>
      </trkpt>
      <trkpt lat="45.40855" lon="5.89397">
        <ele>1084.984375</ele>
      </trkpt>
      <trkpt lat="45.40852" lon="5.89412">
        <ele>1084.7109375</ele>
      </trkpt>
      <trkpt lat="45.40852" lon="5.89444">
        <ele>1093.69921875</ele>
      </trkpt>
      <trkpt lat="45.4085" lon="5.89458">
        <ele>1096.84375</ele>
      </trkpt>
      <trkpt lat="45.40849" lon="5.89473">
        <ele>1101.12109375</ele>
      </trkpt>
      <trkpt lat="45.40846" lon="5.89484">
        <ele>1105.01171875</ele>
      </trkpt>
      <trkpt lat="45.40845" lon="5.89488">
        <ele>1106.8046875</ele>
      </trkpt>
      <trkpt lat="45.4084" lon="5.89496">
        <ele>1109.92578125</ele>
      </trkpt>
      <trkpt lat="45.40837" lon="5.89508">
        <ele>1115.70703125</ele>
      </trkpt>
      <trkpt lat="45.4083" lon="5.89518">
        <ele>1120.1484375</ele>
      </trkpt>
      <trkpt lat="45.40822" lon="5.89524">
        <ele>1121.71484375</ele>
      </trkpt>
      <trkpt lat="45.40802" lon="5.89521">
        <ele>1116.140625</ele>
      </trkpt>
      <trkpt lat="45.40791" lon="5.89523">
        <ele>1115.375</ele>
      </trkpt>
      <trkpt lat="45.40779" lon="5.89528">
        <ele>1118.58984375</ele>
      </trkpt>
      <trkpt lat="45.40767" lon="5.89538">
        <ele>1125.12109375</ele>
      </trkpt>
      <trkpt lat="45.40755" lon="5.89543">
        <ele>1129.01171875</ele>
      </trkpt>
      <trkpt lat="45.40743" lon="5.89546">
        <ele>1131.31640625</ele>
      </trkpt>
      <trkpt lat="45.40755" lon="5.89543">
        <ele>1129.01171875</ele>
      </trkpt>
      <trkpt lat="45.40767" lon="5.89538">
        <ele>1125.12109375</ele>
      </trkpt>
      <trkpt lat="45.40779" lon="5.89528">
        <ele>1118.58984375</ele>
      </trkpt>
      <trkpt lat="45.40791" lon="5.89523">
        <ele>1115.375</ele>
      </trkpt>
      <trkpt lat="45.40802" lon="5.89521">
        <ele>1116.140625</ele>
      </trkpt>
      <trkpt lat="45.40822" lon="5.89524">
        <ele>1121.71484375</ele>
      </trkpt>
      <trkpt lat="45.4083" lon="5.89518">
        <ele>1120.1484375</ele>
      </trkpt>
      <trkpt lat="45.40837" lon="5.89508">
        <ele>1115.70703125</ele>
      </trkpt>
      <trkpt lat="45.4084" lon="5.89496">
        <ele>1109.92578125</ele>
      </trkpt>
      <trkpt lat="45.40845" lon="5.89488">
        <ele>1106.8046875</ele>
      </trkpt>
      <trkpt lat="45.40846" lon="5.89484">
        <ele>1105.01171875</ele>
      </trkpt>
      <trkpt lat="45.40849" lon="5.89473">
        <ele>1101.12109375</ele>
      </trkpt>
      <trkpt lat="45.4085" lon="5.89458">
        <ele>1096.84375</ele>
      </trkpt>
      <trkpt lat="45.40852" lon="5.89444">
        <ele>1093.69921875</ele>
      </trkpt>
      <trkpt lat="45.40852" lon="5.89412">
        <ele>1084.7109375</ele>
      </trkpt>
      <trkpt lat="45.40855" lon="5.89397">
        <ele>1084.984375</ele>
      </trkpt>
      <trkpt lat="45.40858" lon="5.89378">
        <ele>1083.94140625</ele>
      </trkpt>
      <trkpt lat="45.40859" lon="5.89368">
        <ele>1083.44140625</ele>
      </trkpt>
      <trkpt lat="45.4086" lon="5.89353">
        <ele>1082.265625</ele>
      </trkpt>
      <trkpt lat="45.40863" lon="5.89337">
        <ele>1082.5625</ele>
      </trkpt>
      <trkpt lat="45.40866" lon="5.89319">
        <ele>1082.54296875</ele>
      </trkpt>
      <trkpt lat="45.40873" lon="5.893">
        <ele>1084.48828125</ele>
      </trkpt>
      <trkpt lat="45.40881" lon="5.89278">
        <ele>1087.0078125</ele>
      </trkpt>
      <trkpt lat="45.40888" lon="5.89259">
        <ele>1088</ele>
      </trkpt>
      <trkpt lat="45.40902" lon="5.89234">
        <ele>1092.03125</ele>
      </trkpt>
      <trkpt lat="45.40909" lon="5.89223">
        <ele>1092.50390625</ele>
      </trkpt>
      <trkpt lat="45.40918" lon="5.89217">
        <ele>1094.04296875</ele>
      </trkpt>
      <trkpt lat="45.40926" lon="5.89213">
        <ele>1095.921875</ele>
      </trkpt>
      <trkpt lat="45.40935" lon="5.89205">
        <ele>1096.86328125</ele>
      </trkpt>
      <trkpt lat="45.40941" lon="5.89197">
        <ele>1096.6484375</ele>
      </trkpt>
      <trkpt lat="45.40979" lon="5.89164">
        <ele>1101.3046875</ele>
      </trkpt>
      <trkpt lat="45.40987" lon="5.8916">
        <ele>1102.51171875</ele>
      </trkpt>
      <trkpt lat="45.40998" lon="5.89154">
        <ele>1103.53515625</ele>
      </trkpt>
      <trkpt lat="45.41008" lon="5.89145">
        <ele>1103.4375</ele>
      </trkpt>
      <trkpt lat="45.41014" lon="5.89133">
        <ele>1102.72265625</ele>
      </trkpt>
      <trkpt lat="45.41018" lon="5.89118">
        <ele>1101.859375</ele>
      </trkpt>
      <trkpt lat="45.41024" lon="5.89096">
        <ele>1100.6875</ele>
      </trkpt>
      <trkpt lat="45.41028" lon="5.89085">
        <ele>1101.0390625</ele>
      </trkpt>
      <trkpt lat="45.41031" lon="5.89072">
        <ele>1100.73828125</ele>
      </trkpt>
      <trkpt lat="45.41035" lon="5.89042">
        <ele>1098.61328125</ele>
      </trkpt>
      <trkpt lat="45.41039" lon="5.89001">
        <ele>1095.70703125</ele>
      </trkpt>
      <trkpt lat="45.41046" lon="5.88968">
        <ele>1095.92578125</ele>
      </trkpt>
      <trkpt lat="45.41051" lon="5.88954">
        <ele>1095.97265625</ele>
      </trkpt>
      <trkpt lat="45.41055" lon="5.88942">
        <ele>1096.390625</ele>
      </trkpt>
      <trkpt lat="45.4107" lon="5.88911">
        <ele>1097.8359375</ele>
      </trkpt>
      <trkpt lat="45.41088" lon="5.8889">
        <ele>1097.12890625</ele>
      </trkpt>
      <trkpt lat="45.41097" lon="5.88878">
        <ele>1095.375</ele>
      </trkpt>
      <trkpt lat="45.41117" lon="5.88859">
        <ele>1093.21875</ele>
      </trkpt>
      <trkpt lat="45.41127" lon="5.88846">
        <ele>1089.05859375</ele>
      </trkpt>
      <trkpt lat="45.41133" lon="5.88836">
        <ele>1085.21875</ele>
      </trkpt>
      <trkpt lat="45.4114" lon="5.88826">
        <ele>1081.33984375</ele>
      </trkpt>
      <trkpt lat="45.41163" lon="5.88799">
        <ele>1071.953125</ele>
      </trkpt>
      <trkpt lat="45.41169" lon="5.8879">
        <ele>1069.68359375</ele>
      </trkpt>
      <trkpt lat="45.41183" lon="5.8875">
        <ele>1058.0625</ele>
      </trkpt>
      <trkpt lat="45.41187" lon="5.88735">
        <ele>1054.546875</ele>
      </trkpt>
      <trkpt lat="45.41193" lon="5.88724">
        <ele>1052.45703125</ele>
      </trkpt>
      <trkpt lat="45.41203" lon="5.88717">
        <ele>1051.6484375</ele>
      </trkpt>
      <trkpt lat="45.41213" lon="5.88708">
        <ele>1050.546875</ele>
      </trkpt>
      <trkpt lat="45.41222" lon="5.88699">
        <ele>1049.15625</ele>
      </trkpt>
      <trkpt lat="45.41227" lon="5.88694">
        <ele>1048.66015625</ele>
      </trkpt>
      <trkpt lat="45.41247" lon="5.88667">
        <ele>1045.984375</ele>
      </trkpt>
      <trkpt lat="45.41259" lon="5.88647">
        <ele>1044.27734375</ele>
      </trkpt>
      <trkpt lat="45.41266" lon="5.88631">
        <ele>1043.15625</ele>
      </trkpt>
      <trkpt lat="45.41268" lon="5.88634">
        <ele>1044.04296875</ele>
      </trkpt>
      <trkpt lat="45.41266" lon="5.88631">
        <ele>1043.15625</ele>
      </trkpt>
      <trkpt lat="45.41267" lon="5.88638">
        <ele>1044.27734375</ele>
      </trkpt>
    </trkseg>
  </trk>
</gpx>